<?xml version='1.0' encoding='UTF-8'?><gpx version="1.1" creator="JPX - https://github.com/jenetics/jpx" xmlns="http://www.topografix.com/GPX/1/1"><trk><trkseg><trkpt lat="45.37769126704586" lon="9.219611915122085"><ele>99.0</ele><time>2026-04-19T05:55:37.002Z</time></trkpt><trkpt lat="45.37761686349576" lon="9.219632237721946"><ele>99.0</ele><time>2026-04-19T05:55:39.002Z</time></trkpt><trkpt lat="45.37755019568218" lon="9.219645091318908"><ele>99.0</ele><time>2026-04-19T05:55:41.002Z</time></trkpt><trkpt lat="45.377468972789586" lon="9.21963665449714"><ele>99.0</ele><time>2026-04-19T05:55:43.002Z</time></trkpt><trkpt lat="45.377383800528776" lon="9.219613760847068"><ele>99.0</ele><time>2026-04-19T05:55:45.002Z</time></trkpt><trkpt lat="45.377301417751035" lon="9.219569088591573"><ele>99.0</ele><time>2026-04-19T05:55:47.002Z</time></trkpt><trkpt lat="45.37723916392207" lon="9.219492274201281"><ele>98.66666666666667</ele><time>2026-04-19T05:55:49.001Z</time></trkpt><trkpt lat="45.3771712272081" lon="9.21947398198758"><ele>98.33333333333334</ele><time>2026-04-19T05:55:53.001Z</time></trkpt><trkpt lat="45.37714420019115" lon="9.219582224525904"><ele>98.0</ele><time>2026-04-19T05:56:57.001Z</time></trkpt><trkpt lat="45.377081347773505" lon="9.219603996018332"><ele>97.66666666666667</ele><time>2026-04-19T05:56:59.001Z</time></trkpt><trkpt lat="45.376991021126315" lon="9.21953508808759"><ele>97.33333333333334</ele><time>2026-04-19T05:57:01.001Z</time></trkpt><trkpt lat="45.37688243848846" lon="9.219465414851246"><ele>97.0</ele><time>2026-04-19T05:57:03.001Z</time></trkpt><trkpt lat="45.37676973413754" lon="9.21937685188512"><ele>97.00000000000001</ele><time>2026-04-19T05:57:05.001Z</time></trkpt><trkpt lat="45.37666327886898" lon="9.219282525501384"><ele>97.0</ele><time>2026-04-19T05:57:07.001Z</time></trkpt><trkpt lat="45.376605255979634" lon="9.2192472198048"><ele>97.0</ele><time>2026-04-19T05:57:08.001Z</time></trkpt><trkpt lat="45.37654210087646" lon="9.219224739752136"><ele>97.0</ele><time>2026-04-19T05:57:09.001Z</time></trkpt><trkpt lat="45.37647906133831" lon="9.219218249243617"><ele>97.00000000000001</ele><time>2026-04-19T05:57:10.001Z</time></trkpt><trkpt lat="45.37641445286035" lon="9.219232204744117"><ele>97.0</ele><time>2026-04-19T05:57:11.001Z</time></trkpt><trkpt lat="45.3763465704915" lon="9.219246100040486"><ele>97.00000000000001</ele><time>2026-04-19T05:57:12.001Z</time></trkpt><trkpt lat="45.376283889770704" lon="9.219264990971453"><ele>97.0</ele><time>2026-04-19T05:57:13.001Z</time></trkpt><trkpt lat="45.37622405669273" lon="9.21930753682386"><ele>97.0</ele><time>2026-04-19T05:57:14.001Z</time></trkpt><trkpt lat="45.37616341530114" lon="9.219352647242255"><ele>97.0</ele><time>2026-04-19T05:57:15.001Z</time></trkpt><trkpt lat="45.37609796293256" lon="9.219361142732623"><ele>97.00000000000001</ele><time>2026-04-19T05:57:16.001Z</time></trkpt><trkpt lat="45.37603096159117" lon="9.219359392347757"><ele>97.0</ele><time>2026-04-19T05:57:17.001Z</time></trkpt><trkpt lat="45.3758954929923" lon="9.219348332838846"><ele>97.00000000000001</ele><time>2026-04-19T05:57:19.001Z</time></trkpt><trkpt lat="45.37581932462512" lon="9.219301693150205"><ele>97.0</ele><time>2026-04-19T05:57:20.001Z</time></trkpt><trkpt lat="45.37575161137648" lon="9.21925679808446"><ele>97.0</ele><time>2026-04-19T05:57:21.001Z</time></trkpt><trkpt lat="45.37568527545991" lon="9.219210641781936"><ele>97.0</ele><time>2026-04-19T05:57:22.001Z</time></trkpt><trkpt lat="45.375630196811365" lon="9.219147689325528"><ele>97.00000000000001</ele><time>2026-04-19T05:57:23.001Z</time></trkpt><trkpt lat="45.375591914440335" lon="9.219067466781391"><ele>97.0</ele><time>2026-04-19T05:57:24.001Z</time></trkpt><trkpt lat="45.37553099009495" lon="9.21891573105514"><ele>97.6</ele><time>2026-04-19T05:57:26.001Z</time></trkpt><trkpt lat="45.37547455725765" lon="9.21878664977524"><ele>98.19999999999999</ele><time>2026-04-19T05:57:28.001Z</time></trkpt><trkpt lat="45.37536825956956" lon="9.218823197019399"><ele>98.8</ele><time>2026-04-19T05:57:30.001Z</time></trkpt><trkpt lat="45.37525517831285" lon="9.218844515498164"><ele>99.4</ele><time>2026-04-19T05:57:32.001Z</time></trkpt><trkpt lat="45.375139139569455" lon="9.2188613551943"><ele>100.0</ele><time>2026-04-19T05:57:34.001Z</time></trkpt><trkpt lat="45.375025193534775" lon="9.218877693087332"><ele>100.0</ele><time>2026-04-19T05:57:36.001Z</time></trkpt><trkpt lat="45.37490564640184" lon="9.218894415597024"><ele>100.0</ele><time>2026-04-19T05:57:38.001Z</time></trkpt><trkpt lat="45.37478958813148" lon="9.218917204005498"><ele>100.0</ele><time>2026-04-19T05:57:40.001Z</time></trkpt><trkpt lat="45.3746660410118" lon="9.21893224162517"><ele>100.0</ele><time>2026-04-19T05:57:42.001Z</time></trkpt><trkpt lat="45.37455081936263" lon="9.218944453725229"><ele>99.25</ele><time>2026-04-19T05:57:44.001Z</time></trkpt><trkpt lat="45.37443372479453" lon="9.218962652672953"><ele>98.5</ele><time>2026-04-19T05:57:46.001Z</time></trkpt><trkpt lat="45.374320962575965" lon="9.218978923110532"><ele>97.75</ele><time>2026-04-19T05:57:48.001Z</time></trkpt><trkpt lat="45.374207793701345" lon="9.218991649883835"><ele>97.0</ele><time>2026-04-19T05:57:50.001Z</time></trkpt><trkpt lat="45.37413304990624" lon="9.218831430118136"><ele>97.0</ele><time>2026-04-19T05:57:51.001Z</time></trkpt><trkpt lat="45.37405921906668" lon="9.218849569456447"><ele>97.0</ele><time>2026-04-19T05:57:53.001Z</time></trkpt><trkpt lat="45.374233057102714" lon="9.218635438570672"><ele>97.0</ele><time>2026-04-19T05:57:56.001Z</time></trkpt><trkpt lat="45.37421420974491" lon="9.21848562861016"><ele>97.0</ele><time>2026-04-19T05:57:58.001Z</time></trkpt><trkpt lat="45.37414060581014" lon="9.218638097690146"><ele>98.5</ele><time>2026-04-19T05:58:00Z</time></trkpt><trkpt lat="45.37432494790631" lon="9.218062681980573"><ele>100.0</ele><time>2026-04-19T05:58:06Z</time></trkpt><trkpt lat="45.37433667466383" lon="9.217940725656392"><ele>100.0</ele><time>2026-04-19T05:58:08Z</time></trkpt><trkpt lat="45.374260313750284" lon="9.217839054482367"><ele>100.0</ele><time>2026-04-19T05:58:10Z</time></trkpt><trkpt lat="45.374221309304616" lon="9.217700801742334"><ele>100.0</ele><time>2026-04-19T05:58:12Z</time></trkpt><trkpt lat="45.374171720323794" lon="9.217564632073351"><ele>100.0</ele><time>2026-04-19T05:58:14Z</time></trkpt><trkpt lat="45.374081335765545" lon="9.217500170401994"><ele>100.0</ele><time>2026-04-19T05:58:16Z</time></trkpt><trkpt lat="45.3739666315547" lon="9.217488782098796"><ele>100.0</ele><time>2026-04-19T05:58:18.001Z</time></trkpt><trkpt lat="45.373867532694426" lon="9.217457512006954"><ele>100.0</ele><time>2026-04-19T05:58:20.001Z</time></trkpt><trkpt lat="45.37376753778642" lon="9.217420768107656"><ele>100.0</ele><time>2026-04-19T05:58:22.001Z</time></trkpt><trkpt lat="45.37366208811394" lon="9.217448977486706"><ele>100.0</ele><time>2026-04-19T05:58:24.001Z</time></trkpt><trkpt lat="45.373562175197655" lon="9.217475192803024"><ele>100.0</ele><time>2026-04-19T05:58:26.001Z</time></trkpt><trkpt lat="45.37347070090554" lon="9.217425824406462"><ele>99.4</ele><time>2026-04-19T05:58:28.001Z</time></trkpt><trkpt lat="45.373432478463506" lon="9.217285698812212"><ele>98.8</ele><time>2026-04-19T05:58:30.001Z</time></trkpt><trkpt lat="45.373388900479306" lon="9.217177993723544"><ele>98.19999999999999</ele><time>2026-04-19T05:58:32.001Z</time></trkpt><trkpt lat="45.37329614764532" lon="9.217157753026639"><ele>97.6</ele><time>2026-04-19T05:58:34.001Z</time></trkpt><trkpt lat="45.37327810987109" lon="9.217015464529728"><ele>97.0</ele><time>2026-04-19T05:58:36.001Z</time></trkpt><trkpt lat="45.37326137814868" lon="9.216890890738329"><ele>97.0</ele><time>2026-04-19T05:58:38.001Z</time></trkpt><trkpt lat="45.37315993309208" lon="9.216863772334646"><ele>97.0</ele><time>2026-04-19T05:58:41.001Z</time></trkpt><trkpt lat="45.37306585105127" lon="9.216882721188039"><ele>97.0</ele><time>2026-04-19T05:58:43.001Z</time></trkpt><trkpt lat="45.37297489437605" lon="9.216880140068648"><ele>97.0</ele><time>2026-04-19T05:58:45.001Z</time></trkpt><trkpt lat="45.372891574786635" lon="9.216833656299757"><ele>97.0</ele><time>2026-04-19T05:58:47.001Z</time></trkpt><trkpt lat="45.37280234861604" lon="9.216795787613483"><ele>97.0</ele><time>2026-04-19T05:58:49.001Z</time></trkpt><trkpt lat="45.37270699447387" lon="9.216766102923335"><ele>97.0</ele><time>2026-04-19T05:58:51.001Z</time></trkpt><trkpt lat="45.37260376027122" lon="9.216724585698774"><ele>97.0</ele><time>2026-04-19T05:58:53.001Z</time></trkpt><trkpt lat="45.372500480504534" lon="9.216675548828437"><ele>97.0</ele><time>2026-04-19T05:58:55.001Z</time></trkpt><trkpt lat="45.37242599145727" lon="9.21660954844532"><ele>97.0</ele><time>2026-04-19T05:58:57.001Z</time></trkpt><trkpt lat="45.37236792890694" lon="9.216532716559295"><ele>97.0</ele><time>2026-04-19T05:58:59.001Z</time></trkpt><trkpt lat="45.372312579625905" lon="9.216472035472497"><ele>97.0</ele><time>2026-04-19T05:59:02.001Z</time></trkpt><trkpt lat="45.372305760283595" lon="9.216330682275773"><ele>97.0</ele><time>2026-04-19T05:59:04.001Z</time></trkpt><trkpt lat="45.372301059945904" lon="9.216197153876712"><ele>97.0</ele><time>2026-04-19T05:59:06.001Z</time></trkpt><trkpt lat="45.37228166841821" lon="9.216058593736873"><ele>97.0</ele><time>2026-04-19T05:59:08.001Z</time></trkpt><trkpt lat="45.37227295060646" lon="9.215918114833567"><ele>97.0</ele><time>2026-04-19T05:59:10.001Z</time></trkpt><trkpt lat="45.372256841004784" lon="9.215771208810331"><ele>97.0</ele><time>2026-04-19T05:59:12.001Z</time></trkpt><trkpt lat="45.372235451918485" lon="9.215620394944015"><ele>97.0</ele><time>2026-04-19T05:59:14.001Z</time></trkpt><trkpt lat="45.372219895190916" lon="9.215467383002443"><ele>97.0</ele><time>2026-04-19T05:59:16.001Z</time></trkpt><trkpt lat="45.372206511954154" lon="9.215317595695184"><ele>97.0</ele><time>2026-04-19T05:59:18.001Z</time></trkpt><trkpt lat="45.37219875164304" lon="9.215161283008724"><ele>97.39999999999999</ele><time>2026-04-19T05:59:20.001Z</time></trkpt><trkpt lat="45.37218027896485" lon="9.21500892757323"><ele>97.8</ele><time>2026-04-19T05:59:22.001Z</time></trkpt><trkpt lat="45.37216561816621" lon="9.214852220991771"><ele>98.2</ele><time>2026-04-19T05:59:24.001Z</time></trkpt><trkpt lat="45.37214665896436" lon="9.214695655859382"><ele>98.6</ele><time>2026-04-19T05:59:26.001Z</time></trkpt><trkpt lat="45.372142616939584" lon="9.214539678834571"><ele>99.0</ele><time>2026-04-19T05:59:28.001Z</time></trkpt><trkpt lat="45.3721190350972" lon="9.214382544669007"><ele>99.2</ele><time>2026-04-19T05:59:30.001Z</time></trkpt><trkpt lat="45.372099678929345" lon="9.214227973054724"><ele>99.4</ele><time>2026-04-19T05:59:32.001Z</time></trkpt><trkpt lat="45.37208560798646" lon="9.214070218476108"><ele>99.6</ele><time>2026-04-19T05:59:34.001Z</time></trkpt><trkpt lat="45.372059608023754" lon="9.213920143070839"><ele>99.8</ele><time>2026-04-19T05:59:36.001Z</time></trkpt><trkpt lat="45.37200595487463" lon="9.213784421560545"><ele>100.0</ele><time>2026-04-19T05:59:38.001Z</time></trkpt><trkpt lat="45.3719043145373" lon="9.213709271490488"><ele>100.33333333333334</ele><time>2026-04-19T05:59:40.001Z</time></trkpt><trkpt lat="45.37199435016938" lon="9.213583410992058"><ele>100.66666666666666</ele><time>2026-04-19T05:59:42.001Z</time></trkpt><trkpt lat="45.37197439083587" lon="9.213494426648243"><ele>101.0</ele><time>2026-04-19T05:59:44.001Z</time></trkpt><trkpt lat="45.371649168664106" lon="9.213379417427303"><ele>101.0</ele><time>2026-04-19T05:59:45.001Z</time></trkpt><trkpt lat="45.37153941877291" lon="9.213404737926021"><ele>101.0</ele><time>2026-04-19T05:59:47.001Z</time></trkpt><trkpt lat="45.37142988028897" lon="9.213429218407747"><ele>101.0</ele><time>2026-04-19T05:59:49Z</time></trkpt><trkpt lat="45.37131836477366" lon="9.21345185877485"><ele>101.0</ele><time>2026-04-19T05:59:51Z</time></trkpt><trkpt lat="45.37120455252715" lon="9.213474965448288"><ele>101.0</ele><time>2026-04-19T05:59:53Z</time></trkpt><trkpt lat="45.3710838499288" lon="9.213499471201676"><ele>101.0</ele><time>2026-04-19T05:59:55Z</time></trkpt><trkpt lat="45.37096862827574" lon="9.213522720003837"><ele>101.0</ele><time>2026-04-19T05:59:57Z</time></trkpt><trkpt lat="45.37085349807928" lon="9.213547065515513"><ele>101.0</ele><time>2026-04-19T05:59:59Z</time></trkpt><trkpt lat="45.37081344707743" lon="9.213696975541858"><ele>101.0</ele><time>2026-04-19T06:00:00Z</time></trkpt><trkpt lat="45.370721278163685" lon="9.21378447090231"><ele>101.0</ele><time>2026-04-19T06:00:02Z</time></trkpt><trkpt lat="45.37060422142705" lon="9.21379641763274"><ele>101.0</ele><time>2026-04-19T06:00:04Z</time></trkpt><trkpt lat="45.37049943500523" lon="9.213868364020595"><ele>101.0</ele><time>2026-04-19T06:00:06Z</time></trkpt><trkpt lat="45.370396946620744" lon="9.213941164249356"><ele>100.5</ele><time>2026-04-19T06:00:08Z</time></trkpt><trkpt lat="45.37029475665281" lon="9.214016204889827"><ele>100.0</ele><time>2026-04-19T06:00:10Z</time></trkpt><trkpt lat="45.370182851168394" lon="9.214056567380744"><ele>99.5</ele><time>2026-04-19T06:00:12Z</time></trkpt><trkpt lat="45.370081283370745" lon="9.214146758905931"><ele>99.0</ele><time>2026-04-19T06:00:14Z</time></trkpt><trkpt lat="45.369988054786035" lon="9.214238832962307"><ele>99.0</ele><time>2026-04-19T06:00:16Z</time></trkpt><trkpt lat="45.36990073690087" lon="9.214340504924808"><ele>99.0</ele><time>2026-04-19T06:00:18Z</time></trkpt><trkpt lat="45.36981090720601" lon="9.214435052310257"><ele>99.0</ele><time>2026-04-19T06:00:20Z</time></trkpt><trkpt lat="45.369720795384644" lon="9.214506210063291"><ele>99.0</ele><time>2026-04-19T06:00:22Z</time></trkpt><trkpt lat="45.36961710538491" lon="9.214572763370542"><ele>99.0</ele><time>2026-04-19T06:00:24Z</time></trkpt><trkpt lat="45.36950701906932" lon="9.214609086494821"><ele>98.2</ele><time>2026-04-19T06:00:26Z</time></trkpt><trkpt lat="45.36939078427911" lon="9.214586425186361"><ele>97.4</ele><time>2026-04-19T06:00:28Z</time></trkpt><trkpt lat="45.369268743445886" lon="9.214561248385694"><ele>96.6</ele><time>2026-04-19T06:00:30Z</time></trkpt><trkpt lat="45.36914949059766" lon="9.214568613850215"><ele>95.8</ele><time>2026-04-19T06:00:32Z</time></trkpt><trkpt lat="45.36908722067867" lon="9.214604984489279"><ele>95.0</ele><time>2026-04-19T06:00:33Z</time></trkpt><trkpt lat="45.368976710980114" lon="9.214676263236873"><ele>95.0</ele><time>2026-04-19T06:00:35.001Z</time></trkpt><trkpt lat="45.3688721533916" lon="9.214759440115524"><ele>95.0</ele><time>2026-04-19T06:00:37.001Z</time></trkpt><trkpt lat="45.36876891614457" lon="9.214849732693603"><ele>95.0</ele><time>2026-04-19T06:00:39.001Z</time></trkpt><trkpt lat="45.36867295484191" lon="9.214961105634742"><ele>95.0</ele><time>2026-04-19T06:00:41.001Z</time></trkpt><trkpt lat="45.36862603808763" lon="9.21502121631187"><ele>95.0</ele><time>2026-04-19T06:00:42.001Z</time></trkpt><trkpt lat="45.36854126076489" lon="9.215151878108625"><ele>95.25</ele><time>2026-04-19T06:00:44.001Z</time></trkpt><trkpt lat="45.368496901186056" lon="9.215217771838006"><ele>95.5</ele><time>2026-04-19T06:00:45.001Z</time></trkpt><trkpt lat="45.368459958874745" lon="9.215291203202842"><ele>95.75</ele><time>2026-04-19T06:00:46.001Z</time></trkpt><trkpt lat="45.368423841014085" lon="9.215365413740003"><ele>96.0</ele><time>2026-04-19T06:00:47.001Z</time></trkpt><trkpt lat="45.36838390863214" lon="9.215435088288258"><ele>96.25</ele><time>2026-04-19T06:00:48.001Z</time></trkpt><trkpt lat="45.368341155730946" lon="9.215504270588646"><ele>96.5</ele><time>2026-04-19T06:00:49.001Z</time></trkpt><trkpt lat="45.368298943219216" lon="9.215575373382574"><ele>96.75</ele><time>2026-04-19T06:00:50.001Z</time></trkpt><trkpt lat="45.36825754544952" lon="9.215643791576053"><ele>97.0</ele><time>2026-04-19T06:00:51.001Z</time></trkpt><trkpt lat="45.368211512783084" lon="9.215705914507563"><ele>97.00000000000001</ele><time>2026-04-19T06:00:52.001Z</time></trkpt><trkpt lat="45.36816226314695" lon="9.215763329055179"><ele>97.0</ele><time>2026-04-19T06:00:53.001Z</time></trkpt><trkpt lat="45.36805995949684" lon="9.215864156597508"><ele>97.0</ele><time>2026-04-19T06:00:55.001Z</time></trkpt><trkpt lat="45.36795863423035" lon="9.215964740954442"><ele>97.0</ele><time>2026-04-19T06:00:57.001Z</time></trkpt><trkpt lat="45.367906377017206" lon="9.216016068957439"><ele>97.00000000000001</ele><time>2026-04-19T06:00:58.001Z</time></trkpt><trkpt lat="45.36785378250019" lon="9.216067744309761"><ele>97.0</ele><time>2026-04-19T06:00:59.001Z</time></trkpt><trkpt lat="45.36780211829317" lon="9.216119709986652"><ele>97.00000000000001</ele><time>2026-04-19T06:01:00.001Z</time></trkpt><trkpt lat="45.367749920141094" lon="9.216170358846652"><ele>97.0</ele><time>2026-04-19T06:01:01.001Z</time></trkpt><trkpt lat="45.3676970677023" lon="9.216219659022105"><ele>97.0</ele><time>2026-04-19T06:01:02.001Z</time></trkpt><trkpt lat="45.36759375475413" lon="9.216321394617353"><ele>97.0</ele><time>2026-04-19T06:01:04.001Z</time></trkpt><trkpt lat="45.367541162983926" lon="9.216371771469332"><ele>97.00000000000001</ele><time>2026-04-19T06:01:05.001Z</time></trkpt><trkpt lat="45.36743798976775" lon="9.216470455943384"><ele>97.0</ele><time>2026-04-19T06:01:07.001Z</time></trkpt><trkpt lat="45.36738672795887" lon="9.216523041231081"><ele>97.0</ele><time>2026-04-19T06:01:08.001Z</time></trkpt><trkpt lat="45.36733532547481" lon="9.216577055158991"><ele>97.0</ele><time>2026-04-19T06:01:09.001Z</time></trkpt><trkpt lat="45.367284714300894" lon="9.21663196536274"><ele>97.0</ele><time>2026-04-19T06:01:10.001Z</time></trkpt><trkpt lat="45.367234613242104" lon="9.21668810193135"><ele>97.0</ele><time>2026-04-19T06:01:11.001Z</time></trkpt><trkpt lat="45.36718466924415" lon="9.216744168968663"><ele>97.0</ele><time>2026-04-19T06:01:12.001Z</time></trkpt><trkpt lat="45.367134789836946" lon="9.216799746081817"><ele>97.0</ele><time>2026-04-19T06:01:13.001Z</time></trkpt><trkpt lat="45.367085980827994" lon="9.216856557156671"><ele>97.0</ele><time>2026-04-19T06:01:14.001Z</time></trkpt><trkpt lat="45.366987550847696" lon="9.216965656671348"><ele>96.6</ele><time>2026-04-19T06:01:16.001Z</time></trkpt><trkpt lat="45.3668863698794" lon="9.217071277905259"><ele>96.19999999999999</ele><time>2026-04-19T06:01:18.001Z</time></trkpt><trkpt lat="45.36683357472991" lon="9.21712111211287"><ele>95.8</ele><time>2026-04-19T06:01:19.001Z</time></trkpt><trkpt lat="45.36673529788476" lon="9.217228111054343"><ele>95.4</ele><time>2026-04-19T06:01:21.001Z</time></trkpt><trkpt lat="45.36663413426543" lon="9.217328519313432"><ele>95.0</ele><time>2026-04-19T06:01:23.001Z</time></trkpt><trkpt lat="45.3665322725665" lon="9.21742390463763"><ele>95.0</ele><time>2026-04-19T06:01:25.001Z</time></trkpt><trkpt lat="45.3664283378845" lon="9.21751642529839"><ele>95.0</ele><time>2026-04-19T06:01:27.001Z</time></trkpt><trkpt lat="45.366317533339696" lon="9.217592565255522"><ele>95.0</ele><time>2026-04-19T06:01:29.001Z</time></trkpt><trkpt lat="45.36620465636674" lon="9.217664260961397"><ele>95.0</ele><time>2026-04-19T06:01:31.001Z</time></trkpt><trkpt lat="45.36609115073606" lon="9.217725948416906"><ele>95.0</ele><time>2026-04-19T06:01:33.001Z</time></trkpt><trkpt lat="45.3659780112609" lon="9.217786533512578"><ele>95.0</ele><time>2026-04-19T06:01:35.001Z</time></trkpt><trkpt lat="45.36586340582182" lon="9.217853109386121"><ele>95.0</ele><time>2026-04-19T06:01:37.001Z</time></trkpt><trkpt lat="45.36575408034368" lon="9.217921950282452"><ele>95.0</ele><time>2026-04-19T06:01:39.001Z</time></trkpt><trkpt lat="45.365641531656095" lon="9.217983699553775"><ele>95.0</ele><time>2026-04-19T06:01:41.001Z</time></trkpt><trkpt lat="45.365529123991955" lon="9.21804752936222"><ele>95.0</ele><time>2026-04-19T06:01:43.001Z</time></trkpt><trkpt lat="45.36541839052297" lon="9.218113722962737"><ele>95.0</ele><time>2026-04-19T06:01:45.001Z</time></trkpt><trkpt lat="45.36530521960086" lon="9.218182771903908"><ele>95.0</ele><time>2026-04-19T06:01:47.001Z</time></trkpt><trkpt lat="45.3651894394072" lon="9.218245475073083"><ele>95.2</ele><time>2026-04-19T06:01:49.001Z</time></trkpt><trkpt lat="45.365076404586524" lon="9.218314910257321"><ele>95.4</ele><time>2026-04-19T06:01:51.001Z</time></trkpt><trkpt lat="45.36501757194914" lon="9.218346926490085"><ele>95.6</ele><time>2026-04-19T06:01:52.001Z</time></trkpt><trkpt lat="45.36489564005872" lon="9.218372896429269"><ele>95.8</ele><time>2026-04-19T06:01:54Z</time></trkpt><trkpt lat="45.36478168996302" lon="9.218336236774794"><ele>96.0</ele><time>2026-04-19T06:01:56Z</time></trkpt><trkpt lat="45.364670109126536" lon="9.21831930954858"><ele>96.0</ele><time>2026-04-19T06:01:58Z</time></trkpt><trkpt lat="45.36455473518593" lon="9.218357393526091"><ele>96.0</ele><time>2026-04-19T06:02:00Z</time></trkpt><trkpt lat="45.364465126122894" lon="9.218463322232482"><ele>96.0</ele><time>2026-04-19T06:02:02Z</time></trkpt><trkpt lat="45.3643720874617" lon="9.218563270517553"><ele>96.0</ele><time>2026-04-19T06:02:04Z</time></trkpt><trkpt lat="45.36425612516665" lon="9.218607099126098"><ele>96.0</ele><time>2026-04-19T06:02:06Z</time></trkpt><trkpt lat="45.364138547894086" lon="9.218636704006443"><ele>96.0</ele><time>2026-04-19T06:02:08Z</time></trkpt><trkpt lat="45.36402502367008" lon="9.21866974661475"><ele>96.0</ele><time>2026-04-19T06:02:10Z</time></trkpt><trkpt lat="45.363911804282" lon="9.218692689847519"><ele>96.0</ele><time>2026-04-19T06:02:12Z</time></trkpt><trkpt lat="45.36379668764752" lon="9.21872625750858"><ele>96.5</ele><time>2026-04-19T06:02:14Z</time></trkpt><trkpt lat="45.36368303538285" lon="9.218756492992021"><ele>97.0</ele><time>2026-04-19T06:02:16Z</time></trkpt><trkpt lat="45.36356870380192" lon="9.218785869440918"><ele>97.5</ele><time>2026-04-19T06:02:18Z</time></trkpt><trkpt lat="45.36345833717145" lon="9.218817883339158"><ele>98.0</ele><time>2026-04-19T06:02:20Z</time></trkpt><trkpt lat="45.36334595668441" lon="9.218844616463594"><ele>98.0</ele><time>2026-04-19T06:02:22Z</time></trkpt><trkpt lat="45.36323374569059" lon="9.218880046081441"><ele>98.0</ele><time>2026-04-19T06:02:24Z</time></trkpt><trkpt lat="45.363123220092795" lon="9.218910215761689"><ele>98.0</ele><time>2026-04-19T06:02:26Z</time></trkpt><trkpt lat="45.36301552716652" lon="9.218931198897852"><ele>98.0</ele><time>2026-04-19T06:02:28Z</time></trkpt><trkpt lat="45.36290683554816" lon="9.21892559868939"><ele>98.0</ele><time>2026-04-19T06:02:30Z</time></trkpt><trkpt lat="45.362797209474586" lon="9.218894722426882"><ele>98.0</ele><time>2026-04-19T06:02:32Z</time></trkpt><trkpt lat="45.3626910034574" lon="9.218857569821523"><ele>98.0</ele><time>2026-04-19T06:02:34Z</time></trkpt><trkpt lat="45.36257900182665" lon="9.21887938785876"><ele>98.0</ele><time>2026-04-19T06:02:36Z</time></trkpt><trkpt lat="45.36247886710246" lon="9.218953235351584"><ele>98.0</ele><time>2026-04-19T06:02:38Z</time></trkpt><trkpt lat="45.36239828573672" lon="9.219064760596375"><ele>98.0</ele><time>2026-04-19T06:02:40Z</time></trkpt><trkpt lat="45.362300601506554" lon="9.219140915777352"><ele>97.75</ele><time>2026-04-19T06:02:42Z</time></trkpt><trkpt lat="45.36219178448606" lon="9.219185638570744"><ele>97.5</ele><time>2026-04-19T06:02:44Z</time></trkpt><trkpt lat="45.36208039120309" lon="9.21921575735212"><ele>97.25</ele><time>2026-04-19T06:02:46Z</time></trkpt><trkpt lat="45.36196502627687" lon="9.21924494417424"><ele>97.0</ele><time>2026-04-19T06:02:48Z</time></trkpt><trkpt lat="45.36184941084132" lon="9.219274680100986"><ele>97.0</ele><time>2026-04-19T06:02:50Z</time></trkpt><trkpt lat="45.36173573687627" lon="9.21929576636293"><ele>97.0</ele><time>2026-04-19T06:02:52Z</time></trkpt><trkpt lat="45.361620795172634" lon="9.219327320965"><ele>97.0</ele><time>2026-04-19T06:02:54Z</time></trkpt><trkpt lat="45.36150582933193" lon="9.219351795976714"><ele>97.0</ele><time>2026-04-19T06:02:56Z</time></trkpt><trkpt lat="45.3613901769786" lon="9.219383875003277"><ele>96.75</ele><time>2026-04-19T06:02:58Z</time></trkpt><trkpt lat="45.36127715140275" lon="9.219415609300187"><ele>96.5</ele><time>2026-04-19T06:03:00Z</time></trkpt><trkpt lat="45.36116368111914" lon="9.219450951685324"><ele>96.25</ele><time>2026-04-19T06:03:02.001Z</time></trkpt><trkpt lat="45.36105025473928" lon="9.219486548829048"><ele>96.0</ele><time>2026-04-19T06:03:04.001Z</time></trkpt><trkpt lat="45.36093779052164" lon="9.219516408707197"><ele>96.0</ele><time>2026-04-19T06:03:06.001Z</time></trkpt><trkpt lat="45.36082991910751" lon="9.21957540958785"><ele>96.0</ele><time>2026-04-19T06:03:08.001Z</time></trkpt><trkpt lat="45.36071783954488" lon="9.219619319743684"><ele>96.0</ele><time>2026-04-19T06:03:10.001Z</time></trkpt><trkpt lat="45.360610738201196" lon="9.219679451255972"><ele>96.0</ele><time>2026-04-19T06:03:12.001Z</time></trkpt><trkpt lat="45.360502078314354" lon="9.219738201109566"><ele>96.5</ele><time>2026-04-19T06:03:14.001Z</time></trkpt><trkpt lat="45.360402530305954" lon="9.21981965722149"><ele>97.0</ele><time>2026-04-19T06:03:16.001Z</time></trkpt><trkpt lat="45.36030674902896" lon="9.219909200639258"><ele>97.5</ele><time>2026-04-19T06:03:18.001Z</time></trkpt><trkpt lat="45.360212412227455" lon="9.220000874773927"><ele>98.0</ele><time>2026-04-19T06:03:20.001Z</time></trkpt><trkpt lat="45.36011770949257" lon="9.220088969749439"><ele>98.0</ele><time>2026-04-19T06:03:22.001Z</time></trkpt><trkpt lat="45.360021682699696" lon="9.220176142690834"><ele>98.0</ele><time>2026-04-19T06:03:24.001Z</time></trkpt><trkpt lat="45.35992502406483" lon="9.220265161363358"><ele>98.0</ele><time>2026-04-19T06:03:26.001Z</time></trkpt><trkpt lat="45.359836871619706" lon="9.2203647819405"><ele>98.0</ele><time>2026-04-19T06:03:28.001Z</time></trkpt><trkpt lat="45.359747740677754" lon="9.22045304173459"><ele>97.83333333333333</ele><time>2026-04-19T06:03:30.001Z</time></trkpt><trkpt lat="45.35966222975794" lon="9.220537400996626"><ele>97.66666666666666</ele><time>2026-04-19T06:03:32.001Z</time></trkpt><trkpt lat="45.3595906665815" lon="9.220628728844874"><ele>97.5</ele><time>2026-04-19T06:03:34.001Z</time></trkpt><trkpt lat="45.359521737829894" lon="9.220634907775448"><ele>97.33333333333334</ele><time>2026-04-19T06:03:36.001Z</time></trkpt><trkpt lat="45.35948852480401" lon="9.220507942551265"><ele>97.16666666666667</ele><time>2026-04-19T06:03:38.001Z</time></trkpt><trkpt lat="45.35943486772091" lon="9.22044276374297"><ele>97.0</ele><time>2026-04-19T06:03:40.001Z</time></trkpt><trkpt lat="45.359382307995745" lon="9.220374416913424"><ele>97.00000000000001</ele><time>2026-04-19T06:03:42.001Z</time></trkpt><trkpt lat="45.35944591815221" lon="9.220433473068503"><ele>97.0</ele><time>2026-04-19T06:16:44Z</time></trkpt><trkpt lat="45.35948871215926" lon="9.220514330678714"><ele>97.0</ele><time>2026-04-19T06:16:47Z</time></trkpt><trkpt lat="45.35953326824791" lon="9.220612372541135"><ele>97.0</ele><time>2026-04-19T06:16:51Z</time></trkpt><trkpt lat="45.359573267859474" lon="9.220719519950759"><ele>97.00000000000001</ele><time>2026-04-19T06:16:54Z</time></trkpt><trkpt lat="45.35964972626262" lon="9.220687930212735"><ele>97.0</ele><time>2026-04-19T06:16:58Z</time></trkpt><trkpt lat="45.35961195855571" lon="9.220788009293798"><ele>97.00000000000001</ele><time>2026-04-19T06:17:06Z</time></trkpt><trkpt lat="45.35955453892809" lon="9.220864621921656"><ele>97.0</ele><time>2026-04-19T06:17:08Z</time></trkpt><trkpt lat="45.35950764693956" lon="9.22092961681934"><ele>97.0</ele><time>2026-04-19T06:17:10Z</time></trkpt><trkpt lat="45.35945155319426" lon="9.221002393835104"><ele>97.0</ele><time>2026-04-19T06:17:12Z</time></trkpt><trkpt lat="45.35938929148967" lon="9.221120478523105"><ele>97.00000000000001</ele><time>2026-04-19T06:17:14Z</time></trkpt><trkpt lat="45.35933119509714" lon="9.221232465270024"><ele>97.0</ele><time>2026-04-19T06:17:16Z</time></trkpt><trkpt lat="45.35939355780212" lon="9.221319328700169"><ele>97.00000000000001</ele><time>2026-04-19T06:17:18Z</time></trkpt><trkpt lat="45.35949165235823" lon="9.22134639322607"><ele>97.0</ele><time>2026-04-19T06:17:19Z</time></trkpt><trkpt lat="45.35941339289037" lon="9.221355183351152"><ele>97.0</ele><time>2026-04-19T06:17:27Z</time></trkpt><trkpt lat="45.35933994105948" lon="9.221261140142817"><ele>97.0</ele><time>2026-04-19T06:17:30Z</time></trkpt><trkpt lat="45.3592790770711" lon="9.221215124703539"><ele>97.00000000000001</ele><time>2026-04-19T06:17:32Z</time></trkpt><trkpt lat="45.359220354587706" lon="9.221171957278635"><ele>97.0</ele><time>2026-04-19T06:17:34Z</time></trkpt><trkpt lat="45.35915324609247" lon="9.221149246143753"><ele>97.0</ele><time>2026-04-19T06:17:36Z</time></trkpt><trkpt lat="45.3590782806365" lon="9.221134539933773"><ele>97.0</ele><time>2026-04-19T06:17:38Z</time></trkpt><trkpt lat="45.35899114528625" lon="9.221116677060593"><ele>97.0</ele><time>2026-04-19T06:17:40Z</time></trkpt><trkpt lat="45.3589069576667" lon="9.221184019856622"><ele>97.0</ele><time>2026-04-19T06:17:42Z</time></trkpt><trkpt lat="45.358829655079624" lon="9.221267159131271"><ele>97.0</ele><time>2026-04-19T06:17:44Z</time></trkpt><trkpt lat="45.358742277636125" lon="9.22133816554405"><ele>97.0</ele><time>2026-04-19T06:17:46Z</time></trkpt><trkpt lat="45.358655200952185" lon="9.221404044817522"><ele>97.0</ele><time>2026-04-19T06:17:48Z</time></trkpt><trkpt lat="45.35856827423285" lon="9.221472276156048"><ele>97.0</ele><time>2026-04-19T06:17:50Z</time></trkpt><trkpt lat="45.35847213663088" lon="9.221534549933557"><ele>97.0</ele><time>2026-04-19T06:17:52Z</time></trkpt><trkpt lat="45.35838026424198" lon="9.221595019252108"><ele>97.0</ele><time>2026-04-19T06:17:54Z</time></trkpt><trkpt lat="45.35829290334286" lon="9.221661681061804"><ele>97.39999999999999</ele><time>2026-04-19T06:17:56Z</time></trkpt><trkpt lat="45.35820495828667" lon="9.22173523594465"><ele>97.8</ele><time>2026-04-19T06:17:58Z</time></trkpt><trkpt lat="45.358115738474275" lon="9.221804894157867"><ele>98.2</ele><time>2026-04-19T06:18:00Z</time></trkpt><trkpt lat="45.35802553911678" lon="9.221876110089179"><ele>98.6</ele><time>2026-04-19T06:18:02Z</time></trkpt><trkpt lat="45.35793576880258" lon="9.221946406538516"><ele>99.0</ele><time>2026-04-19T06:18:04Z</time></trkpt><trkpt lat="45.357847335119715" lon="9.222016529173963"><ele>99.0</ele><time>2026-04-19T06:18:06Z</time></trkpt><trkpt lat="45.35775650532043" lon="9.222079383836945"><ele>99.0</ele><time>2026-04-19T06:18:08Z</time></trkpt><trkpt lat="45.35766848740048" lon="9.222150156401824"><ele>99.0</ele><time>2026-04-19T06:18:10Z</time></trkpt><trkpt lat="45.35758145024969" lon="9.222208814234193"><ele>99.0</ele><time>2026-04-19T06:18:12Z</time></trkpt><trkpt lat="45.35749700697323" lon="9.222284748895165"><ele>99.0</ele><time>2026-04-19T06:18:14Z</time></trkpt><trkpt lat="45.357401033889474" lon="9.222333104430422"><ele>99.0</ele><time>2026-04-19T06:18:16Z</time></trkpt><trkpt lat="45.35731776087551" lon="9.222415361149038"><ele>99.0</ele><time>2026-04-19T06:18:18Z</time></trkpt><trkpt lat="45.35723274506367" lon="9.222482839244504"><ele>99.0</ele><time>2026-04-19T06:18:20Z</time></trkpt><trkpt lat="45.35714476540882" lon="9.222553149205186"><ele>99.0</ele><time>2026-04-19T06:18:22.001Z</time></trkpt><trkpt lat="45.357065389857055" lon="9.222632791781885"><ele>99.0</ele><time>2026-04-19T06:18:24.001Z</time></trkpt><trkpt lat="45.35698546668074" lon="9.222720878745958"><ele>99.0</ele><time>2026-04-19T06:18:26.001Z</time></trkpt><trkpt lat="45.35689690852011" lon="9.222814224542688"><ele>99.0</ele><time>2026-04-19T06:18:28.001Z</time></trkpt><trkpt lat="45.35680862611102" lon="9.222896142380579"><ele>99.0</ele><time>2026-04-19T06:18:30.001Z</time></trkpt><trkpt lat="45.356714548030666" lon="9.22296611121511"><ele>99.0</ele><time>2026-04-19T06:18:32.001Z</time></trkpt><trkpt lat="45.356611579578896" lon="9.223038912796794"><ele>99.0</ele><time>2026-04-19T06:18:34.001Z</time></trkpt><trkpt lat="45.356530705064785" lon="9.223118429211667"><ele>98.6</ele><time>2026-04-19T06:18:36.001Z</time></trkpt><trkpt lat="45.35643909921464" lon="9.223180587642126"><ele>98.2</ele><time>2026-04-19T06:18:38.001Z</time></trkpt><trkpt lat="45.35634911154352" lon="9.223251954332582"><ele>97.8</ele><time>2026-04-19T06:18:40.001Z</time></trkpt><trkpt lat="45.35626238461896" lon="9.223322807065541"><ele>97.39999999999999</ele><time>2026-04-19T06:18:42Z</time></trkpt><trkpt lat="45.35617624208261" lon="9.223395957286803"><ele>97.0</ele><time>2026-04-19T06:18:44Z</time></trkpt><trkpt lat="45.35608810721749" lon="9.223465542077603"><ele>96.39999999999999</ele><time>2026-04-19T06:18:46Z</time></trkpt><trkpt lat="45.35600383862193" lon="9.223540454447368"><ele>95.8</ele><time>2026-04-19T06:18:48Z</time></trkpt><trkpt lat="45.3559148635835" lon="9.22360385724365"><ele>95.2</ele><time>2026-04-19T06:18:50Z</time></trkpt><trkpt lat="45.35582952252792" lon="9.223684786696847"><ele>94.6</ele><time>2026-04-19T06:18:52Z</time></trkpt><trkpt lat="45.355742381268605" lon="9.223753552507358"><ele>94.0</ele><time>2026-04-19T06:18:54Z</time></trkpt><trkpt lat="45.35565757769253" lon="9.223822062012653"><ele>94.0</ele><time>2026-04-19T06:18:56Z</time></trkpt><trkpt lat="45.355571201429115" lon="9.223886479937686"><ele>94.0</ele><time>2026-04-19T06:18:58Z</time></trkpt><trkpt lat="45.35548246786373" lon="9.22395066719359"><ele>94.0</ele><time>2026-04-19T06:19:00Z</time></trkpt><trkpt lat="45.35539575496636" lon="9.224024236274797"><ele>94.0</ele><time>2026-04-19T06:19:02Z</time></trkpt><trkpt lat="45.35531117902333" lon="9.224098266632199"><ele>94.0</ele><time>2026-04-19T06:19:04Z</time></trkpt><trkpt lat="45.35522580794839" lon="9.224163900367113"><ele>94.2</ele><time>2026-04-19T06:19:06Z</time></trkpt><trkpt lat="45.355141747924584" lon="9.224236703212995"><ele>94.4</ele><time>2026-04-19T06:19:08Z</time></trkpt><trkpt lat="45.35505464682234" lon="9.22430026192331"><ele>94.6</ele><time>2026-04-19T06:19:10Z</time></trkpt><trkpt lat="45.354967580968484" lon="9.224375415269144"><ele>94.8</ele><time>2026-04-19T06:19:12Z</time></trkpt><trkpt lat="45.35488051986317" lon="9.224448223037712"><ele>95.0</ele><time>2026-04-19T06:19:14Z</time></trkpt><trkpt lat="45.35479169453973" lon="9.224521609959341"><ele>95.2</ele><time>2026-04-19T06:19:16Z</time></trkpt><trkpt lat="45.35470388117039" lon="9.224599874165907"><ele>95.4</ele><time>2026-04-19T06:19:18Z</time></trkpt><trkpt lat="45.354612806351156" lon="9.224669817434194"><ele>95.6</ele><time>2026-04-19T06:19:20Z</time></trkpt><trkpt lat="45.35452430609468" lon="9.22474378956639"><ele>95.8</ele><time>2026-04-19T06:19:22Z</time></trkpt><trkpt lat="45.35443628200722" lon="9.224814846142273"><ele>96.0</ele><time>2026-04-19T06:19:24Z</time></trkpt><trkpt lat="45.35434459399576" lon="9.224884923824643"><ele>96.0</ele><time>2026-04-19T06:19:26Z</time></trkpt><trkpt lat="45.354255892927256" lon="9.224956871529056"><ele>96.0</ele><time>2026-04-19T06:19:28Z</time></trkpt><trkpt lat="45.35416575613959" lon="9.225029829497007"><ele>96.0</ele><time>2026-04-19T06:19:30Z</time></trkpt><trkpt lat="45.35407701724167" lon="9.225096385971849"><ele>96.0</ele><time>2026-04-19T06:19:32Z</time></trkpt><trkpt lat="45.353987949091916" lon="9.225162048856006"><ele>96.0</ele><time>2026-04-19T06:19:34Z</time></trkpt><trkpt lat="45.35390212571378" lon="9.225230544628314"><ele>96.0</ele><time>2026-04-19T06:19:36Z</time></trkpt><trkpt lat="45.353820146514074" lon="9.225310038542995"><ele>96.0</ele><time>2026-04-19T06:19:38Z</time></trkpt><trkpt lat="45.35373726365312" lon="9.225384040384846"><ele>96.0</ele><time>2026-04-19T06:19:40Z</time></trkpt><trkpt lat="45.35365715358784" lon="9.225457227404386"><ele>96.0</ele><time>2026-04-19T06:19:42Z</time></trkpt><trkpt lat="45.35358178876308" lon="9.225540226599243"><ele>96.0</ele><time>2026-04-19T06:19:44Z</time></trkpt><trkpt lat="45.35350106740785" lon="9.225620525221853"><ele>96.19999999999999</ele><time>2026-04-19T06:19:46Z</time></trkpt><trkpt lat="45.35340717931245" lon="9.22567117150339"><ele>96.39999999999999</ele><time>2026-04-19T06:19:48Z</time></trkpt><trkpt lat="45.353321510526044" lon="9.225743165824785"><ele>96.6</ele><time>2026-04-19T06:19:50Z</time></trkpt><trkpt lat="45.353252318919225" lon="9.225717238563343"><ele>96.8</ele><time>2026-04-19T06:19:51Z</time></trkpt><trkpt lat="45.35315883237026" lon="9.225794592527635"><ele>97.0</ele><time>2026-04-19T06:19:53Z</time></trkpt><trkpt lat="45.353094821875175" lon="9.225916990077247"><ele>97.0</ele><time>2026-04-19T06:19:55Z</time></trkpt><trkpt lat="45.35309484683142" lon="9.226061083040149"><ele>97.0</ele><time>2026-04-19T06:19:57Z</time></trkpt><trkpt lat="45.3530015550761" lon="9.22609357450945"><ele>97.0</ele><time>2026-04-19T06:19:58Z</time></trkpt><trkpt lat="45.35291209545284" lon="9.226169769890356"><ele>97.0</ele><time>2026-04-19T06:20:00Z</time></trkpt><trkpt lat="45.352817372260695" lon="9.226241840674888"><ele>97.0</ele><time>2026-04-19T06:20:02Z</time></trkpt><trkpt lat="45.35272271581082" lon="9.226315534482174"><ele>96.75</ele><time>2026-04-19T06:20:04Z</time></trkpt><trkpt lat="45.352625647625366" lon="9.226389318772423"><ele>96.5</ele><time>2026-04-19T06:20:06Z</time></trkpt><trkpt lat="45.35252813055007" lon="9.226468188653342"><ele>96.25</ele><time>2026-04-19T06:20:08Z</time></trkpt><trkpt lat="45.352431565362025" lon="9.226550282748292"><ele>96.0</ele><time>2026-04-19T06:20:10Z</time></trkpt><trkpt lat="45.35233437653283" lon="9.226637938165412"><ele>95.8</ele><time>2026-04-19T06:20:12Z</time></trkpt><trkpt lat="45.352236229542775" lon="9.2267211708725"><ele>95.6</ele><time>2026-04-19T06:20:14Z</time></trkpt><trkpt lat="45.35214156714137" lon="9.226807816557837"><ele>95.4</ele><time>2026-04-19T06:20:16Z</time></trkpt><trkpt lat="45.35204560047603" lon="9.226888770753485"><ele>95.2</ele><time>2026-04-19T06:20:18Z</time></trkpt><trkpt lat="45.35195468643395" lon="9.226975602848544"><ele>95.0</ele><time>2026-04-19T06:20:20Z</time></trkpt><trkpt lat="45.35186611042186" lon="9.227053645881066"><ele>95.0</ele><time>2026-04-19T06:20:22Z</time></trkpt><trkpt lat="45.35177412497132" lon="9.227134862839703"><ele>95.0</ele><time>2026-04-19T06:20:24Z</time></trkpt><trkpt lat="45.35168542318078" lon="9.227231008864521"><ele>95.0</ele><time>2026-04-19T06:20:26Z</time></trkpt><trkpt lat="45.351588016522356" lon="9.227320161176692"><ele>95.0</ele><time>2026-04-19T06:20:28Z</time></trkpt><trkpt lat="45.35149122136147" lon="9.227406527505865"><ele>95.0</ele><time>2026-04-19T06:20:30Z</time></trkpt><trkpt lat="45.35139851817975" lon="9.227496529116687"><ele>95.0</ele><time>2026-04-19T06:20:32Z</time></trkpt><trkpt lat="45.351304097233744" lon="9.227597886528505"><ele>95.0</ele><time>2026-04-19T06:20:34.001Z</time></trkpt><trkpt lat="45.35120298292722" lon="9.22769226370622"><ele>95.0</ele><time>2026-04-19T06:20:36.001Z</time></trkpt><trkpt lat="45.35110334523434" lon="9.227787323358108"><ele>95.0</ele><time>2026-04-19T06:20:38.001Z</time></trkpt><trkpt lat="45.35100265370723" lon="9.227884710733766"><ele>95.0</ele><time>2026-04-19T06:20:40.001Z</time></trkpt><trkpt lat="45.350902666539525" lon="9.227981299452367"><ele>95.0</ele><time>2026-04-19T06:20:42.001Z</time></trkpt><trkpt lat="45.35080880428156" lon="9.22806401023695"><ele>95.0</ele><time>2026-04-19T06:20:44.001Z</time></trkpt><trkpt lat="45.35071826837583" lon="9.228139701785313"><ele>95.0</ele><time>2026-04-19T06:20:46.001Z</time></trkpt><trkpt lat="45.350634660650165" lon="9.228223755534323"><ele>95.0</ele><time>2026-04-19T06:20:48Z</time></trkpt><trkpt lat="45.350549835421816" lon="9.228303688296595"><ele>95.0</ele><time>2026-04-19T06:20:50Z</time></trkpt><trkpt lat="45.350465405436225" lon="9.228389682481628"><ele>95.0</ele><time>2026-04-19T06:20:52Z</time></trkpt><trkpt lat="45.35038003495058" lon="9.22847092444233"><ele>95.0</ele><time>2026-04-19T06:20:54Z</time></trkpt><trkpt lat="45.350301688461194" lon="9.228562100601271"><ele>95.0</ele><time>2026-04-19T06:20:56Z</time></trkpt><trkpt lat="45.35022415618269" lon="9.22865809497627"><ele>95.0</ele><time>2026-04-19T06:20:58Z</time></trkpt><trkpt lat="45.35013758211185" lon="9.228736010055576"><ele>95.0</ele><time>2026-04-19T06:21:00Z</time></trkpt><trkpt lat="45.35005637663789" lon="9.228828053813118"><ele>95.0</ele><time>2026-04-19T06:21:02Z</time></trkpt><trkpt lat="45.349957802918496" lon="9.228871458632447"><ele>95.0</ele><time>2026-04-19T06:21:04Z</time></trkpt><trkpt lat="45.34987410409525" lon="9.228948964814128"><ele>94.6</ele><time>2026-04-19T06:21:06Z</time></trkpt><trkpt lat="45.34978956392033" lon="9.229025734626358"><ele>94.2</ele><time>2026-04-19T06:21:08Z</time></trkpt><trkpt lat="45.34970756299502" lon="9.229106137483333"><ele>93.80000000000001</ele><time>2026-04-19T06:21:10Z</time></trkpt><trkpt lat="45.34964763559504" lon="9.229214425581148"><ele>93.4</ele><time>2026-04-19T06:21:12Z</time></trkpt><trkpt lat="45.349582929669104" lon="9.229226024131156"><ele>93.0</ele><time>2026-04-19T06:21:13Z</time></trkpt><trkpt lat="45.34950043740532" lon="9.229304804602318"><ele>92.80000000000001</ele><time>2026-04-19T06:21:15Z</time></trkpt><trkpt lat="45.3494148134979" lon="9.229385071335795"><ele>92.6</ele><time>2026-04-19T06:21:17Z</time></trkpt><trkpt lat="45.349327616620585" lon="9.229462312835706"><ele>92.4</ele><time>2026-04-19T06:21:19Z</time></trkpt><trkpt lat="45.349241904928526" lon="9.229537047847389"><ele>92.19999999999999</ele><time>2026-04-19T06:21:21Z</time></trkpt><trkpt lat="45.34915132019186" lon="9.22959519846029"><ele>92.0</ele><time>2026-04-19T06:21:23Z</time></trkpt><trkpt lat="45.34906312122468" lon="9.22966523578197"><ele>92.0</ele><time>2026-04-19T06:21:25Z</time></trkpt><trkpt lat="45.34896759013516" lon="9.229726707300077"><ele>92.0</ele><time>2026-04-19T06:21:27Z</time></trkpt><trkpt lat="45.34887501130358" lon="9.229795364185886"><ele>92.0</ele><time>2026-04-19T06:21:29Z</time></trkpt><trkpt lat="45.34878304218999" lon="9.229859932679961"><ele>92.0</ele><time>2026-04-19T06:21:31Z</time></trkpt><trkpt lat="45.34869163618856" lon="9.229923817062504"><ele>92.0</ele><time>2026-04-19T06:21:33Z</time></trkpt><trkpt lat="45.348598731278884" lon="9.229985438098701"><ele>92.19999999999999</ele><time>2026-04-19T06:21:35Z</time></trkpt><trkpt lat="45.34851131457447" lon="9.230051346023465"><ele>92.4</ele><time>2026-04-19T06:21:37Z</time></trkpt><trkpt lat="45.348421974862596" lon="9.230114018531825"><ele>92.6</ele><time>2026-04-19T06:21:39Z</time></trkpt><trkpt lat="45.348330250884615" lon="9.230179371130122"><ele>92.80000000000001</ele><time>2026-04-19T06:21:41Z</time></trkpt><trkpt lat="45.34823905332059" lon="9.230247514631696"><ele>93.0</ele><time>2026-04-19T06:21:43Z</time></trkpt><trkpt lat="45.34814747966207" lon="9.230317301131986"><ele>93.0</ele><time>2026-04-19T06:21:45Z</time></trkpt><trkpt lat="45.34805309422401" lon="9.230388021685158"><ele>93.0</ele><time>2026-04-19T06:21:47Z</time></trkpt><trkpt lat="45.347962406407085" lon="9.230456378699246"><ele>93.0</ele><time>2026-04-19T06:21:49Z</time></trkpt><trkpt lat="45.3478721443542" lon="9.230527511568088"><ele>93.0</ele><time>2026-04-19T06:21:51Z</time></trkpt><trkpt lat="45.347782587662984" lon="9.230601574414806"><ele>93.0</ele><time>2026-04-19T06:21:53Z</time></trkpt><trkpt lat="45.34769615887545" lon="9.2306794888828"><ele>93.0</ele><time>2026-04-19T06:21:55Z</time></trkpt><trkpt lat="45.34760809415252" lon="9.230752696060698"><ele>93.0</ele><time>2026-04-19T06:21:57Z</time></trkpt><trkpt lat="45.34751922231114" lon="9.230827256742845"><ele>93.0</ele><time>2026-04-19T06:21:59Z</time></trkpt><trkpt lat="45.34743048411628" lon="9.230903587490696"><ele>93.0</ele><time>2026-04-19T06:22:01Z</time></trkpt><trkpt lat="45.34734221316562" lon="9.230983430476353"><ele>93.0</ele><time>2026-04-19T06:22:03Z</time></trkpt><trkpt lat="45.34725377485004" lon="9.231057732601595"><ele>93.0</ele><time>2026-04-19T06:22:05Z</time></trkpt><trkpt lat="45.34716580671919" lon="9.231132200493112"><ele>93.0</ele><time>2026-04-19T06:22:07Z</time></trkpt><trkpt lat="45.34707913087342" lon="9.2312079246394"><ele>93.0</ele><time>2026-04-19T06:22:09Z</time></trkpt><trkpt lat="45.34699110426313" lon="9.231283520563064"><ele>93.0</ele><time>2026-04-19T06:22:11Z</time></trkpt><trkpt lat="45.346902848991085" lon="9.231361577901797"><ele>93.0</ele><time>2026-04-19T06:22:13Z</time></trkpt><trkpt lat="45.34681532237551" lon="9.231440359354075"><ele>93.0</ele><time>2026-04-19T06:22:15Z</time></trkpt><trkpt lat="45.34672911644602" lon="9.231519155715366"><ele>93.0</ele><time>2026-04-19T06:22:17Z</time></trkpt><trkpt lat="45.34664270709605" lon="9.231596917036095"><ele>93.0</ele><time>2026-04-19T06:22:19Z</time></trkpt><trkpt lat="45.34655555114253" lon="9.23167445573707"><ele>93.0</ele><time>2026-04-19T06:22:21Z</time></trkpt><trkpt lat="45.34647236356668" lon="9.231756745495366"><ele>93.0</ele><time>2026-04-19T06:22:23Z</time></trkpt><trkpt lat="45.34638766948418" lon="9.231832623367056"><ele>92.80000000000001</ele><time>2026-04-19T06:22:25Z</time></trkpt><trkpt lat="45.34630624084567" lon="9.231913631856003"><ele>92.6</ele><time>2026-04-19T06:22:27Z</time></trkpt><trkpt lat="45.346221702950594" lon="9.231987550177978"><ele>92.4</ele><time>2026-04-19T06:22:29Z</time></trkpt><trkpt lat="45.34613819662343" lon="9.23206260818654"><ele>92.19999999999999</ele><time>2026-04-19T06:22:31Z</time></trkpt><trkpt lat="45.34605155061563" lon="9.232133685792022"><ele>92.0</ele><time>2026-04-19T06:22:33Z</time></trkpt><trkpt lat="45.3459662970742" lon="9.23220690838805"><ele>92.0</ele><time>2026-04-19T06:22:35Z</time></trkpt><trkpt lat="45.3458798903011" lon="9.232280589116877"><ele>92.0</ele><time>2026-04-19T06:22:37Z</time></trkpt><trkpt lat="45.345791374406325" lon="9.232345027196942"><ele>92.0</ele><time>2026-04-19T06:22:39Z</time></trkpt><trkpt lat="45.34570371919804" lon="9.2324159030588"><ele>92.0</ele><time>2026-04-19T06:22:41Z</time></trkpt><trkpt lat="45.34561391500438" lon="9.232487361675526"><ele>92.0</ele><time>2026-04-19T06:22:43Z</time></trkpt><trkpt lat="45.34552339343206" lon="9.23255893574667"><ele>92.19999999999999</ele><time>2026-04-19T06:22:45Z</time></trkpt><trkpt lat="45.345429599839946" lon="9.232623993232647"><ele>92.4</ele><time>2026-04-19T06:22:47Z</time></trkpt><trkpt lat="45.345339753035006" lon="9.232697551227709"><ele>92.6</ele><time>2026-04-19T06:22:49Z</time></trkpt><trkpt lat="45.34524737952499" lon="9.232766729124176"><ele>92.80000000000001</ele><time>2026-04-19T06:22:51Z</time></trkpt><trkpt lat="45.345156629164606" lon="9.232843184805565"><ele>93.0</ele><time>2026-04-19T06:22:53.001Z</time></trkpt><trkpt lat="45.34506432695796" lon="9.232918388025006"><ele>93.0</ele><time>2026-04-19T06:22:55Z</time></trkpt><trkpt lat="45.3449702323326" lon="9.232996195951744"><ele>93.0</ele><time>2026-04-19T06:22:57Z</time></trkpt><trkpt lat="45.34487733623737" lon="9.233078563982843"><ele>93.0</ele><time>2026-04-19T06:22:59Z</time></trkpt><trkpt lat="45.34478521639856" lon="9.233159293149198"><ele>93.0</ele><time>2026-04-19T06:23:01Z</time></trkpt><trkpt lat="45.34468930962583" lon="9.23322304577774"><ele>93.0</ele><time>2026-04-19T06:23:03Z</time></trkpt><trkpt lat="45.344597382755005" lon="9.233302383996364"><ele>92.80000000000001</ele><time>2026-04-19T06:23:05Z</time></trkpt><trkpt lat="45.34450701880685" lon="9.233385700317394"><ele>92.6</ele><time>2026-04-19T06:23:07Z</time></trkpt><trkpt lat="45.34441408983352" lon="9.233463876428011"><ele>92.4</ele><time>2026-04-19T06:23:09Z</time></trkpt><trkpt lat="45.344325243389044" lon="9.233548725766331"><ele>92.19999999999999</ele><time>2026-04-19T06:23:11Z</time></trkpt><trkpt lat="45.344230227628195" lon="9.233630339535159"><ele>92.0</ele><time>2026-04-19T06:23:13Z</time></trkpt><trkpt lat="45.34414155447807" lon="9.233718649500824"><ele>92.0</ele><time>2026-04-19T06:23:15Z</time></trkpt><trkpt lat="45.344053694821945" lon="9.23380761200591"><ele>92.0</ele><time>2026-04-19T06:23:17Z</time></trkpt><trkpt lat="45.34396638531664" lon="9.23389412136156"><ele>92.0</ele><time>2026-04-19T06:23:19Z</time></trkpt><trkpt lat="45.34387971518436" lon="9.233980531909317"><ele>92.0</ele><time>2026-04-19T06:23:21Z</time></trkpt><trkpt lat="45.343792342508344" lon="9.234063662381656"><ele>92.0</ele><time>2026-04-19T06:23:23Z</time></trkpt><trkpt lat="45.343706552280366" lon="9.234149128313902"><ele>92.39999999999999</ele><time>2026-04-19T06:23:25Z</time></trkpt><trkpt lat="45.34361790034013" lon="9.23422343230954"><ele>92.8</ele><time>2026-04-19T06:23:27Z</time></trkpt><trkpt lat="45.34352755155242" lon="9.234301468646859"><ele>93.2</ele><time>2026-04-19T06:23:29Z</time></trkpt><trkpt lat="45.343432748716644" lon="9.23436429664453"><ele>93.6</ele><time>2026-04-19T06:23:31Z</time></trkpt><trkpt lat="45.3433381799288" lon="9.234430719526559"><ele>94.0</ele><time>2026-04-19T06:23:33Z</time></trkpt><trkpt lat="45.34324536998478" lon="9.234492111370695"><ele>94.0</ele><time>2026-04-19T06:23:35Z</time></trkpt><trkpt lat="45.343154720528005" lon="9.234555963156394"><ele>94.0</ele><time>2026-04-19T06:23:37Z</time></trkpt><trkpt lat="45.34306095406908" lon="9.234612787550033"><ele>94.0</ele><time>2026-04-19T06:23:39Z</time></trkpt><trkpt lat="45.34296686757414" lon="9.234670706270746"><ele>94.0</ele><time>2026-04-19T06:23:41Z</time></trkpt><trkpt lat="45.34287360007644" lon="9.234732429628911"><ele>94.0</ele><time>2026-04-19T06:23:43Z</time></trkpt><trkpt lat="45.34277796767723" lon="9.234784834158503"><ele>93.6</ele><time>2026-04-19T06:23:45Z</time></trkpt><trkpt lat="45.342683460014776" lon="9.234833055896862"><ele>93.2</ele><time>2026-04-19T06:23:47Z</time></trkpt><trkpt lat="45.34259006821274" lon="9.234890825914038"><ele>92.8</ele><time>2026-04-19T06:23:49Z</time></trkpt><trkpt lat="45.3424966020897" lon="9.234960743972435"><ele>92.39999999999999</ele><time>2026-04-19T06:23:51Z</time></trkpt><trkpt lat="45.34240692576699" lon="9.235033492981641"><ele>92.0</ele><time>2026-04-19T06:23:53Z</time></trkpt><trkpt lat="45.34231661480188" lon="9.235106690097089"><ele>92.0</ele><time>2026-04-19T06:23:55Z</time></trkpt><trkpt lat="45.342230160038696" lon="9.235184006655821"><ele>92.0</ele><time>2026-04-19T06:23:57Z</time></trkpt><trkpt lat="45.34214359267902" lon="9.235261808593927"><ele>92.0</ele><time>2026-04-19T06:23:59Z</time></trkpt><trkpt lat="45.3420582640328" lon="9.235339334906001"><ele>92.0</ele><time>2026-04-19T06:24:01Z</time></trkpt><trkpt lat="45.34197139667282" lon="9.23541675507976"><ele>92.0</ele><time>2026-04-19T06:24:03Z</time></trkpt><trkpt lat="45.34188441752033" lon="9.235493270653006"><ele>91.8</ele><time>2026-04-19T06:24:05Z</time></trkpt><trkpt lat="45.341799283069356" lon="9.235571390742882"><ele>91.6</ele><time>2026-04-19T06:24:07Z</time></trkpt><trkpt lat="45.341713805583574" lon="9.23564781221639"><ele>91.39999999999999</ele><time>2026-04-19T06:24:09Z</time></trkpt><trkpt lat="45.34162965854269" lon="9.235722714284343"><ele>91.19999999999999</ele><time>2026-04-19T06:24:11Z</time></trkpt><trkpt lat="45.3415479659578" lon="9.235801242840516"><ele>91.0</ele><time>2026-04-19T06:24:13Z</time></trkpt><trkpt lat="45.34146509337414" lon="9.23587614471653"><ele>90.8</ele><time>2026-04-19T06:24:15Z</time></trkpt><trkpt lat="45.341382365873585" lon="9.235956415148834"><ele>90.6</ele><time>2026-04-19T06:24:17Z</time></trkpt><trkpt lat="45.34129903993348" lon="9.236036978176946"><ele>90.4</ele><time>2026-04-19T06:24:19Z</time></trkpt><trkpt lat="45.34121443913465" lon="9.23611586571911"><ele>90.2</ele><time>2026-04-19T06:24:21Z</time></trkpt><trkpt lat="45.341128751011496" lon="9.236189142821546"><ele>90.0</ele><time>2026-04-19T06:24:23Z</time></trkpt><trkpt lat="45.34104428641877" lon="9.236265025402025"><ele>89.8</ele><time>2026-04-19T06:24:25Z</time></trkpt><trkpt lat="45.340960782918934" lon="9.236338796975694"><ele>89.6</ele><time>2026-04-19T06:24:27Z</time></trkpt><trkpt lat="45.34087347650875" lon="9.236412121361019"><ele>89.4</ele><time>2026-04-19T06:24:29Z</time></trkpt><trkpt lat="45.34078927508958" lon="9.236490581613847"><ele>89.2</ele><time>2026-04-19T06:24:31Z</time></trkpt><trkpt lat="45.340703315255006" lon="9.236565037203162"><ele>89.0</ele><time>2026-04-19T06:24:33Z</time></trkpt><trkpt lat="45.340617613754084" lon="9.236638805630857"><ele>89.0</ele><time>2026-04-19T06:24:35Z</time></trkpt><trkpt lat="45.340531528408825" lon="9.236711915855837"><ele>89.0</ele><time>2026-04-19T06:24:37Z</time></trkpt><trkpt lat="45.340444199052484" lon="9.236787882062018"><ele>89.0</ele><time>2026-04-19T06:24:39Z</time></trkpt><trkpt lat="45.340358051721836" lon="9.236860969670213"><ele>89.0</ele><time>2026-04-19T06:24:41Z</time></trkpt><trkpt lat="45.34027456062872" lon="9.236938113416935"><ele>89.0</ele><time>2026-04-19T06:24:43Z</time></trkpt><trkpt lat="45.34019029927189" lon="9.237015233312038"><ele>89.0</ele><time>2026-04-19T06:24:45Z</time></trkpt><trkpt lat="45.34010447844766" lon="9.237082575568182"><ele>89.0</ele><time>2026-04-19T06:24:47Z</time></trkpt><trkpt lat="45.34002059615517" lon="9.237155125778454"><ele>89.0</ele><time>2026-04-19T06:24:49Z</time></trkpt><trkpt lat="45.339937319683486" lon="9.23722845810949"><ele>89.0</ele><time>2026-04-19T06:24:51Z</time></trkpt><trkpt lat="45.3398551833235" lon="9.237302480843159"><ele>89.0</ele><time>2026-04-19T06:24:53Z</time></trkpt><trkpt lat="45.339770118116576" lon="9.237373355162248"><ele>89.4</ele><time>2026-04-19T06:24:55.001Z</time></trkpt><trkpt lat="45.33968982415675" lon="9.237451467064291"><ele>89.80000000000001</ele><time>2026-04-19T06:24:57.001Z</time></trkpt><trkpt lat="45.33960621350821" lon="9.237526728944594"><ele>90.19999999999999</ele><time>2026-04-19T06:24:59.001Z</time></trkpt><trkpt lat="45.33952322526004" lon="9.23760614691263"><ele>90.6</ele><time>2026-04-19T06:25:01Z</time></trkpt><trkpt lat="45.33944015336362" lon="9.237692103835581"><ele>91.0</ele><time>2026-04-19T06:25:03Z</time></trkpt><trkpt lat="45.33935350174018" lon="9.237776419854846"><ele>91.0</ele><time>2026-04-19T06:25:05Z</time></trkpt><trkpt lat="45.33926651518807" lon="9.23785550989742"><ele>91.0</ele><time>2026-04-19T06:25:07Z</time></trkpt><trkpt lat="45.33917595094323" lon="9.237925451578638"><ele>91.0</ele><time>2026-04-19T06:25:09Z</time></trkpt><trkpt lat="45.33908788658151" lon="9.23799815579172"><ele>91.0</ele><time>2026-04-19T06:25:11Z</time></trkpt><trkpt lat="45.33900358721629" lon="9.238074158458932"><ele>91.0</ele><time>2026-04-19T06:25:13Z</time></trkpt><trkpt lat="45.33891673413251" lon="9.238146597045928"><ele>91.0</ele><time>2026-04-19T06:25:15Z</time></trkpt><trkpt lat="45.338827276898726" lon="9.238217684753453"><ele>91.0</ele><time>2026-04-19T06:25:17Z</time></trkpt><trkpt lat="45.33874035747149" lon="9.238291264555858"><ele>91.0</ele><time>2026-04-19T06:25:19Z</time></trkpt><trkpt lat="45.338654120263286" lon="9.238355879708482"><ele>91.0</ele><time>2026-04-19T06:25:21Z</time></trkpt><trkpt lat="45.33856698197501" lon="9.23843530379556"><ele>91.0</ele><time>2026-04-19T06:25:23Z</time></trkpt><trkpt lat="45.338480577193955" lon="9.238509066263852"><ele>91.0</ele><time>2026-04-19T06:25:25Z</time></trkpt><trkpt lat="45.33839302493198" lon="9.238576886072273"><ele>91.0</ele><time>2026-04-19T06:25:27Z</time></trkpt><trkpt lat="45.33830604596333" lon="9.238652238665502"><ele>91.0</ele><time>2026-04-19T06:25:29Z</time></trkpt><trkpt lat="45.338215973257384" lon="9.238725361843997"><ele>91.0</ele><time>2026-04-19T06:25:31Z</time></trkpt><trkpt lat="45.33812917176514" lon="9.238799947552993"><ele>91.0</ele><time>2026-04-19T06:25:33Z</time></trkpt><trkpt lat="45.338041604911226" lon="9.238874947731473"><ele>91.0</ele><time>2026-04-19T06:25:35Z</time></trkpt><trkpt lat="45.337952862157216" lon="9.238942531509666"><ele>91.0</ele><time>2026-04-19T06:25:37Z</time></trkpt><trkpt lat="45.33786617629105" lon="9.239013480839494"><ele>91.0</ele><time>2026-04-19T06:25:39Z</time></trkpt><trkpt lat="45.337781016475255" lon="9.239082370775126"><ele>91.0</ele><time>2026-04-19T06:25:41Z</time></trkpt><trkpt lat="45.33769150104606" lon="9.239148875583375"><ele>91.0</ele><time>2026-04-19T06:25:43Z</time></trkpt><trkpt lat="45.33760456290268" lon="9.23921828593146"><ele>91.0</ele><time>2026-04-19T06:25:45Z</time></trkpt><trkpt lat="45.33751833592906" lon="9.23928570572941"><ele>91.0</ele><time>2026-04-19T06:25:47Z</time></trkpt><trkpt lat="45.33743124563217" lon="9.239353697378789"><ele>91.0</ele><time>2026-04-19T06:25:49Z</time></trkpt><trkpt lat="45.33734551607015" lon="9.239425926997043"><ele>91.0</ele><time>2026-04-19T06:25:51Z</time></trkpt><trkpt lat="45.33725568872214" lon="9.239490688244988"><ele>91.0</ele><time>2026-04-19T06:25:53Z</time></trkpt><trkpt lat="45.33716914408067" lon="9.239561179396253"><ele>91.0</ele><time>2026-04-19T06:25:55Z</time></trkpt><trkpt lat="45.33708155373955" lon="9.239631259143469"><ele>91.0</ele><time>2026-04-19T06:25:57Z</time></trkpt><trkpt lat="45.33699402021338" lon="9.239700552299922"><ele>91.0</ele><time>2026-04-19T06:25:59Z</time></trkpt><trkpt lat="45.33690584672168" lon="9.239769664841864"><ele>91.0</ele><time>2026-04-19T06:26:01Z</time></trkpt><trkpt lat="45.33681884482671" lon="9.239842097470689"><ele>91.0</ele><time>2026-04-19T06:26:03Z</time></trkpt><trkpt lat="45.33673272405661" lon="9.239915827799377"><ele>91.0</ele><time>2026-04-19T06:26:05Z</time></trkpt><trkpt lat="45.33664594032357" lon="9.2399841964146"><ele>91.0</ele><time>2026-04-19T06:26:07Z</time></trkpt><trkpt lat="45.336557394789615" lon="9.240056335898009"><ele>91.0</ele><time>2026-04-19T06:26:09Z</time></trkpt><trkpt lat="45.33647118713987" lon="9.240126787392633"><ele>91.0</ele><time>2026-04-19T06:26:11Z</time></trkpt><trkpt lat="45.336380863851645" lon="9.2401997721267"><ele>91.0</ele><time>2026-04-19T06:26:13Z</time></trkpt><trkpt lat="45.3362917750411" lon="9.240271129851262"><ele>91.0</ele><time>2026-04-19T06:26:15Z</time></trkpt><trkpt lat="45.33620355270341" lon="9.240341358318487"><ele>91.0</ele><time>2026-04-19T06:26:17Z</time></trkpt><trkpt lat="45.33611460334495" lon="9.240414815319596"><ele>91.0</ele><time>2026-04-19T06:26:19Z</time></trkpt><trkpt lat="45.33602794084228" lon="9.240482955825232"><ele>91.0</ele><time>2026-04-19T06:26:21Z</time></trkpt><trkpt lat="45.33594271032773" lon="9.240558713592577"><ele>91.0</ele><time>2026-04-19T06:26:23Z</time></trkpt><trkpt lat="45.33585598122666" lon="9.240625410058254"><ele>90.8</ele><time>2026-04-19T06:26:25Z</time></trkpt><trkpt lat="45.335770289906755" lon="9.240696753058968"><ele>90.6</ele><time>2026-04-19T06:26:27Z</time></trkpt><trkpt lat="45.33568543598273" lon="9.2407681662004"><ele>90.4</ele><time>2026-04-19T06:26:29Z</time></trkpt><trkpt lat="45.33559727654711" lon="9.240835943243914"><ele>90.2</ele><time>2026-04-19T06:26:31Z</time></trkpt><trkpt lat="45.33551251055449" lon="9.240904688814805"><ele>90.0</ele><time>2026-04-19T06:26:33Z</time></trkpt><trkpt lat="45.33542749877297" lon="9.240978157829312"><ele>90.0</ele><time>2026-04-19T06:26:35Z</time></trkpt><trkpt lat="45.335344695767844" lon="9.241049014804297"><ele>90.0</ele><time>2026-04-19T06:26:37Z</time></trkpt><trkpt lat="45.33525890137447" lon="9.241116306390715"><ele>90.0</ele><time>2026-04-19T06:26:39Z</time></trkpt><trkpt lat="45.33517374748913" lon="9.241188276582509"><ele>90.0</ele><time>2026-04-19T06:26:41Z</time></trkpt><trkpt lat="45.33509078579697" lon="9.241256894506288"><ele>90.0</ele><time>2026-04-19T06:26:43Z</time></trkpt><trkpt lat="45.335005524446714" lon="9.241324878379011"><ele>90.0</ele><time>2026-04-19T06:26:45Z</time></trkpt><trkpt lat="45.33492753646603" lon="9.241404699752893"><ele>90.0</ele><time>2026-04-19T06:26:47Z</time></trkpt><trkpt lat="45.33485021102313" lon="9.241469155610243"><ele>90.0</ele><time>2026-04-19T06:26:49Z</time></trkpt><trkpt lat="45.33477541132026" lon="9.241524476123274"><ele>90.0</ele><time>2026-04-19T06:26:51Z</time></trkpt><trkpt lat="45.334693373708575" lon="9.241603365961522"><ele>90.0</ele><time>2026-04-19T06:26:53Z</time></trkpt><trkpt lat="45.334605124807254" lon="9.24168980386656"><ele>90.0</ele><time>2026-04-19T06:26:55Z</time></trkpt><trkpt lat="45.33451639020265" lon="9.241772768100368"><ele>90.0</ele><time>2026-04-19T06:26:57Z</time></trkpt><trkpt lat="45.334429452803136" lon="9.241855584972404"><ele>90.0</ele><time>2026-04-19T06:26:59Z</time></trkpt><trkpt lat="45.33434278160393" lon="9.241937573125133"><ele>90.0</ele><time>2026-04-19T06:27:01Z</time></trkpt><trkpt lat="45.33425751932369" lon="9.242020171311346"><ele>90.0</ele><time>2026-04-19T06:27:03Z</time></trkpt><trkpt lat="45.33417090492603" lon="9.242099958148472"><ele>90.0</ele><time>2026-04-19T06:27:05Z</time></trkpt><trkpt lat="45.33408961969948" lon="9.242177999498622"><ele>90.0</ele><time>2026-04-19T06:27:07Z</time></trkpt><trkpt lat="45.33401672551143" lon="9.242245383368028"><ele>90.0</ele><time>2026-04-19T06:27:09Z</time></trkpt><trkpt lat="45.33394955354257" lon="9.242281795202071"><ele>90.0</ele><time>2026-04-19T06:27:11Z</time></trkpt><trkpt lat="45.33388287748737" lon="9.242313463359817"><ele>90.0</ele><time>2026-04-19T06:27:14Z</time></trkpt><trkpt lat="45.33381532164149" lon="9.242358909116618"><ele>90.0</ele><time>2026-04-19T06:27:29Z</time></trkpt><trkpt lat="45.33375922306622" lon="9.242449231414653"><ele>90.33333333333333</ele><time>2026-04-19T06:27:32Z</time></trkpt><trkpt lat="45.33371622328958" lon="9.24254107693639"><ele>90.66666666666667</ele><time>2026-04-19T06:27:35Z</time></trkpt><trkpt lat="45.333663884892275" lon="9.242608389618308"><ele>91.0</ele><time>2026-04-19T06:27:38Z</time></trkpt><trkpt lat="45.33359214273672" lon="9.242648136552202"><ele>91.33333333333334</ele><time>2026-04-19T06:27:41Z</time></trkpt><trkpt lat="45.33353679714319" lon="9.242702439210921"><ele>91.66666666666667</ele><time>2026-04-19T06:27:44Z</time></trkpt><trkpt lat="45.33346341800873" lon="9.242766601905297"><ele>92.0</ele><time>2026-04-19T06:27:48Z</time></trkpt><trkpt lat="45.33339852443495" lon="9.242816439371211"><ele>92.0</ele><time>2026-04-19T06:27:51Z</time></trkpt><trkpt lat="45.333334811188" lon="9.242864757461485"><ele>92.0</ele><time>2026-04-19T06:27:54Z</time></trkpt><trkpt lat="45.33327087893349" lon="9.242920810995477"><ele>92.0</ele><time>2026-04-19T06:27:57Z</time></trkpt><trkpt lat="45.33318860047056" lon="9.24299214794551"><ele>92.0</ele><time>2026-04-19T06:28:00Z</time></trkpt><trkpt lat="45.333131454547804" lon="9.243051431109649"><ele>92.0</ele><time>2026-04-19T06:28:02Z</time></trkpt><trkpt lat="45.333067097496354" lon="9.243104381734454"><ele>92.0</ele><time>2026-04-19T06:28:04Z</time></trkpt><trkpt lat="45.332986001405814" lon="9.243161227809553"><ele>91.83333333333334</ele><time>2026-04-19T06:28:06Z</time></trkpt><trkpt lat="45.33291508752387" lon="9.243223670341552"><ele>91.66666666666667</ele><time>2026-04-19T06:28:08Z</time></trkpt><trkpt lat="45.332840069928274" lon="9.24328476674096"><ele>91.5</ele><time>2026-04-19T06:28:10Z</time></trkpt><trkpt lat="45.33276343707137" lon="9.243345544864614"><ele>91.33333333333333</ele><time>2026-04-19T06:28:12Z</time></trkpt><trkpt lat="45.33268754940666" lon="9.243406440996573"><ele>91.16666666666666</ele><time>2026-04-19T06:28:14Z</time></trkpt><trkpt lat="45.33261377648847" lon="9.243471849645095"><ele>91.0</ele><time>2026-04-19T06:28:16Z</time></trkpt><trkpt lat="45.33253892040676" lon="9.243537769441083"><ele>91.0</ele><time>2026-04-19T06:28:18Z</time></trkpt><trkpt lat="45.33246275208372" lon="9.243602534736109"><ele>91.0</ele><time>2026-04-19T06:28:20Z</time></trkpt><trkpt lat="45.33238593273832" lon="9.243665102394946"><ele>91.0</ele><time>2026-04-19T06:28:22Z</time></trkpt><trkpt lat="45.33230994639053" lon="9.243728542962502"><ele>91.0</ele><time>2026-04-19T06:28:24Z</time></trkpt><trkpt lat="45.33223478769916" lon="9.243799785803313"><ele>91.0</ele><time>2026-04-19T06:28:26Z</time></trkpt><trkpt lat="45.33215572296298" lon="9.24386344032037"><ele>91.0</ele><time>2026-04-19T06:28:28Z</time></trkpt><trkpt lat="45.33207567461329" lon="9.243931511247135"><ele>90.8</ele><time>2026-04-19T06:28:30Z</time></trkpt><trkpt lat="45.33199819036558" lon="9.244000445300676"><ele>90.6</ele><time>2026-04-19T06:28:32Z</time></trkpt><trkpt lat="45.33192116321075" lon="9.24406647994562"><ele>90.4</ele><time>2026-04-19T06:28:34Z</time></trkpt><trkpt lat="45.33184248739382" lon="9.244136908272496"><ele>90.2</ele><time>2026-04-19T06:28:36Z</time></trkpt><trkpt lat="45.33176208972185" lon="9.24420696337499"><ele>90.0</ele><time>2026-04-19T06:28:38Z</time></trkpt><trkpt lat="45.331681190205614" lon="9.244278006617316"><ele>90.0</ele><time>2026-04-19T06:28:40Z</time></trkpt><trkpt lat="45.331600129856646" lon="9.244350592264269"><ele>90.0</ele><time>2026-04-19T06:28:42Z</time></trkpt><trkpt lat="45.331519264241074" lon="9.24441922677817"><ele>90.0</ele><time>2026-04-19T06:28:44Z</time></trkpt><trkpt lat="45.33143967851943" lon="9.244487310426432"><ele>90.0</ele><time>2026-04-19T06:28:46Z</time></trkpt><trkpt lat="45.33136076579247" lon="9.244551800247631"><ele>90.0</ele><time>2026-04-19T06:28:48Z</time></trkpt><trkpt lat="45.331288108033746" lon="9.244609124459364"><ele>89.83333333333333</ele><time>2026-04-19T06:28:50Z</time></trkpt><trkpt lat="45.3312182410762" lon="9.244669634054526"><ele>89.66666666666667</ele><time>2026-04-19T06:28:52Z</time></trkpt><trkpt lat="45.33114783720637" lon="9.244731112637728"><ele>89.5</ele><time>2026-04-19T06:28:54Z</time></trkpt><trkpt lat="45.33107554319101" lon="9.244780578824129"><ele>89.33333333333334</ele><time>2026-04-19T06:28:56Z</time></trkpt><trkpt lat="45.331006723591386" lon="9.244842190306226"><ele>89.16666666666667</ele><time>2026-04-19T06:28:58Z</time></trkpt><trkpt lat="45.33094289377241" lon="9.244904118604097"><ele>89.0</ele><time>2026-04-19T06:29:00Z</time></trkpt><trkpt lat="45.330902898230136" lon="9.244996791253397"><ele>89.0</ele><time>2026-04-19T06:29:02.001Z</time></trkpt><trkpt lat="45.330837800486435" lon="9.245044174826598"><ele>89.0</ele><time>2026-04-19T06:29:04.001Z</time></trkpt><trkpt lat="45.33075657920784" lon="9.24506253447258"><ele>89.0</ele><time>2026-04-19T06:29:06.001Z</time></trkpt><trkpt lat="45.330673763978425" lon="9.245086749384289"><ele>89.0</ele><time>2026-04-19T06:29:08.001Z</time></trkpt><trkpt lat="45.33058966006992" lon="9.245143428437487"><ele>89.0</ele><time>2026-04-19T06:29:10.001Z</time></trkpt><trkpt lat="45.33050163824801" lon="9.245202413709434"><ele>89.0</ele><time>2026-04-19T06:29:12Z</time></trkpt><trkpt lat="45.33041512237394" lon="9.245261911242766"><ele>89.2</ele><time>2026-04-19T06:29:14Z</time></trkpt><trkpt lat="45.33033256319669" lon="9.245311235540013"><ele>89.4</ele><time>2026-04-19T06:29:16Z</time></trkpt><trkpt lat="45.33024284268713" lon="9.245293884466644"><ele>89.6</ele><time>2026-04-19T06:29:18Z</time></trkpt><trkpt lat="45.330164393838466" lon="9.24520990768599"><ele>89.8</ele><time>2026-04-19T06:29:20Z</time></trkpt><trkpt lat="45.33008503021496" lon="9.245142138114938"><ele>90.0</ele><time>2026-04-19T06:29:22Z</time></trkpt><trkpt lat="45.330022621339324" lon="9.24504211631085"><ele>90.0</ele><time>2026-04-19T06:29:24Z</time></trkpt><trkpt lat="45.329971830053864" lon="9.24492126066168"><ele>90.0</ele><time>2026-04-19T06:29:26Z</time></trkpt><trkpt lat="45.32992642003904" lon="9.244801889676273"><ele>90.0</ele><time>2026-04-19T06:29:28Z</time></trkpt><trkpt lat="45.329885226265105" lon="9.244684477197767"><ele>90.0</ele><time>2026-04-19T06:29:30Z</time></trkpt><trkpt lat="45.32984062999454" lon="9.244570705838006"><ele>90.0</ele><time>2026-04-19T06:29:32Z</time></trkpt><trkpt lat="45.329795838035764" lon="9.244455128600297"><ele>90.0</ele><time>2026-04-19T06:29:34Z</time></trkpt><trkpt lat="45.32974946595691" lon="9.244340053822976"><ele>90.0</ele><time>2026-04-19T06:29:36Z</time></trkpt><trkpt lat="45.32970809445311" lon="9.244222973218815"><ele>90.0</ele><time>2026-04-19T06:29:38Z</time></trkpt><trkpt lat="45.32966410112351" lon="9.244108094010286"><ele>90.0</ele><time>2026-04-19T06:29:40Z</time></trkpt><trkpt lat="45.32961814597635" lon="9.243988429783704"><ele>90.0</ele><time>2026-04-19T06:29:42Z</time></trkpt><trkpt lat="45.3295776279844" lon="9.243870506471824"><ele>90.4</ele><time>2026-04-19T06:29:44Z</time></trkpt><trkpt lat="45.32953505787047" lon="9.243748229282085"><ele>90.8</ele><time>2026-04-19T06:29:46Z</time></trkpt><trkpt lat="45.32948472200424" lon="9.243628184141913"><ele>91.19999999999999</ele><time>2026-04-19T06:29:48Z</time></trkpt><trkpt lat="45.32944019338189" lon="9.243505812042235"><ele>91.6</ele><time>2026-04-19T06:29:50Z</time></trkpt><trkpt lat="45.32939463290756" lon="9.243383312182312"><ele>92.0</ele><time>2026-04-19T06:29:52Z</time></trkpt><trkpt lat="45.32934520524174" lon="9.243260179868848"><ele>92.0</ele><time>2026-04-19T06:29:54Z</time></trkpt><trkpt lat="45.32930383909245" lon="9.243133530305581"><ele>92.0</ele><time>2026-04-19T06:29:56Z</time></trkpt><trkpt lat="45.32925232720813" lon="9.243012631392558"><ele>92.0</ele><time>2026-04-19T06:29:58Z</time></trkpt><trkpt lat="45.329211596612595" lon="9.242883069467748"><ele>92.0</ele><time>2026-04-19T06:30:00Z</time></trkpt><trkpt lat="45.329164095950176" lon="9.242759186722196"><ele>92.0</ele><time>2026-04-19T06:30:02Z</time></trkpt><trkpt lat="45.32912344421655" lon="9.242624336829095"><ele>91.6</ele><time>2026-04-19T06:30:04Z</time></trkpt><trkpt lat="45.32907926015066" lon="9.24247954618567"><ele>91.19999999999999</ele><time>2026-04-19T06:30:06Z</time></trkpt><trkpt lat="45.329037597354585" lon="9.242332414125539"><ele>90.8</ele><time>2026-04-19T06:30:08Z</time></trkpt><trkpt lat="45.32899188869766" lon="9.242188353016372"><ele>90.4</ele><time>2026-04-19T06:30:10Z</time></trkpt><trkpt lat="45.32895646717153" lon="9.242038576659537"><ele>90.0</ele><time>2026-04-19T06:30:12Z</time></trkpt><trkpt lat="45.32892461776228" lon="9.241893277276334"><ele>89.8</ele><time>2026-04-19T06:30:14Z</time></trkpt><trkpt lat="45.32889846258599" lon="9.241758566991518"><ele>89.6</ele><time>2026-04-19T06:30:16Z</time></trkpt><trkpt lat="45.3288702486601" lon="9.241624568243267"><ele>89.4</ele><time>2026-04-19T06:30:18Z</time></trkpt><trkpt lat="45.328849336475386" lon="9.241483371424712"><ele>89.2</ele><time>2026-04-19T06:30:20Z</time></trkpt><trkpt lat="45.328837375529005" lon="9.241334003073524"><ele>89.0</ele><time>2026-04-19T06:30:22Z</time></trkpt><trkpt lat="45.328823476792955" lon="9.241190882699161"><ele>88.2</ele><time>2026-04-19T06:30:24Z</time></trkpt><trkpt lat="45.328815995739525" lon="9.241045746196058"><ele>87.4</ele><time>2026-04-19T06:30:26Z</time></trkpt><trkpt lat="45.32880941478753" lon="9.240902214993229"><ele>86.6</ele><time>2026-04-19T06:30:28Z</time></trkpt><trkpt lat="45.328798980926614" lon="9.24076638312181"><ele>85.8</ele><time>2026-04-19T06:30:30Z</time></trkpt><trkpt lat="45.32879050960364" lon="9.240635681567099"><ele>85.0</ele><time>2026-04-19T06:30:32Z</time></trkpt><trkpt lat="45.32878049599393" lon="9.240517444912959"><ele>85.0</ele><time>2026-04-19T06:30:34Z</time></trkpt><trkpt lat="45.32874327652132" lon="9.240434612908238"><ele>85.0</ele><time>2026-04-19T06:30:36Z</time></trkpt><trkpt lat="45.32866611607955" lon="9.24043066411892"><ele>85.0</ele><time>2026-04-19T06:30:38Z</time></trkpt><trkpt lat="45.32858991822327" lon="9.240336941959862"><ele>85.0</ele><time>2026-04-19T06:30:41Z</time></trkpt><trkpt lat="45.328621175042215" lon="9.240183577718305"><ele>85.0</ele><time>2026-04-19T06:30:43Z</time></trkpt><trkpt lat="45.3286511674744" lon="9.240044438259682"><ele>85.0</ele><time>2026-04-19T06:30:45Z</time></trkpt><trkpt lat="45.32868070437659" lon="9.239911600372109"><ele>85.0</ele><time>2026-04-19T06:30:47Z</time></trkpt><trkpt lat="45.32870208017966" lon="9.239789216590008"><ele>85.0</ele><time>2026-04-19T06:30:49Z</time></trkpt><trkpt lat="45.32870748503947" lon="9.239670393947693"><ele>85.0</ele><time>2026-04-19T06:30:51Z</time></trkpt><trkpt lat="45.32868028664611" lon="9.239558419441094"><ele>85.0</ele><time>2026-04-19T06:31:00Z</time></trkpt><trkpt lat="45.328627477201415" lon="9.23947823391879"><ele>85.0</ele><time>2026-04-19T06:31:02Z</time></trkpt><trkpt lat="45.32855633477636" lon="9.239428275480273"><ele>85.0</ele><time>2026-04-19T06:31:04Z</time></trkpt><trkpt lat="45.328482022733226" lon="9.239391118168175"><ele>85.0</ele><time>2026-04-19T06:31:06Z</time></trkpt><trkpt lat="45.32841253956957" lon="9.23934932844812"><ele>85.0</ele><time>2026-04-19T06:31:08Z</time></trkpt><trkpt lat="45.32833137946448" lon="9.239307010755798"><ele>85.0</ele><time>2026-04-19T06:31:10Z</time></trkpt><trkpt lat="45.32824625018454" lon="9.239275372088667"><ele>85.0</ele><time>2026-04-19T06:31:12.001Z</time></trkpt><trkpt lat="45.32815863623466" lon="9.239260507066632"><ele>85.0</ele><time>2026-04-19T06:31:14.001Z</time></trkpt><trkpt lat="45.328063147390885" lon="9.23924195365137"><ele>85.6</ele><time>2026-04-19T06:31:16.001Z</time></trkpt><trkpt lat="45.32797092498072" lon="9.239218252327353"><ele>86.2</ele><time>2026-04-19T06:31:18Z</time></trkpt><trkpt lat="45.32787823669824" lon="9.239192824809892"><ele>86.80000000000001</ele><time>2026-04-19T06:31:20Z</time></trkpt><trkpt lat="45.32778501688769" lon="9.23916315167169"><ele>87.4</ele><time>2026-04-19T06:31:22Z</time></trkpt><trkpt lat="45.32772426014047" lon="9.239067516835412"><ele>88.0</ele><time>2026-04-19T06:31:24Z</time></trkpt><trkpt lat="45.327691822869156" lon="9.23896885084349"><ele>88.16666666666666</ele><time>2026-04-19T06:31:26Z</time></trkpt><trkpt lat="45.32767439368226" lon="9.238865115376797"><ele>88.33333333333333</ele><time>2026-04-19T06:31:28Z</time></trkpt><trkpt lat="45.327662783843046" lon="9.238761626286818"><ele>88.5</ele><time>2026-04-19T06:31:30Z</time></trkpt><trkpt lat="45.32764696003192" lon="9.238652004185031"><ele>88.66666666666667</ele><time>2026-04-19T06:31:32Z</time></trkpt><trkpt lat="45.327634985631924" lon="9.238549907583367"><ele>88.83333333333334</ele><time>2026-04-19T06:31:34Z</time></trkpt><trkpt lat="45.32761622278328" lon="9.238442853286378"><ele>89.0</ele><time>2026-04-19T06:31:36Z</time></trkpt><trkpt lat="45.32756236752499" lon="9.238352938757767"><ele>89.0</ele><time>2026-04-19T06:31:38Z</time></trkpt><trkpt lat="45.32751094546823" lon="9.238288140606725"><ele>89.0</ele><time>2026-04-19T06:31:40Z</time></trkpt><trkpt lat="45.327448362576895" lon="9.23818097145423"><ele>89.0</ele><time>2026-04-19T06:31:43Z</time></trkpt><trkpt lat="45.327402985561235" lon="9.238087837405004"><ele>89.0</ele><time>2026-04-19T06:31:45Z</time></trkpt><trkpt lat="45.327354331517014" lon="9.237986899060468"><ele>89.0</ele><time>2026-04-19T06:31:47Z</time></trkpt><trkpt lat="45.32731201233748" lon="9.237885393991384"><ele>89.0</ele><time>2026-04-19T06:31:49Z</time></trkpt><trkpt lat="45.32726372007181" lon="9.2377939946671"><ele>89.2</ele><time>2026-04-19T06:31:51Z</time></trkpt><trkpt lat="45.32721379528177" lon="9.237692870435822"><ele>89.4</ele><time>2026-04-19T06:31:53Z</time></trkpt><trkpt lat="45.32714697099492" lon="9.237610183042824"><ele>89.6</ele><time>2026-04-19T06:31:55Z</time></trkpt><trkpt lat="45.32706443917211" lon="9.237620414193987"><ele>89.8</ele><time>2026-04-19T06:31:57Z</time></trkpt><trkpt lat="45.326994281188625" lon="9.237717698728805"><ele>90.0</ele><time>2026-04-19T06:31:59Z</time></trkpt><trkpt lat="45.32692698450782" lon="9.237810504953503"><ele>90.0</ele><time>2026-04-19T06:32:01Z</time></trkpt><trkpt lat="45.326850600633655" lon="9.237889846987132"><ele>90.0</ele><time>2026-04-19T06:32:03Z</time></trkpt><trkpt lat="45.32677350808135" lon="9.23797014253756"><ele>90.0</ele><time>2026-04-19T06:32:05Z</time></trkpt><trkpt lat="45.32669827371397" lon="9.238046194871677"><ele>90.0</ele><time>2026-04-19T06:32:07Z</time></trkpt><trkpt lat="45.32662573944324" lon="9.238124167254037"><ele>90.0</ele><time>2026-04-19T06:32:09Z</time></trkpt><trkpt lat="45.32655347306205" lon="9.23819623303116"><ele>90.16666666666667</ele><time>2026-04-19T06:32:11Z</time></trkpt><trkpt lat="45.326478798705914" lon="9.23826012453279"><ele>90.33333333333333</ele><time>2026-04-19T06:32:13Z</time></trkpt><trkpt lat="45.326396590340735" lon="9.238313570384813"><ele>90.5</ele><time>2026-04-19T06:32:15Z</time></trkpt><trkpt lat="45.326316131539556" lon="9.23837114282382"><ele>90.66666666666666</ele><time>2026-04-19T06:32:17Z</time></trkpt><trkpt lat="45.326235749430154" lon="9.23842727987673"><ele>90.83333333333333</ele><time>2026-04-19T06:32:19Z</time></trkpt><trkpt lat="45.32615916534382" lon="9.23848243549064"><ele>91.0</ele><time>2026-04-19T06:32:21Z</time></trkpt><trkpt lat="45.32608655412475" lon="9.23851068612512"><ele>90.66666666666666</ele><time>2026-04-19T06:32:23Z</time></trkpt><trkpt lat="45.326029682987034" lon="9.23845161767562"><ele>90.33333333333333</ele><time>2026-04-19T06:32:25Z</time></trkpt><trkpt lat="45.325993078376854" lon="9.238348643677181"><ele>90.0</ele><time>2026-04-19T06:32:27Z</time></trkpt><trkpt lat="45.32592587273581" lon="9.238270900248361"><ele>89.66666666666667</ele><time>2026-04-19T06:32:30Z</time></trkpt><trkpt lat="45.32592695724278" lon="9.238168150308338"><ele>89.33333333333334</ele><time>2026-04-19T06:32:32Z</time></trkpt><trkpt lat="45.32586394272842" lon="9.238056255563041"><ele>89.0</ele><time>2026-04-19T06:32:34Z</time></trkpt><trkpt lat="45.32580478876228" lon="9.237954501719464"><ele>89.0</ele><time>2026-04-19T06:32:36Z</time></trkpt><trkpt lat="45.32575867340952" lon="9.23784977911078"><ele>89.0</ele><time>2026-04-19T06:32:38Z</time></trkpt><trkpt lat="45.32570666620236" lon="9.237749918313902"><ele>89.0</ele><time>2026-04-19T06:32:40Z</time></trkpt><trkpt lat="45.325659254819946" lon="9.237650824532349"><ele>89.0</ele><time>2026-04-19T06:32:42Z</time></trkpt><trkpt lat="45.32561111048192" lon="9.237547905056937"><ele>89.0</ele><time>2026-04-19T06:32:44Z</time></trkpt><trkpt lat="45.325561994810336" lon="9.237451409942619"><ele>89.0</ele><time>2026-04-19T06:32:46Z</time></trkpt><trkpt lat="45.325512003962736" lon="9.237354742121592"><ele>89.16666666666667</ele><time>2026-04-19T06:32:48Z</time></trkpt><trkpt lat="45.325465785761914" lon="9.237254072769401"><ele>89.33333333333334</ele><time>2026-04-19T06:32:50Z</time></trkpt><trkpt lat="45.325418100502816" lon="9.237155167411997"><ele>89.5</ele><time>2026-04-19T06:32:52Z</time></trkpt><trkpt lat="45.32536780103774" lon="9.237058556118285"><ele>89.66666666666667</ele><time>2026-04-19T06:32:54Z</time></trkpt><trkpt lat="45.32532526554784" lon="9.236969804424826"><ele>89.83333333333333</ele><time>2026-04-19T06:32:56Z</time></trkpt><trkpt lat="45.32527966464104" lon="9.236868335875064"><ele>90.0</ele><time>2026-04-19T06:32:58Z</time></trkpt><trkpt lat="45.32522354850564" lon="9.236767501554203"><ele>90.0</ele><time>2026-04-19T06:33:00Z</time></trkpt><trkpt lat="45.3251744951369" lon="9.236658476282468"><ele>90.0</ele><time>2026-04-19T06:33:02Z</time></trkpt><trkpt lat="45.32512334485238" lon="9.236549911217406"><ele>90.0</ele><time>2026-04-19T06:33:04Z</time></trkpt><trkpt lat="45.32507003340986" lon="9.236447180216604"><ele>90.0</ele><time>2026-04-19T06:33:06Z</time></trkpt><trkpt lat="45.325019131683774" lon="9.236342067274112"><ele>90.0</ele><time>2026-04-19T06:33:08Z</time></trkpt><trkpt lat="45.3249651456303" lon="9.236240423651331"><ele>89.6</ele><time>2026-04-19T06:33:10Z</time></trkpt><trkpt lat="45.32491760827252" lon="9.236134961853345"><ele>89.2</ele><time>2026-04-19T06:33:12Z</time></trkpt><trkpt lat="45.32486214649068" lon="9.23603096017034"><ele>88.80000000000001</ele><time>2026-04-19T06:33:14Z</time></trkpt><trkpt lat="45.324812108187714" lon="9.235925681453828"><ele>88.4</ele><time>2026-04-19T06:33:16Z</time></trkpt><trkpt lat="45.32475733249877" lon="9.235823273687407"><ele>88.0</ele><time>2026-04-19T06:33:18Z</time></trkpt><trkpt lat="45.324707219532854" lon="9.235716802850877"><ele>88.0</ele><time>2026-04-19T06:33:20Z</time></trkpt><trkpt lat="45.32465579811555" lon="9.23560993881952"><ele>88.0</ele><time>2026-04-19T06:33:22Z</time></trkpt><trkpt lat="45.324598341904675" lon="9.23550320853179"><ele>88.0</ele><time>2026-04-19T06:33:24Z</time></trkpt><trkpt lat="45.32454736337689" lon="9.23539983271196"><ele>88.0</ele><time>2026-04-19T06:33:26Z</time></trkpt><trkpt lat="45.32449267225468" lon="9.235296653304626"><ele>88.0</ele><time>2026-04-19T06:33:28Z</time></trkpt><trkpt lat="45.324441467550535" lon="9.235191493393346"><ele>88.0</ele><time>2026-04-19T06:33:30Z</time></trkpt><trkpt lat="45.32438858434009" lon="9.23508795052741"><ele>88.0</ele><time>2026-04-19T06:33:32Z</time></trkpt><trkpt lat="45.3243365470823" lon="9.23498784572417"><ele>88.0</ele><time>2026-04-19T06:33:34Z</time></trkpt><trkpt lat="45.32428355726121" lon="9.234880817763994"><ele>88.0</ele><time>2026-04-19T06:33:36Z</time></trkpt><trkpt lat="45.32422832073678" lon="9.234776555849093"><ele>88.0</ele><time>2026-04-19T06:33:38Z</time></trkpt><trkpt lat="45.32417681435592" lon="9.234669736550554"><ele>87.80000000000001</ele><time>2026-04-19T06:33:40Z</time></trkpt><trkpt lat="45.3241253397955" lon="9.234569230889907"><ele>87.6</ele><time>2026-04-19T06:33:42Z</time></trkpt><trkpt lat="45.32407366622362" lon="9.23446333020532"><ele>87.4</ele><time>2026-04-19T06:33:44Z</time></trkpt><trkpt lat="45.32402168279444" lon="9.234360515751616"><ele>87.19999999999999</ele><time>2026-04-19T06:33:46Z</time></trkpt><trkpt lat="45.32396735049564" lon="9.234254267979894"><ele>87.0</ele><time>2026-04-19T06:33:48Z</time></trkpt><trkpt lat="45.32391342367001" lon="9.23414661966371"><ele>87.0</ele><time>2026-04-19T06:33:50Z</time></trkpt><trkpt lat="45.3238636258402" lon="9.234036324830901"><ele>87.0</ele><time>2026-04-19T06:33:52Z</time></trkpt><trkpt lat="45.32381069910324" lon="9.233933469872783"><ele>87.0</ele><time>2026-04-19T06:33:54Z</time></trkpt><trkpt lat="45.323759072841035" lon="9.233828496390347"><ele>87.0</ele><time>2026-04-19T06:33:56Z</time></trkpt><trkpt lat="45.32370681775209" lon="9.233724239752885"><ele>87.0</ele><time>2026-04-19T06:33:58Z</time></trkpt><trkpt lat="45.32365425252566" lon="9.23362316904061"><ele>87.0</ele><time>2026-04-19T06:34:00Z</time></trkpt><trkpt lat="45.32360327217802" lon="9.233519733590652"><ele>87.0</ele><time>2026-04-19T06:34:02Z</time></trkpt><trkpt lat="45.32355321302471" lon="9.23341538759481"><ele>87.0</ele><time>2026-04-19T06:34:04Z</time></trkpt><trkpt lat="45.32350055935899" lon="9.23331247631203"><ele>87.0</ele><time>2026-04-19T06:34:06Z</time></trkpt><trkpt lat="45.323447863432385" lon="9.233210269303731"><ele>87.0</ele><time>2026-04-19T06:34:08Z</time></trkpt><trkpt lat="45.32339981045335" lon="9.233106456097012"><ele>87.0</ele><time>2026-04-19T06:34:10Z</time></trkpt><trkpt lat="45.32334716190169" lon="9.233002896279208"><ele>87.0</ele><time>2026-04-19T06:34:12Z</time></trkpt><trkpt lat="45.32330321292717" lon="9.232890420556002"><ele>87.0</ele><time>2026-04-19T06:34:14Z</time></trkpt><trkpt lat="45.32326712769629" lon="9.232772220472418"><ele>87.0</ele><time>2026-04-19T06:34:16Z</time></trkpt><trkpt lat="45.323240573991946" lon="9.232651214823225"><ele>87.0</ele><time>2026-04-19T06:34:18Z</time></trkpt><trkpt lat="45.32320582877995" lon="9.232534019040173"><ele>87.0</ele><time>2026-04-19T06:34:20Z</time></trkpt><trkpt lat="45.323172203330294" lon="9.232429668189935"><ele>87.0</ele><time>2026-04-19T06:34:22Z</time></trkpt><trkpt lat="45.3231442052975" lon="9.232298644361256"><ele>86.83333333333333</ele><time>2026-04-19T06:34:24Z</time></trkpt><trkpt lat="45.32311255511467" lon="9.232177629372861"><ele>86.66666666666667</ele><time>2026-04-19T06:34:26Z</time></trkpt><trkpt lat="45.323078882953894" lon="9.232059909083643"><ele>86.5</ele><time>2026-04-19T06:34:28Z</time></trkpt><trkpt lat="45.32304776454328" lon="9.23194172811656"><ele>86.33333333333334</ele><time>2026-04-19T06:34:30Z</time></trkpt><trkpt lat="45.32301855103391" lon="9.231820405557471"><ele>86.16666666666667</ele><time>2026-04-19T06:34:32Z</time></trkpt><trkpt lat="45.32298745005682" lon="9.23170189072128"><ele>86.0</ele><time>2026-04-19T06:34:34Z</time></trkpt><trkpt lat="45.322957040851904" lon="9.23158565102006"><ele>86.16666666666667</ele><time>2026-04-19T06:34:36Z</time></trkpt><trkpt lat="45.32292472997804" lon="9.231468870764564"><ele>86.33333333333334</ele><time>2026-04-19T06:34:38Z</time></trkpt><trkpt lat="45.32289391523316" lon="9.231352300149911"><ele>86.5</ele><time>2026-04-19T06:34:40Z</time></trkpt><trkpt lat="45.32285824513065" lon="9.231235169506741"><ele>86.66666666666667</ele><time>2026-04-19T06:34:42Z</time></trkpt><trkpt lat="45.322829240505236" lon="9.231113660741446"><ele>86.83333333333333</ele><time>2026-04-19T06:34:44Z</time></trkpt><trkpt lat="45.32279516156631" lon="9.230994594672584"><ele>87.0</ele><time>2026-04-19T06:34:46Z</time></trkpt><trkpt lat="45.32276275219069" lon="9.230878179351516"><ele>87.0</ele><time>2026-04-19T06:34:48Z</time></trkpt><trkpt lat="45.32272969835556" lon="9.230757154822896"><ele>87.0</ele><time>2026-04-19T06:34:50Z</time></trkpt><trkpt lat="45.32269575184577" lon="9.230640446825603"><ele>87.0</ele><time>2026-04-19T06:34:52Z</time></trkpt><trkpt lat="45.32266331953567" lon="9.230519546608512"><ele>87.0</ele><time>2026-04-19T06:34:54Z</time></trkpt><trkpt lat="45.32262742388739" lon="9.230401153029742"><ele>87.0</ele><time>2026-04-19T06:34:56Z</time></trkpt><trkpt lat="45.322598007269" lon="9.23028038124581"><ele>87.19999999999999</ele><time>2026-04-19T06:34:58Z</time></trkpt><trkpt lat="45.32256468327179" lon="9.230155592469314"><ele>87.4</ele><time>2026-04-19T06:35:00Z</time></trkpt><trkpt lat="45.322533744593024" lon="9.230032338520205"><ele>87.6</ele><time>2026-04-19T06:35:02Z</time></trkpt><trkpt lat="45.322501054881215" lon="9.229912499617956"><ele>87.80000000000001</ele><time>2026-04-19T06:35:04Z</time></trkpt><trkpt lat="45.32247348927693" lon="9.229787857072218"><ele>88.0</ele><time>2026-04-19T06:35:06Z</time></trkpt><trkpt lat="45.32245219595714" lon="9.22966322665668"><ele>88.0</ele><time>2026-04-19T06:35:08Z</time></trkpt><trkpt lat="45.322432694353154" lon="9.229539451498644"><ele>88.0</ele><time>2026-04-19T06:35:10Z</time></trkpt><trkpt lat="45.322411517341266" lon="9.229416928970881"><ele>88.0</ele><time>2026-04-19T06:35:12Z</time></trkpt><trkpt lat="45.32239398819174" lon="9.229290838903028"><ele>88.0</ele><time>2026-04-19T06:35:14Z</time></trkpt><trkpt lat="45.32237502490196" lon="9.22916334879671"><ele>88.0</ele><time>2026-04-19T06:35:16Z</time></trkpt><trkpt lat="45.32235328119743" lon="9.229036322248263"><ele>88.16666666666666</ele><time>2026-04-19T06:35:18Z</time></trkpt><trkpt lat="45.322334240239115" lon="9.228912258948462"><ele>88.33333333333333</ele><time>2026-04-19T06:35:20Z</time></trkpt><trkpt lat="45.322313430682186" lon="9.228784527138544"><ele>88.5</ele><time>2026-04-19T06:35:22Z</time></trkpt><trkpt lat="45.32229207867669" lon="9.228659439414471"><ele>88.66666666666667</ele><time>2026-04-19T06:35:24Z</time></trkpt><trkpt lat="45.32227241597552" lon="9.228538717467877"><ele>88.83333333333334</ele><time>2026-04-19T06:35:26Z</time></trkpt><trkpt lat="45.32225653934944" lon="9.228414762525926"><ele>89.0</ele><time>2026-04-19T06:35:28Z</time></trkpt><trkpt lat="45.32223743096681" lon="9.228291613142781"><ele>89.0</ele><time>2026-04-19T06:35:30Z</time></trkpt><trkpt lat="45.32222116037028" lon="9.22816814175793"><ele>89.0</ele><time>2026-04-19T06:35:32Z</time></trkpt><trkpt lat="45.32219899236695" lon="9.228045533195969"><ele>89.0</ele><time>2026-04-19T06:35:34Z</time></trkpt><trkpt lat="45.32217963748304" lon="9.227924780707387"><ele>89.0</ele><time>2026-04-19T06:35:36Z</time></trkpt><trkpt lat="45.32216563736591" lon="9.227799224865251"><ele>89.0</ele><time>2026-04-19T06:35:38Z</time></trkpt><trkpt lat="45.32214092442901" lon="9.227679912094219"><ele>89.0</ele><time>2026-04-19T06:35:40Z</time></trkpt><trkpt lat="45.322122188826775" lon="9.227562385237764"><ele>89.0</ele><time>2026-04-19T06:35:42Z</time></trkpt><trkpt lat="45.32210775733435" lon="9.22744210445034"><ele>89.0</ele><time>2026-04-19T06:35:44Z</time></trkpt><trkpt lat="45.3220860428732" lon="9.22730456824962"><ele>89.0</ele><time>2026-04-19T06:35:46Z</time></trkpt><trkpt lat="45.32208424819742" lon="9.227170685573014"><ele>89.0</ele><time>2026-04-19T06:35:48Z</time></trkpt><trkpt lat="45.322064861590306" lon="9.227041189073477"><ele>89.0</ele><time>2026-04-19T06:35:50Z</time></trkpt><trkpt lat="45.32205175874234" lon="9.226910400525867"><ele>89.0</ele><time>2026-04-19T06:35:52Z</time></trkpt><trkpt lat="45.32203769623409" lon="9.226788482275744"><ele>89.0</ele><time>2026-04-19T06:35:54Z</time></trkpt><trkpt lat="45.32202846825728" lon="9.226663870946574"><ele>89.0</ele><time>2026-04-19T06:35:56Z</time></trkpt><trkpt lat="45.32201678306024" lon="9.226539932981353"><ele>89.0</ele><time>2026-04-19T06:35:58Z</time></trkpt><trkpt lat="45.32200388346599" lon="9.22641975731847"><ele>89.0</ele><time>2026-04-19T06:36:00Z</time></trkpt><trkpt lat="45.32198908495392" lon="9.226304247272704"><ele>89.0</ele><time>2026-04-19T06:36:02Z</time></trkpt><trkpt lat="45.321974243963695" lon="9.226194224712616"><ele>89.0</ele><time>2026-04-19T06:36:04Z</time></trkpt><trkpt lat="45.32194851065084" lon="9.226099103996624"><ele>89.0</ele><time>2026-04-19T06:36:06Z</time></trkpt><trkpt lat="45.32190586450297" lon="9.226018592936239"><ele>89.0</ele><time>2026-04-19T06:36:08Z</time></trkpt><trkpt lat="45.321832779615725" lon="9.226012689001895"><ele>89.0</ele><time>2026-04-19T06:36:10Z</time></trkpt><trkpt lat="45.32175735688575" lon="9.226063968571093"><ele>89.0</ele><time>2026-04-19T06:36:12Z</time></trkpt><trkpt lat="45.32167991517026" lon="9.226120830931778"><ele>89.0</ele><time>2026-04-19T06:36:14Z</time></trkpt><trkpt lat="45.321597704327196" lon="9.22617163391821"><ele>89.0</ele><time>2026-04-19T06:36:16Z</time></trkpt><trkpt lat="45.32151462514241" lon="9.226230538634672"><ele>89.0</ele><time>2026-04-19T06:36:18Z</time></trkpt><trkpt lat="45.321432066463764" lon="9.226289988895939"><ele>89.0</ele><time>2026-04-19T06:36:20Z</time></trkpt><trkpt lat="45.32135048636132" lon="9.226340619321046"><ele>89.0</ele><time>2026-04-19T06:36:22Z</time></trkpt><trkpt lat="45.321270040473124" lon="9.2263916345088"><ele>89.0</ele><time>2026-04-19T06:36:24Z</time></trkpt><trkpt lat="45.32118414977326" lon="9.226442243488417"><ele>89.0</ele><time>2026-04-19T06:36:26Z</time></trkpt><trkpt lat="45.32110999143374" lon="9.22649500375386"><ele>89.0</ele><time>2026-04-19T06:36:28Z</time></trkpt><trkpt lat="45.32102821905222" lon="9.226545835772356"><ele>89.0</ele><time>2026-04-19T06:36:30Z</time></trkpt><trkpt lat="45.32094972172714" lon="9.226599282615567"><ele>89.0</ele><time>2026-04-19T06:36:32Z</time></trkpt><trkpt lat="45.320864158341294" lon="9.226644431653904"><ele>89.0</ele><time>2026-04-19T06:36:34Z</time></trkpt><trkpt lat="45.3207781001669" lon="9.226691302453277"><ele>89.0</ele><time>2026-04-19T06:36:36Z</time></trkpt><trkpt lat="45.320694404290265" lon="9.226745642393038"><ele>89.0</ele><time>2026-04-19T06:36:38Z</time></trkpt><trkpt lat="45.320613377891206" lon="9.226798535401185"><ele>89.0</ele><time>2026-04-19T06:36:40Z</time></trkpt><trkpt lat="45.32052963289503" lon="9.226845644004698"><ele>89.0</ele><time>2026-04-19T06:36:42Z</time></trkpt><trkpt lat="45.32044962188768" lon="9.226894375723495"><ele>89.0</ele><time>2026-04-19T06:36:44Z</time></trkpt><trkpt lat="45.32036885305735" lon="9.226946770481373"><ele>89.0</ele><time>2026-04-19T06:36:46Z</time></trkpt><trkpt lat="45.32028603868061" lon="9.227001864150953"><ele>89.0</ele><time>2026-04-19T06:36:48Z</time></trkpt><trkpt lat="45.320200759815606" lon="9.227048634339765"><ele>89.0</ele><time>2026-04-19T06:36:50Z</time></trkpt><trkpt lat="45.32012122864431" lon="9.227099991075939"><ele>89.0</ele><time>2026-04-19T06:36:52Z</time></trkpt><trkpt lat="45.32003750054149" lon="9.22714606110259"><ele>89.0</ele><time>2026-04-19T06:36:54Z</time></trkpt><trkpt lat="45.31995528277108" lon="9.22719419080581"><ele>89.0</ele><time>2026-04-19T06:36:56Z</time></trkpt><trkpt lat="45.31986941004709" lon="9.227244430842193"><ele>89.0</ele><time>2026-04-19T06:36:58Z</time></trkpt><trkpt lat="45.319786710075064" lon="9.227298807528307"><ele>88.83333333333334</ele><time>2026-04-19T06:37:00Z</time></trkpt><trkpt lat="45.31970413131018" lon="9.227353656338806"><ele>88.66666666666667</ele><time>2026-04-19T06:37:02Z</time></trkpt><trkpt lat="45.31962472378076" lon="9.227402993714767"><ele>88.5</ele><time>2026-04-19T06:37:04Z</time></trkpt><trkpt lat="45.319542007198265" lon="9.227458475586161"><ele>88.33333333333333</ele><time>2026-04-19T06:37:06Z</time></trkpt><trkpt lat="45.31946208184365" lon="9.227512262510007"><ele>88.16666666666666</ele><time>2026-04-19T06:37:08Z</time></trkpt><trkpt lat="45.319378265827936" lon="9.227561667648354"><ele>88.0</ele><time>2026-04-19T06:37:10Z</time></trkpt><trkpt lat="45.31929666921318" lon="9.227612615072575"><ele>88.0</ele><time>2026-04-19T06:37:12Z</time></trkpt><trkpt lat="45.3192158748642" lon="9.22766358809728"><ele>88.0</ele><time>2026-04-19T06:37:14Z</time></trkpt><trkpt lat="45.319134682811246" lon="9.227715420056407"><ele>88.0</ele><time>2026-04-19T06:37:16Z</time></trkpt><trkpt lat="45.31905120803697" lon="9.227766682293401"><ele>88.0</ele><time>2026-04-19T06:37:18Z</time></trkpt><trkpt lat="45.31897197966244" lon="9.22781941289661"><ele>88.0</ele><time>2026-04-19T06:37:20Z</time></trkpt><trkpt lat="45.31889285383977" lon="9.22787099613045"><ele>88.0</ele><time>2026-04-19T06:37:22Z</time></trkpt><trkpt lat="45.31881302915533" lon="9.227936198987187"><ele>88.0</ele><time>2026-04-19T06:37:24Z</time></trkpt><trkpt lat="45.31873131316878" lon="9.22797214339602"><ele>88.0</ele><time>2026-04-19T06:37:26Z</time></trkpt><trkpt lat="45.318651994128956" lon="9.228032270070527"><ele>88.0</ele><time>2026-04-19T06:37:28Z</time></trkpt><trkpt lat="45.31857559951488" lon="9.22809296721488"><ele>88.0</ele><time>2026-04-19T06:37:30Z</time></trkpt><trkpt lat="45.31849778732025" lon="9.228136154826563"><ele>88.0</ele><time>2026-04-19T06:37:32Z</time></trkpt><trkpt lat="45.31841764302955" lon="9.228193411577706"><ele>88.0</ele><time>2026-04-19T06:37:34Z</time></trkpt><trkpt lat="45.31834038722669" lon="9.228250127090893"><ele>88.0</ele><time>2026-04-19T06:37:36Z</time></trkpt><trkpt lat="45.318264657134996" lon="9.228310885947106"><ele>88.0</ele><time>2026-04-19T06:37:38Z</time></trkpt><trkpt lat="45.31818462190768" lon="9.228369601554315"><ele>88.0</ele><time>2026-04-19T06:37:40Z</time></trkpt><trkpt lat="45.318107810938876" lon="9.228428950178841"><ele>88.0</ele><time>2026-04-19T06:37:42Z</time></trkpt><trkpt lat="45.31802590929985" lon="9.228491481906666"><ele>88.0</ele><time>2026-04-19T06:37:44Z</time></trkpt><trkpt lat="45.317947897678295" lon="9.228544902941062"><ele>88.0</ele><time>2026-04-19T06:37:46Z</time></trkpt><trkpt lat="45.31786817135309" lon="9.228595903653279"><ele>88.0</ele><time>2026-04-19T06:37:48Z</time></trkpt><trkpt lat="45.31779086792576" lon="9.228653366148764"><ele>88.0</ele><time>2026-04-19T06:37:50Z</time></trkpt><trkpt lat="45.31771210098575" lon="9.228703548427125"><ele>88.0</ele><time>2026-04-19T06:37:52Z</time></trkpt><trkpt lat="45.317635518782524" lon="9.22875704688144"><ele>88.0</ele><time>2026-04-19T06:37:54Z</time></trkpt><trkpt lat="45.317557622384385" lon="9.22880862390155"><ele>88.0</ele><time>2026-04-19T06:37:56Z</time></trkpt><trkpt lat="45.31747774159314" lon="9.228856215270518"><ele>88.0</ele><time>2026-04-19T06:37:58Z</time></trkpt><trkpt lat="45.317399779637284" lon="9.228906158914183"><ele>88.0</ele><time>2026-04-19T06:38:00Z</time></trkpt><trkpt lat="45.317322199035516" lon="9.22896309320718"><ele>88.0</ele><time>2026-04-19T06:38:02Z</time></trkpt><trkpt lat="45.31724212494894" lon="9.229018274335683"><ele>88.0</ele><time>2026-04-19T06:38:04Z</time></trkpt><trkpt lat="45.31716145122555" lon="9.229068435243274"><ele>88.0</ele><time>2026-04-19T06:38:06Z</time></trkpt><trkpt lat="45.31708223953177" lon="9.229115688022574"><ele>88.0</ele><time>2026-04-19T06:38:08Z</time></trkpt><trkpt lat="45.31700276389428" lon="9.22917257815469"><ele>88.0</ele><time>2026-04-19T06:38:10Z</time></trkpt><trkpt lat="45.31692557400409" lon="9.229226662952957"><ele>87.66666666666666</ele><time>2026-04-19T06:38:12Z</time></trkpt><trkpt lat="45.31684433075174" lon="9.229272836049043"><ele>87.33333333333333</ele><time>2026-04-19T06:38:14Z</time></trkpt><trkpt lat="45.31676403383391" lon="9.229324677550434"><ele>87.0</ele><time>2026-04-19T06:38:16Z</time></trkpt><trkpt lat="45.31668666833468" lon="9.22937876112237"><ele>86.66666666666667</ele><time>2026-04-19T06:38:18Z</time></trkpt><trkpt lat="45.316604763513354" lon="9.229427700544747"><ele>86.33333333333334</ele><time>2026-04-19T06:38:20Z</time></trkpt><trkpt lat="45.31652716122695" lon="9.229480510436515"><ele>86.0</ele><time>2026-04-19T06:38:22Z</time></trkpt><trkpt lat="45.31644598069025" lon="9.229531517498089"><ele>86.16666666666667</ele><time>2026-04-19T06:38:24Z</time></trkpt><trkpt lat="45.316369485017766" lon="9.229582723250594"><ele>86.33333333333334</ele><time>2026-04-19T06:38:26Z</time></trkpt><trkpt lat="45.31629283170621" lon="9.229638567946498"><ele>86.5</ele><time>2026-04-19T06:38:28Z</time></trkpt><trkpt lat="45.31621293347396" lon="9.229684222345258"><ele>86.66666666666667</ele><time>2026-04-19T06:38:30Z</time></trkpt><trkpt lat="45.31613502836247" lon="9.229734423623519"><ele>86.83333333333333</ele><time>2026-04-19T06:38:32Z</time></trkpt><trkpt lat="45.316055335392896" lon="9.229784551359261"><ele>87.0</ele><time>2026-04-19T06:38:34Z</time></trkpt><trkpt lat="45.31597580151809" lon="9.229836544135198"><ele>87.0</ele><time>2026-04-19T06:38:36Z</time></trkpt><trkpt lat="45.31589622470837" lon="9.229889953285312"><ele>87.0</ele><time>2026-04-19T06:38:38Z</time></trkpt><trkpt lat="45.315818508651" lon="9.229940199784284"><ele>87.0</ele><time>2026-04-19T06:38:40Z</time></trkpt><trkpt lat="45.315740171603295" lon="9.229990940932188"><ele>87.0</ele><time>2026-04-19T06:38:42Z</time></trkpt><trkpt lat="45.31566168921395" lon="9.230039893788092"><ele>87.0</ele><time>2026-04-19T06:38:44Z</time></trkpt><trkpt lat="45.3155828487398" lon="9.230089870255615"><ele>87.0</ele><time>2026-04-19T06:38:46Z</time></trkpt><trkpt lat="45.315506883688755" lon="9.230145869692315"><ele>87.0</ele><time>2026-04-19T06:38:48Z</time></trkpt><trkpt lat="45.31542602771719" lon="9.230191927844427"><ele>87.0</ele><time>2026-04-19T06:38:50Z</time></trkpt><trkpt lat="45.315348596937845" lon="9.230242412648671"><ele>87.0</ele><time>2026-04-19T06:38:52Z</time></trkpt><trkpt lat="45.315273582569695" lon="9.230293517662812"><ele>87.0</ele><time>2026-04-19T06:38:54Z</time></trkpt><trkpt lat="45.315195248108246" lon="9.230343930829802"><ele>87.0</ele><time>2026-04-19T06:38:56Z</time></trkpt><trkpt lat="45.31511594338303" lon="9.23039497616755"><ele>87.0</ele><time>2026-04-19T06:38:58Z</time></trkpt><trkpt lat="45.31503837726552" lon="9.230449789581062"><ele>87.0</ele><time>2026-04-19T06:39:00Z</time></trkpt><trkpt lat="45.314962078364104" lon="9.230502295960456"><ele>87.0</ele><time>2026-04-19T06:39:02Z</time></trkpt><trkpt lat="45.31487987171079" lon="9.230551693305124"><ele>87.0</ele><time>2026-04-19T06:39:04Z</time></trkpt><trkpt lat="45.314800317402195" lon="9.230601783380507"><ele>87.0</ele><time>2026-04-19T06:39:06Z</time></trkpt><trkpt lat="45.31472007262831" lon="9.23065965969106"><ele>87.0</ele><time>2026-04-19T06:39:08Z</time></trkpt><trkpt lat="45.3146363819948" lon="9.230714211839334"><ele>87.0</ele><time>2026-04-19T06:39:10Z</time></trkpt><trkpt lat="45.31455363473333" lon="9.230762044769234"><ele>87.39999999999999</ele><time>2026-04-19T06:39:12Z</time></trkpt><trkpt lat="45.31446809922109" lon="9.230814273968189"><ele>87.8</ele><time>2026-04-19T06:39:14Z</time></trkpt><trkpt lat="45.314387522328" lon="9.230867957694738"><ele>88.2</ele><time>2026-04-19T06:39:16Z</time></trkpt><trkpt lat="45.314303144986745" lon="9.23091578584426"><ele>88.6</ele><time>2026-04-19T06:39:18Z</time></trkpt><trkpt lat="45.31422806795898" lon="9.230973723583382"><ele>89.0</ele><time>2026-04-19T06:39:20Z</time></trkpt><trkpt lat="45.31414497922617" lon="9.231029305843961"><ele>89.0</ele><time>2026-04-19T06:39:22Z</time></trkpt><trkpt lat="45.31405998517287" lon="9.231081805092307"><ele>89.0</ele><time>2026-04-19T06:39:24Z</time></trkpt><trkpt lat="45.313981046195906" lon="9.23113680419794"><ele>89.0</ele><time>2026-04-19T06:39:26Z</time></trkpt><trkpt lat="45.31389574365437" lon="9.231185878171779"><ele>89.0</ele><time>2026-04-19T06:39:28Z</time></trkpt><trkpt lat="45.313814080702755" lon="9.231240419892364"><ele>89.0</ele><time>2026-04-19T06:39:30Z</time></trkpt><trkpt lat="45.31373032531782" lon="9.231290834571205"><ele>88.83333333333334</ele><time>2026-04-19T06:39:32Z</time></trkpt><trkpt lat="45.313646546813786" lon="9.231343716464671"><ele>88.66666666666667</ele><time>2026-04-19T06:39:34Z</time></trkpt><trkpt lat="45.313563943526745" lon="9.23139824651554"><ele>88.5</ele><time>2026-04-19T06:39:36Z</time></trkpt><trkpt lat="45.31348327314043" lon="9.231449226707783"><ele>88.33333333333333</ele><time>2026-04-19T06:39:38Z</time></trkpt><trkpt lat="45.31340133716275" lon="9.231498694534514"><ele>88.16666666666666</ele><time>2026-04-19T06:39:40Z</time></trkpt><trkpt lat="45.31331915912813" lon="9.23154527826874"><ele>88.0</ele><time>2026-04-19T06:39:42Z</time></trkpt><trkpt lat="45.3132395811915" lon="9.231594268641524"><ele>88.0</ele><time>2026-04-19T06:39:44Z</time></trkpt><trkpt lat="45.313154698169335" lon="9.231645989393853"><ele>88.0</ele><time>2026-04-19T06:39:46Z</time></trkpt><trkpt lat="45.31307334498006" lon="9.231696059768105"><ele>88.0</ele><time>2026-04-19T06:39:48Z</time></trkpt><trkpt lat="45.31299445459675" lon="9.231751542532004"><ele>88.0</ele><time>2026-04-19T06:39:50Z</time></trkpt><trkpt lat="45.31291566892703" lon="9.231806336001691"><ele>88.0</ele><time>2026-04-19T06:39:52Z</time></trkpt><trkpt lat="45.312838907309896" lon="9.231867153023023"><ele>88.0</ele><time>2026-04-19T06:39:54Z</time></trkpt><trkpt lat="45.31275939316091" lon="9.231929549327903"><ele>88.0</ele><time>2026-04-19T06:39:56Z</time></trkpt><trkpt lat="45.31268131481148" lon="9.231985237525036"><ele>88.0</ele><time>2026-04-19T06:39:58Z</time></trkpt><trkpt lat="45.31259950843965" lon="9.232045595758931"><ele>88.0</ele><time>2026-04-19T06:40:00Z</time></trkpt><trkpt lat="45.31252529224572" lon="9.232108202853755"><ele>88.0</ele><time>2026-04-19T06:40:02Z</time></trkpt><trkpt lat="45.31245070673301" lon="9.23217401315104"><ele>88.0</ele><time>2026-04-19T06:40:04Z</time></trkpt><trkpt lat="45.31237287730982" lon="9.232230377658372"><ele>88.0</ele><time>2026-04-19T06:40:06Z</time></trkpt><trkpt lat="45.31229505561361" lon="9.232292546018947"><ele>87.5</ele><time>2026-04-19T06:40:08Z</time></trkpt><trkpt lat="45.31222038545373" lon="9.232355461609115"><ele>87.0</ele><time>2026-04-19T06:40:10Z</time></trkpt><trkpt lat="45.31214678700495" lon="9.232411309739135"><ele>86.5</ele><time>2026-04-19T06:40:12Z</time></trkpt><trkpt lat="45.31206425200785" lon="9.23248001048459"><ele>86.0</ele><time>2026-04-19T06:40:14Z</time></trkpt><trkpt lat="45.31198982873496" lon="9.232538331763283"><ele>85.5</ele><time>2026-04-19T06:40:16Z</time></trkpt><trkpt lat="45.311915806963995" lon="9.23260107269911"><ele>85.0</ele><time>2026-04-19T06:40:18Z</time></trkpt><trkpt lat="45.31184160171975" lon="9.232662126968206"><ele>85.0</ele><time>2026-04-19T06:40:20Z</time></trkpt><trkpt lat="45.31176490381868" lon="9.232722469534307"><ele>85.0</ele><time>2026-04-19T06:40:22Z</time></trkpt><trkpt lat="45.3116870180466" lon="9.23278112216078"><ele>85.0</ele><time>2026-04-19T06:40:24Z</time></trkpt><trkpt lat="45.31161281355627" lon="9.232853306060466"><ele>85.0</ele><time>2026-04-19T06:40:26Z</time></trkpt><trkpt lat="45.31153724791875" lon="9.232914480747423"><ele>85.0</ele><time>2026-04-19T06:40:28Z</time></trkpt><trkpt lat="45.311456910698645" lon="9.232974238930842"><ele>85.0</ele><time>2026-04-19T06:40:30Z</time></trkpt><trkpt lat="45.311373885295026" lon="9.23303348155679"><ele>84.6</ele><time>2026-04-19T06:40:32Z</time></trkpt><trkpt lat="45.31126707183495" lon="9.233063195035363"><ele>84.2</ele><time>2026-04-19T06:40:34Z</time></trkpt><trkpt lat="45.31116321917216" lon="9.233070475063725"><ele>83.80000000000001</ele><time>2026-04-19T06:40:36Z</time></trkpt><trkpt lat="45.31105185880093" lon="9.233074262865197"><ele>83.4</ele><time>2026-04-19T06:40:38Z</time></trkpt><trkpt lat="45.31094490356163" lon="9.23307579429731"><ele>83.0</ele><time>2026-04-19T06:40:40Z</time></trkpt><trkpt lat="45.31083846952338" lon="9.233073826918794"><ele>83.0</ele><time>2026-04-19T06:40:42Z</time></trkpt><trkpt lat="45.310731607071276" lon="9.233083006263383"><ele>83.0</ele><time>2026-04-19T06:40:44Z</time></trkpt><trkpt lat="45.31062517281517" lon="9.233083808804537"><ele>83.0</ele><time>2026-04-19T06:40:46Z</time></trkpt><trkpt lat="45.31052414056955" lon="9.23308538282429"><ele>83.0</ele><time>2026-04-19T06:40:48Z</time></trkpt><trkpt lat="45.310428759734634" lon="9.233089728816653"><ele>83.0</ele><time>2026-04-19T06:40:50Z</time></trkpt><trkpt lat="45.31033778166412" lon="9.233089160922455"><ele>83.4</ele><time>2026-04-19T06:40:52Z</time></trkpt><trkpt lat="45.31024736575025" lon="9.233088288267314"><ele>83.80000000000001</ele><time>2026-04-19T06:40:54Z</time></trkpt><trkpt lat="45.310157618945375" lon="9.233094981083099"><ele>84.2</ele><time>2026-04-19T06:40:56Z</time></trkpt><trkpt lat="45.31006601900441" lon="9.233091845041422"><ele>84.6</ele><time>2026-04-19T06:40:58Z</time></trkpt><trkpt lat="45.30997572643438" lon="9.233100353988943"><ele>85.0</ele><time>2026-04-19T06:41:00Z</time></trkpt><trkpt lat="45.30988472632978" lon="9.233102450926419"><ele>85.0</ele><time>2026-04-19T06:41:02Z</time></trkpt><trkpt lat="45.30979577711367" lon="9.233103255284522"><ele>85.0</ele><time>2026-04-19T06:41:04Z</time></trkpt><trkpt lat="45.30970622269607" lon="9.233097124582104"><ele>85.0</ele><time>2026-04-19T06:41:06Z</time></trkpt><trkpt lat="45.30961452522564" lon="9.233101620689569"><ele>85.0</ele><time>2026-04-19T06:41:08Z</time></trkpt><trkpt lat="45.30952366344211" lon="9.233104412671949"><ele>85.0</ele><time>2026-04-19T06:41:10Z</time></trkpt><trkpt lat="45.309433344924756" lon="9.233100915567903"><ele>85.0</ele><time>2026-04-19T06:41:12Z</time></trkpt><trkpt lat="45.309344232496294" lon="9.233111097902162"><ele>85.0</ele><time>2026-04-19T06:41:14Z</time></trkpt><trkpt lat="45.309252798018946" lon="9.233123727394984"><ele>85.0</ele><time>2026-04-19T06:41:16Z</time></trkpt><trkpt lat="45.309167360839055" lon="9.233166120343961"><ele>85.0</ele><time>2026-04-19T06:41:18Z</time></trkpt><trkpt lat="45.30910184389495" lon="9.233254183948443"><ele>85.0</ele><time>2026-04-19T06:41:20Z</time></trkpt><trkpt lat="45.30903808832908" lon="9.23333951206963"><ele>85.0</ele><time>2026-04-19T06:41:22Z</time></trkpt><trkpt lat="45.30897361443963" lon="9.23341860686957"><ele>85.0</ele><time>2026-04-19T06:41:24Z</time></trkpt><trkpt lat="45.30891197209224" lon="9.233498785610026"><ele>85.0</ele><time>2026-04-19T06:41:26Z</time></trkpt><trkpt lat="45.30885290617536" lon="9.233574040837254"><ele>85.0</ele><time>2026-04-19T06:41:28Z</time></trkpt><trkpt lat="45.308804419417775" lon="9.233640191122996"><ele>85.0</ele><time>2026-04-19T06:41:30Z</time></trkpt><trkpt lat="45.30872232943127" lon="9.233695540879868"><ele>85.0</ele><time>2026-04-19T06:41:33Z</time></trkpt><trkpt lat="45.308646998586596" lon="9.233590668686467"><ele>85.0</ele><time>2026-04-19T06:41:35Z</time></trkpt><trkpt lat="45.30859081673319" lon="9.233484803045197"><ele>85.0</ele><time>2026-04-19T06:41:37Z</time></trkpt><trkpt lat="45.308526795249" lon="9.233394007699921"><ele>85.0</ele><time>2026-04-19T06:41:39Z</time></trkpt><trkpt lat="45.30846734512169" lon="9.233309882858698"><ele>85.0</ele><time>2026-04-19T06:41:41Z</time></trkpt><trkpt lat="45.30841386926938" lon="9.23322374600517"><ele>85.0</ele><time>2026-04-19T06:41:43Z</time></trkpt><trkpt lat="45.30836063881134" lon="9.233124962316802"><ele>85.0</ele><time>2026-04-19T06:41:45Z</time></trkpt><trkpt lat="45.30830300632855" lon="9.233033926627641"><ele>85.0</ele><time>2026-04-19T06:41:47Z</time></trkpt><trkpt lat="45.30824938902278" lon="9.232938378165604"><ele>84.8</ele><time>2026-04-19T06:41:49Z</time></trkpt><trkpt lat="45.308191438279664" lon="9.232843832710042"><ele>84.6</ele><time>2026-04-19T06:41:51Z</time></trkpt><trkpt lat="45.30813271283661" lon="9.232745255616319"><ele>84.4</ele><time>2026-04-19T06:41:53Z</time></trkpt><trkpt lat="45.30807462846438" lon="9.232643056566427"><ele>84.2</ele><time>2026-04-19T06:41:55Z</time></trkpt><trkpt lat="45.30801419073133" lon="9.232551166969948"><ele>84.0</ele><time>2026-04-19T06:41:57Z</time></trkpt><trkpt lat="45.30795708257375" lon="9.232451681038947"><ele>84.0</ele><time>2026-04-19T06:41:59Z</time></trkpt><trkpt lat="45.30789618432854" lon="9.23235471852219"><ele>84.0</ele><time>2026-04-19T06:42:01Z</time></trkpt><trkpt lat="45.307835527564784" lon="9.232258609543653"><ele>84.0</ele><time>2026-04-19T06:42:03Z</time></trkpt><trkpt lat="45.30777038413426" lon="9.23216370400221"><ele>84.0</ele><time>2026-04-19T06:42:05Z</time></trkpt><trkpt lat="45.30771118004459" lon="9.232065461425286"><ele>84.0</ele><time>2026-04-19T06:42:07Z</time></trkpt><trkpt lat="45.30764691934384" lon="9.23197332098014"><ele>84.0</ele><time>2026-04-19T06:42:09Z</time></trkpt><trkpt lat="45.30758907809698" lon="9.231878667874955"><ele>84.0</ele><time>2026-04-19T06:42:11Z</time></trkpt><trkpt lat="45.30753121452072" lon="9.231785647672151"><ele>84.0</ele><time>2026-04-19T06:42:13Z</time></trkpt><trkpt lat="45.30748206874403" lon="9.231699119213257"><ele>84.0</ele><time>2026-04-19T06:42:15Z</time></trkpt><trkpt lat="45.30743791455334" lon="9.231620868461633"><ele>84.0</ele><time>2026-04-19T06:42:17Z</time></trkpt><trkpt lat="45.30739200167567" lon="9.231541751707715"><ele>84.0</ele><time>2026-04-19T06:42:19Z</time></trkpt><trkpt lat="45.30735745228357" lon="9.231462642977169"><ele>84.5</ele><time>2026-04-19T06:42:21Z</time></trkpt><trkpt lat="45.30738420997062" lon="9.231380124106206"><ele>85.0</ele><time>2026-04-19T06:42:23Z</time></trkpt><trkpt lat="45.307460434257266" lon="9.231303186725421"><ele>85.5</ele><time>2026-04-19T06:42:26Z</time></trkpt><trkpt lat="45.30753914853557" lon="9.2312641399799"><ele>86.0</ele><time>2026-04-19T06:42:28Z</time></trkpt><trkpt lat="45.307612429606166" lon="9.231192542459512"><ele>86.5</ele><time>2026-04-19T06:42:30Z</time></trkpt><trkpt lat="45.30767941015192" lon="9.231113034925626"><ele>87.0</ele><time>2026-04-19T06:42:32Z</time></trkpt><trkpt lat="45.307746629788284" lon="9.231039114902039"><ele>87.0</ele><time>2026-04-19T06:42:34Z</time></trkpt><trkpt lat="45.30780968461959" lon="9.230952214328758"><ele>87.0</ele><time>2026-04-19T06:42:36Z</time></trkpt><trkpt lat="45.30787824507122" lon="9.230875116280822"><ele>87.0</ele><time>2026-04-19T06:42:38Z</time></trkpt><trkpt lat="45.30794414073442" lon="9.230790238586712"><ele>87.0</ele><time>2026-04-19T06:42:40Z</time></trkpt><trkpt lat="45.30801014966878" lon="9.230701649566768"><ele>87.0</ele><time>2026-04-19T06:42:42Z</time></trkpt><trkpt lat="45.30806771361488" lon="9.230593601583264"><ele>86.6</ele><time>2026-04-19T06:42:44Z</time></trkpt><trkpt lat="45.30811236590241" lon="9.230479085143475"><ele>86.19999999999999</ele><time>2026-04-19T06:42:46Z</time></trkpt><trkpt lat="45.30814438062466" lon="9.230357084419134"><ele>85.8</ele><time>2026-04-19T06:42:48Z</time></trkpt><trkpt lat="45.308168971106184" lon="9.230231512768837"><ele>85.4</ele><time>2026-04-19T06:42:50Z</time></trkpt><trkpt lat="45.30818682807764" lon="9.23009501351235"><ele>85.0</ele><time>2026-04-19T06:42:52Z</time></trkpt><trkpt lat="45.30824210731627" lon="9.229974600967443"><ele>85.0</ele><time>2026-04-19T06:42:54Z</time></trkpt><trkpt lat="45.308304471765325" lon="9.229835315302081"><ele>85.0</ele><time>2026-04-19T06:42:56Z</time></trkpt><trkpt lat="45.308380311369085" lon="9.22969740061139"><ele>85.0</ele><time>2026-04-19T06:42:58Z</time></trkpt><trkpt lat="45.30841866258074" lon="9.229553820742849"><ele>85.0</ele><time>2026-04-19T06:43:00Z</time></trkpt><trkpt lat="45.308462936624736" lon="9.229434020045689"><ele>85.0</ele><time>2026-04-19T06:43:02Z</time></trkpt><trkpt lat="45.3084709663508" lon="9.229310945060638"><ele>85.0</ele><time>2026-04-19T06:43:04Z</time></trkpt><trkpt lat="45.30846832675476" lon="9.229201563533547"><ele>85.0</ele><time>2026-04-19T06:43:06Z</time></trkpt><trkpt lat="45.30842102652236" lon="9.229098091166978"><ele>85.0</ele><time>2026-04-19T06:43:08Z</time></trkpt><trkpt lat="45.30835054186033" lon="9.229006621992855"><ele>85.0</ele><time>2026-04-19T06:43:10Z</time></trkpt><trkpt lat="45.30826607872633" lon="9.228935197892223"><ele>85.0</ele><time>2026-04-19T06:43:12Z</time></trkpt><trkpt lat="45.30821493472771" lon="9.228816143564368"><ele>85.0</ele><time>2026-04-19T06:43:14Z</time></trkpt><trkpt lat="45.308179663364015" lon="9.22868235187582"><ele>85.0</ele><time>2026-04-19T06:43:16Z</time></trkpt><trkpt lat="45.308161066874625" lon="9.228540620826376"><ele>85.0</ele><time>2026-04-19T06:43:18Z</time></trkpt><trkpt lat="45.30817312540584" lon="9.228389363144798"><ele>85.0</ele><time>2026-04-19T06:43:20Z</time></trkpt><trkpt lat="45.308199479577524" lon="9.228247432497499"><ele>85.0</ele><time>2026-04-19T06:43:22Z</time></trkpt><trkpt lat="45.30826806123806" lon="9.228132620736144"><ele>85.2</ele><time>2026-04-19T06:43:24Z</time></trkpt><trkpt lat="45.308339237372195" lon="9.228020043763678"><ele>85.4</ele><time>2026-04-19T06:43:26Z</time></trkpt><trkpt lat="45.308410051044575" lon="9.227916200283856"><ele>85.6</ele><time>2026-04-19T06:43:28Z</time></trkpt><trkpt lat="45.30848109203055" lon="9.227823168998752"><ele>85.8</ele><time>2026-04-19T06:43:30Z</time></trkpt><trkpt lat="45.30856175757745" lon="9.22775737907884"><ele>86.0</ele><time>2026-04-19T06:43:32Z</time></trkpt><trkpt lat="45.30864258162796" lon="9.227686702188356"><ele>86.0</ele><time>2026-04-19T06:43:34Z</time></trkpt><trkpt lat="45.308724433357995" lon="9.227600212820512"><ele>86.0</ele><time>2026-04-19T06:43:36Z</time></trkpt><trkpt lat="45.308813341694865" lon="9.22751736487164"><ele>86.0</ele><time>2026-04-19T06:43:38Z</time></trkpt><trkpt lat="45.308902904657636" lon="9.227436036086091"><ele>86.0</ele><time>2026-04-19T06:43:40Z</time></trkpt><trkpt lat="45.30899010640041" lon="9.22735309789399"><ele>86.0</ele><time>2026-04-19T06:43:42Z</time></trkpt><trkpt lat="45.30908452904771" lon="9.227286967617648"><ele>86.0</ele><time>2026-04-19T06:43:44Z</time></trkpt><trkpt lat="45.3091802648473" lon="9.227241969309574"><ele>86.0</ele><time>2026-04-19T06:43:46Z</time></trkpt><trkpt lat="45.30928122462737" lon="9.22720582355316"><ele>86.0</ele><time>2026-04-19T06:43:48Z</time></trkpt><trkpt lat="45.309379082149704" lon="9.227167053968635"><ele>86.0</ele><time>2026-04-19T06:43:50Z</time></trkpt><trkpt lat="45.309472937084045" lon="9.227125565848599"><ele>86.0</ele><time>2026-04-19T06:43:52Z</time></trkpt><trkpt lat="45.30955452991818" lon="9.227054625292489"><ele>86.0</ele><time>2026-04-19T06:43:54Z</time></trkpt><trkpt lat="45.30962792918022" lon="9.226974302755963"><ele>86.0</ele><time>2026-04-19T06:43:56Z</time></trkpt><trkpt lat="45.30971011962901" lon="9.226877200278489"><ele>86.0</ele><time>2026-04-19T06:43:58Z</time></trkpt><trkpt lat="45.30979948574705" lon="9.226776701604306"><ele>86.0</ele><time>2026-04-19T06:44:00Z</time></trkpt><trkpt lat="45.30988297520753" lon="9.226674757479488"><ele>86.0</ele><time>2026-04-19T06:44:02Z</time></trkpt><trkpt lat="45.309966734138335" lon="9.22657753119855"><ele>86.19999999999999</ele><time>2026-04-19T06:44:04Z</time></trkpt><trkpt lat="45.31005046794785" lon="9.226478520052197"><ele>86.39999999999999</ele><time>2026-04-19T06:44:06Z</time></trkpt><trkpt lat="45.31012422985704" lon="9.226360017021152"><ele>86.6</ele><time>2026-04-19T06:44:08Z</time></trkpt><trkpt lat="45.31020844294323" lon="9.22626408862088"><ele>86.8</ele><time>2026-04-19T06:44:10Z</time></trkpt><trkpt lat="45.31030088517663" lon="9.22617157317931"><ele>87.0</ele><time>2026-04-19T06:44:12Z</time></trkpt><trkpt lat="45.310380203923756" lon="9.22607009564659"><ele>87.19999999999999</ele><time>2026-04-19T06:44:14Z</time></trkpt><trkpt lat="45.310441154274876" lon="9.225943116197897"><ele>87.4</ele><time>2026-04-19T06:44:16Z</time></trkpt><trkpt lat="45.31048600395067" lon="9.225800957397995"><ele>87.6</ele><time>2026-04-19T06:44:18Z</time></trkpt><trkpt lat="45.31053366708532" lon="9.22565878979961"><ele>87.80000000000001</ele><time>2026-04-19T06:44:20Z</time></trkpt><trkpt lat="45.31057617260755" lon="9.225516689981358"><ele>88.0</ele><time>2026-04-19T06:44:22Z</time></trkpt><trkpt lat="45.310606009478484" lon="9.225368811872109"><ele>87.80000000000001</ele><time>2026-04-19T06:44:24Z</time></trkpt><trkpt lat="45.3106348895705" lon="9.225215774691945"><ele>87.6</ele><time>2026-04-19T06:44:26Z</time></trkpt><trkpt lat="45.310657644605485" lon="9.225067111429508"><ele>87.4</ele><time>2026-04-19T06:44:28Z</time></trkpt><trkpt lat="45.31067925847887" lon="9.224910678004347"><ele>87.19999999999999</ele><time>2026-04-19T06:44:30Z</time></trkpt><trkpt lat="45.31071251940092" lon="9.224759528857925"><ele>87.0</ele><time>2026-04-19T06:44:32Z</time></trkpt><trkpt lat="45.31074480718971" lon="9.224606793055214"><ele>87.0</ele><time>2026-04-19T06:44:34Z</time></trkpt><trkpt lat="45.31077552501047" lon="9.22445474251652"><ele>87.0</ele><time>2026-04-19T06:44:36Z</time></trkpt><trkpt lat="45.31078928798518" lon="9.224297634929487"><ele>87.0</ele><time>2026-04-19T06:44:38Z</time></trkpt><trkpt lat="45.31081794503886" lon="9.22414446043475"><ele>87.0</ele><time>2026-04-19T06:44:40Z</time></trkpt><trkpt lat="45.31083103851159" lon="9.223998127625451"><ele>87.0</ele><time>2026-04-19T06:44:42Z</time></trkpt><trkpt lat="45.310839119961116" lon="9.22383813269973"><ele>87.19999999999999</ele><time>2026-04-19T06:44:44Z</time></trkpt><trkpt lat="45.31083672508131" lon="9.223680008657222"><ele>87.4</ele><time>2026-04-19T06:44:46Z</time></trkpt><trkpt lat="45.31082187885248" lon="9.223533547812611"><ele>87.6</ele><time>2026-04-19T06:44:48Z</time></trkpt><trkpt lat="45.310814010180906" lon="9.223444169597977"><ele>87.80000000000001</ele><time>2026-04-19T06:44:49Z</time></trkpt><trkpt lat="45.310796831588824" lon="9.223288276255088"><ele>88.0</ele><time>2026-04-19T06:44:51Z</time></trkpt><trkpt lat="45.310781956576385" lon="9.223128974166091"><ele>87.25</ele><time>2026-04-19T06:44:53Z</time></trkpt><trkpt lat="45.31077366035781" lon="9.222969641260717"><ele>86.5</ele><time>2026-04-19T06:44:55Z</time></trkpt><trkpt lat="45.31076837320966" lon="9.222811369975537"><ele>85.75</ele><time>2026-04-19T06:44:57Z</time></trkpt><trkpt lat="45.31075661869051" lon="9.222648136613353"><ele>85.0</ele><time>2026-04-19T06:44:59Z</time></trkpt><trkpt lat="45.310742041361735" lon="9.222491164865286"><ele>85.0</ele><time>2026-04-19T06:45:01Z</time></trkpt><trkpt lat="45.310731558931316" lon="9.222327959725623"><ele>85.0</ele><time>2026-04-19T06:45:03Z</time></trkpt><trkpt lat="45.31070258431238" lon="9.222169557932519"><ele>85.0</ele><time>2026-04-19T06:45:05Z</time></trkpt><trkpt lat="45.310681821575436" lon="9.222009687731875"><ele>85.0</ele><time>2026-04-19T06:45:07Z</time></trkpt><trkpt lat="45.310647652670774" lon="9.22184934154101"><ele>85.0</ele><time>2026-04-19T06:45:09Z</time></trkpt><trkpt lat="45.31061045709447" lon="9.221693635575548"><ele>85.0</ele><time>2026-04-19T06:45:11Z</time></trkpt><trkpt lat="45.31057402750277" lon="9.221535756914355"><ele>85.0</ele><time>2026-04-19T06:45:13Z</time></trkpt><trkpt lat="45.3105475596634" lon="9.221376672043844"><ele>85.0</ele><time>2026-04-19T06:45:15Z</time></trkpt><trkpt lat="45.31053514624682" lon="9.221222876753469"><ele>85.25</ele><time>2026-04-19T06:45:17Z</time></trkpt><trkpt lat="45.310564375524336" lon="9.2210620325912"><ele>85.5</ele><time>2026-04-19T06:45:19Z</time></trkpt><trkpt lat="45.31066664673669" lon="9.220972016523232"><ele>85.75</ele><time>2026-04-19T06:45:21Z</time></trkpt><trkpt lat="45.31078629927782" lon="9.220891963312846"><ele>86.0</ele><time>2026-04-19T06:45:23Z</time></trkpt><trkpt lat="45.31088277048459" lon="9.220842864237591"><ele>86.16666666666667</ele><time>2026-04-19T06:45:25Z</time></trkpt><trkpt lat="45.310936559790214" lon="9.220791391017077"><ele>86.33333333333334</ele><time>2026-04-19T06:45:26Z</time></trkpt><trkpt lat="45.31099439792859" lon="9.220706518121355"><ele>86.5</ele><time>2026-04-19T06:45:27Z</time></trkpt><trkpt lat="45.31104375171736" lon="9.220650163494543"><ele>86.66666666666667</ele><time>2026-04-19T06:45:28Z</time></trkpt><trkpt lat="45.31113387907397" lon="9.22061732249919"><ele>86.83333333333333</ele><time>2026-04-19T06:45:30Z</time></trkpt><trkpt lat="45.311180284210366" lon="9.22047735017834"><ele>87.0</ele><time>2026-04-19T06:45:32Z</time></trkpt><trkpt lat="45.31116761020321" lon="9.220313594425617"><ele>87.0</ele><time>2026-04-19T06:45:34Z</time></trkpt><trkpt lat="45.31113555070815" lon="9.220163970611564"><ele>87.0</ele><time>2026-04-19T06:45:36Z</time></trkpt><trkpt lat="45.31110616169032" lon="9.22000917652852"><ele>87.0</ele><time>2026-04-19T06:45:38Z</time></trkpt><trkpt lat="45.31108357756375" lon="9.21984857915631"><ele>87.0</ele><time>2026-04-19T06:45:40Z</time></trkpt><trkpt lat="45.311042111176945" lon="9.21969284948254"><ele>87.39999999999999</ele><time>2026-04-19T06:45:42Z</time></trkpt><trkpt lat="45.31101877657225" lon="9.219537576836181"><ele>87.8</ele><time>2026-04-19T06:45:44Z</time></trkpt><trkpt lat="45.31099073894232" lon="9.219400117448334"><ele>88.2</ele><time>2026-04-19T06:45:46Z</time></trkpt><trkpt lat="45.31097293683507" lon="9.219274207421263"><ele>88.6</ele><time>2026-04-19T06:45:48Z</time></trkpt><trkpt lat="45.31096153792542" lon="9.21916129680953"><ele>89.0</ele><time>2026-04-19T06:45:51Z</time></trkpt><trkpt lat="45.31103579173221" lon="9.219116249327056"><ele>89.0</ele><time>2026-04-19T06:45:55Z</time></trkpt><trkpt lat="45.3111175455039" lon="9.219091604883037"><ele>89.0</ele><time>2026-04-19T06:45:57Z</time></trkpt><trkpt lat="45.311201913913465" lon="9.219077957277392"><ele>89.0</ele><time>2026-04-19T06:45:59Z</time></trkpt><trkpt lat="45.31127319452398" lon="9.219050592889316"><ele>89.0</ele><time>2026-04-19T06:46:01Z</time></trkpt><trkpt lat="45.311355719641114" lon="9.219022447799981"><ele>89.0</ele><time>2026-04-19T06:46:03Z</time></trkpt><trkpt lat="45.311425480270955" lon="9.218996339805654"><ele>89.0</ele><time>2026-04-19T06:46:05Z</time></trkpt><trkpt lat="45.31149906958208" lon="9.218969093696959"><ele>89.16666666666667</ele><time>2026-04-19T06:46:07Z</time></trkpt><trkpt lat="45.311578874464885" lon="9.218949468428592"><ele>89.33333333333334</ele><time>2026-04-19T06:46:09Z</time></trkpt><trkpt lat="45.311653392335934" lon="9.218907456153094"><ele>89.5</ele><time>2026-04-19T06:46:11Z</time></trkpt><trkpt lat="45.31174499821131" lon="9.218887481807148"><ele>89.66666666666667</ele><time>2026-04-19T06:46:13Z</time></trkpt><trkpt lat="45.31181963906833" lon="9.21886811967035"><ele>89.83333333333333</ele><time>2026-04-19T06:46:15Z</time></trkpt><trkpt lat="45.31190002376837" lon="9.218843589097263"><ele>90.0</ele><time>2026-04-19T06:46:18Z</time></trkpt><trkpt lat="45.31197806063348" lon="9.21882559700555"><ele>90.0</ele><time>2026-04-19T06:46:20Z</time></trkpt><trkpt lat="45.31205903009303" lon="9.218797769911886"><ele>90.0</ele><time>2026-04-19T06:46:22Z</time></trkpt><trkpt lat="45.31212646730251" lon="9.218780924672625"><ele>90.0</ele><time>2026-04-19T06:46:24Z</time></trkpt><trkpt lat="45.312205598394264" lon="9.218750479739812"><ele>90.0</ele><time>2026-04-19T06:46:26Z</time></trkpt><trkpt lat="45.312290992072455" lon="9.218715508944165"><ele>90.0</ele><time>2026-04-19T06:46:28Z</time></trkpt><trkpt lat="45.31236104663405" lon="9.218642036513787"><ele>90.0</ele><time>2026-04-19T06:46:30Z</time></trkpt><trkpt lat="45.312437205393934" lon="9.218554638781406"><ele>89.8</ele><time>2026-04-19T06:46:32Z</time></trkpt><trkpt lat="45.31251177675838" lon="9.218466430850818"><ele>89.6</ele><time>2026-04-19T06:46:34Z</time></trkpt><trkpt lat="45.31258130113689" lon="9.218369225280028"><ele>89.4</ele><time>2026-04-19T06:46:36Z</time></trkpt><trkpt lat="45.312666795643345" lon="9.218297870831472"><ele>89.2</ele><time>2026-04-19T06:46:38Z</time></trkpt><trkpt lat="45.31274905318356" lon="9.218227057529335"><ele>89.0</ele><time>2026-04-19T06:46:40Z</time></trkpt><trkpt lat="45.312834320048225" lon="9.21815767168255"><ele>89.0</ele><time>2026-04-19T06:46:42Z</time></trkpt><trkpt lat="45.31292345912714" lon="9.218105247580473"><ele>89.0</ele><time>2026-04-19T06:46:44Z</time></trkpt><trkpt lat="45.313010299693836" lon="9.21806155003107"><ele>89.0</ele><time>2026-04-19T06:46:46Z</time></trkpt><trkpt lat="45.31310250134013" lon="9.218027200434483"><ele>89.0</ele><time>2026-04-19T06:46:48Z</time></trkpt><trkpt lat="45.31319629974901" lon="9.217996233125717"><ele>89.0</ele><time>2026-04-19T06:46:50Z</time></trkpt><trkpt lat="45.31329049832749" lon="9.21797234993357"><ele>88.80000000000001</ele><time>2026-04-19T06:46:52Z</time></trkpt><trkpt lat="45.31337596266785" lon="9.217953001086666"><ele>88.60000000000001</ele><time>2026-04-19T06:46:54Z</time></trkpt><trkpt lat="45.31345942925591" lon="9.217924800569838"><ele>88.4</ele><time>2026-04-19T06:46:56Z</time></trkpt><trkpt lat="45.31354128918475" lon="9.217908847649502"><ele>88.2</ele><time>2026-04-19T06:46:58Z</time></trkpt><trkpt lat="45.313644084429534" lon="9.217866368034372"><ele>88.0</ele><time>2026-04-19T06:47:00Z</time></trkpt><trkpt lat="45.313725682888645" lon="9.217819599807726"><ele>88.0</ele><time>2026-04-19T06:47:02Z</time></trkpt><trkpt lat="45.3138073833354" lon="9.217763205394254"><ele>88.0</ele><time>2026-04-19T06:47:04Z</time></trkpt><trkpt lat="45.31390019936339" lon="9.217740887661368"><ele>88.0</ele><time>2026-04-19T06:47:06Z</time></trkpt><trkpt lat="45.31396064352846" lon="9.217834340956696"><ele>88.0</ele><time>2026-04-19T06:47:08Z</time></trkpt><trkpt lat="45.313988134320596" lon="9.217963932038865"><ele>88.0</ele><time>2026-04-19T06:47:10Z</time></trkpt><trkpt lat="45.31399148299119" lon="9.218105724741191"><ele>88.0</ele><time>2026-04-19T06:47:12Z</time></trkpt><trkpt lat="45.31400367836147" lon="9.218254021493294"><ele>88.0</ele><time>2026-04-19T06:47:14Z</time></trkpt><trkpt lat="45.314014914244325" lon="9.218397320272967"><ele>88.0</ele><time>2026-04-19T06:47:16Z</time></trkpt><trkpt lat="45.31403749462848" lon="9.218537073785281"><ele>88.0</ele><time>2026-04-19T06:47:18Z</time></trkpt><trkpt lat="45.31406035580258" lon="9.218637011602663"><ele>88.0</ele><time>2026-04-19T06:47:20Z</time></trkpt><trkpt lat="45.31414472361917" lon="9.218649172427341"><ele>88.0</ele><time>2026-04-19T06:47:22Z</time></trkpt><trkpt lat="45.31423368435093" lon="9.218619564649638"><ele>88.0</ele><time>2026-04-19T06:47:24Z</time></trkpt><trkpt lat="45.31430929444069" lon="9.218588059680169"><ele>88.0</ele><time>2026-04-19T06:47:26Z</time></trkpt><trkpt lat="45.31438881044157" lon="9.218553013795594"><ele>88.0</ele><time>2026-04-19T06:47:28Z</time></trkpt><trkpt lat="45.31448016543048" lon="9.218516415163878"><ele>88.0</ele><time>2026-04-19T06:47:30Z</time></trkpt><trkpt lat="45.314580391547146" lon="9.218485178016167"><ele>88.0</ele><time>2026-04-19T06:47:32Z</time></trkpt><trkpt lat="45.314681544663635" lon="9.21845412942309"><ele>88.0</ele><time>2026-04-19T06:47:34Z</time></trkpt><trkpt lat="45.314763406993464" lon="9.218417660723347"><ele>88.0</ele><time>2026-04-19T06:47:36Z</time></trkpt><trkpt lat="45.31485676263323" lon="9.218395334088216"><ele>88.0</ele><time>2026-04-19T06:47:38Z</time></trkpt><trkpt lat="45.31494690850725" lon="9.218366567177595"><ele>88.0</ele><time>2026-04-19T06:47:40Z</time></trkpt><trkpt lat="45.315046467011385" lon="9.218341472854586"><ele>88.0</ele><time>2026-04-19T06:47:42Z</time></trkpt><trkpt lat="45.31515726570533" lon="9.218307166702116"><ele>88.0</ele><time>2026-04-19T06:47:44Z</time></trkpt><trkpt lat="45.31524929229155" lon="9.218277554112413"><ele>88.0</ele><time>2026-04-19T06:47:46Z</time></trkpt><trkpt lat="45.315353749721076" lon="9.218237889649844"><ele>88.0</ele><time>2026-04-19T06:47:48Z</time></trkpt><trkpt lat="45.31544924833889" lon="9.218200823817453"><ele>88.0</ele><time>2026-04-19T06:47:50Z</time></trkpt><trkpt lat="45.31555398296942" lon="9.218167253764493"><ele>88.2</ele><time>2026-04-19T06:47:52Z</time></trkpt><trkpt lat="45.31565671623731" lon="9.218130198894253"><ele>88.4</ele><time>2026-04-19T06:47:54Z</time></trkpt><trkpt lat="45.315766140681205" lon="9.218091008927756"><ele>88.60000000000001</ele><time>2026-04-19T06:47:56Z</time></trkpt><trkpt lat="45.315832918888994" lon="9.218098028666049"><ele>88.80000000000001</ele><time>2026-04-19T06:47:58Z</time></trkpt><trkpt lat="45.31586217812153" lon="9.218208784504911"><ele>89.0</ele><time>2026-04-19T06:48:00Z</time></trkpt><trkpt lat="45.31588328992381" lon="9.21834091272203"><ele>89.0</ele><time>2026-04-19T06:48:02Z</time></trkpt><trkpt lat="45.315904065008674" lon="9.21845157420944"><ele>89.0</ele><time>2026-04-19T06:48:04Z</time></trkpt><trkpt lat="45.31594158255012" lon="9.218553989447463"><ele>89.0</ele><time>2026-04-19T06:48:06Z</time></trkpt><trkpt lat="45.316029727300126" lon="9.218564080973369"><ele>89.0</ele><time>2026-04-19T06:48:09Z</time></trkpt><trkpt lat="45.316112860605415" lon="9.218526780318586"><ele>89.0</ele><time>2026-04-19T06:48:11Z</time></trkpt><trkpt lat="45.31620778344891" lon="9.218491578211388"><ele>89.0</ele><time>2026-04-19T06:48:13Z</time></trkpt><trkpt lat="45.31630732740456" lon="9.218441890937648"><ele>89.16666666666667</ele><time>2026-04-19T06:48:15Z</time></trkpt><trkpt lat="45.31640382199181" lon="9.218397305505148"><ele>89.33333333333334</ele><time>2026-04-19T06:48:17Z</time></trkpt><trkpt lat="45.316518441744265" lon="9.21833980107368"><ele>89.5</ele><time>2026-04-19T06:48:19Z</time></trkpt><trkpt lat="45.31658906077872" lon="9.218313866376675"><ele>89.66666666666667</ele><time>2026-04-19T06:48:20Z</time></trkpt><trkpt lat="45.31665647980725" lon="9.2182878641211"><ele>89.83333333333333</ele><time>2026-04-19T06:48:21Z</time></trkpt><trkpt lat="45.316718267853716" lon="9.218261090180155"><ele>90.0</ele><time>2026-04-19T06:48:22Z</time></trkpt><trkpt lat="45.3168363219183" lon="9.218211199419517"><ele>90.0</ele><time>2026-04-19T06:48:24Z</time></trkpt><trkpt lat="45.316955089172204" lon="9.218167502229857"><ele>90.0</ele><time>2026-04-19T06:48:26Z</time></trkpt><trkpt lat="45.317062545712986" lon="9.218133427882185"><ele>90.0</ele><time>2026-04-19T06:48:28Z</time></trkpt><trkpt lat="45.31716700652329" lon="9.218106470975156"><ele>90.0</ele><time>2026-04-19T06:48:30Z</time></trkpt><trkpt lat="45.31723910339775" lon="9.217986970430747"><ele>89.8</ele><time>2026-04-19T06:48:32Z</time></trkpt><trkpt lat="45.317225536766074" lon="9.217898978311865"><ele>89.6</ele><time>2026-04-19T06:48:33Z</time></trkpt><trkpt lat="45.31722183966557" lon="9.217752254477727"><ele>89.4</ele><time>2026-04-19T06:48:35Z</time></trkpt><trkpt lat="45.31731131043339" lon="9.217679635159"><ele>89.2</ele><time>2026-04-19T06:48:37Z</time></trkpt><trkpt lat="45.317404555496175" lon="9.217635689278554"><ele>89.0</ele><time>2026-04-19T06:48:39Z</time></trkpt><trkpt lat="45.317487691164935" lon="9.217595634020961"><ele>88.80000000000001</ele><time>2026-04-19T06:48:41Z</time></trkpt><trkpt lat="45.31757991753565" lon="9.217568161763399"><ele>88.60000000000001</ele><time>2026-04-19T06:48:43Z</time></trkpt><trkpt lat="45.31768578233891" lon="9.217511076254368"><ele>88.4</ele><time>2026-04-19T06:48:45Z</time></trkpt><trkpt lat="45.31778412795808" lon="9.217466603104603"><ele>88.2</ele><time>2026-04-19T06:48:47Z</time></trkpt><trkpt lat="45.31788362333028" lon="9.217420486000666"><ele>88.0</ele><time>2026-04-19T06:48:49Z</time></trkpt><trkpt lat="45.31798353186933" lon="9.217376139214615"><ele>88.60000000000001</ele><time>2026-04-19T06:48:51Z</time></trkpt><trkpt lat="45.31808240523071" lon="9.217329512150917"><ele>89.2</ele><time>2026-04-19T06:48:53Z</time></trkpt><trkpt lat="45.31817761043001" lon="9.217298395233522"><ele>89.8</ele><time>2026-04-19T06:48:55Z</time></trkpt><trkpt lat="45.31826216464323" lon="9.21727847661678"><ele>90.4</ele><time>2026-04-19T06:48:57Z</time></trkpt><trkpt lat="45.318302761948694" lon="9.217192913274806"><ele>91.0</ele><time>2026-04-19T06:48:59Z</time></trkpt><trkpt lat="45.31828425231077" lon="9.21706434255579"><ele>91.0</ele><time>2026-04-19T06:49:01Z</time></trkpt><trkpt lat="45.31834585406949" lon="9.216937363465"><ele>91.0</ele><time>2026-04-19T06:49:03Z</time></trkpt><trkpt lat="45.31845026529846" lon="9.216871054206171"><ele>91.0</ele><time>2026-04-19T06:49:05Z</time></trkpt><trkpt lat="45.31855269674699" lon="9.2168268021909"><ele>91.0</ele><time>2026-04-19T06:49:07Z</time></trkpt><trkpt lat="45.318648207581305" lon="9.216790818388555"><ele>91.0</ele><time>2026-04-19T06:49:09Z</time></trkpt><trkpt lat="45.31874411557069" lon="9.216745744821822"><ele>91.0</ele><time>2026-04-19T06:49:11Z</time></trkpt><trkpt lat="45.318836711875086" lon="9.21670604515344"><ele>91.0</ele><time>2026-04-19T06:49:13Z</time></trkpt><trkpt lat="45.31893231871628" lon="9.21665751254441"><ele>91.0</ele><time>2026-04-19T06:49:15Z</time></trkpt><trkpt lat="45.31902154915774" lon="9.216620740563423"><ele>91.0</ele><time>2026-04-19T06:49:17Z</time></trkpt><trkpt lat="45.31909645683934" lon="9.216559579249129"><ele>91.0</ele><time>2026-04-19T06:49:19Z</time></trkpt><trkpt lat="45.31912573935322" lon="9.216433499480807"><ele>90.5</ele><time>2026-04-19T06:49:21Z</time></trkpt><trkpt lat="45.31911179859531" lon="9.216290969289204"><ele>90.0</ele><time>2026-04-19T06:49:23Z</time></trkpt><trkpt lat="45.31908582859007" lon="9.216178674263242"><ele>89.5</ele><time>2026-04-19T06:49:25Z</time></trkpt><trkpt lat="45.31904635896666" lon="9.216074054509694"><ele>89.0</ele><time>2026-04-19T06:49:27Z</time></trkpt><trkpt lat="45.319019071826396" lon="9.215959905583999"><ele>88.5</ele><time>2026-04-19T06:49:29Z</time></trkpt><trkpt lat="45.318988850279105" lon="9.215837643902349"><ele>88.0</ele><time>2026-04-19T06:49:31Z</time></trkpt><trkpt lat="45.31896471442972" lon="9.2157094606852"><ele>88.2</ele><time>2026-04-19T06:49:33Z</time></trkpt><trkpt lat="45.31893521132954" lon="9.215565176567779"><ele>88.4</ele><time>2026-04-19T06:49:35Z</time></trkpt><trkpt lat="45.318906002891644" lon="9.215441041154703"><ele>88.60000000000001</ele><time>2026-04-19T06:49:37Z</time></trkpt><trkpt lat="45.31888590241902" lon="9.215316432350367"><ele>88.80000000000001</ele><time>2026-04-19T06:49:39Z</time></trkpt><trkpt lat="45.31886099729541" lon="9.215201304633188"><ele>89.0</ele><time>2026-04-19T06:49:41Z</time></trkpt><trkpt lat="45.31883928956469" lon="9.215080310017887"><ele>89.0</ele><time>2026-04-19T06:49:43Z</time></trkpt><trkpt lat="45.31880918944914" lon="9.214954299251442"><ele>89.0</ele><time>2026-04-19T06:49:45Z</time></trkpt><trkpt lat="45.318779074376515" lon="9.214810285648374"><ele>89.0</ele><time>2026-04-19T06:49:47Z</time></trkpt><trkpt lat="45.318760160141906" lon="9.214679526016363"><ele>89.0</ele><time>2026-04-19T06:49:49Z</time></trkpt><trkpt lat="45.31873301505897" lon="9.21455381001839"><ele>89.0</ele><time>2026-04-19T06:49:51Z</time></trkpt><trkpt lat="45.31870743644326" lon="9.21442596274274"><ele>89.0</ele><time>2026-04-19T06:49:53Z</time></trkpt><trkpt lat="45.318690302561855" lon="9.214267798114388"><ele>89.0</ele><time>2026-04-19T06:49:55Z</time></trkpt><trkpt lat="45.31865868553373" lon="9.214106508996037"><ele>89.0</ele><time>2026-04-19T06:49:57Z</time></trkpt><trkpt lat="45.31863287991619" lon="9.213950314448725"><ele>89.0</ele><time>2026-04-19T06:49:59Z</time></trkpt><trkpt lat="45.318596106387155" lon="9.21379898882958"><ele>89.0</ele><time>2026-04-19T06:50:01Z</time></trkpt><trkpt lat="45.31858023516981" lon="9.213639153334379"><ele>89.0</ele><time>2026-04-19T06:50:03Z</time></trkpt><trkpt lat="45.31854522997533" lon="9.213489430963342"><ele>89.0</ele><time>2026-04-19T06:50:05Z</time></trkpt><trkpt lat="45.31852253718877" lon="9.213342404484193"><ele>89.0</ele><time>2026-04-19T06:50:07Z</time></trkpt><trkpt lat="45.31848558564316" lon="9.21319640192508"><ele>89.0</ele><time>2026-04-19T06:50:09Z</time></trkpt><trkpt lat="45.318461005571834" lon="9.21305258828162"><ele>89.2</ele><time>2026-04-19T06:50:11Z</time></trkpt><trkpt lat="45.31843598239345" lon="9.212906448242585"><ele>89.4</ele><time>2026-04-19T06:50:13Z</time></trkpt><trkpt lat="45.31840567600557" lon="9.212768661517256"><ele>89.6</ele><time>2026-04-19T06:50:15Z</time></trkpt><trkpt lat="45.318382088303814" lon="9.212620291188696"><ele>89.8</ele><time>2026-04-19T06:50:17Z</time></trkpt><trkpt lat="45.318339034092666" lon="9.212480814935859"><ele>90.0</ele><time>2026-04-19T06:50:19Z</time></trkpt><trkpt lat="45.31831678596981" lon="9.212339591894692"><ele>90.2</ele><time>2026-04-19T06:50:21Z</time></trkpt><trkpt lat="45.318283889865" lon="9.212190576177829"><ele>90.4</ele><time>2026-04-19T06:50:23Z</time></trkpt><trkpt lat="45.31825333102246" lon="9.21204008560519"><ele>90.6</ele><time>2026-04-19T06:50:25Z</time></trkpt><trkpt lat="45.318225672737825" lon="9.211890055012846"><ele>90.8</ele><time>2026-04-19T06:50:27Z</time></trkpt><trkpt lat="45.3181948314017" lon="9.211742114741112"><ele>91.0</ele><time>2026-04-19T06:50:29Z</time></trkpt><trkpt lat="45.31816743785484" lon="9.211594507249501"><ele>90.8</ele><time>2026-04-19T06:50:31Z</time></trkpt><trkpt lat="45.31815499417265" lon="9.211440730183334"><ele>90.6</ele><time>2026-04-19T06:50:33Z</time></trkpt><trkpt lat="45.3181161929069" lon="9.211301132897034"><ele>90.4</ele><time>2026-04-19T06:50:35Z</time></trkpt><trkpt lat="45.31808160320695" lon="9.211166255620574"><ele>90.2</ele><time>2026-04-19T06:50:37Z</time></trkpt><trkpt lat="45.318048141828505" lon="9.21102518827614"><ele>90.0</ele><time>2026-04-19T06:50:39Z</time></trkpt><trkpt lat="45.318005597464214" lon="9.210893751058288"><ele>90.4</ele><time>2026-04-19T06:50:41Z</time></trkpt><trkpt lat="45.317956897049235" lon="9.210772231547523"><ele>90.8</ele><time>2026-04-19T06:50:43Z</time></trkpt><trkpt lat="45.31792333178575" lon="9.210645674308841"><ele>91.19999999999999</ele><time>2026-04-19T06:50:45Z</time></trkpt><trkpt lat="45.317883816106324" lon="9.210515758013493"><ele>91.6</ele><time>2026-04-19T06:50:47Z</time></trkpt><trkpt lat="45.317848818817986" lon="9.210386724444716"><ele>92.0</ele><time>2026-04-19T06:50:49Z</time></trkpt><trkpt lat="45.31780492358428" lon="9.210260793367851"><ele>92.0</ele><time>2026-04-19T06:50:51Z</time></trkpt><trkpt lat="45.31776951280776" lon="9.210133698494095"><ele>92.0</ele><time>2026-04-19T06:50:53Z</time></trkpt><trkpt lat="45.31773602448584" lon="9.210007459693893"><ele>92.0</ele><time>2026-04-19T06:50:55Z</time></trkpt><trkpt lat="45.317693681056" lon="9.2098845645712"><ele>92.0</ele><time>2026-04-19T06:50:57Z</time></trkpt><trkpt lat="45.317657550363066" lon="9.20976338706352"><ele>92.0</ele><time>2026-04-19T06:50:59Z</time></trkpt><trkpt lat="45.317624333657704" lon="9.209639895368005"><ele>92.0</ele><time>2026-04-19T06:51:01Z</time></trkpt><trkpt lat="45.317597059380404" lon="9.209515711081975"><ele>92.0</ele><time>2026-04-19T06:51:03Z</time></trkpt><trkpt lat="45.317583257883825" lon="9.209379774019679"><ele>92.0</ele><time>2026-04-19T06:51:05Z</time></trkpt><trkpt lat="45.31756028474031" lon="9.20924205663372"><ele>92.0</ele><time>2026-04-19T06:51:07Z</time></trkpt><trkpt lat="45.31753044798095" lon="9.209111016452729"><ele>92.0</ele><time>2026-04-19T06:51:09Z</time></trkpt><trkpt lat="45.31749789973828" lon="9.208982672533947"><ele>91.6</ele><time>2026-04-19T06:51:11Z</time></trkpt><trkpt lat="45.31746574898472" lon="9.208846823017018"><ele>91.19999999999999</ele><time>2026-04-19T06:51:13Z</time></trkpt><trkpt lat="45.31743533821056" lon="9.208703038189864"><ele>90.8</ele><time>2026-04-19T06:51:15Z</time></trkpt><trkpt lat="45.317404461976466" lon="9.20856155748483"><ele>90.4</ele><time>2026-04-19T06:51:17Z</time></trkpt><trkpt lat="45.31736858242338" lon="9.208417674791201"><ele>90.0</ele><time>2026-04-19T06:51:19Z</time></trkpt><trkpt lat="45.31730420616431" lon="9.208291802079835"><ele>90.0</ele><time>2026-04-19T06:51:21Z</time></trkpt><trkpt lat="45.31723881831265" lon="9.208166450511824"><ele>90.0</ele><time>2026-04-19T06:51:23Z</time></trkpt><trkpt lat="45.31717805915941" lon="9.208033714467962"><ele>90.0</ele><time>2026-04-19T06:51:25Z</time></trkpt><trkpt lat="45.317123814246834" lon="9.207894813308007"><ele>90.0</ele><time>2026-04-19T06:51:27Z</time></trkpt><trkpt lat="45.31707924531524" lon="9.207748868428144"><ele>90.0</ele><time>2026-04-19T06:51:29Z</time></trkpt><trkpt lat="45.31705001155582" lon="9.207591188922132"><ele>90.0</ele><time>2026-04-19T06:51:31Z</time></trkpt><trkpt lat="45.317019773037956" lon="9.207443531484756"><ele>90.0</ele><time>2026-04-19T06:51:33Z</time></trkpt><trkpt lat="45.31699330435332" lon="9.207300502205774"><ele>90.0</ele><time>2026-04-19T06:51:35Z</time></trkpt><trkpt lat="45.316967698098175" lon="9.207189264694346"><ele>90.0</ele><time>2026-04-19T06:51:37Z</time></trkpt><trkpt lat="45.31694551737012" lon="9.207092426556697"><ele>90.0</ele><time>2026-04-19T06:51:38Z</time></trkpt><trkpt lat="45.31691276165914" lon="9.206932828613132"><ele>90.0</ele><time>2026-04-19T06:51:40Z</time></trkpt><trkpt lat="45.31687139780151" lon="9.206776901429349"><ele>90.0</ele><time>2026-04-19T06:51:42Z</time></trkpt><trkpt lat="45.316819052113445" lon="9.206633496266221"><ele>90.0</ele><time>2026-04-19T06:51:44Z</time></trkpt><trkpt lat="45.316768366830495" lon="9.206482642712867"><ele>90.0</ele><time>2026-04-19T06:51:46Z</time></trkpt><trkpt lat="45.31673752397629" lon="9.206322947913959"><ele>90.0</ele><time>2026-04-19T06:51:48Z</time></trkpt><trkpt lat="45.31671482773113" lon="9.206174638687962"><ele>90.0</ele><time>2026-04-19T06:51:50Z</time></trkpt><trkpt lat="45.31667759207018" lon="9.206036309526313"><ele>90.0</ele><time>2026-04-19T06:51:52Z</time></trkpt><trkpt lat="45.31663724273485" lon="9.205886015366996"><ele>90.0</ele><time>2026-04-19T06:51:54Z</time></trkpt><trkpt lat="45.31659917975395" lon="9.205747214571433"><ele>90.0</ele><time>2026-04-19T06:51:56Z</time></trkpt><trkpt lat="45.31657580689288" lon="9.205617199638741"><ele>90.0</ele><time>2026-04-19T06:51:58Z</time></trkpt><trkpt lat="45.31655514312976" lon="9.205515556076316"><ele>90.0</ele><time>2026-04-19T06:52:00Z</time></trkpt><trkpt lat="45.31653861250344" lon="9.20540663630474"><ele>90.0</ele><time>2026-04-19T06:52:03Z</time></trkpt><trkpt lat="45.31651034328181" lon="9.205283903235266"><ele>90.0</ele><time>2026-04-19T06:52:19Z</time></trkpt><trkpt lat="45.316467772544755" lon="9.205152427357897"><ele>90.0</ele><time>2026-04-19T06:52:22Z</time></trkpt><trkpt lat="45.31643772280069" lon="9.205025920337006"><ele>90.0</ele><time>2026-04-19T06:52:24Z</time></trkpt><trkpt lat="45.31642043205295" lon="9.204883151133068"><ele>90.2</ele><time>2026-04-19T06:52:26Z</time></trkpt><trkpt lat="45.31638489016002" lon="9.204744436522526"><ele>90.4</ele><time>2026-04-19T06:52:28Z</time></trkpt><trkpt lat="45.31634384183176" lon="9.204618574882167"><ele>90.6</ele><time>2026-04-19T06:52:30Z</time></trkpt><trkpt lat="45.31631924901521" lon="9.204485182069185"><ele>90.8</ele><time>2026-04-19T06:52:32Z</time></trkpt><trkpt lat="45.316288084923045" lon="9.204356053950637"><ele>91.0</ele><time>2026-04-19T06:52:34Z</time></trkpt><trkpt lat="45.31625842808598" lon="9.204216917226757"><ele>91.0</ele><time>2026-04-19T06:52:36Z</time></trkpt><trkpt lat="45.3162279561461" lon="9.204070972998462"><ele>91.0</ele><time>2026-04-19T06:52:38Z</time></trkpt><trkpt lat="45.31619737263947" lon="9.203909092198659"><ele>91.0</ele><time>2026-04-19T06:52:40Z</time></trkpt><trkpt lat="45.31617601598993" lon="9.203822845364266"><ele>91.0</ele><time>2026-04-19T06:52:41Z</time></trkpt><trkpt lat="45.31615505843816" lon="9.203728251603842"><ele>91.0</ele><time>2026-04-19T06:52:42Z</time></trkpt><trkpt lat="45.316133816192675" lon="9.20363990558995"><ele>91.0</ele><time>2026-04-19T06:52:43Z</time></trkpt><trkpt lat="45.31611339878023" lon="9.203543286764885"><ele>90.8</ele><time>2026-04-19T06:52:44Z</time></trkpt><trkpt lat="45.31609144652155" lon="9.203453947281892"><ele>90.6</ele><time>2026-04-19T06:52:45Z</time></trkpt><trkpt lat="45.31604982356731" lon="9.203295901004322"><ele>90.4</ele><time>2026-04-19T06:52:47Z</time></trkpt><trkpt lat="45.316008155150485" lon="9.203153692945952"><ele>90.2</ele><time>2026-04-19T06:52:49Z</time></trkpt><trkpt lat="45.31598056886048" lon="9.203044007070668"><ele>90.0</ele><time>2026-04-19T06:52:51Z</time></trkpt><trkpt lat="45.31600327208974" lon="9.202922171259708"><ele>90.0</ele><time>2026-04-19T06:52:54Z</time></trkpt><trkpt lat="45.31609144150668" lon="9.202822356264967"><ele>90.0</ele><time>2026-04-19T06:52:56Z</time></trkpt><trkpt lat="45.31615685345284" lon="9.202705451533399"><ele>90.0</ele><time>2026-04-19T06:52:58Z</time></trkpt><trkpt lat="45.316224581202185" lon="9.20257970204493"><ele>90.0</ele><time>2026-04-19T06:53:00Z</time></trkpt><trkpt lat="45.31630359523454" lon="9.202459646828604"><ele>90.0</ele><time>2026-04-19T06:53:02Z</time></trkpt><trkpt lat="45.31638149105601" lon="9.202328694484045"><ele>90.0</ele><time>2026-04-19T06:53:04Z</time></trkpt><trkpt lat="45.31646969017954" lon="9.202221718608701"><ele>90.0</ele><time>2026-04-19T06:53:06Z</time></trkpt><trkpt lat="45.31656393287907" lon="9.202130904558528"><ele>90.0</ele><time>2026-04-19T06:53:08Z</time></trkpt><trkpt lat="45.31666488714885" lon="9.20206788215859"><ele>90.0</ele><time>2026-04-19T06:53:10Z</time></trkpt><trkpt lat="45.31663978128214" lon="9.201952818625486"><ele>90.0</ele><time>2026-04-19T06:53:17Z</time></trkpt><trkpt lat="45.316599027418015" lon="9.201821884036185"><ele>90.0</ele><time>2026-04-19T06:53:20Z</time></trkpt><trkpt lat="45.31658559867117" lon="9.201703970920835"><ele>90.0</ele><time>2026-04-19T06:53:22Z</time></trkpt><trkpt lat="45.31657789280359" lon="9.20159353071747"><ele>90.0</ele><time>2026-04-19T06:53:24Z</time></trkpt><trkpt lat="45.3165756367125" lon="9.201477555797114"><ele>90.0</ele><time>2026-04-19T06:53:26Z</time></trkpt><trkpt lat="45.31655709170033" lon="9.201359420865062"><ele>90.0</ele><time>2026-04-19T06:53:28Z</time></trkpt><trkpt lat="45.31655052836832" lon="9.201244795358313"><ele>90.0</ele><time>2026-04-19T06:53:30Z</time></trkpt><trkpt lat="45.31651861883956" lon="9.201131918985338"><ele>90.0</ele><time>2026-04-19T06:53:32Z</time></trkpt><trkpt lat="45.31650079935978" lon="9.201014888077724"><ele>90.0</ele><time>2026-04-19T06:53:34Z</time></trkpt><trkpt lat="45.31651617421548" lon="9.200915510789489"><ele>90.0</ele><time>2026-04-19T06:53:36Z</time></trkpt><trkpt lat="45.316580264131915" lon="9.20089711455249"><ele>90.0</ele><time>2026-04-19T06:53:38Z</time></trkpt><trkpt lat="45.31667450729684" lon="9.200849470756028"><ele>90.0</ele><time>2026-04-19T06:53:41Z</time></trkpt><trkpt lat="45.31675001588618" lon="9.20079643891058"><ele>90.0</ele><time>2026-04-19T06:53:43Z</time></trkpt><trkpt lat="45.31682414109443" lon="9.200847338066898"><ele>90.0</ele><time>2026-04-19T06:53:45Z</time></trkpt><trkpt lat="45.316848330373595" lon="9.20097865955351"><ele>90.0</ele><time>2026-04-19T06:53:47Z</time></trkpt><trkpt lat="45.316878290349514" lon="9.201104235091357"><ele>90.0</ele><time>2026-04-19T06:53:49Z</time></trkpt><trkpt lat="45.31691778647725" lon="9.201226815129104"><ele>90.0</ele><time>2026-04-19T06:53:51Z</time></trkpt><trkpt lat="45.31696206448132" lon="9.20135293899331"><ele>90.0</ele><time>2026-04-19T06:53:53Z</time></trkpt><trkpt lat="45.316996771306364" lon="9.201477562538088"><ele>90.0</ele><time>2026-04-19T06:53:55Z</time></trkpt><trkpt lat="45.31703100812477" lon="9.201592928128008"><ele>90.0</ele><time>2026-04-19T06:53:57Z</time></trkpt><trkpt lat="45.31706195631379" lon="9.201688616898759"><ele>90.0</ele><time>2026-04-19T06:53:59Z</time></trkpt><trkpt lat="45.3171430345073" lon="9.201759517912855"><ele>90.0</ele><time>2026-04-19T06:54:02Z</time></trkpt><trkpt lat="45.31722252322772" lon="9.201729331242026"><ele>90.0</ele><time>2026-04-19T06:54:04Z</time></trkpt><trkpt lat="45.317298927500474" lon="9.201676941175354"><ele>90.0</ele><time>2026-04-19T06:54:06Z</time></trkpt><trkpt lat="45.317376851666495" lon="9.201624756860339"><ele>89.8</ele><time>2026-04-19T06:54:08Z</time></trkpt><trkpt lat="45.31745827126564" lon="9.201581799012239"><ele>89.6</ele><time>2026-04-19T06:54:10Z</time></trkpt><trkpt lat="45.317547205603724" lon="9.201523910104713"><ele>89.4</ele><time>2026-04-19T06:54:12Z</time></trkpt><trkpt lat="45.31764577764799" lon="9.201475381446954"><ele>89.2</ele><time>2026-04-19T06:54:14Z</time></trkpt><trkpt lat="45.31772810831473" lon="9.201412060960084"><ele>89.0</ele><time>2026-04-19T06:54:16Z</time></trkpt><trkpt lat="45.31780442320165" lon="9.201359003025365"><ele>89.0</ele><time>2026-04-19T06:54:19Z</time></trkpt><trkpt lat="45.317872412195285" lon="9.201315964698184"><ele>89.0</ele><time>2026-04-19T06:54:21Z</time></trkpt><trkpt lat="45.31794651918297" lon="9.201280762683057"><ele>89.0</ele><time>2026-04-19T06:54:23Z</time></trkpt><trkpt lat="45.31803303666486" lon="9.201225374099653"><ele>89.0</ele><time>2026-04-19T06:54:25Z</time></trkpt><trkpt lat="45.31808311165993" lon="9.20116895484111"><ele>89.0</ele><time>2026-04-19T06:54:28Z</time></trkpt><trkpt lat="45.31802405855767" lon="9.201062336720872"><ele>89.0</ele><time>2026-04-19T06:54:31Z</time></trkpt><trkpt lat="45.31799132006248" lon="9.200977427841936"><ele>88.85714285714285</ele><time>2026-04-19T06:54:33Z</time></trkpt><trkpt lat="45.31796686377917" lon="9.200892746237086"><ele>88.71428571428571</ele><time>2026-04-19T06:54:35Z</time></trkpt><trkpt lat="45.317937111363804" lon="9.20079827709017"><ele>88.57142857142857</ele><time>2026-04-19T06:54:37Z</time></trkpt><trkpt lat="45.31791801674495" lon="9.200690789099113"><ele>88.42857142857142</ele><time>2026-04-19T06:54:39Z</time></trkpt><trkpt lat="45.317910639330556" lon="9.200585483252683"><ele>88.28571428571428</ele><time>2026-04-19T06:54:41Z</time></trkpt><trkpt lat="45.317892302631385" lon="9.200486699536215"><ele>88.14285714285714</ele><time>2026-04-19T06:54:43Z</time></trkpt><trkpt lat="45.31787889136003" lon="9.200397425367758"><ele>88.0</ele><time>2026-04-19T06:54:45Z</time></trkpt><trkpt lat="45.317887380744644" lon="9.20029993696145"><ele>88.0</ele><time>2026-04-19T06:54:48Z</time></trkpt><trkpt lat="45.317878769045564" lon="9.200411638171822"><ele>88.0</ele><time>2026-04-19T06:54:54Z</time></trkpt><trkpt lat="45.317906068580825" lon="9.200512984494056"><ele>88.0</ele><time>2026-04-19T06:54:56Z</time></trkpt><trkpt lat="45.3179240997552" lon="9.200617077299329"><ele>88.0</ele><time>2026-04-19T06:54:58Z</time></trkpt><trkpt lat="45.31793655796993" lon="9.200718694320264"><ele>88.0</ele><time>2026-04-19T06:55:00Z</time></trkpt><trkpt lat="45.3179522799967" lon="9.200811282658165"><ele>88.0</ele><time>2026-04-19T06:55:02Z</time></trkpt><trkpt lat="45.317980071988266" lon="9.20093622513117"><ele>88.0</ele><time>2026-04-19T06:55:05Z</time></trkpt><trkpt lat="45.31800912015447" lon="9.201028885462431"><ele>88.0</ele><time>2026-04-19T06:55:07Z</time></trkpt><trkpt lat="45.318047874050315" lon="9.201124293944325"><ele>88.0</ele><time>2026-04-19T06:55:10Z</time></trkpt><trkpt lat="45.318122824987704" lon="9.201154419625036"><ele>88.0</ele><time>2026-04-19T06:55:15Z</time></trkpt><trkpt lat="45.31820401599672" lon="9.201111885854818"><ele>88.0</ele><time>2026-04-19T06:55:17Z</time></trkpt><trkpt lat="45.31827765769018" lon="9.201062492298222"><ele>88.0</ele><time>2026-04-19T06:55:19Z</time></trkpt><trkpt lat="45.318357935930834" lon="9.2010154459883"><ele>88.2</ele><time>2026-04-19T06:55:21Z</time></trkpt><trkpt lat="45.31843999331602" lon="9.200964934959496"><ele>88.4</ele><time>2026-04-19T06:55:23Z</time></trkpt><trkpt lat="45.31852088501781" lon="9.200906944127832"><ele>88.60000000000001</ele><time>2026-04-19T06:55:25Z</time></trkpt><trkpt lat="45.31860642464095" lon="9.200844435081967"><ele>88.80000000000001</ele><time>2026-04-19T06:55:27Z</time></trkpt><trkpt lat="45.318691554272235" lon="9.2007818576206"><ele>89.0</ele><time>2026-04-19T06:55:29Z</time></trkpt><trkpt lat="45.31876371147084" lon="9.20071170012701"><ele>89.0</ele><time>2026-04-19T06:55:31Z</time></trkpt><trkpt lat="45.318772655915915" lon="9.200615427884534"><ele>89.0</ele><time>2026-04-19T06:55:33Z</time></trkpt><trkpt lat="45.31873970930894" lon="9.200517591116437"><ele>89.0</ele><time>2026-04-19T06:55:35Z</time></trkpt><trkpt lat="45.318716417351936" lon="9.20039306701507"><ele>89.0</ele><time>2026-04-19T06:55:37Z</time></trkpt><trkpt lat="45.31870013466751" lon="9.200267957989299"><ele>89.0</ele><time>2026-04-19T06:55:39Z</time></trkpt><trkpt lat="45.318692192877776" lon="9.200136762238234"><ele>89.0</ele><time>2026-04-19T06:55:41Z</time></trkpt><trkpt lat="45.31867507097695" lon="9.199986704849655"><ele>88.80000000000001</ele><time>2026-04-19T06:55:43Z</time></trkpt><trkpt lat="45.31865467458661" lon="9.19982550774805"><ele>88.60000000000001</ele><time>2026-04-19T06:55:45Z</time></trkpt><trkpt lat="45.31861392007666" lon="9.199680793983669"><ele>88.4</ele><time>2026-04-19T06:55:47Z</time></trkpt><trkpt lat="45.31858140827756" lon="9.199530571212856"><ele>88.2</ele><time>2026-04-19T06:55:49Z</time></trkpt><trkpt lat="45.318553582156255" lon="9.199380455845022"><ele>88.0</ele><time>2026-04-19T06:55:51Z</time></trkpt><trkpt lat="45.31853141316247" lon="9.199233505785925"><ele>88.0</ele><time>2026-04-19T06:55:53Z</time></trkpt><trkpt lat="45.318505157906195" lon="9.199086477263515"><ele>88.0</ele><time>2026-04-19T06:55:55Z</time></trkpt><trkpt lat="45.318484273712244" lon="9.198937281558432"><ele>88.0</ele><time>2026-04-19T06:55:57Z</time></trkpt><trkpt lat="45.31847547571743" lon="9.198785085940743"><ele>88.0</ele><time>2026-04-19T06:55:59Z</time></trkpt><trkpt lat="45.31848904060894" lon="9.198637835883304"><ele>88.0</ele><time>2026-04-19T06:56:01Z</time></trkpt><trkpt lat="45.31850716842168" lon="9.198491621097313"><ele>88.0</ele><time>2026-04-19T06:56:03Z</time></trkpt><trkpt lat="45.318536142157576" lon="9.1983494266438"><ele>88.0</ele><time>2026-04-19T06:56:05Z</time></trkpt><trkpt lat="45.31856050870985" lon="9.198213330877586"><ele>88.0</ele><time>2026-04-19T06:56:07Z</time></trkpt><trkpt lat="45.31858385532434" lon="9.198065913706124"><ele>88.0</ele><time>2026-04-19T06:56:09Z</time></trkpt><trkpt lat="45.31864836976322" lon="9.197946000872076"><ele>88.0</ele><time>2026-04-19T06:56:11Z</time></trkpt><trkpt lat="45.318730418562104" lon="9.19785932951201"><ele>88.0</ele><time>2026-04-19T06:56:13Z</time></trkpt><trkpt lat="45.31876672189219" lon="9.197736497748698"><ele>88.0</ele><time>2026-04-19T06:56:15Z</time></trkpt><trkpt lat="45.31876681577587" lon="9.197583231259754"><ele>88.0</ele><time>2026-04-19T06:56:17Z</time></trkpt><trkpt lat="45.318806177741195" lon="9.197441105743266"><ele>88.0</ele><time>2026-04-19T06:56:19Z</time></trkpt><trkpt lat="45.31883313387179" lon="9.197296254411663"><ele>88.0</ele><time>2026-04-19T06:56:21Z</time></trkpt><trkpt lat="45.31885137034218" lon="9.19715857741253"><ele>88.0</ele><time>2026-04-19T06:56:23Z</time></trkpt><trkpt lat="45.31887129668476" lon="9.197014727589734"><ele>88.0</ele><time>2026-04-19T06:56:25Z</time></trkpt><trkpt lat="45.31887305505556" lon="9.196874433217543"><ele>88.0</ele><time>2026-04-19T06:56:27Z</time></trkpt><trkpt lat="45.3188664948499" lon="9.196730353220794"><ele>88.0</ele><time>2026-04-19T06:56:29Z</time></trkpt><trkpt lat="45.318859159978786" lon="9.19658231290195"><ele>88.0</ele><time>2026-04-19T06:56:31Z</time></trkpt><trkpt lat="45.31884323548411" lon="9.196437792953116"><ele>88.0</ele><time>2026-04-19T06:56:33Z</time></trkpt><trkpt lat="45.31882532013434" lon="9.196297347971312"><ele>88.0</ele><time>2026-04-19T06:56:35Z</time></trkpt><trkpt lat="45.31881000926361" lon="9.196153116858598"><ele>88.0</ele><time>2026-04-19T06:56:37Z</time></trkpt><trkpt lat="45.31880332158393" lon="9.196014182675738"><ele>88.0</ele><time>2026-04-19T06:56:39Z</time></trkpt><trkpt lat="45.31880225915032" lon="9.195879794220419"><ele>88.0</ele><time>2026-04-19T06:56:41Z</time></trkpt><trkpt lat="45.318819092506125" lon="9.19574173110866"><ele>88.2</ele><time>2026-04-19T06:56:43Z</time></trkpt><trkpt lat="45.3188353699734" lon="9.195606248821399"><ele>88.4</ele><time>2026-04-19T06:56:45Z</time></trkpt><trkpt lat="45.31885451337757" lon="9.1954671497681"><ele>88.60000000000001</ele><time>2026-04-19T06:56:47Z</time></trkpt><trkpt lat="45.31887250121071" lon="9.195328017586771"><ele>88.80000000000001</ele><time>2026-04-19T06:56:49Z</time></trkpt><trkpt lat="45.318887171615884" lon="9.195196229949264"><ele>89.0</ele><time>2026-04-19T06:56:51Z</time></trkpt><trkpt lat="45.31890783903414" lon="9.195067945804665"><ele>89.0</ele><time>2026-04-19T06:56:53Z</time></trkpt><trkpt lat="45.31892165760023" lon="9.194927075600992"><ele>89.0</ele><time>2026-04-19T06:56:55Z</time></trkpt><trkpt lat="45.318943625846764" lon="9.194785535582323"><ele>89.0</ele><time>2026-04-19T06:56:57Z</time></trkpt><trkpt lat="45.31895776115576" lon="9.19463957367978"><ele>89.0</ele><time>2026-04-19T06:56:59Z</time></trkpt><trkpt lat="45.31897242028553" lon="9.194495004324017"><ele>89.0</ele><time>2026-04-19T06:57:01Z</time></trkpt><trkpt lat="45.31899344323757" lon="9.194347743632585"><ele>89.0</ele><time>2026-04-19T06:57:03Z</time></trkpt><trkpt lat="45.319023290833925" lon="9.194201471906803"><ele>89.0</ele><time>2026-04-19T06:57:05Z</time></trkpt><trkpt lat="45.319044580516945" lon="9.19405251891209"><ele>89.0</ele><time>2026-04-19T06:57:07Z</time></trkpt><trkpt lat="45.319064324415315" lon="9.193904016997003"><ele>89.0</ele><time>2026-04-19T06:57:09Z</time></trkpt><trkpt lat="45.319081244603765" lon="9.193751935967592"><ele>89.0</ele><time>2026-04-19T06:57:11Z</time></trkpt><trkpt lat="45.319095732841795" lon="9.193603446793608"><ele>89.2</ele><time>2026-04-19T06:57:13Z</time></trkpt><trkpt lat="45.31911386314495" lon="9.193455460337072"><ele>89.4</ele><time>2026-04-19T06:57:15Z</time></trkpt><trkpt lat="45.319132151475564" lon="9.193308070071069"><ele>89.6</ele><time>2026-04-19T06:57:17Z</time></trkpt><trkpt lat="45.31915617033671" lon="9.193159788163216"><ele>89.8</ele><time>2026-04-19T06:57:19Z</time></trkpt><trkpt lat="45.319175837939135" lon="9.193009996564886"><ele>90.0</ele><time>2026-04-19T06:57:21Z</time></trkpt><trkpt lat="45.31920167773522" lon="9.19286333475873"><ele>90.0</ele><time>2026-04-19T06:57:23Z</time></trkpt><trkpt lat="45.31923052090697" lon="9.192714524778006"><ele>90.0</ele><time>2026-04-19T06:57:25Z</time></trkpt><trkpt lat="45.31925460953838" lon="9.19256667434041"><ele>90.0</ele><time>2026-04-19T06:57:27Z</time></trkpt><trkpt lat="45.31928158789679" lon="9.192416327731282"><ele>90.0</ele><time>2026-04-19T06:57:29Z</time></trkpt><trkpt lat="45.319292614643295" lon="9.19226524246503"><ele>90.0</ele><time>2026-04-19T06:57:31Z</time></trkpt><trkpt lat="45.31931019136229" lon="9.192122652906319"><ele>90.4</ele><time>2026-04-19T06:57:33Z</time></trkpt><trkpt lat="45.31932501202416" lon="9.191977876586456"><ele>90.8</ele><time>2026-04-19T06:57:35Z</time></trkpt><trkpt lat="45.31935083766043" lon="9.191839332814613"><ele>91.19999999999999</ele><time>2026-04-19T06:57:37Z</time></trkpt><trkpt lat="45.319386241355225" lon="9.191705191962274"><ele>91.6</ele><time>2026-04-19T06:57:39Z</time></trkpt><trkpt lat="45.31942664206733" lon="9.191572761338396"><ele>92.0</ele><time>2026-04-19T06:57:41Z</time></trkpt><trkpt lat="45.319456354520476" lon="9.191433726661494"><ele>92.0</ele><time>2026-04-19T06:57:43Z</time></trkpt><trkpt lat="45.319483036360786" lon="9.191298444191442"><ele>92.0</ele><time>2026-04-19T06:57:45Z</time></trkpt><trkpt lat="45.319520291751736" lon="9.191174936091475"><ele>92.0</ele><time>2026-04-19T06:57:47Z</time></trkpt><trkpt lat="45.31953164584069" lon="9.191051904713563"><ele>92.0</ele><time>2026-04-19T06:57:49Z</time></trkpt><trkpt lat="45.319502821119904" lon="9.190947960080454"><ele>92.0</ele><time>2026-04-19T06:57:51Z</time></trkpt><trkpt lat="45.319411315889724" lon="9.190898285690734"><ele>92.0</ele><time>2026-04-19T06:57:53Z</time></trkpt><trkpt lat="45.319341179070626" lon="9.190788239082517"><ele>92.0</ele><time>2026-04-19T06:57:55Z</time></trkpt><trkpt lat="45.31928840631007" lon="9.190636546523482"><ele>92.0</ele><time>2026-04-19T06:57:57Z</time></trkpt><trkpt lat="45.31927614154963" lon="9.190532381831517"><ele>92.0</ele><time>2026-04-19T06:57:58Z</time></trkpt><trkpt lat="45.31927192923091" lon="9.190358906205926"><ele>92.0</ele><time>2026-04-19T06:58:00Z</time></trkpt><trkpt lat="45.31928879067733" lon="9.190264271080219"><ele>91.71428571428572</ele><time>2026-04-19T06:58:01Z</time></trkpt><trkpt lat="45.319313234835334" lon="9.190167658169367"><ele>91.42857142857142</ele><time>2026-04-19T06:58:02Z</time></trkpt><trkpt lat="45.31933995750868" lon="9.190076112568427"><ele>91.14285714285714</ele><time>2026-04-19T06:58:03Z</time></trkpt><trkpt lat="45.31936581096595" lon="9.189988431577673"><ele>90.85714285714286</ele><time>2026-04-19T06:58:04Z</time></trkpt><trkpt lat="45.31939243168133" lon="9.189898946008142"><ele>90.57142857142858</ele><time>2026-04-19T06:58:05Z</time></trkpt><trkpt lat="45.31941468827367" lon="9.189806061743472"><ele>90.28571428571428</ele><time>2026-04-19T06:58:06Z</time></trkpt><trkpt lat="45.319447450879814" lon="9.189724663262574"><ele>90.0</ele><time>2026-04-19T06:58:07Z</time></trkpt><trkpt lat="45.31947450269313" lon="9.189641569204447"><ele>89.8</ele><time>2026-04-19T06:58:08Z</time></trkpt><trkpt lat="45.319517115553" lon="9.189477739601243"><ele>89.6</ele><time>2026-04-19T06:58:10Z</time></trkpt><trkpt lat="45.319577849578714" lon="9.189334950761445"><ele>89.4</ele><time>2026-04-19T06:58:12Z</time></trkpt><trkpt lat="45.319649471919796" lon="9.189220490817082"><ele>89.2</ele><time>2026-04-19T06:58:14Z</time></trkpt><trkpt lat="45.31971203782861" lon="9.189112336011235"><ele>89.0</ele><time>2026-04-19T06:58:16Z</time></trkpt><trkpt lat="45.319771057967266" lon="9.18899769447734"><ele>88.80000000000001</ele><time>2026-04-19T06:58:18Z</time></trkpt><trkpt lat="45.31981331820449" lon="9.188861752047568"><ele>88.60000000000001</ele><time>2026-04-19T06:58:20Z</time></trkpt><trkpt lat="45.3198135844385" lon="9.188722791479117"><ele>88.4</ele><time>2026-04-19T06:58:22Z</time></trkpt><trkpt lat="45.31976840760451" lon="9.188579869351914"><ele>88.2</ele><time>2026-04-19T06:58:24Z</time></trkpt><trkpt lat="45.31974239088078" lon="9.188485265302027"><ele>88.0</ele><time>2026-04-19T06:58:26Z</time></trkpt><trkpt lat="45.31980260825977" lon="9.188444409683985"><ele>88.0</ele><time>2026-04-19T06:58:28Z</time></trkpt><trkpt lat="45.31988074549925" lon="9.188480498297011"><ele>88.0</ele><time>2026-04-19T06:58:30Z</time></trkpt><trkpt lat="45.319934948132875" lon="9.188434519453615"><ele>88.0</ele><time>2026-04-19T06:58:32Z</time></trkpt><trkpt lat="45.32000695455028" lon="9.188378467731932"><ele>88.0</ele><time>2026-04-19T06:58:34Z</time></trkpt><trkpt lat="45.320062033009805" lon="9.1883204506948"><ele>88.0</ele><time>2026-04-19T06:58:38Z</time></trkpt><trkpt lat="45.32006384456014" lon="9.188221570673175"><ele>88.0</ele><time>2026-04-19T06:58:42Z</time></trkpt><trkpt lat="45.32002931699864" lon="9.188121972145108"><ele>88.0</ele><time>2026-04-19T06:58:44Z</time></trkpt><trkpt lat="45.31999384872921" lon="9.188022583201013"><ele>88.0</ele><time>2026-04-19T06:58:46Z</time></trkpt><trkpt lat="45.31996408866219" lon="9.18792061982383"><ele>88.0</ele><time>2026-04-19T06:58:49Z</time></trkpt><trkpt lat="45.31991580487081" lon="9.187850631722949"><ele>88.0</ele><time>2026-04-19T06:58:51Z</time></trkpt><trkpt lat="45.319878202513316" lon="9.187772884631075"><ele>88.0</ele><time>2026-04-19T06:58:53Z</time></trkpt><trkpt lat="45.3198590439758" lon="9.18768435659711"><ele>88.0</ele><time>2026-04-19T06:58:56Z</time></trkpt><trkpt lat="45.31981580873922" lon="9.187599401943865"><ele>88.0</ele><time>2026-04-19T06:59:00Z</time></trkpt><trkpt lat="45.31973345247637" lon="9.187559032755864"><ele>88.0</ele><time>2026-04-19T06:59:04Z</time></trkpt><trkpt lat="45.319663540579526" lon="9.187523164489416"><ele>87.85714285714286</ele><time>2026-04-19T06:59:06Z</time></trkpt><trkpt lat="45.31960418378036" lon="9.187486982127487"><ele>87.71428571428571</ele><time>2026-04-19T06:59:08Z</time></trkpt><trkpt lat="45.319518552478165" lon="9.187428942328689"><ele>87.57142857142857</ele><time>2026-04-19T06:59:11Z</time></trkpt><trkpt lat="45.3194575551129" lon="9.187393820293572"><ele>87.42857142857143</ele><time>2026-04-19T06:59:13Z</time></trkpt><trkpt lat="45.3193925082586" lon="9.18735444392372"><ele>87.28571428571429</ele><time>2026-04-19T06:59:15Z</time></trkpt><trkpt lat="45.31932651529812" lon="9.187315500398864"><ele>87.14285714285714</ele><time>2026-04-19T06:59:17Z</time></trkpt><trkpt lat="45.31926679766721" lon="9.187274032618332"><ele>87.0</ele><time>2026-04-19T06:59:19Z</time></trkpt><trkpt lat="45.319198656781154" lon="9.187244662318305"><ele>87.0</ele><time>2026-04-19T06:59:21Z</time></trkpt><trkpt lat="45.319133434669205" lon="9.187198073970057"><ele>87.0</ele><time>2026-04-19T06:59:23Z</time></trkpt><trkpt lat="45.319063460484756" lon="9.187156451452283"><ele>87.0</ele><time>2026-04-19T06:59:25Z</time></trkpt><trkpt lat="45.31899574900554" lon="9.187114335014964"><ele>87.0</ele><time>2026-04-19T06:59:27Z</time></trkpt><trkpt lat="45.31894209712405" lon="9.187017554263882"><ele>87.0</ele><time>2026-04-19T06:59:30Z</time></trkpt><trkpt lat="45.318905522229215" lon="9.1869222747128"><ele>87.0</ele><time>2026-04-19T06:59:32Z</time></trkpt><trkpt lat="45.31885033432222" lon="9.186878561870687"><ele>87.0</ele><time>2026-04-19T06:59:35Z</time></trkpt><trkpt lat="45.31876937183559" lon="9.186846130708805"><ele>86.83333333333333</ele><time>2026-04-19T06:59:40Z</time></trkpt><trkpt lat="45.31872821725319" lon="9.186770194473661"><ele>86.66666666666667</ele><time>2026-04-19T06:59:43Z</time></trkpt><trkpt lat="45.31866360043832" lon="9.186730288276024"><ele>86.5</ele><time>2026-04-19T06:59:46Z</time></trkpt><trkpt lat="45.318606576155496" lon="9.186611214951814"><ele>86.33333333333334</ele><time>2026-04-19T06:59:49Z</time></trkpt><trkpt lat="45.318561645120795" lon="9.186525660360068"><ele>86.16666666666667</ele><time>2026-04-19T06:59:52Z</time></trkpt><trkpt lat="45.31853638285018" lon="9.186420317047233"><ele>86.0</ele><time>2026-04-19T06:59:55Z</time></trkpt><trkpt lat="45.318514527018756" lon="9.186299536767986"><ele>86.0</ele><time>2026-04-19T06:59:59Z</time></trkpt><trkpt lat="45.31849367328177" lon="9.186163312448846"><ele>86.0</ele><time>2026-04-19T07:00:01Z</time></trkpt><trkpt lat="45.318474058825686" lon="9.186016679446796"><ele>86.0</ele><time>2026-04-19T07:00:03Z</time></trkpt><trkpt lat="45.318404034706596" lon="9.185958511442834"><ele>86.0</ele><time>2026-04-19T07:00:05Z</time></trkpt><trkpt lat="45.31835826024011" lon="9.18584544451371"><ele>86.0</ele><time>2026-04-19T07:00:08Z</time></trkpt><trkpt lat="45.318358158191685" lon="9.185733714432603"><ele>86.16666666666667</ele><time>2026-04-19T07:00:11Z</time></trkpt><trkpt lat="45.31833166469815" lon="9.185625156420322"><ele>86.33333333333334</ele><time>2026-04-19T07:00:14Z</time></trkpt><trkpt lat="45.318295468799995" lon="9.185518551971729"><ele>86.5</ele><time>2026-04-19T07:00:17Z</time></trkpt><trkpt lat="45.31827105455646" lon="9.185410419161927"><ele>86.66666666666667</ele><time>2026-04-19T07:00:20Z</time></trkpt><trkpt lat="45.31824536853409" lon="9.185302833816921"><ele>86.83333333333333</ele><time>2026-04-19T07:00:24Z</time></trkpt><trkpt lat="45.318200470136745" lon="9.185232247909884"><ele>87.0</ele><time>2026-04-19T07:00:28Z</time></trkpt><trkpt lat="45.3181794588825" lon="9.185143138533872"><ele>87.0</ele><time>2026-04-19T07:00:31Z</time></trkpt><trkpt lat="45.31816610117746" lon="9.185032601548253"><ele>87.0</ele><time>2026-04-19T07:00:35Z</time></trkpt><trkpt lat="45.318144231578266" lon="9.184909622740799"><ele>87.0</ele><time>2026-04-19T07:00:39Z</time></trkpt><trkpt lat="45.31812541017064" lon="9.1847945769886"><ele>87.0</ele><time>2026-04-19T07:00:42Z</time></trkpt><trkpt lat="45.31810298044762" lon="9.184696461688262"><ele>87.0</ele><time>2026-04-19T07:00:44Z</time></trkpt><trkpt lat="45.31807263020442" lon="9.184580040444835"><ele>87.0</ele><time>2026-04-19T07:00:47Z</time></trkpt><trkpt lat="45.318047332156" lon="9.184481161696311"><ele>87.0</ele><time>2026-04-19T07:00:50Z</time></trkpt><trkpt lat="45.31803166464762" lon="9.184373829869362"><ele>87.0</ele><time>2026-04-19T07:00:53Z</time></trkpt><trkpt lat="45.318019641008014" lon="9.184260074982129"><ele>87.0</ele><time>2026-04-19T07:00:57Z</time></trkpt><trkpt lat="45.31800096516785" lon="9.18413318483752"><ele>87.0</ele><time>2026-04-19T07:01:01Z</time></trkpt><trkpt lat="45.317945120524435" lon="9.184064080962022"><ele>87.0</ele><time>2026-04-19T07:01:07Z</time></trkpt><trkpt lat="45.317966741420136" lon="9.183962276179892"><ele>87.0</ele><time>2026-04-19T07:01:17Z</time></trkpt><trkpt lat="45.317940421742044" lon="9.18387881585523"><ele>87.0</ele><time>2026-04-19T07:01:20Z</time></trkpt><trkpt lat="45.317923899016336" lon="9.183787514484443"><ele>87.0</ele><time>2026-04-19T07:01:22Z</time></trkpt><trkpt lat="45.31791013083886" lon="9.183677285477904"><ele>87.0</ele><time>2026-04-19T07:01:25Z</time></trkpt><trkpt lat="45.31783964786507" lon="9.183600684524512"><ele>87.0</ele><time>2026-04-19T07:01:28Z</time></trkpt><trkpt lat="45.31784025523452" lon="9.183502627885222"><ele>87.0</ele><time>2026-04-19T07:01:30Z</time></trkpt><trkpt lat="45.31777349978758" lon="9.183416505870818"><ele>87.0</ele><time>2026-04-19T07:01:33Z</time></trkpt><trkpt lat="45.317725818069235" lon="9.183329450684928"><ele>87.0</ele><time>2026-04-19T07:01:35Z</time></trkpt><trkpt lat="45.31769747042496" lon="9.18322948500652"><ele>87.0</ele><time>2026-04-19T07:01:37Z</time></trkpt><trkpt lat="45.31769798494033" lon="9.183115735776772"><ele>87.0</ele><time>2026-04-19T07:01:39Z</time></trkpt><trkpt lat="45.3177214272479" lon="9.18300889579201"><ele>87.0</ele><time>2026-04-19T07:01:41Z</time></trkpt><trkpt lat="45.31778302732035" lon="9.182925634122455"><ele>87.0</ele><time>2026-04-19T07:01:44Z</time></trkpt><trkpt lat="45.31774264119881" lon="9.182806161557748"><ele>87.0</ele><time>2026-04-19T07:01:47Z</time></trkpt><trkpt lat="45.31772103405789" lon="9.18271107532458"><ele>86.85714285714286</ele><time>2026-04-19T07:01:49Z</time></trkpt><trkpt lat="45.317702500100545" lon="9.182622762118246"><ele>86.71428571428572</ele><time>2026-04-19T07:01:51Z</time></trkpt><trkpt lat="45.317678894526026" lon="9.182517473424491"><ele>86.57142857142858</ele><time>2026-04-19T07:01:53Z</time></trkpt><trkpt lat="45.31765138421987" lon="9.182403217648382"><ele>86.42857142857143</ele><time>2026-04-19T07:01:55Z</time></trkpt><trkpt lat="45.31763210297498" lon="9.182313604669163"><ele>86.28571428571429</ele><time>2026-04-19T07:01:57Z</time></trkpt><trkpt lat="45.31760966819275" lon="9.18220834769467"><ele>86.14285714285715</ele><time>2026-04-19T07:02:00Z</time></trkpt><trkpt lat="45.317579209804315" lon="9.182112727745423"><ele>86.0</ele><time>2026-04-19T07:02:03Z</time></trkpt><trkpt lat="45.317532343965155" lon="9.182048006860672"><ele>86.16666666666667</ele><time>2026-04-19T07:02:05Z</time></trkpt><trkpt lat="45.317487405191486" lon="9.181938103753657"><ele>86.33333333333334</ele><time>2026-04-19T07:02:07Z</time></trkpt><trkpt lat="45.31745953336172" lon="9.18181960274459"><ele>86.5</ele><time>2026-04-19T07:02:09Z</time></trkpt><trkpt lat="45.317399433636936" lon="9.1817098327647"><ele>86.66666666666667</ele><time>2026-04-19T07:02:11Z</time></trkpt><trkpt lat="45.31735020002161" lon="9.18160078872119"><ele>86.83333333333333</ele><time>2026-04-19T07:02:13Z</time></trkpt><trkpt lat="45.31734545073431" lon="9.181492150267896"><ele>87.0</ele><time>2026-04-19T07:02:15Z</time></trkpt><trkpt lat="45.31735052008769" lon="9.181368609493035"><ele>87.0</ele><time>2026-04-19T07:02:17Z</time></trkpt><trkpt lat="45.31740148312535" lon="9.181283472149495"><ele>87.0</ele><time>2026-04-19T07:02:19Z</time></trkpt><trkpt lat="45.31742467396832" lon="9.181199877346366"><ele>87.0</ele><time>2026-04-19T07:02:22Z</time></trkpt><trkpt lat="45.31739237183551" lon="9.181117178605293"><ele>87.0</ele><time>2026-04-19T07:02:24Z</time></trkpt><trkpt lat="45.31737398135636" lon="9.181014049122696"><ele>87.0</ele><time>2026-04-19T07:02:27Z</time></trkpt><trkpt lat="45.3173411315539" lon="9.180929773128858"><ele>87.0</ele><time>2026-04-19T07:02:32Z</time></trkpt><trkpt lat="45.3173186985433" lon="9.180812783042196"><ele>87.0</ele><time>2026-04-19T07:02:35Z</time></trkpt><trkpt lat="45.317301467136744" lon="9.180714611744278"><ele>86.83333333333333</ele><time>2026-04-19T07:02:37Z</time></trkpt><trkpt lat="45.31727462757385" lon="9.180616547603435"><ele>86.66666666666667</ele><time>2026-04-19T07:02:39Z</time></trkpt><trkpt lat="45.31725177405786" lon="9.180495877507694"><ele>86.5</ele><time>2026-04-19T07:02:43Z</time></trkpt><trkpt lat="45.31722081656915" lon="9.180392042589972"><ele>86.33333333333334</ele><time>2026-04-19T07:02:46Z</time></trkpt><trkpt lat="45.31719501732199" lon="9.18027136931767"><ele>86.16666666666667</ele><time>2026-04-19T07:02:48Z</time></trkpt><trkpt lat="45.31717362836689" lon="9.180183615802395"><ele>86.0</ele><time>2026-04-19T07:02:49Z</time></trkpt><trkpt lat="45.3171526694286" lon="9.18008351197593"><ele>86.00000000000001</ele><time>2026-04-19T07:02:51Z</time></trkpt><trkpt lat="45.31711578122886" lon="9.180007688761723"><ele>86.0</ele><time>2026-04-19T07:02:53Z</time></trkpt><trkpt lat="45.317104558824234" lon="9.179915103587817"><ele>86.0</ele><time>2026-04-19T07:02:55Z</time></trkpt><trkpt lat="45.31707648013026" lon="9.179792866184828"><ele>86.0</ele><time>2026-04-19T07:02:58Z</time></trkpt><trkpt lat="45.31705984133406" lon="9.179696347634733"><ele>86.0</ele><time>2026-04-19T07:03:00Z</time></trkpt><trkpt lat="45.31705138312455" lon="9.17959333766177"><ele>86.00000000000001</ele><time>2026-04-19T07:03:02Z</time></trkpt><trkpt lat="45.317024590087335" lon="9.179490885533873"><ele>86.0</ele><time>2026-04-19T07:03:04Z</time></trkpt><trkpt lat="45.31700096801863" lon="9.179397059261827"><ele>86.0</ele><time>2026-04-19T07:03:06Z</time></trkpt><trkpt lat="45.31698352903908" lon="9.179305617227199"><ele>86.0</ele><time>2026-04-19T07:03:08Z</time></trkpt><trkpt lat="45.316950639648645" lon="9.179212071033275"><ele>86.0</ele><time>2026-04-19T07:03:10Z</time></trkpt><trkpt lat="45.316930531933586" lon="9.179073808870358"><ele>86.0</ele><time>2026-04-19T07:03:13Z</time></trkpt><trkpt lat="45.31691102231614" lon="9.178983402500313"><ele>86.0</ele><time>2026-04-19T07:03:15Z</time></trkpt><trkpt lat="45.31690450856348" lon="9.178880449857052"><ele>86.0</ele><time>2026-04-19T07:03:17Z</time></trkpt><trkpt lat="45.31689262012328" lon="9.17874772101221"><ele>86.16666666666667</ele><time>2026-04-19T07:03:20Z</time></trkpt><trkpt lat="45.316866799283545" lon="9.178624180537016"><ele>86.33333333333334</ele><time>2026-04-19T07:03:23Z</time></trkpt><trkpt lat="45.31685341425329" lon="9.178532547473997"><ele>86.5</ele><time>2026-04-19T07:03:25Z</time></trkpt><trkpt lat="45.316837168175034" lon="9.178445323306233"><ele>86.66666666666667</ele><time>2026-04-19T07:03:27Z</time></trkpt><trkpt lat="45.31683990167353" lon="9.178331198449891"><ele>86.83333333333333</ele><time>2026-04-19T07:03:30Z</time></trkpt><trkpt lat="45.31679633814274" lon="9.178224919254589"><ele>87.0</ele><time>2026-04-19T07:03:32Z</time></trkpt><trkpt lat="45.316751172427416" lon="9.178126888361069"><ele>87.0</ele><time>2026-04-19T07:03:34Z</time></trkpt><trkpt lat="45.3167406693278" lon="9.178026983416215"><ele>87.0</ele><time>2026-04-19T07:03:36Z</time></trkpt><trkpt lat="45.31673168357933" lon="9.177900497449073"><ele>87.0</ele><time>2026-04-19T07:03:39Z</time></trkpt><trkpt lat="45.31671967983286" lon="9.177810754611967"><ele>87.0</ele><time>2026-04-19T07:03:41Z</time></trkpt><trkpt lat="45.31669895763661" lon="9.177712930147429"><ele>87.0</ele><time>2026-04-19T07:03:43Z</time></trkpt><trkpt lat="45.31668143544719" lon="9.177616050915345"><ele>87.0</ele><time>2026-04-19T07:03:45Z</time></trkpt><trkpt lat="45.31666690305084" lon="9.177517674753522"><ele>87.0</ele><time>2026-04-19T07:03:47Z</time></trkpt><trkpt lat="45.316659122264895" lon="9.177421322068263"><ele>87.0</ele><time>2026-04-19T07:03:49Z</time></trkpt><trkpt lat="45.31663914378713" lon="9.177323423479809"><ele>87.0</ele><time>2026-04-19T07:03:51Z</time></trkpt><trkpt lat="45.31661743950137" lon="9.177225604591209"><ele>87.0</ele><time>2026-04-19T07:03:53Z</time></trkpt><trkpt lat="45.31659221303563" lon="9.17712768974218"><ele>87.0</ele><time>2026-04-19T07:03:55Z</time></trkpt><trkpt lat="45.31657486382672" lon="9.177026135927328"><ele>87.0</ele><time>2026-04-19T07:03:57Z</time></trkpt><trkpt lat="45.31653983797773" lon="9.176934281300637"><ele>87.0</ele><time>2026-04-19T07:03:59Z</time></trkpt><trkpt lat="45.31647047719228" lon="9.176857675192265"><ele>87.0</ele><time>2026-04-19T07:04:02Z</time></trkpt><trkpt lat="45.31637909616868" lon="9.176826372122585"><ele>87.0</ele><time>2026-04-19T07:04:05Z</time></trkpt><trkpt lat="45.31631524170306" lon="9.17685761776591"><ele>87.0</ele><time>2026-04-19T07:04:07Z</time></trkpt><trkpt lat="45.316219717337155" lon="9.176887820887766"><ele>87.0</ele><time>2026-04-19T07:04:10Z</time></trkpt><trkpt lat="45.31614782080796" lon="9.176904800342523"><ele>87.0</ele><time>2026-04-19T07:04:12Z</time></trkpt><trkpt lat="45.31607507158017" lon="9.17692407274067"><ele>87.0</ele><time>2026-04-19T07:04:14Z</time></trkpt><trkpt lat="45.31599798969765" lon="9.176937807744206"><ele>87.0</ele><time>2026-04-19T07:04:16Z</time></trkpt><trkpt lat="45.31591512265372" lon="9.176958792164235"><ele>87.0</ele><time>2026-04-19T07:04:18Z</time></trkpt><trkpt lat="45.31583115913875" lon="9.176972821842469"><ele>87.0</ele><time>2026-04-19T07:04:20Z</time></trkpt><trkpt lat="45.315746581555985" lon="9.177001488703675"><ele>87.0</ele><time>2026-04-19T07:04:22Z</time></trkpt><trkpt lat="45.315655254620296" lon="9.177028629793382"><ele>87.0</ele><time>2026-04-19T07:04:24Z</time></trkpt><trkpt lat="45.315539511867904" lon="9.177058901633721"><ele>87.25</ele><time>2026-04-19T07:04:26Z</time></trkpt><trkpt lat="45.31541889432637" lon="9.177092115575023"><ele>87.5</ele><time>2026-04-19T07:04:28Z</time></trkpt><trkpt lat="45.31530560207651" lon="9.177116821781885"><ele>87.75</ele><time>2026-04-19T07:04:30Z</time></trkpt><trkpt lat="45.315197661582395" lon="9.177134737386675"><ele>88.0</ele><time>2026-04-19T07:04:32Z</time></trkpt><trkpt lat="45.31508851494359" lon="9.177161828454784"><ele>88.0</ele><time>2026-04-19T07:04:34Z</time></trkpt><trkpt lat="45.314977331790935" lon="9.177190232158445"><ele>88.0</ele><time>2026-04-19T07:04:36Z</time></trkpt><trkpt lat="45.31486981317375" lon="9.17721829692403"><ele>88.0</ele><time>2026-04-19T07:04:38Z</time></trkpt><trkpt lat="45.3147582209734" lon="9.17725002730087"><ele>88.0</ele><time>2026-04-19T07:04:40Z</time></trkpt><trkpt lat="45.31464845831619" lon="9.177275475600156"><ele>88.0</ele><time>2026-04-19T07:04:42Z</time></trkpt><trkpt lat="45.31454916620214" lon="9.1773164642653"><ele>88.0</ele><time>2026-04-19T07:04:44Z</time></trkpt><trkpt lat="45.314469270521556" lon="9.177374732392694"><ele>88.0</ele><time>2026-04-19T07:04:46Z</time></trkpt><trkpt lat="45.314398766296684" lon="9.177444289807111"><ele>88.0</ele><time>2026-04-19T07:04:57Z</time></trkpt><trkpt lat="45.314408753869614" lon="9.177536671272675"><ele>88.0</ele><time>2026-04-19T07:05:11Z</time></trkpt><trkpt lat="45.314378838469" lon="9.177622643925693"><ele>88.0</ele><time>2026-04-19T07:08:09Z</time></trkpt><trkpt lat="45.31435949100784" lon="9.177708518056734"><ele>88.0</ele><time>2026-04-19T07:08:11Z</time></trkpt><trkpt lat="45.3143300385318" lon="9.177809437403594"><ele>88.0</ele><time>2026-04-19T07:08:13Z</time></trkpt><trkpt lat="45.314305886116735" lon="9.17789509052046"><ele>88.0</ele><time>2026-04-19T07:08:15Z</time></trkpt><trkpt lat="45.31427086023442" lon="9.178003131081805"><ele>88.0</ele><time>2026-04-19T07:08:18Z</time></trkpt><trkpt lat="45.31423169581237" lon="9.178120910869852"><ele>88.0</ele><time>2026-04-19T07:08:21Z</time></trkpt><trkpt lat="45.31420168099031" lon="9.178239405398994"><ele>88.0</ele><time>2026-04-19T07:08:24Z</time></trkpt><trkpt lat="45.31417403273297" lon="9.178323152694128"><ele>88.0</ele><time>2026-04-19T07:08:26Z</time></trkpt><trkpt lat="45.31414699673122" lon="9.178410075221837"><ele>88.0</ele><time>2026-04-19T07:08:28Z</time></trkpt><trkpt lat="45.31411877846719" lon="9.178504478713714"><ele>87.83333333333333</ele><time>2026-04-19T07:08:30Z</time></trkpt><trkpt lat="45.31408471217125" lon="9.178603780336884"><ele>87.66666666666666</ele><time>2026-04-19T07:08:32Z</time></trkpt><trkpt lat="45.31405584233336" lon="9.178707824492205"><ele>87.5</ele><time>2026-04-19T07:08:34Z</time></trkpt><trkpt lat="45.31402366351219" lon="9.178813216926175"><ele>87.33333333333333</ele><time>2026-04-19T07:08:36Z</time></trkpt><trkpt lat="45.31399206379887" lon="9.178917030511986"><ele>87.16666666666667</ele><time>2026-04-19T07:08:38Z</time></trkpt><trkpt lat="45.31395583786917" lon="9.179022115626513"><ele>87.0</ele><time>2026-04-19T07:08:40Z</time></trkpt><trkpt lat="45.31392508130372" lon="9.17912559726931"><ele>87.16666666666667</ele><time>2026-04-19T07:08:42Z</time></trkpt><trkpt lat="45.31389235220971" lon="9.17923289116353"><ele>87.33333333333333</ele><time>2026-04-19T07:08:44Z</time></trkpt><trkpt lat="45.313856485801175" lon="9.17932801549561"><ele>87.5</ele><time>2026-04-19T07:08:46Z</time></trkpt><trkpt lat="45.31382101694925" lon="9.179439588680378"><ele>87.66666666666666</ele><time>2026-04-19T07:08:48Z</time></trkpt><trkpt lat="45.31379606629786" lon="9.179543080613932"><ele>87.83333333333333</ele><time>2026-04-19T07:08:50Z</time></trkpt><trkpt lat="45.31375391575947" lon="9.17966461528347"><ele>88.0</ele><time>2026-04-19T07:08:52Z</time></trkpt><trkpt lat="45.313713819920075" lon="9.179792756939994"><ele>87.83333333333333</ele><time>2026-04-19T07:08:54Z</time></trkpt><trkpt lat="45.31367661527998" lon="9.179909180940763"><ele>87.66666666666666</ele><time>2026-04-19T07:08:56Z</time></trkpt><trkpt lat="45.3136367691486" lon="9.180028986786164"><ele>87.5</ele><time>2026-04-19T07:08:58Z</time></trkpt><trkpt lat="45.31360175299006" lon="9.18014181378059"><ele>87.33333333333333</ele><time>2026-04-19T07:09:00Z</time></trkpt><trkpt lat="45.313570602661095" lon="9.18025236601171"><ele>87.16666666666667</ele><time>2026-04-19T07:09:02Z</time></trkpt><trkpt lat="45.31353857743804" lon="9.180355791067424"><ele>87.0</ele><time>2026-04-19T07:09:04Z</time></trkpt><trkpt lat="45.313503582449535" lon="9.180458469665258"><ele>87.0</ele><time>2026-04-19T07:09:06Z</time></trkpt><trkpt lat="45.31347581281569" lon="9.18055878039909"><ele>87.0</ele><time>2026-04-19T07:09:08Z</time></trkpt><trkpt lat="45.3134523667006" lon="9.180656629614258"><ele>87.0</ele><time>2026-04-19T07:09:10Z</time></trkpt><trkpt lat="45.31342787033237" lon="9.18074370982397"><ele>87.0</ele><time>2026-04-19T07:09:12Z</time></trkpt><trkpt lat="45.31334195728865" lon="9.180764205984136"><ele>87.0</ele><time>2026-04-19T07:09:15Z</time></trkpt><trkpt lat="45.313274598394756" lon="9.180726882028157"><ele>87.0</ele><time>2026-04-19T07:09:18Z</time></trkpt><trkpt lat="45.313213938348476" lon="9.180693617794649"><ele>87.0</ele><time>2026-04-19T07:09:25Z</time></trkpt><trkpt lat="45.313155280455035" lon="9.180643191269084"><ele>87.0</ele><time>2026-04-19T07:09:39Z</time></trkpt><trkpt lat="45.31308038448398" lon="9.180600328436233"><ele>87.0</ele><time>2026-04-19T07:09:43Z</time></trkpt><trkpt lat="45.31302272697205" lon="9.180560872416278"><ele>87.0</ele><time>2026-04-19T07:09:45Z</time></trkpt><trkpt lat="45.31295563987826" lon="9.180532508346724"><ele>87.0</ele><time>2026-04-19T07:09:47Z</time></trkpt><trkpt lat="45.31288150639442" lon="9.180488364087918"><ele>87.0</ele><time>2026-04-19T07:09:49Z</time></trkpt><trkpt lat="45.31280741022639" lon="9.180436144626091"><ele>87.0</ele><time>2026-04-19T07:09:51Z</time></trkpt><trkpt lat="45.3127413632771" lon="9.180395931195264"><ele>87.0</ele><time>2026-04-19T07:09:53Z</time></trkpt><trkpt lat="45.31267587116734" lon="9.180361169599292"><ele>87.0</ele><time>2026-04-19T07:09:55Z</time></trkpt><trkpt lat="45.31261590209436" lon="9.180321606909915"><ele>87.0</ele><time>2026-04-19T07:09:57Z</time></trkpt><trkpt lat="45.31254734231938" lon="9.180280069944263"><ele>87.0</ele><time>2026-04-19T07:09:59Z</time></trkpt><trkpt lat="45.31247565852712" lon="9.180238075363848"><ele>87.0</ele><time>2026-04-19T07:10:01Z</time></trkpt><trkpt lat="45.312402680982984" lon="9.180195736403926"><ele>87.0</ele><time>2026-04-19T07:10:03Z</time></trkpt><trkpt lat="45.312329204402516" lon="9.180146659950157"><ele>87.0</ele><time>2026-04-19T07:10:05Z</time></trkpt><trkpt lat="45.312250175051474" lon="9.180100913679661"><ele>87.0</ele><time>2026-04-19T07:10:07Z</time></trkpt><trkpt lat="45.31217194555403" lon="9.180050557809817"><ele>87.0</ele><time>2026-04-19T07:10:09Z</time></trkpt><trkpt lat="45.312091686066694" lon="9.18000705922598"><ele>87.0</ele><time>2026-04-19T07:10:11Z</time></trkpt><trkpt lat="45.31201212692361" lon="9.179956361792192"><ele>87.0</ele><time>2026-04-19T07:10:13Z</time></trkpt><trkpt lat="45.311934352908104" lon="9.179910374686603"><ele>87.0</ele><time>2026-04-19T07:10:15Z</time></trkpt><trkpt lat="45.31184950965575" lon="9.179855809703469"><ele>87.0</ele><time>2026-04-19T07:10:17Z</time></trkpt><trkpt lat="45.31176203032237" lon="9.179795493815464"><ele>87.19999999999999</ele><time>2026-04-19T07:10:19Z</time></trkpt><trkpt lat="45.31166889636157" lon="9.179739522778625"><ele>87.4</ele><time>2026-04-19T07:10:21Z</time></trkpt><trkpt lat="45.31157759244296" lon="9.179687595227145"><ele>87.6</ele><time>2026-04-19T07:10:23Z</time></trkpt><trkpt lat="45.311488111652416" lon="9.17962936532146"><ele>87.80000000000001</ele><time>2026-04-19T07:10:25Z</time></trkpt><trkpt lat="45.31139581434296" lon="9.179574801064405"><ele>88.0</ele><time>2026-04-19T07:10:27Z</time></trkpt><trkpt lat="45.31130597232283" lon="9.1795226904002"><ele>88.0</ele><time>2026-04-19T07:10:29Z</time></trkpt><trkpt lat="45.31122016894403" lon="9.179472126270523"><ele>88.0</ele><time>2026-04-19T07:10:31Z</time></trkpt><trkpt lat="45.31112829261601" lon="9.17942106982173"><ele>88.0</ele><time>2026-04-19T07:10:33Z</time></trkpt><trkpt lat="45.31101730147691" lon="9.17934377009992"><ele>88.0</ele><time>2026-04-19T07:10:35Z</time></trkpt><trkpt lat="45.31090777837687" lon="9.179280068499448"><ele>88.0</ele><time>2026-04-19T07:10:37Z</time></trkpt><trkpt lat="45.310806603563464" lon="9.179217608511186"><ele>88.0</ele><time>2026-04-19T07:10:39Z</time></trkpt><trkpt lat="45.31071044968242" lon="9.179164854891841"><ele>88.0</ele><time>2026-04-19T07:10:41Z</time></trkpt><trkpt lat="45.310622203875326" lon="9.17911030536811"><ele>88.0</ele><time>2026-04-19T07:10:43Z</time></trkpt><trkpt lat="45.31054246822556" lon="9.179065978335165"><ele>88.0</ele><time>2026-04-19T07:10:45Z</time></trkpt><trkpt lat="45.31046707955156" lon="9.179016184045029"><ele>88.0</ele><time>2026-04-19T07:10:47Z</time></trkpt><trkpt lat="45.310386085463094" lon="9.178971842209986"><ele>87.83333333333333</ele><time>2026-04-19T07:10:49Z</time></trkpt><trkpt lat="45.31030923403091" lon="9.178924421111061"><ele>87.66666666666666</ele><time>2026-04-19T07:10:51Z</time></trkpt><trkpt lat="45.31023458304972" lon="9.178880583940204"><ele>87.5</ele><time>2026-04-19T07:10:53Z</time></trkpt><trkpt lat="45.310157948634874" lon="9.17883299753418"><ele>87.33333333333333</ele><time>2026-04-19T07:10:55Z</time></trkpt><trkpt lat="45.31007963878114" lon="9.178790464022656"><ele>87.16666666666667</ele><time>2026-04-19T07:10:57Z</time></trkpt><trkpt lat="45.309998694953585" lon="9.178739321011895"><ele>87.0</ele><time>2026-04-19T07:10:59Z</time></trkpt><trkpt lat="45.30991528069703" lon="9.178688966482575"><ele>87.0</ele><time>2026-04-19T07:11:01Z</time></trkpt><trkpt lat="45.309831347652334" lon="9.178649665175543"><ele>87.0</ele><time>2026-04-19T07:11:03Z</time></trkpt><trkpt lat="45.30974775301294" lon="9.178603114324453"><ele>87.0</ele><time>2026-04-19T07:11:05Z</time></trkpt><trkpt lat="45.30965141709589" lon="9.17856835542904"><ele>87.0</ele><time>2026-04-19T07:11:07Z</time></trkpt><trkpt lat="45.30955728391332" lon="9.17855474990221"><ele>87.0</ele><time>2026-04-19T07:11:09Z</time></trkpt><trkpt lat="45.30946696974653" lon="9.1785562547819"><ele>87.0</ele><time>2026-04-19T07:11:11Z</time></trkpt><trkpt lat="45.309374963996135" lon="9.178559270008048"><ele>87.0</ele><time>2026-04-19T07:11:13Z</time></trkpt><trkpt lat="45.30928130293413" lon="9.178560867911633"><ele>87.0</ele><time>2026-04-19T07:11:15Z</time></trkpt><trkpt lat="45.309187047497666" lon="9.17856414789947"><ele>87.0</ele><time>2026-04-19T07:11:17Z</time></trkpt><trkpt lat="45.30908726105813" lon="9.178565129578677"><ele>87.0</ele><time>2026-04-19T07:11:19Z</time></trkpt><trkpt lat="45.30899458052378" lon="9.178568872259465"><ele>86.6</ele><time>2026-04-19T07:11:21Z</time></trkpt><trkpt lat="45.30889963465677" lon="9.178563336778574"><ele>86.19999999999999</ele><time>2026-04-19T07:11:23Z</time></trkpt><trkpt lat="45.308805539060856" lon="9.178567737278454"><ele>85.8</ele><time>2026-04-19T07:11:25Z</time></trkpt><trkpt lat="45.30871348560313" lon="9.178562989010464"><ele>85.4</ele><time>2026-04-19T07:11:27Z</time></trkpt><trkpt lat="45.308621612931276" lon="9.178563915589471"><ele>85.0</ele><time>2026-04-19T07:11:29Z</time></trkpt><trkpt lat="45.308527661015994" lon="9.178565212893853"><ele>85.0</ele><time>2026-04-19T07:11:31Z</time></trkpt><trkpt lat="45.30843140462136" lon="9.178562672773728"><ele>85.0</ele><time>2026-04-19T07:11:33Z</time></trkpt><trkpt lat="45.30833555151405" lon="9.178562623592764"><ele>85.0</ele><time>2026-04-19T07:11:35Z</time></trkpt><trkpt lat="45.30824050628732" lon="9.178561033906231"><ele>85.0</ele><time>2026-04-19T07:11:37Z</time></trkpt><trkpt lat="45.308146780587556" lon="9.178570864460948"><ele>85.0</ele><time>2026-04-19T07:11:39Z</time></trkpt><trkpt lat="45.30806047154668" lon="9.178567587845304"><ele>85.0</ele><time>2026-04-19T07:11:41Z</time></trkpt><trkpt lat="45.307978335137406" lon="9.178571121391643"><ele>85.0</ele><time>2026-04-19T07:11:43Z</time></trkpt><trkpt lat="45.30789530047321" lon="9.178565629668613"><ele>85.0</ele><time>2026-04-19T07:11:45Z</time></trkpt><trkpt lat="45.30781186782318" lon="9.17856601991047"><ele>85.0</ele><time>2026-04-19T07:11:47Z</time></trkpt><trkpt lat="45.30771856083542" lon="9.178562588657947"><ele>85.0</ele><time>2026-04-19T07:11:49Z</time></trkpt><trkpt lat="45.307621475735445" lon="9.178558174797875"><ele>85.0</ele><time>2026-04-19T07:11:51Z</time></trkpt><trkpt lat="45.30752147972812" lon="9.178560014835085"><ele>85.0</ele><time>2026-04-19T07:11:53Z</time></trkpt><trkpt lat="45.30742394155058" lon="9.178567341162278"><ele>85.0</ele><time>2026-04-19T07:11:55Z</time></trkpt><trkpt lat="45.30732921798771" lon="9.1785697360927"><ele>85.0</ele><time>2026-04-19T07:11:57Z</time></trkpt><trkpt lat="45.307225969692006" lon="9.17859095587155"><ele>85.0</ele><time>2026-04-19T07:11:59Z</time></trkpt><trkpt lat="45.307163299814555" lon="9.178612721897855"><ele>85.0</ele><time>2026-04-19T07:12:00Z</time></trkpt><trkpt lat="45.30704756654654" lon="9.17864839593024"><ele>85.4</ele><time>2026-04-19T07:12:02Z</time></trkpt><trkpt lat="45.306941910969584" lon="9.178680163065712"><ele>85.8</ele><time>2026-04-19T07:12:04Z</time></trkpt><trkpt lat="45.30683792747373" lon="9.178711192385624"><ele>86.19999999999999</ele><time>2026-04-19T07:12:06Z</time></trkpt><trkpt lat="45.30673377076818" lon="9.178744557331596"><ele>86.6</ele><time>2026-04-19T07:12:08Z</time></trkpt><trkpt lat="45.3066336618209" lon="9.178775550845222"><ele>87.0</ele><time>2026-04-19T07:12:10Z</time></trkpt><trkpt lat="45.30653768399055" lon="9.178806955428213"><ele>87.0</ele><time>2026-04-19T07:12:12Z</time></trkpt><trkpt lat="45.30643203119335" lon="9.178837634263276"><ele>87.0</ele><time>2026-04-19T07:12:14Z</time></trkpt><trkpt lat="45.3063319442843" lon="9.178867911163064"><ele>87.0</ele><time>2026-04-19T07:12:16Z</time></trkpt><trkpt lat="45.3062309455172" lon="9.178896699210728"><ele>87.0</ele><time>2026-04-19T07:12:18Z</time></trkpt><trkpt lat="45.306136530201236" lon="9.178923595539752"><ele>87.0</ele><time>2026-04-19T07:12:20Z</time></trkpt><trkpt lat="45.30603827917108" lon="9.178953929431573"><ele>87.0</ele><time>2026-04-19T07:12:22Z</time></trkpt><trkpt lat="45.30594573360813" lon="9.178986013330857"><ele>87.0</ele><time>2026-04-19T07:12:24Z</time></trkpt><trkpt lat="45.305847425006235" lon="9.17901395542615"><ele>87.0</ele><time>2026-04-19T07:12:26Z</time></trkpt><trkpt lat="45.30575095676822" lon="9.17905083846625"><ele>87.0</ele><time>2026-04-19T07:12:28Z</time></trkpt><trkpt lat="45.30565637268098" lon="9.179081496056991"><ele>87.0</ele><time>2026-04-19T07:12:30Z</time></trkpt><trkpt lat="45.30556069016979" lon="9.17910434603715"><ele>86.8</ele><time>2026-04-19T07:12:32Z</time></trkpt><trkpt lat="45.3054694930123" lon="9.179141483992181"><ele>86.6</ele><time>2026-04-19T07:12:34Z</time></trkpt><trkpt lat="45.30537880288265" lon="9.17916665580117"><ele>86.39999999999999</ele><time>2026-04-19T07:12:36Z</time></trkpt><trkpt lat="45.305290847416224" lon="9.179197605933107"><ele>86.19999999999999</ele><time>2026-04-19T07:12:38Z</time></trkpt><trkpt lat="45.30520272813204" lon="9.179225371518587"><ele>86.0</ele><time>2026-04-19T07:12:40Z</time></trkpt><trkpt lat="45.30511747568386" lon="9.179252376778702"><ele>86.0</ele><time>2026-04-19T07:12:42Z</time></trkpt><trkpt lat="45.30503572551396" lon="9.179277553892305"><ele>86.0</ele><time>2026-04-19T07:12:44Z</time></trkpt><trkpt lat="45.304951871302826" lon="9.179294702381377"><ele>86.0</ele><time>2026-04-19T07:12:46Z</time></trkpt><trkpt lat="45.30487203092343" lon="9.179324770918344"><ele>86.0</ele><time>2026-04-19T07:12:48Z</time></trkpt><trkpt lat="45.30479040499926" lon="9.179355338796512"><ele>86.0</ele><time>2026-04-19T07:12:50Z</time></trkpt><trkpt lat="45.30470693461836" lon="9.179379457093132"><ele>86.0</ele><time>2026-04-19T07:12:52Z</time></trkpt><trkpt lat="45.30462398304983" lon="9.17940909271087"><ele>86.16666666666667</ele><time>2026-04-19T07:12:54Z</time></trkpt><trkpt lat="45.30453928641732" lon="9.179433585961517"><ele>86.33333333333334</ele><time>2026-04-19T07:12:56Z</time></trkpt><trkpt lat="45.304451759400344" lon="9.179453031787931"><ele>86.5</ele><time>2026-04-19T07:12:58Z</time></trkpt><trkpt lat="45.30436666647978" lon="9.179479123258657"><ele>86.66666666666667</ele><time>2026-04-19T07:13:00Z</time></trkpt><trkpt lat="45.30427963210209" lon="9.179504158018997"><ele>86.83333333333333</ele><time>2026-04-19T07:13:02Z</time></trkpt><trkpt lat="45.30418786939124" lon="9.179532275033003"><ele>87.0</ele><time>2026-04-19T07:13:04Z</time></trkpt><trkpt lat="45.30408947990249" lon="9.179569310523936"><ele>87.0</ele><time>2026-04-19T07:13:06Z</time></trkpt><trkpt lat="45.30399675529686" lon="9.179593007784275"><ele>87.0</ele><time>2026-04-19T07:13:08Z</time></trkpt><trkpt lat="45.303904779793434" lon="9.179631953118763"><ele>87.0</ele><time>2026-04-19T07:13:10Z</time></trkpt><trkpt lat="45.30380979509587" lon="9.179662882390085"><ele>87.0</ele><time>2026-04-19T07:13:12Z</time></trkpt><trkpt lat="45.30372177864381" lon="9.179693384943306"><ele>87.0</ele><time>2026-04-19T07:13:14Z</time></trkpt><trkpt lat="45.30363773131236" lon="9.179734182680447"><ele>87.16666666666667</ele><time>2026-04-19T07:13:16Z</time></trkpt><trkpt lat="45.30355218779494" lon="9.17975992547385"><ele>87.33333333333333</ele><time>2026-04-19T07:13:18Z</time></trkpt><trkpt lat="45.303479159044244" lon="9.179706068857556"><ele>87.5</ele><time>2026-04-19T07:13:20Z</time></trkpt><trkpt lat="45.3034315040526" lon="9.179606789039298"><ele>87.66666666666666</ele><time>2026-04-19T07:13:22Z</time></trkpt><trkpt lat="45.30339676898772" lon="9.179486726243708"><ele>87.83333333333333</ele><time>2026-04-19T07:13:24Z</time></trkpt><trkpt lat="45.30335755056735" lon="9.17937456348383"><ele>88.0</ele><time>2026-04-19T07:13:26Z</time></trkpt><trkpt lat="45.30331789247722" lon="9.179269758138721"><ele>88.0</ele><time>2026-04-19T07:13:28Z</time></trkpt><trkpt lat="45.303278295976064" lon="9.179178388280574"><ele>88.0</ele><time>2026-04-19T07:13:30Z</time></trkpt><trkpt lat="45.303248510721794" lon="9.179097889540387"><ele>88.0</ele><time>2026-04-19T07:13:32Z</time></trkpt><trkpt lat="45.30320416102619" lon="9.179022404207412"><ele>88.0</ele><time>2026-04-19T07:13:35Z</time></trkpt><trkpt lat="45.30315733450017" lon="9.178944502904793"><ele>88.0</ele><time>2026-04-19T07:13:42.999Z</time></trkpt><trkpt lat="45.30309495886809" lon="9.178884469951853"><ele>88.0</ele><time>2026-04-19T07:13:45.999Z</time></trkpt><trkpt lat="45.30299018461023" lon="9.178922317861817"><ele>88.16666666666666</ele><time>2026-04-19T07:13:47.999Z</time></trkpt><trkpt lat="45.3029203981976" lon="9.178987995989111"><ele>88.33333333333333</ele><time>2026-04-19T07:13:49.999Z</time></trkpt><trkpt lat="45.302867819745735" lon="9.179095619535621"><ele>88.5</ele><time>2026-04-19T07:13:51.999Z</time></trkpt><trkpt lat="45.30277353815927" lon="9.179089655200675"><ele>88.66666666666667</ele><time>2026-04-19T07:13:53.999Z</time></trkpt><trkpt lat="45.30269770147489" lon="9.179128252315595"><ele>88.83333333333334</ele><time>2026-04-19T07:13:55.999Z</time></trkpt><trkpt lat="45.30262024432111" lon="9.179181928692868"><ele>89.0</ele><time>2026-04-19T07:13:57.999Z</time></trkpt><trkpt lat="45.30256530683226" lon="9.179292621774355"><ele>88.66666666666667</ele><time>2026-04-19T07:13:59.999Z</time></trkpt><trkpt lat="45.30252670714283" lon="9.179435071146285"><ele>88.33333333333334</ele><time>2026-04-19T07:14:01.999Z</time></trkpt><trkpt lat="45.302487179896275" lon="9.179587518703634"><ele>88.0</ele><time>2026-04-19T07:14:03.999Z</time></trkpt><trkpt lat="45.302465333600765" lon="9.179679720436228"><ele>87.66666666666667</ele><time>2026-04-19T07:14:04.999Z</time></trkpt><trkpt lat="45.30245093368763" lon="9.179774459960539"><ele>87.33333333333333</ele><time>2026-04-19T07:14:05.999Z</time></trkpt><trkpt lat="45.30241919318407" lon="9.179887530974153"><ele>87.0</ele><time>2026-04-19T07:14:06.999Z</time></trkpt><trkpt lat="45.30239079375583" lon="9.180005144568497"><ele>87.0</ele><time>2026-04-19T07:14:07.999Z</time></trkpt><trkpt lat="45.30236053277367" lon="9.180143225035469"><ele>87.0</ele><time>2026-04-19T07:14:08.999Z</time></trkpt><trkpt lat="45.30232737231877" lon="9.180290409405181"><ele>87.0</ele><time>2026-04-19T07:14:09.999Z</time></trkpt><trkpt lat="45.30229765733318" lon="9.180426332885228"><ele>87.0</ele><time>2026-04-19T07:14:10.999Z</time></trkpt><trkpt lat="45.302250806998366" lon="9.180565280758213"><ele>87.0</ele><time>2026-04-19T07:14:11.999Z</time></trkpt><trkpt lat="45.30220498001356" lon="9.180695184268954"><ele>87.0</ele><time>2026-04-19T07:14:12.999Z</time></trkpt><trkpt lat="45.30214409116363" lon="9.180784538929554"><ele>87.0</ele><time>2026-04-19T07:14:13.999Z</time></trkpt><trkpt lat="45.30206494093587" lon="9.180842825742781"><ele>87.0</ele><time>2026-04-19T07:14:14.999Z</time></trkpt><trkpt lat="45.301981623300605" lon="9.18087432676191"><ele>87.0</ele><time>2026-04-19T07:14:15.999Z</time></trkpt><trkpt lat="45.30190907880204" lon="9.180901442177602"><ele>87.0</ele><time>2026-04-19T07:14:16.999Z</time></trkpt><trkpt lat="45.301835039393715" lon="9.180912163018998"><ele>87.0</ele><time>2026-04-19T07:14:17.999Z</time></trkpt><trkpt lat="45.30176713277713" lon="9.18092241338752"><ele>87.0</ele><time>2026-04-19T07:14:18.999Z</time></trkpt><trkpt lat="45.301700683042256" lon="9.180925806447503"><ele>87.0</ele><time>2026-04-19T07:14:19.999Z</time></trkpt><trkpt lat="45.30163294593088" lon="9.180918422076795"><ele>87.0</ele><time>2026-04-19T07:14:20.999Z</time></trkpt><trkpt lat="45.301563208772116" lon="9.180891119357385"><ele>87.0</ele><time>2026-04-19T07:14:21.999Z</time></trkpt><trkpt lat="45.30149985141423" lon="9.180871234299453"><ele>87.0</ele><time>2026-04-19T07:14:22.999Z</time></trkpt><trkpt lat="45.30143463913332" lon="9.180854958230924"><ele>87.0</ele><time>2026-04-19T07:14:23.999Z</time></trkpt><trkpt lat="45.30137101063316" lon="9.180843534079067"><ele>87.0</ele><time>2026-04-19T07:14:24.999Z</time></trkpt><trkpt lat="45.301247330127296" lon="9.1808195366555"><ele>87.39999999999999</ele><time>2026-04-19T07:14:26.999Z</time></trkpt><trkpt lat="45.30112788257918" lon="9.180798870452167"><ele>87.8</ele><time>2026-04-19T07:14:28.999Z</time></trkpt><trkpt lat="45.30101991783825" lon="9.18076951998794"><ele>88.2</ele><time>2026-04-19T07:14:30.999Z</time></trkpt><trkpt lat="45.30091270200483" lon="9.180757740813549"><ele>88.6</ele><time>2026-04-19T07:14:32.999Z</time></trkpt><trkpt lat="45.30081222194446" lon="9.18074615655646"><ele>89.0</ele><time>2026-04-19T07:14:34.999Z</time></trkpt><trkpt lat="45.300720420486904" lon="9.1807238726316"><ele>89.0</ele><time>2026-04-19T07:14:36.999Z</time></trkpt><trkpt lat="45.300631037461656" lon="9.18070234989376"><ele>89.0</ele><time>2026-04-19T07:14:38.999Z</time></trkpt><trkpt lat="45.300540495697554" lon="9.180686420442857"><ele>89.0</ele><time>2026-04-19T07:14:40.999Z</time></trkpt><trkpt lat="45.30044177356004" lon="9.18069295926989"><ele>89.0</ele><time>2026-04-19T07:14:42.999Z</time></trkpt><trkpt lat="45.300337692046526" lon="9.180735829719543"><ele>89.0</ele><time>2026-04-19T07:14:44.999Z</time></trkpt><trkpt lat="45.300232936055686" lon="9.180789465582736"><ele>89.0</ele><time>2026-04-19T07:14:46.999Z</time></trkpt><trkpt lat="45.30012756056756" lon="9.180837510631644"><ele>89.0</ele><time>2026-04-19T07:14:48.999Z</time></trkpt><trkpt lat="45.30002351280761" lon="9.180902120736171"><ele>89.0</ele><time>2026-04-19T07:14:50.999Z</time></trkpt><trkpt lat="45.29990872584186" lon="9.180955944287675"><ele>89.0</ele><time>2026-04-19T07:14:52.999Z</time></trkpt><trkpt lat="45.29980182439572" lon="9.181017569010349"><ele>88.75</ele><time>2026-04-19T07:14:54.999Z</time></trkpt><trkpt lat="45.29969759759934" lon="9.181093095319453"><ele>88.5</ele><time>2026-04-19T07:14:56.999Z</time></trkpt><trkpt lat="45.299598068536284" lon="9.181175141131298"><ele>88.25</ele><time>2026-04-19T07:14:58.999Z</time></trkpt><trkpt lat="45.299501319946565" lon="9.181256244458725"><ele>88.0</ele><time>2026-04-19T07:15:00.999Z</time></trkpt><trkpt lat="45.299405930530845" lon="9.181334853817154"><ele>88.0</ele><time>2026-04-19T07:15:02.999Z</time></trkpt><trkpt lat="45.29931157340531" lon="9.181418153492706"><ele>88.0</ele><time>2026-04-19T07:15:04.999Z</time></trkpt><trkpt lat="45.2992198258281" lon="9.181499709056846"><ele>88.0</ele><time>2026-04-19T07:15:06.999Z</time></trkpt><trkpt lat="45.29913619180546" lon="9.181589137859847"><ele>88.0</ele><time>2026-04-19T07:15:08.999Z</time></trkpt><trkpt lat="45.29904710671498" lon="9.18168494066576"><ele>88.0</ele><time>2026-04-19T07:15:10.999Z</time></trkpt><trkpt lat="45.298960143188815" lon="9.18178763157426"><ele>87.60000000000001</ele><time>2026-04-19T07:15:12.999Z</time></trkpt><trkpt lat="45.298869945877975" lon="9.181878194956841"><ele>87.2</ele><time>2026-04-19T07:15:14.999Z</time></trkpt><trkpt lat="45.29877976081297" lon="9.181971972151121"><ele>86.8</ele><time>2026-04-19T07:15:16.999Z</time></trkpt><trkpt lat="45.29868826503489" lon="9.18206855504755"><ele>86.4</ele><time>2026-04-19T07:15:18.999Z</time></trkpt><trkpt lat="45.298587907079394" lon="9.182142698331205"><ele>86.0</ele><time>2026-04-19T07:15:20.999Z</time></trkpt><trkpt lat="45.29848289322285" lon="9.18221402699394"><ele>86.0</ele><time>2026-04-19T07:15:22.999Z</time></trkpt><trkpt lat="45.29837788913952" lon="9.18227742201175"><ele>86.0</ele><time>2026-04-19T07:15:24.999Z</time></trkpt><trkpt lat="45.29826686555546" lon="9.18234517820751"><ele>86.0</ele><time>2026-04-19T07:15:26.999Z</time></trkpt><trkpt lat="45.298154489272406" lon="9.182417194638793"><ele>86.0</ele><time>2026-04-19T07:15:28.999Z</time></trkpt><trkpt lat="45.29809320764787" lon="9.182448733904137"><ele>86.0</ele><time>2026-04-19T07:15:29.999Z</time></trkpt><trkpt lat="45.29803140762374" lon="9.1824798885639"><ele>85.85714285714286</ele><time>2026-04-19T07:15:30.999Z</time></trkpt><trkpt lat="45.29796768061102" lon="9.182505321892044"><ele>85.71428571428572</ele><time>2026-04-19T07:15:31.999Z</time></trkpt><trkpt lat="45.29790523177966" lon="9.182526979548193"><ele>85.57142857142858</ele><time>2026-04-19T07:15:32.999Z</time></trkpt><trkpt lat="45.29783765219269" lon="9.182542370230781"><ele>85.42857142857143</ele><time>2026-04-19T07:15:33.999Z</time></trkpt><trkpt lat="45.2977699106414" lon="9.182557416118481"><ele>85.28571428571428</ele><time>2026-04-19T07:15:34.999Z</time></trkpt><trkpt lat="45.2977035828452" lon="9.182575974707634"><ele>85.14285714285715</ele><time>2026-04-19T07:15:35.999Z</time></trkpt><trkpt lat="45.297636557427836" lon="9.182586280219052"><ele>85.0</ele><time>2026-04-19T07:15:36.999Z</time></trkpt><trkpt lat="45.297573886302686" lon="9.182610324713472"><ele>85.0</ele><time>2026-04-19T07:15:38Z</time></trkpt><trkpt lat="45.297451693799715" lon="9.182649597348309"><ele>85.0</ele><time>2026-04-19T07:15:40Z</time></trkpt><trkpt lat="45.297339244514575" lon="9.182696716205808"><ele>85.0</ele><time>2026-04-19T07:15:42Z</time></trkpt><trkpt lat="45.2972466568573" lon="9.18275042884416"><ele>85.0</ele><time>2026-04-19T07:15:44Z</time></trkpt><trkpt lat="45.297163938971025" lon="9.182794599500093"><ele>85.0</ele><time>2026-04-19T07:15:46Z</time></trkpt><trkpt lat="45.297086238071465" lon="9.182840813309591"><ele>85.0</ele><time>2026-04-19T07:15:48Z</time></trkpt><trkpt lat="45.29701094012903" lon="9.182884680332627"><ele>85.0</ele><time>2026-04-19T07:15:50Z</time></trkpt><trkpt lat="45.29693616450542" lon="9.18293079303982"><ele>85.0</ele><time>2026-04-19T07:15:52Z</time></trkpt><trkpt lat="45.29684015618684" lon="9.18297670580986"><ele>85.0</ele><time>2026-04-19T07:15:54Z</time></trkpt><trkpt lat="45.29677299885703" lon="9.183022844852081"><ele>85.0</ele><time>2026-04-19T07:15:56Z</time></trkpt><trkpt lat="45.29669083148525" lon="9.182988385452699"><ele>85.0</ele><time>2026-04-19T07:15:58Z</time></trkpt><trkpt lat="45.29660921107494" lon="9.182890813947234"><ele>85.0</ele><time>2026-04-19T07:16:00Z</time></trkpt><trkpt lat="45.29653748661317" lon="9.182794226850678"><ele>85.0</ele><time>2026-04-19T07:16:02Z</time></trkpt><trkpt lat="45.2964575669618" lon="9.182687515048798"><ele>85.0</ele><time>2026-04-19T07:16:04Z</time></trkpt><trkpt lat="45.296392627933386" lon="9.182557819558403"><ele>85.0</ele><time>2026-04-19T07:16:06Z</time></trkpt><trkpt lat="45.296326893468624" lon="9.182419381343694"><ele>85.0</ele><time>2026-04-19T07:16:08Z</time></trkpt><trkpt lat="45.296267253357314" lon="9.182299656804187"><ele>85.0</ele><time>2026-04-19T07:16:10Z</time></trkpt><trkpt lat="45.29621733477875" lon="9.182193607441842"><ele>85.0</ele><time>2026-04-19T07:16:12Z</time></trkpt><trkpt lat="45.29617304024516" lon="9.182094619691778"><ele>85.0</ele><time>2026-04-19T07:16:14Z</time></trkpt><trkpt lat="45.29611548424379" lon="9.181999848807214"><ele>85.0</ele><time>2026-04-19T07:16:16Z</time></trkpt><trkpt lat="45.2960496644447" lon="9.181914388417878"><ele>85.0</ele><time>2026-04-19T07:16:18Z</time></trkpt><trkpt lat="45.29599031305707" lon="9.181819823564881"><ele>85.0</ele><time>2026-04-19T07:16:20Z</time></trkpt><trkpt lat="45.295930801939235" lon="9.18173408715275"><ele>85.0</ele><time>2026-04-19T07:16:22Z</time></trkpt><trkpt lat="45.29586469326473" lon="9.18165111869809"><ele>85.0</ele><time>2026-04-19T07:16:24Z</time></trkpt><trkpt lat="45.29580061536894" lon="9.181553084468042"><ele>85.0</ele><time>2026-04-19T07:16:26Z</time></trkpt><trkpt lat="45.29572693351665" lon="9.181486947096413"><ele>85.0</ele><time>2026-04-19T07:16:28Z</time></trkpt><trkpt lat="45.295655987253134" lon="9.18142035741943"><ele>85.0</ele><time>2026-04-19T07:16:30Z</time></trkpt><trkpt lat="45.295567152941224" lon="9.1813699886575"><ele>85.4</ele><time>2026-04-19T07:16:32Z</time></trkpt><trkpt lat="45.295473344339385" lon="9.181292230598475"><ele>85.8</ele><time>2026-04-19T07:16:34Z</time></trkpt><trkpt lat="45.29538237489258" lon="9.181213956634643"><ele>86.19999999999999</ele><time>2026-04-19T07:16:36Z</time></trkpt><trkpt lat="45.295305401299224" lon="9.181117995911132"><ele>86.6</ele><time>2026-04-19T07:16:38Z</time></trkpt><trkpt lat="45.29523106159386" lon="9.181021794779461"><ele>87.0</ele><time>2026-04-19T07:16:40Z</time></trkpt><trkpt lat="45.29515365334562" lon="9.180935083391145"><ele>87.0</ele><time>2026-04-19T07:16:42Z</time></trkpt><trkpt lat="45.295087397988404" lon="9.180846211352854"><ele>87.0</ele><time>2026-04-19T07:16:44Z</time></trkpt><trkpt lat="45.29502389715194" lon="9.180758847013212"><ele>87.0</ele><time>2026-04-19T07:16:46Z</time></trkpt><trkpt lat="45.294967007276256" lon="9.180682974947597"><ele>87.0</ele><time>2026-04-19T07:16:48Z</time></trkpt><trkpt lat="45.29490213960164" lon="9.180612673521704"><ele>87.0</ele><time>2026-04-19T07:16:50Z</time></trkpt><trkpt lat="45.29482060044265" lon="9.180563749315228"><ele>87.0</ele><time>2026-04-19T07:16:52Z</time></trkpt><trkpt lat="45.294732690494506" lon="9.18056844791818"><ele>87.0</ele><time>2026-04-19T07:16:54Z</time></trkpt><trkpt lat="45.29464615587913" lon="9.18059894914431"><ele>87.0</ele><time>2026-04-19T07:16:56Z</time></trkpt><trkpt lat="45.2945615440013" lon="9.180632835145483"><ele>87.0</ele><time>2026-04-19T07:16:58Z</time></trkpt><trkpt lat="45.29447850987983" lon="9.180683860820928"><ele>87.0</ele><time>2026-04-19T07:17:00Z</time></trkpt><trkpt lat="45.29439323152335" lon="9.180737210591527"><ele>87.0</ele><time>2026-04-19T07:17:02Z</time></trkpt><trkpt lat="45.29430736318034" lon="9.180812772665096"><ele>87.0</ele><time>2026-04-19T07:17:04Z</time></trkpt><trkpt lat="45.29421472500072" lon="9.180889251611578"><ele>87.0</ele><time>2026-04-19T07:17:06Z</time></trkpt><trkpt lat="45.294117609762246" lon="9.180954407069997"><ele>87.0</ele><time>2026-04-19T07:17:08Z</time></trkpt><trkpt lat="45.29402190048975" lon="9.181016130777971"><ele>87.0</ele><time>2026-04-19T07:17:10Z</time></trkpt><trkpt lat="45.29392573767404" lon="9.181071764628589"><ele>87.0</ele><time>2026-04-19T07:17:12Z</time></trkpt><trkpt lat="45.2938271172039" lon="9.181128454571846"><ele>87.0</ele><time>2026-04-19T07:17:14Z</time></trkpt><trkpt lat="45.29373443639826" lon="9.181181168649973"><ele>87.0</ele><time>2026-04-19T07:17:16Z</time></trkpt><trkpt lat="45.293641923009595" lon="9.181240132711965"><ele>87.0</ele><time>2026-04-19T07:17:18Z</time></trkpt><trkpt lat="45.29354891016384" lon="9.181283921215941"><ele>87.0</ele><time>2026-04-19T07:17:20Z</time></trkpt><trkpt lat="45.29345759497209" lon="9.181333689425633"><ele>87.0</ele><time>2026-04-19T07:17:22Z</time></trkpt><trkpt lat="45.29335512994929" lon="9.18135747181364"><ele>87.0</ele><time>2026-04-19T07:17:24Z</time></trkpt><trkpt lat="45.2932628286367" lon="9.18141231212074"><ele>87.0</ele><time>2026-04-19T07:17:26Z</time></trkpt><trkpt lat="45.29317380774199" lon="9.181481828512362"><ele>87.0</ele><time>2026-04-19T07:17:28Z</time></trkpt><trkpt lat="45.29309066768281" lon="9.181572450317914"><ele>87.0</ele><time>2026-04-19T07:17:30Z</time></trkpt><trkpt lat="45.29300100496447" lon="9.181648527735291"><ele>87.0</ele><time>2026-04-19T07:17:32Z</time></trkpt><trkpt lat="45.29290952592097" lon="9.181720416517363"><ele>87.19999999999999</ele><time>2026-04-19T07:17:34Z</time></trkpt><trkpt lat="45.292812016376175" lon="9.181790775218605"><ele>87.4</ele><time>2026-04-19T07:17:36Z</time></trkpt><trkpt lat="45.29268848420335" lon="9.181857323822951"><ele>87.6</ele><time>2026-04-19T07:17:38Z</time></trkpt><trkpt lat="45.292620516700865" lon="9.181939044686874"><ele>87.80000000000001</ele><time>2026-04-19T07:17:40Z</time></trkpt><trkpt lat="45.29252437032371" lon="9.182008549708033"><ele>88.0</ele><time>2026-04-19T07:17:42Z</time></trkpt><trkpt lat="45.29243326873818" lon="9.182081699279788"><ele>88.0</ele><time>2026-04-19T07:17:44Z</time></trkpt><trkpt lat="45.29233871234016" lon="9.182151239934809"><ele>88.0</ele><time>2026-04-19T07:17:46Z</time></trkpt><trkpt lat="45.29224127939109" lon="9.182218894945889"><ele>88.0</ele><time>2026-04-19T07:17:48Z</time></trkpt><trkpt lat="45.29214102159041" lon="9.182299572872832"><ele>88.0</ele><time>2026-04-19T07:17:50Z</time></trkpt><trkpt lat="45.29204722098675" lon="9.18238924035859"><ele>88.0</ele><time>2026-04-19T07:17:52Z</time></trkpt><trkpt lat="45.291947667175585" lon="9.18247021628644"><ele>88.0</ele><time>2026-04-19T07:17:54Z</time></trkpt><trkpt lat="45.29185279962579" lon="9.18256339802677"><ele>88.0</ele><time>2026-04-19T07:17:56Z</time></trkpt><trkpt lat="45.29175735523686" lon="9.182652702295005"><ele>88.0</ele><time>2026-04-19T07:17:58Z</time></trkpt><trkpt lat="45.29166796415957" lon="9.182747785298911"><ele>88.0</ele><time>2026-04-19T07:18:00Z</time></trkpt><trkpt lat="45.291571223541254" lon="9.182823330739229"><ele>88.0</ele><time>2026-04-19T07:18:02Z</time></trkpt><trkpt lat="45.291485968206636" lon="9.182930103699427"><ele>88.0</ele><time>2026-04-19T07:18:04Z</time></trkpt><trkpt lat="45.29138560137905" lon="9.183030043561576"><ele>88.0</ele><time>2026-04-19T07:18:06Z</time></trkpt><trkpt lat="45.29133851352957" lon="9.183089509492753"><ele>88.0</ele><time>2026-04-19T07:18:07Z</time></trkpt><trkpt lat="45.29124194352843" lon="9.183190351647891"><ele>88.0</ele><time>2026-04-19T07:18:09Z</time></trkpt><trkpt lat="45.29119099018919" lon="9.183248513739777"><ele>87.85714285714286</ele><time>2026-04-19T07:18:10Z</time></trkpt><trkpt lat="45.29113677380746" lon="9.183305074639403"><ele>87.71428571428571</ele><time>2026-04-19T07:18:11Z</time></trkpt><trkpt lat="45.29108106203726" lon="9.183361455220446"><ele>87.57142857142857</ele><time>2026-04-19T07:18:12Z</time></trkpt><trkpt lat="45.29102377348765" lon="9.183412426090928"><ele>87.42857142857143</ele><time>2026-04-19T07:18:13Z</time></trkpt><trkpt lat="45.29096627916077" lon="9.183458776432612"><ele>87.28571428571429</ele><time>2026-04-19T07:18:14Z</time></trkpt><trkpt lat="45.29090775453288" lon="9.183507491084288"><ele>87.14285714285714</ele><time>2026-04-19T07:18:15Z</time></trkpt><trkpt lat="45.290846002002716" lon="9.183552770311548"><ele>87.0</ele><time>2026-04-19T07:18:16Z</time></trkpt><trkpt lat="45.29078613939883" lon="9.183591081587974"><ele>87.0</ele><time>2026-04-19T07:18:17Z</time></trkpt><trkpt lat="45.29073012429695" lon="9.183634593872188"><ele>87.0</ele><time>2026-04-19T07:18:18Z</time></trkpt><trkpt lat="45.29062489976459" lon="9.183707178626795"><ele>87.0</ele><time>2026-04-19T07:18:20Z</time></trkpt><trkpt lat="45.290525423810585" lon="9.183768163811079"><ele>87.0</ele><time>2026-04-19T07:18:22Z</time></trkpt><trkpt lat="45.2904213396545" lon="9.183818488559663"><ele>87.0</ele><time>2026-04-19T07:18:24Z</time></trkpt><trkpt lat="45.2903213311155" lon="9.183905312328552"><ele>87.0</ele><time>2026-04-19T07:18:26Z</time></trkpt><trkpt lat="45.29021741981197" lon="9.18396052573985"><ele>87.0</ele><time>2026-04-19T07:18:28Z</time></trkpt><trkpt lat="45.29012118790156" lon="9.18401640179094"><ele>87.0</ele><time>2026-04-19T07:18:30Z</time></trkpt><trkpt lat="45.290033509782326" lon="9.18406556210946"><ele>87.0</ele><time>2026-04-19T07:18:32Z</time></trkpt><trkpt lat="45.289936953105844" lon="9.184122854295095"><ele>87.0</ele><time>2026-04-19T07:18:34Z</time></trkpt><trkpt lat="45.28984310187514" lon="9.184197840381668"><ele>87.0</ele><time>2026-04-19T07:18:36Z</time></trkpt><trkpt lat="45.28975252831475" lon="9.184268703047332"><ele>87.0</ele><time>2026-04-19T07:18:38Z</time></trkpt><trkpt lat="45.289667240321464" lon="9.184353850481243"><ele>87.0</ele><time>2026-04-19T07:18:40Z</time></trkpt><trkpt lat="45.28957995632772" lon="9.184443667414717"><ele>87.0</ele><time>2026-04-19T07:18:42Z</time></trkpt><trkpt lat="45.28949698105734" lon="9.184533898333815"><ele>87.0</ele><time>2026-04-19T07:18:44Z</time></trkpt><trkpt lat="45.28941496105993" lon="9.184620340641565"><ele>87.0</ele><time>2026-04-19T07:18:46Z</time></trkpt><trkpt lat="45.2893283596827" lon="9.184710903170242"><ele>87.0</ele><time>2026-04-19T07:18:48Z</time></trkpt><trkpt lat="45.28924481985599" lon="9.184824196708396"><ele>87.0</ele><time>2026-04-19T07:18:50Z</time></trkpt><trkpt lat="45.28916946748411" lon="9.18495058180208"><ele>87.0</ele><time>2026-04-19T07:18:52Z</time></trkpt><trkpt lat="45.289096291346084" lon="9.185064202111798"><ele>87.0</ele><time>2026-04-19T07:18:54Z</time></trkpt><trkpt lat="45.28901735747687" lon="9.185172308748779"><ele>86.75</ele><time>2026-04-19T07:18:56Z</time></trkpt><trkpt lat="45.288956560279885" lon="9.1853076658815"><ele>86.5</ele><time>2026-04-19T07:18:58Z</time></trkpt><trkpt lat="45.288890862252856" lon="9.185435046657313"><ele>86.25</ele><time>2026-04-19T07:19:00Z</time></trkpt><trkpt lat="45.288820503980574" lon="9.185564333392087"><ele>86.0</ele><time>2026-04-19T07:19:02Z</time></trkpt><trkpt lat="45.288755364547185" lon="9.185695012905125"><ele>86.6</ele><time>2026-04-19T07:19:04Z</time></trkpt><trkpt lat="45.28868579460584" lon="9.185808275359484"><ele>87.19999999999999</ele><time>2026-04-19T07:19:06Z</time></trkpt><trkpt lat="45.288630480578206" lon="9.185934314025404"><ele>87.80000000000001</ele><time>2026-04-19T07:19:08Z</time></trkpt><trkpt lat="45.28856133976437" lon="9.186053824966963"><ele>88.4</ele><time>2026-04-19T07:19:10Z</time></trkpt><trkpt lat="45.28849618164569" lon="9.186180069507794"><ele>89.0</ele><time>2026-04-19T07:19:12Z</time></trkpt><trkpt lat="45.288422599388596" lon="9.186284401914243"><ele>89.0</ele><time>2026-04-19T07:19:14Z</time></trkpt><trkpt lat="45.28836522220457" lon="9.186411250089842"><ele>89.0</ele><time>2026-04-19T07:19:16Z</time></trkpt><trkpt lat="45.28830445205954" lon="9.186524738770329"><ele>89.0</ele><time>2026-04-19T07:19:18Z</time></trkpt><trkpt lat="45.288229797600124" lon="9.186610650713094"><ele>89.0</ele><time>2026-04-19T07:19:20Z</time></trkpt><trkpt lat="45.28812794409663" lon="9.18662566388165"><ele>89.0</ele><time>2026-04-19T07:19:22Z</time></trkpt><trkpt lat="45.2880275309006" lon="9.186563329731667"><ele>88.6</ele><time>2026-04-19T07:19:24Z</time></trkpt><trkpt lat="45.28791684208097" lon="9.186558258469997"><ele>88.2</ele><time>2026-04-19T07:19:26Z</time></trkpt><trkpt lat="45.28781279225296" lon="9.18655988796"><ele>87.8</ele><time>2026-04-19T07:19:28Z</time></trkpt><trkpt lat="45.28771041024604" lon="9.186586451305098"><ele>87.39999999999999</ele><time>2026-04-19T07:19:30Z</time></trkpt><trkpt lat="45.28760714196295" lon="9.186604671579286"><ele>87.0</ele><time>2026-04-19T07:19:32Z</time></trkpt><trkpt lat="45.287507185782445" lon="9.186629796913573"><ele>87.0</ele><time>2026-04-19T07:19:34Z</time></trkpt><trkpt lat="45.287409591236226" lon="9.186648151596687"><ele>87.0</ele><time>2026-04-19T07:19:36Z</time></trkpt><trkpt lat="45.28731311686442" lon="9.18666891687044"><ele>87.0</ele><time>2026-04-19T07:19:38Z</time></trkpt><trkpt lat="45.28721395421506" lon="9.186690917528262"><ele>87.0</ele><time>2026-04-19T07:19:40Z</time></trkpt><trkpt lat="45.28711314514862" lon="9.186718553887836"><ele>87.0</ele><time>2026-04-19T07:19:42Z</time></trkpt><trkpt lat="45.28700970809985" lon="9.186735807821762"><ele>87.19999999999999</ele><time>2026-04-19T07:19:44Z</time></trkpt><trkpt lat="45.28690778184852" lon="9.186761866913034"><ele>87.4</ele><time>2026-04-19T07:19:46Z</time></trkpt><trkpt lat="45.28680084555481" lon="9.186787874739467"><ele>87.6</ele><time>2026-04-19T07:19:48Z</time></trkpt><trkpt lat="45.28669389388869" lon="9.186807267132806"><ele>87.80000000000001</ele><time>2026-04-19T07:19:50Z</time></trkpt><trkpt lat="45.28659041037791" lon="9.18683748816895"><ele>88.0</ele><time>2026-04-19T07:19:52Z</time></trkpt><trkpt lat="45.28648592494707" lon="9.186865945701706"><ele>87.60000000000001</ele><time>2026-04-19T07:19:54Z</time></trkpt><trkpt lat="45.28638392788241" lon="9.186890908145248"><ele>87.2</ele><time>2026-04-19T07:19:56Z</time></trkpt><trkpt lat="45.286285890454714" lon="9.186914603698522"><ele>86.8</ele><time>2026-04-19T07:19:58Z</time></trkpt><trkpt lat="45.286195719005384" lon="9.186940144356763"><ele>86.4</ele><time>2026-04-19T07:20:00Z</time></trkpt><trkpt lat="45.2861073645607" lon="9.18696647327545"><ele>86.0</ele><time>2026-04-19T07:20:02Z</time></trkpt><trkpt lat="45.285998490868565" lon="9.186994066610678"><ele>86.0</ele><time>2026-04-19T07:20:04Z</time></trkpt><trkpt lat="45.285895701585204" lon="9.187019755154374"><ele>86.0</ele><time>2026-04-19T07:20:06Z</time></trkpt><trkpt lat="45.28579403076116" lon="9.187047893054814"><ele>86.0</ele><time>2026-04-19T07:20:08Z</time></trkpt><trkpt lat="45.28568737197472" lon="9.187073735203297"><ele>86.0</ele><time>2026-04-19T07:20:10Z</time></trkpt><trkpt lat="45.28558176874206" lon="9.187099589578978"><ele>86.0</ele><time>2026-04-19T07:20:12Z</time></trkpt><trkpt lat="45.285467587728625" lon="9.187132686205471"><ele>85.8</ele><time>2026-04-19T07:20:14Z</time></trkpt><trkpt lat="45.28536174164805" lon="9.187157751320319"><ele>85.6</ele><time>2026-04-19T07:20:16Z</time></trkpt><trkpt lat="45.28526101423853" lon="9.187179422140549"><ele>85.4</ele><time>2026-04-19T07:20:18Z</time></trkpt><trkpt lat="45.28515863010212" lon="9.187199311757071"><ele>85.2</ele><time>2026-04-19T07:20:20Z</time></trkpt><trkpt lat="45.28505757006179" lon="9.187220186756909"><ele>85.0</ele><time>2026-04-19T07:20:22Z</time></trkpt><trkpt lat="45.2849540927227" lon="9.187240724991396"><ele>85.0</ele><time>2026-04-19T07:20:24Z</time></trkpt><trkpt lat="45.28485185434544" lon="9.187261539676944"><ele>85.0</ele><time>2026-04-19T07:20:26Z</time></trkpt><trkpt lat="45.28474861427882" lon="9.18727945020781"><ele>85.0</ele><time>2026-04-19T07:20:28Z</time></trkpt><trkpt lat="45.28465006661787" lon="9.187296891326326"><ele>85.0</ele><time>2026-04-19T07:20:30Z</time></trkpt><trkpt lat="45.284559141493794" lon="9.18730759134439"><ele>85.0</ele><time>2026-04-19T07:20:32Z</time></trkpt><trkpt lat="45.28447275870712" lon="9.187318262157012"><ele>85.0</ele><time>2026-04-19T07:20:34Z</time></trkpt><trkpt lat="45.284385704015655" lon="9.1873530580118"><ele>85.0</ele><time>2026-04-19T07:20:36Z</time></trkpt><trkpt lat="45.28432417442387" lon="9.187463646046805"><ele>85.0</ele><time>2026-04-19T07:20:38Z</time></trkpt><trkpt lat="45.28434817336093" lon="9.187620726677686"><ele>85.0</ele><time>2026-04-19T07:20:40Z</time></trkpt><trkpt lat="45.2843775866853" lon="9.187759818989244"><ele>85.0</ele><time>2026-04-19T07:20:42Z</time></trkpt><trkpt lat="45.284397731535506" lon="9.187899639680232"><ele>85.0</ele><time>2026-04-19T07:20:44Z</time></trkpt><trkpt lat="45.284414196388376" lon="9.188044271212926"><ele>85.0</ele><time>2026-04-19T07:20:46Z</time></trkpt><trkpt lat="45.28444004257118" lon="9.188183971461632"><ele>85.0</ele><time>2026-04-19T07:20:48Z</time></trkpt><trkpt lat="45.28446746257694" lon="9.188318289641973"><ele>85.0</ele><time>2026-04-19T07:20:50Z</time></trkpt><trkpt lat="45.28448317962484" lon="9.18844745541321"><ele>85.0</ele><time>2026-04-19T07:20:52Z</time></trkpt><trkpt lat="45.284508167981485" lon="9.188579143047141"><ele>85.0</ele><time>2026-04-19T07:20:54Z</time></trkpt><trkpt lat="45.28452443316322" lon="9.188716783245479"><ele>85.0</ele><time>2026-04-19T07:20:56Z</time></trkpt><trkpt lat="45.28454079425092" lon="9.188854703959107"><ele>85.0</ele><time>2026-04-19T07:20:58Z</time></trkpt><trkpt lat="45.28455600946653" lon="9.188988341735136"><ele>85.0</ele><time>2026-04-19T07:21:00Z</time></trkpt><trkpt lat="45.284574018998065" lon="9.189124504630312"><ele>85.0</ele><time>2026-04-19T07:21:02Z</time></trkpt><trkpt lat="45.28460501701004" lon="9.18926280161052"><ele>85.0</ele><time>2026-04-19T07:21:04Z</time></trkpt><trkpt lat="45.2846227550259" lon="9.189407139294527"><ele>85.0</ele><time>2026-04-19T07:21:06Z</time></trkpt><trkpt lat="45.28464862142178" lon="9.189544465100534"><ele>85.0</ele><time>2026-04-19T07:21:08Z</time></trkpt><trkpt lat="45.284669049024245" lon="9.189673336386907"><ele>85.0</ele><time>2026-04-19T07:21:10Z</time></trkpt><trkpt lat="45.28469701602652" lon="9.18982412872825"><ele>85.0</ele><time>2026-04-19T07:21:12Z</time></trkpt><trkpt lat="45.2847287949427" lon="9.189969904718712"><ele>85.2</ele><time>2026-04-19T07:21:14Z</time></trkpt><trkpt lat="45.284760641092426" lon="9.190108246203858"><ele>85.4</ele><time>2026-04-19T07:21:16Z</time></trkpt><trkpt lat="45.284785546702444" lon="9.190246855891232"><ele>85.6</ele><time>2026-04-19T07:21:18Z</time></trkpt><trkpt lat="45.28481127142119" lon="9.190382558938335"><ele>85.8</ele><time>2026-04-19T07:21:20Z</time></trkpt><trkpt lat="45.28483921825737" lon="9.19051464062148"><ele>86.0</ele><time>2026-04-19T07:21:22Z</time></trkpt><trkpt lat="45.2848752511925" lon="9.190647092065431"><ele>86.0</ele><time>2026-04-19T07:21:24Z</time></trkpt><trkpt lat="45.28490635442047" lon="9.190779414423476"><ele>86.0</ele><time>2026-04-19T07:21:26Z</time></trkpt><trkpt lat="45.28493855670077" lon="9.190912767266095"><ele>86.0</ele><time>2026-04-19T07:21:28Z</time></trkpt><trkpt lat="45.28497852003165" lon="9.191054433996852"><ele>86.0</ele><time>2026-04-19T07:21:30Z</time></trkpt><trkpt lat="45.285014924092124" lon="9.191191862734007"><ele>86.0</ele><time>2026-04-19T07:21:32Z</time></trkpt><trkpt lat="45.28504084161608" lon="9.1913313045942"><ele>86.0</ele><time>2026-04-19T07:21:34Z</time></trkpt><trkpt lat="45.28506170154002" lon="9.191475600761555"><ele>86.0</ele><time>2026-04-19T07:21:36Z</time></trkpt><trkpt lat="45.285084022830034" lon="9.191620408819016"><ele>86.0</ele><time>2026-04-19T07:21:38Z</time></trkpt><trkpt lat="45.285091889763386" lon="9.191762987282576"><ele>86.0</ele><time>2026-04-19T07:21:40Z</time></trkpt><trkpt lat="45.28510890848632" lon="9.191906120638349"><ele>86.0</ele><time>2026-04-19T07:21:42Z</time></trkpt><trkpt lat="45.28513467090964" lon="9.19204206385837"><ele>86.0</ele><time>2026-04-19T07:21:44Z</time></trkpt><trkpt lat="45.28515670791981" lon="9.192185415526875"><ele>86.0</ele><time>2026-04-19T07:21:46Z</time></trkpt><trkpt lat="45.28517498200051" lon="9.192328276723776"><ele>86.0</ele><time>2026-04-19T07:21:48Z</time></trkpt><trkpt lat="45.28519734644555" lon="9.192473794497339"><ele>86.0</ele><time>2026-04-19T07:21:50Z</time></trkpt><trkpt lat="45.28518037664148" lon="9.192619616557964"><ele>86.0</ele><time>2026-04-19T07:21:52Z</time></trkpt><trkpt lat="45.28511427658222" lon="9.192753555079399"><ele>86.0</ele><time>2026-04-19T07:21:54Z</time></trkpt><trkpt lat="45.28500360694368" lon="9.192809156042063"><ele>86.0</ele><time>2026-04-19T07:21:56Z</time></trkpt><trkpt lat="45.28490796000713" lon="9.19285704397091"><ele>86.0</ele><time>2026-04-19T07:21:58Z</time></trkpt><trkpt lat="45.284809319663836" lon="9.192905939419155"><ele>86.0</ele><time>2026-04-19T07:22:00Z</time></trkpt><trkpt lat="45.28471378532395" lon="9.19295096081568"><ele>86.0</ele><time>2026-04-19T07:22:02Z</time></trkpt><trkpt lat="45.28462359958056" lon="9.19302292331307"><ele>86.0</ele><time>2026-04-19T07:22:04Z</time></trkpt><trkpt lat="45.284548414076596" lon="9.19312462319291"><ele>86.0</ele><time>2026-04-19T07:22:06Z</time></trkpt><trkpt lat="45.28448937328472" lon="9.193248398779303"><ele>86.0</ele><time>2026-04-19T07:22:08Z</time></trkpt><trkpt lat="45.28444475713681" lon="9.193381522269245"><ele>86.0</ele><time>2026-04-19T07:22:10Z</time></trkpt><trkpt lat="45.284394163316286" lon="9.193517334419594"><ele>86.0</ele><time>2026-04-19T07:22:12Z</time></trkpt><trkpt lat="45.28434938276903" lon="9.193655922772315"><ele>85.8</ele><time>2026-04-19T07:22:14Z</time></trkpt><trkpt lat="45.28431328109996" lon="9.193800227882011"><ele>85.6</ele><time>2026-04-19T07:22:16Z</time></trkpt><trkpt lat="45.284252045279366" lon="9.19392700205975"><ele>85.4</ele><time>2026-04-19T07:22:18Z</time></trkpt><trkpt lat="45.28420153135347" lon="9.194053768771566"><ele>85.2</ele><time>2026-04-19T07:22:20Z</time></trkpt><trkpt lat="45.28415177466521" lon="9.194182060334859"><ele>85.0</ele><time>2026-04-19T07:22:22Z</time></trkpt><trkpt lat="45.28409592315396" lon="9.194303612898246"><ele>85.0</ele><time>2026-04-19T07:22:24Z</time></trkpt><trkpt lat="45.2840433252083" lon="9.194426604126111"><ele>85.0</ele><time>2026-04-19T07:22:26Z</time></trkpt><trkpt lat="45.28399740312674" lon="9.194557031784308"><ele>85.0</ele><time>2026-04-19T07:22:28Z</time></trkpt><trkpt lat="45.28394996905776" lon="9.194686549979915"><ele>85.0</ele><time>2026-04-19T07:22:30Z</time></trkpt><trkpt lat="45.28391476575613" lon="9.194817797710623"><ele>85.0</ele><time>2026-04-19T07:22:32Z</time></trkpt><trkpt lat="45.28387132007823" lon="9.19495625212724"><ele>85.2</ele><time>2026-04-19T07:22:34Z</time></trkpt><trkpt lat="45.283827415938944" lon="9.195096810059688"><ele>85.4</ele><time>2026-04-19T07:22:36Z</time></trkpt><trkpt lat="45.283777814377935" lon="9.195229452505473"><ele>85.6</ele><time>2026-04-19T07:22:38Z</time></trkpt><trkpt lat="45.28371839701966" lon="9.19535328650331"><ele>85.8</ele><time>2026-04-19T07:22:40Z</time></trkpt><trkpt lat="45.28365909754397" lon="9.195471823556298"><ele>86.0</ele><time>2026-04-19T07:22:42Z</time></trkpt><trkpt lat="45.283605282196696" lon="9.195590939335313"><ele>86.0</ele><time>2026-04-19T07:22:44Z</time></trkpt><trkpt lat="45.28355021904053" lon="9.195710452647502"><ele>86.0</ele><time>2026-04-19T07:22:46Z</time></trkpt><trkpt lat="45.28349255443504" lon="9.19583224578038"><ele>86.0</ele><time>2026-04-19T07:22:48Z</time></trkpt><trkpt lat="45.28343573407462" lon="9.195959695588442"><ele>86.0</ele><time>2026-04-19T07:22:50Z</time></trkpt><trkpt lat="45.28337996644216" lon="9.196087624175425"><ele>86.0</ele><time>2026-04-19T07:22:52Z</time></trkpt><trkpt lat="45.28332704394138" lon="9.196213414076443"><ele>86.0</ele><time>2026-04-19T07:22:54Z</time></trkpt><trkpt lat="45.28327272922634" lon="9.196345758078152"><ele>86.0</ele><time>2026-04-19T07:22:56Z</time></trkpt><trkpt lat="45.28321668696515" lon="9.196479691897586"><ele>86.0</ele><time>2026-04-19T07:22:58Z</time></trkpt><trkpt lat="45.28317485854537" lon="9.196614012395564"><ele>86.0</ele><time>2026-04-19T07:23:00Z</time></trkpt><trkpt lat="45.2831426007922" lon="9.196754659703378"><ele>86.0</ele><time>2026-04-19T07:23:02Z</time></trkpt><trkpt lat="45.28311808866729" lon="9.196895032782843"><ele>86.0</ele><time>2026-04-19T07:23:04Z</time></trkpt><trkpt lat="45.28309718988416" lon="9.197039325387593"><ele>86.0</ele><time>2026-04-19T07:23:06Z</time></trkpt><trkpt lat="45.28306988718557" lon="9.197185668048817"><ele>86.0</ele><time>2026-04-19T07:23:08Z</time></trkpt><trkpt lat="45.28302741788237" lon="9.19732387094473"><ele>86.0</ele><time>2026-04-19T07:23:10Z</time></trkpt><trkpt lat="45.282964748307826" lon="9.197454508728791"><ele>86.0</ele><time>2026-04-19T07:23:12Z</time></trkpt><trkpt lat="45.28288115288899" lon="9.19755455894142"><ele>86.0</ele><time>2026-04-19T07:23:14Z</time></trkpt><trkpt lat="45.28278294922604" lon="9.197624653195223"><ele>86.0</ele><time>2026-04-19T07:23:16Z</time></trkpt><trkpt lat="45.28267843481113" lon="9.197675286370869"><ele>86.0</ele><time>2026-04-19T07:23:18Z</time></trkpt><trkpt lat="45.28257531327463" lon="9.19771173355052"><ele>86.0</ele><time>2026-04-19T07:23:20Z</time></trkpt><trkpt lat="45.282477729578744" lon="9.19775677075344"><ele>86.0</ele><time>2026-04-19T07:23:22Z</time></trkpt><trkpt lat="45.28238036318535" lon="9.197809348370722"><ele>86.0</ele><time>2026-04-19T07:23:24Z</time></trkpt><trkpt lat="45.28229202412597" lon="9.197888047313484"><ele>86.0</ele><time>2026-04-19T07:23:26Z</time></trkpt><trkpt lat="45.2822142457277" lon="9.197983812696483"><ele>86.0</ele><time>2026-04-19T07:23:28Z</time></trkpt><trkpt lat="45.28213495206447" lon="9.198087325977971"><ele>86.0</ele><time>2026-04-19T07:23:30Z</time></trkpt><trkpt lat="45.28205652164117" lon="9.198191537285242"><ele>86.0</ele><time>2026-04-19T07:23:32Z</time></trkpt><trkpt lat="45.28197400689188" lon="9.198290267377672"><ele>86.0</ele><time>2026-04-19T07:23:34Z</time></trkpt><trkpt lat="45.28189149433722" lon="9.198387620428635"><ele>86.0</ele><time>2026-04-19T07:23:36Z</time></trkpt><trkpt lat="45.28181045266731" lon="9.198491125751932"><ele>86.0</ele><time>2026-04-19T07:23:38Z</time></trkpt><trkpt lat="45.28173385737895" lon="9.198601500042308"><ele>86.0</ele><time>2026-04-19T07:23:40Z</time></trkpt><trkpt lat="45.28165640182233" lon="9.198714175140196"><ele>86.0</ele><time>2026-04-19T07:23:42Z</time></trkpt><trkpt lat="45.28158794089774" lon="9.198832220714836"><ele>86.0</ele><time>2026-04-19T07:23:44Z</time></trkpt><trkpt lat="45.2815140953599" lon="9.198956837406561"><ele>86.0</ele><time>2026-04-19T07:23:46Z</time></trkpt><trkpt lat="45.28144484928004" lon="9.199072027087603"><ele>86.0</ele><time>2026-04-19T07:23:48Z</time></trkpt><trkpt lat="45.281378160335905" lon="9.199189114280793"><ele>86.0</ele><time>2026-04-19T07:23:50Z</time></trkpt><trkpt lat="45.28130067024355" lon="9.19929797873222"><ele>86.0</ele><time>2026-04-19T07:23:52Z</time></trkpt><trkpt lat="45.281226324638936" lon="9.199403667493586"><ele>86.0</ele><time>2026-04-19T07:23:54Z</time></trkpt><trkpt lat="45.281147952775704" lon="9.199505611146552"><ele>86.0</ele><time>2026-04-19T07:23:56Z</time></trkpt><trkpt lat="45.28107494843136" lon="9.1996127618722"><ele>86.0</ele><time>2026-04-19T07:23:58Z</time></trkpt><trkpt lat="45.28100636309812" lon="9.199725317184388"><ele>86.0</ele><time>2026-04-19T07:24:00Z</time></trkpt><trkpt lat="45.28093885910651" lon="9.199834774061934"><ele>86.0</ele><time>2026-04-19T07:24:02Z</time></trkpt><trkpt lat="45.28087530392808" lon="9.199953089357383"><ele>85.8</ele><time>2026-04-19T07:24:04Z</time></trkpt><trkpt lat="45.28080108658178" lon="9.200067224242972"><ele>85.6</ele><time>2026-04-19T07:24:06Z</time></trkpt><trkpt lat="45.28073598075298" lon="9.200191745384947"><ele>85.4</ele><time>2026-04-19T07:24:08Z</time></trkpt><trkpt lat="45.28066472100591" lon="9.200304697884444"><ele>85.2</ele><time>2026-04-19T07:24:10Z</time></trkpt><trkpt lat="45.280591830299734" lon="9.200418187560901"><ele>85.0</ele><time>2026-04-19T07:24:12Z</time></trkpt><trkpt lat="45.28052298664285" lon="9.200533379861493"><ele>85.0</ele><time>2026-04-19T07:24:14Z</time></trkpt><trkpt lat="45.280456378681016" lon="9.200647141107792"><ele>85.0</ele><time>2026-04-19T07:24:16Z</time></trkpt><trkpt lat="45.280395199064905" lon="9.200765242749783"><ele>85.0</ele><time>2026-04-19T07:24:18Z</time></trkpt><trkpt lat="45.2803455890584" lon="9.200894428256607"><ele>85.0</ele><time>2026-04-19T07:24:20Z</time></trkpt><trkpt lat="45.28030847129962" lon="9.201040397444993"><ele>85.0</ele><time>2026-04-19T07:24:22Z</time></trkpt><trkpt lat="45.28029426084669" lon="9.201185361314991"><ele>85.0</ele><time>2026-04-19T07:24:24Z</time></trkpt><trkpt lat="45.28029766393073" lon="9.201325631953681"><ele>85.0</ele><time>2026-04-19T07:24:26Z</time></trkpt><trkpt lat="45.28030417479578" lon="9.201479916371175"><ele>85.0</ele><time>2026-04-19T07:24:28Z</time></trkpt><trkpt lat="45.2803110963691" lon="9.201631099654419"><ele>85.0</ele><time>2026-04-19T07:24:30Z</time></trkpt><trkpt lat="45.28031813643064" lon="9.201777115032183"><ele>85.0</ele><time>2026-04-19T07:24:32Z</time></trkpt><trkpt lat="45.280319311742474" lon="9.201923143063338"><ele>85.0</ele><time>2026-04-19T07:24:34Z</time></trkpt><trkpt lat="45.28032889757285" lon="9.202061757690274"><ele>85.0</ele><time>2026-04-19T07:24:36Z</time></trkpt><trkpt lat="45.280341981840955" lon="9.202196939769756"><ele>85.0</ele><time>2026-04-19T07:24:38Z</time></trkpt><trkpt lat="45.280348007747214" lon="9.202340423633188"><ele>85.0</ele><time>2026-04-19T07:24:40Z</time></trkpt><trkpt lat="45.28036229934044" lon="9.202475512259523"><ele>85.0</ele><time>2026-04-19T07:24:42Z</time></trkpt><trkpt lat="45.280375113089775" lon="9.202601966655548"><ele>84.83333333333333</ele><time>2026-04-19T07:24:44Z</time></trkpt><trkpt lat="45.28038828198859" lon="9.202724000599671"><ele>84.66666666666666</ele><time>2026-04-19T07:24:46Z</time></trkpt><trkpt lat="45.280397238828485" lon="9.202841412879087"><ele>84.5</ele><time>2026-04-19T07:24:48Z</time></trkpt><trkpt lat="45.28041860750372" lon="9.202958191014634"><ele>84.33333333333333</ele><time>2026-04-19T07:24:50Z</time></trkpt><trkpt lat="45.28039847275096" lon="9.203089198335594"><ele>84.16666666666667</ele><time>2026-04-19T07:24:52Z</time></trkpt><trkpt lat="45.28037123688603" lon="9.203213006959555"><ele>84.0</ele><time>2026-04-19T07:24:54Z</time></trkpt><trkpt lat="45.280335749581184" lon="9.203327084926903"><ele>84.4</ele><time>2026-04-19T07:24:56Z</time></trkpt><trkpt lat="45.280305739056644" lon="9.203419999047648"><ele>84.80000000000001</ele><time>2026-04-19T07:24:58Z</time></trkpt><trkpt lat="45.28023887579502" lon="9.20350195915684"><ele>85.19999999999999</ele><time>2026-04-19T07:25:00Z</time></trkpt><trkpt lat="45.280135763264" lon="9.20354134165942"><ele>85.6</ele><time>2026-04-19T07:25:02Z</time></trkpt><trkpt lat="45.2800378582753" lon="9.203569043146722"><ele>86.0</ele><time>2026-04-19T07:25:04Z</time></trkpt><trkpt lat="45.27994360597018" lon="9.203592356581694"><ele>86.0</ele><time>2026-04-19T07:25:06Z</time></trkpt><trkpt lat="45.27985145429606" lon="9.20361553736275"><ele>86.0</ele><time>2026-04-19T07:25:08Z</time></trkpt><trkpt lat="45.27975680931364" lon="9.203638683347208"><ele>86.0</ele><time>2026-04-19T07:25:10Z</time></trkpt><trkpt lat="45.2796616257929" lon="9.203662995913753"><ele>86.0</ele><time>2026-04-19T07:25:12Z</time></trkpt><trkpt lat="45.27956422047922" lon="9.20368359062416"><ele>86.0</ele><time>2026-04-19T07:25:14Z</time></trkpt><trkpt lat="45.279469559128785" lon="9.203709569165493"><ele>86.0</ele><time>2026-04-19T07:25:16Z</time></trkpt><trkpt lat="45.279375383279756" lon="9.203732242843575"><ele>86.0</ele><time>2026-04-19T07:25:18Z</time></trkpt><trkpt lat="45.27927982705205" lon="9.203748437240463"><ele>86.0</ele><time>2026-04-19T07:25:20Z</time></trkpt><trkpt lat="45.279183451014546" lon="9.20377352490807"><ele>86.0</ele><time>2026-04-19T07:25:22Z</time></trkpt><trkpt lat="45.27908469819569" lon="9.20379567246264"><ele>86.0</ele><time>2026-04-19T07:25:24Z</time></trkpt><trkpt lat="45.2789870698541" lon="9.203821040698589"><ele>85.8</ele><time>2026-04-19T07:25:26Z</time></trkpt><trkpt lat="45.27888938705274" lon="9.203836561950565"><ele>85.6</ele><time>2026-04-19T07:25:28Z</time></trkpt><trkpt lat="45.27879329196173" lon="9.203863613036093"><ele>85.4</ele><time>2026-04-19T07:25:30Z</time></trkpt><trkpt lat="45.278698769880805" lon="9.203873072889865"><ele>85.2</ele><time>2026-04-19T07:25:32Z</time></trkpt><trkpt lat="45.278611458115286" lon="9.203910723006087"><ele>85.0</ele><time>2026-04-19T07:25:34Z</time></trkpt><trkpt lat="45.27854150937128" lon="9.203975986135449"><ele>85.2</ele><time>2026-04-19T07:25:36Z</time></trkpt><trkpt lat="45.27853544198005" lon="9.204116570610484"><ele>85.4</ele><time>2026-04-19T07:25:38Z</time></trkpt><trkpt lat="45.278543420930035" lon="9.204250822770142"><ele>85.6</ele><time>2026-04-19T07:25:40Z</time></trkpt><trkpt lat="45.278543398196426" lon="9.204379078603084"><ele>85.8</ele><time>2026-04-19T07:25:42Z</time></trkpt><trkpt lat="45.27854010159605" lon="9.204511490057333"><ele>86.0</ele><time>2026-04-19T07:25:44Z</time></trkpt><trkpt lat="45.278523416518766" lon="9.20464397360137"><ele>86.0</ele><time>2026-04-19T07:25:46Z</time></trkpt><trkpt lat="45.278503928240504" lon="9.204779223776383"><ele>86.0</ele><time>2026-04-19T07:25:48Z</time></trkpt><trkpt lat="45.27848426862293" lon="9.204914488900998"><ele>86.0</ele><time>2026-04-19T07:25:50Z</time></trkpt><trkpt lat="45.27847363864784" lon="9.205057492330267"><ele>86.0</ele><time>2026-04-19T07:25:52Z</time></trkpt><trkpt lat="45.27847868498436" lon="9.205194855044779"><ele>86.0</ele><time>2026-04-19T07:25:54Z</time></trkpt><trkpt lat="45.27849074563212" lon="9.205329291286413"><ele>86.16666666666667</ele><time>2026-04-19T07:25:56Z</time></trkpt><trkpt lat="45.27850685290895" lon="9.20545685566658"><ele>86.33333333333334</ele><time>2026-04-19T07:25:58Z</time></trkpt><trkpt lat="45.278526756117984" lon="9.205574697278573"><ele>86.5</ele><time>2026-04-19T07:26:00Z</time></trkpt><trkpt lat="45.27854615470029" lon="9.205691109032534"><ele>86.66666666666667</ele><time>2026-04-19T07:26:02Z</time></trkpt><trkpt lat="45.27857249427281" lon="9.205814417667927"><ele>86.83333333333333</ele><time>2026-04-19T07:26:04Z</time></trkpt><trkpt lat="45.27858728508946" lon="9.205949556542159"><ele>87.0</ele><time>2026-04-19T07:26:06Z</time></trkpt><trkpt lat="45.278607264875276" lon="9.206084511659194"><ele>87.0</ele><time>2026-04-19T07:26:08Z</time></trkpt><trkpt lat="45.27862385349151" lon="9.206223020386597"><ele>87.0</ele><time>2026-04-19T07:26:10Z</time></trkpt><trkpt lat="45.27864561812167" lon="9.206359162617943"><ele>87.0</ele><time>2026-04-19T07:26:12Z</time></trkpt><trkpt lat="45.27866515457015" lon="9.206496798240197"><ele>87.0</ele><time>2026-04-19T07:26:14Z</time></trkpt><trkpt lat="45.278686165988155" lon="9.206636518910324"><ele>87.0</ele><time>2026-04-19T07:26:16Z</time></trkpt><trkpt lat="45.278714312393774" lon="9.206773016861945"><ele>86.83333333333333</ele><time>2026-04-19T07:26:18Z</time></trkpt><trkpt lat="45.27873383306135" lon="9.206912080603033"><ele>86.66666666666667</ele><time>2026-04-19T07:26:20Z</time></trkpt><trkpt lat="45.278752672308194" lon="9.207032628821805"><ele>86.5</ele><time>2026-04-19T07:26:22Z</time></trkpt><trkpt lat="45.27872316001743" lon="9.207121507950049"><ele>86.33333333333334</ele><time>2026-04-19T07:26:24Z</time></trkpt><trkpt lat="45.27862235763048" lon="9.20712329785821"><ele>86.16666666666667</ele><time>2026-04-19T07:26:26Z</time></trkpt><trkpt lat="45.27853193818406" lon="9.207123576002719"><ele>86.0</ele><time>2026-04-19T07:26:28Z</time></trkpt><trkpt lat="45.27844448390647" lon="9.207147720236499"><ele>86.0</ele><time>2026-04-19T07:26:30Z</time></trkpt><trkpt lat="45.2783561446861" lon="9.207166584137784"><ele>86.0</ele><time>2026-04-19T07:26:32Z</time></trkpt><trkpt lat="45.2782668455664" lon="9.207191659315432"><ele>86.0</ele><time>2026-04-19T07:26:34Z</time></trkpt><trkpt lat="45.27817587111875" lon="9.207210688982041"><ele>86.0</ele><time>2026-04-19T07:26:36Z</time></trkpt><trkpt lat="45.278083092312485" lon="9.207231622448775"><ele>86.0</ele><time>2026-04-19T07:26:38Z</time></trkpt><trkpt lat="45.27799027150516" lon="9.20724625251654"><ele>85.8</ele><time>2026-04-19T07:26:40Z</time></trkpt><trkpt lat="45.277898646979246" lon="9.207280165222231"><ele>85.6</ele><time>2026-04-19T07:26:42Z</time></trkpt><trkpt lat="45.277803835789136" lon="9.207299483042867"><ele>85.4</ele><time>2026-04-19T07:26:44Z</time></trkpt><trkpt lat="45.277712291094" lon="9.20731699756222"><ele>85.2</ele><time>2026-04-19T07:26:46Z</time></trkpt><trkpt lat="45.27762523367387" lon="9.207338695535443"><ele>85.0</ele><time>2026-04-19T07:26:48Z</time></trkpt><trkpt lat="45.27753283255558" lon="9.207361345206632"><ele>85.0</ele><time>2026-04-19T07:26:50Z</time></trkpt><trkpt lat="45.27744152597354" lon="9.207389644247527"><ele>85.0</ele><time>2026-04-19T07:26:52Z</time></trkpt><trkpt lat="45.27735207933504" lon="9.207428600718503"><ele>85.0</ele><time>2026-04-19T07:26:54Z</time></trkpt><trkpt lat="45.27725723782683" lon="9.207462224782573"><ele>85.0</ele><time>2026-04-19T07:26:56Z</time></trkpt><trkpt lat="45.27716302168388" lon="9.207502510067021"><ele>85.0</ele><time>2026-04-19T07:26:58Z</time></trkpt><trkpt lat="45.27706841570855" lon="9.207548109947904"><ele>84.8</ele><time>2026-04-19T07:27:00Z</time></trkpt><trkpt lat="45.276968985125606" lon="9.207590886913907"><ele>84.6</ele><time>2026-04-19T07:27:02Z</time></trkpt><trkpt lat="45.276874608680856" lon="9.207638479700087"><ele>84.4</ele><time>2026-04-19T07:27:04Z</time></trkpt><trkpt lat="45.27677974982076" lon="9.207693773829403"><ele>84.2</ele><time>2026-04-19T07:27:06Z</time></trkpt><trkpt lat="45.27669039820111" lon="9.207743858904593"><ele>84.0</ele><time>2026-04-19T07:27:08Z</time></trkpt><trkpt lat="45.276594477624144" lon="9.20779124458463"><ele>84.0</ele><time>2026-04-19T07:27:10Z</time></trkpt><trkpt lat="45.27649714627467" lon="9.207842314389815"><ele>84.0</ele><time>2026-04-19T07:27:12Z</time></trkpt><trkpt lat="45.276399110651404" lon="9.207889987253388"><ele>84.0</ele><time>2026-04-19T07:27:14Z</time></trkpt><trkpt lat="45.2763021144012" lon="9.207941308730913"><ele>84.0</ele><time>2026-04-19T07:27:16Z</time></trkpt><trkpt lat="45.27620570576332" lon="9.207989833762452"><ele>84.0</ele><time>2026-04-19T07:27:18Z</time></trkpt><trkpt lat="45.276108278860946" lon="9.208032914806745"><ele>84.2</ele><time>2026-04-19T07:27:20Z</time></trkpt><trkpt lat="45.276016838837776" lon="9.208084831950309"><ele>84.4</ele><time>2026-04-19T07:27:22Z</time></trkpt><trkpt lat="45.27592325656442" lon="9.2081225903153"><ele>84.6</ele><time>2026-04-19T07:27:24Z</time></trkpt><trkpt lat="45.27582559564904" lon="9.208145618655019"><ele>84.8</ele><time>2026-04-19T07:27:26Z</time></trkpt><trkpt lat="45.275723742693344" lon="9.208166179870194"><ele>85.0</ele><time>2026-04-19T07:27:28Z</time></trkpt><trkpt lat="45.275626919450694" lon="9.208183491478026"><ele>85.0</ele><time>2026-04-19T07:27:30Z</time></trkpt><trkpt lat="45.27552963843937" lon="9.208147322634023"><ele>85.0</ele><time>2026-04-19T07:27:32Z</time></trkpt><trkpt lat="45.27543983623501" lon="9.208065382874512"><ele>85.0</ele><time>2026-04-19T07:27:34Z</time></trkpt><trkpt lat="45.2753689973975" lon="9.2079585960094"><ele>85.0</ele><time>2026-04-19T07:27:36Z</time></trkpt><trkpt lat="45.27529395684616" lon="9.207857108541132"><ele>85.0</ele><time>2026-04-19T07:27:38Z</time></trkpt><trkpt lat="45.2752135744869" lon="9.207771045066464"><ele>85.0</ele><time>2026-04-19T07:27:40Z</time></trkpt><trkpt lat="45.27512672262158" lon="9.207704269444571"><ele>85.0</ele><time>2026-04-19T07:27:42Z</time></trkpt><trkpt lat="45.27503833946835" lon="9.207646741038328"><ele>85.0</ele><time>2026-04-19T07:27:44Z</time></trkpt><trkpt lat="45.274941982568365" lon="9.207604796874774"><ele>85.0</ele><time>2026-04-19T07:27:46Z</time></trkpt><trkpt lat="45.27484397657291" lon="9.207560529921"><ele>85.0</ele><time>2026-04-19T07:27:48Z</time></trkpt><trkpt lat="45.27474529573099" lon="9.207519826957975"><ele>84.8</ele><time>2026-04-19T07:27:50Z</time></trkpt><trkpt lat="45.274647253239145" lon="9.207490306229715"><ele>84.6</ele><time>2026-04-19T07:27:52Z</time></trkpt><trkpt lat="45.27454711419286" lon="9.207465550486225"><ele>84.4</ele><time>2026-04-19T07:27:54Z</time></trkpt><trkpt lat="45.27445137205744" lon="9.207424367175406"><ele>84.2</ele><time>2026-04-19T07:27:56Z</time></trkpt><trkpt lat="45.274355369229816" lon="9.20738347092099"><ele>84.0</ele><time>2026-04-19T07:27:58Z</time></trkpt><trkpt lat="45.27426505767433" lon="9.207331157520148"><ele>84.2</ele><time>2026-04-19T07:28:00Z</time></trkpt><trkpt lat="45.274166917744274" lon="9.20730630064992"><ele>84.4</ele><time>2026-04-19T07:28:02Z</time></trkpt><trkpt lat="45.27407576536217" lon="9.207291627595207"><ele>84.6</ele><time>2026-04-19T07:28:04Z</time></trkpt><trkpt lat="45.27397748174267" lon="9.2072830806096"><ele>84.8</ele><time>2026-04-19T07:28:06Z</time></trkpt><trkpt lat="45.273878376416285" lon="9.207291112625086"><ele>85.0</ele><time>2026-04-19T07:28:08Z</time></trkpt><trkpt lat="45.2737816387383" lon="9.20730707471439"><ele>84.8</ele><time>2026-04-19T07:28:10Z</time></trkpt><trkpt lat="45.27368240600479" lon="9.207336808104817"><ele>84.6</ele><time>2026-04-19T07:28:12Z</time></trkpt><trkpt lat="45.27358389503829" lon="9.207358719060897"><ele>84.4</ele><time>2026-04-19T07:28:14Z</time></trkpt><trkpt lat="45.2734848160956" lon="9.207387412514088"><ele>84.2</ele><time>2026-04-19T07:28:16Z</time></trkpt><trkpt lat="45.27338010462817" lon="9.207416494981153"><ele>84.0</ele><time>2026-04-19T07:28:18Z</time></trkpt><trkpt lat="45.273279158826064" lon="9.207430622466672"><ele>84.0</ele><time>2026-04-19T07:28:20Z</time></trkpt><trkpt lat="45.27317507591631" lon="9.20744438697367"><ele>84.0</ele><time>2026-04-19T07:28:22Z</time></trkpt><trkpt lat="45.273070143289345" lon="9.207453033222972"><ele>84.0</ele><time>2026-04-19T07:28:24Z</time></trkpt><trkpt lat="45.272964176562546" lon="9.207463073496163"><ele>84.0</ele><time>2026-04-19T07:28:26Z</time></trkpt><trkpt lat="45.27286208583405" lon="9.207473522288204"><ele>84.0</ele><time>2026-04-19T07:28:28Z</time></trkpt><trkpt lat="45.27276220374834" lon="9.207484250486248"><ele>84.0</ele><time>2026-04-19T07:28:30Z</time></trkpt><trkpt lat="45.27266382818786" lon="9.207507950495476"><ele>84.0</ele><time>2026-04-19T07:28:32Z</time></trkpt><trkpt lat="45.27256359603987" lon="9.207525954336123"><ele>84.0</ele><time>2026-04-19T07:28:34Z</time></trkpt><trkpt lat="45.272463445160135" lon="9.207548140594442"><ele>84.0</ele><time>2026-04-19T07:28:36Z</time></trkpt><trkpt lat="45.27236755767984" lon="9.207575938592814"><ele>84.0</ele><time>2026-04-19T07:28:38Z</time></trkpt><trkpt lat="45.272271202727644" lon="9.207612743079425"><ele>84.0</ele><time>2026-04-19T07:28:40Z</time></trkpt><trkpt lat="45.27217204166118" lon="9.20765284833358"><ele>84.0</ele><time>2026-04-19T07:28:42Z</time></trkpt><trkpt lat="45.27207890873631" lon="9.207707443024013"><ele>84.0</ele><time>2026-04-19T07:28:44Z</time></trkpt><trkpt lat="45.271984229014" lon="9.207758245327422"><ele>84.0</ele><time>2026-04-19T07:28:46Z</time></trkpt><trkpt lat="45.27188457876589" lon="9.207794484246477"><ele>84.0</ele><time>2026-04-19T07:28:48Z</time></trkpt><trkpt lat="45.27178403529493" lon="9.207825550553837"><ele>84.0</ele><time>2026-04-19T07:28:50Z</time></trkpt><trkpt lat="45.27168586139483" lon="9.2078574807159"><ele>84.0</ele><time>2026-04-19T07:28:52Z</time></trkpt><trkpt lat="45.271589060595836" lon="9.207890030984936"><ele>84.0</ele><time>2026-04-19T07:28:54Z</time></trkpt><trkpt lat="45.27149233403566" lon="9.207920791676523"><ele>84.0</ele><time>2026-04-19T07:28:56Z</time></trkpt><trkpt lat="45.27139372806025" lon="9.20795614543413"><ele>84.0</ele><time>2026-04-19T07:28:58Z</time></trkpt><trkpt lat="45.27129442276246" lon="9.20798997874004"><ele>83.80000000000001</ele><time>2026-04-19T07:29:00Z</time></trkpt><trkpt lat="45.271198249916175" lon="9.208022960947716"><ele>83.60000000000001</ele><time>2026-04-19T07:29:02Z</time></trkpt><trkpt lat="45.27110129286465" lon="9.208056843131832"><ele>83.4</ele><time>2026-04-19T07:29:04Z</time></trkpt><trkpt lat="45.27100230545206" lon="9.208088800709623"><ele>83.2</ele><time>2026-04-19T07:29:06Z</time></trkpt><trkpt lat="45.27090444962763" lon="9.208123091587856"><ele>83.0</ele><time>2026-04-19T07:29:08Z</time></trkpt><trkpt lat="45.27080818267719" lon="9.208155827226998"><ele>83.0</ele><time>2026-04-19T07:29:10Z</time></trkpt><trkpt lat="45.27071693142709" lon="9.208175631982936"><ele>83.0</ele><time>2026-04-19T07:29:12Z</time></trkpt><trkpt lat="45.27061895492389" lon="9.20819404882592"><ele>83.0</ele><time>2026-04-19T07:29:14Z</time></trkpt><trkpt lat="45.27051824874485" lon="9.208213971769137"><ele>83.0</ele><time>2026-04-19T07:29:16Z</time></trkpt><trkpt lat="45.27042435025366" lon="9.208246085694633"><ele>83.0</ele><time>2026-04-19T07:29:18Z</time></trkpt><trkpt lat="45.27033494098834" lon="9.208275395854224"><ele>83.0</ele><time>2026-04-19T07:29:20Z</time></trkpt><trkpt lat="45.2702407414794" lon="9.208307899383673"><ele>83.0</ele><time>2026-04-19T07:29:22Z</time></trkpt><trkpt lat="45.27014754130177" lon="9.208348703332037"><ele>83.0</ele><time>2026-04-19T07:29:24Z</time></trkpt><trkpt lat="45.27005997324773" lon="9.208380609354194"><ele>83.0</ele><time>2026-04-19T07:29:26Z</time></trkpt><trkpt lat="45.26997180765865" lon="9.208412821461812"><ele>83.0</ele><time>2026-04-19T07:29:28Z</time></trkpt><trkpt lat="45.269895922212704" lon="9.208447177097693"><ele>83.0</ele><time>2026-04-19T07:29:30Z</time></trkpt><trkpt lat="45.26981548590571" lon="9.208445401846767"><ele>83.0</ele><time>2026-04-19T07:29:32Z</time></trkpt><trkpt lat="45.26975139188595" lon="9.208343775214349"><ele>83.0</ele><time>2026-04-19T07:29:34Z</time></trkpt><trkpt lat="45.269729735634286" lon="9.208213745227942"><ele>83.0</ele><time>2026-04-19T07:29:36Z</time></trkpt><trkpt lat="45.26971929384055" lon="9.208083054744788"><ele>83.0</ele><time>2026-04-19T07:29:38Z</time></trkpt><trkpt lat="45.26970059233539" lon="9.20795341026783"><ele>83.0</ele><time>2026-04-19T07:29:40Z</time></trkpt><trkpt lat="45.269680870666924" lon="9.207823421313156"><ele>83.0</ele><time>2026-04-19T07:29:42Z</time></trkpt><trkpt lat="45.26966099140372" lon="9.207686861858033"><ele>83.0</ele><time>2026-04-19T07:29:44Z</time></trkpt><trkpt lat="45.269640843929274" lon="9.207553620195275"><ele>83.0</ele><time>2026-04-19T07:29:46Z</time></trkpt><trkpt lat="45.26962545620062" lon="9.207416383313634"><ele>83.0</ele><time>2026-04-19T07:29:48Z</time></trkpt><trkpt lat="45.26960455847438" lon="9.207276161722106"><ele>83.0</ele><time>2026-04-19T07:29:50Z</time></trkpt><trkpt lat="45.269581189135366" lon="9.20714184002553"><ele>83.0</ele><time>2026-04-19T07:29:52Z</time></trkpt><trkpt lat="45.269563189740474" lon="9.207009453066233"><ele>83.0</ele><time>2026-04-19T07:29:54Z</time></trkpt><trkpt lat="45.26954322135169" lon="9.206873369173596"><ele>83.0</ele><time>2026-04-19T07:29:56Z</time></trkpt><trkpt lat="45.26952374157192" lon="9.206734358882015"><ele>83.0</ele><time>2026-04-19T07:29:58Z</time></trkpt><trkpt lat="45.26950290427663" lon="9.206605220308159"><ele>83.0</ele><time>2026-04-19T07:30:00Z</time></trkpt><trkpt lat="45.26948236750059" lon="9.206477429039458"><ele>83.0</ele><time>2026-04-19T07:30:02Z</time></trkpt><trkpt lat="45.26946638344112" lon="9.206386853594346"><ele>83.0</ele><time>2026-04-19T07:30:04Z</time></trkpt><trkpt lat="45.26938879197313" lon="9.206384503313188"><ele>83.0</ele><time>2026-04-19T07:30:08Z</time></trkpt><trkpt lat="45.26934430040388" lon="9.206457980534317"><ele>83.0</ele><time>2026-04-19T07:30:10Z</time></trkpt><trkpt lat="45.269275509499174" lon="9.206520014598743"><ele>83.0</ele><time>2026-04-19T07:30:12Z</time></trkpt><trkpt lat="45.269188440172805" lon="9.206536945056147"><ele>83.0</ele><time>2026-04-19T07:30:14Z</time></trkpt><trkpt lat="45.26910531929111" lon="9.206564060998465"><ele>83.0</ele><time>2026-04-19T07:30:16Z</time></trkpt><trkpt lat="45.269026792839774" lon="9.20659470832702"><ele>83.0</ele><time>2026-04-19T07:30:18Z</time></trkpt><trkpt lat="45.268952213231756" lon="9.206619748198102"><ele>83.0</ele><time>2026-04-19T07:30:20Z</time></trkpt><trkpt lat="45.2688710081263" lon="9.206653047581007"><ele>83.0</ele><time>2026-04-19T07:30:22Z</time></trkpt><trkpt lat="45.2687875981301" lon="9.206682823655749"><ele>83.0</ele><time>2026-04-19T07:30:24Z</time></trkpt><trkpt lat="45.26870717210138" lon="9.206716421415416"><ele>83.0</ele><time>2026-04-19T07:30:26Z</time></trkpt><trkpt lat="45.26862146370231" lon="9.206749748593726"><ele>83.0</ele><time>2026-04-19T07:30:28Z</time></trkpt><trkpt lat="45.26854089497936" lon="9.206782779601559"><ele>83.0</ele><time>2026-04-19T07:30:30Z</time></trkpt><trkpt lat="45.268453306900376" lon="9.206818093911894"><ele>83.0</ele><time>2026-04-19T07:30:32Z</time></trkpt><trkpt lat="45.26837053415277" lon="9.2068495263363"><ele>83.0</ele><time>2026-04-19T07:30:34Z</time></trkpt><trkpt lat="45.268287824978394" lon="9.206883939599232"><ele>83.0</ele><time>2026-04-19T07:30:36Z</time></trkpt><trkpt lat="45.26820581093388" lon="9.20691670254327"><ele>83.0</ele><time>2026-04-19T07:30:38Z</time></trkpt><trkpt lat="45.26812404605838" lon="9.206950402343482"><ele>83.0</ele><time>2026-04-19T07:30:40Z</time></trkpt><trkpt lat="45.268045022939255" lon="9.206978956590858"><ele>83.0</ele><time>2026-04-19T07:30:42Z</time></trkpt><trkpt lat="45.26796411846373" lon="9.20700725808718"><ele>83.0</ele><time>2026-04-19T07:30:44Z</time></trkpt><trkpt lat="45.2678774583392" lon="9.207043838766294"><ele>83.0</ele><time>2026-04-19T07:30:46Z</time></trkpt><trkpt lat="45.267788035771105" lon="9.207076624563156"><ele>83.0</ele><time>2026-04-19T07:30:48Z</time></trkpt><trkpt lat="45.267707542468706" lon="9.207108733870111"><ele>83.0</ele><time>2026-04-19T07:30:50Z</time></trkpt><trkpt lat="45.26762672630889" lon="9.207141383468429"><ele>83.0</ele><time>2026-04-19T07:30:52Z</time></trkpt><trkpt lat="45.267544352477586" lon="9.207172869759697"><ele>83.0</ele><time>2026-04-19T07:30:54Z</time></trkpt><trkpt lat="45.26746313791937" lon="9.207206407999605"><ele>83.0</ele><time>2026-04-19T07:30:56Z</time></trkpt><trkpt lat="45.26738030495588" lon="9.207237558362088"><ele>83.0</ele><time>2026-04-19T07:30:58Z</time></trkpt><trkpt lat="45.267298365735954" lon="9.207270511293963"><ele>83.0</ele><time>2026-04-19T07:31:00Z</time></trkpt><trkpt lat="45.26721465041486" lon="9.20730519081093"><ele>82.83333333333334</ele><time>2026-04-19T07:31:02Z</time></trkpt><trkpt lat="45.267132097335" lon="9.207334859666329"><ele>82.66666666666667</ele><time>2026-04-19T07:31:04Z</time></trkpt><trkpt lat="45.267052770211" lon="9.207366230011838"><ele>82.5</ele><time>2026-04-19T07:31:06Z</time></trkpt><trkpt lat="45.2669723411685" lon="9.2073971415499"><ele>82.33333333333333</ele><time>2026-04-19T07:31:08Z</time></trkpt><trkpt lat="45.26689443670363" lon="9.207429715198412"><ele>82.16666666666666</ele><time>2026-04-19T07:31:10Z</time></trkpt><trkpt lat="45.26681333708388" lon="9.207460799038074"><ele>82.0</ele><time>2026-04-19T07:31:12Z</time></trkpt><trkpt lat="45.266731576881455" lon="9.20749125383247"><ele>82.0</ele><time>2026-04-19T07:31:14Z</time></trkpt><trkpt lat="45.266649372111296" lon="9.207524279361502"><ele>82.0</ele><time>2026-04-19T07:31:16Z</time></trkpt><trkpt lat="45.266564811515956" lon="9.207557209670519"><ele>82.0</ele><time>2026-04-19T07:31:18Z</time></trkpt><trkpt lat="45.26648178202643" lon="9.20759208014288"><ele>82.0</ele><time>2026-04-19T07:31:20Z</time></trkpt><trkpt lat="45.26639912919868" lon="9.207621879033173"><ele>82.0</ele><time>2026-04-19T07:31:22Z</time></trkpt><trkpt lat="45.26631606758023" lon="9.207652746351563"><ele>82.0</ele><time>2026-04-19T07:31:24Z</time></trkpt><trkpt lat="45.266235663239875" lon="9.20768489611795"><ele>82.33333333333333</ele><time>2026-04-19T07:31:26Z</time></trkpt><trkpt lat="45.266153246651335" lon="9.207715863072309"><ele>82.66666666666666</ele><time>2026-04-19T07:31:28Z</time></trkpt><trkpt lat="45.26606561707918" lon="9.207746872439113"><ele>83.0</ele><time>2026-04-19T07:31:30Z</time></trkpt><trkpt lat="45.265985833012316" lon="9.207778866400593"><ele>83.33333333333333</ele><time>2026-04-19T07:31:32Z</time></trkpt><trkpt lat="45.265902452889854" lon="9.207809860872384"><ele>83.66666666666667</ele><time>2026-04-19T07:31:34Z</time></trkpt><trkpt lat="45.26582114736066" lon="9.207845513869161"><ele>84.0</ele><time>2026-04-19T07:31:36Z</time></trkpt><trkpt lat="45.26573491477412" lon="9.207868311307868"><ele>84.0</ele><time>2026-04-19T07:31:38Z</time></trkpt><trkpt lat="45.265654564562716" lon="9.20790835677066"><ele>84.0</ele><time>2026-04-19T07:31:40Z</time></trkpt><trkpt lat="45.26557463443552" lon="9.207936873750578"><ele>84.0</ele><time>2026-04-19T07:31:42Z</time></trkpt><trkpt lat="45.26549422408632" lon="9.207968798633596"><ele>84.0</ele><time>2026-04-19T07:31:44Z</time></trkpt><trkpt lat="45.265413581665804" lon="9.2079987392908"><ele>84.0</ele><time>2026-04-19T07:31:46Z</time></trkpt><trkpt lat="45.26533806321738" lon="9.208027773742685"><ele>84.0</ele><time>2026-04-19T07:31:48Z</time></trkpt><trkpt lat="45.26525888564491" lon="9.208060276713335"><ele>84.0</ele><time>2026-04-19T07:31:50Z</time></trkpt><trkpt lat="45.26518404749907" lon="9.208084452150207"><ele>84.0</ele><time>2026-04-19T07:31:52Z</time></trkpt><trkpt lat="45.26511240177181" lon="9.208116616020698"><ele>84.0</ele><time>2026-04-19T07:31:54Z</time></trkpt><trkpt lat="45.26503615023982" lon="9.208141557324277"><ele>84.0</ele><time>2026-04-19T07:31:56Z</time></trkpt><trkpt lat="45.26496453721613" lon="9.208177354782588"><ele>84.0</ele><time>2026-04-19T07:31:58Z</time></trkpt><trkpt lat="45.264892410074175" lon="9.208200839153603"><ele>84.0</ele><time>2026-04-19T07:32:00Z</time></trkpt><trkpt lat="45.264818387319856" lon="9.208228759217501"><ele>83.83333333333333</ele><time>2026-04-19T07:32:02Z</time></trkpt><trkpt lat="45.2647544591175" lon="9.20824660919754"><ele>83.66666666666667</ele><time>2026-04-19T07:32:04Z</time></trkpt><trkpt lat="45.26468842472742" lon="9.208255913466799"><ele>83.5</ele><time>2026-04-19T07:32:07Z</time></trkpt><trkpt lat="45.26465125484261" lon="9.208353812891295"><ele>83.33333333333334</ele><time>2026-04-19T07:32:11Z</time></trkpt><trkpt lat="45.26471701839053" lon="9.20844019920112"><ele>83.16666666666667</ele><time>2026-04-19T07:32:13Z</time></trkpt><trkpt lat="45.26477942365507" lon="9.208497239892331"><ele>83.0</ele><time>2026-04-19T07:32:15Z</time></trkpt><trkpt lat="45.26483267774296" lon="9.208583355831541"><ele>83.0</ele><time>2026-04-19T07:32:17Z</time></trkpt><trkpt lat="45.26487526169635" lon="9.208679667859153"><ele>83.0</ele><time>2026-04-19T07:32:19Z</time></trkpt><trkpt lat="45.26489797870508" lon="9.208787785328532"><ele>83.0</ele><time>2026-04-19T07:32:21Z</time></trkpt><trkpt lat="45.26485737952524" lon="9.20888693310144"><ele>83.0</ele><time>2026-04-19T07:32:23Z</time></trkpt><trkpt lat="45.26474875324756" lon="9.208867889524093"><ele>83.0</ele><time>2026-04-19T07:32:25Z</time></trkpt><trkpt lat="45.264663591876456" lon="9.208817536984197"><ele>83.0</ele><time>2026-04-19T07:32:27Z</time></trkpt><trkpt lat="45.264578917699964" lon="9.208789932213008"><ele>83.0</ele><time>2026-04-19T07:32:29Z</time></trkpt><trkpt lat="45.264491201491474" lon="9.208764377919508"><ele>83.0</ele><time>2026-04-19T07:32:31Z</time></trkpt><trkpt lat="45.264397773973755" lon="9.20875223724854"><ele>83.0</ele><time>2026-04-19T07:32:33Z</time></trkpt><trkpt lat="45.26430340685138" lon="9.208742268672685"><ele>83.0</ele><time>2026-04-19T07:32:35Z</time></trkpt><trkpt lat="45.264210942665535" lon="9.208729429860213"><ele>83.0</ele><time>2026-04-19T07:32:37Z</time></trkpt><trkpt lat="45.26411890195825" lon="9.208712674946876"><ele>83.0</ele><time>2026-04-19T07:32:39Z</time></trkpt><trkpt lat="45.2640306641038" lon="9.208712136685133"><ele>83.0</ele><time>2026-04-19T07:32:41Z</time></trkpt><trkpt lat="45.26394002607595" lon="9.208697858870117"><ele>83.0</ele><time>2026-04-19T07:32:43Z</time></trkpt><trkpt lat="45.26384897953657" lon="9.208691725893491"><ele>83.0</ele><time>2026-04-19T07:32:45Z</time></trkpt><trkpt lat="45.26375776632794" lon="9.208677839538773"><ele>83.0</ele><time>2026-04-19T07:32:47Z</time></trkpt><trkpt lat="45.263664191997755" lon="9.208665780636812"><ele>83.2</ele><time>2026-04-19T07:32:49Z</time></trkpt><trkpt lat="45.26357121712559" lon="9.208661083795532"><ele>83.4</ele><time>2026-04-19T07:32:51Z</time></trkpt><trkpt lat="45.2634793170946" lon="9.208654424745479"><ele>83.60000000000001</ele><time>2026-04-19T07:32:53Z</time></trkpt><trkpt lat="45.26338695502393" lon="9.208635756363826"><ele>83.80000000000001</ele><time>2026-04-19T07:32:55Z</time></trkpt><trkpt lat="45.26329477650283" lon="9.208634158805461"><ele>84.0</ele><time>2026-04-19T07:32:57Z</time></trkpt><trkpt lat="45.26321541682411" lon="9.208616663576066"><ele>84.0</ele><time>2026-04-19T07:32:59Z</time></trkpt><trkpt lat="45.26311782244724" lon="9.208604812699804"><ele>84.0</ele><time>2026-04-19T07:33:01Z</time></trkpt><trkpt lat="45.26302916036455" lon="9.208589970179528"><ele>84.0</ele><time>2026-04-19T07:33:03Z</time></trkpt><trkpt lat="45.26294010754294" lon="9.208569562962191"><ele>84.0</ele><time>2026-04-19T07:33:05Z</time></trkpt><trkpt lat="45.26285064358631" lon="9.20853440600905"><ele>84.0</ele><time>2026-04-19T07:33:07Z</time></trkpt><trkpt lat="45.26276037362267" lon="9.208496107084981"><ele>83.80000000000001</ele><time>2026-04-19T07:33:09Z</time></trkpt><trkpt lat="45.26267250249291" lon="9.208451370086244"><ele>83.60000000000001</ele><time>2026-04-19T07:33:11Z</time></trkpt><trkpt lat="45.262579872166604" lon="9.208407892661274"><ele>83.4</ele><time>2026-04-19T07:33:13Z</time></trkpt><trkpt lat="45.262483331409776" lon="9.20836534841811"><ele>83.2</ele><time>2026-04-19T07:33:15Z</time></trkpt><trkpt lat="45.262391549156966" lon="9.208315732808762"><ele>83.0</ele><time>2026-04-19T07:33:17Z</time></trkpt><trkpt lat="45.26230126251056" lon="9.208276752381478"><ele>83.0</ele><time>2026-04-19T07:33:19Z</time></trkpt><trkpt lat="45.26220944510572" lon="9.208226298692011"><ele>83.0</ele><time>2026-04-19T07:33:21Z</time></trkpt><trkpt lat="45.26211634595434" lon="9.208184869806098"><ele>83.0</ele><time>2026-04-19T07:33:23Z</time></trkpt><trkpt lat="45.262024817305864" lon="9.208136878234566"><ele>83.0</ele><time>2026-04-19T07:33:25Z</time></trkpt><trkpt lat="45.261935210413604" lon="9.208096809963964"><ele>83.0</ele><time>2026-04-19T07:33:27Z</time></trkpt><trkpt lat="45.26184772734181" lon="9.208054786684661"><ele>83.0</ele><time>2026-04-19T07:33:29Z</time></trkpt><trkpt lat="45.26175964420797" lon="9.20800212475208"><ele>83.0</ele><time>2026-04-19T07:33:31Z</time></trkpt><trkpt lat="45.26166710235263" lon="9.207958652097604"><ele>83.0</ele><time>2026-04-19T07:33:33Z</time></trkpt><trkpt lat="45.26157637123735" lon="9.20791870075132"><ele>83.0</ele><time>2026-04-19T07:33:35Z</time></trkpt><trkpt lat="45.261488085374474" lon="9.207874572656385"><ele>83.0</ele><time>2026-04-19T07:33:37Z</time></trkpt><trkpt lat="45.26140129170989" lon="9.207832326393966"><ele>82.80000000000001</ele><time>2026-04-19T07:33:39Z</time></trkpt><trkpt lat="45.26131032826838" lon="9.207794159556425"><ele>82.6</ele><time>2026-04-19T07:33:41Z</time></trkpt><trkpt lat="45.26121751975572" lon="9.207755337408692"><ele>82.4</ele><time>2026-04-19T07:33:43Z</time></trkpt><trkpt lat="45.261128905698705" lon="9.207709412719485"><ele>82.19999999999999</ele><time>2026-04-19T07:33:45Z</time></trkpt><trkpt lat="45.261037821200276" lon="9.207667926253139"><ele>82.0</ele><time>2026-04-19T07:33:47Z</time></trkpt><trkpt lat="45.26094983722734" lon="9.20761002579924"><ele>82.0</ele><time>2026-04-19T07:33:49Z</time></trkpt><trkpt lat="45.26086479840752" lon="9.207542781986595"><ele>82.0</ele><time>2026-04-19T07:33:51Z</time></trkpt><trkpt lat="45.26077919842961" lon="9.207475138141506"><ele>82.0</ele><time>2026-04-19T07:33:53Z</time></trkpt><trkpt lat="45.26069943623357" lon="9.207391587799068"><ele>82.0</ele><time>2026-04-19T07:33:55Z</time></trkpt><trkpt lat="45.260621658057936" lon="9.207306177485762"><ele>82.0</ele><time>2026-04-19T07:33:57Z</time></trkpt><trkpt lat="45.26054526786525" lon="9.207220072669651"><ele>82.19999999999999</ele><time>2026-04-19T07:33:59Z</time></trkpt><trkpt lat="45.2604692816795" lon="9.207134171605084"><ele>82.4</ele><time>2026-04-19T07:34:01Z</time></trkpt><trkpt lat="45.26039787329848" lon="9.20703744436516"><ele>82.6</ele><time>2026-04-19T07:34:03Z</time></trkpt><trkpt lat="45.26032265005416" lon="9.20695279528363"><ele>82.80000000000001</ele><time>2026-04-19T07:34:05Z</time></trkpt><trkpt lat="45.26025045364943" lon="9.206865439544515"><ele>83.0</ele><time>2026-04-19T07:34:07Z</time></trkpt><trkpt lat="45.26017970455185" lon="9.206775577598842"><ele>83.0</ele><time>2026-04-19T07:34:09Z</time></trkpt><trkpt lat="45.260106378652324" lon="9.206688221977192"><ele>83.0</ele><time>2026-04-19T07:34:11Z</time></trkpt><trkpt lat="45.26003228629138" lon="9.20660040235092"><ele>83.0</ele><time>2026-04-19T07:34:13Z</time></trkpt><trkpt lat="45.259955016048146" lon="9.206518791832057"><ele>83.0</ele><time>2026-04-19T07:34:14.999Z</time></trkpt><trkpt lat="45.259875442915565" lon="9.206448785547604"><ele>83.0</ele><time>2026-04-19T07:34:16.999Z</time></trkpt><trkpt lat="45.259793325112966" lon="9.20638587650373"><ele>82.80000000000001</ele><time>2026-04-19T07:34:18.999Z</time></trkpt><trkpt lat="45.25970822476788" lon="9.20632588545018"><ele>82.6</ele><time>2026-04-19T07:34:20.999Z</time></trkpt><trkpt lat="45.25961941681134" lon="9.206281172239851"><ele>82.4</ele><time>2026-04-19T07:34:22.999Z</time></trkpt><trkpt lat="45.25952584850962" lon="9.206244020114479"><ele>82.19999999999999</ele><time>2026-04-19T07:34:24.999Z</time></trkpt><trkpt lat="45.259431535330265" lon="9.206210979943439"><ele>82.0</ele><time>2026-04-19T07:34:26.999Z</time></trkpt><trkpt lat="45.259339371036226" lon="9.2061838942597"><ele>82.0</ele><time>2026-04-19T07:34:28.999Z</time></trkpt><trkpt lat="45.25924287341044" lon="9.20616320400251"><ele>82.0</ele><time>2026-04-19T07:34:30.999Z</time></trkpt><trkpt lat="45.259142887332295" lon="9.206150751470902"><ele>82.0</ele><time>2026-04-19T07:34:32.999Z</time></trkpt><trkpt lat="45.25904459689776" lon="9.20613567592388"><ele>82.0</ele><time>2026-04-19T07:34:34.999Z</time></trkpt><trkpt lat="45.258946351128635" lon="9.206134147820773"><ele>82.0</ele><time>2026-04-19T07:34:36.999Z</time></trkpt><trkpt lat="45.25885179536732" lon="9.206106195682565"><ele>82.0</ele><time>2026-04-19T07:34:38.999Z</time></trkpt><trkpt lat="45.25875691126329" lon="9.206092844565184"><ele>82.0</ele><time>2026-04-19T07:34:40.999Z</time></trkpt><trkpt lat="45.258662880272745" lon="9.206054869744156"><ele>82.0</ele><time>2026-04-19T07:34:42.999Z</time></trkpt><trkpt lat="45.25856783215101" lon="9.206022587536587"><ele>82.0</ele><time>2026-04-19T07:34:44.999Z</time></trkpt><trkpt lat="45.25847317401818" lon="9.20598311281102"><ele>82.0</ele><time>2026-04-19T07:34:46.999Z</time></trkpt><trkpt lat="45.258382422262876" lon="9.205927780233864"><ele>82.0</ele><time>2026-04-19T07:34:48.999Z</time></trkpt><trkpt lat="45.25829706129444" lon="9.205860891832057"><ele>82.0</ele><time>2026-04-19T07:34:50.999Z</time></trkpt><trkpt lat="45.25820777896017" lon="9.205802712189424"><ele>82.0</ele><time>2026-04-19T07:34:52.999Z</time></trkpt><trkpt lat="45.258120711917556" lon="9.205737240020635"><ele>82.0</ele><time>2026-04-19T07:34:54.999Z</time></trkpt><trkpt lat="45.25803307175488" lon="9.205672789224524"><ele>82.0</ele><time>2026-04-19T07:34:56.999Z</time></trkpt><trkpt lat="45.2579480309148" lon="9.205608018058152"><ele>82.19999999999999</ele><time>2026-04-19T07:34:58.999Z</time></trkpt><trkpt lat="45.257861070761564" lon="9.205539934091094"><ele>82.4</ele><time>2026-04-19T07:35:00.999Z</time></trkpt><trkpt lat="45.25777531671731" lon="9.205469642016368"><ele>82.6</ele><time>2026-04-19T07:35:02.999Z</time></trkpt><trkpt lat="45.257685807061016" lon="9.205415670220265"><ele>82.80000000000001</ele><time>2026-04-19T07:35:04.999Z</time></trkpt><trkpt lat="45.25760189187148" lon="9.205359797308082"><ele>83.0</ele><time>2026-04-19T07:35:06.999Z</time></trkpt><trkpt lat="45.25751991077856" lon="9.205318195208429"><ele>83.0</ele><time>2026-04-19T07:35:08.999Z</time></trkpt><trkpt lat="45.25743609361368" lon="9.205273392032055"><ele>83.0</ele><time>2026-04-19T07:35:10.999Z</time></trkpt><trkpt lat="45.257349163253274" lon="9.205239173267092"><ele>83.0</ele><time>2026-04-19T07:35:12.999Z</time></trkpt><trkpt lat="45.25725545283349" lon="9.205270497914027"><ele>83.0</ele><time>2026-04-19T07:35:14.999Z</time></trkpt><trkpt lat="45.257162492902005" lon="9.205302729238568"><ele>83.0</ele><time>2026-04-19T07:35:16.999Z</time></trkpt><trkpt lat="45.25706493936144" lon="9.20530738931633"><ele>83.4</ele><time>2026-04-19T07:35:18.999Z</time></trkpt><trkpt lat="45.25696440685974" lon="9.205292824032824"><ele>83.80000000000001</ele><time>2026-04-19T07:35:20.999Z</time></trkpt><trkpt lat="45.25686562046058" lon="9.205288379089328"><ele>84.2</ele><time>2026-04-19T07:35:22.999Z</time></trkpt><trkpt lat="45.25677071889523" lon="9.20526574297673"><ele>84.6</ele><time>2026-04-19T07:35:24.999Z</time></trkpt><trkpt lat="45.25667899560233" lon="9.205241896973755"><ele>85.0</ele><time>2026-04-19T07:35:26.999Z</time></trkpt><trkpt lat="45.25658690287363" lon="9.205226598569247"><ele>85.0</ele><time>2026-04-19T07:35:28.999Z</time></trkpt><trkpt lat="45.25649539614208" lon="9.205219308752431"><ele>85.0</ele><time>2026-04-19T07:35:30.999Z</time></trkpt><trkpt lat="45.25640559677595" lon="9.205211691526191"><ele>85.0</ele><time>2026-04-19T07:35:32.999Z</time></trkpt><trkpt lat="45.256313846529125" lon="9.205205161208546"><ele>85.0</ele><time>2026-04-19T07:35:34.999Z</time></trkpt><trkpt lat="45.256221323761466" lon="9.205204159448495"><ele>85.0</ele><time>2026-04-19T07:35:36.999Z</time></trkpt><trkpt lat="45.256128758854054" lon="9.205205597109211"><ele>84.8</ele><time>2026-04-19T07:35:38.999Z</time></trkpt><trkpt lat="45.25603943809301" lon="9.205220025161339"><ele>84.6</ele><time>2026-04-19T07:35:40.999Z</time></trkpt><trkpt lat="45.25594707107339" lon="9.2052224608493"><ele>84.4</ele><time>2026-04-19T07:35:42.999Z</time></trkpt><trkpt lat="45.2558562005572" lon="9.205214881456568"><ele>84.2</ele><time>2026-04-19T07:35:44.999Z</time></trkpt><trkpt lat="45.255764892368404" lon="9.205205238782641"><ele>84.0</ele><time>2026-04-19T07:35:46.999Z</time></trkpt><trkpt lat="45.25567802203056" lon="9.205193802283498"><ele>84.0</ele><time>2026-04-19T07:35:48.999Z</time></trkpt><trkpt lat="45.25559184021943" lon="9.205198056251113"><ele>84.0</ele><time>2026-04-19T07:35:50.999Z</time></trkpt><trkpt lat="45.2555023752136" lon="9.205185652100202"><ele>84.0</ele><time>2026-04-19T07:35:52.999Z</time></trkpt><trkpt lat="45.25541130950614" lon="9.205179361020713"><ele>84.0</ele><time>2026-04-19T07:35:54.999Z</time></trkpt><trkpt lat="45.25532531623911" lon="9.205166807770176"><ele>84.0</ele><time>2026-04-19T07:35:56.999Z</time></trkpt><trkpt lat="45.25523754348856" lon="9.205157024588111"><ele>84.0</ele><time>2026-04-19T07:35:58.999Z</time></trkpt><trkpt lat="45.255143295553864" lon="9.205136039624255"><ele>84.0</ele><time>2026-04-19T07:36:00.999Z</time></trkpt><trkpt lat="45.255058427863894" lon="9.205122494992752"><ele>84.0</ele><time>2026-04-19T07:36:02.999Z</time></trkpt><trkpt lat="45.25496866768251" lon="9.205104930363595"><ele>84.0</ele><time>2026-04-19T07:36:04.999Z</time></trkpt><trkpt lat="45.254881658394005" lon="9.205070144998723"><ele>84.0</ele><time>2026-04-19T07:36:06.999Z</time></trkpt><trkpt lat="45.25479923994152" lon="9.205035329318086"><ele>84.0</ele><time>2026-04-19T07:36:08.999Z</time></trkpt><trkpt lat="45.25471552342798" lon="9.205010074429971"><ele>84.0</ele><time>2026-04-19T07:36:10.999Z</time></trkpt><trkpt lat="45.25463264350305" lon="9.20497817978436"><ele>84.0</ele><time>2026-04-19T07:36:12.999Z</time></trkpt><trkpt lat="45.25454963189889" lon="9.204938805452187"><ele>84.0</ele><time>2026-04-19T07:36:14.999Z</time></trkpt><trkpt lat="45.25446528259763" lon="9.204898649584296"><ele>84.0</ele><time>2026-04-19T07:36:16.999Z</time></trkpt><trkpt lat="45.254378254651336" lon="9.204854856034226"><ele>84.0</ele><time>2026-04-19T07:36:18.999Z</time></trkpt><trkpt lat="45.254282912662816" lon="9.204847957447779"><ele>84.0</ele><time>2026-04-19T07:36:20.999Z</time></trkpt><trkpt lat="45.25418630012159" lon="9.20485881243874"><ele>84.0</ele><time>2026-04-19T07:36:22.999Z</time></trkpt><trkpt lat="45.25409143407934" lon="9.204867939241522"><ele>84.0</ele><time>2026-04-19T07:36:24.999Z</time></trkpt><trkpt lat="45.25399453434682" lon="9.204880099121011"><ele>84.0</ele><time>2026-04-19T07:36:26.999Z</time></trkpt><trkpt lat="45.25389389158876" lon="9.204882180686642"><ele>84.0</ele><time>2026-04-19T07:36:28.999Z</time></trkpt><trkpt lat="45.25379303606641" lon="9.204892510737839"><ele>84.0</ele><time>2026-04-19T07:36:30.999Z</time></trkpt><trkpt lat="45.253691818999805" lon="9.204904686459825"><ele>83.80000000000001</ele><time>2026-04-19T07:36:32.999Z</time></trkpt><trkpt lat="45.2535917136517" lon="9.20491844122476"><ele>83.60000000000001</ele><time>2026-04-19T07:36:34.999Z</time></trkpt><trkpt lat="45.25348952769661" lon="9.204937524336154"><ele>83.4</ele><time>2026-04-19T07:36:36.999Z</time></trkpt><trkpt lat="45.253387767416896" lon="9.204944651028084"><ele>83.2</ele><time>2026-04-19T07:36:38.999Z</time></trkpt><trkpt lat="45.25328730477147" lon="9.204975504747175"><ele>83.0</ele><time>2026-04-19T07:36:40.999Z</time></trkpt><trkpt lat="45.25318393849" lon="9.204982924082787"><ele>82.80000000000001</ele><time>2026-04-19T07:36:42.999Z</time></trkpt><trkpt lat="45.25307969234788" lon="9.204993617158802"><ele>82.6</ele><time>2026-04-19T07:36:44.999Z</time></trkpt><trkpt lat="45.252973856447575" lon="9.204988166474616"><ele>82.4</ele><time>2026-04-19T07:36:46.999Z</time></trkpt><trkpt lat="45.25286559416922" lon="9.204946070338607"><ele>82.19999999999999</ele><time>2026-04-19T07:36:48.999Z</time></trkpt><trkpt lat="45.252759526522375" lon="9.204903781054135"><ele>82.0</ele><time>2026-04-19T07:36:50.999Z</time></trkpt><trkpt lat="45.2526583465161" lon="9.204856056630616"><ele>81.8</ele><time>2026-04-19T07:36:53Z</time></trkpt><trkpt lat="45.252560178499884" lon="9.204798377609315"><ele>81.6</ele><time>2026-04-19T07:36:55Z</time></trkpt><trkpt lat="45.252461838442045" lon="9.20472631895847"><ele>81.39999999999999</ele><time>2026-04-19T07:36:57Z</time></trkpt><trkpt lat="45.252378943562796" lon="9.204682221204733"><ele>81.19999999999999</ele><time>2026-04-19T07:36:59Z</time></trkpt><trkpt lat="45.252284569351936" lon="9.204598229905157"><ele>81.0</ele><time>2026-04-19T07:37:01Z</time></trkpt><trkpt lat="45.252188415021195" lon="9.204549202110826"><ele>81.0</ele><time>2026-04-19T07:37:03Z</time></trkpt><trkpt lat="45.25209024382188" lon="9.204510921850423"><ele>81.0</ele><time>2026-04-19T07:37:05Z</time></trkpt><trkpt lat="45.25199429986894" lon="9.204482488106411"><ele>81.0</ele><time>2026-04-19T07:37:07Z</time></trkpt><trkpt lat="45.25189654081489" lon="9.204460547845784"><ele>81.0</ele><time>2026-04-19T07:37:09Z</time></trkpt><trkpt lat="45.25179804650424" lon="9.204429332665525"><ele>81.0</ele><time>2026-04-19T07:37:11Z</time></trkpt><trkpt lat="45.25169515197521" lon="9.204388106591477"><ele>81.0</ele><time>2026-04-19T07:37:13Z</time></trkpt><trkpt lat="45.251606040683164" lon="9.20429991071098"><ele>81.0</ele><time>2026-04-19T07:37:15Z</time></trkpt><trkpt lat="45.251521751146164" lon="9.20419919275828"><ele>81.0</ele><time>2026-04-19T07:37:17Z</time></trkpt><trkpt lat="45.2514389572479" lon="9.204097599027861"><ele>81.0</ele><time>2026-04-19T07:37:19Z</time></trkpt><trkpt lat="45.25136746087694" lon="9.203984858562658"><ele>81.0</ele><time>2026-04-19T07:37:21Z</time></trkpt><trkpt lat="45.251280451463415" lon="9.203888849706964"><ele>80.8</ele><time>2026-04-19T07:37:23Z</time></trkpt><trkpt lat="45.25120598572819" lon="9.20378435079225"><ele>80.6</ele><time>2026-04-19T07:37:25Z</time></trkpt><trkpt lat="45.25113216212619" lon="9.203678737105186"><ele>80.4</ele><time>2026-04-19T07:37:27Z</time></trkpt><trkpt lat="45.25105893676693" lon="9.203574336650167"><ele>80.2</ele><time>2026-04-19T07:37:29Z</time></trkpt><trkpt lat="45.250988389710045" lon="9.203477457128397"><ele>80.0</ele><time>2026-04-19T07:37:31Z</time></trkpt><trkpt lat="45.25092360074586" lon="9.20338374225169"><ele>80.0</ele><time>2026-04-19T07:37:33Z</time></trkpt><trkpt lat="45.25085759075488" lon="9.203295370083557"><ele>80.0</ele><time>2026-04-19T07:37:35Z</time></trkpt><trkpt lat="45.250787271140375" lon="9.203212492630797"><ele>80.0</ele><time>2026-04-19T07:37:37Z</time></trkpt><trkpt lat="45.2507251191706" lon="9.203112632846613"><ele>80.0</ele><time>2026-04-19T07:37:39Z</time></trkpt><trkpt lat="45.250678549030155" lon="9.203011273373999"><ele>80.0</ele><time>2026-04-19T07:37:41Z</time></trkpt><trkpt lat="45.25060595295572" lon="9.202924105521326"><ele>80.0</ele><time>2026-04-19T07:37:43Z</time></trkpt><trkpt lat="45.25053935956252" lon="9.202844588494926"><ele>80.0</ele><time>2026-04-19T07:37:45Z</time></trkpt><trkpt lat="45.25048105887575" lon="9.20274681087247"><ele>80.0</ele><time>2026-04-19T07:37:47Z</time></trkpt><trkpt lat="45.25041871413653" lon="9.202648972794162"><ele>80.0</ele><time>2026-04-19T07:37:49Z</time></trkpt><trkpt lat="45.250356373387156" lon="9.20255133477917"><ele>80.0</ele><time>2026-04-19T07:37:51Z</time></trkpt><trkpt lat="45.250299084116" lon="9.202455993563905"><ele>80.0</ele><time>2026-04-19T07:37:53Z</time></trkpt><trkpt lat="45.25023737329336" lon="9.202363640062817"><ele>80.0</ele><time>2026-04-19T07:37:55Z</time></trkpt><trkpt lat="45.2501787937502" lon="9.202275668562304"><ele>80.0</ele><time>2026-04-19T07:37:57Z</time></trkpt><trkpt lat="45.25010997024827" lon="9.202171847432325"><ele>80.0</ele><time>2026-04-19T07:37:59Z</time></trkpt><trkpt lat="45.25004146845392" lon="9.202075050029714"><ele>80.0</ele><time>2026-04-19T07:38:01Z</time></trkpt><trkpt lat="45.24997683668114" lon="9.20197794947389"><ele>80.0</ele><time>2026-04-19T07:38:03Z</time></trkpt><trkpt lat="45.24991424852256" lon="9.20187934939662"><ele>80.0</ele><time>2026-04-19T07:38:05Z</time></trkpt><trkpt lat="45.24985040897033" lon="9.201786433420539"><ele>80.0</ele><time>2026-04-19T07:38:07Z</time></trkpt><trkpt lat="45.2497946224107" lon="9.201695317991796"><ele>80.0</ele><time>2026-04-19T07:38:09Z</time></trkpt><trkpt lat="45.24973214173911" lon="9.201612463199872"><ele>80.0</ele><time>2026-04-19T07:38:11Z</time></trkpt><trkpt lat="45.249668909467275" lon="9.201513809030532"><ele>80.0</ele><time>2026-04-19T07:38:13Z</time></trkpt><trkpt lat="45.24960387462043" lon="9.201416824026412"><ele>80.0</ele><time>2026-04-19T07:38:15Z</time></trkpt><trkpt lat="45.24953455596629" lon="9.201320646880315"><ele>80.0</ele><time>2026-04-19T07:38:17Z</time></trkpt><trkpt lat="45.24947506398985" lon="9.201234848037311"><ele>80.0</ele><time>2026-04-19T07:38:19Z</time></trkpt><trkpt lat="45.249417157091386" lon="9.201140711796521"><ele>80.0</ele><time>2026-04-19T07:38:21Z</time></trkpt><trkpt lat="45.249359384336394" lon="9.201050504694207"><ele>80.0</ele><time>2026-04-19T07:38:23Z</time></trkpt><trkpt lat="45.249296616066054" lon="9.200954398925965"><ele>80.0</ele><time>2026-04-19T07:38:25Z</time></trkpt><trkpt lat="45.2492340585369" lon="9.200865019479828"><ele>80.0</ele><time>2026-04-19T07:38:26.999Z</time></trkpt><trkpt lat="45.24916679459884" lon="9.200777152632138"><ele>80.0</ele><time>2026-04-19T07:38:28.999Z</time></trkpt><trkpt lat="45.24910691566269" lon="9.200681484106584"><ele>80.0</ele><time>2026-04-19T07:38:30.999Z</time></trkpt><trkpt lat="45.24904949339963" lon="9.20058957545543"><ele>80.0</ele><time>2026-04-19T07:38:32.999Z</time></trkpt><trkpt lat="45.24898482961899" lon="9.200508965368863"><ele>80.0</ele><time>2026-04-19T07:38:34.999Z</time></trkpt><trkpt lat="45.24891862258891" lon="9.200419256177305"><ele>80.0</ele><time>2026-04-19T07:38:36.999Z</time></trkpt><trkpt lat="45.24885194962929" lon="9.20033738600545"><ele>80.33333333333334</ele><time>2026-04-19T07:38:38.999Z</time></trkpt><trkpt lat="45.24878361447971" lon="9.200257475726696"><ele>80.66666666666667</ele><time>2026-04-19T07:38:40.999Z</time></trkpt><trkpt lat="45.2487137476167" lon="9.200180664067513"><ele>81.0</ele><time>2026-04-19T07:38:43Z</time></trkpt><trkpt lat="45.24863941566703" lon="9.200112932642798"><ele>81.33333333333333</ele><time>2026-04-19T07:38:45Z</time></trkpt><trkpt lat="45.24856731889637" lon="9.200035109773145"><ele>81.66666666666666</ele><time>2026-04-19T07:38:47Z</time></trkpt><trkpt lat="45.24849684490199" lon="9.199960192751742"><ele>82.0</ele><time>2026-04-19T07:38:49Z</time></trkpt><trkpt lat="45.24843394384219" lon="9.199892573145558"><ele>82.0</ele><time>2026-04-19T07:38:51Z</time></trkpt><trkpt lat="45.24835726133979" lon="9.199827179209935"><ele>82.0</ele><time>2026-04-19T07:38:53Z</time></trkpt><trkpt lat="45.24827774505577" lon="9.19977713479208"><ele>82.0</ele><time>2026-04-19T07:38:55Z</time></trkpt><trkpt lat="45.24820605945914" lon="9.199706327795484"><ele>82.0</ele><time>2026-04-19T07:38:57Z</time></trkpt><trkpt lat="45.2481381804001" lon="9.199631252271288"><ele>82.0</ele><time>2026-04-19T07:38:59Z</time></trkpt><trkpt lat="45.248073711510514" lon="9.199561911937018"><ele>82.0</ele><time>2026-04-19T07:39:01Z</time></trkpt><trkpt lat="45.24800513131657" lon="9.199490655015833"><ele>82.0</ele><time>2026-04-19T07:39:03Z</time></trkpt><trkpt lat="45.2479375861896" lon="9.199427645348393"><ele>82.0</ele><time>2026-04-19T07:39:05Z</time></trkpt><trkpt lat="45.24786972837017" lon="9.199368682941255"><ele>82.0</ele><time>2026-04-19T07:39:07Z</time></trkpt><trkpt lat="45.24780858524358" lon="9.199295398591046"><ele>82.0</ele><time>2026-04-19T07:39:09Z</time></trkpt><trkpt lat="45.24773205331211" lon="9.199227305276622"><ele>82.0</ele><time>2026-04-19T07:39:11Z</time></trkpt><trkpt lat="45.24765638797872" lon="9.199153061035139"><ele>82.0</ele><time>2026-04-19T07:39:13Z</time></trkpt><trkpt lat="45.24758276997945" lon="9.199072301749004"><ele>82.0</ele><time>2026-04-19T07:39:15Z</time></trkpt><trkpt lat="45.247509979593886" lon="9.198992552482023"><ele>82.0</ele><time>2026-04-19T07:39:17Z</time></trkpt><trkpt lat="45.247445032066636" lon="9.198907723595825"><ele>82.0</ele><time>2026-04-19T07:39:19Z</time></trkpt><trkpt lat="45.24738026982322" lon="9.19882000550438"><ele>82.0</ele><time>2026-04-19T07:39:21Z</time></trkpt><trkpt lat="45.247316704192166" lon="9.198733829648544"><ele>82.0</ele><time>2026-04-19T07:39:23Z</time></trkpt><trkpt lat="45.24726553519677" lon="9.19863866776954"><ele>82.0</ele><time>2026-04-19T07:39:25Z</time></trkpt><trkpt lat="45.24720906020736" lon="9.198547325403169"><ele>82.0</ele><time>2026-04-19T07:39:27Z</time></trkpt><trkpt lat="45.24715494214002" lon="9.198456168084821"><ele>82.0</ele><time>2026-04-19T07:39:29Z</time></trkpt><trkpt lat="45.247096157671955" lon="9.198368026329609"><ele>82.0</ele><time>2026-04-19T07:39:31Z</time></trkpt><trkpt lat="45.24704138944491" lon="9.198284342250489"><ele>82.0</ele><time>2026-04-19T07:39:33Z</time></trkpt><trkpt lat="45.246987613964826" lon="9.198203532616514"><ele>82.0</ele><time>2026-04-19T07:39:35Z</time></trkpt><trkpt lat="45.246931743737754" lon="9.19812700086457"><ele>82.0</ele><time>2026-04-19T07:39:37Z</time></trkpt><trkpt lat="45.24687370843689" lon="9.198027828203491"><ele>81.66666666666666</ele><time>2026-04-19T07:39:39Z</time></trkpt><trkpt lat="45.24682344933101" lon="9.19792501046361"><ele>81.33333333333333</ele><time>2026-04-19T07:39:41Z</time></trkpt><trkpt lat="45.246771728413705" lon="9.197831486316478"><ele>81.0</ele><time>2026-04-19T07:39:43Z</time></trkpt><trkpt lat="45.24672313331526" lon="9.197724761201838"><ele>80.66666666666667</ele><time>2026-04-19T07:39:45Z</time></trkpt><trkpt lat="45.24667416543802" lon="9.19761316799495"><ele>80.33333333333334</ele><time>2026-04-19T07:39:47Z</time></trkpt><trkpt lat="45.246624788026004" lon="9.197506847753816"><ele>80.0</ele><time>2026-04-19T07:39:49Z</time></trkpt><trkpt lat="45.24658255262763" lon="9.19739367484989"><ele>80.0</ele><time>2026-04-19T07:39:51.001Z</time></trkpt><trkpt lat="45.24654979409791" lon="9.197272047002638"><ele>80.0</ele><time>2026-04-19T07:39:53.001Z</time></trkpt><trkpt lat="45.24651162331563" lon="9.197144584174978"><ele>80.0</ele><time>2026-04-19T07:39:55.001Z</time></trkpt><trkpt lat="45.24647076928763" lon="9.197024227175985"><ele>80.0</ele><time>2026-04-19T07:39:57.001Z</time></trkpt><trkpt lat="45.24643734987847" lon="9.196902675915984"><ele>80.0</ele><time>2026-04-19T07:39:59.001Z</time></trkpt><trkpt lat="45.24640332465067" lon="9.19679383020408"><ele>80.0</ele><time>2026-04-19T07:40:01.001Z</time></trkpt><trkpt lat="45.2463656654728" lon="9.196686504729325"><ele>80.0</ele><time>2026-04-19T07:40:03.001Z</time></trkpt><trkpt lat="45.24632542195181" lon="9.196581333065982"><ele>80.0</ele><time>2026-04-19T07:40:05.001Z</time></trkpt><trkpt lat="45.24627286053363" lon="9.196488069375244"><ele>80.0</ele><time>2026-04-19T07:40:07.001Z</time></trkpt><trkpt lat="45.246243839466956" lon="9.196367829193262"><ele>80.0</ele><time>2026-04-19T07:40:09.001Z</time></trkpt><trkpt lat="45.246215952045475" lon="9.196254030699675"><ele>80.0</ele><time>2026-04-19T07:40:11.001Z</time></trkpt><trkpt lat="45.24618635877538" lon="9.196144734925527"><ele>80.0</ele><time>2026-04-19T07:40:13.001Z</time></trkpt><trkpt lat="45.24617767375315" lon="9.196015147382994"><ele>80.0</ele><time>2026-04-19T07:40:15.001Z</time></trkpt><trkpt lat="45.24617234976908" lon="9.19588833634354"><ele>80.0</ele><time>2026-04-19T07:40:17.001Z</time></trkpt><trkpt lat="45.24618278766202" lon="9.195774709070594"><ele>80.0</ele><time>2026-04-19T07:40:19.001Z</time></trkpt><trkpt lat="45.24615231635386" lon="9.195658410990307"><ele>80.0</ele><time>2026-04-19T07:40:21.001Z</time></trkpt><trkpt lat="45.24612116983649" lon="9.195544163056107"><ele>80.0</ele><time>2026-04-19T07:40:23.001Z</time></trkpt><trkpt lat="45.246097487031165" lon="9.195420728374822"><ele>80.16666666666667</ele><time>2026-04-19T07:40:25.001Z</time></trkpt><trkpt lat="45.246087986338324" lon="9.195293825393115"><ele>80.33333333333334</ele><time>2026-04-19T07:40:27.001Z</time></trkpt><trkpt lat="45.24607470007441" lon="9.195168443601037"><ele>80.5</ele><time>2026-04-19T07:40:29.001Z</time></trkpt><trkpt lat="45.24604557234659" lon="9.195043663295358"><ele>80.66666666666667</ele><time>2026-04-19T07:40:31.001Z</time></trkpt><trkpt lat="45.24603303480234" lon="9.194935326869931"><ele>80.83333333333333</ele><time>2026-04-19T07:40:33Z</time></trkpt><trkpt lat="45.24601910339956" lon="9.194816539298394"><ele>81.0</ele><time>2026-04-19T07:40:35Z</time></trkpt><trkpt lat="45.246014469916126" lon="9.194687105668718"><ele>81.0</ele><time>2026-04-19T07:40:37Z</time></trkpt><trkpt lat="45.2460188543311" lon="9.194553831571518"><ele>81.0</ele><time>2026-04-19T07:40:39Z</time></trkpt><trkpt lat="45.24601241963754" lon="9.194429639537203"><ele>81.0</ele><time>2026-04-19T07:40:41Z</time></trkpt><trkpt lat="45.245974243063806" lon="9.194311434540024"><ele>81.0</ele><time>2026-04-19T07:40:43Z</time></trkpt><trkpt lat="45.24592331064807" lon="9.194204526526079"><ele>81.0</ele><time>2026-04-19T07:40:45Z</time></trkpt><trkpt lat="45.24590970982133" lon="9.194074393445291"><ele>81.16666666666667</ele><time>2026-04-19T07:40:47Z</time></trkpt><trkpt lat="45.245891364144626" lon="9.193948299587337"><ele>81.33333333333333</ele><time>2026-04-19T07:40:49Z</time></trkpt><trkpt lat="45.245881690645476" lon="9.193824546956437"><ele>81.5</ele><time>2026-04-19T07:40:51Z</time></trkpt><trkpt lat="45.245864722283635" lon="9.193709757995475"><ele>81.66666666666666</ele><time>2026-04-19T07:40:53.001Z</time></trkpt><trkpt lat="45.24584227088216" lon="9.193612808043644"><ele>81.83333333333333</ele><time>2026-04-19T07:40:55.001Z</time></trkpt><trkpt lat="45.24576841120579" lon="9.193557862894393"><ele>82.0</ele><time>2026-04-19T07:40:57.001Z</time></trkpt><trkpt lat="45.24566499008741" lon="9.193556847252864"><ele>81.8</ele><time>2026-04-19T07:40:59.001Z</time></trkpt><trkpt lat="45.245568918031516" lon="9.193545710095947"><ele>81.6</ele><time>2026-04-19T07:41:01.001Z</time></trkpt><trkpt lat="45.2454673815374" lon="9.193533633173589"><ele>81.39999999999999</ele><time>2026-04-19T07:41:03.001Z</time></trkpt><trkpt lat="45.245363229218114" lon="9.193525617193101"><ele>81.19999999999999</ele><time>2026-04-19T07:41:05.001Z</time></trkpt><trkpt lat="45.24526217027163" lon="9.19350959883335"><ele>81.0</ele><time>2026-04-19T07:41:07.001Z</time></trkpt><trkpt lat="45.24516104482066" lon="9.193500693042402"><ele>81.0</ele><time>2026-04-19T07:41:09.001Z</time></trkpt><trkpt lat="45.24505485361503" lon="9.193493160997823"><ele>81.0</ele><time>2026-04-19T07:41:11.001Z</time></trkpt><trkpt lat="45.24495120976101" lon="9.193481228790155"><ele>81.0</ele><time>2026-04-19T07:41:13.001Z</time></trkpt><trkpt lat="45.244849057123915" lon="9.19347216640589"><ele>81.0</ele><time>2026-04-19T07:41:15.001Z</time></trkpt><trkpt lat="45.244750315635365" lon="9.193449571193625"><ele>81.0</ele><time>2026-04-19T07:41:17.001Z</time></trkpt><trkpt lat="45.24464525442157" lon="9.193441404293525"><ele>80.8</ele><time>2026-04-19T07:41:19.001Z</time></trkpt><trkpt lat="45.24454099734853" lon="9.193454403667392"><ele>80.6</ele><time>2026-04-19T07:41:21.001Z</time></trkpt><trkpt lat="45.2444355824286" lon="9.193474591495841"><ele>80.4</ele><time>2026-04-19T07:41:23.001Z</time></trkpt><trkpt lat="45.24433021346743" lon="9.193497955669725"><ele>80.2</ele><time>2026-04-19T07:41:25.001Z</time></trkpt><trkpt lat="45.24422403549999" lon="9.193524817671296"><ele>80.0</ele><time>2026-04-19T07:41:27.001Z</time></trkpt><trkpt lat="45.24412183312233" lon="9.193557062986063"><ele>80.0</ele><time>2026-04-19T07:41:29.001Z</time></trkpt><trkpt lat="45.24401326396555" lon="9.19357940862474"><ele>80.0</ele><time>2026-04-19T07:41:31.001Z</time></trkpt><trkpt lat="45.24390300979505" lon="9.193589105294844"><ele>80.0</ele><time>2026-04-19T07:41:33.001Z</time></trkpt><trkpt lat="45.24379106239143" lon="9.193584051555161"><ele>80.0</ele><time>2026-04-19T07:41:35.001Z</time></trkpt><trkpt lat="45.24367809233306" lon="9.193573736013892"><ele>80.0</ele><time>2026-04-19T07:41:37.001Z</time></trkpt><trkpt lat="45.24356705462183" lon="9.193574637795185"><ele>80.0</ele><time>2026-04-19T07:41:39.001Z</time></trkpt><trkpt lat="45.2434580072198" lon="9.193565303798811"><ele>80.0</ele><time>2026-04-19T07:41:41.001Z</time></trkpt><trkpt lat="45.243348024115164" lon="9.193561516046323"><ele>80.0</ele><time>2026-04-19T07:41:43.001Z</time></trkpt><trkpt lat="45.24323923360401" lon="9.193545930811641"><ele>80.0</ele><time>2026-04-19T07:41:45.001Z</time></trkpt><trkpt lat="45.24313174378389" lon="9.19352646304043"><ele>80.0</ele><time>2026-04-19T07:41:47.001Z</time></trkpt><trkpt lat="45.24302266170062" lon="9.193501428542746"><ele>80.4</ele><time>2026-04-19T07:41:49.001Z</time></trkpt><trkpt lat="45.24291969202851" lon="9.19345355369736"><ele>80.8</ele><time>2026-04-19T07:41:51.001Z</time></trkpt><trkpt lat="45.24281570635664" lon="9.193400776993524"><ele>81.19999999999999</ele><time>2026-04-19T07:41:53.001Z</time></trkpt><trkpt lat="45.24271863248195" lon="9.193340289843874"><ele>81.6</ele><time>2026-04-19T07:41:55.001Z</time></trkpt><trkpt lat="45.24262494523901" lon="9.19328173005013"><ele>82.0</ele><time>2026-04-19T07:41:57.001Z</time></trkpt><trkpt lat="45.242532964856075" lon="9.193216351360237"><ele>82.0</ele><time>2026-04-19T07:41:59.001Z</time></trkpt><trkpt lat="45.24243921992071" lon="9.193165612582614"><ele>82.0</ele><time>2026-04-19T07:42:01.001Z</time></trkpt><trkpt lat="45.24234442943078" lon="9.19311218154605"><ele>82.0</ele><time>2026-04-19T07:42:03.001Z</time></trkpt><trkpt lat="45.24225110552041" lon="9.193065976170724"><ele>82.0</ele><time>2026-04-19T07:42:05.001Z</time></trkpt><trkpt lat="45.24215881506251" lon="9.193012456301593"><ele>82.0</ele><time>2026-04-19T07:42:07.001Z</time></trkpt><trkpt lat="45.24206285014425" lon="9.19298151497424"><ele>82.39999999999999</ele><time>2026-04-19T07:42:09.001Z</time></trkpt><trkpt lat="45.24197176302985" lon="9.192936272812137"><ele>82.8</ele><time>2026-04-19T07:42:11.001Z</time></trkpt><trkpt lat="45.241876678747836" lon="9.19288244636725"><ele>83.2</ele><time>2026-04-19T07:42:13.001Z</time></trkpt><trkpt lat="45.2418016524238" lon="9.19283407522296"><ele>83.6</ele><time>2026-04-19T07:42:15.001Z</time></trkpt><trkpt lat="45.241712313986234" lon="9.192798438878944"><ele>84.0</ele><time>2026-04-19T07:42:17.001Z</time></trkpt><trkpt lat="45.24163501745249" lon="9.192744742986504"><ele>84.0</ele><time>2026-04-19T07:42:19.001Z</time></trkpt><trkpt lat="45.241555963589455" lon="9.192694766305724"><ele>84.0</ele><time>2026-04-19T07:42:21.001Z</time></trkpt><trkpt lat="45.2414711836187" lon="9.192652243814878"><ele>84.0</ele><time>2026-04-19T07:42:23.001Z</time></trkpt><trkpt lat="45.24138836189933" lon="9.192591310239646"><ele>84.0</ele><time>2026-04-19T07:42:25.001Z</time></trkpt><trkpt lat="45.24131796846765" lon="9.1925269555648"><ele>84.0</ele><time>2026-04-19T07:42:27.001Z</time></trkpt><trkpt lat="45.24124340619924" lon="9.192457421119572"><ele>84.0</ele><time>2026-04-19T07:42:29.001Z</time></trkpt><trkpt lat="45.24116657397976" lon="9.192404886462713"><ele>84.0</ele><time>2026-04-19T07:42:31.001Z</time></trkpt><trkpt lat="45.241087759665426" lon="9.19234551751566"><ele>84.0</ele><time>2026-04-19T07:42:33.001Z</time></trkpt><trkpt lat="45.24101327721215" lon="9.192272208493515"><ele>84.0</ele><time>2026-04-19T07:42:35.001Z</time></trkpt><trkpt lat="45.240939406468584" lon="9.192180249163876"><ele>84.0</ele><time>2026-04-19T07:42:37.001Z</time></trkpt><trkpt lat="45.24086917488769" lon="9.192093783770273"><ele>84.0</ele><time>2026-04-19T07:42:39Z</time></trkpt><trkpt lat="45.24079709806779" lon="9.191995511469619"><ele>84.0</ele><time>2026-04-19T07:42:41Z</time></trkpt><trkpt lat="45.24072658482732" lon="9.191897920004397"><ele>84.0</ele><time>2026-04-19T07:42:43Z</time></trkpt><trkpt lat="45.24065600075975" lon="9.191800083995709"><ele>84.0</ele><time>2026-04-19T07:42:45Z</time></trkpt><trkpt lat="45.24058587153131" lon="9.191710314512385"><ele>84.0</ele><time>2026-04-19T07:42:47Z</time></trkpt><trkpt lat="45.240515028301886" lon="9.191616284197673"><ele>84.0</ele><time>2026-04-19T07:42:49Z</time></trkpt><trkpt lat="45.240443046994976" lon="9.191528920631933"><ele>84.0</ele><time>2026-04-19T07:42:51Z</time></trkpt><trkpt lat="45.24037726964996" lon="9.191434702222352"><ele>84.0</ele><time>2026-04-19T07:42:53Z</time></trkpt><trkpt lat="45.24031269211595" lon="9.191345506033247"><ele>84.0</ele><time>2026-04-19T07:42:55Z</time></trkpt><trkpt lat="45.240275087077805" lon="9.191235083725196"><ele>84.0</ele><time>2026-04-19T07:42:57Z</time></trkpt><trkpt lat="45.240246915901594" lon="9.191116209839128"><ele>84.0</ele><time>2026-04-19T07:42:59Z</time></trkpt><trkpt lat="45.24023278316324" lon="9.190987636218013"><ele>84.0</ele><time>2026-04-19T07:43:01.001Z</time></trkpt><trkpt lat="45.24023064345436" lon="9.190861800229529"><ele>84.0</ele><time>2026-04-19T07:43:03.001Z</time></trkpt><trkpt lat="45.24021945910031" lon="9.190738776643686"><ele>84.0</ele><time>2026-04-19T07:43:05.001Z</time></trkpt><trkpt lat="45.240184221979405" lon="9.190620453784938"><ele>84.0</ele><time>2026-04-19T07:43:07.001Z</time></trkpt><trkpt lat="45.24013401155744" lon="9.190509377951091"><ele>84.0</ele><time>2026-04-19T07:43:09.001Z</time></trkpt><trkpt lat="45.240058029162554" lon="9.190420957124072"><ele>84.16666666666667</ele><time>2026-04-19T07:43:11.001Z</time></trkpt><trkpt lat="45.24000790072271" lon="9.190304227509822"><ele>84.33333333333333</ele><time>2026-04-19T07:43:13.001Z</time></trkpt><trkpt lat="45.23995567264713" lon="9.190207806825294"><ele>84.5</ele><time>2026-04-19T07:43:15.001Z</time></trkpt><trkpt lat="45.23990536058245" lon="9.190122321412762"><ele>84.66666666666666</ele><time>2026-04-19T07:43:17.001Z</time></trkpt><trkpt lat="45.23985000636046" lon="9.19005952745956"><ele>84.83333333333333</ele><time>2026-04-19T07:43:19.001Z</time></trkpt><trkpt lat="45.239797090317616" lon="9.189964918320147"><ele>85.0</ele><time>2026-04-19T07:43:21.001Z</time></trkpt><trkpt lat="45.23973846865862" lon="9.189873853623826"><ele>84.8</ele><time>2026-04-19T07:43:23.001Z</time></trkpt><trkpt lat="45.23967591581328" lon="9.189785905345627"><ele>84.6</ele><time>2026-04-19T07:43:25.001Z</time></trkpt><trkpt lat="45.23961271524737" lon="9.18969778486957"><ele>84.4</ele><time>2026-04-19T07:43:27.001Z</time></trkpt><trkpt lat="45.23954710297991" lon="9.189609565471777"><ele>84.2</ele><time>2026-04-19T07:43:29.001Z</time></trkpt><trkpt lat="45.239480772044594" lon="9.18951730807699"><ele>84.0</ele><time>2026-04-19T07:43:31.001Z</time></trkpt><trkpt lat="45.239413549126326" lon="9.189430316120106"><ele>84.0</ele><time>2026-04-19T07:43:33.001Z</time></trkpt><trkpt lat="45.239348597829256" lon="9.189339582988332"><ele>84.0</ele><time>2026-04-19T07:43:35.001Z</time></trkpt><trkpt lat="45.23928054685813" lon="9.189252868930712"><ele>84.0</ele><time>2026-04-19T07:43:37.001Z</time></trkpt><trkpt lat="45.2392112357856" lon="9.189159117026055"><ele>84.0</ele><time>2026-04-19T07:43:39.001Z</time></trkpt><trkpt lat="45.23913985601589" lon="9.189070231381896"><ele>84.0</ele><time>2026-04-19T07:43:41.001Z</time></trkpt><trkpt lat="45.23906840416782" lon="9.188976544099633"><ele>83.80000000000001</ele><time>2026-04-19T07:43:43.001Z</time></trkpt><trkpt lat="45.238999066957895" lon="9.188883843664787"><ele>83.60000000000001</ele><time>2026-04-19T07:43:45.001Z</time></trkpt><trkpt lat="45.23892863413112" lon="9.18879415947156"><ele>83.4</ele><time>2026-04-19T07:43:47.001Z</time></trkpt><trkpt lat="45.23885622646497" lon="9.188703993876903"><ele>83.2</ele><time>2026-04-19T07:43:49.001Z</time></trkpt><trkpt lat="45.23879372761797" lon="9.18860232322507"><ele>83.0</ele><time>2026-04-19T07:43:51.001Z</time></trkpt><trkpt lat="45.238727681931145" lon="9.188509503611579"><ele>83.4</ele><time>2026-04-19T07:43:53.001Z</time></trkpt><trkpt lat="45.23865945165579" lon="9.188406848516673"><ele>83.80000000000001</ele><time>2026-04-19T07:43:55.001Z</time></trkpt><trkpt lat="45.2385839044224" lon="9.18831488892522"><ele>84.2</ele><time>2026-04-19T07:43:57.001Z</time></trkpt><trkpt lat="45.23849793928321" lon="9.188237347528776"><ele>84.6</ele><time>2026-04-19T07:43:59.001Z</time></trkpt><trkpt lat="45.23843478744364" lon="9.188120206832423"><ele>85.0</ele><time>2026-04-19T07:44:01.001Z</time></trkpt><trkpt lat="45.23836633016147" lon="9.18801369311847"><ele>85.0</ele><time>2026-04-19T07:44:03.001Z</time></trkpt><trkpt lat="45.23829267322558" lon="9.187902678547815"><ele>85.0</ele><time>2026-04-19T07:44:05.001Z</time></trkpt><trkpt lat="45.23821533080658" lon="9.187797217394248"><ele>85.0</ele><time>2026-04-19T07:44:07.001Z</time></trkpt><trkpt lat="45.23814456483178" lon="9.187682587457829"><ele>85.0</ele><time>2026-04-19T07:44:09.001Z</time></trkpt><trkpt lat="45.23806688731165" lon="9.187564512879204"><ele>85.0</ele><time>2026-04-19T07:44:11.001Z</time></trkpt><trkpt lat="45.23799082013236" lon="9.187445241574089"><ele>85.0</ele><time>2026-04-19T07:44:13.001Z</time></trkpt><trkpt lat="45.23791348698056" lon="9.187330310994946"><ele>85.0</ele><time>2026-04-19T07:44:15.001Z</time></trkpt><trkpt lat="45.237840294560534" lon="9.187224931520838"><ele>85.0</ele><time>2026-04-19T07:44:17.001Z</time></trkpt><trkpt lat="45.23776525155627" lon="9.187119255563882"><ele>85.0</ele><time>2026-04-19T07:44:19.001Z</time></trkpt><trkpt lat="45.23769197285664" lon="9.187022524295784"><ele>85.0</ele><time>2026-04-19T07:44:21.001Z</time></trkpt><trkpt lat="45.23760912132391" lon="9.18692459627034"><ele>85.0</ele><time>2026-04-19T07:44:23.001Z</time></trkpt><trkpt lat="45.237527633238145" lon="9.186833729534545"><ele>85.0</ele><time>2026-04-19T07:44:25.001Z</time></trkpt><trkpt lat="45.23744217308503" lon="9.186752657119944"><ele>85.0</ele><time>2026-04-19T07:44:27.001Z</time></trkpt><trkpt lat="45.23735933760904" lon="9.186664405890026"><ele>85.0</ele><time>2026-04-19T07:44:29.001Z</time></trkpt><trkpt lat="45.2372741420866" lon="9.186591319176065"><ele>85.0</ele><time>2026-04-19T07:44:31.001Z</time></trkpt><trkpt lat="45.23718693416144" lon="9.186516468028353"><ele>84.8</ele><time>2026-04-19T07:44:33.001Z</time></trkpt><trkpt lat="45.23709725139" lon="9.186452251798114"><ele>84.6</ele><time>2026-04-19T07:44:35.001Z</time></trkpt><trkpt lat="45.237008710131796" lon="9.186381311024792"><ele>84.4</ele><time>2026-04-19T07:44:37.001Z</time></trkpt><trkpt lat="45.236921956263444" lon="9.186310663791076"><ele>84.2</ele><time>2026-04-19T07:44:39.001Z</time></trkpt><trkpt lat="45.23682680817831" lon="9.186245042872653"><ele>84.0</ele><time>2026-04-19T07:44:41.001Z</time></trkpt><trkpt lat="45.23673459651388" lon="9.186182482644107"><ele>84.0</ele><time>2026-04-19T07:44:43.001Z</time></trkpt><trkpt lat="45.236644210099534" lon="9.186132990786104"><ele>84.0</ele><time>2026-04-19T07:44:45Z</time></trkpt><trkpt lat="45.23655715486247" lon="9.186090459875363"><ele>84.0</ele><time>2026-04-19T07:44:47Z</time></trkpt><trkpt lat="45.23647444827357" lon="9.186041505927639"><ele>84.0</ele><time>2026-04-19T07:44:49Z</time></trkpt><trkpt lat="45.23638787859413" lon="9.185997264392958"><ele>84.0</ele><time>2026-04-19T07:44:51Z</time></trkpt><trkpt lat="45.23630307848934" lon="9.185945795953916"><ele>84.16666666666667</ele><time>2026-04-19T07:44:53Z</time></trkpt><trkpt lat="45.23621439702454" lon="9.185905039892528"><ele>84.33333333333333</ele><time>2026-04-19T07:44:55Z</time></trkpt><trkpt lat="45.236120281803956" lon="9.185904684133888"><ele>84.5</ele><time>2026-04-19T07:44:57Z</time></trkpt><trkpt lat="45.23602643297455" lon="9.185890637258195"><ele>84.66666666666666</ele><time>2026-04-19T07:44:59Z</time></trkpt><trkpt lat="45.235938269636954" lon="9.18587404649105"><ele>84.83333333333333</ele><time>2026-04-19T07:45:01Z</time></trkpt><trkpt lat="45.23587256700739" lon="9.185860392590653"><ele>85.0</ele><time>2026-04-19T07:45:03Z</time></trkpt><trkpt lat="45.23579859762859" lon="9.185924162981651"><ele>85.0</ele><time>2026-04-19T07:45:06.001Z</time></trkpt><trkpt lat="45.23575508816523" lon="9.186036701397121"><ele>85.0</ele><time>2026-04-19T07:45:08.001Z</time></trkpt><trkpt lat="45.235659993407054" lon="9.185970947820879"><ele>85.0</ele><time>2026-04-19T07:45:10.001Z</time></trkpt><trkpt lat="45.23558579769672" lon="9.185899816988709"><ele>85.0</ele><time>2026-04-19T07:45:12.001Z</time></trkpt><trkpt lat="45.2355026248585" lon="9.185881211586882"><ele>85.0</ele><time>2026-04-19T07:45:14.001Z</time></trkpt><trkpt lat="45.23543222021241" lon="9.185876926920137"><ele>85.0</ele><time>2026-04-19T07:45:16.001Z</time></trkpt><trkpt lat="45.23534777701908" lon="9.185873679638513"><ele>85.0</ele><time>2026-04-19T07:45:19.001Z</time></trkpt><trkpt lat="45.23528789196997" lon="9.185845161370656"><ele>85.0</ele><time>2026-04-19T07:45:23.001Z</time></trkpt><trkpt lat="45.2352713233237" lon="9.18573568356869"><ele>85.0</ele><time>2026-04-19T07:45:33.001Z</time></trkpt><trkpt lat="45.2352866733687" lon="9.18563921187842"><ele>85.0</ele><time>2026-04-19T07:45:35.001Z</time></trkpt><trkpt lat="45.235346437231044" lon="9.18561106540636"><ele>85.0</ele><time>2026-04-19T07:45:37.001Z</time></trkpt><trkpt lat="45.23542003430637" lon="9.185605822287659"><ele>85.0</ele><time>2026-04-19T07:45:39.001Z</time></trkpt><trkpt lat="45.23548805878957" lon="9.185563290686739"><ele>85.0</ele><time>2026-04-19T07:45:41.001Z</time></trkpt><trkpt lat="45.23555235465379" lon="9.185510514491027"><ele>85.0</ele><time>2026-04-19T07:45:43.001Z</time></trkpt><trkpt lat="45.2356001852725" lon="9.18543589762251"><ele>85.0</ele><time>2026-04-19T07:45:45.001Z</time></trkpt><trkpt lat="45.23562034458102" lon="9.185334360974169"><ele>85.0</ele><time>2026-04-19T07:45:47.001Z</time></trkpt><trkpt lat="45.23559693094145" lon="9.18523202893953"><ele>85.0</ele><time>2026-04-19T07:45:49.001Z</time></trkpt><trkpt lat="45.23555916795104" lon="9.185147040682875"><ele>85.0</ele><time>2026-04-19T07:45:51.001Z</time></trkpt><trkpt lat="45.235543120117875" lon="9.185056026241371"><ele>85.0</ele><time>2026-04-19T07:45:53.001Z</time></trkpt><trkpt lat="45.23550492009353" lon="9.18498187673621"><ele>85.0</ele><time>2026-04-19T07:45:56.001Z</time></trkpt><trkpt lat="45.23542621900433" lon="9.184934006196869"><ele>85.0</ele><time>2026-04-19T07:45:59.001Z</time></trkpt><trkpt lat="45.235364853505175" lon="9.184899164306296"><ele>85.0</ele><time>2026-04-19T07:46:01.001Z</time></trkpt><trkpt lat="45.235310558323505" lon="9.184835814841515"><ele>85.0</ele><time>2026-04-19T07:46:03.001Z</time></trkpt><trkpt lat="45.235242613187346" lon="9.184778267300294"><ele>85.0</ele><time>2026-04-19T07:46:05.001Z</time></trkpt><trkpt lat="45.235176719090035" lon="9.18471358555876"><ele>85.0</ele><time>2026-04-19T07:46:07.001Z</time></trkpt><trkpt lat="45.235104837887654" lon="9.18465822943277"><ele>85.0</ele><time>2026-04-19T07:46:09.001Z</time></trkpt><trkpt lat="45.23503377459575" lon="9.184602258399764"><ele>85.16666666666666</ele><time>2026-04-19T07:46:11.001Z</time></trkpt><trkpt lat="45.23496233570045" lon="9.184540979837312"><ele>85.33333333333333</ele><time>2026-04-19T07:46:13.001Z</time></trkpt><trkpt lat="45.23488819604348" lon="9.184482984185008"><ele>85.5</ele><time>2026-04-19T07:46:15.001Z</time></trkpt><trkpt lat="45.23481185621371" lon="9.184425896006159"><ele>85.66666666666667</ele><time>2026-04-19T07:46:17.001Z</time></trkpt><trkpt lat="45.23473343859894" lon="9.184372339007018"><ele>85.83333333333334</ele><time>2026-04-19T07:46:19.001Z</time></trkpt><trkpt lat="45.23465634206699" lon="9.184314837938036"><ele>86.0</ele><time>2026-04-19T07:46:21.001Z</time></trkpt><trkpt lat="45.23457901449513" lon="9.18424863899078"><ele>86.0</ele><time>2026-04-19T07:46:23.001Z</time></trkpt><trkpt lat="45.23449852125308" lon="9.18418548752447"><ele>86.0</ele><time>2026-04-19T07:46:25.001Z</time></trkpt><trkpt lat="45.234414998115774" lon="9.184121880706002"><ele>86.0</ele><time>2026-04-19T07:46:27.001Z</time></trkpt><trkpt lat="45.234330861721695" lon="9.184056008600873"><ele>86.0</ele><time>2026-04-19T07:46:29.001Z</time></trkpt><trkpt lat="45.2342421658773" lon="9.183975660503133"><ele>86.0</ele><time>2026-04-19T07:46:31.001Z</time></trkpt><trkpt lat="45.234150901187455" lon="9.183904669814895"><ele>86.0</ele><time>2026-04-19T07:46:33.001Z</time></trkpt><trkpt lat="45.23406249111128" lon="9.18382999720677"><ele>86.0</ele><time>2026-04-19T07:46:35.001Z</time></trkpt><trkpt lat="45.23397637762032" lon="9.18375647495708"><ele>86.0</ele><time>2026-04-19T07:46:37.001Z</time></trkpt><trkpt lat="45.233892637576375" lon="9.183683960055015"><ele>86.0</ele><time>2026-04-19T07:46:39.001Z</time></trkpt><trkpt lat="45.233812784681355" lon="9.183614263201099"><ele>86.0</ele><time>2026-04-19T07:46:41.001Z</time></trkpt><trkpt lat="45.23373157514206" lon="9.183548192501133"><ele>85.85714285714286</ele><time>2026-04-19T07:46:43.001Z</time></trkpt><trkpt lat="45.23365190627076" lon="9.183488527001066"><ele>85.71428571428572</ele><time>2026-04-19T07:46:45.001Z</time></trkpt><trkpt lat="45.23359214328183" lon="9.183426052197431"><ele>85.57142857142858</ele><time>2026-04-19T07:46:47.001Z</time></trkpt><trkpt lat="45.233530241350884" lon="9.183364918287358"><ele>85.42857142857143</ele><time>2026-04-19T07:46:50Z</time></trkpt><trkpt lat="45.23346777342493" lon="9.183307199392074"><ele>85.28571428571428</ele><time>2026-04-19T07:46:53Z</time></trkpt><trkpt lat="45.233410832868636" lon="9.183260043975968"><ele>85.14285714285715</ele><time>2026-04-19T07:46:56Z</time></trkpt><trkpt lat="45.233442261064106" lon="9.183345738866993"><ele>85.0</ele><time>2026-04-19T07:47:04Z</time></trkpt><trkpt lat="45.233500370369306" lon="9.18340803930458"><ele>85.0</ele><time>2026-04-19T07:47:06Z</time></trkpt><trkpt lat="45.23356366111693" lon="9.1834634673216"><ele>85.0</ele><time>2026-04-19T07:47:08Z</time></trkpt><trkpt lat="45.23362692424206" lon="9.183511906932328"><ele>85.0</ele><time>2026-04-19T07:47:10Z</time></trkpt><trkpt lat="45.233683009944464" lon="9.183563199419861"><ele>85.0</ele><time>2026-04-19T07:47:12Z</time></trkpt><trkpt lat="45.233743889661675" lon="9.183606127590652"><ele>85.0</ele><time>2026-04-19T07:47:14Z</time></trkpt><trkpt lat="45.233809419179174" lon="9.183611986548826"><ele>85.0</ele><time>2026-04-19T07:47:16.001Z</time></trkpt><trkpt lat="45.23389007088528" lon="9.183518183246665"><ele>85.0</ele><time>2026-04-19T07:47:18.001Z</time></trkpt><trkpt lat="45.23391810722049" lon="9.183394276144458"><ele>85.0</ele><time>2026-04-19T07:47:20.001Z</time></trkpt><trkpt lat="45.233967424772935" lon="9.183284079254074"><ele>85.0</ele><time>2026-04-19T07:47:22.001Z</time></trkpt><trkpt lat="45.234025909260545" lon="9.183172005460111"><ele>85.0</ele><time>2026-04-19T07:47:24.001Z</time></trkpt><trkpt lat="45.23407477493999" lon="9.183055120313444"><ele>85.0</ele><time>2026-04-19T07:47:26.001Z</time></trkpt><trkpt lat="45.23412545739437" lon="9.182941027062208"><ele>85.2</ele><time>2026-04-19T07:47:28.001Z</time></trkpt><trkpt lat="45.23418128161461" lon="9.182826992460114"><ele>85.4</ele><time>2026-04-19T07:47:30.001Z</time></trkpt><trkpt lat="45.234236974885526" lon="9.18270834772269"><ele>85.6</ele><time>2026-04-19T07:47:32.001Z</time></trkpt><trkpt lat="45.23429001146135" lon="9.182585741886887"><ele>85.8</ele><time>2026-04-19T07:47:34.001Z</time></trkpt><trkpt lat="45.23434657379475" lon="9.182459433818275"><ele>86.0</ele><time>2026-04-19T07:47:36.001Z</time></trkpt><trkpt lat="45.234407531389785" lon="9.182344046093936"><ele>86.0</ele><time>2026-04-19T07:47:38.001Z</time></trkpt><trkpt lat="45.234458577806926" lon="9.18221230399683"><ele>86.0</ele><time>2026-04-19T07:47:40.001Z</time></trkpt><trkpt lat="45.23451960731163" lon="9.182087041462557"><ele>86.0</ele><time>2026-04-19T07:47:42.001Z</time></trkpt><trkpt lat="45.23457750466717" lon="9.181958537816204"><ele>86.0</ele><time>2026-04-19T07:47:44.001Z</time></trkpt><trkpt lat="45.23463261724153" lon="9.181828005569857"><ele>86.0</ele><time>2026-04-19T07:47:46.001Z</time></trkpt><trkpt lat="45.23468240673086" lon="9.181697459665257"><ele>86.0</ele><time>2026-04-19T07:47:48.001Z</time></trkpt><trkpt lat="45.234730449532" lon="9.181570886543366"><ele>86.0</ele><time>2026-04-19T07:47:50.001Z</time></trkpt><trkpt lat="45.23477822986119" lon="9.181440755592279"><ele>86.0</ele><time>2026-04-19T07:47:52.001Z</time></trkpt><trkpt lat="45.23482952124903" lon="9.181318309340138"><ele>86.0</ele><time>2026-04-19T07:47:54.001Z</time></trkpt><trkpt lat="45.23487687792684" lon="9.181186153776423"><ele>86.0</ele><time>2026-04-19T07:47:56.001Z</time></trkpt><trkpt lat="45.234928899455845" lon="9.181055287120609"><ele>85.83333333333334</ele><time>2026-04-19T07:47:58.001Z</time></trkpt><trkpt lat="45.23497243092988" lon="9.180928819573795"><ele>85.66666666666667</ele><time>2026-04-19T07:48:00.001Z</time></trkpt><trkpt lat="45.23500939670755" lon="9.180819993407404"><ele>85.5</ele><time>2026-04-19T07:48:02.001Z</time></trkpt><trkpt lat="45.23504300867716" lon="9.180726976041578"><ele>85.33333333333333</ele><time>2026-04-19T07:48:04.001Z</time></trkpt><trkpt lat="45.23510487057422" lon="9.180657859483624"><ele>85.16666666666666</ele><time>2026-04-19T07:48:07.001Z</time></trkpt><trkpt lat="45.23513339559308" lon="9.180575157576893"><ele>85.0</ele><time>2026-04-19T07:48:21.001Z</time></trkpt><trkpt lat="45.23517071121148" lon="9.180481378931862"><ele>85.0</ele><time>2026-04-19T07:48:25.001Z</time></trkpt><trkpt lat="45.23521508620925" lon="9.180388482608873"><ele>85.0</ele><time>2026-04-19T07:48:28.001Z</time></trkpt><trkpt lat="45.235258380476964" lon="9.180302984168291"><ele>85.0</ele><time>2026-04-19T07:48:31.001Z</time></trkpt><trkpt lat="45.23530131859124" lon="9.180219735719085"><ele>85.0</ele><time>2026-04-19T07:48:33.001Z</time></trkpt><trkpt lat="45.23534595104485" lon="9.180120192985454"><ele>85.0</ele><time>2026-04-19T07:48:35.001Z</time></trkpt><trkpt lat="45.23540234329178" lon="9.180012741690469"><ele>85.0</ele><time>2026-04-19T07:48:37.001Z</time></trkpt><trkpt lat="45.23545759946803" lon="9.179887885624291"><ele>85.0</ele><time>2026-04-19T07:48:39.001Z</time></trkpt><trkpt lat="45.23550790289201" lon="9.179755970078142"><ele>85.0</ele><time>2026-04-19T07:48:41.001Z</time></trkpt><trkpt lat="45.235575712769" lon="9.179625846474488"><ele>85.0</ele><time>2026-04-19T07:48:43.001Z</time></trkpt><trkpt lat="45.23564018609256" lon="9.179500665309911"><ele>85.0</ele><time>2026-04-19T07:48:45.001Z</time></trkpt><trkpt lat="45.23569278697417" lon="9.179371658540932"><ele>85.0</ele><time>2026-04-19T07:48:47.001Z</time></trkpt><trkpt lat="45.23573151371928" lon="9.179237500785355"><ele>85.0</ele><time>2026-04-19T07:48:49.001Z</time></trkpt><trkpt lat="45.23566222778244" lon="9.17913946726534"><ele>85.0</ele><time>2026-04-19T07:48:51.001Z</time></trkpt><trkpt lat="45.235561390209774" lon="9.179144149333949"><ele>85.0</ele><time>2026-04-19T07:48:53.001Z</time></trkpt><trkpt lat="45.23546389283432" lon="9.17914332339937"><ele>85.0</ele><time>2026-04-19T07:48:55.001Z</time></trkpt><trkpt lat="45.23536226376739" lon="9.1791475673654"><ele>85.0</ele><time>2026-04-19T07:48:57Z</time></trkpt><trkpt lat="45.23526045944319" lon="9.179150185231977"><ele>85.0</ele><time>2026-04-19T07:48:59Z</time></trkpt><trkpt lat="45.23514764317654" lon="9.179131268030181"><ele>85.0</ele><time>2026-04-19T07:49:01Z</time></trkpt><trkpt lat="45.23503979685382" lon="9.179104406054522"><ele>85.0</ele><time>2026-04-19T07:49:03Z</time></trkpt><trkpt lat="45.23493395378177" lon="9.179081943854763"><ele>85.0</ele><time>2026-04-19T07:49:05Z</time></trkpt><trkpt lat="45.23482567321777" lon="9.179054066697939"><ele>85.0</ele><time>2026-04-19T07:49:07Z</time></trkpt><trkpt lat="45.23471955701617" lon="9.179035574020757"><ele>84.8</ele><time>2026-04-19T07:49:09Z</time></trkpt><trkpt lat="45.23461599366032" lon="9.178999852656306"><ele>84.6</ele><time>2026-04-19T07:49:11Z</time></trkpt><trkpt lat="45.234514658824395" lon="9.17897230344756"><ele>84.4</ele><time>2026-04-19T07:49:13Z</time></trkpt><trkpt lat="45.23441394540412" lon="9.178954996309283"><ele>84.2</ele><time>2026-04-19T07:49:15Z</time></trkpt><trkpt lat="45.23430508440805" lon="9.178929881304091"><ele>84.0</ele><time>2026-04-19T07:49:17Z</time></trkpt><trkpt lat="45.23419839100781" lon="9.178904903447878"><ele>84.0</ele><time>2026-04-19T07:49:19Z</time></trkpt><trkpt lat="45.234098766604454" lon="9.178887689561881"><ele>84.0</ele><time>2026-04-19T07:49:21Z</time></trkpt><trkpt lat="45.234036833997905" lon="9.17886362971723"><ele>84.0</ele><time>2026-04-19T07:49:23Z</time></trkpt><trkpt lat="45.23399817334414" lon="9.178774202431685"><ele>84.0</ele><time>2026-04-19T07:49:26Z</time></trkpt><trkpt lat="45.234039405516285" lon="9.178675288504996"><ele>84.0</ele><time>2026-04-19T07:49:28Z</time></trkpt><trkpt lat="45.23408012315856" lon="9.178582533659473"><ele>84.0</ele><time>2026-04-19T07:49:30Z</time></trkpt><trkpt lat="45.23412579936099" lon="9.178482710087478"><ele>84.0</ele><time>2026-04-19T07:49:32Z</time></trkpt><trkpt lat="45.23416043058434" lon="9.178376553454124"><ele>84.0</ele><time>2026-04-19T07:49:34Z</time></trkpt><trkpt lat="45.234206234852266" lon="9.178277922994436"><ele>84.0</ele><time>2026-04-19T07:49:36Z</time></trkpt><trkpt lat="45.23423004486791" lon="9.17817544353602"><ele>84.0</ele><time>2026-04-19T07:49:38Z</time></trkpt><trkpt lat="45.23422960015718" lon="9.1780735105616"><ele>84.0</ele><time>2026-04-19T07:49:40Z</time></trkpt><trkpt lat="45.23421525702173" lon="9.177961233876935"><ele>84.0</ele><time>2026-04-19T07:49:42Z</time></trkpt><trkpt lat="45.23419701782391" lon="9.177841757989594"><ele>84.16666666666667</ele><time>2026-04-19T07:49:44.001Z</time></trkpt><trkpt lat="45.23418957891436" lon="9.177717926738486"><ele>84.33333333333333</ele><time>2026-04-19T07:49:46.001Z</time></trkpt><trkpt lat="45.23416916159267" lon="9.177589089595463"><ele>84.5</ele><time>2026-04-19T07:49:48.001Z</time></trkpt><trkpt lat="45.234154787502256" lon="9.177466072372326"><ele>84.66666666666666</ele><time>2026-04-19T07:49:50.001Z</time></trkpt><trkpt lat="45.23414586638606" lon="9.17735094242076"><ele>84.83333333333333</ele><time>2026-04-19T07:49:52.001Z</time></trkpt><trkpt lat="45.23413123393519" lon="9.177255115408942"><ele>85.0</ele><time>2026-04-19T07:49:54.001Z</time></trkpt><trkpt lat="45.234048478938874" lon="9.177215705101808"><ele>85.0</ele><time>2026-04-19T07:49:56.001Z</time></trkpt><trkpt lat="45.23395208002533" lon="9.17726290013906"><ele>85.0</ele><time>2026-04-19T07:49:58.001Z</time></trkpt><trkpt lat="45.23384997518758" lon="9.17724128412676"><ele>85.0</ele><time>2026-04-19T07:50:00.001Z</time></trkpt><trkpt lat="45.23375180999029" lon="9.177220767256879"><ele>85.0</ele><time>2026-04-19T07:50:02.001Z</time></trkpt><trkpt lat="45.233656755575495" lon="9.177188579705707"><ele>85.0</ele><time>2026-04-19T07:50:04.001Z</time></trkpt><trkpt lat="45.233560805410804" lon="9.177173018220412"><ele>85.0</ele><time>2026-04-19T07:50:06.001Z</time></trkpt><trkpt lat="45.233466291390215" lon="9.177146135557136"><ele>85.0</ele><time>2026-04-19T07:50:08.001Z</time></trkpt><trkpt lat="45.23338069878744" lon="9.177109428484657"><ele>85.0</ele><time>2026-04-19T07:50:10.001Z</time></trkpt><trkpt lat="45.23329647320574" lon="9.177088471793304"><ele>85.0</ele><time>2026-04-19T07:50:12.001Z</time></trkpt><trkpt lat="45.2332139784468" lon="9.177060035841063"><ele>85.0</ele><time>2026-04-19T07:50:14.001Z</time></trkpt><trkpt lat="45.23311949064641" lon="9.177032510409797"><ele>84.8</ele><time>2026-04-19T07:50:16.001Z</time></trkpt><trkpt lat="45.23302162794259" lon="9.177005027325075"><ele>84.6</ele><time>2026-04-19T07:50:18.001Z</time></trkpt><trkpt lat="45.23291984060031" lon="9.176983143203694"><ele>84.4</ele><time>2026-04-19T07:50:20.001Z</time></trkpt><trkpt lat="45.23282058527085" lon="9.176944265331842"><ele>84.2</ele><time>2026-04-19T07:50:22.001Z</time></trkpt><trkpt lat="45.23272112510477" lon="9.176922140463521"><ele>84.0</ele><time>2026-04-19T07:50:24.001Z</time></trkpt><trkpt lat="45.232618679012596" lon="9.176891827072781"><ele>84.0</ele><time>2026-04-19T07:50:26.001Z</time></trkpt><trkpt lat="45.232517998076766" lon="9.176865356016567"><ele>84.0</ele><time>2026-04-19T07:50:28.001Z</time></trkpt><trkpt lat="45.23243154753132" lon="9.176845371787989"><ele>84.0</ele><time>2026-04-19T07:50:30.001Z</time></trkpt><trkpt lat="45.23236899675131" lon="9.176809180580909"><ele>84.0</ele><time>2026-04-19T07:50:32.001Z</time></trkpt><trkpt lat="45.23229409851723" lon="9.176795961097852"><ele>84.0</ele><time>2026-04-19T07:50:34.001Z</time></trkpt><trkpt lat="45.23222264165393" lon="9.176780304835422"><ele>84.0</ele><time>2026-04-19T07:50:36.001Z</time></trkpt><trkpt lat="45.23216250997066" lon="9.176744384028764"><ele>84.0</ele><time>2026-04-19T07:50:38.001Z</time></trkpt><trkpt lat="45.23214578540414" lon="9.176635105507257"><ele>84.0</ele><time>2026-04-19T07:50:40.001Z</time></trkpt><trkpt lat="45.23217231140094" lon="9.176506177307287"><ele>84.0</ele><time>2026-04-19T07:50:42.001Z</time></trkpt><trkpt lat="45.232181040247035" lon="9.176388895942036"><ele>84.0</ele><time>2026-04-19T07:50:44.001Z</time></trkpt><trkpt lat="45.232194569545534" lon="9.176266528018788"><ele>84.0</ele><time>2026-04-19T07:50:46.001Z</time></trkpt><trkpt lat="45.2322134977593" lon="9.176137950551947"><ele>84.0</ele><time>2026-04-19T07:50:48.001Z</time></trkpt><trkpt lat="45.23223411329481" lon="9.176007164070457"><ele>84.0</ele><time>2026-04-19T07:50:50.001Z</time></trkpt><trkpt lat="45.23225596480332" lon="9.175879521376821"><ele>84.0</ele><time>2026-04-19T07:50:52.001Z</time></trkpt><trkpt lat="45.23227526495194" lon="9.175754912227717"><ele>84.0</ele><time>2026-04-19T07:50:54.001Z</time></trkpt><trkpt lat="45.232294522188994" lon="9.175636293658798"><ele>84.0</ele><time>2026-04-19T07:50:56.001Z</time></trkpt><trkpt lat="45.232322258868656" lon="9.175518876090138"><ele>84.0</ele><time>2026-04-19T07:50:58.001Z</time></trkpt><trkpt lat="45.23235867505994" lon="9.17539775843143"><ele>84.0</ele><time>2026-04-19T07:51:00.001Z</time></trkpt><trkpt lat="45.23238095568329" lon="9.175271324013426"><ele>84.0</ele><time>2026-04-19T07:51:02Z</time></trkpt><trkpt lat="45.23239290430923" lon="9.175148403325295"><ele>84.0</ele><time>2026-04-19T07:51:04Z</time></trkpt><trkpt lat="45.23240745009864" lon="9.175031907975931"><ele>84.0</ele><time>2026-04-19T07:51:06Z</time></trkpt><trkpt lat="45.23241191981838" lon="9.17491708173208"><ele>84.0</ele><time>2026-04-19T07:51:08Z</time></trkpt><trkpt lat="45.23243296172564" lon="9.174818934839141"><ele>84.0</ele><time>2026-04-19T07:51:11Z</time></trkpt><trkpt lat="45.23241593784934" lon="9.174906786483824"><ele>84.0</ele><time>2026-04-19T07:51:19Z</time></trkpt><trkpt lat="45.232398188189556" lon="9.175007038928506"><ele>84.0</ele><time>2026-04-19T07:51:21Z</time></trkpt><trkpt lat="45.23239152842934" lon="9.175134171834605"><ele>84.0</ele><time>2026-04-19T07:51:23Z</time></trkpt><trkpt lat="45.23238104910154" lon="9.175251311798695"><ele>84.0</ele><time>2026-04-19T07:51:25Z</time></trkpt><trkpt lat="45.23237021847879" lon="9.175352651705618"><ele>84.0</ele><time>2026-04-19T07:51:27Z</time></trkpt><trkpt lat="45.232336456319096" lon="9.175482100808077"><ele>84.0</ele><time>2026-04-19T07:51:29Z</time></trkpt><trkpt lat="45.232267944320306" lon="9.175482888665389"><ele>84.0</ele><time>2026-04-19T07:51:31Z</time></trkpt><trkpt lat="45.2322311047253" lon="9.175351673887"><ele>84.16666666666667</ele><time>2026-04-19T07:51:34Z</time></trkpt><trkpt lat="45.23224196837752" lon="9.175218957168887"><ele>84.33333333333333</ele><time>2026-04-19T07:51:36.001Z</time></trkpt><trkpt lat="45.23224969682215" lon="9.175084535634996"><ele>84.5</ele><time>2026-04-19T07:51:38.001Z</time></trkpt><trkpt lat="45.23227143889588" lon="9.174959916420768"><ele>84.66666666666666</ele><time>2026-04-19T07:51:40.001Z</time></trkpt><trkpt lat="45.23228905318397" lon="9.1748435384153"><ele>84.83333333333333</ele><time>2026-04-19T07:51:42.001Z</time></trkpt><trkpt lat="45.23228833498959" lon="9.174726905033404"><ele>85.0</ele><time>2026-04-19T07:51:44.001Z</time></trkpt><trkpt lat="45.2323396042255" lon="9.174630390832064"><ele>84.66666666666666</ele><time>2026-04-19T07:51:46.001Z</time></trkpt><trkpt lat="45.23234824948142" lon="9.174496246052522"><ele>84.33333333333333</ele><time>2026-04-19T07:51:48.001Z</time></trkpt><trkpt lat="45.23237525865941" lon="9.174352656357621"><ele>84.0</ele><time>2026-04-19T07:51:50.001Z</time></trkpt><trkpt lat="45.232389654711945" lon="9.174264077733906"><ele>83.66666666666667</ele><time>2026-04-19T07:51:52.001Z</time></trkpt><trkpt lat="45.232315090368395" lon="9.174210870503515"><ele>83.33333333333334</ele><time>2026-04-19T07:51:54.001Z</time></trkpt><trkpt lat="45.23222047191902" lon="9.174208814158199"><ele>83.0</ele><time>2026-04-19T07:51:56.001Z</time></trkpt><trkpt lat="45.232119324581944" lon="9.174223246306973"><ele>83.0</ele><time>2026-04-19T07:51:58.001Z</time></trkpt><trkpt lat="45.23201962584017" lon="9.174220437091062"><ele>83.0</ele><time>2026-04-19T07:52:00.001Z</time></trkpt><trkpt lat="45.23191813016269" lon="9.174218730815115"><ele>83.0</ele><time>2026-04-19T07:52:02.001Z</time></trkpt><trkpt lat="45.23181793782605" lon="9.174196685685095"><ele>83.0</ele><time>2026-04-19T07:52:04.001Z</time></trkpt><trkpt lat="45.23172092004582" lon="9.174144235326414"><ele>83.0</ele><time>2026-04-19T07:52:06.001Z</time></trkpt><trkpt lat="45.23163231534233" lon="9.174081786992899"><ele>82.60000000000001</ele><time>2026-04-19T07:52:08.001Z</time></trkpt><trkpt lat="45.231545616056266" lon="9.174013810740767"><ele>82.2</ele><time>2026-04-19T07:52:10.001Z</time></trkpt><trkpt lat="45.23146088891585" lon="9.173951782248897"><ele>81.8</ele><time>2026-04-19T07:52:12.001Z</time></trkpt><trkpt lat="45.23136269465559" lon="9.173909557633527"><ele>81.4</ele><time>2026-04-19T07:52:14.001Z</time></trkpt><trkpt lat="45.23126241628107" lon="9.173885510346144"><ele>81.0</ele><time>2026-04-19T07:52:16.001Z</time></trkpt><trkpt lat="45.23117630749017" lon="9.173813036109015"><ele>81.0</ele><time>2026-04-19T07:52:18.001Z</time></trkpt><trkpt lat="45.231088774833204" lon="9.173741130104478"><ele>81.0</ele><time>2026-04-19T07:52:20.001Z</time></trkpt><trkpt lat="45.2309963476331" lon="9.173691121680921"><ele>81.0</ele><time>2026-04-19T07:52:22.001Z</time></trkpt><trkpt lat="45.23089360797727" lon="9.173670898068071"><ele>81.0</ele><time>2026-04-19T07:52:24.001Z</time></trkpt><trkpt lat="45.23079609992347" lon="9.173712740093713"><ele>81.0</ele><time>2026-04-19T07:52:26.001Z</time></trkpt><trkpt lat="45.230706879731144" lon="9.173774706728162"><ele>81.19999999999999</ele><time>2026-04-19T07:52:28.001Z</time></trkpt><trkpt lat="45.23061364565356" lon="9.173813079900631"><ele>81.39999999999999</ele><time>2026-04-19T07:52:30.001Z</time></trkpt><trkpt lat="45.23051306787934" lon="9.17378910657901"><ele>81.6</ele><time>2026-04-19T07:52:32.001Z</time></trkpt><trkpt lat="45.23044071258663" lon="9.173692003805241"><ele>81.8</ele><time>2026-04-19T07:52:34.001Z</time></trkpt><trkpt lat="45.23036690601455" lon="9.17359731976116"><ele>82.0</ele><time>2026-04-19T07:52:36.001Z</time></trkpt><trkpt lat="45.230279826129625" lon="9.173519734509428"><ele>82.0</ele><time>2026-04-19T07:52:38.001Z</time></trkpt><trkpt lat="45.23019774353233" lon="9.173441322588344"><ele>82.0</ele><time>2026-04-19T07:52:40.001Z</time></trkpt><trkpt lat="45.2301149734038" lon="9.173363420844119"><ele>82.0</ele><time>2026-04-19T07:52:42.001Z</time></trkpt><trkpt lat="45.230005961941885" lon="9.173390877342998"><ele>82.0</ele><time>2026-04-19T07:52:44.001Z</time></trkpt><trkpt lat="45.229907778300664" lon="9.173414966602271"><ele>82.0</ele><time>2026-04-19T07:52:46.001Z</time></trkpt><trkpt lat="45.22980478123638" lon="9.173404379744442"><ele>82.19999999999999</ele><time>2026-04-19T07:52:48.001Z</time></trkpt><trkpt lat="45.22972103764647" lon="9.173313625772884"><ele>82.4</ele><time>2026-04-19T07:52:50.001Z</time></trkpt><trkpt lat="45.22964482726975" lon="9.173222357463654"><ele>82.6</ele><time>2026-04-19T07:52:52.001Z</time></trkpt><trkpt lat="45.229563017902805" lon="9.173130317873174"><ele>82.80000000000001</ele><time>2026-04-19T07:52:54.001Z</time></trkpt><trkpt lat="45.22946101218767" lon="9.173084691200392"><ele>83.0</ele><time>2026-04-19T07:52:56.001Z</time></trkpt><trkpt lat="45.22936856865106" lon="9.173043335630679"><ele>82.80000000000001</ele><time>2026-04-19T07:52:58.001Z</time></trkpt><trkpt lat="45.229275296304195" lon="9.173007146482098"><ele>82.6</ele><time>2026-04-19T07:53:00.001Z</time></trkpt><trkpt lat="45.22918960412368" lon="9.17296613143236"><ele>82.4</ele><time>2026-04-19T07:53:02.001Z</time></trkpt><trkpt lat="45.2290970681869" lon="9.17293288367469"><ele>82.19999999999999</ele><time>2026-04-19T07:53:04.001Z</time></trkpt><trkpt lat="45.22900525779795" lon="9.172898727804562"><ele>82.0</ele><time>2026-04-19T07:53:06.001Z</time></trkpt><trkpt lat="45.228914733785984" lon="9.172863030981866"><ele>82.0</ele><time>2026-04-19T07:53:08Z</time></trkpt><trkpt lat="45.2288222654081" lon="9.172856114404537"><ele>82.0</ele><time>2026-04-19T07:53:10Z</time></trkpt><trkpt lat="45.228731017602044" lon="9.172844968913408"><ele>82.0</ele><time>2026-04-19T07:53:12Z</time></trkpt><trkpt lat="45.22863170000882" lon="9.172830831282244"><ele>82.0</ele><time>2026-04-19T07:53:14Z</time></trkpt><trkpt lat="45.22854542923904" lon="9.172800761491262"><ele>82.0</ele><time>2026-04-19T07:53:16Z</time></trkpt><trkpt lat="45.22845342460303" lon="9.172770584027594"><ele>82.0</ele><time>2026-04-19T07:53:18Z</time></trkpt><trkpt lat="45.228364049225185" lon="9.172729400999021"><ele>82.0</ele><time>2026-04-19T07:53:20Z</time></trkpt><trkpt lat="45.228286220749446" lon="9.172650386887113"><ele>82.0</ele><time>2026-04-19T07:53:22Z</time></trkpt><trkpt lat="45.228194050578864" lon="9.172604059268355"><ele>82.0</ele><time>2026-04-19T07:53:24Z</time></trkpt><trkpt lat="45.22809522119338" lon="9.172604112935861"><ele>82.0</ele><time>2026-04-19T07:53:26Z</time></trkpt><trkpt lat="45.22799551355153" lon="9.17257932105595"><ele>82.0</ele><time>2026-04-19T07:53:28Z</time></trkpt><trkpt lat="45.227911707855114" lon="9.17250303929322"><ele>82.0</ele><time>2026-04-19T07:53:30Z</time></trkpt><trkpt lat="45.227822973381016" lon="9.172445346123089"><ele>82.0</ele><time>2026-04-19T07:53:32Z</time></trkpt><trkpt lat="45.22773043914226" lon="9.172406155123916"><ele>82.0</ele><time>2026-04-19T07:53:34Z</time></trkpt><trkpt lat="45.227636446771605" lon="9.172359112587651"><ele>82.0</ele><time>2026-04-19T07:53:36Z</time></trkpt><trkpt lat="45.2275381608284" lon="9.172312880450077"><ele>82.0</ele><time>2026-04-19T07:53:38Z</time></trkpt><trkpt lat="45.227435732365485" lon="9.172255835749292"><ele>82.0</ele><time>2026-04-19T07:53:40Z</time></trkpt><trkpt lat="45.22733184214089" lon="9.172225838295805"><ele>82.0</ele><time>2026-04-19T07:53:42Z</time></trkpt><trkpt lat="45.22722522894064" lon="9.17222177061676"><ele>82.0</ele><time>2026-04-19T07:53:44Z</time></trkpt><trkpt lat="45.22711868936083" lon="9.172218904213755"><ele>82.0</ele><time>2026-04-19T07:53:46Z</time></trkpt><trkpt lat="45.22701208232023" lon="9.172202737420049"><ele>82.0</ele><time>2026-04-19T07:53:48.001Z</time></trkpt><trkpt lat="45.226913420516674" lon="9.17215277756863"><ele>82.0</ele><time>2026-04-19T07:53:50.001Z</time></trkpt><trkpt lat="45.226818299306125" lon="9.172091456657578"><ele>82.0</ele><time>2026-04-19T07:53:52.001Z</time></trkpt><trkpt lat="45.22672220981173" lon="9.172034072048245"><ele>82.0</ele><time>2026-04-19T07:53:54.001Z</time></trkpt><trkpt lat="45.22663143168571" lon="9.17197931547666"><ele>82.0</ele><time>2026-04-19T07:53:56.001Z</time></trkpt><trkpt lat="45.22653102790055" lon="9.171962264153109"><ele>82.19999999999999</ele><time>2026-04-19T07:53:58.001Z</time></trkpt><trkpt lat="45.22642997180698" lon="9.17197348804182"><ele>82.4</ele><time>2026-04-19T07:54:00.001Z</time></trkpt><trkpt lat="45.226332669699595" lon="9.17195758903093"><ele>82.6</ele><time>2026-04-19T07:54:02.001Z</time></trkpt><trkpt lat="45.226231678490684" lon="9.171939548037908"><ele>82.80000000000001</ele><time>2026-04-19T07:54:04.001Z</time></trkpt><trkpt lat="45.22612972218196" lon="9.171915416506367"><ele>83.0</ele><time>2026-04-19T07:54:06.001Z</time></trkpt><trkpt lat="45.22603739433654" lon="9.171870904807797"><ele>83.0</ele><time>2026-04-19T07:54:08.001Z</time></trkpt><trkpt lat="45.22596054821183" lon="9.171777129795835"><ele>83.0</ele><time>2026-04-19T07:54:10.001Z</time></trkpt><trkpt lat="45.225884609065545" lon="9.171700354118048"><ele>83.0</ele><time>2026-04-19T07:54:12.001Z</time></trkpt><trkpt lat="45.225786524041595" lon="9.171665608094907"><ele>83.0</ele><time>2026-04-19T07:54:14.001Z</time></trkpt><trkpt lat="45.22568425790314" lon="9.171634705836492"><ele>83.0</ele><time>2026-04-19T07:54:16.001Z</time></trkpt><trkpt lat="45.22558445193611" lon="9.171598339109165"><ele>83.0</ele><time>2026-04-19T07:54:18.001Z</time></trkpt><trkpt lat="45.225486184988995" lon="9.171559395362122"><ele>83.0</ele><time>2026-04-19T07:54:20.001Z</time></trkpt><trkpt lat="45.225386014613626" lon="9.171557889495048"><ele>83.0</ele><time>2026-04-19T07:54:22.001Z</time></trkpt><trkpt lat="45.22529841392799" lon="9.171559289313551"><ele>83.0</ele><time>2026-04-19T07:54:24.001Z</time></trkpt><trkpt lat="45.22523087605746" lon="9.17153663215865"><ele>83.0</ele><time>2026-04-19T07:54:26.001Z</time></trkpt><trkpt lat="45.22515257779325" lon="9.171538481602074"><ele>83.0</ele><time>2026-04-19T07:54:29.001Z</time></trkpt><trkpt lat="45.22507489862464" lon="9.171523571249809"><ele>83.0</ele><time>2026-04-19T07:54:32.001Z</time></trkpt><trkpt lat="45.224984256983234" lon="9.17148239574461"><ele>83.0</ele><time>2026-04-19T07:54:35.001Z</time></trkpt><trkpt lat="45.22492603363292" lon="9.17153017749125"><ele>83.0</ele><time>2026-04-19T07:54:37.001Z</time></trkpt><trkpt lat="45.2248602545732" lon="9.17162205472609"><ele>83.0</ele><time>2026-04-19T07:54:39.001Z</time></trkpt><trkpt lat="45.22480620001278" lon="9.17167801445469"><ele>83.0</ele><time>2026-04-19T07:54:41.001Z</time></trkpt><trkpt lat="45.22471174168459" lon="9.171715790823363"><ele>83.0</ele><time>2026-04-19T07:54:44.001Z</time></trkpt><trkpt lat="45.224621032084045" lon="9.171696081957975"><ele>83.0</ele><time>2026-04-19T07:54:46.001Z</time></trkpt><trkpt lat="45.22453558971115" lon="9.171685106543688"><ele>83.0</ele><time>2026-04-19T07:54:48.001Z</time></trkpt><trkpt lat="45.224456101471134" lon="9.17164995135434"><ele>83.0</ele><time>2026-04-19T07:54:50.001Z</time></trkpt><trkpt lat="45.22437846453852" lon="9.171639195832764"><ele>83.0</ele><time>2026-04-19T07:54:52.001Z</time></trkpt><trkpt lat="45.22428822825892" lon="9.171602166358467"><ele>83.0</ele><time>2026-04-19T07:54:54.001Z</time></trkpt><trkpt lat="45.22420586944899" lon="9.171584633321887"><ele>83.0</ele><time>2026-04-19T07:54:56.001Z</time></trkpt><trkpt lat="45.224135588524064" lon="9.171561488388358"><ele>83.0</ele><time>2026-04-19T07:54:58.001Z</time></trkpt><trkpt lat="45.224052763198536" lon="9.171545514792127"><ele>83.0</ele><time>2026-04-19T07:55:00.001Z</time></trkpt><trkpt lat="45.22397112414934" lon="9.17150494705455"><ele>83.0</ele><time>2026-04-19T07:55:02.001Z</time></trkpt><trkpt lat="45.22387930846826" lon="9.171492409630734"><ele>83.0</ele><time>2026-04-19T07:55:04.001Z</time></trkpt><trkpt lat="45.22381481952291" lon="9.171431129900537"><ele>83.0</ele><time>2026-04-19T07:55:06.001Z</time></trkpt><trkpt lat="45.22376253463802" lon="9.17132362359512"><ele>83.0</ele><time>2026-04-19T07:55:08.001Z</time></trkpt><trkpt lat="45.22371342200397" lon="9.171255185960627"><ele>82.83333333333334</ele><time>2026-04-19T07:55:10.001Z</time></trkpt><trkpt lat="45.22363062961991" lon="9.171228339978619"><ele>82.66666666666667</ele><time>2026-04-19T07:55:12.001Z</time></trkpt><trkpt lat="45.223553900842916" lon="9.171227853236529"><ele>82.5</ele><time>2026-04-19T07:55:14Z</time></trkpt><trkpt lat="45.22348226396946" lon="9.171226023011828"><ele>82.33333333333333</ele><time>2026-04-19T07:55:16Z</time></trkpt><trkpt lat="45.22339454684329" lon="9.171216559215905"><ele>82.16666666666666</ele><time>2026-04-19T07:55:18Z</time></trkpt><trkpt lat="45.22330720033497" lon="9.17122666727757"><ele>82.0</ele><time>2026-04-19T07:55:20Z</time></trkpt><trkpt lat="45.2232257190668" lon="9.171225469390345"><ele>82.0</ele><time>2026-04-19T07:55:22Z</time></trkpt><trkpt lat="45.22314795444599" lon="9.171182158679134"><ele>82.0</ele><time>2026-04-19T07:55:24Z</time></trkpt><trkpt lat="45.22305907166362" lon="9.171192018981607"><ele>82.0</ele><time>2026-04-19T07:55:26Z</time></trkpt><trkpt lat="45.222963246945035" lon="9.17117634535008"><ele>82.0</ele><time>2026-04-19T07:55:28Z</time></trkpt><trkpt lat="45.22287302440624" lon="9.171175820905447"><ele>82.0</ele><time>2026-04-19T07:55:30Z</time></trkpt><trkpt lat="45.22277837578354" lon="9.171169982076776"><ele>81.8</ele><time>2026-04-19T07:55:32Z</time></trkpt><trkpt lat="45.222684343092524" lon="9.171157201215339"><ele>81.6</ele><time>2026-04-19T07:55:34Z</time></trkpt><trkpt lat="45.22258877794599" lon="9.171153099768613"><ele>81.39999999999999</ele><time>2026-04-19T07:55:36Z</time></trkpt><trkpt lat="45.22250427387646" lon="9.171160372680358"><ele>81.19999999999999</ele><time>2026-04-19T07:55:38Z</time></trkpt><trkpt lat="45.22242204647912" lon="9.171153394905794"><ele>81.0</ele><time>2026-04-19T07:55:40Z</time></trkpt><trkpt lat="45.22232588827833" lon="9.17113047590632"><ele>81.0</ele><time>2026-04-19T07:55:42Z</time></trkpt><trkpt lat="45.22221526851224" lon="9.1711106448101"><ele>81.0</ele><time>2026-04-19T07:55:44Z</time></trkpt><trkpt lat="45.222104155166846" lon="9.171107039443907"><ele>81.0</ele><time>2026-04-19T07:55:46Z</time></trkpt><trkpt lat="45.221982755421394" lon="9.171103243368213"><ele>81.0</ele><time>2026-04-19T07:55:48Z</time></trkpt><trkpt lat="45.22187791777412" lon="9.171096281815872"><ele>81.0</ele><time>2026-04-19T07:55:50Z</time></trkpt><trkpt lat="45.221773234901946" lon="9.171085751614802"><ele>81.0</ele><time>2026-04-19T07:55:52Z</time></trkpt><trkpt lat="45.22167523639601" lon="9.171076843256511"><ele>81.0</ele><time>2026-04-19T07:55:54Z</time></trkpt><trkpt lat="45.221577357583385" lon="9.171081040487831"><ele>81.0</ele><time>2026-04-19T07:55:56Z</time></trkpt><trkpt lat="45.221509405051265" lon="9.171108198156864"><ele>81.0</ele><time>2026-04-19T07:55:58Z</time></trkpt><trkpt lat="45.22145257925299" lon="9.171177094520981"><ele>81.0</ele><time>2026-04-19T07:56:01Z</time></trkpt><trkpt lat="45.22139482296739" lon="9.171139750903423"><ele>81.0</ele><time>2026-04-19T07:56:15Z</time></trkpt><trkpt lat="45.22132058511371" lon="9.17108010754497"><ele>80.8</ele><time>2026-04-19T07:56:17Z</time></trkpt><trkpt lat="45.221236034903036" lon="9.171055857841495"><ele>80.6</ele><time>2026-04-19T07:56:19Z</time></trkpt><trkpt lat="45.22116229672626" lon="9.170979415087123"><ele>80.4</ele><time>2026-04-19T07:56:21Z</time></trkpt><trkpt lat="45.22108686187245" lon="9.170906881422606"><ele>80.2</ele><time>2026-04-19T07:56:23Z</time></trkpt><trkpt lat="45.22101878000153" lon="9.170801730260113"><ele>80.0</ele><time>2026-04-19T07:56:25Z</time></trkpt><trkpt lat="45.220941399192895" lon="9.170731071233204"><ele>80.0</ele><time>2026-04-19T07:56:27Z</time></trkpt><trkpt lat="45.22086694926232" lon="9.170660025979076"><ele>80.0</ele><time>2026-04-19T07:56:29Z</time></trkpt><trkpt lat="45.22077988255537" lon="9.17061355711161"><ele>80.0</ele><time>2026-04-19T07:56:31Z</time></trkpt><trkpt lat="45.22068032799042" lon="9.170584360506226"><ele>80.0</ele><time>2026-04-19T07:56:33Z</time></trkpt><trkpt lat="45.220575749137176" lon="9.170560006525374"><ele>80.0</ele><time>2026-04-19T07:56:35Z</time></trkpt><trkpt lat="45.220468469638995" lon="9.170536263746023"><ele>79.25</ele><time>2026-04-19T07:56:37Z</time></trkpt><trkpt lat="45.22035339911384" lon="9.17050578636489"><ele>78.5</ele><time>2026-04-19T07:56:39Z</time></trkpt><trkpt lat="45.22024381709371" lon="9.170457083610517"><ele>77.75</ele><time>2026-04-19T07:56:41Z</time></trkpt><trkpt lat="45.22014400517687" lon="9.170376150290794"><ele>77.0</ele><time>2026-04-19T07:56:43Z</time></trkpt><trkpt lat="45.22003582255905" lon="9.170313437442882"><ele>77.0</ele><time>2026-04-19T07:56:45.001Z</time></trkpt><trkpt lat="45.21992868264613" lon="9.170283640115041"><ele>77.0</ele><time>2026-04-19T07:56:47.001Z</time></trkpt><trkpt lat="45.21981922386951" lon="9.17029893179571"><ele>77.0</ele><time>2026-04-19T07:56:49.001Z</time></trkpt><trkpt lat="45.21971769430363" lon="9.170335727245597"><ele>77.0</ele><time>2026-04-19T07:56:51.001Z</time></trkpt><trkpt lat="45.219623631233524" lon="9.170388554462287"><ele>77.0</ele><time>2026-04-19T07:56:53.001Z</time></trkpt><trkpt lat="45.219531167701795" lon="9.170430103392974"><ele>77.2</ele><time>2026-04-19T07:56:55.001Z</time></trkpt><trkpt lat="45.21943062398999" lon="9.17043580927402"><ele>77.4</ele><time>2026-04-19T07:56:57.001Z</time></trkpt><trkpt lat="45.21932987092676" lon="9.170414145197933"><ele>77.6</ele><time>2026-04-19T07:56:59.001Z</time></trkpt><trkpt lat="45.219234852466585" lon="9.170366093239652"><ele>77.8</ele><time>2026-04-19T07:57:01.001Z</time></trkpt><trkpt lat="45.21914190183741" lon="9.17030009108439"><ele>78.0</ele><time>2026-04-19T07:57:03.001Z</time></trkpt><trkpt lat="45.21904339030535" lon="9.17025764800386"><ele>79.0</ele><time>2026-04-19T07:57:05.001Z</time></trkpt><trkpt lat="45.21894179135046" lon="9.170226526833332"><ele>80.0</ele><time>2026-04-19T07:57:07.001Z</time></trkpt><trkpt lat="45.21883734402692" lon="9.170192915318987"><ele>81.0</ele><time>2026-04-19T07:57:09.001Z</time></trkpt><trkpt lat="45.218735359928814" lon="9.170162665402907"><ele>82.0</ele><time>2026-04-19T07:57:11.001Z</time></trkpt><trkpt lat="45.21863821952066" lon="9.170138382177695"><ele>83.0</ele><time>2026-04-19T07:57:13.001Z</time></trkpt><trkpt lat="45.21854043154838" lon="9.170120062115325"><ele>83.0</ele><time>2026-04-19T07:57:15.001Z</time></trkpt><trkpt lat="45.21844660817945" lon="9.17008652207433"><ele>83.0</ele><time>2026-04-19T07:57:17.001Z</time></trkpt><trkpt lat="45.21835758516987" lon="9.170054417257804"><ele>83.0</ele><time>2026-04-19T07:57:19.001Z</time></trkpt><trkpt lat="45.21826138224225" lon="9.170046707735061"><ele>83.0</ele><time>2026-04-19T07:57:21Z</time></trkpt><trkpt lat="45.21818974253616" lon="9.170171376097622"><ele>83.0</ele><time>2026-04-19T07:57:23Z</time></trkpt><trkpt lat="45.21817016361381" lon="9.170337449373132"><ele>82.80000000000001</ele><time>2026-04-19T07:57:25Z</time></trkpt><trkpt lat="45.218146065885904" lon="9.170472333422733"><ele>82.6</ele><time>2026-04-19T07:57:27Z</time></trkpt><trkpt lat="45.21811000729928" lon="9.170548476436675"><ele>82.4</ele><time>2026-04-19T07:57:29Z</time></trkpt><trkpt lat="45.21803105521321" lon="9.170567922736947"><ele>82.19999999999999</ele><time>2026-04-19T07:57:32Z</time></trkpt><trkpt lat="45.217950446675815" lon="9.170492234966986"><ele>82.0</ele><time>2026-04-19T07:57:35Z</time></trkpt><trkpt lat="45.21794428246471" lon="9.170335134767273"><ele>82.0</ele><time>2026-04-19T07:57:37Z</time></trkpt><trkpt lat="45.217959640950355" lon="9.170248392993187"><ele>82.0</ele><time>2026-04-19T07:57:38Z</time></trkpt><trkpt lat="45.217975704733675" lon="9.170141749264376"><ele>82.0</ele><time>2026-04-19T07:57:39Z</time></trkpt><trkpt lat="45.21798892767305" lon="9.170044379410218"><ele>82.0</ele><time>2026-04-19T07:57:40Z</time></trkpt><trkpt lat="45.21798600992714" lon="9.16995238752713"><ele>82.0</ele><time>2026-04-19T07:57:41Z</time></trkpt><trkpt lat="45.21795860814614" lon="9.169871855097975"><ele>82.0</ele><time>2026-04-19T07:57:42Z</time></trkpt><trkpt lat="45.21785077875038" lon="9.169791732466225"><ele>81.8</ele><time>2026-04-19T07:57:44Z</time></trkpt><trkpt lat="45.21773949089741" lon="9.169750196691632"><ele>81.6</ele><time>2026-04-19T07:57:46Z</time></trkpt><trkpt lat="45.21767949887105" lon="9.169722042731646"><ele>81.39999999999999</ele><time>2026-04-19T07:57:47Z</time></trkpt><trkpt lat="45.217559335268106" lon="9.169678600283442"><ele>81.19999999999999</ele><time>2026-04-19T07:57:49Z</time></trkpt><trkpt lat="45.21744122605656" lon="9.169656110361123"><ele>81.0</ele><time>2026-04-19T07:57:51Z</time></trkpt><trkpt lat="45.217326426052416" lon="9.16962788161989"><ele>80.66666666666667</ele><time>2026-04-19T07:57:53Z</time></trkpt><trkpt lat="45.21721384071867" lon="9.169582461980594"><ele>80.33333333333333</ele><time>2026-04-19T07:57:55Z</time></trkpt><trkpt lat="45.21711236965939" lon="9.169489613788093"><ele>80.0</ele><time>2026-04-19T07:57:57Z</time></trkpt><trkpt lat="45.217055551281284" lon="9.169447728613786"><ele>79.66666666666666</ele><time>2026-04-19T07:57:58Z</time></trkpt><trkpt lat="45.21698431087842" lon="9.169438264447827"><ele>79.33333333333333</ele><time>2026-04-19T07:57:59Z</time></trkpt><trkpt lat="45.21691456595287" lon="9.169453706717437"><ele>79.0</ele><time>2026-04-19T07:58:00Z</time></trkpt><trkpt lat="45.21685052197682" lon="9.169479212652156"><ele>79.0</ele><time>2026-04-19T07:58:01Z</time></trkpt><trkpt lat="45.21678656292624" lon="9.169500150247988"><ele>79.0</ele><time>2026-04-19T07:58:02Z</time></trkpt><trkpt lat="45.21666431100392" lon="9.16952523901908"><ele>79.0</ele><time>2026-04-19T07:58:04Z</time></trkpt><trkpt lat="45.21653920114299" lon="9.16952306478073"><ele>79.0</ele><time>2026-04-19T07:58:06Z</time></trkpt><trkpt lat="45.216472879490844" lon="9.169510340774764"><ele>79.0</ele><time>2026-04-19T07:58:07Z</time></trkpt><trkpt lat="45.21640975472121" lon="9.169490203105793"><ele>79.0</ele><time>2026-04-19T07:58:08Z</time></trkpt><trkpt lat="45.216346639459964" lon="9.169480480317308"><ele>79.0</ele><time>2026-04-19T07:58:09Z</time></trkpt><trkpt lat="45.21628322782873" lon="9.169467064543676"><ele>79.0</ele><time>2026-04-19T07:58:10Z</time></trkpt><trkpt lat="45.21615933509371" lon="9.169444816665543"><ele>79.0</ele><time>2026-04-19T07:58:12Z</time></trkpt><trkpt lat="45.216045544875136" lon="9.16950491069714"><ele>79.0</ele><time>2026-04-19T07:58:14Z</time></trkpt><trkpt lat="45.215981294548364" lon="9.169507058138707"><ele>79.0</ele><time>2026-04-19T07:58:15Z</time></trkpt><trkpt lat="45.2159069462779" lon="9.169499742942467"><ele>79.0</ele><time>2026-04-19T07:58:16Z</time></trkpt><trkpt lat="45.21583837524275" lon="9.169508903461436"><ele>79.0</ele><time>2026-04-19T07:58:17Z</time></trkpt><trkpt lat="45.215770326687114" lon="9.169528744560544"><ele>79.0</ele><time>2026-04-19T07:58:18Z</time></trkpt><trkpt lat="45.215701563885936" lon="9.169553116671462"><ele>79.0</ele><time>2026-04-19T07:58:19Z</time></trkpt><trkpt lat="45.21563458369884" lon="9.16957468206136"><ele>79.0</ele><time>2026-04-19T07:58:20Z</time></trkpt><trkpt lat="45.21556993966102" lon="9.169584749287822"><ele>79.0</ele><time>2026-04-19T07:58:21Z</time></trkpt><trkpt lat="45.21550479204008" lon="9.16957871957866"><ele>79.0</ele><time>2026-04-19T07:58:22Z</time></trkpt><trkpt lat="45.215385651560844" lon="9.169569358621075"><ele>78.5</ele><time>2026-04-19T07:58:24Z</time></trkpt><trkpt lat="45.21527198314994" lon="9.169562375555657"><ele>78.0</ele><time>2026-04-19T07:58:26Z</time></trkpt><trkpt lat="45.21515856547373" lon="9.169563843796789"><ele>77.5</ele><time>2026-04-19T07:58:28Z</time></trkpt><trkpt lat="45.21504477049254" lon="9.169585598414315"><ele>77.0</ele><time>2026-04-19T07:58:30Z</time></trkpt><trkpt lat="45.21492935210151" lon="9.169571770513567"><ele>77.25</ele><time>2026-04-19T07:58:32Z</time></trkpt><trkpt lat="45.21481216263543" lon="9.169561204737063"><ele>77.5</ele><time>2026-04-19T07:58:34Z</time></trkpt><trkpt lat="45.214696751270694" lon="9.16953627623394"><ele>77.75</ele><time>2026-04-19T07:58:36Z</time></trkpt><trkpt lat="45.214584778843324" lon="9.169505658380805"><ele>78.0</ele><time>2026-04-19T07:58:38.001Z</time></trkpt><trkpt lat="45.21445644536215" lon="9.169490498648546"><ele>78.0</ele><time>2026-04-19T07:58:40.001Z</time></trkpt><trkpt lat="45.21434619845508" lon="9.16948067965389"><ele>78.0</ele><time>2026-04-19T07:58:42.001Z</time></trkpt><trkpt lat="45.21422985631297" lon="9.169485908085111"><ele>78.0</ele><time>2026-04-19T07:58:44.001Z</time></trkpt><trkpt lat="45.21411564101827" lon="9.169508499821395"><ele>78.0</ele><time>2026-04-19T07:58:46.001Z</time></trkpt><trkpt lat="45.21400299227246" lon="9.16952721566356"><ele>77.6</ele><time>2026-04-19T07:58:48.001Z</time></trkpt><trkpt lat="45.21389543682193" lon="9.1695315224803"><ele>77.19999999999999</ele><time>2026-04-19T07:58:50.001Z</time></trkpt><trkpt lat="45.21379408632744" lon="9.169578009875778"><ele>76.8</ele><time>2026-04-19T07:58:52.001Z</time></trkpt><trkpt lat="45.21369058189702" lon="9.169645121836314"><ele>76.39999999999999</ele><time>2026-04-19T07:58:54.001Z</time></trkpt><trkpt lat="45.21358245169882" lon="9.169664516581708"><ele>76.0</ele><time>2026-04-19T07:58:56.001Z</time></trkpt><trkpt lat="45.213477714862435" lon="9.169605611251761"><ele>76.0</ele><time>2026-04-19T07:58:58.001Z</time></trkpt><trkpt lat="45.21336702192245" lon="9.1695715770173"><ele>76.0</ele><time>2026-04-19T07:59:00.001Z</time></trkpt><trkpt lat="45.21325005240494" lon="9.169551921842114"><ele>76.0</ele><time>2026-04-19T07:59:02.001Z</time></trkpt><trkpt lat="45.213187471642875" lon="9.169530595086474"><ele>76.0</ele><time>2026-04-19T07:59:03.001Z</time></trkpt><trkpt lat="45.2130763805718" lon="9.169477618462"><ele>76.0</ele><time>2026-04-19T07:59:05.001Z</time></trkpt><trkpt lat="45.212967415479156" lon="9.169476934089738"><ele>76.0</ele><time>2026-04-19T07:59:07.001Z</time></trkpt><trkpt lat="45.21289719903928" lon="9.169577810277161"><ele>76.0</ele><time>2026-04-19T07:59:09.001Z</time></trkpt><trkpt lat="45.21288960496715" lon="9.169738428963985"><ele>76.0</ele><time>2026-04-19T07:59:11.001Z</time></trkpt><trkpt lat="45.212879723861676" lon="9.169885098354726"><ele>76.0</ele><time>2026-04-19T07:59:13.001Z</time></trkpt><trkpt lat="45.212834229965225" lon="9.170014904106774"><ele>76.0</ele><time>2026-04-19T07:59:15.001Z</time></trkpt><trkpt lat="45.2127502362684" lon="9.17007794523772"><ele>76.0</ele><time>2026-04-19T07:59:17.001Z</time></trkpt><trkpt lat="45.212659012467036" lon="9.170118497405511"><ele>76.0</ele><time>2026-04-19T07:59:19.001Z</time></trkpt><trkpt lat="45.21255442931821" lon="9.170131461711112"><ele>76.0</ele><time>2026-04-19T07:59:21.001Z</time></trkpt><trkpt lat="45.21245317771059" lon="9.170091918035315"><ele>76.0</ele><time>2026-04-19T07:59:23.001Z</time></trkpt><trkpt lat="45.212363092758906" lon="9.170011060558164"><ele>76.0</ele><time>2026-04-19T07:59:25.001Z</time></trkpt><trkpt lat="45.21225148685182" lon="9.169968174157495"><ele>76.25</ele><time>2026-04-19T07:59:27Z</time></trkpt><trkpt lat="45.21213448795655" lon="9.169978383919716"><ele>76.5</ele><time>2026-04-19T07:59:29Z</time></trkpt><trkpt lat="45.2120173772057" lon="9.16999422590841"><ele>76.75</ele><time>2026-04-19T07:59:31Z</time></trkpt><trkpt lat="45.21191464392436" lon="9.170069604740402"><ele>77.0</ele><time>2026-04-19T07:59:33Z</time></trkpt><trkpt lat="45.21183209005592" lon="9.170171909120995"><ele>77.0</ele><time>2026-04-19T07:59:35Z</time></trkpt><trkpt lat="45.21172645371217" lon="9.170216905128854"><ele>77.0</ele><time>2026-04-19T07:59:37Z</time></trkpt><trkpt lat="45.21162148935509" lon="9.170173278306091"><ele>77.0</ele><time>2026-04-19T07:59:39Z</time></trkpt><trkpt lat="45.211522163679135" lon="9.170125607029428"><ele>77.0</ele><time>2026-04-19T07:59:41Z</time></trkpt><trkpt lat="45.21142537253865" lon="9.170060450867966"><ele>77.0</ele><time>2026-04-19T07:59:43Z</time></trkpt><trkpt lat="45.21132301869779" lon="9.170003164238535"><ele>77.0</ele><time>2026-04-19T07:59:45Z</time></trkpt><trkpt lat="45.21122158801917" lon="9.16994677916265"><ele>77.0</ele><time>2026-04-19T07:59:47Z</time></trkpt><trkpt lat="45.21110911196296" lon="9.16990244097421"><ele>77.0</ele><time>2026-04-19T07:59:49Z</time></trkpt><trkpt lat="45.210998012957724" lon="9.16984427909813"><ele>77.0</ele><time>2026-04-19T07:59:51Z</time></trkpt><trkpt lat="45.210880694583835" lon="9.169843050874528"><ele>77.0</ele><time>2026-04-19T07:59:53Z</time></trkpt><trkpt lat="45.210777987834746" lon="9.16984721213596"><ele>77.0</ele><time>2026-04-19T07:59:55Z</time></trkpt><trkpt lat="45.21068196964319" lon="9.169781184284373"><ele>77.0</ele><time>2026-04-19T07:59:57Z</time></trkpt><trkpt lat="45.21063600222975" lon="9.169715303549202"><ele>77.0</ele><time>2026-04-19T07:59:58Z</time></trkpt><trkpt lat="45.2105899291384" lon="9.169643430280454"><ele>77.0</ele><time>2026-04-19T07:59:59Z</time></trkpt><trkpt lat="45.21053301009277" lon="9.169592813614491"><ele>77.0</ele><time>2026-04-19T08:00:00Z</time></trkpt><trkpt lat="45.210467374204505" lon="9.169568354903511"><ele>77.0</ele><time>2026-04-19T08:00:01Z</time></trkpt><trkpt lat="45.210403568771966" lon="9.169549702712926"><ele>77.0</ele><time>2026-04-19T08:00:02Z</time></trkpt><trkpt lat="45.210294476485814" lon="9.169547020631416"><ele>77.0</ele><time>2026-04-19T08:00:04Z</time></trkpt><trkpt lat="45.21022724705261" lon="9.169571543115962"><ele>77.0</ele><time>2026-04-19T08:00:05Z</time></trkpt><trkpt lat="45.210125837310734" lon="9.169608885773917"><ele>77.0</ele><time>2026-04-19T08:00:07Z</time></trkpt><trkpt lat="45.210061459102796" lon="9.16965228717544"><ele>77.0</ele><time>2026-04-19T08:00:08Z</time></trkpt><trkpt lat="45.210002696148834" lon="9.169689892873794"><ele>77.0</ele><time>2026-04-19T08:00:09Z</time></trkpt><trkpt lat="45.209886264198715" lon="9.169672149558005"><ele>77.0</ele><time>2026-04-19T08:00:11Z</time></trkpt><trkpt lat="45.20979703854335" lon="9.169551055567192"><ele>77.0</ele><time>2026-04-19T08:00:13Z</time></trkpt><trkpt lat="45.2097621313582" lon="9.16947656536479"><ele>77.0</ele><time>2026-04-19T08:00:14.001Z</time></trkpt><trkpt lat="45.20967602105775" lon="9.169344728260103"><ele>77.0</ele><time>2026-04-19T08:00:16.001Z</time></trkpt><trkpt lat="45.209617431297275" lon="9.169305984868053"><ele>77.0</ele><time>2026-04-19T08:00:17.001Z</time></trkpt><trkpt lat="45.209552891648" lon="9.169273712253862"><ele>77.0</ele><time>2026-04-19T08:00:18.001Z</time></trkpt><trkpt lat="45.209488818247785" lon="9.169254644367534"><ele>77.0</ele><time>2026-04-19T08:00:19.001Z</time></trkpt><trkpt lat="45.20942486273284" lon="9.169229167570142"><ele>77.0</ele><time>2026-04-19T08:00:20.001Z</time></trkpt><trkpt lat="45.20936713259502" lon="9.16918908189801"><ele>77.0</ele><time>2026-04-19T08:00:21.001Z</time></trkpt><trkpt lat="45.209308551294896" lon="9.169153617742824"><ele>77.0</ele><time>2026-04-19T08:00:22.001Z</time></trkpt><trkpt lat="45.20918327761545" lon="9.169106555026268"><ele>77.0</ele><time>2026-04-19T08:00:24.001Z</time></trkpt><trkpt lat="45.20911818373951" lon="9.169091852381113"><ele>77.0</ele><time>2026-04-19T08:00:25.001Z</time></trkpt><trkpt lat="45.20905267939715" lon="9.169071863393581"><ele>77.0</ele><time>2026-04-19T08:00:26.001Z</time></trkpt><trkpt lat="45.20898782265969" lon="9.169060992089525"><ele>77.0</ele><time>2026-04-19T08:00:27.001Z</time></trkpt><trkpt lat="45.20888819237074" lon="9.169029615350642"><ele>77.0</ele><time>2026-04-19T08:00:29.001Z</time></trkpt><trkpt lat="45.20883437549301" lon="9.169092232621722"><ele>77.0</ele><time>2026-04-19T08:11:32.001Z</time></trkpt><trkpt lat="45.20876809065583" lon="9.16911084130146"><ele>77.0</ele><time>2026-04-19T08:11:35.001Z</time></trkpt><trkpt lat="45.20870431875423" lon="9.169138020247019"><ele>77.33333333333334</ele><time>2026-04-19T08:11:38.001Z</time></trkpt><trkpt lat="45.208635402024605" lon="9.169177519694323"><ele>77.66666666666667</ele><time>2026-04-19T08:11:42.001Z</time></trkpt><trkpt lat="45.20856348037224" lon="9.169194851244036"><ele>78.0</ele><time>2026-04-19T08:11:45.001Z</time></trkpt><trkpt lat="45.208485783830525" lon="9.169193926782297"><ele>78.33333333333333</ele><time>2026-04-19T08:11:48.001Z</time></trkpt><trkpt lat="45.20841181713253" lon="9.169116523797905"><ele>78.66666666666666</ele><time>2026-04-19T08:11:51.001Z</time></trkpt><trkpt lat="45.208362908146206" lon="9.16902923111125"><ele>79.0</ele><time>2026-04-19T08:11:53.001Z</time></trkpt><trkpt lat="45.20832604223523" lon="9.168919038799281"><ele>78.83333333333333</ele><time>2026-04-19T08:11:55.001Z</time></trkpt><trkpt lat="45.20832508108851" lon="9.168781028405562"><ele>78.66666666666666</ele><time>2026-04-19T08:11:57.001Z</time></trkpt><trkpt lat="45.20832908832311" lon="9.168660863654623"><ele>78.5</ele><time>2026-04-19T08:11:59.001Z</time></trkpt><trkpt lat="45.20828324778502" lon="9.168589962771737"><ele>78.33333333333333</ele><time>2026-04-19T08:12:02Z</time></trkpt><trkpt lat="45.20822262972924" lon="9.168560713060941"><ele>78.16666666666667</ele><time>2026-04-19T08:12:04Z</time></trkpt><trkpt lat="45.20813237765518" lon="9.1685600045919"><ele>78.0</ele><time>2026-04-19T08:12:07Z</time></trkpt><trkpt lat="45.20806402249977" lon="9.168607757535455"><ele>78.0</ele><time>2026-04-19T08:12:10Z</time></trkpt><trkpt lat="45.20798996006802" lon="9.168661419366275"><ele>78.0</ele><time>2026-04-19T08:12:13Z</time></trkpt><trkpt lat="45.20791240950983" lon="9.168697268311755"><ele>78.0</ele><time>2026-04-19T08:12:16Z</time></trkpt><trkpt lat="45.2078282831538" lon="9.168677760049182"><ele>78.0</ele><time>2026-04-19T08:12:19Z</time></trkpt><trkpt lat="45.20773935502846" lon="9.16863966751469"><ele>78.0</ele><time>2026-04-19T08:12:22Z</time></trkpt><trkpt lat="45.20767606930984" lon="9.168625275657236"><ele>78.0</ele><time>2026-04-19T08:12:24Z</time></trkpt><trkpt lat="45.20761199492061" lon="9.168599817956885"><ele>78.0</ele><time>2026-04-19T08:12:26Z</time></trkpt><trkpt lat="45.20753897463159" lon="9.168601201325592"><ele>78.0</ele><time>2026-04-19T08:12:28Z</time></trkpt><trkpt lat="45.20745061170037" lon="9.168623599165292"><ele>78.0</ele><time>2026-04-19T08:12:30Z</time></trkpt><trkpt lat="45.20737105341571" lon="9.168671553680085"><ele>78.0</ele><time>2026-04-19T08:12:32Z</time></trkpt><trkpt lat="45.207279763984715" lon="9.168670008764465"><ele>78.0</ele><time>2026-04-19T08:12:34Z</time></trkpt><trkpt lat="45.20720440090679" lon="9.168602776302892"><ele>78.0</ele><time>2026-04-19T08:12:36Z</time></trkpt><trkpt lat="45.20715020025302" lon="9.168551424432321"><ele>78.4</ele><time>2026-04-19T08:12:37Z</time></trkpt><trkpt lat="45.20704540914478" lon="9.168492000683836"><ele>78.8</ele><time>2026-04-19T08:12:39Z</time></trkpt><trkpt lat="45.206942967949644" lon="9.168414984403894"><ele>79.2</ele><time>2026-04-19T08:12:41Z</time></trkpt><trkpt lat="45.20688205879392" lon="9.168377863831802"><ele>79.6</ele><time>2026-04-19T08:12:42Z</time></trkpt><trkpt lat="45.20678768397361" lon="9.168300774361036"><ele>80.0</ele><time>2026-04-19T08:12:44Z</time></trkpt><trkpt lat="45.206704130159686" lon="9.168244033984337"><ele>80.0</ele><time>2026-04-19T08:12:46Z</time></trkpt><trkpt lat="45.206627942369096" lon="9.168195419369178"><ele>80.0</ele><time>2026-04-19T08:12:48Z</time></trkpt><trkpt lat="45.206553335951114" lon="9.168139573122476"><ele>80.0</ele><time>2026-04-19T08:12:50Z</time></trkpt><trkpt lat="45.20646648752623" lon="9.168074725472248"><ele>80.0</ele><time>2026-04-19T08:12:52Z</time></trkpt><trkpt lat="45.20637556402315" lon="9.168008178577743"><ele>80.0</ele><time>2026-04-19T08:12:54Z</time></trkpt><trkpt lat="45.20628949253811" lon="9.167940857383616"><ele>79.8</ele><time>2026-04-19T08:12:56Z</time></trkpt><trkpt lat="45.206197443948575" lon="9.167879099486854"><ele>79.6</ele><time>2026-04-19T08:12:58Z</time></trkpt><trkpt lat="45.20609363686653" lon="9.16780636824419"><ele>79.4</ele><time>2026-04-19T08:13:00Z</time></trkpt><trkpt lat="45.20598818368437" lon="9.16773922278682"><ele>79.2</ele><time>2026-04-19T08:13:02Z</time></trkpt><trkpt lat="45.20591540890491" lon="9.167631125791884"><ele>79.0</ele><time>2026-04-19T08:13:04Z</time></trkpt><trkpt lat="45.20586560688042" lon="9.16754828570565"><ele>79.0</ele><time>2026-04-19T08:13:06Z</time></trkpt><trkpt lat="45.205792948766316" lon="9.167466446321395"><ele>79.0</ele><time>2026-04-19T08:13:09Z</time></trkpt><trkpt lat="45.205730574411305" lon="9.167395348529993"><ele>79.0</ele><time>2026-04-19T08:13:11Z</time></trkpt><trkpt lat="45.205652833109724" lon="9.167342037959182"><ele>79.0</ele><time>2026-04-19T08:13:13Z</time></trkpt><trkpt lat="45.20557167316116" lon="9.167296617992633"><ele>79.0</ele><time>2026-04-19T08:13:15Z</time></trkpt><trkpt lat="45.20550148869232" lon="9.167242196856867"><ele>79.0</ele><time>2026-04-19T08:13:17Z</time></trkpt><trkpt lat="45.20542500915986" lon="9.167190267326047"><ele>79.5</ele><time>2026-04-19T08:13:19Z</time></trkpt><trkpt lat="45.205339705066415" lon="9.167164066125219"><ele>80.0</ele><time>2026-04-19T08:13:21Z</time></trkpt><trkpt lat="45.20524915343814" lon="9.167118284020017"><ele>80.5</ele><time>2026-04-19T08:13:23Z</time></trkpt><trkpt lat="45.20516329293569" lon="9.167087784570462"><ele>81.0</ele><time>2026-04-19T08:13:25Z</time></trkpt><trkpt lat="45.205078293928956" lon="9.167063921477908"><ele>81.5</ele><time>2026-04-19T08:13:27Z</time></trkpt><trkpt lat="45.204995910927" lon="9.167053639724834"><ele>82.0</ele><time>2026-04-19T08:13:29Z</time></trkpt><trkpt lat="45.20491693194685" lon="9.16703708542092"><ele>82.0</ele><time>2026-04-19T08:13:31Z</time></trkpt><trkpt lat="45.204837625393395" lon="9.167017929456467"><ele>82.0</ele><time>2026-04-19T08:13:33Z</time></trkpt><trkpt lat="45.20476289044989" lon="9.166976761989092"><ele>82.0</ele><time>2026-04-19T08:13:35Z</time></trkpt><trkpt lat="45.204684849694594" lon="9.166920260857577"><ele>82.0</ele><time>2026-04-19T08:13:37Z</time></trkpt><trkpt lat="45.204602564560034" lon="9.166848028111929"><ele>82.0</ele><time>2026-04-19T08:13:39Z</time></trkpt><trkpt lat="45.20451963096891" lon="9.166780554982404"><ele>82.0</ele><time>2026-04-19T08:13:41Z</time></trkpt><trkpt lat="45.20442616537056" lon="9.16671758165659"><ele>82.0</ele><time>2026-04-19T08:13:43Z</time></trkpt><trkpt lat="45.20432286521451" lon="9.166698789583677"><ele>82.0</ele><time>2026-04-19T08:13:45Z</time></trkpt><trkpt lat="45.204222056888824" lon="9.166733747546877"><ele>82.0</ele><time>2026-04-19T08:13:47.001Z</time></trkpt><trkpt lat="45.20412627850424" lon="9.166772349529463"><ele>82.0</ele><time>2026-04-19T08:13:49.001Z</time></trkpt><trkpt lat="45.20402857804267" lon="9.166812576160957"><ele>82.0</ele><time>2026-04-19T08:13:51.001Z</time></trkpt><trkpt lat="45.203932820029564" lon="9.166866506300542"><ele>82.0</ele><time>2026-04-19T08:13:53.001Z</time></trkpt><trkpt lat="45.203840732516184" lon="9.166930284957882"><ele>82.0</ele><time>2026-04-19T08:13:55.001Z</time></trkpt><trkpt lat="45.20374600287128" lon="9.166984888437819"><ele>82.0</ele><time>2026-04-19T08:13:57.001Z</time></trkpt><trkpt lat="45.20365502533239" lon="9.167043198859252"><ele>82.0</ele><time>2026-04-19T08:13:59.001Z</time></trkpt><trkpt lat="45.20356052829874" lon="9.167091222631523"><ele>82.0</ele><time>2026-04-19T08:14:01.001Z</time></trkpt><trkpt lat="45.203460674780935" lon="9.167133639359642"><ele>82.0</ele><time>2026-04-19T08:14:03.001Z</time></trkpt><trkpt lat="45.20335595715716" lon="9.16715973021416"><ele>82.0</ele><time>2026-04-19T08:14:05.001Z</time></trkpt><trkpt lat="45.20325091502927" lon="9.1671836933985"><ele>82.0</ele><time>2026-04-19T08:14:07Z</time></trkpt><trkpt lat="45.20315638202523" lon="9.167218651535718"><ele>82.0</ele><time>2026-04-19T08:14:09Z</time></trkpt><trkpt lat="45.20309499622304" lon="9.1673033812796"><ele>82.0</ele><time>2026-04-19T08:14:11Z</time></trkpt><trkpt lat="45.20304347748605" lon="9.16737696626532"><ele>81.83333333333333</ele><time>2026-04-19T08:14:15Z</time></trkpt><trkpt lat="45.20295923678486" lon="9.167384416089186"><ele>81.66666666666666</ele><time>2026-04-19T08:14:20Z</time></trkpt><trkpt lat="45.20289479377626" lon="9.167369235941456"><ele>81.5</ele><time>2026-04-19T08:14:22Z</time></trkpt><trkpt lat="45.20282161072476" lon="9.167321446949867"><ele>81.33333333333333</ele><time>2026-04-19T08:14:24Z</time></trkpt><trkpt lat="45.20274374474396" lon="9.167277170143846"><ele>81.16666666666667</ele><time>2026-04-19T08:14:26Z</time></trkpt><trkpt lat="45.202664369850616" lon="9.167235928907862"><ele>81.0</ele><time>2026-04-19T08:14:28Z</time></trkpt><trkpt lat="45.20258588089421" lon="9.167231388099703"><ele>80.83333333333333</ele><time>2026-04-19T08:14:30Z</time></trkpt><trkpt lat="45.20251739783299" lon="9.167211031538784"><ele>80.66666666666667</ele><time>2026-04-19T08:14:33Z</time></trkpt><trkpt lat="45.202467253772475" lon="9.167104397784561"><ele>80.5</ele><time>2026-04-19T08:14:36Z</time></trkpt><trkpt lat="45.202445522144416" lon="9.167011443723917"><ele>80.33333333333334</ele><time>2026-04-19T08:14:38Z</time></trkpt><trkpt lat="45.202430547428655" lon="9.166896609619217"><ele>80.16666666666667</ele><time>2026-04-19T08:14:40Z</time></trkpt><trkpt lat="45.202416388298566" lon="9.166773957961997"><ele>80.0</ele><time>2026-04-19T08:14:42Z</time></trkpt><trkpt lat="45.202404485212746" lon="9.16664167507655"><ele>79.2</ele><time>2026-04-19T08:14:44Z</time></trkpt><trkpt lat="45.20238543293755" lon="9.166508708619519"><ele>78.4</ele><time>2026-04-19T08:14:46Z</time></trkpt><trkpt lat="45.20236322025276" lon="9.166372909684792"><ele>77.6</ele><time>2026-04-19T08:14:48Z</time></trkpt><trkpt lat="45.202322353234834" lon="9.166249305797482"><ele>76.8</ele><time>2026-04-19T08:14:50Z</time></trkpt><trkpt lat="45.20227108591382" lon="9.16612215976981"><ele>76.0</ele><time>2026-04-19T08:14:52Z</time></trkpt><trkpt lat="45.202221397189135" lon="9.165985676426173"><ele>75.8</ele><time>2026-04-19T08:14:54Z</time></trkpt><trkpt lat="45.20215476442132" lon="9.165876110982817"><ele>75.6</ele><time>2026-04-19T08:14:56Z</time></trkpt><trkpt lat="45.20207703103301" lon="9.165777523169938"><ele>75.4</ele><time>2026-04-19T08:14:58Z</time></trkpt><trkpt lat="45.201991391510454" lon="9.165693763816302"><ele>75.2</ele><time>2026-04-19T08:15:00Z</time></trkpt><trkpt lat="45.201888879298835" lon="9.165633594863767"><ele>75.0</ele><time>2026-04-19T08:15:02Z</time></trkpt><trkpt lat="45.20182611064845" lon="9.165619554120683"><ele>74.6</ele><time>2026-04-19T08:15:03Z</time></trkpt><trkpt lat="45.20175818234761" lon="9.165587522006442"><ele>74.2</ele><time>2026-04-19T08:15:04Z</time></trkpt><trkpt lat="45.20164989249075" lon="9.165562300330876"><ele>73.8</ele><time>2026-04-19T08:15:06Z</time></trkpt><trkpt lat="45.20154333737772" lon="9.165523004016256"><ele>73.4</ele><time>2026-04-19T08:15:08Z</time></trkpt><trkpt lat="45.20147902515643" lon="9.165506121273546"><ele>73.0</ele><time>2026-04-19T08:15:09Z</time></trkpt><trkpt lat="45.2013694877039" lon="9.165482812520303"><ele>73.0</ele><time>2026-04-19T08:15:11Z</time></trkpt><trkpt lat="45.2013060334709" lon="9.165474864251811"><ele>73.0</ele><time>2026-04-19T08:15:12Z</time></trkpt><trkpt lat="45.20118672954821" lon="9.165452127886528"><ele>73.0</ele><time>2026-04-19T08:15:14Z</time></trkpt><trkpt lat="45.20107241966405" lon="9.165400831182343"><ele>73.0</ele><time>2026-04-19T08:15:16Z</time></trkpt><trkpt lat="45.20095531942874" lon="9.165355896111514"><ele>73.0</ele><time>2026-04-19T08:15:18Z</time></trkpt><trkpt lat="45.20084316065812" lon="9.165324967323551"><ele>73.0</ele><time>2026-04-19T08:15:20Z</time></trkpt><trkpt lat="45.200732268326135" lon="9.165287566248697"><ele>73.0</ele><time>2026-04-19T08:15:22Z</time></trkpt><trkpt lat="45.20062157156122" lon="9.165245139830184"><ele>73.0</ele><time>2026-04-19T08:15:24Z</time></trkpt><trkpt lat="45.20051624153884" lon="9.165206413090472"><ele>73.0</ele><time>2026-04-19T08:15:26Z</time></trkpt><trkpt lat="45.200412178359365" lon="9.165176447130783"><ele>73.0</ele><time>2026-04-19T08:15:28Z</time></trkpt><trkpt lat="45.20031169311221" lon="9.165133360866768"><ele>73.2</ele><time>2026-04-19T08:15:30Z</time></trkpt><trkpt lat="45.20020931215817" lon="9.165110021130166"><ele>73.4</ele><time>2026-04-19T08:15:32Z</time></trkpt><trkpt lat="45.20010706834222" lon="9.16507102994474"><ele>73.60000000000001</ele><time>2026-04-19T08:15:34Z</time></trkpt><trkpt lat="45.20000413913806" lon="9.165037757640315"><ele>73.8</ele><time>2026-04-19T08:15:36Z</time></trkpt><trkpt lat="45.199898703604966" lon="9.16500634751123"><ele>74.0</ele><time>2026-04-19T08:15:38Z</time></trkpt><trkpt lat="45.19979438511697" lon="9.164977810461167"><ele>74.0</ele><time>2026-04-19T08:15:40Z</time></trkpt><trkpt lat="45.19968959008764" lon="9.164957531371385"><ele>74.0</ele><time>2026-04-19T08:15:42Z</time></trkpt><trkpt lat="45.199585154192405" lon="9.164922406502837"><ele>74.0</ele><time>2026-04-19T08:15:44Z</time></trkpt><trkpt lat="45.19947951683263" lon="9.16489786541385"><ele>74.0</ele><time>2026-04-19T08:15:46Z</time></trkpt><trkpt lat="45.19937488101488" lon="9.164861077282636"><ele>74.0</ele><time>2026-04-19T08:15:48Z</time></trkpt><trkpt lat="45.19926775014729" lon="9.164837876112244"><ele>74.0</ele><time>2026-04-19T08:15:50Z</time></trkpt><trkpt lat="45.19917421811453" lon="9.164782821933708"><ele>74.0</ele><time>2026-04-19T08:15:52Z</time></trkpt><trkpt lat="45.19911102028298" lon="9.164780547383716"><ele>74.0</ele><time>2026-04-19T08:15:54.001Z</time></trkpt><trkpt lat="45.19907290038235" lon="9.164872625826861"><ele>74.0</ele><time>2026-04-19T08:15:56.001Z</time></trkpt><trkpt lat="45.19903133116364" lon="9.164970683339403"><ele>74.0</ele><time>2026-04-19T08:15:58.001Z</time></trkpt><trkpt lat="45.19897163392206" lon="9.165038314964201"><ele>74.0</ele><time>2026-04-19T08:16:00.001Z</time></trkpt><trkpt lat="45.198898651877506" lon="9.165088146167836"><ele>74.16666666666667</ele><time>2026-04-19T08:16:02.001Z</time></trkpt><trkpt lat="45.198812962578934" lon="9.165084601614804"><ele>74.33333333333334</ele><time>2026-04-19T08:16:04.001Z</time></trkpt><trkpt lat="45.1987303294529" lon="9.165052559213255"><ele>74.5</ele><time>2026-04-19T08:16:06.001Z</time></trkpt><trkpt lat="45.19864626089493" lon="9.165028724353084"><ele>74.66666666666667</ele><time>2026-04-19T08:16:08.001Z</time></trkpt><trkpt lat="45.19856128149307" lon="9.165011689073836"><ele>74.83333333333333</ele><time>2026-04-19T08:16:10.001Z</time></trkpt><trkpt lat="45.19847562410595" lon="9.164987807753493"><ele>75.0</ele><time>2026-04-19T08:16:12.001Z</time></trkpt><trkpt lat="45.198379723448014" lon="9.164960511640727"><ele>75.0</ele><time>2026-04-19T08:16:14Z</time></trkpt><trkpt lat="45.198283575738856" lon="9.165005105841848"><ele>75.0</ele><time>2026-04-19T08:16:16Z</time></trkpt><trkpt lat="45.1982140370581" lon="9.165124368936567"><ele>75.0</ele><time>2026-04-19T08:16:18Z</time></trkpt><trkpt lat="45.19818892610423" lon="9.165268956030609"><ele>75.0</ele><time>2026-04-19T08:16:20Z</time></trkpt><trkpt lat="45.19813498787631" lon="9.165415044515692"><ele>75.0</ele><time>2026-04-19T08:16:22Z</time></trkpt><trkpt lat="45.19812150880824" lon="9.165549904747648"><ele>75.0</ele><time>2026-04-19T08:16:24Z</time></trkpt><trkpt lat="45.1980899405026" lon="9.165668369552128"><ele>75.0</ele><time>2026-04-19T08:16:26Z</time></trkpt><trkpt lat="45.19806667536572" lon="9.165802944464128"><ele>75.0</ele><time>2026-04-19T08:16:28Z</time></trkpt><trkpt lat="45.19802848566963" lon="9.16593564371986"><ele>75.0</ele><time>2026-04-19T08:16:30Z</time></trkpt><trkpt lat="45.19799463427277" lon="9.166063254403722"><ele>75.0</ele><time>2026-04-19T08:16:32Z</time></trkpt><trkpt lat="45.1979626564891" lon="9.166192274391012"><ele>75.2</ele><time>2026-04-19T08:16:34Z</time></trkpt><trkpt lat="45.19792907646829" lon="9.166318974720857"><ele>75.4</ele><time>2026-04-19T08:16:36Z</time></trkpt><trkpt lat="45.197901364558994" lon="9.166449504560227"><ele>75.6</ele><time>2026-04-19T08:16:38Z</time></trkpt><trkpt lat="45.197869392609825" lon="9.166574136294116"><ele>75.8</ele><time>2026-04-19T08:16:40Z</time></trkpt><trkpt lat="45.197833195115685" lon="9.166703534941785"><ele>76.0</ele><time>2026-04-19T08:16:42Z</time></trkpt><trkpt lat="45.197806077224435" lon="9.16683918335393"><ele>76.2</ele><time>2026-04-19T08:16:44Z</time></trkpt><trkpt lat="45.19777136701172" lon="9.166969188228762"><ele>76.39999999999999</ele><time>2026-04-19T08:16:46Z</time></trkpt><trkpt lat="45.19774149073552" lon="9.167095553440802"><ele>76.6</ele><time>2026-04-19T08:16:48Z</time></trkpt><trkpt lat="45.19770527747082" lon="9.167217291910703"><ele>76.8</ele><time>2026-04-19T08:16:50Z</time></trkpt><trkpt lat="45.197650658241386" lon="9.167303824420129"><ele>77.0</ele><time>2026-04-19T08:16:52Z</time></trkpt><trkpt lat="45.19755647933039" lon="9.167330504620148"><ele>77.0</ele><time>2026-04-19T08:16:54Z</time></trkpt><trkpt lat="45.19746373038767" lon="9.167312727101706"><ele>77.0</ele><time>2026-04-19T08:16:56Z</time></trkpt><trkpt lat="45.197370956789634" lon="9.167314491954137"><ele>77.0</ele><time>2026-04-19T08:16:58Z</time></trkpt><trkpt lat="45.1972807787382" lon="9.167324534415183"><ele>77.0</ele><time>2026-04-19T08:17:00Z</time></trkpt><trkpt lat="45.19720380528547" lon="9.167352191893361"><ele>77.0</ele><time>2026-04-19T08:17:02Z</time></trkpt><trkpt lat="45.197136666632325" lon="9.167390322200362"><ele>77.0</ele><time>2026-04-19T08:17:04Z</time></trkpt><trkpt lat="45.19707364202622" lon="9.167454845732511"><ele>76.66666666666667</ele><time>2026-04-19T08:17:06Z</time></trkpt><trkpt lat="45.197008681780076" lon="9.167476688368568"><ele>76.33333333333334</ele><time>2026-04-19T08:17:08Z</time></trkpt><trkpt lat="45.196939559650524" lon="9.167474826878959"><ele>76.0</ele><time>2026-04-19T08:17:10Z</time></trkpt><trkpt lat="45.19686408414089" lon="9.167439063907421"><ele>75.66666666666667</ele><time>2026-04-19T08:17:12Z</time></trkpt><trkpt lat="45.19678665907938" lon="9.167397273465829"><ele>75.33333333333333</ele><time>2026-04-19T08:17:14Z</time></trkpt><trkpt lat="45.196702720122744" lon="9.167349577699024"><ele>75.0</ele><time>2026-04-19T08:17:16Z</time></trkpt><trkpt lat="45.19661119930427" lon="9.167307034644859"><ele>74.4</ele><time>2026-04-19T08:17:18Z</time></trkpt><trkpt lat="45.196514303751954" lon="9.167271116809822"><ele>73.8</ele><time>2026-04-19T08:17:20Z</time></trkpt><trkpt lat="45.19642323222855" lon="9.167243918811964"><ele>73.2</ele><time>2026-04-19T08:17:22Z</time></trkpt><trkpt lat="45.19634073325697" lon="9.167211406370177"><ele>72.6</ele><time>2026-04-19T08:17:24Z</time></trkpt><trkpt lat="45.19625153215552" lon="9.16721784408337"><ele>72.0</ele><time>2026-04-19T08:17:26Z</time></trkpt><trkpt lat="45.19616266423748" lon="9.167190312124877"><ele>72.0</ele><time>2026-04-19T08:17:28Z</time></trkpt><trkpt lat="45.19610758512889" lon="9.167275728655474"><ele>72.0</ele><time>2026-04-19T08:17:30Z</time></trkpt><trkpt lat="45.19608502890258" lon="9.167379459767336"><ele>72.0</ele><time>2026-04-19T08:17:32Z</time></trkpt><trkpt lat="45.19604680974976" lon="9.167491710842441"><ele>72.0</ele><time>2026-04-19T08:17:35Z</time></trkpt><trkpt lat="45.19600841692475" lon="9.167571693292402"><ele>72.0</ele><time>2026-04-19T08:17:38Z</time></trkpt><trkpt lat="45.19595195166946" lon="9.167652092506449"><ele>72.0</ele><time>2026-04-19T08:17:41Z</time></trkpt><trkpt lat="45.19587645129851" lon="9.167608920620914"><ele>72.33333333333333</ele><time>2026-04-19T08:17:43Z</time></trkpt><trkpt lat="45.19581439422141" lon="9.167579932060095"><ele>72.66666666666667</ele><time>2026-04-19T08:17:45Z</time></trkpt><trkpt lat="45.19575064704613" lon="9.167565489740348"><ele>73.0</ele><time>2026-04-19T08:17:47Z</time></trkpt><trkpt lat="45.19567420433969" lon="9.167546318007092"><ele>73.33333333333334</ele><time>2026-04-19T08:17:49Z</time></trkpt><trkpt lat="45.19559909857527" lon="9.16752922774534"><ele>73.66666666666667</ele><time>2026-04-19T08:17:51Z</time></trkpt><trkpt lat="45.19550613985965" lon="9.167520639156667"><ele>74.0</ele><time>2026-04-19T08:17:53Z</time></trkpt><trkpt lat="45.195423508099275" lon="9.167486082904688"><ele>74.0</ele><time>2026-04-19T08:17:55.001Z</time></trkpt><trkpt lat="45.19533264655253" lon="9.167444180323452"><ele>74.0</ele><time>2026-04-19T08:17:57.001Z</time></trkpt><trkpt lat="45.19523864780652" lon="9.167412737669947"><ele>74.0</ele><time>2026-04-19T08:17:59.001Z</time></trkpt><trkpt lat="45.195141958330886" lon="9.167380345978474"><ele>74.0</ele><time>2026-04-19T08:18:01.001Z</time></trkpt><trkpt lat="45.19504845025407" lon="9.167338904072825"><ele>74.0</ele><time>2026-04-19T08:18:03.001Z</time></trkpt><trkpt lat="45.19495292949369" lon="9.16730583490044"><ele>74.2</ele><time>2026-04-19T08:18:05.001Z</time></trkpt><trkpt lat="45.19485786928986" lon="9.167272210516431"><ele>74.4</ele><time>2026-04-19T08:18:07.001Z</time></trkpt><trkpt lat="45.1947647419618" lon="9.167237120238154"><ele>74.6</ele><time>2026-04-19T08:18:09.001Z</time></trkpt><trkpt lat="45.19466603658317" lon="9.167195087687945"><ele>74.8</ele><time>2026-04-19T08:18:11.001Z</time></trkpt><trkpt lat="45.19456552503539" lon="9.167167656195904"><ele>75.0</ele><time>2026-04-19T08:18:13.001Z</time></trkpt><trkpt lat="45.19447375980924" lon="9.16712749973874"><ele>75.8</ele><time>2026-04-19T08:18:15.001Z</time></trkpt><trkpt lat="45.19438531752871" lon="9.167081398018501"><ele>76.6</ele><time>2026-04-19T08:18:17.001Z</time></trkpt><trkpt lat="45.19429476161949" lon="9.16703998282632"><ele>77.4</ele><time>2026-04-19T08:18:19Z</time></trkpt><trkpt lat="45.1942041331289" lon="9.16699642876438"><ele>78.2</ele><time>2026-04-19T08:18:21Z</time></trkpt><trkpt lat="45.194112037322746" lon="9.16695197040501"><ele>79.0</ele><time>2026-04-19T08:18:23Z</time></trkpt><trkpt lat="45.19402738237077" lon="9.166900619203512"><ele>79.14285714285715</ele><time>2026-04-19T08:18:25Z</time></trkpt><trkpt lat="45.19395000933278" lon="9.166863296726074"><ele>79.28571428571429</ele><time>2026-04-19T08:18:27Z</time></trkpt><trkpt lat="45.19387979861397" lon="9.166831218207754"><ele>79.42857142857143</ele><time>2026-04-19T08:18:29Z</time></trkpt><trkpt lat="45.19380061816996" lon="9.166780695043489"><ele>79.57142857142858</ele><time>2026-04-19T08:18:32Z</time></trkpt><trkpt lat="45.19374217961058" lon="9.16674509226857"><ele>79.71428571428572</ele><time>2026-04-19T08:18:36Z</time></trkpt><trkpt lat="45.193679319322456" lon="9.166699749898276"><ele>79.85714285714286</ele><time>2026-04-19T08:19:07Z</time></trkpt><trkpt lat="45.19362084824794" lon="9.166661332238172"><ele>80.0</ele><time>2026-04-19T08:19:09Z</time></trkpt><trkpt lat="45.193543680555216" lon="9.166605348213604"><ele>80.0</ele><time>2026-04-19T08:19:11Z</time></trkpt><trkpt lat="45.19345782948343" lon="9.16654808781257"><ele>80.0</ele><time>2026-04-19T08:19:13Z</time></trkpt><trkpt lat="45.19338306643004" lon="9.166493105076212"><ele>80.0</ele><time>2026-04-19T08:19:15Z</time></trkpt><trkpt lat="45.19330970915414" lon="9.166435664018712"><ele>80.0</ele><time>2026-04-19T08:19:17Z</time></trkpt><trkpt lat="45.19322975928328" lon="9.166385857970885"><ele>80.0</ele><time>2026-04-19T08:19:19Z</time></trkpt><trkpt lat="45.19316480718448" lon="9.166293180001352"><ele>80.0</ele><time>2026-04-19T08:19:21Z</time></trkpt><trkpt lat="45.19308596787688" lon="9.166222491267389"><ele>80.2</ele><time>2026-04-19T08:19:23Z</time></trkpt><trkpt lat="45.19301466057182" lon="9.166150633802582"><ele>80.4</ele><time>2026-04-19T08:19:25Z</time></trkpt><trkpt lat="45.19293803667698" lon="9.166076604865921"><ele>80.6</ele><time>2026-04-19T08:19:27Z</time></trkpt><trkpt lat="45.19286165358226" lon="9.1659941252189"><ele>80.8</ele><time>2026-04-19T08:19:29Z</time></trkpt><trkpt lat="45.19278829259034" lon="9.165912409760521"><ele>81.0</ele><time>2026-04-19T08:19:31Z</time></trkpt><trkpt lat="45.19271735490892" lon="9.165829677832807"><ele>81.0</ele><time>2026-04-19T08:19:33Z</time></trkpt><trkpt lat="45.19264561848684" lon="9.16574804838971"><ele>81.0</ele><time>2026-04-19T08:19:35Z</time></trkpt><trkpt lat="45.19257715084728" lon="9.165666618472864"><ele>81.0</ele><time>2026-04-19T08:19:37Z</time></trkpt><trkpt lat="45.19251626057896" lon="9.165587184103016"><ele>81.0</ele><time>2026-04-19T08:19:39Z</time></trkpt><trkpt lat="45.19244955062811" lon="9.165493874571156"><ele>81.0</ele><time>2026-04-19T08:19:41Z</time></trkpt><trkpt lat="45.19238548816271" lon="9.165402738328897"><ele>81.0</ele><time>2026-04-19T08:19:43Z</time></trkpt><trkpt lat="45.192324618867346" lon="9.165305148129532"><ele>81.0</ele><time>2026-04-19T08:19:45Z</time></trkpt><trkpt lat="45.19226105421874" lon="9.16520576875124"><ele>81.0</ele><time>2026-04-19T08:19:47Z</time></trkpt><trkpt lat="45.19220115263943" lon="9.165105852558254"><ele>81.0</ele><time>2026-04-19T08:19:49Z</time></trkpt><trkpt lat="45.19214677161927" lon="9.165000963169055"><ele>81.0</ele><time>2026-04-19T08:19:51Z</time></trkpt><trkpt lat="45.19209142978558" lon="9.164897533929276"><ele>81.0</ele><time>2026-04-19T08:19:53Z</time></trkpt><trkpt lat="45.192036370511005" lon="9.164793900422865"><ele>80.8</ele><time>2026-04-19T08:19:55Z</time></trkpt><trkpt lat="45.19198046915226" lon="9.16469341055036"><ele>80.6</ele><time>2026-04-19T08:19:57Z</time></trkpt><trkpt lat="45.19191992672681" lon="9.164596710671894"><ele>80.4</ele><time>2026-04-19T08:19:59Z</time></trkpt><trkpt lat="45.1918771517675" lon="9.164474499800276"><ele>80.2</ele><time>2026-04-19T08:20:01.001Z</time></trkpt><trkpt lat="45.191820825883035" lon="9.164363491720009"><ele>80.0</ele><time>2026-04-19T08:20:03.001Z</time></trkpt><trkpt lat="45.19175979247832" lon="9.164251078456795"><ele>80.0</ele><time>2026-04-19T08:20:05.001Z</time></trkpt><trkpt lat="45.19170007086859" lon="9.164117129757763"><ele>80.0</ele><time>2026-04-19T08:20:07.001Z</time></trkpt><trkpt lat="45.19162400695238" lon="9.16397852182539"><ele>80.0</ele><time>2026-04-19T08:20:09.001Z</time></trkpt><trkpt lat="45.19158161271594" lon="9.163911802098312"><ele>80.0</ele><time>2026-04-19T08:20:10.001Z</time></trkpt><trkpt lat="45.191511325331106" lon="9.163770486715359"><ele>80.0</ele><time>2026-04-19T08:20:12.001Z</time></trkpt><trkpt lat="45.19144026316584" lon="9.163633707579342"><ele>80.0</ele><time>2026-04-19T08:20:14.001Z</time></trkpt><trkpt lat="45.19137802684535" lon="9.16349303406594"><ele>80.0</ele><time>2026-04-19T08:20:16.001Z</time></trkpt><trkpt lat="45.191312378092604" lon="9.163359112559164"><ele>80.0</ele><time>2026-04-19T08:20:18.001Z</time></trkpt><trkpt lat="45.191246190832125" lon="9.163232160603178"><ele>80.0</ele><time>2026-04-19T08:20:20.001Z</time></trkpt><trkpt lat="45.19119078528953" lon="9.163101139941553"><ele>80.4</ele><time>2026-04-19T08:20:22.001Z</time></trkpt><trkpt lat="45.19112986841437" lon="9.162982632100439"><ele>80.8</ele><time>2026-04-19T08:20:24.001Z</time></trkpt><trkpt lat="45.191058267667636" lon="9.162884788810885"><ele>81.19999999999999</ele><time>2026-04-19T08:20:26Z</time></trkpt><trkpt lat="45.19097737800616" lon="9.162798341323734"><ele>81.6</ele><time>2026-04-19T08:20:28Z</time></trkpt><trkpt lat="45.190889456994604" lon="9.162724129129248"><ele>82.0</ele><time>2026-04-19T08:20:30Z</time></trkpt><trkpt lat="45.19080303239839" lon="9.162656375002602"><ele>82.0</ele><time>2026-04-19T08:20:32Z</time></trkpt><trkpt lat="45.19071368487776" lon="9.162582857600402"><ele>82.0</ele><time>2026-04-19T08:20:34Z</time></trkpt><trkpt lat="45.19062899864605" lon="9.162494858219796"><ele>82.0</ele><time>2026-04-19T08:20:36Z</time></trkpt><trkpt lat="45.1905442979824" lon="9.162400883655183"><ele>82.0</ele><time>2026-04-19T08:20:38Z</time></trkpt><trkpt lat="45.19044965265252" lon="9.1623278927858"><ele>82.0</ele><time>2026-04-19T08:20:40Z</time></trkpt><trkpt lat="45.190360126280105" lon="9.162249190433673"><ele>81.8</ele><time>2026-04-19T08:20:42Z</time></trkpt><trkpt lat="45.19027510724768" lon="9.162158025089525"><ele>81.6</ele><time>2026-04-19T08:20:44Z</time></trkpt><trkpt lat="45.19018580763713" lon="9.162075410458907"><ele>81.39999999999999</ele><time>2026-04-19T08:20:46Z</time></trkpt><trkpt lat="45.19009643982598" lon="9.161989000668415"><ele>81.19999999999999</ele><time>2026-04-19T08:20:48Z</time></trkpt><trkpt lat="45.1900150606972" lon="9.161897686757136"><ele>81.0</ele><time>2026-04-19T08:20:50Z</time></trkpt><trkpt lat="45.18992810555579" lon="9.161816893157306"><ele>81.0</ele><time>2026-04-19T08:20:52Z</time></trkpt><trkpt lat="45.18984639226725" lon="9.161728132388205"><ele>81.0</ele><time>2026-04-19T08:20:54Z</time></trkpt><trkpt lat="45.189760640939916" lon="9.161651834426245"><ele>81.0</ele><time>2026-04-19T08:20:56Z</time></trkpt><trkpt lat="45.18967427204863" lon="9.161575273108024"><ele>81.0</ele><time>2026-04-19T08:20:58Z</time></trkpt><trkpt lat="45.18959830038647" lon="9.161480734783963"><ele>81.0</ele><time>2026-04-19T08:21:00Z</time></trkpt><trkpt lat="45.18951824553211" lon="9.161399763982333"><ele>81.19999999999999</ele><time>2026-04-19T08:21:02Z</time></trkpt><trkpt lat="45.18944168497388" lon="9.161324033487226"><ele>81.39999999999999</ele><time>2026-04-19T08:21:04Z</time></trkpt><trkpt lat="45.18937124034466" lon="9.16123508059389"><ele>81.6</ele><time>2026-04-19T08:21:06Z</time></trkpt><trkpt lat="45.1893026948719" lon="9.161158303488115"><ele>81.8</ele><time>2026-04-19T08:21:08Z</time></trkpt><trkpt lat="45.18922910345332" lon="9.161076658411849"><ele>82.0</ele><time>2026-04-19T08:21:10Z</time></trkpt><trkpt lat="45.18916201292475" lon="9.160986450632919"><ele>82.0</ele><time>2026-04-19T08:21:12Z</time></trkpt><trkpt lat="45.18912034781062" lon="9.160917713920123"><ele>82.0</ele><time>2026-04-19T08:21:15Z</time></trkpt><trkpt lat="45.18906425122272" lon="9.160840696038857"><ele>82.0</ele><time>2026-04-19T08:21:23Z</time></trkpt><trkpt lat="45.189012912994386" lon="9.160752969782944"><ele>82.0</ele><time>2026-04-19T08:21:26Z</time></trkpt><trkpt lat="45.18896181992042" lon="9.160693946514055"><ele>82.0</ele><time>2026-04-19T08:21:28Z</time></trkpt><trkpt lat="45.18889734621882" lon="9.160623056039627"><ele>82.0</ele><time>2026-04-19T08:21:30Z</time></trkpt><trkpt lat="45.18883224188948" lon="9.160532714261944"><ele>82.33333333333333</ele><time>2026-04-19T08:21:32Z</time></trkpt><trkpt lat="45.18877062979557" lon="9.160440251157048"><ele>82.66666666666666</ele><time>2026-04-19T08:21:34Z</time></trkpt><trkpt lat="45.18872402613023" lon="9.160328262246205"><ele>83.0</ele><time>2026-04-19T08:21:36Z</time></trkpt><trkpt lat="45.18866789379563" lon="9.16023196252507"><ele>83.33333333333333</ele><time>2026-04-19T08:21:38Z</time></trkpt><trkpt lat="45.18860531624113" lon="9.160154531273248"><ele>83.66666666666667</ele><time>2026-04-19T08:21:40Z</time></trkpt><trkpt lat="45.18853598956349" lon="9.160080278109042"><ele>84.0</ele><time>2026-04-19T08:21:42Z</time></trkpt><trkpt lat="45.18846164856976" lon="9.159999668339267"><ele>84.0</ele><time>2026-04-19T08:21:44Z</time></trkpt><trkpt lat="45.18838822665168" lon="9.159920454754808"><ele>84.0</ele><time>2026-04-19T08:21:46Z</time></trkpt><trkpt lat="45.188308375761075" lon="9.159861010048665"><ele>84.0</ele><time>2026-04-19T08:21:48Z</time></trkpt><trkpt lat="45.18823310833484" lon="9.159822028766248"><ele>84.0</ele><time>2026-04-19T08:21:50Z</time></trkpt><trkpt lat="45.188156972745965" lon="9.159788894535136"><ele>84.0</ele><time>2026-04-19T08:21:52Z</time></trkpt><trkpt lat="45.18807162119741" lon="9.159730031919695"><ele>84.0</ele><time>2026-04-19T08:21:54Z</time></trkpt><trkpt lat="45.18799990169672" lon="9.15963655513461"><ele>84.0</ele><time>2026-04-19T08:21:56Z</time></trkpt><trkpt lat="45.187924301214515" lon="9.15955043207715"><ele>84.0</ele><time>2026-04-19T08:21:58Z</time></trkpt><trkpt lat="45.187855012527166" lon="9.159448970147885"><ele>84.0</ele><time>2026-04-19T08:22:00Z</time></trkpt><trkpt lat="45.18774903758569" lon="9.159416484325838"><ele>84.0</ele><time>2026-04-19T08:22:02Z</time></trkpt><trkpt lat="45.18764805772363" lon="9.159383200108719"><ele>84.0</ele><time>2026-04-19T08:22:04Z</time></trkpt><trkpt lat="45.187545672622875" lon="9.159338837627793"><ele>84.0</ele><time>2026-04-19T08:22:06Z</time></trkpt><trkpt lat="45.187445535698636" lon="9.1593081226754"><ele>84.0</ele><time>2026-04-19T08:22:08Z</time></trkpt><trkpt lat="45.18734082465031" lon="9.159268856710007"><ele>84.0</ele><time>2026-04-19T08:22:10Z</time></trkpt><trkpt lat="45.187242060998635" lon="9.159229724820491"><ele>84.0</ele><time>2026-04-19T08:22:12Z</time></trkpt><trkpt lat="45.18714321775539" lon="9.159203440329112"><ele>84.0</ele><time>2026-04-19T08:22:14Z</time></trkpt><trkpt lat="45.1870410057778" lon="9.159195924328603"><ele>84.4</ele><time>2026-04-19T08:22:16Z</time></trkpt><trkpt lat="45.18694020489355" lon="9.15918026179848"><ele>84.80000000000001</ele><time>2026-04-19T08:22:18.001Z</time></trkpt><trkpt lat="45.18683942598708" lon="9.15912876466074"><ele>85.19999999999999</ele><time>2026-04-19T08:22:20.001Z</time></trkpt><trkpt lat="45.186740418393" lon="9.159088772794457"><ele>85.6</ele><time>2026-04-19T08:22:22.001Z</time></trkpt><trkpt lat="45.186646323592065" lon="9.15903303941077"><ele>86.0</ele><time>2026-04-19T08:22:24.001Z</time></trkpt><trkpt lat="45.18654617604395" lon="9.158990933054174"><ele>86.4</ele><time>2026-04-19T08:22:26.001Z</time></trkpt><trkpt lat="45.18645421855662" lon="9.158948895239742"><ele>86.8</ele><time>2026-04-19T08:22:28.001Z</time></trkpt><trkpt lat="45.1863405259738" lon="9.158930172958971"><ele>87.2</ele><time>2026-04-19T08:22:30.001Z</time></trkpt><trkpt lat="45.18623565921039" lon="9.158888871301693"><ele>87.60000000000001</ele><time>2026-04-19T08:22:32Z</time></trkpt><trkpt lat="45.18613659144427" lon="9.158847341521838"><ele>88.0</ele><time>2026-04-19T08:22:34Z</time></trkpt><trkpt lat="45.186018632794905" lon="9.15879336737705"><ele>88.0</ele><time>2026-04-19T08:22:36Z</time></trkpt><trkpt lat="45.18591769230382" lon="9.158749709086571"><ele>88.0</ele><time>2026-04-19T08:22:38Z</time></trkpt><trkpt lat="45.18581686299159" lon="9.158703271773707"><ele>88.0</ele><time>2026-04-19T08:22:40Z</time></trkpt><trkpt lat="45.18572204276879" lon="9.158656522402062"><ele>88.0</ele><time>2026-04-19T08:22:42Z</time></trkpt><trkpt lat="45.18562939372389" lon="9.158611691008423"><ele>88.0</ele><time>2026-04-19T08:22:44Z</time></trkpt><trkpt lat="45.18552897941596" lon="9.158583353552405"><ele>87.60000000000001</ele><time>2026-04-19T08:22:46Z</time></trkpt><trkpt lat="45.18545498037153" lon="9.158533004374986"><ele>87.2</ele><time>2026-04-19T08:22:48Z</time></trkpt><trkpt lat="45.18537172221826" lon="9.158509065452543"><ele>86.8</ele><time>2026-04-19T08:22:50Z</time></trkpt><trkpt lat="45.18528018380026" lon="9.158454246919613"><ele>86.4</ele><time>2026-04-19T08:22:52Z</time></trkpt><trkpt lat="45.18518895475507" lon="9.158407590524714"><ele>86.0</ele><time>2026-04-19T08:22:54Z</time></trkpt><trkpt lat="45.18509804380661" lon="9.158357633722726"><ele>86.0</ele><time>2026-04-19T08:22:56Z</time></trkpt><trkpt lat="45.18501295494729" lon="9.158303674841129"><ele>86.0</ele><time>2026-04-19T08:22:58Z</time></trkpt><trkpt lat="45.184937248275226" lon="9.158257694197536"><ele>86.0</ele><time>2026-04-19T08:23:00Z</time></trkpt><trkpt lat="45.1848734571359" lon="9.158168844292904"><ele>86.0</ele><time>2026-04-19T08:23:02Z</time></trkpt><trkpt lat="45.18487708659327" lon="9.158034157916338"><ele>86.0</ele><time>2026-04-19T08:23:04Z</time></trkpt><trkpt lat="45.18491011449808" lon="9.157911486220272"><ele>86.19999999999999</ele><time>2026-04-19T08:23:06Z</time></trkpt><trkpt lat="45.18493055880857" lon="9.157784341408526"><ele>86.39999999999999</ele><time>2026-04-19T08:23:08Z</time></trkpt><trkpt lat="45.1849562051548" lon="9.157655420827892"><ele>86.6</ele><time>2026-04-19T08:23:10Z</time></trkpt><trkpt lat="45.18497975892302" lon="9.157521767712861"><ele>86.8</ele><time>2026-04-19T08:23:12Z</time></trkpt><trkpt lat="45.18500089071192" lon="9.157389674359774"><ele>87.0</ele><time>2026-04-19T08:23:14Z</time></trkpt><trkpt lat="45.18502708374045" lon="9.1572599949382"><ele>87.0</ele><time>2026-04-19T08:23:16Z</time></trkpt><trkpt lat="45.18503517740388" lon="9.157124272765506"><ele>87.0</ele><time>2026-04-19T08:23:18Z</time></trkpt><trkpt lat="45.18506674154049" lon="9.156975555652508"><ele>87.0</ele><time>2026-04-19T08:23:20Z</time></trkpt><trkpt lat="45.18509336871167" lon="9.156839792624085"><ele>87.0</ele><time>2026-04-19T08:23:22Z</time></trkpt><trkpt lat="45.18512180261781" lon="9.156711265151039"><ele>87.0</ele><time>2026-04-19T08:23:24Z</time></trkpt><trkpt lat="45.18515366839779" lon="9.156582434033828"><ele>87.19999999999999</ele><time>2026-04-19T08:23:26Z</time></trkpt><trkpt lat="45.18518070494561" lon="9.156454854366192"><ele>87.4</ele><time>2026-04-19T08:23:28Z</time></trkpt><trkpt lat="45.185209029379436" lon="9.156321614593606"><ele>87.6</ele><time>2026-04-19T08:23:30Z</time></trkpt><trkpt lat="45.185222148095924" lon="9.156179619091827"><ele>87.80000000000001</ele><time>2026-04-19T08:23:32Z</time></trkpt><trkpt lat="45.18525252251096" lon="9.156046338910523"><ele>88.0</ele><time>2026-04-19T08:23:34Z</time></trkpt><trkpt lat="45.18528901875149" lon="9.155885800140085"><ele>88.0</ele><time>2026-04-19T08:23:36Z</time></trkpt><trkpt lat="45.185318789057995" lon="9.15573592433212"><ele>88.0</ele><time>2026-04-19T08:23:38Z</time></trkpt><trkpt lat="45.18534439778756" lon="9.155598861296617"><ele>88.0</ele><time>2026-04-19T08:23:40Z</time></trkpt><trkpt lat="45.18538204484832" lon="9.155468940518766"><ele>88.0</ele><time>2026-04-19T08:23:42Z</time></trkpt><trkpt lat="45.185413152229565" lon="9.155357911056582"><ele>88.0</ele><time>2026-04-19T08:23:44Z</time></trkpt><trkpt lat="45.18542231888304" lon="9.155260766303527"><ele>88.0</ele><time>2026-04-19T08:23:46Z</time></trkpt><trkpt lat="45.185372133407306" lon="9.155174031763856"><ele>88.0</ele><time>2026-04-19T08:23:48Z</time></trkpt><trkpt lat="45.18527647447459" lon="9.155179947297269"><ele>88.0</ele><time>2026-04-19T08:23:50Z</time></trkpt><trkpt lat="45.18518578061297" lon="9.155124145912099"><ele>88.0</ele><time>2026-04-19T08:23:52Z</time></trkpt><trkpt lat="45.18511714692593" lon="9.155073348756426"><ele>88.0</ele><time>2026-04-19T08:23:54Z</time></trkpt><trkpt lat="45.185020826768096" lon="9.155034804357584"><ele>88.0</ele><time>2026-04-19T08:23:56Z</time></trkpt><trkpt lat="45.18492987651267" lon="9.154991392978715"><ele>88.0</ele><time>2026-04-19T08:23:58Z</time></trkpt><trkpt lat="45.18484171821367" lon="9.154944241564458"><ele>88.0</ele><time>2026-04-19T08:24:00Z</time></trkpt><trkpt lat="45.1847439905356" lon="9.154908153270766"><ele>88.0</ele><time>2026-04-19T08:24:02Z</time></trkpt><trkpt lat="45.18467013535884" lon="9.154889604847785"><ele>88.0</ele><time>2026-04-19T08:24:04Z</time></trkpt><trkpt lat="45.184606549215346" lon="9.154854580005688"><ele>88.0</ele><time>2026-04-19T08:24:05Z</time></trkpt><trkpt lat="45.18450012360841" lon="9.154796110080673"><ele>87.4</ele><time>2026-04-19T08:24:07Z</time></trkpt><trkpt lat="45.18439340250564" lon="9.154763367506527"><ele>86.80000000000001</ele><time>2026-04-19T08:24:09Z</time></trkpt><trkpt lat="45.18429342409308" lon="9.154713781729031"><ele>86.2</ele><time>2026-04-19T08:24:11Z</time></trkpt><trkpt lat="45.18417644438906" lon="9.154664260057205"><ele>85.6</ele><time>2026-04-19T08:24:13Z</time></trkpt><trkpt lat="45.1841160109409" lon="9.154638454837626"><ele>85.0</ele><time>2026-04-19T08:24:14Z</time></trkpt><trkpt lat="45.183990003241775" lon="9.154589317718887"><ele>84.6</ele><time>2026-04-19T08:24:16Z</time></trkpt><trkpt lat="45.18393014266347" lon="9.154557721277584"><ele>84.2</ele><time>2026-04-19T08:24:17Z</time></trkpt><trkpt lat="45.18386754953022" lon="9.154532343410775"><ele>83.80000000000001</ele><time>2026-04-19T08:24:18Z</time></trkpt><trkpt lat="45.183747543711654" lon="9.15449508118892"><ele>83.4</ele><time>2026-04-19T08:24:20.001Z</time></trkpt><trkpt lat="45.18362272110975" lon="9.154444546489577"><ele>83.0</ele><time>2026-04-19T08:24:22.001Z</time></trkpt><trkpt lat="45.18355689446102" lon="9.154406088162116"><ele>83.0</ele><time>2026-04-19T08:24:23.001Z</time></trkpt><trkpt lat="45.18348700943911" lon="9.154382521916828"><ele>83.0</ele><time>2026-04-19T08:24:24.001Z</time></trkpt><trkpt lat="45.183418267267044" lon="9.15436178999568"><ele>83.0</ele><time>2026-04-19T08:24:25.001Z</time></trkpt><trkpt lat="45.18335168112184" lon="9.154336975199922"><ele>83.0</ele><time>2026-04-19T08:24:26.001Z</time></trkpt><trkpt lat="45.18328431097026" lon="9.154323556031791"><ele>83.0</ele><time>2026-04-19T08:24:27.001Z</time></trkpt><trkpt lat="45.18320589804766" lon="9.154339666624166"><ele>83.0</ele><time>2026-04-19T08:24:28.001Z</time></trkpt><trkpt lat="45.183145271758065" lon="9.154269580888993"><ele>83.0</ele><time>2026-04-19T08:24:29.001Z</time></trkpt><trkpt lat="45.18308259914603" lon="9.15423640481749"><ele>82.0</ele><time>2026-04-19T08:24:30.001Z</time></trkpt><trkpt lat="45.183016263711636" lon="9.154204750640954"><ele>81.0</ele><time>2026-04-19T08:24:31.001Z</time></trkpt><trkpt lat="45.182951840585325" lon="9.154177380084464"><ele>80.0</ele><time>2026-04-19T08:24:32.001Z</time></trkpt><trkpt lat="45.182845334434944" lon="9.154152966365816"><ele>79.0</ele><time>2026-04-19T08:24:34.001Z</time></trkpt><trkpt lat="45.182789781725646" lon="9.154102699794025"><ele>78.0</ele><time>2026-04-19T08:24:35.001Z</time></trkpt><trkpt lat="45.182694118750966" lon="9.154059753404635"><ele>77.0</ele><time>2026-04-19T08:24:37Z</time></trkpt><trkpt lat="45.182586997150416" lon="9.154013555464635"><ele>76.8</ele><time>2026-04-19T08:24:39Z</time></trkpt><trkpt lat="45.18248256068253" lon="9.153962333190837"><ele>76.6</ele><time>2026-04-19T08:24:41Z</time></trkpt><trkpt lat="45.18238523865953" lon="9.153889187503502"><ele>76.39999999999999</ele><time>2026-04-19T08:24:43Z</time></trkpt><trkpt lat="45.18227599082856" lon="9.153820635318326"><ele>76.2</ele><time>2026-04-19T08:24:45Z</time></trkpt><trkpt lat="45.18218532492898" lon="9.15375731376161"><ele>76.0</ele><time>2026-04-19T08:24:47Z</time></trkpt><trkpt lat="45.182099368197555" lon="9.153681424256959"><ele>75.0</ele><time>2026-04-19T08:24:49Z</time></trkpt><trkpt lat="45.18201231477509" lon="9.153603833362897"><ele>74.0</ele><time>2026-04-19T08:24:51Z</time></trkpt><trkpt lat="45.1819172082064" lon="9.15353885197901"><ele>73.0</ele><time>2026-04-19T08:24:53Z</time></trkpt><trkpt lat="45.18183571437913" lon="9.153474579932691"><ele>72.0</ele><time>2026-04-19T08:24:55Z</time></trkpt><trkpt lat="45.18177885351418" lon="9.15341901031206"><ele>71.0</ele><time>2026-04-19T08:24:57Z</time></trkpt><trkpt lat="45.18170752643066" lon="9.153389246512782"><ele>70.0</ele><time>2026-04-19T08:25:01Z</time></trkpt><trkpt lat="45.18163731661213" lon="9.153405267370506"><ele>70.0</ele><time>2026-04-19T08:25:18Z</time></trkpt><trkpt lat="45.18157596223893" lon="9.153451104313719"><ele>70.0</ele><time>2026-04-19T08:25:20Z</time></trkpt><trkpt lat="45.18149934015863" lon="9.153528705165957"><ele>70.0</ele><time>2026-04-19T08:25:22Z</time></trkpt><trkpt lat="45.18142473908506" lon="9.153516418264822"><ele>70.0</ele><time>2026-04-19T08:25:24Z</time></trkpt><trkpt lat="45.18132354216215" lon="9.153461351922113"><ele>70.0</ele><time>2026-04-19T08:25:27Z</time></trkpt><trkpt lat="45.181219342290106" lon="9.153432972324413"><ele>67.83333333333333</ele><time>2026-04-19T08:25:29Z</time></trkpt><trkpt lat="45.18110566278136" lon="9.153375376610898"><ele>65.66666666666666</ele><time>2026-04-19T08:25:31Z</time></trkpt><trkpt lat="45.18104365011686" lon="9.153351014990381"><ele>63.5</ele><time>2026-04-19T08:25:32Z</time></trkpt><trkpt lat="45.18097720408133" lon="9.153324401216002"><ele>61.33333333333333</ele><time>2026-04-19T08:25:33Z</time></trkpt><trkpt lat="45.18091412353871" lon="9.153302504943163"><ele>59.166666666666664</ele><time>2026-04-19T08:25:34Z</time></trkpt><trkpt lat="45.18080309055154" lon="9.153255545636808"><ele>57.0</ele><time>2026-04-19T08:25:36Z</time></trkpt><trkpt lat="45.18070458665421" lon="9.153208806944326"><ele>58.6</ele><time>2026-04-19T08:25:38Z</time></trkpt><trkpt lat="45.18061186864248" lon="9.15316917955024"><ele>60.2</ele><time>2026-04-19T08:25:40Z</time></trkpt><trkpt lat="45.18051647398544" lon="9.153122333801477"><ele>61.8</ele><time>2026-04-19T08:25:42Z</time></trkpt><trkpt lat="45.180413546577604" lon="9.153074031813405"><ele>63.4</ele><time>2026-04-19T08:25:44Z</time></trkpt><trkpt lat="45.18031255055281" lon="9.153030037798175"><ele>65.0</ele><time>2026-04-19T08:25:46Z</time></trkpt><trkpt lat="45.180216763928456" lon="9.152986001400295"><ele>65.0</ele><time>2026-04-19T08:25:48Z</time></trkpt><trkpt lat="45.18012447152807" lon="9.152945628702417"><ele>65.0</ele><time>2026-04-19T08:25:50Z</time></trkpt><trkpt lat="45.18004366993742" lon="9.152914068288071"><ele>65.0</ele><time>2026-04-19T08:25:52Z</time></trkpt><trkpt lat="45.17997501272361" lon="9.152882545819375"><ele>65.0</ele><time>2026-04-19T08:25:54Z</time></trkpt><trkpt lat="45.179899690016164" lon="9.152867454529465"><ele>65.0</ele><time>2026-04-19T08:25:57Z</time></trkpt><trkpt lat="45.17983181263559" lon="9.152955109798985"><ele>65.0</ele><time>2026-04-19T08:25:59Z</time></trkpt><trkpt lat="45.17984566164806" lon="9.153064166097424"><ele>65.00000000000001</ele><time>2026-04-19T08:26:01Z</time></trkpt><trkpt lat="45.17981534985229" lon="9.153146992077959"><ele>65.0</ele><time>2026-04-19T08:26:36.001Z</time></trkpt><trkpt lat="45.17981171718781" lon="9.153030808574366"><ele>65.0</ele><time>2026-04-19T08:38:08Z</time></trkpt><trkpt lat="45.17979267796768" lon="9.152934472590504"><ele>65.0</ele><time>2026-04-19T08:38:12Z</time></trkpt><trkpt lat="45.17984996894339" lon="9.152865807023641"><ele>65.0</ele><time>2026-04-19T08:38:16Z</time></trkpt><trkpt lat="45.17991442690011" lon="9.15293004997459"><ele>65.00000000000001</ele><time>2026-04-19T08:38:19Z</time></trkpt><trkpt lat="45.17997711080741" lon="9.152957464336918"><ele>65.0</ele><time>2026-04-19T08:38:21Z</time></trkpt><trkpt lat="45.18005981324414" lon="9.152984259986487"><ele>65.0</ele><time>2026-04-19T08:38:24Z</time></trkpt><trkpt lat="45.180138065328656" lon="9.153031420359548"><ele>65.0</ele><time>2026-04-19T08:38:27Z</time></trkpt><trkpt lat="45.18022036419361" lon="9.153051768491958"><ele>65.0</ele><time>2026-04-19T08:38:30Z</time></trkpt><trkpt lat="45.18029177059194" lon="9.15308993498776"><ele>65.0</ele><time>2026-04-19T08:38:33Z</time></trkpt><trkpt lat="45.18037331560755" lon="9.153123105688103"><ele>65.0</ele><time>2026-04-19T08:38:36Z</time></trkpt><trkpt lat="45.18043524672823" lon="9.153147671111466"><ele>65.0</ele><time>2026-04-19T08:38:38Z</time></trkpt><trkpt lat="45.18051586459524" lon="9.153181489855188"><ele>64.83333333333334</ele><time>2026-04-19T08:38:40Z</time></trkpt><trkpt lat="45.18058808097236" lon="9.15321123866915"><ele>64.66666666666667</ele><time>2026-04-19T08:38:42Z</time></trkpt><trkpt lat="45.18066150364551" lon="9.153237406413192"><ele>64.5</ele><time>2026-04-19T08:38:44Z</time></trkpt><trkpt lat="45.180734264699495" lon="9.153274699148925"><ele>64.33333333333333</ele><time>2026-04-19T08:38:46Z</time></trkpt><trkpt lat="45.18081827365891" lon="9.153308930546316"><ele>64.16666666666666</ele><time>2026-04-19T08:38:48Z</time></trkpt><trkpt lat="45.18090162376313" lon="9.153336661559925"><ele>64.0</ele><time>2026-04-19T08:38:50Z</time></trkpt><trkpt lat="45.18099469115461" lon="9.153375831732887"><ele>62.83333333333333</ele><time>2026-04-19T08:38:52Z</time></trkpt><trkpt lat="45.18108081905763" lon="9.153419054888206"><ele>61.666666666666664</ele><time>2026-04-19T08:38:54Z</time></trkpt><trkpt lat="45.18117211145047" lon="9.15345700599346"><ele>60.5</ele><time>2026-04-19T08:38:56Z</time></trkpt><trkpt lat="45.181255828430224" lon="9.153482930667426"><ele>59.33333333333333</ele><time>2026-04-19T08:38:58Z</time></trkpt><trkpt lat="45.18133900070669" lon="9.153522767522466"><ele>58.166666666666664</ele><time>2026-04-19T08:39:00Z</time></trkpt><trkpt lat="45.18140424186638" lon="9.153546265611642"><ele>57.0</ele><time>2026-04-19T08:39:02Z</time></trkpt><trkpt lat="45.18148006415288" lon="9.153572426603917"><ele>57.0</ele><time>2026-04-19T08:39:28.999Z</time></trkpt><trkpt lat="45.181534673835294" lon="9.153649427262582"><ele>57.0</ele><time>2026-04-19T08:39:45Z</time></trkpt><trkpt lat="45.18151571745296" lon="9.153767307245204"><ele>57.0</ele><time>2026-04-19T08:39:48Z</time></trkpt><trkpt lat="45.18149116988046" lon="9.153858916612538"><ele>57.0</ele><time>2026-04-19T08:39:50Z</time></trkpt><trkpt lat="45.181463357956204" lon="9.1539549550274"><ele>57.0</ele><time>2026-04-19T08:39:52Z</time></trkpt><trkpt lat="45.18143323573944" lon="9.15406746261366"><ele>57.0</ele><time>2026-04-19T08:39:54Z</time></trkpt><trkpt lat="45.18140001479234" lon="9.15418511854774"><ele>58.400000000000006</ele><time>2026-04-19T08:39:56Z</time></trkpt><trkpt lat="45.181365485991456" lon="9.15427923993572"><ele>59.800000000000004</ele><time>2026-04-19T08:39:57Z</time></trkpt><trkpt lat="45.18131989085292" lon="9.154407144146194"><ele>61.2</ele><time>2026-04-19T08:39:59Z</time></trkpt><trkpt lat="45.18128116556115" lon="9.154540935739112"><ele>62.6</ele><time>2026-04-19T08:40:01Z</time></trkpt><trkpt lat="45.181237247236176" lon="9.154677467868362"><ele>64.0</ele><time>2026-04-19T08:40:03Z</time></trkpt><trkpt lat="45.18118809225989" lon="9.154815898201127"><ele>64.8</ele><time>2026-04-19T08:40:05Z</time></trkpt><trkpt lat="45.18113872238181" lon="9.15495480331828"><ele>65.60000000000001</ele><time>2026-04-19T08:40:07Z</time></trkpt><trkpt lat="45.1810984693753" lon="9.155097135609163"><ele>66.4</ele><time>2026-04-19T08:40:09Z</time></trkpt><trkpt lat="45.18104746594025" lon="9.155240866450693"><ele>67.2</ele><time>2026-04-19T08:40:11Z</time></trkpt><trkpt lat="45.18100129597845" lon="9.15538760468507"><ele>68.0</ele><time>2026-04-19T08:40:13Z</time></trkpt><trkpt lat="45.18095391284046" lon="9.155528504479443"><ele>68.0</ele><time>2026-04-19T08:40:15Z</time></trkpt><trkpt lat="45.18090557265429" lon="9.155661196693858"><ele>68.0</ele><time>2026-04-19T08:40:17Z</time></trkpt><trkpt lat="45.180861650656325" lon="9.15579723501661"><ele>68.0</ele><time>2026-04-19T08:40:19Z</time></trkpt><trkpt lat="45.18081292482123" lon="9.155939782552407"><ele>68.0</ele><time>2026-04-19T08:40:21Z</time></trkpt><trkpt lat="45.18076825927222" lon="9.156088334697634"><ele>68.0</ele><time>2026-04-19T08:40:23Z</time></trkpt><trkpt lat="45.18072082527501" lon="9.156238898181183"><ele>66.0</ele><time>2026-04-19T08:40:25Z</time></trkpt><trkpt lat="45.18067066599374" lon="9.156387154047247"><ele>64.0</ele><time>2026-04-19T08:40:27Z</time></trkpt><trkpt lat="45.18062541574987" lon="9.156534068115414"><ele>62.0</ele><time>2026-04-19T08:40:29Z</time></trkpt><trkpt lat="45.18057674964646" lon="9.15668328816468"><ele>60.0</ele><time>2026-04-19T08:40:31Z</time></trkpt><trkpt lat="45.1805294544364" lon="9.15682424027475"><ele>59.8</ele><time>2026-04-19T08:40:33Z</time></trkpt><trkpt lat="45.18048285040986" lon="9.15696454522552"><ele>59.6</ele><time>2026-04-19T08:40:35Z</time></trkpt><trkpt lat="45.18043577142613" lon="9.157103994370377"><ele>59.400000000000006</ele><time>2026-04-19T08:40:37Z</time></trkpt><trkpt lat="45.18038824929405" lon="9.157246333892598"><ele>59.2</ele><time>2026-04-19T08:40:39Z</time></trkpt><trkpt lat="45.18033725811598" lon="9.157397879477424"><ele>59.0</ele><time>2026-04-19T08:40:41Z</time></trkpt><trkpt lat="45.18028312037533" lon="9.157555637662279"><ele>60.0</ele><time>2026-04-19T08:40:43Z</time></trkpt><trkpt lat="45.18022982109904" lon="9.157712447286244"><ele>61.0</ele><time>2026-04-19T08:40:45Z</time></trkpt><trkpt lat="45.18017951781229" lon="9.157867251827673"><ele>62.0</ele><time>2026-04-19T08:40:47Z</time></trkpt><trkpt lat="45.18012918718184" lon="9.15801918545901"><ele>63.0</ele><time>2026-04-19T08:40:49Z</time></trkpt><trkpt lat="45.18007531990755" lon="9.158166195516797"><ele>64.0</ele><time>2026-04-19T08:40:51Z</time></trkpt><trkpt lat="45.18002013576544" lon="9.158318417697231"><ele>65.0</ele><time>2026-04-19T08:40:53Z</time></trkpt><trkpt lat="45.17996706139245" lon="9.158465333389852"><ele>66.0</ele><time>2026-04-19T08:40:55Z</time></trkpt><trkpt lat="45.17991810987012" lon="9.158609116215748"><ele>67.0</ele><time>2026-04-19T08:40:57Z</time></trkpt><trkpt lat="45.179870128645575" lon="9.158756499588883"><ele>65.6</ele><time>2026-04-19T08:40:59Z</time></trkpt><trkpt lat="45.17982498259852" lon="9.158900827137604"><ele>64.2</ele><time>2026-04-19T08:41:01Z</time></trkpt><trkpt lat="45.179776473295014" lon="9.159052044253544"><ele>62.8</ele><time>2026-04-19T08:41:03Z</time></trkpt><trkpt lat="45.1797309469531" lon="9.159211520238776"><ele>61.4</ele><time>2026-04-19T08:41:05Z</time></trkpt><trkpt lat="45.17970421058201" lon="9.159295641759963"><ele>60.0</ele><time>2026-04-19T08:41:06Z</time></trkpt><trkpt lat="45.17967543148286" lon="9.159379058478162"><ele>59.8</ele><time>2026-04-19T08:41:07Z</time></trkpt><trkpt lat="45.179647090653525" lon="9.159463629043445"><ele>59.6</ele><time>2026-04-19T08:41:08Z</time></trkpt><trkpt lat="45.179619362383534" lon="9.159549377741516"><ele>59.400000000000006</ele><time>2026-04-19T08:41:09Z</time></trkpt><trkpt lat="45.17956866700549" lon="9.15971154868012"><ele>59.2</ele><time>2026-04-19T08:41:11Z</time></trkpt><trkpt lat="45.17951222438795" lon="9.159871220881245"><ele>59.0</ele><time>2026-04-19T08:41:13Z</time></trkpt><trkpt lat="45.17945786189116" lon="9.160030173104802"><ele>59.0</ele><time>2026-04-19T08:41:15Z</time></trkpt><trkpt lat="45.1794072848642" lon="9.160190653678212"><ele>59.0</ele><time>2026-04-19T08:41:17Z</time></trkpt><trkpt lat="45.17935688147038" lon="9.160347997703191"><ele>59.0</ele><time>2026-04-19T08:41:19Z</time></trkpt><trkpt lat="45.17930635124681" lon="9.160504051044178"><ele>59.0</ele><time>2026-04-19T08:41:21Z</time></trkpt><trkpt lat="45.17925802046515" lon="9.16065550203735"><ele>59.5</ele><time>2026-04-19T08:41:23Z</time></trkpt><trkpt lat="45.179204257622345" lon="9.160808073640673"><ele>60.0</ele><time>2026-04-19T08:41:24.999Z</time></trkpt><trkpt lat="45.17915516458396" lon="9.160961714906037"><ele>60.5</ele><time>2026-04-19T08:41:26.999Z</time></trkpt><trkpt lat="45.17910537335408" lon="9.161113678355571"><ele>61.0</ele><time>2026-04-19T08:41:28.999Z</time></trkpt><trkpt lat="45.1790548795806" lon="9.161264700041205"><ele>60.0</ele><time>2026-04-19T08:41:30.999Z</time></trkpt><trkpt lat="45.17900808274133" lon="9.161413435718073"><ele>59.0</ele><time>2026-04-19T08:41:32.999Z</time></trkpt><trkpt lat="45.178958025147516" lon="9.161563871660894"><ele>58.0</ele><time>2026-04-19T08:41:34.999Z</time></trkpt><trkpt lat="45.17890912010809" lon="9.161717916199304"><ele>57.0</ele><time>2026-04-19T08:41:36.999Z</time></trkpt><trkpt lat="45.17885732917109" lon="9.161867715070207"><ele>57.0</ele><time>2026-04-19T08:41:39Z</time></trkpt><trkpt lat="45.17880910767216" lon="9.162012068411821"><ele>57.0</ele><time>2026-04-19T08:41:41Z</time></trkpt><trkpt lat="45.17876368166623" lon="9.162158243215634"><ele>57.0</ele><time>2026-04-19T08:41:43Z</time></trkpt><trkpt lat="45.1787164734964" lon="9.162303335013924"><ele>57.0</ele><time>2026-04-19T08:41:45Z</time></trkpt><trkpt lat="45.17865851157534" lon="9.162449034839401"><ele>57.6</ele><time>2026-04-19T08:41:47Z</time></trkpt><trkpt lat="45.17860631533925" lon="9.162603410275569"><ele>58.2</ele><time>2026-04-19T08:41:49Z</time></trkpt><trkpt lat="45.1785814349119" lon="9.16268773122738"><ele>58.8</ele><time>2026-04-19T08:41:50Z</time></trkpt><trkpt lat="45.17852791125483" lon="9.162845742866063"><ele>59.4</ele><time>2026-04-19T08:41:52Z</time></trkpt><trkpt lat="45.17847667939581" lon="9.163001957899485"><ele>60.0</ele><time>2026-04-19T08:41:54Z</time></trkpt><trkpt lat="45.17842508027055" lon="9.163162065753285"><ele>60.2</ele><time>2026-04-19T08:41:56Z</time></trkpt><trkpt lat="45.17837261918582" lon="9.163319732261943"><ele>60.4</ele><time>2026-04-19T08:41:58Z</time></trkpt><trkpt lat="45.178315734516836" lon="9.163479979694753"><ele>60.599999999999994</ele><time>2026-04-19T08:42:00Z</time></trkpt><trkpt lat="45.17828792151991" lon="9.163560905600969"><ele>60.8</ele><time>2026-04-19T08:42:01Z</time></trkpt><trkpt lat="45.17825963227248" lon="9.163640718639025"><ele>61.0</ele><time>2026-04-19T08:42:02Z</time></trkpt><trkpt lat="45.1782094980546" lon="9.16380045259294"><ele>60.0</ele><time>2026-04-19T08:42:04Z</time></trkpt><trkpt lat="45.178159117975724" lon="9.163959891006742"><ele>59.0</ele><time>2026-04-19T08:42:06Z</time></trkpt><trkpt lat="45.178110961643654" lon="9.164118724378914"><ele>58.0</ele><time>2026-04-19T08:42:08Z</time></trkpt><trkpt lat="45.17805969541132" lon="9.164273485876976"><ele>57.0</ele><time>2026-04-19T08:42:10Z</time></trkpt><trkpt lat="45.17801111241861" lon="9.164420362672798"><ele>57.0</ele><time>2026-04-19T08:42:12Z</time></trkpt><trkpt lat="45.177978219896744" lon="9.164518294974807"><ele>57.0</ele><time>2026-04-19T08:42:14Z</time></trkpt><trkpt lat="45.17794681020178" lon="9.16460410988991"><ele>57.0</ele><time>2026-04-19T08:42:17Z</time></trkpt><trkpt lat="45.17794014928829" lon="9.164701613360043"><ele>57.0</ele><time>2026-04-19T08:42:19Z</time></trkpt><trkpt lat="45.17788925610702" lon="9.16479965578717"><ele>57.0</ele><time>2026-04-19T08:42:21Z</time></trkpt><trkpt lat="45.177843677666274" lon="9.16490850775696"><ele>57.0</ele><time>2026-04-19T08:42:23Z</time></trkpt><trkpt lat="45.17780752202342" lon="9.165027780172135"><ele>57.8</ele><time>2026-04-19T08:42:25Z</time></trkpt><trkpt lat="45.17777191653211" lon="9.1651496653589"><ele>58.6</ele><time>2026-04-19T08:42:27Z</time></trkpt><trkpt lat="45.17773858449282" lon="9.165286430317042"><ele>59.39999999999999</ele><time>2026-04-19T08:42:29Z</time></trkpt><trkpt lat="45.177727422089944" lon="9.165435141147908"><ele>60.199999999999996</ele><time>2026-04-19T08:42:31Z</time></trkpt><trkpt lat="45.1777535984417" lon="9.16557631608915"><ele>61.0</ele><time>2026-04-19T08:42:33Z</time></trkpt><trkpt lat="45.1778161831917" lon="9.165700504727662"><ele>61.199999999999996</ele><time>2026-04-19T08:42:35Z</time></trkpt><trkpt lat="45.177913596823835" lon="9.165792397855881"><ele>61.39999999999999</ele><time>2026-04-19T08:42:37Z</time></trkpt><trkpt lat="45.178029124007" lon="9.165829291373115"><ele>61.6</ele><time>2026-04-19T08:42:39Z</time></trkpt><trkpt lat="45.17814087886103" lon="9.165868678943133"><ele>61.8</ele><time>2026-04-19T08:42:41Z</time></trkpt><trkpt lat="45.17820317820013" lon="9.165884165050404"><ele>62.0</ele><time>2026-04-19T08:42:42Z</time></trkpt><trkpt lat="45.17826836884538" lon="9.165901530548119"><ele>62.28571428571429</ele><time>2026-04-19T08:42:43Z</time></trkpt><trkpt lat="45.17833485967284" lon="9.16592036315944"><ele>62.57142857142858</ele><time>2026-04-19T08:42:44Z</time></trkpt><trkpt lat="45.178397942915524" lon="9.165940343992697"><ele>62.85714285714286</ele><time>2026-04-19T08:42:45Z</time></trkpt><trkpt lat="45.178462108792054" lon="9.16595958057423"><ele>63.14285714285714</ele><time>2026-04-19T08:42:46Z</time></trkpt><trkpt lat="45.178531757244265" lon="9.165975519188057"><ele>63.42857142857142</ele><time>2026-04-19T08:42:47Z</time></trkpt><trkpt lat="45.1785962335485" lon="9.165992742188045"><ele>63.71428571428571</ele><time>2026-04-19T08:42:48Z</time></trkpt><trkpt lat="45.17866157213587" lon="9.166006689934287"><ele>64.0</ele><time>2026-04-19T08:42:49Z</time></trkpt><trkpt lat="45.178725107300686" lon="9.166022538256767"><ele>64.0</ele><time>2026-04-19T08:42:50Z</time></trkpt><trkpt lat="45.17878921667651" lon="9.166036676532261"><ele>64.0</ele><time>2026-04-19T08:42:51Z</time></trkpt><trkpt lat="45.17885164570491" lon="9.16605106674477"><ele>64.0</ele><time>2026-04-19T08:42:52Z</time></trkpt><trkpt lat="45.178974984863835" lon="9.166082466718867"><ele>64.0</ele><time>2026-04-19T08:42:54Z</time></trkpt><trkpt lat="45.17909861368644" lon="9.166118584772196"><ele>64.0</ele><time>2026-04-19T08:42:56Z</time></trkpt><trkpt lat="45.1792180934698" lon="9.166144580301513"><ele>64.75</ele><time>2026-04-19T08:42:58Z</time></trkpt><trkpt lat="45.17933877561693" lon="9.16617322352383"><ele>65.5</ele><time>2026-04-19T08:43:00Z</time></trkpt><trkpt lat="45.17945650897453" lon="9.166203002210791"><ele>66.25</ele><time>2026-04-19T08:43:02Z</time></trkpt><trkpt lat="45.17957083688332" lon="9.166232457423437"><ele>67.0</ele><time>2026-04-19T08:43:04Z</time></trkpt><trkpt lat="45.179685732165325" lon="9.166257855367952"><ele>67.0</ele><time>2026-04-19T08:43:06Z</time></trkpt><trkpt lat="45.17980239978226" lon="9.16629029349118"><ele>67.0</ele><time>2026-04-19T08:43:08Z</time></trkpt><trkpt lat="45.179915732658735" lon="9.166321765172192"><ele>67.0</ele><time>2026-04-19T08:43:10Z</time></trkpt><trkpt lat="45.18003288740682" lon="9.166351730239487"><ele>67.0</ele><time>2026-04-19T08:43:12Z</time></trkpt><trkpt lat="45.18014666018182" lon="9.166375598820121"><ele>67.4</ele><time>2026-04-19T08:43:14Z</time></trkpt><trkpt lat="45.180260190118666" lon="9.166404184189659"><ele>67.80000000000001</ele><time>2026-04-19T08:43:16Z</time></trkpt><trkpt lat="45.180369689172565" lon="9.166433239903908"><ele>68.2</ele><time>2026-04-19T08:43:18Z</time></trkpt><trkpt lat="45.180477675416576" lon="9.16646073513218"><ele>68.60000000000001</ele><time>2026-04-19T08:43:20Z</time></trkpt><trkpt lat="45.18058629784445" lon="9.166485963949214"><ele>69.0</ele><time>2026-04-19T08:43:22Z</time></trkpt><trkpt lat="45.18069395438077" lon="9.166512173269137"><ele>68.83333333333333</ele><time>2026-04-19T08:43:24Z</time></trkpt><trkpt lat="45.180790986996605" lon="9.166538340607673"><ele>68.66666666666667</ele><time>2026-04-19T08:43:26Z</time></trkpt><trkpt lat="45.18087031272885" lon="9.166555960303134"><ele>68.5</ele><time>2026-04-19T08:43:28Z</time></trkpt><trkpt lat="45.18094072401202" lon="9.166579104784496"><ele>68.33333333333334</ele><time>2026-04-19T08:43:30Z</time></trkpt><trkpt lat="45.18102282978979" lon="9.166605275739157"><ele>68.16666666666667</ele><time>2026-04-19T08:43:32Z</time></trkpt><trkpt lat="45.1811164205987" lon="9.166660810604153"><ele>68.0</ele><time>2026-04-19T08:43:34Z</time></trkpt><trkpt lat="45.18121014184733" lon="9.16672497001082"><ele>68.0</ele><time>2026-04-19T08:43:36Z</time></trkpt><trkpt lat="45.18131339564948" lon="9.166681669046344"><ele>68.0</ele><time>2026-04-19T08:43:38Z</time></trkpt><trkpt lat="45.1814023489966" lon="9.166575264741931"><ele>68.0</ele><time>2026-04-19T08:43:40Z</time></trkpt><trkpt lat="45.18148213222682" lon="9.166458983459519"><ele>68.0</ele><time>2026-04-19T08:43:42Z</time></trkpt><trkpt lat="45.18158630406287" lon="9.166378797388496"><ele>69.0</ele><time>2026-04-19T08:43:44Z</time></trkpt><trkpt lat="45.181697782780866" lon="9.166311567446659"><ele>70.0</ele><time>2026-04-19T08:43:46Z</time></trkpt><trkpt lat="45.18180941818873" lon="9.166246838953674"><ele>71.0</ele><time>2026-04-19T08:43:48Z</time></trkpt><trkpt lat="45.18192026979493" lon="9.16617597870907"><ele>72.0</ele><time>2026-04-19T08:43:50Z</time></trkpt><trkpt lat="45.182031386230065" lon="9.166111012044547"><ele>72.0</ele><time>2026-04-19T08:43:52Z</time></trkpt><trkpt lat="45.182134061306755" lon="9.166042253934496"><ele>72.0</ele><time>2026-04-19T08:43:54Z</time></trkpt><trkpt lat="45.18224008205162" lon="9.165980043823145"><ele>72.0</ele><time>2026-04-19T08:43:56Z</time></trkpt><trkpt lat="45.182346267260435" lon="9.165919701379574"><ele>72.0</ele><time>2026-04-19T08:43:58Z</time></trkpt><trkpt lat="45.18245105794016" lon="9.16586230188008"><ele>71.5</ele><time>2026-04-19T08:44:00Z</time></trkpt><trkpt lat="45.18255186439596" lon="9.165799073060779"><ele>71.0</ele><time>2026-04-19T08:44:02Z</time></trkpt><trkpt lat="45.182661992493486" lon="9.165731980109276"><ele>70.5</ele><time>2026-04-19T08:44:04Z</time></trkpt><trkpt lat="45.18277843903137" lon="9.165669918300669"><ele>70.0</ele><time>2026-04-19T08:44:06Z</time></trkpt><trkpt lat="45.18289039765428" lon="9.16561053505474"><ele>70.0</ele><time>2026-04-19T08:44:08Z</time></trkpt><trkpt lat="45.183000498551735" lon="9.165545133099652"><ele>70.0</ele><time>2026-04-19T08:44:10Z</time></trkpt><trkpt lat="45.18310705886811" lon="9.165483527497875"><ele>70.0</ele><time>2026-04-19T08:44:12Z</time></trkpt><trkpt lat="45.18321206533866" lon="9.165425994055216"><ele>70.0</ele><time>2026-04-19T08:44:14Z</time></trkpt><trkpt lat="45.18331666190913" lon="9.165364209979185"><ele>70.5</ele><time>2026-04-19T08:44:16Z</time></trkpt><trkpt lat="45.18342542424934" lon="9.165306644198234"><ele>71.0</ele><time>2026-04-19T08:44:18Z</time></trkpt><trkpt lat="45.1835305172108" lon="9.165245307992969"><ele>71.5</ele><time>2026-04-19T08:44:20Z</time></trkpt><trkpt lat="45.18363477333516" lon="9.165186804277962"><ele>72.0</ele><time>2026-04-19T08:44:22Z</time></trkpt><trkpt lat="45.18374185811129" lon="9.165132193473477"><ele>72.0</ele><time>2026-04-19T08:44:24Z</time></trkpt><trkpt lat="45.183854086867086" lon="9.165071354616083"><ele>72.0</ele><time>2026-04-19T08:44:26Z</time></trkpt><trkpt lat="45.18396675582403" lon="9.165009558885217"><ele>72.0</ele><time>2026-04-19T08:44:28Z</time></trkpt><trkpt lat="45.18407941880402" lon="9.164945743369076"><ele>72.0</ele><time>2026-04-19T08:44:30Z</time></trkpt><trkpt lat="45.18419643306333" lon="9.164885274113535"><ele>72.5</ele><time>2026-04-19T08:44:32Z</time></trkpt><trkpt lat="45.184309409525156" lon="9.164814704390851"><ele>73.0</ele><time>2026-04-19T08:44:34Z</time></trkpt><trkpt lat="45.1844235579703" lon="9.164755541419625"><ele>73.5</ele><time>2026-04-19T08:44:36Z</time></trkpt><trkpt lat="45.18453231333338" lon="9.164689067935731"><ele>74.0</ele><time>2026-04-19T08:44:38Z</time></trkpt><trkpt lat="45.184641562296726" lon="9.164620516445446"><ele>74.0</ele><time>2026-04-19T08:44:40Z</time></trkpt><trkpt lat="45.18475014884356" lon="9.164555162539582"><ele>74.0</ele><time>2026-04-19T08:44:42Z</time></trkpt><trkpt lat="45.184862415817456" lon="9.16451240883491"><ele>74.0</ele><time>2026-04-19T08:44:44Z</time></trkpt><trkpt lat="45.184973146984326" lon="9.164478396379845"><ele>74.0</ele><time>2026-04-19T08:44:46Z</time></trkpt><trkpt lat="45.18507598568306" lon="9.164423832129463"><ele>74.60000000000001</ele><time>2026-04-19T08:44:48Z</time></trkpt><trkpt lat="45.18517762344611" lon="9.164395137584643"><ele>75.2</ele><time>2026-04-19T08:44:50Z</time></trkpt><trkpt lat="45.185261396422916" lon="9.164338883968847"><ele>75.80000000000001</ele><time>2026-04-19T08:44:52Z</time></trkpt><trkpt lat="45.18535914061559" lon="9.164290453226581"><ele>76.4</ele><time>2026-04-19T08:44:54Z</time></trkpt><trkpt lat="45.185452057866456" lon="9.16425862391791"><ele>77.0</ele><time>2026-04-19T08:44:56Z</time></trkpt><trkpt lat="45.18554484584431" lon="9.16418853481222"><ele>77.0</ele><time>2026-04-19T08:44:58Z</time></trkpt><trkpt lat="45.18564051883909" lon="9.164155868357039"><ele>77.0</ele><time>2026-04-19T08:45:00Z</time></trkpt><trkpt lat="45.185732859077376" lon="9.164111875800662"><ele>77.0</ele><time>2026-04-19T08:45:02Z</time></trkpt><trkpt lat="45.18582762526659" lon="9.164061309358784"><ele>77.0</ele><time>2026-04-19T08:45:04Z</time></trkpt><trkpt lat="45.18592317827516" lon="9.164015420731932"><ele>77.0</ele><time>2026-04-19T08:45:06Z</time></trkpt><trkpt lat="45.18601624036797" lon="9.163966770347109"><ele>77.0</ele><time>2026-04-19T08:45:08Z</time></trkpt><trkpt lat="45.1861203451842" lon="9.16392227908313"><ele>77.0</ele><time>2026-04-19T08:45:10Z</time></trkpt><trkpt lat="45.1862161230207" lon="9.163871098891711"><ele>77.0</ele><time>2026-04-19T08:45:12Z</time></trkpt><trkpt lat="45.18631924375441" lon="9.163823580572195"><ele>77.0</ele><time>2026-04-19T08:45:14Z</time></trkpt><trkpt lat="45.186417114034974" lon="9.163765779617737"><ele>77.0</ele><time>2026-04-19T08:45:16Z</time></trkpt><trkpt lat="45.18651393352818" lon="9.163720597826325"><ele>77.0</ele><time>2026-04-19T08:45:18Z</time></trkpt><trkpt lat="45.186616636484565" lon="9.16367214767889"><ele>77.0</ele><time>2026-04-19T08:45:20Z</time></trkpt><trkpt lat="45.18672060061686" lon="9.163620256618284"><ele>77.0</ele><time>2026-04-19T08:45:22Z</time></trkpt><trkpt lat="45.18682618219907" lon="9.163573551442095"><ele>77.0</ele><time>2026-04-19T08:45:24Z</time></trkpt><trkpt lat="45.18693105065816" lon="9.163530714928543"><ele>77.0</ele><time>2026-04-19T08:45:26Z</time></trkpt><trkpt lat="45.187024455693404" lon="9.163475197455918"><ele>77.0</ele><time>2026-04-19T08:45:28Z</time></trkpt><trkpt lat="45.187114046776024" lon="9.16342685686698"><ele>77.0</ele><time>2026-04-19T08:45:30Z</time></trkpt><trkpt lat="45.18721097251509" lon="9.163386036600308"><ele>77.0</ele><time>2026-04-19T08:45:32Z</time></trkpt><trkpt lat="45.18730568983479" lon="9.16332846813065"><ele>77.0</ele><time>2026-04-19T08:45:34Z</time></trkpt><trkpt lat="45.18740196255725" lon="9.163279472908672"><ele>77.0</ele><time>2026-04-19T08:45:36Z</time></trkpt><trkpt lat="45.187504157947515" lon="9.16324204938791"><ele>77.6</ele><time>2026-04-19T08:45:38Z</time></trkpt><trkpt lat="45.18759360951834" lon="9.163196882633136"><ele>78.2</ele><time>2026-04-19T08:45:40Z</time></trkpt><trkpt lat="45.18769233661066" lon="9.1631553826221"><ele>78.8</ele><time>2026-04-19T08:45:42Z</time></trkpt><trkpt lat="45.187791106143614" lon="9.163113627164593"><ele>79.4</ele><time>2026-04-19T08:45:44Z</time></trkpt><trkpt lat="45.18788125007239" lon="9.163058154641273"><ele>80.0</ele><time>2026-04-19T08:45:46Z</time></trkpt><trkpt lat="45.18797412778825" lon="9.163014152948465"><ele>80.0</ele><time>2026-04-19T08:45:48Z</time></trkpt><trkpt lat="45.18807106544876" lon="9.162965044642279"><ele>80.0</ele><time>2026-04-19T08:45:50Z</time></trkpt><trkpt lat="45.18816331394066" lon="9.162924411075505"><ele>80.0</ele><time>2026-04-19T08:45:52Z</time></trkpt><trkpt lat="45.18825943537922" lon="9.162877980442088"><ele>80.0</ele><time>2026-04-19T08:45:54Z</time></trkpt><trkpt lat="45.18835668800861" lon="9.162815633994516"><ele>80.0</ele><time>2026-04-19T08:45:56Z</time></trkpt><trkpt lat="45.188457918895445" lon="9.162778434598797"><ele>80.6</ele><time>2026-04-19T08:45:58Z</time></trkpt><trkpt lat="45.18855607418917" lon="9.16273100143836"><ele>81.2</ele><time>2026-04-19T08:46:00Z</time></trkpt><trkpt lat="45.18864975264207" lon="9.162675897895257"><ele>81.80000000000001</ele><time>2026-04-19T08:46:02Z</time></trkpt><trkpt lat="45.188744524169294" lon="9.162631612596561"><ele>82.4</ele><time>2026-04-19T08:46:04Z</time></trkpt><trkpt lat="45.18883682110952" lon="9.162594741904298"><ele>83.0</ele><time>2026-04-19T08:46:06Z</time></trkpt><trkpt lat="45.18891752531948" lon="9.162512605987779"><ele>83.0</ele><time>2026-04-19T08:46:08Z</time></trkpt><trkpt lat="45.1889916776508" lon="9.162417178804734"><ele>83.0</ele><time>2026-04-19T08:46:10Z</time></trkpt><trkpt lat="45.18908981613509" lon="9.162379876099964"><ele>83.0</ele><time>2026-04-19T08:46:12Z</time></trkpt><trkpt lat="45.189185665258556" lon="9.162344646309155"><ele>83.0</ele><time>2026-04-19T08:46:14Z</time></trkpt><trkpt lat="45.189275163038126" lon="9.162342318261791"><ele>83.0</ele><time>2026-04-19T08:46:16Z</time></trkpt><trkpt lat="45.189359938778075" lon="9.162386927763984"><ele>82.80000000000001</ele><time>2026-04-19T08:46:18Z</time></trkpt><trkpt lat="45.18944256050317" lon="9.162457851614207"><ele>82.6</ele><time>2026-04-19T08:46:20Z</time></trkpt><trkpt lat="45.18954332278683" lon="9.16249179841675"><ele>82.4</ele><time>2026-04-19T08:46:22Z</time></trkpt><trkpt lat="45.18964578661983" lon="9.162519147034205"><ele>82.19999999999999</ele><time>2026-04-19T08:46:24Z</time></trkpt><trkpt lat="45.189752483239914" lon="9.162507314477866"><ele>82.0</ele><time>2026-04-19T08:46:26Z</time></trkpt><trkpt lat="45.18984570033178" lon="9.162433704069613"><ele>81.83333333333333</ele><time>2026-04-19T08:46:28Z</time></trkpt><trkpt lat="45.18993233651967" lon="9.16235801678935"><ele>81.66666666666666</ele><time>2026-04-19T08:46:30Z</time></trkpt><trkpt lat="45.18998839453376" lon="9.16228680785481"><ele>81.5</ele><time>2026-04-19T08:46:32Z</time></trkpt><trkpt lat="45.19003423183707" lon="9.16220519891484"><ele>81.33333333333333</ele><time>2026-04-19T08:46:35Z</time></trkpt><trkpt lat="45.190086739894376" lon="9.162091087789028"><ele>81.16666666666667</ele><time>2026-04-19T08:47:30Z</time></trkpt><trkpt lat="45.190134327956116" lon="9.161992582418016"><ele>81.0</ele><time>2026-04-19T08:47:32Z</time></trkpt><trkpt lat="45.19018426458657" lon="9.16187644284227"><ele>81.0</ele><time>2026-04-19T08:47:34Z</time></trkpt><trkpt lat="45.19024458839761" lon="9.16175509138022"><ele>81.0</ele><time>2026-04-19T08:47:36Z</time></trkpt><trkpt lat="45.19029207258098" lon="9.161632511302853"><ele>81.0</ele><time>2026-04-19T08:47:38.001Z</time></trkpt><trkpt lat="45.19034917666684" lon="9.161510163785913"><ele>81.0</ele><time>2026-04-19T08:47:40.001Z</time></trkpt><trkpt lat="45.19040569164939" lon="9.161387736076486"><ele>81.0</ele><time>2026-04-19T08:47:42Z</time></trkpt><trkpt lat="45.19046334907137" lon="9.161260455942944"><ele>81.0</ele><time>2026-04-19T08:47:44Z</time></trkpt><trkpt lat="45.19051940848607" lon="9.161117670840039"><ele>81.0</ele><time>2026-04-19T08:47:46Z</time></trkpt><trkpt lat="45.190587135883575" lon="9.160974028472307"><ele>81.0</ele><time>2026-04-19T08:47:48Z</time></trkpt><trkpt lat="45.19063471155383" lon="9.160910092484364"><ele>81.0</ele><time>2026-04-19T08:47:49Z</time></trkpt><trkpt lat="45.19065597658116" lon="9.160821019446358"><ele>81.0</ele><time>2026-04-19T08:47:50Z</time></trkpt><trkpt lat="45.190730166758634" lon="9.160677112730243"><ele>81.0</ele><time>2026-04-19T08:47:52Z</time></trkpt><trkpt lat="45.19076165016317" lon="9.160594904901188"><ele>81.0</ele><time>2026-04-19T08:47:53Z</time></trkpt><trkpt lat="45.1907973944471" lon="9.160515070813657"><ele>81.0</ele><time>2026-04-19T08:47:54Z</time></trkpt><trkpt lat="45.190831950560394" lon="9.160439139343573"><ele>81.0</ele><time>2026-04-19T08:47:55Z</time></trkpt><trkpt lat="45.19090370246688" lon="9.160288089832466"><ele>81.0</ele><time>2026-04-19T08:47:57Z</time></trkpt><trkpt lat="45.19094181688125" lon="9.160206161661808"><ele>81.0</ele><time>2026-04-19T08:47:58Z</time></trkpt><trkpt lat="45.1909921138717" lon="9.160066049196159"><ele>81.0</ele><time>2026-04-19T08:48:00Z</time></trkpt><trkpt lat="45.19103747266448" lon="9.159988366175615"><ele>81.0</ele><time>2026-04-19T08:48:01Z</time></trkpt><trkpt lat="45.19106963837082" lon="9.15991086722206"><ele>81.0</ele><time>2026-04-19T08:48:02Z</time></trkpt><trkpt lat="45.19114813612054" lon="9.159778007701679"><ele>81.0</ele><time>2026-04-19T08:48:04Z</time></trkpt><trkpt lat="45.19117870321677" lon="9.15968314413948"><ele>81.0</ele><time>2026-04-19T08:48:05Z</time></trkpt><trkpt lat="45.19121684208768" lon="9.159607191027566"><ele>81.0</ele><time>2026-04-19T08:48:06Z</time></trkpt><trkpt lat="45.19125305462337" lon="9.159526812064971"><ele>81.66666666666667</ele><time>2026-04-19T08:48:07Z</time></trkpt><trkpt lat="45.19128688283366" lon="9.159450220301634"><ele>82.33333333333333</ele><time>2026-04-19T08:48:08Z</time></trkpt><trkpt lat="45.1913560624132" lon="9.159297768909004"><ele>83.0</ele><time>2026-04-19T08:48:10Z</time></trkpt><trkpt lat="45.19139299114851" lon="9.15922173649844"><ele>83.66666666666666</ele><time>2026-04-19T08:48:11Z</time></trkpt><trkpt lat="45.191425562738" lon="9.159142582946332"><ele>84.33333333333333</ele><time>2026-04-19T08:48:12Z</time></trkpt><trkpt lat="45.191462546645354" lon="9.15906596841718"><ele>85.0</ele><time>2026-04-19T08:48:13Z</time></trkpt><trkpt lat="45.191500121797745" lon="9.158988177239522"><ele>84.5</ele><time>2026-04-19T08:48:14Z</time></trkpt><trkpt lat="45.1915307057675" lon="9.15890893246315"><ele>84.0</ele><time>2026-04-19T08:48:15Z</time></trkpt><trkpt lat="45.19156625223216" lon="9.158829824103254"><ele>83.5</ele><time>2026-04-19T08:48:16Z</time></trkpt><trkpt lat="45.19160378028942" lon="9.158751832489454"><ele>83.0</ele><time>2026-04-19T08:48:17Z</time></trkpt><trkpt lat="45.191674019973384" lon="9.158602699353725"><ele>82.5</ele><time>2026-04-19T08:48:19Z</time></trkpt><trkpt lat="45.191709297547355" lon="9.158521246047599"><ele>82.0</ele><time>2026-04-19T08:48:20Z</time></trkpt><trkpt lat="45.19174784156375" lon="9.158447776693064"><ele>82.0</ele><time>2026-04-19T08:48:21Z</time></trkpt><trkpt lat="45.19178028519561" lon="9.158371081283162"><ele>82.0</ele><time>2026-04-19T08:48:22Z</time></trkpt><trkpt lat="45.19184775596351" lon="9.158222828551768"><ele>82.0</ele><time>2026-04-19T08:48:24Z</time></trkpt><trkpt lat="45.19188713657676" lon="9.158148635533387"><ele>82.0</ele><time>2026-04-19T08:48:25Z</time></trkpt><trkpt lat="45.19195703660855" lon="9.15800111190369"><ele>82.0</ele><time>2026-04-19T08:48:27Z</time></trkpt><trkpt lat="45.19202356197304" lon="9.157852942573331"><ele>82.19999999999999</ele><time>2026-04-19T08:48:29Z</time></trkpt><trkpt lat="45.19208954059007" lon="9.157707504160694"><ele>82.4</ele><time>2026-04-19T08:48:31Z</time></trkpt><trkpt lat="45.19212569763991" lon="9.157633293739481"><ele>82.6</ele><time>2026-04-19T08:48:32Z</time></trkpt><trkpt lat="45.19216210399608" lon="9.157556957569625"><ele>82.80000000000001</ele><time>2026-04-19T08:48:33Z</time></trkpt><trkpt lat="45.19223869074538" lon="9.157418822173714"><ele>83.0</ele><time>2026-04-19T08:48:35Z</time></trkpt><trkpt lat="45.19232683366763" lon="9.157300079770224"><ele>82.25</ele><time>2026-04-19T08:48:37Z</time></trkpt><trkpt lat="45.1924137422317" lon="9.157186175945002"><ele>81.5</ele><time>2026-04-19T08:48:39Z</time></trkpt><trkpt lat="45.192521977579304" lon="9.157128720213283"><ele>80.75</ele><time>2026-04-19T08:48:41Z</time></trkpt><trkpt lat="45.19264349540162" lon="9.157100675562395"><ele>80.0</ele><time>2026-04-19T08:48:43Z</time></trkpt><trkpt lat="45.192766514299436" lon="9.157106771521812"><ele>80.0</ele><time>2026-04-19T08:48:45Z</time></trkpt><trkpt lat="45.19288157118256" lon="9.157130492671373"><ele>80.0</ele><time>2026-04-19T08:48:47Z</time></trkpt><trkpt lat="45.19294358185154" lon="9.157110112767024"><ele>80.0</ele><time>2026-04-19T08:48:49Z</time></trkpt><trkpt lat="45.19298135442316" lon="9.15703287991711"><ele>80.0</ele><time>2026-04-19T08:48:52Z</time></trkpt><trkpt lat="45.1930515566309" lon="9.157016107615227"><ele>80.0</ele><time>2026-04-19T08:48:54Z</time></trkpt><trkpt lat="45.19313547190914" lon="9.15702758971057"><ele>80.0</ele><time>2026-04-19T08:48:56Z</time></trkpt><trkpt lat="45.193230097044435" lon="9.157023277244889"><ele>80.2</ele><time>2026-04-19T08:48:58Z</time></trkpt><trkpt lat="45.19333029308148" lon="9.157048866546114"><ele>80.4</ele><time>2026-04-19T08:49:00Z</time></trkpt><trkpt lat="45.19342939433395" lon="9.157068423769227"><ele>80.6</ele><time>2026-04-19T08:49:02Z</time></trkpt><trkpt lat="45.193537378926706" lon="9.157091997968877"><ele>80.8</ele><time>2026-04-19T08:49:04Z</time></trkpt><trkpt lat="45.19364767239593" lon="9.157118494031172"><ele>81.0</ele><time>2026-04-19T08:49:06Z</time></trkpt><trkpt lat="45.19376181215892" lon="9.157142688342352"><ele>81.0</ele><time>2026-04-19T08:49:08Z</time></trkpt><trkpt lat="45.19387452069679" lon="9.15716138888531"><ele>81.0</ele><time>2026-04-19T08:49:10Z</time></trkpt><trkpt lat="45.193955653023025" lon="9.157173716696539"><ele>81.0</ele><time>2026-04-19T08:49:12Z</time></trkpt><trkpt lat="45.194038832142624" lon="9.157203515759853"><ele>81.0</ele><time>2026-04-19T08:49:14Z</time></trkpt><trkpt lat="45.194116661130515" lon="9.157216334256324"><ele>81.0</ele><time>2026-04-19T08:49:16Z</time></trkpt><trkpt lat="45.19420441258413" lon="9.157232124790479"><ele>81.0</ele><time>2026-04-19T08:49:18Z</time></trkpt><trkpt lat="45.19429773393849" lon="9.157249090802587"><ele>80.8</ele><time>2026-04-19T08:49:20Z</time></trkpt><trkpt lat="45.194380141788734" lon="9.157271316123955"><ele>80.6</ele><time>2026-04-19T08:49:22Z</time></trkpt><trkpt lat="45.194470021802886" lon="9.157285549478404"><ele>80.4</ele><time>2026-04-19T08:49:24Z</time></trkpt><trkpt lat="45.19456328403093" lon="9.1572949136882"><ele>80.2</ele><time>2026-04-19T08:49:26Z</time></trkpt><trkpt lat="45.19466138022309" lon="9.15731408637609"><ele>80.0</ele><time>2026-04-19T08:49:28Z</time></trkpt><trkpt lat="45.19475837862342" lon="9.157335936243017"><ele>80.0</ele><time>2026-04-19T08:49:30Z</time></trkpt><trkpt lat="45.194858712216785" lon="9.157352138173298"><ele>80.0</ele><time>2026-04-19T08:49:32Z</time></trkpt><trkpt lat="45.194955065048696" lon="9.157381600012311"><ele>80.0</ele><time>2026-04-19T08:49:34Z</time></trkpt><trkpt lat="45.195062975290625" lon="9.157391716693812"><ele>80.0</ele><time>2026-04-19T08:49:36Z</time></trkpt><trkpt lat="45.1951708372731" lon="9.157416725520093"><ele>80.0</ele><time>2026-04-19T08:49:38Z</time></trkpt><trkpt lat="45.19528356916199" lon="9.157444209375821"><ele>80.5</ele><time>2026-04-19T08:49:40Z</time></trkpt><trkpt lat="45.19539715463182" lon="9.157467143706388"><ele>81.0</ele><time>2026-04-19T08:49:42Z</time></trkpt><trkpt lat="45.195512309643426" lon="9.157496905994266"><ele>81.5</ele><time>2026-04-19T08:49:44Z</time></trkpt><trkpt lat="45.19562798820021" lon="9.157517769196893"><ele>82.0</ele><time>2026-04-19T08:49:46Z</time></trkpt><trkpt lat="45.19574541483771" lon="9.157540607808635"><ele>82.5</ele><time>2026-04-19T08:49:48Z</time></trkpt><trkpt lat="45.19586420430605" lon="9.157554682925111"><ele>83.0</ele><time>2026-04-19T08:49:50Z</time></trkpt><trkpt lat="45.19598071535739" lon="9.15758787086559"><ele>83.5</ele><time>2026-04-19T08:49:52Z</time></trkpt><trkpt lat="45.19609675469027" lon="9.157604463305422"><ele>84.0</ele><time>2026-04-19T08:49:54Z</time></trkpt><trkpt lat="45.19621335989369" lon="9.157630591633914"><ele>84.0</ele><time>2026-04-19T08:49:56Z</time></trkpt><trkpt lat="45.19632022981418" lon="9.157658272744216"><ele>84.0</ele><time>2026-04-19T08:49:58Z</time></trkpt><trkpt lat="45.196426499812965" lon="9.157676722896024"><ele>84.0</ele><time>2026-04-19T08:50:00Z</time></trkpt><trkpt lat="45.19652727030355" lon="9.157697822409736"><ele>84.0</ele><time>2026-04-19T08:50:02Z</time></trkpt><trkpt lat="45.196632134037095" lon="9.15771208038715"><ele>84.0</ele><time>2026-04-19T08:50:04Z</time></trkpt><trkpt lat="45.19673073493083" lon="9.157731046555485"><ele>83.66666666666667</ele><time>2026-04-19T08:50:06Z</time></trkpt><trkpt lat="45.19680993493803" lon="9.157757730369845"><ele>83.33333333333333</ele><time>2026-04-19T08:50:08Z</time></trkpt><trkpt lat="45.196881375716515" lon="9.157780390211881"><ele>83.0</ele><time>2026-04-19T08:50:10Z</time></trkpt><trkpt lat="45.19697182328211" lon="9.157782736011468"><ele>82.66666666666666</ele><time>2026-04-19T08:50:12Z</time></trkpt><trkpt lat="45.19706209619642" lon="9.15778390025434"><ele>82.33333333333333</ele><time>2026-04-19T08:50:14Z</time></trkpt><trkpt lat="45.19714675468801" lon="9.157772496100502"><ele>82.0</ele><time>2026-04-19T08:50:16Z</time></trkpt><trkpt lat="45.19721748122795" lon="9.157758510523923"><ele>82.0</ele><time>2026-04-19T08:50:18Z</time></trkpt><trkpt lat="45.19728902411011" lon="9.157809974004012"><ele>82.0</ele><time>2026-04-19T08:50:20Z</time></trkpt><trkpt lat="45.19737884882184" lon="9.157787373350827"><ele>82.0</ele><time>2026-04-19T08:50:22Z</time></trkpt><trkpt lat="45.1974409264377" lon="9.157759878329793"><ele>82.0</ele><time>2026-04-19T08:50:24Z</time></trkpt><trkpt lat="45.19748891320015" lon="9.157842986986594"><ele>82.0</ele><time>2026-04-19T08:50:27Z</time></trkpt><trkpt lat="45.19750123227085" lon="9.157935445489677"><ele>82.0</ele><time>2026-04-19T08:50:29Z</time></trkpt><trkpt lat="45.19754010925783" lon="9.158022383919718"><ele>81.66666666666666</ele><time>2026-04-19T08:50:32Z</time></trkpt><trkpt lat="45.19760648888981" lon="9.157979279988455"><ele>81.33333333333333</ele><time>2026-04-19T08:50:34Z</time></trkpt><trkpt lat="45.19767897506209" lon="9.157907745093397"><ele>81.0</ele><time>2026-04-19T08:50:37Z</time></trkpt><trkpt lat="45.19775996440615" lon="9.157883216648246"><ele>80.66666666666667</ele><time>2026-04-19T08:50:40Z</time></trkpt><trkpt lat="45.197845211850286" lon="9.157829218266363"><ele>80.33333333333334</ele><time>2026-04-19T08:50:43Z</time></trkpt><trkpt lat="45.19791641823409" lon="9.157786537399943"><ele>80.0</ele><time>2026-04-19T08:50:45Z</time></trkpt><trkpt lat="45.19799014482909" lon="9.157743600603306"><ele>80.0</ele><time>2026-04-19T08:50:47Z</time></trkpt><trkpt lat="45.198077825432875" lon="9.15770284694943"><ele>80.0</ele><time>2026-04-19T08:50:49Z</time></trkpt><trkpt lat="45.19816699630945" lon="9.157661112089816"><ele>80.0</ele><time>2026-04-19T08:50:51Z</time></trkpt><trkpt lat="45.19825508411925" lon="9.157612620830067"><ele>80.0</ele><time>2026-04-19T08:50:53Z</time></trkpt><trkpt lat="45.19833777037976" lon="9.15756513566239"><ele>80.0</ele><time>2026-04-19T08:50:55Z</time></trkpt><trkpt lat="45.19842616852812" lon="9.157526532376927"><ele>80.6</ele><time>2026-04-19T08:50:57Z</time></trkpt><trkpt lat="45.19851758192543" lon="9.157480790435644"><ele>81.2</ele><time>2026-04-19T08:50:59Z</time></trkpt><trkpt lat="45.198612265846634" lon="9.157427278049937"><ele>81.80000000000001</ele><time>2026-04-19T08:51:01Z</time></trkpt><trkpt lat="45.19870796134106" lon="9.157369250863626"><ele>82.4</ele><time>2026-04-19T08:51:03Z</time></trkpt><trkpt lat="45.19880475078858" lon="9.15731770788042"><ele>83.0</ele><time>2026-04-19T08:51:05Z</time></trkpt><trkpt lat="45.19890602168665" lon="9.157260087372435"><ele>82.80000000000001</ele><time>2026-04-19T08:51:07Z</time></trkpt><trkpt lat="45.199007117817644" lon="9.157207125894791"><ele>82.6</ele><time>2026-04-19T08:51:09Z</time></trkpt><trkpt lat="45.199106839923985" lon="9.15714571457604"><ele>82.4</ele><time>2026-04-19T08:51:11Z</time></trkpt><trkpt lat="45.19919883126233" lon="9.15707297182889"><ele>82.19999999999999</ele><time>2026-04-19T08:51:13Z</time></trkpt><trkpt lat="45.1992907174893" lon="9.156999884534885"><ele>82.0</ele><time>2026-04-19T08:51:15Z</time></trkpt><trkpt lat="45.19938365829789" lon="9.15691836848133"><ele>82.0</ele><time>2026-04-19T08:51:17Z</time></trkpt><trkpt lat="45.1994734678473" lon="9.156832371677332"><ele>82.0</ele><time>2026-04-19T08:51:19Z</time></trkpt><trkpt lat="45.19955808274265" lon="9.156738539864287"><ele>82.0</ele><time>2026-04-19T08:51:21Z</time></trkpt><trkpt lat="45.19965579690779" lon="9.156651011214475"><ele>82.0</ele><time>2026-04-19T08:51:23Z</time></trkpt><trkpt lat="45.19974583335569" lon="9.156545948419058"><ele>82.0</ele><time>2026-04-19T08:51:25Z</time></trkpt><trkpt lat="45.19984682455008" lon="9.156451742041178"><ele>81.75</ele><time>2026-04-19T08:51:27Z</time></trkpt><trkpt lat="45.1999448091229" lon="9.15635088698546"><ele>81.5</ele><time>2026-04-19T08:51:29Z</time></trkpt><trkpt lat="45.20004381060957" lon="9.156253284658105"><ele>81.25</ele><time>2026-04-19T08:51:31Z</time></trkpt><trkpt lat="45.20014414449159" lon="9.15615368561121"><ele>81.0</ele><time>2026-04-19T08:51:33Z</time></trkpt><trkpt lat="45.200240586966274" lon="9.156052314564361"><ele>81.0</ele><time>2026-04-19T08:51:35Z</time></trkpt><trkpt lat="45.20033594542343" lon="9.15595756871447"><ele>81.0</ele><time>2026-04-19T08:51:37Z</time></trkpt><trkpt lat="45.20038809063611" lon="9.155907294995078"><ele>81.0</ele><time>2026-04-19T08:51:38Z</time></trkpt><trkpt lat="45.20048471272597" lon="9.155809540765885"><ele>81.0</ele><time>2026-04-19T08:51:40Z</time></trkpt><trkpt lat="45.20058040615094" lon="9.155714700252995"><ele>81.0</ele><time>2026-04-19T08:51:42Z</time></trkpt><trkpt lat="45.200673776451104" lon="9.155611587151203"><ele>81.4</ele><time>2026-04-19T08:51:44Z</time></trkpt><trkpt lat="45.200727250018716" lon="9.15556443389339"><ele>81.8</ele><time>2026-04-19T08:51:45Z</time></trkpt><trkpt lat="45.200826040611815" lon="9.15546646347465"><ele>82.2</ele><time>2026-04-19T08:51:47Z</time></trkpt><trkpt lat="45.200924117088384" lon="9.155367037041433"><ele>82.60000000000001</ele><time>2026-04-19T08:51:49Z</time></trkpt><trkpt lat="45.200977361112024" lon="9.155316524532664"><ele>83.0</ele><time>2026-04-19T08:51:50Z</time></trkpt><trkpt lat="45.20107982866996" lon="9.155218616476652"><ele>83.0</ele><time>2026-04-19T08:51:52Z</time></trkpt><trkpt lat="45.20113160404897" lon="9.155164897705685"><ele>83.0</ele><time>2026-04-19T08:51:53Z</time></trkpt><trkpt lat="45.20123388659142" lon="9.155066512845725"><ele>83.0</ele><time>2026-04-19T08:51:55Z</time></trkpt><trkpt lat="45.201330383205054" lon="9.154966044917456"><ele>83.0</ele><time>2026-04-19T08:51:57Z</time></trkpt><trkpt lat="45.20142987543178" lon="9.154867357966792"><ele>83.0</ele><time>2026-04-19T08:51:59Z</time></trkpt><trkpt lat="45.20152867869495" lon="9.154771590687266"><ele>82.75</ele><time>2026-04-19T08:52:01Z</time></trkpt><trkpt lat="45.20162653238992" lon="9.15467467475631"><ele>82.5</ele><time>2026-04-19T08:52:03Z</time></trkpt><trkpt lat="45.201716282414004" lon="9.154572580921343"><ele>82.25</ele><time>2026-04-19T08:52:05Z</time></trkpt><trkpt lat="45.201816302616955" lon="9.154479898065182"><ele>82.0</ele><time>2026-04-19T08:52:07Z</time></trkpt><trkpt lat="45.20191612458859" lon="9.154391686590506"><ele>82.0</ele><time>2026-04-19T08:52:09Z</time></trkpt><trkpt lat="45.20201234565379" lon="9.154296003669712"><ele>82.0</ele><time>2026-04-19T08:52:11Z</time></trkpt><trkpt lat="45.202106102402894" lon="9.154198636738894"><ele>82.0</ele><time>2026-04-19T08:52:13Z</time></trkpt><trkpt lat="45.20220348186941" lon="9.154105237552299"><ele>82.0</ele><time>2026-04-19T08:52:15Z</time></trkpt><trkpt lat="45.20229834029678" lon="9.154009601232348"><ele>81.8</ele><time>2026-04-19T08:52:17Z</time></trkpt><trkpt lat="45.202396892836944" lon="9.15391849098301"><ele>81.6</ele><time>2026-04-19T08:52:19Z</time></trkpt><trkpt lat="45.20249129377476" lon="9.153825890907624"><ele>81.39999999999999</ele><time>2026-04-19T08:52:21Z</time></trkpt><trkpt lat="45.202580002122154" lon="9.15374042902543"><ele>81.19999999999999</ele><time>2026-04-19T08:52:23Z</time></trkpt><trkpt lat="45.20266049035513" lon="9.153662587176596"><ele>81.0</ele><time>2026-04-19T08:52:25Z</time></trkpt><trkpt lat="45.202704468231296" lon="9.153557070166755"><ele>81.0</ele><time>2026-04-19T08:52:27Z</time></trkpt><trkpt lat="45.20267005062862" lon="9.15342658983782"><ele>81.0</ele><time>2026-04-19T08:52:29Z</time></trkpt><trkpt lat="45.20265141048483" lon="9.15330332449858"><ele>81.0</ele><time>2026-04-19T08:52:31Z</time></trkpt><trkpt lat="45.20271429818014" lon="9.153194388551498"><ele>81.0</ele><time>2026-04-19T08:52:33Z</time></trkpt><trkpt lat="45.20281210975734" lon="9.153136857533664"><ele>81.0</ele><time>2026-04-19T08:52:35Z</time></trkpt><trkpt lat="45.20289865243688" lon="9.153056457389138"><ele>81.19999999999999</ele><time>2026-04-19T08:52:37Z</time></trkpt><trkpt lat="45.202986067545474" lon="9.152964936993436"><ele>81.39999999999999</ele><time>2026-04-19T08:52:39Z</time></trkpt><trkpt lat="45.203077114609485" lon="9.152875669790614"><ele>81.6</ele><time>2026-04-19T08:52:41Z</time></trkpt><trkpt lat="45.2031701057116" lon="9.152790076697059"><ele>81.8</ele><time>2026-04-19T08:52:43Z</time></trkpt><trkpt lat="45.20326346302649" lon="9.152688326026187"><ele>82.0</ele><time>2026-04-19T08:52:45Z</time></trkpt><trkpt lat="45.20336264055258" lon="9.152589608731212"><ele>82.16666666666666</ele><time>2026-04-19T08:52:47Z</time></trkpt><trkpt lat="45.2034664450011" lon="9.152486215645691"><ele>82.33333333333333</ele><time>2026-04-19T08:52:49Z</time></trkpt><trkpt lat="45.20352237424993" lon="9.152432782893221"><ele>82.5</ele><time>2026-04-19T08:52:50Z</time></trkpt><trkpt lat="45.20357755309247" lon="9.152375747501662"><ele>82.66666666666667</ele><time>2026-04-19T08:52:51Z</time></trkpt><trkpt lat="45.20363453762947" lon="9.152320669307535"><ele>82.83333333333334</ele><time>2026-04-19T08:52:52Z</time></trkpt><trkpt lat="45.20368955664277" lon="9.152264090058976"><ele>83.0</ele><time>2026-04-19T08:52:53Z</time></trkpt><trkpt lat="45.203740239161796" lon="9.152189633002791"><ele>83.0</ele><time>2026-04-19T08:52:54Z</time></trkpt><trkpt lat="45.2038007154077" lon="9.152147397433355"><ele>83.0</ele><time>2026-04-19T08:52:55Z</time></trkpt><trkpt lat="45.20385840161807" lon="9.152096810415355"><ele>83.0</ele><time>2026-04-19T08:52:56Z</time></trkpt><trkpt lat="45.203914324022364" lon="9.15203801207792"><ele>83.0</ele><time>2026-04-19T08:52:57Z</time></trkpt><trkpt lat="45.203968712641526" lon="9.151979058964018"><ele>83.0</ele><time>2026-04-19T08:52:58Z</time></trkpt><trkpt lat="45.204026331012365" lon="9.151923012630357"><ele>83.0</ele><time>2026-04-19T08:52:59Z</time></trkpt><trkpt lat="45.20407951507361" lon="9.151867544792214"><ele>83.0</ele><time>2026-04-19T08:53:00Z</time></trkpt><trkpt lat="45.20413410871252" lon="9.151810746881086"><ele>83.0</ele><time>2026-04-19T08:53:01Z</time></trkpt><trkpt lat="45.204189040537564" lon="9.151759071830789"><ele>83.0</ele><time>2026-04-19T08:53:02Z</time></trkpt><trkpt lat="45.20424248664749" lon="9.151701783681554"><ele>83.0</ele><time>2026-04-19T08:53:03Z</time></trkpt><trkpt lat="45.2042969821698" lon="9.151648598946913"><ele>83.0</ele><time>2026-04-19T08:53:04Z</time></trkpt><trkpt lat="45.204351271976236" lon="9.151596073854432"><ele>83.0</ele><time>2026-04-19T08:53:05Z</time></trkpt><trkpt lat="45.20440633677508" lon="9.15154391166985"><ele>83.0</ele><time>2026-04-19T08:53:06Z</time></trkpt><trkpt lat="45.204460747338075" lon="9.151493420850372"><ele>83.0</ele><time>2026-04-19T08:53:07Z</time></trkpt><trkpt lat="45.20451679491465" lon="9.151438182290757"><ele>82.83333333333334</ele><time>2026-04-19T08:53:08Z</time></trkpt><trkpt lat="45.20457164705082" lon="9.151387525870089"><ele>82.66666666666667</ele><time>2026-04-19T08:53:09Z</time></trkpt><trkpt lat="45.20462369890446" lon="9.151327635102023"><ele>82.5</ele><time>2026-04-19T08:53:10Z</time></trkpt><trkpt lat="45.20467841419725" lon="9.151275811663723"><ele>82.33333333333333</ele><time>2026-04-19T08:53:11Z</time></trkpt><trkpt lat="45.20473009601774" lon="9.151223230293818"><ele>82.16666666666666</ele><time>2026-04-19T08:53:12Z</time></trkpt><trkpt lat="45.20478149376445" lon="9.151171350546678"><ele>82.0</ele><time>2026-04-19T08:53:13Z</time></trkpt><trkpt lat="45.20487742813438" lon="9.151055386157893"><ele>81.85714285714285</ele><time>2026-04-19T08:53:15Z</time></trkpt><trkpt lat="45.20493208464839" lon="9.151004327003433"><ele>81.71428571428571</ele><time>2026-04-19T08:53:16Z</time></trkpt><trkpt lat="45.204993313987956" lon="9.150960115460254"><ele>81.57142857142857</ele><time>2026-04-19T08:53:17Z</time></trkpt><trkpt lat="45.20504663260952" lon="9.150911485200304"><ele>81.42857142857142</ele><time>2026-04-19T08:53:18Z</time></trkpt><trkpt lat="45.205095855237744" lon="9.15085371867037"><ele>81.28571428571428</ele><time>2026-04-19T08:53:19Z</time></trkpt><trkpt lat="45.205145317629686" lon="9.150795477247758"><ele>81.14285714285714</ele><time>2026-04-19T08:53:20Z</time></trkpt><trkpt lat="45.20519824324105" lon="9.15074153800314"><ele>81.0</ele><time>2026-04-19T08:53:21Z</time></trkpt><trkpt lat="45.20525108376329" lon="9.15069121881598"><ele>80.83333333333333</ele><time>2026-04-19T08:53:22Z</time></trkpt><trkpt lat="45.20530496057555" lon="9.150643261650986"><ele>80.66666666666667</ele><time>2026-04-19T08:53:23Z</time></trkpt><trkpt lat="45.205358066052746" lon="9.15059486841645"><ele>80.5</ele><time>2026-04-19T08:53:24Z</time></trkpt><trkpt lat="45.205450142869346" lon="9.150481832693039"><ele>80.33333333333334</ele><time>2026-04-19T08:53:26Z</time></trkpt><trkpt lat="45.20553686371836" lon="9.150356553117419"><ele>80.16666666666667</ele><time>2026-04-19T08:53:28Z</time></trkpt><trkpt lat="45.20556937304334" lon="9.150267095517048"><ele>80.0</ele><time>2026-04-19T08:53:29Z</time></trkpt><trkpt lat="45.20561089270504" lon="9.150179528084974"><ele>80.0</ele><time>2026-04-19T08:53:30Z</time></trkpt><trkpt lat="45.205666024102456" lon="9.150090818298535"><ele>80.0</ele><time>2026-04-19T08:53:31Z</time></trkpt><trkpt lat="45.205728493581866" lon="9.150002084546427"><ele>80.0</ele><time>2026-04-19T08:53:32Z</time></trkpt><trkpt lat="45.20579867073357" lon="9.149911952361183"><ele>80.0</ele><time>2026-04-19T08:53:33Z</time></trkpt><trkpt lat="45.20587166104081" lon="9.149829032303334"><ele>80.0</ele><time>2026-04-19T08:53:34Z</time></trkpt><trkpt lat="45.20594832993198" lon="9.149748335744421"><ele>80.0</ele><time>2026-04-19T08:53:35Z</time></trkpt><trkpt lat="45.20602853624001" lon="9.149672136817601"><ele>80.0</ele><time>2026-04-19T08:53:36Z</time></trkpt><trkpt lat="45.20609555732434" lon="9.149587209007612"><ele>80.0</ele><time>2026-04-19T08:53:37Z</time></trkpt><trkpt lat="45.20616597178454" lon="9.149528013715782"><ele>80.0</ele><time>2026-04-19T08:53:38Z</time></trkpt><trkpt lat="45.206248239423985" lon="9.149449360566988"><ele>80.0</ele><time>2026-04-19T08:53:39Z</time></trkpt><trkpt lat="45.206310616520305" lon="9.149378932095035"><ele>80.0</ele><time>2026-04-19T08:53:40Z</time></trkpt><trkpt lat="45.206380917280676" lon="9.149322897854452"><ele>80.0</ele><time>2026-04-19T08:53:41Z</time></trkpt><trkpt lat="45.206449866202526" lon="9.149288543082069"><ele>80.0</ele><time>2026-04-19T08:53:42Z</time></trkpt><trkpt lat="45.206515292667326" lon="9.149253090966894"><ele>80.0</ele><time>2026-04-19T08:53:43Z</time></trkpt><trkpt lat="45.20658146720393" lon="9.149222177700045"><ele>80.0</ele><time>2026-04-19T08:53:44Z</time></trkpt><trkpt lat="45.206640643176826" lon="9.149185960584912"><ele>80.0</ele><time>2026-04-19T08:53:45Z</time></trkpt><trkpt lat="45.20674427416764" lon="9.149116153966151"><ele>80.0</ele><time>2026-04-19T08:53:47Z</time></trkpt><trkpt lat="45.20679225429435" lon="9.149049908999258"><ele>79.8</ele><time>2026-04-19T08:53:48Z</time></trkpt><trkpt lat="45.20688331848005" lon="9.148984767080792"><ele>79.6</ele><time>2026-04-19T08:53:50Z</time></trkpt><trkpt lat="45.20699400884972" lon="9.148911722034676"><ele>79.4</ele><time>2026-04-19T08:53:52Z</time></trkpt><trkpt lat="45.207061872936976" lon="9.148843451562769"><ele>79.2</ele><time>2026-04-19T08:53:53Z</time></trkpt><trkpt lat="45.20711981147608" lon="9.148775719720213"><ele>79.0</ele><time>2026-04-19T08:53:54Z</time></trkpt><trkpt lat="45.207180897325244" lon="9.14872397184203"><ele>79.0</ele><time>2026-04-19T08:53:55Z</time></trkpt><trkpt lat="45.20722984387709" lon="9.148645385542414"><ele>79.0</ele><time>2026-04-19T08:53:56Z</time></trkpt><trkpt lat="45.20730844617241" lon="9.148599851521967"><ele>79.0</ele><time>2026-04-19T08:53:57Z</time></trkpt><trkpt lat="45.207371698948634" lon="9.148547480464417"><ele>79.0</ele><time>2026-04-19T08:53:58Z</time></trkpt><trkpt lat="45.20744017662435" lon="9.148483276427454"><ele>79.0</ele><time>2026-04-19T08:53:59Z</time></trkpt><trkpt lat="45.20749761441568" lon="9.1484136804951"><ele>79.0</ele><time>2026-04-19T08:54:00Z</time></trkpt><trkpt lat="45.207559942105355" lon="9.148366097275382"><ele>79.0</ele><time>2026-04-19T08:54:01Z</time></trkpt><trkpt lat="45.20761855522784" lon="9.148314709996692"><ele>79.0</ele><time>2026-04-19T08:54:02Z</time></trkpt><trkpt lat="45.207671973060776" lon="9.148263758357981"><ele>79.0</ele><time>2026-04-19T08:54:03Z</time></trkpt><trkpt lat="45.207775792713484" lon="9.148172220642236"><ele>79.0</ele><time>2026-04-19T08:54:05Z</time></trkpt><trkpt lat="45.207871907662344" lon="9.148084033799881"><ele>79.0</ele><time>2026-04-19T08:54:07Z</time></trkpt><trkpt lat="45.20796747865321" lon="9.147997371635473"><ele>79.0</ele><time>2026-04-19T08:54:09Z</time></trkpt><trkpt lat="45.20805874057338" lon="9.147913605982707"><ele>79.0</ele><time>2026-04-19T08:54:11Z</time></trkpt><trkpt lat="45.20815580908457" lon="9.147823019234613"><ele>79.0</ele><time>2026-04-19T08:54:13Z</time></trkpt><trkpt lat="45.208249938433134" lon="9.14773579392347"><ele>79.0</ele><time>2026-04-19T08:54:15Z</time></trkpt><trkpt lat="45.20835154017994" lon="9.147655482684302"><ele>79.0</ele><time>2026-04-19T08:54:17Z</time></trkpt><trkpt lat="45.20845937624727" lon="9.147588223208716"><ele>79.0</ele><time>2026-04-19T08:54:19Z</time></trkpt><trkpt lat="45.20857072681699" lon="9.147539849129295"><ele>79.0</ele><time>2026-04-19T08:54:21Z</time></trkpt><trkpt lat="45.20867748148012" lon="9.147502969790947"><ele>79.0</ele><time>2026-04-19T08:54:23Z</time></trkpt><trkpt lat="45.208739922334885" lon="9.147472161867007"><ele>79.0</ele><time>2026-04-19T08:54:24Z</time></trkpt><trkpt lat="45.2088012349763" lon="9.14744942217272"><ele>79.0</ele><time>2026-04-19T08:54:25Z</time></trkpt><trkpt lat="45.208916016550816" lon="9.14739948618478"><ele>79.0</ele><time>2026-04-19T08:54:27Z</time></trkpt><trkpt lat="45.209034264892566" lon="9.147349404636833"><ele>79.0</ele><time>2026-04-19T08:54:29Z</time></trkpt><trkpt lat="45.20915148703043" lon="9.147305191131727"><ele>79.0</ele><time>2026-04-19T08:54:31Z</time></trkpt><trkpt lat="45.209267263557805" lon="9.14725942855143"><ele>79.75</ele><time>2026-04-19T08:54:33Z</time></trkpt><trkpt lat="45.209384027655375" lon="9.14721152545484"><ele>80.5</ele><time>2026-04-19T08:54:35Z</time></trkpt><trkpt lat="45.209500935474814" lon="9.147169566895005"><ele>81.25</ele><time>2026-04-19T08:54:37Z</time></trkpt><trkpt lat="45.209615538327014" lon="9.147119758917558"><ele>82.0</ele><time>2026-04-19T08:54:39Z</time></trkpt><trkpt lat="45.20972995594767" lon="9.147072814686275"><ele>81.75</ele><time>2026-04-19T08:54:41Z</time></trkpt><trkpt lat="45.2098418107273" lon="9.147025097669877"><ele>81.5</ele><time>2026-04-19T08:54:43Z</time></trkpt><trkpt lat="45.20995728712465" lon="9.146978717415832"><ele>81.25</ele><time>2026-04-19T08:54:45Z</time></trkpt><trkpt lat="45.21007326646716" lon="9.146934786581221"><ele>81.0</ele><time>2026-04-19T08:54:47Z</time></trkpt><trkpt lat="45.21019319406731" lon="9.14688666213655"><ele>81.0</ele><time>2026-04-19T08:54:49Z</time></trkpt><trkpt lat="45.21031429685018" lon="9.146840244654086"><ele>81.0</ele><time>2026-04-19T08:54:51Z</time></trkpt><trkpt lat="45.21037605615832" lon="9.14681920263791"><ele>81.0</ele><time>2026-04-19T08:54:52Z</time></trkpt><trkpt lat="45.210493209581294" lon="9.146768372482066"><ele>81.0</ele><time>2026-04-19T08:54:54Z</time></trkpt><trkpt lat="45.21060890881349" lon="9.14672468854945"><ele>81.0</ele><time>2026-04-19T08:54:56Z</time></trkpt><trkpt lat="45.21072332595217" lon="9.146673404173518"><ele>80.5</ele><time>2026-04-19T08:54:58Z</time></trkpt><trkpt lat="45.21083667984315" lon="9.146631844633582"><ele>80.0</ele><time>2026-04-19T08:55:00Z</time></trkpt><trkpt lat="45.21094999604721" lon="9.146586575319171"><ele>79.5</ele><time>2026-04-19T08:55:02Z</time></trkpt><trkpt lat="45.211061005996356" lon="9.146541544631779"><ele>79.0</ele><time>2026-04-19T08:55:04Z</time></trkpt><trkpt lat="45.21117124107386" lon="9.146499582270577"><ele>79.25</ele><time>2026-04-19T08:55:06Z</time></trkpt><trkpt lat="45.211286021101884" lon="9.146454577091056"><ele>79.5</ele><time>2026-04-19T08:55:08Z</time></trkpt><trkpt lat="45.21140294859908" lon="9.146408949979673"><ele>79.75</ele><time>2026-04-19T08:55:10Z</time></trkpt><trkpt lat="45.21151866171098" lon="9.146362906115543"><ele>80.0</ele><time>2026-04-19T08:55:12Z</time></trkpt><trkpt lat="45.21163341727248" lon="9.14631992323234"><ele>80.0</ele><time>2026-04-19T08:55:14Z</time></trkpt><trkpt lat="45.211752217938475" lon="9.146301390316303"><ele>80.0</ele><time>2026-04-19T08:55:16Z</time></trkpt><trkpt lat="45.21187157235218" lon="9.146274048058324"><ele>80.0</ele><time>2026-04-19T08:55:18Z</time></trkpt><trkpt lat="45.21198117014657" lon="9.146223543073988"><ele>80.0</ele><time>2026-04-19T08:55:20Z</time></trkpt><trkpt lat="45.21208279572531" lon="9.146181856383617"><ele>80.0</ele><time>2026-04-19T08:55:22Z</time></trkpt><trkpt lat="45.21217364393159" lon="9.146140264071175"><ele>80.0</ele><time>2026-04-19T08:55:24Z</time></trkpt><trkpt lat="45.21224929322628" lon="9.146134632085493"><ele>80.0</ele><time>2026-04-19T08:55:26Z</time></trkpt><trkpt lat="45.212275587325095" lon="9.146224262501594"><ele>80.0</ele><time>2026-04-19T08:55:28Z</time></trkpt><trkpt lat="45.21228276117828" lon="9.146330719008091"><ele>80.0</ele><time>2026-04-19T08:55:30Z</time></trkpt><trkpt lat="45.212311705685366" lon="9.146424658258201"><ele>80.0</ele><time>2026-04-19T08:55:32Z</time></trkpt><trkpt lat="45.212410093646724" lon="9.146390551001085"><ele>80.0</ele><time>2026-04-19T08:55:34Z</time></trkpt><trkpt lat="45.212509872259005" lon="9.146322244554675"><ele>80.0</ele><time>2026-04-19T08:55:36Z</time></trkpt><trkpt lat="45.21262817839358" lon="9.146291149173335"><ele>80.0</ele><time>2026-04-19T08:55:38Z</time></trkpt><trkpt lat="45.21275160458123" lon="9.146311106075103"><ele>80.0</ele><time>2026-04-19T08:55:40Z</time></trkpt><trkpt lat="45.21286059846416" lon="9.146386161423571"><ele>80.0</ele><time>2026-04-19T08:55:42Z</time></trkpt><trkpt lat="45.212955849395506" lon="9.146470696213003"><ele>80.0</ele><time>2026-04-19T08:55:44Z</time></trkpt><trkpt lat="45.213052720284736" lon="9.146547127585631"><ele>80.0</ele><time>2026-04-19T08:55:46Z</time></trkpt><trkpt lat="45.21316334278328" lon="9.146536444514211"><ele>80.0</ele><time>2026-04-19T08:55:48Z</time></trkpt><trkpt lat="45.213260813959344" lon="9.146463486623137"><ele>80.0</ele><time>2026-04-19T08:55:50Z</time></trkpt><trkpt lat="45.2133521720611" lon="9.146370597826706"><ele>80.4</ele><time>2026-04-19T08:55:52Z</time></trkpt><trkpt lat="45.21344344123736" lon="9.146279410629164"><ele>80.8</ele><time>2026-04-19T08:55:54Z</time></trkpt><trkpt lat="45.213547316258584" lon="9.146205254120591"><ele>81.19999999999999</ele><time>2026-04-19T08:55:56Z</time></trkpt><trkpt lat="45.21365655445907" lon="9.14610385935486"><ele>81.6</ele><time>2026-04-19T08:55:58Z</time></trkpt><trkpt lat="45.21371186308833" lon="9.146042088780405"><ele>82.0</ele><time>2026-04-19T08:55:59Z</time></trkpt><trkpt lat="45.213770308119166" lon="9.145982692245125"><ele>82.0</ele><time>2026-04-19T08:56:00Z</time></trkpt><trkpt lat="45.21383403078681" lon="9.14593197017816"><ele>82.0</ele><time>2026-04-19T08:56:01Z</time></trkpt><trkpt lat="45.2139016947049" lon="9.145877625200296"><ele>82.0</ele><time>2026-04-19T08:56:02Z</time></trkpt><trkpt lat="45.213973119325864" lon="9.145824572212497"><ele>82.0</ele><time>2026-04-19T08:56:03Z</time></trkpt><trkpt lat="45.21405069047179" lon="9.145782099979176"><ele>82.0</ele><time>2026-04-19T08:56:04Z</time></trkpt><trkpt lat="45.214131339087125" lon="9.145746844049004"><ele>82.0</ele><time>2026-04-19T08:56:05Z</time></trkpt><trkpt lat="45.21421226273934" lon="9.145705851147596"><ele>81.8</ele><time>2026-04-19T08:56:06Z</time></trkpt><trkpt lat="45.214294327234214" lon="9.14566568490538"><ele>81.6</ele><time>2026-04-19T08:56:07Z</time></trkpt><trkpt lat="45.21437513095658" lon="9.145623507370596"><ele>81.39999999999999</ele><time>2026-04-19T08:56:08Z</time></trkpt><trkpt lat="45.21446039201742" lon="9.1455787626602"><ele>81.19999999999999</ele><time>2026-04-19T08:56:09Z</time></trkpt><trkpt lat="45.214547778042196" lon="9.145534220137908"><ele>81.0</ele><time>2026-04-19T08:56:10Z</time></trkpt><trkpt lat="45.21463639924468" lon="9.145485356274312"><ele>81.0</ele><time>2026-04-19T08:56:11Z</time></trkpt><trkpt lat="45.214721965284994" lon="9.14543580456342"><ele>81.0</ele><time>2026-04-19T08:56:12Z</time></trkpt><trkpt lat="45.2148141124099" lon="9.14539294436477"><ele>81.0</ele><time>2026-04-19T08:56:13Z</time></trkpt><trkpt lat="45.21490699594808" lon="9.145350467739148"><ele>81.0</ele><time>2026-04-19T08:56:14Z</time></trkpt><trkpt lat="45.21499648020819" lon="9.145318585806317"><ele>81.0</ele><time>2026-04-19T08:56:15Z</time></trkpt><trkpt lat="45.21508326291096" lon="9.145286439519996"><ele>80.83333333333333</ele><time>2026-04-19T08:56:16Z</time></trkpt><trkpt lat="45.21516561754983" lon="9.145254052009811"><ele>80.66666666666667</ele><time>2026-04-19T08:56:17Z</time></trkpt><trkpt lat="45.21524537009834" lon="9.145226162717433"><ele>80.5</ele><time>2026-04-19T08:56:18Z</time></trkpt><trkpt lat="45.215323565882635" lon="9.145196304967163"><ele>80.33333333333334</ele><time>2026-04-19T08:56:19Z</time></trkpt><trkpt lat="45.215397303396266" lon="9.145166070479135"><ele>80.16666666666667</ele><time>2026-04-19T08:56:20Z</time></trkpt><trkpt lat="45.2154696332765" lon="9.145143036519201"><ele>80.0</ele><time>2026-04-19T08:56:21Z</time></trkpt><trkpt lat="45.21554045419107" lon="9.145116411631307"><ele>80.0</ele><time>2026-04-19T08:56:22Z</time></trkpt><trkpt lat="45.21562493834471" lon="9.145078359852347"><ele>80.0</ele><time>2026-04-19T08:56:23Z</time></trkpt><trkpt lat="45.21569521929715" lon="9.145035478727937"><ele>80.0</ele><time>2026-04-19T08:56:24Z</time></trkpt><trkpt lat="45.21581006359593" lon="9.145015099829386"><ele>80.0</ele><time>2026-04-19T08:56:26Z</time></trkpt><trkpt lat="45.215872025422236" lon="9.144994799358619"><ele>80.0</ele><time>2026-04-19T08:56:27Z</time></trkpt><trkpt lat="45.21593492875733" lon="9.144972338014806"><ele>80.0</ele><time>2026-04-19T08:56:28Z</time></trkpt><trkpt lat="45.21605331377724" lon="9.144922638059894"><ele>80.0</ele><time>2026-04-19T08:56:30Z</time></trkpt><trkpt lat="45.216171124241114" lon="9.144877963813487"><ele>80.0</ele><time>2026-04-19T08:56:32Z</time></trkpt><trkpt lat="45.216285727755434" lon="9.144832629862531"><ele>80.0</ele><time>2026-04-19T08:56:34Z</time></trkpt><trkpt lat="45.21640524840061" lon="9.144793223706532"><ele>80.0</ele><time>2026-04-19T08:56:36Z</time></trkpt><trkpt lat="45.21652154701463" lon="9.144744830379356"><ele>79.75</ele><time>2026-04-19T08:56:38Z</time></trkpt><trkpt lat="45.21663449398611" lon="9.14469000779162"><ele>79.5</ele><time>2026-04-19T08:56:40Z</time></trkpt><trkpt lat="45.21674814359305" lon="9.144654293583748"><ele>79.25</ele><time>2026-04-19T08:56:42Z</time></trkpt><trkpt lat="45.216860350624785" lon="9.144605985690688"><ele>79.0</ele><time>2026-04-19T08:56:44Z</time></trkpt><trkpt lat="45.21697458417228" lon="9.144565260817245"><ele>79.0</ele><time>2026-04-19T08:56:46Z</time></trkpt><trkpt lat="45.21708719276489" lon="9.144518070233218"><ele>79.0</ele><time>2026-04-19T08:56:48Z</time></trkpt><trkpt lat="45.2171997093165" lon="9.14447468048706"><ele>79.0</ele><time>2026-04-19T08:56:50Z</time></trkpt><trkpt lat="45.21730824332596" lon="9.144424705992778"><ele>79.0</ele><time>2026-04-19T08:56:52Z</time></trkpt><trkpt lat="45.2174209487211" lon="9.144383228281797"><ele>79.75</ele><time>2026-04-19T08:56:54Z</time></trkpt><trkpt lat="45.21753100936343" lon="9.144337713155817"><ele>80.5</ele><time>2026-04-19T08:56:56Z</time></trkpt><trkpt lat="45.217638272775424" lon="9.144301067414277"><ele>81.25</ele><time>2026-04-19T08:56:58Z</time></trkpt><trkpt lat="45.217748359043014" lon="9.144255263017618"><ele>82.0</ele><time>2026-04-19T08:57:00Z</time></trkpt><trkpt lat="45.21785852807106" lon="9.144205599969967"><ele>82.0</ele><time>2026-04-19T08:57:02Z</time></trkpt><trkpt lat="45.2179721338365" lon="9.144152169931282"><ele>82.0</ele><time>2026-04-19T08:57:04Z</time></trkpt><trkpt lat="45.21808960303742" lon="9.144106604566845"><ele>82.0</ele><time>2026-04-19T08:57:06Z</time></trkpt><trkpt lat="45.21820661358067" lon="9.144059825736564"><ele>82.0</ele><time>2026-04-19T08:57:08Z</time></trkpt><trkpt lat="45.21832569261413" lon="9.144020734810702"><ele>82.25</ele><time>2026-04-19T08:57:10Z</time></trkpt><trkpt lat="45.21843742940137" lon="9.143973884541396"><ele>82.5</ele><time>2026-04-19T08:57:12Z</time></trkpt><trkpt lat="45.21855406768936" lon="9.143935317254906"><ele>82.75</ele><time>2026-04-19T08:57:14Z</time></trkpt><trkpt lat="45.21867164098177" lon="9.143889626326294"><ele>83.0</ele><time>2026-04-19T08:57:16Z</time></trkpt><trkpt lat="45.21878771025494" lon="9.143842418292293"><ele>83.0</ele><time>2026-04-19T08:57:18Z</time></trkpt><trkpt lat="45.21890434835453" lon="9.14379410070972"><ele>83.0</ele><time>2026-04-19T08:57:20Z</time></trkpt><trkpt lat="45.21902067025435" lon="9.143739338207107"><ele>83.0</ele><time>2026-04-19T08:57:22Z</time></trkpt><trkpt lat="45.219080838257895" lon="9.143709628168073"><ele>83.0</ele><time>2026-04-19T08:57:23Z</time></trkpt><trkpt lat="45.219142623731486" lon="9.143682141129752"><ele>83.0</ele><time>2026-04-19T08:57:24Z</time></trkpt><trkpt lat="45.21920306275247" lon="9.143650620934444"><ele>83.0</ele><time>2026-04-19T08:57:25Z</time></trkpt><trkpt lat="45.21926764649706" lon="9.143623443289131"><ele>83.14285714285714</ele><time>2026-04-19T08:57:26Z</time></trkpt><trkpt lat="45.21933315324002" lon="9.14361132359762"><ele>83.28571428571429</ele><time>2026-04-19T08:57:27Z</time></trkpt><trkpt lat="45.21940064943804" lon="9.14360141931354"><ele>83.42857142857143</ele><time>2026-04-19T08:57:28Z</time></trkpt><trkpt lat="45.219468490769565" lon="9.143580397588126"><ele>83.57142857142857</ele><time>2026-04-19T08:57:29Z</time></trkpt><trkpt lat="45.2195340170128" lon="9.143547847673128"><ele>83.71428571428572</ele><time>2026-04-19T08:57:30Z</time></trkpt><trkpt lat="45.21960095450434" lon="9.14351854467094"><ele>83.85714285714286</ele><time>2026-04-19T08:57:31Z</time></trkpt><trkpt lat="45.21966876708122" lon="9.143490999606326"><ele>84.0</ele><time>2026-04-19T08:57:32Z</time></trkpt><trkpt lat="45.219736273570476" lon="9.143462427736583"><ele>84.0</ele><time>2026-04-19T08:57:33Z</time></trkpt><trkpt lat="45.21980295143859" lon="9.143433314395107"><ele>84.0</ele><time>2026-04-19T08:57:34Z</time></trkpt><trkpt lat="45.21987028056832" lon="9.143407608152067"><ele>84.0</ele><time>2026-04-19T08:57:35Z</time></trkpt><trkpt lat="45.219936953795134" lon="9.143381918707824"><ele>84.0</ele><time>2026-04-19T08:57:36Z</time></trkpt><trkpt lat="45.220003811079984" lon="9.14335621560579"><ele>84.0</ele><time>2026-04-19T08:57:37Z</time></trkpt><trkpt lat="45.220071099593085" lon="9.143331103003796"><ele>84.0</ele><time>2026-04-19T08:57:38Z</time></trkpt><trkpt lat="45.22013815621742" lon="9.143304386170929"><ele>84.0</ele><time>2026-04-19T08:57:39Z</time></trkpt><trkpt lat="45.220205357066185" lon="9.143279498217474"><ele>83.85714285714286</ele><time>2026-04-19T08:57:40Z</time></trkpt><trkpt lat="45.22027192258206" lon="9.143252264638194"><ele>83.71428571428572</ele><time>2026-04-19T08:57:41Z</time></trkpt><trkpt lat="45.22033855954087" lon="9.143224744321554"><ele>83.57142857142857</ele><time>2026-04-19T08:57:42Z</time></trkpt><trkpt lat="45.220406221398626" lon="9.143198387289456"><ele>83.42857142857143</ele><time>2026-04-19T08:57:43Z</time></trkpt><trkpt lat="45.22047241840061" lon="9.143171626972299"><ele>83.28571428571429</ele><time>2026-04-19T08:57:44Z</time></trkpt><trkpt lat="45.22053795441146" lon="9.143145959437067"><ele>83.14285714285714</ele><time>2026-04-19T08:57:45Z</time></trkpt><trkpt lat="45.22060378751637" lon="9.143120935793753"><ele>83.0</ele><time>2026-04-19T08:57:46Z</time></trkpt><trkpt lat="45.22066887266025" lon="9.143092797604162"><ele>83.0</ele><time>2026-04-19T08:57:47Z</time></trkpt><trkpt lat="45.22073236256406" lon="9.143064817124818"><ele>83.0</ele><time>2026-04-19T08:57:48Z</time></trkpt><trkpt lat="45.22079629375901" lon="9.143040959017023"><ele>83.0</ele><time>2026-04-19T08:57:49Z</time></trkpt><trkpt lat="45.220858606815085" lon="9.143020769486716"><ele>83.0</ele><time>2026-04-19T08:57:50Z</time></trkpt><trkpt lat="45.220919603362795" lon="9.142997023937161"><ele>83.0</ele><time>2026-04-19T08:57:51Z</time></trkpt><trkpt lat="45.221037515808064" lon="9.142944766989494"><ele>83.0</ele><time>2026-04-19T08:57:53Z</time></trkpt><trkpt lat="45.221159498683434" lon="9.142899048796865"><ele>83.0</ele><time>2026-04-19T08:57:55Z</time></trkpt><trkpt lat="45.221281809684704" lon="9.142849611417185"><ele>83.0</ele><time>2026-04-19T08:57:57Z</time></trkpt><trkpt lat="45.221342474907594" lon="9.142822187933415"><ele>83.0</ele><time>2026-04-19T08:57:58Z</time></trkpt><trkpt lat="45.221406038808716" lon="9.142797459134657"><ele>83.0</ele><time>2026-04-19T08:57:59Z</time></trkpt><trkpt lat="45.221469149173956" lon="9.1427742226249"><ele>83.0</ele><time>2026-04-19T08:58:00Z</time></trkpt><trkpt lat="45.22152996908649" lon="9.142749452126836"><ele>83.0</ele><time>2026-04-19T08:58:01Z</time></trkpt><trkpt lat="45.221591675685914" lon="9.142723070811472"><ele>83.0</ele><time>2026-04-19T08:58:02Z</time></trkpt><trkpt lat="45.22171285675569" lon="9.142680771029465"><ele>83.0</ele><time>2026-04-19T08:58:04Z</time></trkpt><trkpt lat="45.22183571821178" lon="9.142633241214178"><ele>83.0</ele><time>2026-04-19T08:58:06Z</time></trkpt><trkpt lat="45.221896872265226" lon="9.142608878443161"><ele>83.0</ele><time>2026-04-19T08:58:07Z</time></trkpt><trkpt lat="45.22202011950292" lon="9.142563691966528"><ele>83.0</ele><time>2026-04-19T08:58:09Z</time></trkpt><trkpt lat="45.22208218274033" lon="9.142539804982304"><ele>83.0</ele><time>2026-04-19T08:58:10Z</time></trkpt><trkpt lat="45.22214270734117" lon="9.142512692779478"><ele>83.0</ele><time>2026-04-19T08:58:11Z</time></trkpt><trkpt lat="45.22220500862009" lon="9.142488073311698"><ele>83.0</ele><time>2026-04-19T08:58:12Z</time></trkpt><trkpt lat="45.22226734938226" lon="9.142465987541492"><ele>83.0</ele><time>2026-04-19T08:58:13Z</time></trkpt><trkpt lat="45.2223279867095" lon="9.142441206987385"><ele>83.0</ele><time>2026-04-19T08:58:14Z</time></trkpt><trkpt lat="45.22244792040322" lon="9.142387845858494"><ele>83.0</ele><time>2026-04-19T08:58:16Z</time></trkpt><trkpt lat="45.22256962454047" lon="9.14234438575825"><ele>82.57142857142857</ele><time>2026-04-19T08:58:18Z</time></trkpt><trkpt lat="45.222630128446355" lon="9.142318074303025"><ele>82.14285714285715</ele><time>2026-04-19T08:58:19Z</time></trkpt><trkpt lat="45.222693157930564" lon="9.142294858829414"><ele>81.71428571428572</ele><time>2026-04-19T08:58:20Z</time></trkpt><trkpt lat="45.22275432664309" lon="9.142272040456495"><ele>81.28571428571428</ele><time>2026-04-19T08:58:21Z</time></trkpt><trkpt lat="45.222816991298075" lon="9.142243587171057"><ele>80.85714285714286</ele><time>2026-04-19T08:58:22Z</time></trkpt><trkpt lat="45.22287872420861" lon="9.142218064014967"><ele>80.42857142857143</ele><time>2026-04-19T08:58:23Z</time></trkpt><trkpt lat="45.222941019263025" lon="9.14219789338003"><ele>80.0</ele><time>2026-04-19T08:58:24Z</time></trkpt><trkpt lat="45.22300510492914" lon="9.142176190563598"><ele>80.0</ele><time>2026-04-19T08:58:25Z</time></trkpt><trkpt lat="45.22306600980166" lon="9.142153525370338"><ele>80.0</ele><time>2026-04-19T08:58:26Z</time></trkpt><trkpt lat="45.223129175388664" lon="9.142130879189438"><ele>80.0</ele><time>2026-04-19T08:58:27Z</time></trkpt><trkpt lat="45.22319194883886" lon="9.142107835194933"><ele>80.0</ele><time>2026-04-19T08:58:28Z</time></trkpt><trkpt lat="45.22325331318348" lon="9.142080294452676"><ele>80.0</ele><time>2026-04-19T08:58:29Z</time></trkpt><trkpt lat="45.22331597627814" lon="9.142056645706196"><ele>80.0</ele><time>2026-04-19T08:58:30Z</time></trkpt><trkpt lat="45.22337782236292" lon="9.142034287489214"><ele>80.0</ele><time>2026-04-19T08:58:31Z</time></trkpt><trkpt lat="45.22344104962073" lon="9.142012990854349"><ele>80.125</ele><time>2026-04-19T08:58:32Z</time></trkpt><trkpt lat="45.22350307584395" lon="9.14199110728735"><ele>80.25</ele><time>2026-04-19T08:58:33Z</time></trkpt><trkpt lat="45.22356408750292" lon="9.14196543395669"><ele>80.375</ele><time>2026-04-19T08:58:34Z</time></trkpt><trkpt lat="45.22362712349853" lon="9.141945321950466"><ele>80.5</ele><time>2026-04-19T08:58:35Z</time></trkpt><trkpt lat="45.22368917638021" lon="9.141920761805036"><ele>80.625</ele><time>2026-04-19T08:58:36Z</time></trkpt><trkpt lat="45.22375006041869" lon="9.141892130902118"><ele>80.75</ele><time>2026-04-19T08:58:37Z</time></trkpt><trkpt lat="45.22381065194981" lon="9.141861579296208"><ele>80.875</ele><time>2026-04-19T08:58:38Z</time></trkpt><trkpt lat="45.22387131376667" lon="9.141835409470882"><ele>81.0</ele><time>2026-04-19T08:58:39Z</time></trkpt><trkpt lat="45.22393278155277" lon="9.141815983934446"><ele>81.19999999999999</ele><time>2026-04-19T08:58:40Z</time></trkpt><trkpt lat="45.224052889533766" lon="9.141768415417038"><ele>81.39999999999999</ele><time>2026-04-19T08:58:42Z</time></trkpt><trkpt lat="45.22417226245981" lon="9.141727125073738"><ele>81.6</ele><time>2026-04-19T08:58:44Z</time></trkpt><trkpt lat="45.22428656263073" lon="9.141687027519025"><ele>81.8</ele><time>2026-04-19T08:58:46Z</time></trkpt><trkpt lat="45.224348318222034" lon="9.14166089718112"><ele>82.0</ele><time>2026-04-19T08:58:47Z</time></trkpt><trkpt lat="45.22446827883989" lon="9.141612371521829"><ele>82.0</ele><time>2026-04-19T08:58:49Z</time></trkpt><trkpt lat="45.22458665411677" lon="9.141571136290818"><ele>82.0</ele><time>2026-04-19T08:58:51Z</time></trkpt><trkpt lat="45.22470248602262" lon="9.141527985549432"><ele>82.0</ele><time>2026-04-19T08:58:53Z</time></trkpt><trkpt lat="45.22482132326614" lon="9.141481425715448"><ele>82.0</ele><time>2026-04-19T08:58:55Z</time></trkpt><trkpt lat="45.22493748845882" lon="9.141437140822461"><ele>81.75</ele><time>2026-04-19T08:58:57Z</time></trkpt><trkpt lat="45.22505767617908" lon="9.14139472004712"><ele>81.5</ele><time>2026-04-19T08:58:59Z</time></trkpt><trkpt lat="45.225174007498715" lon="9.141340614620464"><ele>81.25</ele><time>2026-04-19T08:59:01Z</time></trkpt><trkpt lat="45.22529159201967" lon="9.141292238846791"><ele>81.0</ele><time>2026-04-19T08:59:03Z</time></trkpt><trkpt lat="45.2254054470581" lon="9.141239162749784"><ele>81.0</ele><time>2026-04-19T08:59:05Z</time></trkpt><trkpt lat="45.22551592411554" lon="9.141186146306477"><ele>81.0</ele><time>2026-04-19T08:59:07Z</time></trkpt><trkpt lat="45.2256244286768" lon="9.141135043647369"><ele>81.0</ele><time>2026-04-19T08:59:09Z</time></trkpt><trkpt lat="45.22573550435068" lon="9.141087533716304"><ele>81.0</ele><time>2026-04-19T08:59:11Z</time></trkpt><trkpt lat="45.22584603489675" lon="9.14104576550108"><ele>81.25</ele><time>2026-04-19T08:59:13Z</time></trkpt><trkpt lat="45.22595788874064" lon="9.141005034919433"><ele>81.5</ele><time>2026-04-19T08:59:15Z</time></trkpt><trkpt lat="45.226075042242826" lon="9.140962680527581"><ele>81.75</ele><time>2026-04-19T08:59:17Z</time></trkpt><trkpt lat="45.22619036278059" lon="9.140919347609588"><ele>82.0</ele><time>2026-04-19T08:59:19Z</time></trkpt><trkpt lat="45.226307429784704" lon="9.140877664405448"><ele>82.0</ele><time>2026-04-19T08:59:21Z</time></trkpt><trkpt lat="45.2264238518992" lon="9.14083405898284"><ele>82.0</ele><time>2026-04-19T08:59:23Z</time></trkpt><trkpt lat="45.22654002084681" lon="9.140791797256021"><ele>82.0</ele><time>2026-04-19T08:59:25Z</time></trkpt><trkpt lat="45.2266568434481" lon="9.140749592176196"><ele>82.0</ele><time>2026-04-19T08:59:27Z</time></trkpt><trkpt lat="45.22677409180315" lon="9.140713432523155"><ele>81.5</ele><time>2026-04-19T08:59:29Z</time></trkpt><trkpt lat="45.226891202338315" lon="9.140667373062803"><ele>81.0</ele><time>2026-04-19T08:59:31Z</time></trkpt><trkpt lat="45.227009838337565" lon="9.140619020140516"><ele>80.5</ele><time>2026-04-19T08:59:33Z</time></trkpt><trkpt lat="45.227129731883394" lon="9.140573922558042"><ele>80.0</ele><time>2026-04-19T08:59:35Z</time></trkpt><trkpt lat="45.2272476077939" lon="9.140536280384334"><ele>80.5</ele><time>2026-04-19T08:59:37Z</time></trkpt><trkpt lat="45.22736508909879" lon="9.140490412775502"><ele>81.0</ele><time>2026-04-19T08:59:39Z</time></trkpt><trkpt lat="45.22748311171052" lon="9.140447792324888"><ele>81.5</ele><time>2026-04-19T08:59:41Z</time></trkpt><trkpt lat="45.22760125244556" lon="9.140404833641755"><ele>82.0</ele><time>2026-04-19T08:59:43Z</time></trkpt><trkpt lat="45.227717719949744" lon="9.140361886997548"><ele>82.0</ele><time>2026-04-19T08:59:45Z</time></trkpt><trkpt lat="45.22783346979379" lon="9.140317950227603"><ele>82.0</ele><time>2026-04-19T08:59:47Z</time></trkpt><trkpt lat="45.227950026056675" lon="9.140275453132542"><ele>82.0</ele><time>2026-04-19T08:59:49Z</time></trkpt><trkpt lat="45.22806552786153" lon="9.140223904594402"><ele>82.0</ele><time>2026-04-19T08:59:51Z</time></trkpt><trkpt lat="45.22818185095216" lon="9.140186357843774"><ele>82.5</ele><time>2026-04-19T08:59:53Z</time></trkpt><trkpt lat="45.228297295300585" lon="9.14013942471568"><ele>83.0</ele><time>2026-04-19T08:59:55Z</time></trkpt><trkpt lat="45.22841319766683" lon="9.14008889244702"><ele>83.5</ele><time>2026-04-19T08:59:57Z</time></trkpt><trkpt lat="45.228529517127086" lon="9.140045187436222"><ele>84.0</ele><time>2026-04-19T08:59:59Z</time></trkpt><trkpt lat="45.22865369964045" lon="9.14000118579235"><ele>84.0</ele><time>2026-04-19T09:00:01Z</time></trkpt><trkpt lat="45.22871530393003" lon="9.139976278980157"><ele>84.0</ele><time>2026-04-19T09:00:02Z</time></trkpt><trkpt lat="45.22877941075327" lon="9.139952420472667"><ele>84.0</ele><time>2026-04-19T09:00:03Z</time></trkpt><trkpt lat="45.22889849017015" lon="9.139906546739963"><ele>84.0</ele><time>2026-04-19T09:00:05Z</time></trkpt><trkpt lat="45.22895994886393" lon="9.13988686470984"><ele>84.0</ele><time>2026-04-19T09:00:06Z</time></trkpt><trkpt lat="45.22902425237037" lon="9.139862882665694"><ele>84.0</ele><time>2026-04-19T09:00:07Z</time></trkpt><trkpt lat="45.229086420298835" lon="9.139837285542022"><ele>84.0</ele><time>2026-04-19T09:00:08Z</time></trkpt><trkpt lat="45.229148001872815" lon="9.139815462063595"><ele>84.16666666666667</ele><time>2026-04-19T09:00:09Z</time></trkpt><trkpt lat="45.22927121649149" lon="9.13977247510114"><ele>84.33333333333333</ele><time>2026-04-19T09:00:11Z</time></trkpt><trkpt lat="45.229332816009524" lon="9.139751008389858"><ele>84.5</ele><time>2026-04-19T09:00:12Z</time></trkpt><trkpt lat="45.229394106726716" lon="9.139727323595102"><ele>84.66666666666666</ele><time>2026-04-19T09:00:13Z</time></trkpt><trkpt lat="45.229454486929214" lon="9.139701189572433"><ele>84.83333333333333</ele><time>2026-04-19T09:00:14Z</time></trkpt><trkpt lat="45.22951602655023" lon="9.139678854126613"><ele>85.0</ele><time>2026-04-19T09:00:15Z</time></trkpt><trkpt lat="45.22963670768819" lon="9.139632309908814"><ele>85.0</ele><time>2026-04-19T09:00:16.999Z</time></trkpt><trkpt lat="45.22969932763551" lon="9.13961328566187"><ele>85.0</ele><time>2026-04-19T09:00:17.999Z</time></trkpt><trkpt lat="45.2297627690075" lon="9.13959138082333"><ele>85.0</ele><time>2026-04-19T09:00:18.999Z</time></trkpt><trkpt lat="45.22988068744327" lon="9.139539832440285"><ele>85.0</ele><time>2026-04-19T09:00:20.999Z</time></trkpt><trkpt lat="45.22994254498471" lon="9.139514973092702"><ele>85.0</ele><time>2026-04-19T09:00:21.999Z</time></trkpt><trkpt lat="45.2300037504077" lon="9.139491459340002"><ele>85.0</ele><time>2026-04-19T09:00:22.999Z</time></trkpt><trkpt lat="45.23006506885133" lon="9.13946797946145"><ele>85.0</ele><time>2026-04-19T09:00:23.999Z</time></trkpt><trkpt lat="45.23012747763606" lon="9.139447048842223"><ele>84.83333333333333</ele><time>2026-04-19T09:00:24.999Z</time></trkpt><trkpt lat="45.23018897003986" lon="9.13942111668872"><ele>84.66666666666666</ele><time>2026-04-19T09:00:25.999Z</time></trkpt><trkpt lat="45.23025003945855" lon="9.139394813078937"><ele>84.5</ele><time>2026-04-19T09:00:26.999Z</time></trkpt><trkpt lat="45.230371552422554" lon="9.13935319844775"><ele>84.33333333333333</ele><time>2026-04-19T09:00:28.999Z</time></trkpt><trkpt lat="45.23043308047497" lon="9.13932821238687"><ele>84.16666666666667</ele><time>2026-04-19T09:00:29.999Z</time></trkpt><trkpt lat="45.23049379851952" lon="9.139304296768795"><ele>84.0</ele><time>2026-04-19T09:00:30.999Z</time></trkpt><trkpt lat="45.2306150987436" lon="9.13925195535464"><ele>84.0</ele><time>2026-04-19T09:00:33Z</time></trkpt><trkpt lat="45.2307369635275" lon="9.139205084453904"><ele>84.0</ele><time>2026-04-19T09:00:35.001Z</time></trkpt><trkpt lat="45.23079905490542" lon="9.139180689842119"><ele>84.0</ele><time>2026-04-19T09:00:36.001Z</time></trkpt><trkpt lat="45.230861576175485" lon="9.139157302480848"><ele>84.0</ele><time>2026-04-19T09:00:37.001Z</time></trkpt><trkpt lat="45.23092388296406" lon="9.139134668731868"><ele>84.0</ele><time>2026-04-19T09:00:38.001Z</time></trkpt><trkpt lat="45.230985385312394" lon="9.139111707326952"><ele>84.0</ele><time>2026-04-19T09:00:39.001Z</time></trkpt><trkpt lat="45.231046429130636" lon="9.139087601652376"><ele>84.0</ele><time>2026-04-19T09:00:40.001Z</time></trkpt><trkpt lat="45.23110755377253" lon="9.139063685813928"><ele>83.6</ele><time>2026-04-19T09:00:41.001Z</time></trkpt><trkpt lat="45.231169007341954" lon="9.139040313728316"><ele>83.2</ele><time>2026-04-19T09:00:42.001Z</time></trkpt><trkpt lat="45.2312905987646" lon="9.13899041567966"><ele>82.8</ele><time>2026-04-19T09:00:44.001Z</time></trkpt><trkpt lat="45.231412361191815" lon="9.138941910706984"><ele>82.39999999999999</ele><time>2026-04-19T09:00:46.001Z</time></trkpt><trkpt lat="45.231473093733314" lon="9.138918035143218"><ele>82.0</ele><time>2026-04-19T09:00:47.001Z</time></trkpt><trkpt lat="45.231594920724866" lon="9.13887417128888"><ele>82.0</ele><time>2026-04-19T09:00:49.001Z</time></trkpt><trkpt lat="45.23171322098924" lon="9.1388236861175"><ele>82.0</ele><time>2026-04-19T09:00:51.001Z</time></trkpt><trkpt lat="45.23177436212424" lon="9.138799335022588"><ele>82.0</ele><time>2026-04-19T09:00:52.001Z</time></trkpt><trkpt lat="45.23189471928962" lon="9.138755785593922"><ele>82.0</ele><time>2026-04-19T09:00:54.001Z</time></trkpt><trkpt lat="45.23201571013254" lon="9.138715908147699"><ele>82.0</ele><time>2026-04-19T09:00:56.001Z</time></trkpt><trkpt lat="45.23213365394301" lon="9.138670397108925"><ele>82.0</ele><time>2026-04-19T09:00:58.001Z</time></trkpt><trkpt lat="45.23224844536423" lon="9.138625701995382"><ele>82.0</ele><time>2026-04-19T09:01:00.001Z</time></trkpt><trkpt lat="45.23236608293867" lon="9.138583215749604"><ele>82.0</ele><time>2026-04-19T09:01:02.001Z</time></trkpt><trkpt lat="45.23248500078296" lon="9.138532354112995"><ele>82.0</ele><time>2026-04-19T09:01:04.001Z</time></trkpt><trkpt lat="45.2326010109267" lon="9.1384899087486"><ele>82.25</ele><time>2026-04-19T09:01:06.001Z</time></trkpt><trkpt lat="45.232719181309186" lon="9.138447485347978"><ele>82.5</ele><time>2026-04-19T09:01:08.001Z</time></trkpt><trkpt lat="45.23283807600356" lon="9.138405968405648"><ele>82.75</ele><time>2026-04-19T09:01:10.001Z</time></trkpt><trkpt lat="45.23295631184946" lon="9.138362956604746"><ele>83.0</ele><time>2026-04-19T09:01:12.001Z</time></trkpt><trkpt lat="45.23307372793083" lon="9.138313870533375"><ele>83.25</ele><time>2026-04-19T09:01:14.001Z</time></trkpt><trkpt lat="45.23319032686115" lon="9.138268509817411"><ele>83.5</ele><time>2026-04-19T09:01:16.001Z</time></trkpt><trkpt lat="45.23330752021008" lon="9.138221492283558"><ele>83.75</ele><time>2026-04-19T09:01:18.001Z</time></trkpt><trkpt lat="45.23342489435669" lon="9.138181279804748"><ele>84.0</ele><time>2026-04-19T09:01:20.001Z</time></trkpt><trkpt lat="45.23353935963047" lon="9.138138718165216"><ele>84.0</ele><time>2026-04-19T09:01:22.001Z</time></trkpt><trkpt lat="45.23365319714916" lon="9.138083953002502"><ele>84.0</ele><time>2026-04-19T09:01:24.001Z</time></trkpt><trkpt lat="45.233766558766646" lon="9.138041498493138"><ele>84.0</ele><time>2026-04-19T09:01:26.001Z</time></trkpt><trkpt lat="45.233881617419314" lon="9.137998483615103"><ele>84.0</ele><time>2026-04-19T09:01:28.001Z</time></trkpt><trkpt lat="45.233996065869526" lon="9.137955448361257"><ele>84.0</ele><time>2026-04-19T09:01:30.001Z</time></trkpt><trkpt lat="45.234113249353875" lon="9.137914648954872"><ele>84.0</ele><time>2026-04-19T09:01:32.001Z</time></trkpt><trkpt lat="45.234228685284705" lon="9.137866767067745"><ele>84.0</ele><time>2026-04-19T09:01:34.001Z</time></trkpt><trkpt lat="45.23434418284766" lon="9.137820992303736"><ele>84.0</ele><time>2026-04-19T09:01:36.001Z</time></trkpt><trkpt lat="45.23446543367138" lon="9.137775046644938"><ele>84.0</ele><time>2026-04-19T09:01:38.001Z</time></trkpt><trkpt lat="45.23458432788652" lon="9.137732954302887"><ele>84.0</ele><time>2026-04-19T09:01:40.001Z</time></trkpt><trkpt lat="45.234700853388794" lon="9.137683191722417"><ele>84.0</ele><time>2026-04-19T09:01:42.001Z</time></trkpt><trkpt lat="45.23481626335025" lon="9.137637238652976"><ele>84.0</ele><time>2026-04-19T09:01:44.001Z</time></trkpt><trkpt lat="45.23493386463724" lon="9.137591099273067"><ele>84.25</ele><time>2026-04-19T09:01:46.001Z</time></trkpt><trkpt lat="45.23505260847741" lon="9.137547966474994"><ele>84.5</ele><time>2026-04-19T09:01:48.001Z</time></trkpt><trkpt lat="45.23516849061987" lon="9.137508907886101"><ele>84.75</ele><time>2026-04-19T09:01:50.001Z</time></trkpt><trkpt lat="45.23528925389383" lon="9.137461208007128"><ele>85.0</ele><time>2026-04-19T09:01:52.001Z</time></trkpt><trkpt lat="45.23540674172905" lon="9.137412732069192"><ele>85.25</ele><time>2026-04-19T09:01:54.001Z</time></trkpt><trkpt lat="45.23552405774907" lon="9.137371240299705"><ele>85.5</ele><time>2026-04-19T09:01:56.001Z</time></trkpt><trkpt lat="45.235640384956675" lon="9.137322655884878"><ele>85.75</ele><time>2026-04-19T09:01:58.001Z</time></trkpt><trkpt lat="45.23575784114496" lon="9.1372916941455"><ele>86.0</ele><time>2026-04-19T09:02:00.001Z</time></trkpt><trkpt lat="45.235875567346504" lon="9.13722561250762"><ele>85.66666666666667</ele><time>2026-04-19T09:02:02.001Z</time></trkpt><trkpt lat="45.23593957266589" lon="9.137203699482027"><ele>85.33333333333334</ele><time>2026-04-19T09:02:03.001Z</time></trkpt><trkpt lat="45.23604833936737" lon="9.13713282632626"><ele>85.0</ele><time>2026-04-19T09:02:05.001Z</time></trkpt><trkpt lat="45.23611016784886" lon="9.137114576299378"><ele>84.66666666666667</ele><time>2026-04-19T09:02:06.001Z</time></trkpt><trkpt lat="45.236229464175956" lon="9.137065721871293"><ele>84.33333333333333</ele><time>2026-04-19T09:02:08.001Z</time></trkpt><trkpt lat="45.23629071423644" lon="9.13704237662791"><ele>84.0</ele><time>2026-04-19T09:02:09.001Z</time></trkpt><trkpt lat="45.2364088609436" lon="9.136995084898318"><ele>84.25</ele><time>2026-04-19T09:02:11.001Z</time></trkpt><trkpt lat="45.23652815915529" lon="9.136950897036472"><ele>84.5</ele><time>2026-04-19T09:02:13.001Z</time></trkpt><trkpt lat="45.236648729544626" lon="9.136905060847454"><ele>84.75</ele><time>2026-04-19T09:02:15.001Z</time></trkpt><trkpt lat="45.23676999615167" lon="9.136860673716994"><ele>85.0</ele><time>2026-04-19T09:02:17.001Z</time></trkpt><trkpt lat="45.23688967218707" lon="9.136812761300336"><ele>85.0</ele><time>2026-04-19T09:02:19.001Z</time></trkpt><trkpt lat="45.237009711368366" lon="9.136766204553087"><ele>85.0</ele><time>2026-04-19T09:02:21.001Z</time></trkpt><trkpt lat="45.23713169888787" lon="9.136714989904986"><ele>85.0</ele><time>2026-04-19T09:02:23Z</time></trkpt><trkpt lat="45.237192906278494" lon="9.136691018702257"><ele>85.0</ele><time>2026-04-19T09:02:24Z</time></trkpt><trkpt lat="45.23731414414621" lon="9.13664140215185"><ele>85.0</ele><time>2026-04-19T09:02:26Z</time></trkpt><trkpt lat="45.23737572988577" lon="9.136619491526703"><ele>84.83333333333333</ele><time>2026-04-19T09:02:27Z</time></trkpt><trkpt lat="45.23743737537348" lon="9.136598000763403"><ele>84.66666666666666</ele><time>2026-04-19T09:02:28Z</time></trkpt><trkpt lat="45.23755930007761" lon="9.136549590744945"><ele>84.5</ele><time>2026-04-19T09:02:30Z</time></trkpt><trkpt lat="45.237620601992" lon="9.13652750304365"><ele>84.33333333333333</ele><time>2026-04-19T09:02:31Z</time></trkpt><trkpt lat="45.23768228143022" lon="9.136505712922258"><ele>84.16666666666667</ele><time>2026-04-19T09:02:32Z</time></trkpt><trkpt lat="45.237743676513865" lon="9.136484779652971"><ele>84.0</ele><time>2026-04-19T09:02:33Z</time></trkpt><trkpt lat="45.23786617990158" lon="9.136453849489518"><ele>83.85714285714286</ele><time>2026-04-19T09:02:35Z</time></trkpt><trkpt lat="45.237986768879175" lon="9.136408089496301"><ele>83.71428571428572</ele><time>2026-04-19T09:02:37Z</time></trkpt><trkpt lat="45.23804915369185" lon="9.136384174962716"><ele>83.57142857142857</ele><time>2026-04-19T09:02:38Z</time></trkpt><trkpt lat="45.23811092685748" lon="9.136360392753256"><ele>83.42857142857143</ele><time>2026-04-19T09:02:39Z</time></trkpt><trkpt lat="45.238173010490655" lon="9.13633635383235"><ele>83.28571428571429</ele><time>2026-04-19T09:02:40Z</time></trkpt><trkpt lat="45.23823376576617" lon="9.136309954578921"><ele>83.14285714285714</ele><time>2026-04-19T09:02:41Z</time></trkpt><trkpt lat="45.23829601524117" lon="9.136283824177186"><ele>83.0</ele><time>2026-04-19T09:02:42Z</time></trkpt><trkpt lat="45.23835717875926" lon="9.136258528425964"><ele>83.0</ele><time>2026-04-19T09:02:43Z</time></trkpt><trkpt lat="45.23842044644346" lon="9.136235281304934"><ele>83.0</ele><time>2026-04-19T09:02:44Z</time></trkpt><trkpt lat="45.23848341221183" lon="9.136212518009465"><ele>83.0</ele><time>2026-04-19T09:02:45.001Z</time></trkpt><trkpt lat="45.23854523344439" lon="9.136189246160146"><ele>83.0</ele><time>2026-04-19T09:02:46.001Z</time></trkpt><trkpt lat="45.238608410725014" lon="9.136166337355908"><ele>83.0</ele><time>2026-04-19T09:02:47.001Z</time></trkpt><trkpt lat="45.23867055970656" lon="9.13614185247704"><ele>83.0</ele><time>2026-04-19T09:02:48.001Z</time></trkpt><trkpt lat="45.2387327771654" lon="9.136117681566791"><ele>83.0</ele><time>2026-04-19T09:02:49.001Z</time></trkpt><trkpt lat="45.23879510205189" lon="9.136093295794401"><ele>83.0</ele><time>2026-04-19T09:02:50.001Z</time></trkpt><trkpt lat="45.23885760109775" lon="9.136069165375767"><ele>83.0</ele><time>2026-04-19T09:02:51.001Z</time></trkpt><trkpt lat="45.23892091035226" lon="9.136045016085037"><ele>83.0</ele><time>2026-04-19T09:02:52.001Z</time></trkpt><trkpt lat="45.23898409267173" lon="9.136018689456062"><ele>83.0</ele><time>2026-04-19T09:02:53.001Z</time></trkpt><trkpt lat="45.2390464598896" lon="9.135995621885993"><ele>83.0</ele><time>2026-04-19T09:02:54.001Z</time></trkpt><trkpt lat="45.239108550639564" lon="9.135973527946923"><ele>83.0</ele><time>2026-04-19T09:02:55.001Z</time></trkpt><trkpt lat="45.23922645364651" lon="9.135928847221152"><ele>83.0</ele><time>2026-04-19T09:02:57.001Z</time></trkpt><trkpt lat="45.239335820426135" lon="9.13588885228003"><ele>83.16666666666667</ele><time>2026-04-19T09:02:59.001Z</time></trkpt><trkpt lat="45.23944033544173" lon="9.13585379606369"><ele>83.33333333333334</ele><time>2026-04-19T09:03:01.001Z</time></trkpt><trkpt lat="45.239528760279434" lon="9.135825107993597"><ele>83.5</ele><time>2026-04-19T09:03:03.001Z</time></trkpt><trkpt lat="45.23959200163903" lon="9.135815149524268"><ele>83.66666666666667</ele><time>2026-04-19T09:03:05.001Z</time></trkpt><trkpt lat="45.239665896554506" lon="9.135780715477472"><ele>83.83333333333333</ele><time>2026-04-19T09:03:08.001Z</time></trkpt><trkpt lat="45.23974105400667" lon="9.135769764175798"><ele>84.0</ele><time>2026-04-19T09:03:10.001Z</time></trkpt><trkpt lat="45.23983146586364" lon="9.135729078532083"><ele>83.83333333333333</ele><time>2026-04-19T09:03:12.001Z</time></trkpt><trkpt lat="45.23994208595286" lon="9.135662035951151"><ele>83.66666666666667</ele><time>2026-04-19T09:03:14.001Z</time></trkpt><trkpt lat="45.240055490497205" lon="9.135611325458282"><ele>83.5</ele><time>2026-04-19T09:03:16.001Z</time></trkpt><trkpt lat="45.24011715894022" lon="9.13558463873472"><ele>83.33333333333334</ele><time>2026-04-19T09:03:17.001Z</time></trkpt><trkpt lat="45.240178673269284" lon="9.135559925531716"><ele>83.16666666666667</ele><time>2026-04-19T09:03:18.001Z</time></trkpt><trkpt lat="45.24024119037212" lon="9.135535695341742"><ele>83.0</ele><time>2026-04-19T09:03:19.001Z</time></trkpt><trkpt lat="45.2403028626123" lon="9.135508919345838"><ele>83.0</ele><time>2026-04-19T09:03:20.001Z</time></trkpt><trkpt lat="45.24036401348453" lon="9.135481811977135"><ele>83.0</ele><time>2026-04-19T09:03:21.001Z</time></trkpt><trkpt lat="45.240425951242166" lon="9.135455369132893"><ele>83.0</ele><time>2026-04-19T09:03:22.001Z</time></trkpt><trkpt lat="45.240488185787356" lon="9.13543194891135"><ele>83.0</ele><time>2026-04-19T09:03:23.001Z</time></trkpt><trkpt lat="45.240551666238" lon="9.135406293021186"><ele>83.0</ele><time>2026-04-19T09:03:24.001Z</time></trkpt><trkpt lat="45.24061532099601" lon="9.13538739935576"><ele>83.0</ele><time>2026-04-19T09:03:25.001Z</time></trkpt><trkpt lat="45.24067888295896" lon="9.13536244476662"><ele>83.0</ele><time>2026-04-19T09:03:26.001Z</time></trkpt><trkpt lat="45.24074133737585" lon="9.135337123441206"><ele>83.2</ele><time>2026-04-19T09:03:27.001Z</time></trkpt><trkpt lat="45.240802529375266" lon="9.135310603331897"><ele>83.4</ele><time>2026-04-19T09:03:28.001Z</time></trkpt><trkpt lat="45.240864167868985" lon="9.135286007205142"><ele>83.60000000000001</ele><time>2026-04-19T09:03:29.001Z</time></trkpt><trkpt lat="45.2409833971052" lon="9.135237336041284"><ele>83.80000000000001</ele><time>2026-04-19T09:03:31.001Z</time></trkpt><trkpt lat="45.24110048919343" lon="9.135190977225838"><ele>84.0</ele><time>2026-04-19T09:03:33.001Z</time></trkpt><trkpt lat="45.24121581977688" lon="9.135151351249236"><ele>84.0</ele><time>2026-04-19T09:03:35.001Z</time></trkpt><trkpt lat="45.24133184092729" lon="9.135124226212348"><ele>84.0</ele><time>2026-04-19T09:03:37.001Z</time></trkpt><trkpt lat="45.24144873072055" lon="9.135085022889488"><ele>84.0</ele><time>2026-04-19T09:03:39.001Z</time></trkpt><trkpt lat="45.24156364538867" lon="9.135038393857107"><ele>84.0</ele><time>2026-04-19T09:03:41.001Z</time></trkpt><trkpt lat="45.241681193977655" lon="9.134996979991609"><ele>84.25</ele><time>2026-04-19T09:03:43.001Z</time></trkpt><trkpt lat="45.24179772003352" lon="9.134951361494275"><ele>84.5</ele><time>2026-04-19T09:03:45.001Z</time></trkpt><trkpt lat="45.24191165213517" lon="9.134906976379133"><ele>84.75</ele><time>2026-04-19T09:03:47.001Z</time></trkpt><trkpt lat="45.24202435749952" lon="9.134863030154722"><ele>85.0</ele><time>2026-04-19T09:03:49.001Z</time></trkpt><trkpt lat="45.242138779633564" lon="9.134818161284928"><ele>85.0</ele><time>2026-04-19T09:03:51.001Z</time></trkpt><trkpt lat="45.242249586480945" lon="9.134772317219687"><ele>85.0</ele><time>2026-04-19T09:03:53.001Z</time></trkpt><trkpt lat="45.24236127892041" lon="9.134731902997682"><ele>85.0</ele><time>2026-04-19T09:03:55.001Z</time></trkpt><trkpt lat="45.242473770653916" lon="9.134686841934617"><ele>85.0</ele><time>2026-04-19T09:03:57.001Z</time></trkpt><trkpt lat="45.24258460478777" lon="9.134644172058083"><ele>84.75</ele><time>2026-04-19T09:03:59.001Z</time></trkpt><trkpt lat="45.24269764058268" lon="9.13460313843349"><ele>84.5</ele><time>2026-04-19T09:04:01.001Z</time></trkpt><trkpt lat="45.24281030123966" lon="9.13455944803697"><ele>84.25</ele><time>2026-04-19T09:04:03.001Z</time></trkpt><trkpt lat="45.24292364638893" lon="9.134513971815673"><ele>84.0</ele><time>2026-04-19T09:04:05.001Z</time></trkpt><trkpt lat="45.24303850645309" lon="9.134467913787951"><ele>84.25</ele><time>2026-04-19T09:04:07.001Z</time></trkpt><trkpt lat="45.243154520542575" lon="9.134423261306337"><ele>84.5</ele><time>2026-04-19T09:04:09.001Z</time></trkpt><trkpt lat="45.243271762114055" lon="9.134380424379492"><ele>84.75</ele><time>2026-04-19T09:04:11.001Z</time></trkpt><trkpt lat="45.24338734995629" lon="9.13433042345123"><ele>85.0</ele><time>2026-04-19T09:04:13.001Z</time></trkpt><trkpt lat="45.243500469278224" lon="9.1342799372863"><ele>85.0</ele><time>2026-04-19T09:04:15.001Z</time></trkpt><trkpt lat="45.24361555829833" lon="9.134232315631403"><ele>85.0</ele><time>2026-04-19T09:04:17.001Z</time></trkpt><trkpt lat="45.24373247588649" lon="9.134184922109476"><ele>85.0</ele><time>2026-04-19T09:04:19.001Z</time></trkpt><trkpt lat="45.243850976679084" lon="9.134147680013527"><ele>85.0</ele><time>2026-04-19T09:04:21.001Z</time></trkpt><trkpt lat="45.24396809667555" lon="9.134102886326048"><ele>84.75</ele><time>2026-04-19T09:04:23.001Z</time></trkpt><trkpt lat="45.244085910961026" lon="9.134056360007488"><ele>84.5</ele><time>2026-04-19T09:04:25.001Z</time></trkpt><trkpt lat="45.24420435239278" lon="9.134006867879245"><ele>84.25</ele><time>2026-04-19T09:04:27.001Z</time></trkpt><trkpt lat="45.2443237042513" lon="9.133958157432598"><ele>84.0</ele><time>2026-04-19T09:04:29Z</time></trkpt><trkpt lat="45.244442077673824" lon="9.13391441138036"><ele>83.75</ele><time>2026-04-19T09:04:31Z</time></trkpt><trkpt lat="45.24456255333819" lon="9.133868914262557"><ele>83.5</ele><time>2026-04-19T09:04:33Z</time></trkpt><trkpt lat="45.24468249449447" lon="9.133825527297796"><ele>83.25</ele><time>2026-04-19T09:04:35Z</time></trkpt><trkpt lat="45.24479998042812" lon="9.133772290892953"><ele>83.0</ele><time>2026-04-19T09:04:37Z</time></trkpt><trkpt lat="45.24491998438348" lon="9.13372926373687"><ele>83.5</ele><time>2026-04-19T09:04:39Z</time></trkpt><trkpt lat="45.245039406098435" lon="9.133683951166361"><ele>84.0</ele><time>2026-04-19T09:04:41Z</time></trkpt><trkpt lat="45.24515779149816" lon="9.133636881539426"><ele>84.5</ele><time>2026-04-19T09:04:43Z</time></trkpt><trkpt lat="45.245278760063776" lon="9.133592938555818"><ele>85.0</ele><time>2026-04-19T09:04:45Z</time></trkpt><trkpt lat="45.245395720779655" lon="9.13354251637679"><ele>85.0</ele><time>2026-04-19T09:04:47Z</time></trkpt><trkpt lat="45.24551338917524" lon="9.13349216820514"><ele>85.0</ele><time>2026-04-19T09:04:49Z</time></trkpt><trkpt lat="45.24563263448279" lon="9.133451416819224"><ele>85.0</ele><time>2026-04-19T09:04:51Z</time></trkpt><trkpt lat="45.245751226712855" lon="9.133413746445692"><ele>85.0</ele><time>2026-04-19T09:04:53Z</time></trkpt><trkpt lat="45.24586876497298" lon="9.133358998422366"><ele>85.0</ele><time>2026-04-19T09:04:55.001Z</time></trkpt><trkpt lat="45.245985477964865" lon="9.133298770414417"><ele>85.0</ele><time>2026-04-19T09:04:57.001Z</time></trkpt><trkpt lat="45.24610561148741" lon="9.13326627738501"><ele>85.0</ele><time>2026-04-19T09:04:59.001Z</time></trkpt><trkpt lat="45.246224084681714" lon="9.133218679192122"><ele>85.0</ele><time>2026-04-19T09:05:01.001Z</time></trkpt><trkpt lat="45.24634239264034" lon="9.133170675752165"><ele>85.25</ele><time>2026-04-19T09:05:03.001Z</time></trkpt><trkpt lat="45.246461469917094" lon="9.133124973480397"><ele>85.5</ele><time>2026-04-19T09:05:05.001Z</time></trkpt><trkpt lat="45.24657908156298" lon="9.133076768711293"><ele>85.75</ele><time>2026-04-19T09:05:07.001Z</time></trkpt><trkpt lat="45.24670020440652" lon="9.133031373625736"><ele>86.0</ele><time>2026-04-19T09:05:09.001Z</time></trkpt><trkpt lat="45.24682090508518" lon="9.132987053848172"><ele>86.0</ele><time>2026-04-19T09:05:11.001Z</time></trkpt><trkpt lat="45.24694213428998" lon="9.132941693727993"><ele>86.0</ele><time>2026-04-19T09:05:13.001Z</time></trkpt><trkpt lat="45.24700386853584" lon="9.132920317791816"><ele>86.0</ele><time>2026-04-19T09:05:14.001Z</time></trkpt><trkpt lat="45.24706501998489" lon="9.132898990413558"><ele>86.0</ele><time>2026-04-19T09:05:15.001Z</time></trkpt><trkpt lat="45.24718534345671" lon="9.132857130404908"><ele>86.0</ele><time>2026-04-19T09:05:17.001Z</time></trkpt><trkpt lat="45.24724616405319" lon="9.13283061623743"><ele>86.0</ele><time>2026-04-19T09:05:18.001Z</time></trkpt><trkpt lat="45.24736752995938" lon="9.132779231737683"><ele>85.75</ele><time>2026-04-19T09:05:20.001Z</time></trkpt><trkpt lat="45.24748854286697" lon="9.132731698128781"><ele>85.5</ele><time>2026-04-19T09:05:22.001Z</time></trkpt><trkpt lat="45.24760894133648" lon="9.132686388941321"><ele>85.25</ele><time>2026-04-19T09:05:24.001Z</time></trkpt><trkpt lat="45.24772920886622" lon="9.132636425538777"><ele>85.0</ele><time>2026-04-19T09:05:26.001Z</time></trkpt><trkpt lat="45.24785187363407" lon="9.132599187752948"><ele>85.0</ele><time>2026-04-19T09:05:28.001Z</time></trkpt><trkpt lat="45.24797435392365" lon="9.132559322652305"><ele>85.0</ele><time>2026-04-19T09:05:30.001Z</time></trkpt><trkpt lat="45.24803502393796" lon="9.132535055219304"><ele>85.0</ele><time>2026-04-19T09:05:31.001Z</time></trkpt><trkpt lat="45.24809788192946" lon="9.132509820527872"><ele>85.0</ele><time>2026-04-19T09:05:32.001Z</time></trkpt><trkpt lat="45.24816102316242" lon="9.132488985787624"><ele>85.0</ele><time>2026-04-19T09:05:33.001Z</time></trkpt><trkpt lat="45.24822320285427" lon="9.1324669204064"><ele>85.0</ele><time>2026-04-19T09:05:34.001Z</time></trkpt><trkpt lat="45.24828595983656" lon="9.132442279443515"><ele>85.0</ele><time>2026-04-19T09:05:35.001Z</time></trkpt><trkpt lat="45.248348330022445" lon="9.132421248336911"><ele>85.0</ele><time>2026-04-19T09:05:36.001Z</time></trkpt><trkpt lat="45.2484112625697" lon="9.132397728112663"><ele>85.0</ele><time>2026-04-19T09:05:37.001Z</time></trkpt><trkpt lat="45.248476013915344" lon="9.132377550981424"><ele>85.0</ele><time>2026-04-19T09:05:38.001Z</time></trkpt><trkpt lat="45.24853866794623" lon="9.132354212574477"><ele>85.0</ele><time>2026-04-19T09:05:39.001Z</time></trkpt><trkpt lat="45.24860314383455" lon="9.132328723920159"><ele>85.0</ele><time>2026-04-19T09:05:40.001Z</time></trkpt><trkpt lat="45.24866776377179" lon="9.132302649841302"><ele>85.0</ele><time>2026-04-19T09:05:41.001Z</time></trkpt><trkpt lat="45.24873187154798" lon="9.132279651803998"><ele>85.0</ele><time>2026-04-19T09:05:42.001Z</time></trkpt><trkpt lat="45.24879622679097" lon="9.132257053149893"><ele>85.0</ele><time>2026-04-19T09:05:43.001Z</time></trkpt><trkpt lat="45.24886064832845" lon="9.132233284978044"><ele>85.0</ele><time>2026-04-19T09:05:44.001Z</time></trkpt><trkpt lat="45.248923813237546" lon="9.132209558003805"><ele>85.0</ele><time>2026-04-19T09:05:45.001Z</time></trkpt><trkpt lat="45.248987917074686" lon="9.132186560676853"><ele>85.0</ele><time>2026-04-19T09:05:46.001Z</time></trkpt><trkpt lat="45.24905188730809" lon="9.132161958117292"><ele>85.0</ele><time>2026-04-19T09:05:47.001Z</time></trkpt><trkpt lat="45.249115414940505" lon="9.132136380138615"><ele>85.0</ele><time>2026-04-19T09:05:48.001Z</time></trkpt><trkpt lat="45.24917988329718" lon="9.132113835224025"><ele>85.0</ele><time>2026-04-19T09:05:49.001Z</time></trkpt><trkpt lat="45.249243942937696" lon="9.13209100787282"><ele>85.0</ele><time>2026-04-19T09:05:50.001Z</time></trkpt><trkpt lat="45.249305924466675" lon="9.132063755744754"><ele>85.0</ele><time>2026-04-19T09:05:51.001Z</time></trkpt><trkpt lat="45.24936850653665" lon="9.132037470097742"><ele>85.0</ele><time>2026-04-19T09:05:52.001Z</time></trkpt><trkpt lat="45.24943090631229" lon="9.132016697451075"><ele>85.0</ele><time>2026-04-19T09:05:53.001Z</time></trkpt><trkpt lat="45.24949354778155" lon="9.131995715062038"><ele>85.0</ele><time>2026-04-19T09:05:54.001Z</time></trkpt><trkpt lat="45.24955580179956" lon="9.13197113210454"><ele>85.0</ele><time>2026-04-19T09:05:55.001Z</time></trkpt><trkpt lat="45.249617575901596" lon="9.131947372291423"><ele>85.0</ele><time>2026-04-19T09:05:56.001Z</time></trkpt><trkpt lat="45.24967991921295" lon="9.131921269511343"><ele>85.0</ele><time>2026-04-19T09:05:57.001Z</time></trkpt><trkpt lat="45.249740743534986" lon="9.131894351236422"><ele>85.0</ele><time>2026-04-19T09:05:58.001Z</time></trkpt><trkpt lat="45.249801417957876" lon="9.131865907414"><ele>85.0</ele><time>2026-04-19T09:05:59.001Z</time></trkpt><trkpt lat="45.24986310661673" lon="9.131846264465192"><ele>85.0</ele><time>2026-04-19T09:06:00.001Z</time></trkpt><trkpt lat="45.249925914516815" lon="9.131829782416592"><ele>85.0</ele><time>2026-04-19T09:06:01.001Z</time></trkpt><trkpt lat="45.24998790373431" lon="9.1318093096315"><ele>85.0</ele><time>2026-04-19T09:06:02.001Z</time></trkpt><trkpt lat="45.25004948349902" lon="9.131788377476255"><ele>85.0</ele><time>2026-04-19T09:06:03.001Z</time></trkpt><trkpt lat="45.25017189361107" lon="9.131751320877086"><ele>84.8</ele><time>2026-04-19T09:06:05.001Z</time></trkpt><trkpt lat="45.250236649103286" lon="9.131733904551602"><ele>84.6</ele><time>2026-04-19T09:06:06.001Z</time></trkpt><trkpt lat="45.25036026477374" lon="9.131703641848107"><ele>84.4</ele><time>2026-04-19T09:06:08.001Z</time></trkpt><trkpt lat="45.25048224767571" lon="9.131676763914333"><ele>84.2</ele><time>2026-04-19T09:06:10.001Z</time></trkpt><trkpt lat="45.250603523797125" lon="9.131651589673517"><ele>84.0</ele><time>2026-04-19T09:06:12.001Z</time></trkpt><trkpt lat="45.25072039649518" lon="9.131638363170637"><ele>84.75</ele><time>2026-04-19T09:06:14.001Z</time></trkpt><trkpt lat="45.250840730412676" lon="9.131628587277072"><ele>85.5</ele><time>2026-04-19T09:06:16.001Z</time></trkpt><trkpt lat="45.25095891200716" lon="9.131616406260205"><ele>86.25</ele><time>2026-04-19T09:06:18.001Z</time></trkpt><trkpt lat="45.25107606430833" lon="9.131610971459654"><ele>87.0</ele><time>2026-04-19T09:06:20.001Z</time></trkpt><trkpt lat="45.25119169845877" lon="9.131611261864908"><ele>87.0</ele><time>2026-04-19T09:06:22.001Z</time></trkpt><trkpt lat="45.251308032741164" lon="9.131612982816254"><ele>87.0</ele><time>2026-04-19T09:06:24.001Z</time></trkpt><trkpt lat="45.25141841994758" lon="9.131614999135223"><ele>87.0</ele><time>2026-04-19T09:06:26.001Z</time></trkpt><trkpt lat="45.251528811164995" lon="9.131617681472221"><ele>87.0</ele><time>2026-04-19T09:06:28.001Z</time></trkpt><trkpt lat="45.251641794435685" lon="9.131614985828547"><ele>86.8</ele><time>2026-04-19T09:06:30.001Z</time></trkpt><trkpt lat="45.25175375515086" lon="9.131614396543291"><ele>86.6</ele><time>2026-04-19T09:06:32.001Z</time></trkpt><trkpt lat="45.25186386928185" lon="9.131611867809227"><ele>86.39999999999999</ele><time>2026-04-19T09:06:34.001Z</time></trkpt><trkpt lat="45.25197153067297" lon="9.131621570902292"><ele>86.19999999999999</ele><time>2026-04-19T09:06:36Z</time></trkpt><trkpt lat="45.252080239075845" lon="9.131624958347135"><ele>86.0</ele><time>2026-04-19T09:06:38Z</time></trkpt><trkpt lat="45.252187566271196" lon="9.13162339152513"><ele>86.6</ele><time>2026-04-19T09:06:40Z</time></trkpt><trkpt lat="45.25229326164479" lon="9.131623860961868"><ele>87.19999999999999</ele><time>2026-04-19T09:06:42Z</time></trkpt><trkpt lat="45.25239662572452" lon="9.131623744670135"><ele>87.80000000000001</ele><time>2026-04-19T09:06:44Z</time></trkpt><trkpt lat="45.252499741953955" lon="9.131621616222843"><ele>88.4</ele><time>2026-04-19T09:06:46Z</time></trkpt><trkpt lat="45.25260202337787" lon="9.131622025184061"><ele>89.0</ele><time>2026-04-19T09:06:48Z</time></trkpt><trkpt lat="45.25270293568959" lon="9.131609740232587"><ele>89.0</ele><time>2026-04-19T09:06:50Z</time></trkpt><trkpt lat="45.2528037122048" lon="9.131578270975943"><ele>89.0</ele><time>2026-04-19T09:06:52Z</time></trkpt><trkpt lat="45.25289156741151" lon="9.131551764557456"><ele>89.0</ele><time>2026-04-19T09:06:54Z</time></trkpt><trkpt lat="45.25299350073985" lon="9.131519984979429"><ele>89.0</ele><time>2026-04-19T09:06:56.001Z</time></trkpt><trkpt lat="45.25308516041466" lon="9.1314916116495"><ele>89.0</ele><time>2026-04-19T09:06:58.001Z</time></trkpt><trkpt lat="45.25316564408079" lon="9.131463390599752"><ele>89.33333333333334</ele><time>2026-04-19T09:07:00.001Z</time></trkpt><trkpt lat="45.25324892817429" lon="9.131437513613648"><ele>89.66666666666667</ele><time>2026-04-19T09:07:03.001Z</time></trkpt><trkpt lat="45.25333897380894" lon="9.131397371924914"><ele>90.0</ele><time>2026-04-19T09:07:06.001Z</time></trkpt><trkpt lat="45.253412971230276" lon="9.131365291724727"><ele>90.33333333333333</ele><time>2026-04-19T09:07:08.001Z</time></trkpt><trkpt lat="45.25349023903789" lon="9.131327922538356"><ele>90.66666666666666</ele><time>2026-04-19T09:07:10.001Z</time></trkpt><trkpt lat="45.253568659518095" lon="9.131279513933276"><ele>91.0</ele><time>2026-04-19T09:07:12.001Z</time></trkpt><trkpt lat="45.25365347237394" lon="9.1312403171324"><ele>91.0</ele><time>2026-04-19T09:07:14.001Z</time></trkpt><trkpt lat="45.25373991567408" lon="9.131196634721585"><ele>91.0</ele><time>2026-04-19T09:07:16.001Z</time></trkpt><trkpt lat="45.25383120281048" lon="9.131166778316803"><ele>91.0</ele><time>2026-04-19T09:07:18.001Z</time></trkpt><trkpt lat="45.25391388093755" lon="9.131108202829996"><ele>91.0</ele><time>2026-04-19T09:07:20.001Z</time></trkpt><trkpt lat="45.25400121977903" lon="9.13104786609095"><ele>91.0</ele><time>2026-04-19T09:07:22.001Z</time></trkpt><trkpt lat="45.254086884483996" lon="9.130999058005472"><ele>91.19999999999999</ele><time>2026-04-19T09:07:24.001Z</time></trkpt><trkpt lat="45.2541732859749" lon="9.130938109489337"><ele>91.39999999999999</ele><time>2026-04-19T09:07:26.001Z</time></trkpt><trkpt lat="45.25425693919815" lon="9.130863337569089"><ele>91.6</ele><time>2026-04-19T09:07:28.001Z</time></trkpt><trkpt lat="45.25434490312712" lon="9.130797436187741"><ele>91.8</ele><time>2026-04-19T09:07:30.001Z</time></trkpt><trkpt lat="45.25443530749903" lon="9.13072371986913"><ele>92.0</ele><time>2026-04-19T09:07:32.001Z</time></trkpt><trkpt lat="45.254528836081896" lon="9.130651125767187"><ele>91.39999999999999</ele><time>2026-04-19T09:07:34.001Z</time></trkpt><trkpt lat="45.254623052566465" lon="9.130579344865804"><ele>90.8</ele><time>2026-04-19T09:07:36.001Z</time></trkpt><trkpt lat="45.25471803990298" lon="9.130507280078664"><ele>90.2</ele><time>2026-04-19T09:07:38.001Z</time></trkpt><trkpt lat="45.25481098146405" lon="9.130427818021742"><ele>89.6</ele><time>2026-04-19T09:07:40.001Z</time></trkpt><trkpt lat="45.254906098068496" lon="9.130352369418091"><ele>89.0</ele><time>2026-04-19T09:07:42.001Z</time></trkpt><trkpt lat="45.255005145700096" lon="9.130281000621768"><ele>89.0</ele><time>2026-04-19T09:07:44.001Z</time></trkpt><trkpt lat="45.25510423586964" lon="9.130201631198714"><ele>89.0</ele><time>2026-04-19T09:07:46.001Z</time></trkpt><trkpt lat="45.25520635472834" lon="9.130123248016007"><ele>89.0</ele><time>2026-04-19T09:07:48.001Z</time></trkpt><trkpt lat="45.25530647070895" lon="9.130047361380282"><ele>89.0</ele><time>2026-04-19T09:07:50.001Z</time></trkpt><trkpt lat="45.25540599007606" lon="9.129969818040566"><ele>88.75</ele><time>2026-04-19T09:07:52.001Z</time></trkpt><trkpt lat="45.25550459333718" lon="9.129891026005613"><ele>88.5</ele><time>2026-04-19T09:07:54.001Z</time></trkpt><trkpt lat="45.25560283350236" lon="9.12981167810068"><ele>88.25</ele><time>2026-04-19T09:07:56.001Z</time></trkpt><trkpt lat="45.25570308476846" lon="9.1297379076554"><ele>88.0</ele><time>2026-04-19T09:07:58.001Z</time></trkpt><trkpt lat="45.255798418664725" lon="9.129656436358099"><ele>87.80000000000001</ele><time>2026-04-19T09:08:00.001Z</time></trkpt><trkpt lat="45.25588975437581" lon="9.129580830153994"><ele>87.6</ele><time>2026-04-19T09:08:02.001Z</time></trkpt><trkpt lat="45.25597822789403" lon="9.129506281723467"><ele>87.4</ele><time>2026-04-19T09:08:04.001Z</time></trkpt><trkpt lat="45.25606387288327" lon="9.129449663076155"><ele>87.19999999999999</ele><time>2026-04-19T09:08:06.001Z</time></trkpt><trkpt lat="45.25616004874801" lon="9.129388615845171"><ele>87.0</ele><time>2026-04-19T09:08:08.001Z</time></trkpt><trkpt lat="45.25625180537766" lon="9.129321169011314"><ele>87.0</ele><time>2026-04-19T09:08:10.001Z</time></trkpt><trkpt lat="45.25635556132035" lon="9.129275234435225"><ele>87.0</ele><time>2026-04-19T09:08:12.001Z</time></trkpt><trkpt lat="45.25645472280886" lon="9.129226492592316"><ele>87.0</ele><time>2026-04-19T09:08:14.001Z</time></trkpt><trkpt lat="45.25655954855776" lon="9.129193822053384"><ele>87.0</ele><time>2026-04-19T09:08:16.001Z</time></trkpt><trkpt lat="45.25666118073326" lon="9.12915007469695"><ele>87.0</ele><time>2026-04-19T09:08:18.001Z</time></trkpt><trkpt lat="45.25676621209063" lon="9.129112575354306"><ele>87.0</ele><time>2026-04-19T09:08:20.001Z</time></trkpt><trkpt lat="45.25687289670215" lon="9.129074763410612"><ele>87.0</ele><time>2026-04-19T09:08:22.001Z</time></trkpt><trkpt lat="45.25698103330552" lon="9.129033653247575"><ele>87.0</ele><time>2026-04-19T09:08:24.001Z</time></trkpt><trkpt lat="45.25703926110999" lon="9.128999432084553"><ele>87.0</ele><time>2026-04-19T09:08:25.001Z</time></trkpt><trkpt lat="45.25714706732955" lon="9.128974115367425"><ele>87.0</ele><time>2026-04-19T09:08:27.001Z</time></trkpt><trkpt lat="45.25725576634026" lon="9.12893442982528"><ele>86.75</ele><time>2026-04-19T09:08:29.001Z</time></trkpt><trkpt lat="45.25736370219678" lon="9.128903293516288"><ele>86.5</ele><time>2026-04-19T09:08:31.001Z</time></trkpt><trkpt lat="45.25747853561097" lon="9.12885696811382"><ele>86.25</ele><time>2026-04-19T09:08:33.001Z</time></trkpt><trkpt lat="45.25758390535664" lon="9.128807005471629"><ele>86.0</ele><time>2026-04-19T09:08:35.001Z</time></trkpt><trkpt lat="45.2576972096995" lon="9.128767972829017"><ele>86.0</ele><time>2026-04-19T09:08:37.001Z</time></trkpt><trkpt lat="45.25780347866869" lon="9.128728438264345"><ele>86.0</ele><time>2026-04-19T09:08:39.001Z</time></trkpt><trkpt lat="45.25791163903125" lon="9.128686748492692"><ele>86.0</ele><time>2026-04-19T09:08:41.001Z</time></trkpt><trkpt lat="45.258016103201996" lon="9.128638922896503"><ele>86.0</ele><time>2026-04-19T09:08:43.001Z</time></trkpt><trkpt lat="45.2581213248025" lon="9.128602421038813"><ele>86.0</ele><time>2026-04-19T09:08:45.001Z</time></trkpt><trkpt lat="45.25822229014211" lon="9.128563215204425"><ele>86.4</ele><time>2026-04-19T09:08:47.001Z</time></trkpt><trkpt lat="45.258332226849866" lon="9.128519766892051"><ele>86.8</ele><time>2026-04-19T09:08:49.001Z</time></trkpt><trkpt lat="45.25844330404337" lon="9.12848345234148"><ele>87.2</ele><time>2026-04-19T09:08:51.001Z</time></trkpt><trkpt lat="45.25854859573457" lon="9.128442609876236"><ele>87.60000000000001</ele><time>2026-04-19T09:08:53.001Z</time></trkpt><trkpt lat="45.258656455431115" lon="9.128401618825814"><ele>88.0</ele><time>2026-04-19T09:08:55.001Z</time></trkpt><trkpt lat="45.25876263291602" lon="9.128365540526763"><ele>88.0</ele><time>2026-04-19T09:08:57.001Z</time></trkpt><trkpt lat="45.25887128142137" lon="9.128322299032892"><ele>88.0</ele><time>2026-04-19T09:08:59.001Z</time></trkpt><trkpt lat="45.25897520682091" lon="9.128277683371076"><ele>88.0</ele><time>2026-04-19T09:09:01.001Z</time></trkpt><trkpt lat="45.25908342054149" lon="9.128238510933995"><ele>88.0</ele><time>2026-04-19T09:09:03.001Z</time></trkpt><trkpt lat="45.25919198365774" lon="9.128202404436417"><ele>88.0</ele><time>2026-04-19T09:09:05.001Z</time></trkpt><trkpt lat="45.25930046291129" lon="9.12815815311332"><ele>87.5</ele><time>2026-04-19T09:09:07.001Z</time></trkpt><trkpt lat="45.259411776213234" lon="9.12811837651448"><ele>87.0</ele><time>2026-04-19T09:09:09.001Z</time></trkpt><trkpt lat="45.2595212044631" lon="9.128073047197619"><ele>86.5</ele><time>2026-04-19T09:09:11.001Z</time></trkpt><trkpt lat="45.25963524140274" lon="9.128031708617725"><ele>86.0</ele><time>2026-04-19T09:09:13.001Z</time></trkpt><trkpt lat="45.259747767235815" lon="9.127993527046305"><ele>86.0</ele><time>2026-04-19T09:09:15.001Z</time></trkpt><trkpt lat="45.25986130669" lon="9.127954221642314"><ele>86.0</ele><time>2026-04-19T09:09:17.001Z</time></trkpt><trkpt lat="45.259975792489875" lon="9.127912974458157"><ele>86.0</ele><time>2026-04-19T09:09:19.001Z</time></trkpt><trkpt lat="45.26008581849973" lon="9.127867750712499"><ele>86.0</ele><time>2026-04-19T09:09:21.001Z</time></trkpt><trkpt lat="45.26019641958023" lon="9.127824628787412"><ele>86.0</ele><time>2026-04-19T09:09:23.001Z</time></trkpt><trkpt lat="45.26031244604982" lon="9.12778395602304"><ele>86.0</ele><time>2026-04-19T09:09:25.001Z</time></trkpt><trkpt lat="45.26042635214767" lon="9.127741509669304"><ele>86.0</ele><time>2026-04-19T09:09:27.001Z</time></trkpt><trkpt lat="45.260539243610815" lon="9.1276988533367"><ele>86.0</ele><time>2026-04-19T09:09:29.001Z</time></trkpt><trkpt lat="45.26064972516033" lon="9.127658164948798"><ele>86.25</ele><time>2026-04-19T09:09:31.001Z</time></trkpt><trkpt lat="45.260758586684226" lon="9.12761371701875"><ele>86.5</ele><time>2026-04-19T09:09:33.001Z</time></trkpt><trkpt lat="45.260871110391065" lon="9.127570791486471"><ele>86.75</ele><time>2026-04-19T09:09:35.001Z</time></trkpt><trkpt lat="45.260984442912196" lon="9.127528619741932"><ele>87.0</ele><time>2026-04-19T09:09:37.001Z</time></trkpt><trkpt lat="45.26110090459474" lon="9.127488476442265"><ele>87.0</ele><time>2026-04-19T09:09:39.001Z</time></trkpt><trkpt lat="45.26121565464838" lon="9.127445214781222"><ele>87.0</ele><time>2026-04-19T09:09:41.001Z</time></trkpt><trkpt lat="45.2613306835191" lon="9.127403941099661"><ele>87.0</ele><time>2026-04-19T09:09:43.001Z</time></trkpt><trkpt lat="45.261446456009736" lon="9.127359055254496"><ele>87.0</ele><time>2026-04-19T09:09:45.001Z</time></trkpt><trkpt lat="45.2615612833541" lon="9.127302600166836"><ele>87.0</ele><time>2026-04-19T09:09:47.001Z</time></trkpt><trkpt lat="45.26167833005555" lon="9.12726863483655"><ele>87.0</ele><time>2026-04-19T09:09:49.001Z</time></trkpt><trkpt lat="45.26173934314082" lon="9.127246544842565"><ele>87.0</ele><time>2026-04-19T09:09:50.001Z</time></trkpt><trkpt lat="45.26185753715756" lon="9.127202962051635"><ele>87.0</ele><time>2026-04-19T09:09:52.001Z</time></trkpt><trkpt lat="45.26197686741896" lon="9.127155995286316"><ele>87.0</ele><time>2026-04-19T09:09:54.001Z</time></trkpt><trkpt lat="45.26209389414363" lon="9.127115049014778"><ele>87.0</ele><time>2026-04-19T09:09:56.001Z</time></trkpt><trkpt lat="45.26221066322492" lon="9.127065856698344"><ele>87.0</ele><time>2026-04-19T09:09:58.001Z</time></trkpt><trkpt lat="45.262329316180704" lon="9.12702481964501"><ele>87.0</ele><time>2026-04-19T09:10:00.001Z</time></trkpt><trkpt lat="45.262443191195594" lon="9.126972890765051"><ele>87.0</ele><time>2026-04-19T09:10:02.001Z</time></trkpt><trkpt lat="45.262562948499635" lon="9.126930657554349"><ele>87.0</ele><time>2026-04-19T09:10:04.001Z</time></trkpt><trkpt lat="45.262682833770974" lon="9.126887298183425"><ele>87.0</ele><time>2026-04-19T09:10:06.001Z</time></trkpt><trkpt lat="45.262804429858974" lon="9.126842853529114"><ele>87.0</ele><time>2026-04-19T09:10:08.001Z</time></trkpt><trkpt lat="45.262926293439484" lon="9.126796934619797"><ele>87.0</ele><time>2026-04-19T09:10:10.001Z</time></trkpt><trkpt lat="45.26304673868226" lon="9.126751864414217"><ele>87.25</ele><time>2026-04-19T09:10:12.001Z</time></trkpt><trkpt lat="45.26316536295595" lon="9.126704611137095"><ele>87.5</ele><time>2026-04-19T09:10:14.001Z</time></trkpt><trkpt lat="45.26328426219675" lon="9.12666257635139"><ele>87.75</ele><time>2026-04-19T09:10:16.001Z</time></trkpt><trkpt lat="45.263400872013854" lon="9.126622632831978"><ele>88.0</ele><time>2026-04-19T09:10:18.001Z</time></trkpt><trkpt lat="45.263516976076616" lon="9.126574757704192"><ele>88.0</ele><time>2026-04-19T09:10:20.001Z</time></trkpt><trkpt lat="45.263634172139724" lon="9.126531479429278"><ele>88.0</ele><time>2026-04-19T09:10:22.001Z</time></trkpt><trkpt lat="45.26375012171855" lon="9.126487803528239"><ele>88.0</ele><time>2026-04-19T09:10:24.001Z</time></trkpt><trkpt lat="45.26386580693013" lon="9.12644434453218"><ele>88.0</ele><time>2026-04-19T09:10:26.001Z</time></trkpt><trkpt lat="45.263981258248116" lon="9.126401161817334"><ele>88.0</ele><time>2026-04-19T09:10:28.001Z</time></trkpt><trkpt lat="45.26409653320705" lon="9.126354992221547"><ele>88.0</ele><time>2026-04-19T09:10:30.001Z</time></trkpt><trkpt lat="45.26421348865859" lon="9.126310479399995"><ele>88.0</ele><time>2026-04-19T09:10:32.001Z</time></trkpt><trkpt lat="45.264332365149" lon="9.126270675960528"><ele>88.0</ele><time>2026-04-19T09:10:34.001Z</time></trkpt><trkpt lat="45.26444984877322" lon="9.126221373269296"><ele>88.0</ele><time>2026-04-19T09:10:36.001Z</time></trkpt><trkpt lat="45.264566750164235" lon="9.126174105578563"><ele>88.0</ele><time>2026-04-19T09:10:38.001Z</time></trkpt><trkpt lat="45.26468747194856" lon="9.126129740767938"><ele>88.0</ele><time>2026-04-19T09:10:40.001Z</time></trkpt><trkpt lat="45.26480755629637" lon="9.126088121825568"><ele>88.0</ele><time>2026-04-19T09:10:42.001Z</time></trkpt><trkpt lat="45.26492891729922" lon="9.126048986935388"><ele>88.16666666666666</ele><time>2026-04-19T09:10:44.001Z</time></trkpt><trkpt lat="45.264990360260114" lon="9.126028109299964"><ele>88.33333333333333</ele><time>2026-04-19T09:10:45.001Z</time></trkpt><trkpt lat="45.26505062921561" lon="9.125997732379545"><ele>88.5</ele><time>2026-04-19T09:10:46.001Z</time></trkpt><trkpt lat="45.26516737661455" lon="9.125955571770664"><ele>88.66666666666667</ele><time>2026-04-19T09:10:48.001Z</time></trkpt><trkpt lat="45.26528309029413" lon="9.125919211731805"><ele>88.83333333333334</ele><time>2026-04-19T09:10:50.001Z</time></trkpt><trkpt lat="45.265344172203875" lon="9.125896737053333"><ele>89.0</ele><time>2026-04-19T09:10:51.001Z</time></trkpt><trkpt lat="45.265453127872746" lon="9.12585329024046"><ele>89.0</ele><time>2026-04-19T09:10:53.001Z</time></trkpt><trkpt lat="45.26556473170905" lon="9.125810166842909"><ele>89.0</ele><time>2026-04-19T09:10:55.001Z</time></trkpt><trkpt lat="45.26567656203407" lon="9.125763791348433"><ele>89.0</ele><time>2026-04-19T09:10:57.001Z</time></trkpt><trkpt lat="45.2657869284932" lon="9.125723893274833"><ele>89.0</ele><time>2026-04-19T09:10:59.001Z</time></trkpt><trkpt lat="45.26589859809608" lon="9.125682129188084"><ele>88.75</ele><time>2026-04-19T09:11:01.001Z</time></trkpt><trkpt lat="45.2660092227026" lon="9.12564293886479"><ele>88.5</ele><time>2026-04-19T09:11:03.001Z</time></trkpt><trkpt lat="45.266117562342075" lon="9.125600162213114"><ele>88.25</ele><time>2026-04-19T09:11:05.001Z</time></trkpt><trkpt lat="45.26622693387689" lon="9.125556916790606"><ele>88.0</ele><time>2026-04-19T09:11:07.001Z</time></trkpt><trkpt lat="45.26633345477928" lon="9.125514844035976"><ele>88.0</ele><time>2026-04-19T09:11:09.001Z</time></trkpt><trkpt lat="45.26644512661951" lon="9.125470139501575"><ele>88.0</ele><time>2026-04-19T09:11:11.001Z</time></trkpt><trkpt lat="45.266553544046324" lon="9.125427462779436"><ele>88.0</ele><time>2026-04-19T09:11:13.001Z</time></trkpt><trkpt lat="45.26665865890493" lon="9.125384779181768"><ele>88.0</ele><time>2026-04-19T09:11:15.001Z</time></trkpt><trkpt lat="45.26676340395557" lon="9.125342759691987"><ele>88.0</ele><time>2026-04-19T09:11:17.001Z</time></trkpt><trkpt lat="45.266864325045816" lon="9.125294349239375"><ele>88.0</ele><time>2026-04-19T09:11:19.001Z</time></trkpt><trkpt lat="45.26695856888605" lon="9.125259636425154"><ele>88.0</ele><time>2026-04-19T09:11:21.001Z</time></trkpt><trkpt lat="45.26704703457981" lon="9.125223352217777"><ele>88.0</ele><time>2026-04-19T09:11:23.001Z</time></trkpt><trkpt lat="45.267132511445844" lon="9.12519128303523"><ele>88.0</ele><time>2026-04-19T09:11:25.001Z</time></trkpt><trkpt lat="45.26722877706637" lon="9.125147436130526"><ele>88.0</ele><time>2026-04-19T09:11:27.001Z</time></trkpt><trkpt lat="45.26733811432097" lon="9.125120092849135"><ele>88.0</ele><time>2026-04-19T09:11:29.001Z</time></trkpt><trkpt lat="45.26745235459873" lon="9.125077373110933"><ele>88.0</ele><time>2026-04-19T09:11:31.001Z</time></trkpt><trkpt lat="45.2675634102508" lon="9.125028581217196"><ele>88.0</ele><time>2026-04-19T09:11:33.001Z</time></trkpt><trkpt lat="45.267676481827955" lon="9.124993670793348"><ele>88.0</ele><time>2026-04-19T09:11:35.001Z</time></trkpt><trkpt lat="45.26778601438418" lon="9.12494450916222"><ele>88.0</ele><time>2026-04-19T09:11:37.001Z</time></trkpt><trkpt lat="45.26789735681445" lon="9.124907525083767"><ele>88.0</ele><time>2026-04-19T09:11:39.001Z</time></trkpt><trkpt lat="45.268008110307264" lon="9.12486900024556"><ele>88.0</ele><time>2026-04-19T09:11:41.001Z</time></trkpt><trkpt lat="45.26811807966122" lon="9.12482253654193"><ele>88.0</ele><time>2026-04-19T09:11:43.001Z</time></trkpt><trkpt lat="45.26822762447602" lon="9.124775454413085"><ele>87.75</ele><time>2026-04-19T09:11:45.001Z</time></trkpt><trkpt lat="45.26833759494128" lon="9.124734797482285"><ele>87.5</ele><time>2026-04-19T09:11:47.001Z</time></trkpt><trkpt lat="45.26845392937722" lon="9.124693997706228"><ele>87.25</ele><time>2026-04-19T09:11:49.001Z</time></trkpt><trkpt lat="45.2685614594609" lon="9.124651127421211"><ele>87.0</ele><time>2026-04-19T09:11:51.001Z</time></trkpt><trkpt lat="45.26866957525605" lon="9.124603888679607"><ele>87.0</ele><time>2026-04-19T09:11:53.001Z</time></trkpt><trkpt lat="45.26877888375269" lon="9.124562516953379"><ele>87.0</ele><time>2026-04-19T09:11:55.001Z</time></trkpt><trkpt lat="45.26888942975904" lon="9.124513264379134"><ele>87.0</ele><time>2026-04-19T09:11:57.001Z</time></trkpt><trkpt lat="45.26900412627685" lon="9.124472814245056"><ele>87.0</ele><time>2026-04-19T09:11:59.001Z</time></trkpt><trkpt lat="45.269119092799535" lon="9.124440526251108"><ele>87.25</ele><time>2026-04-19T09:12:01.001Z</time></trkpt><trkpt lat="45.26923120131673" lon="9.124405149936884"><ele>87.5</ele><time>2026-04-19T09:12:03.001Z</time></trkpt><trkpt lat="45.26934265746662" lon="9.124369570112176"><ele>87.75</ele><time>2026-04-19T09:12:05.001Z</time></trkpt><trkpt lat="45.2694524230449" lon="9.124328864108271"><ele>88.0</ele><time>2026-04-19T09:12:07.001Z</time></trkpt><trkpt lat="45.26956399665455" lon="9.124289203887379"><ele>88.0</ele><time>2026-04-19T09:12:09.001Z</time></trkpt><trkpt lat="45.26967499260077" lon="9.124244307933418"><ele>88.0</ele><time>2026-04-19T09:12:11.001Z</time></trkpt><trkpt lat="45.26978665193258" lon="9.124196574033052"><ele>88.0</ele><time>2026-04-19T09:12:13.001Z</time></trkpt><trkpt lat="45.26989961882311" lon="9.124158838034024"><ele>88.0</ele><time>2026-04-19T09:12:15.001Z</time></trkpt><trkpt lat="45.27000808026225" lon="9.12411116116288"><ele>88.5</ele><time>2026-04-19T09:12:17.001Z</time></trkpt><trkpt lat="45.27011970932144" lon="9.12407115788294"><ele>89.0</ele><time>2026-04-19T09:12:19.001Z</time></trkpt><trkpt lat="45.270228967343776" lon="9.124031893116769"><ele>89.5</ele><time>2026-04-19T09:12:21.001Z</time></trkpt><trkpt lat="45.27033833208119" lon="9.123991412383917"><ele>90.0</ele><time>2026-04-19T09:12:23.001Z</time></trkpt><trkpt lat="45.270446444312014" lon="9.123946357240712"><ele>90.0</ele><time>2026-04-19T09:12:25.001Z</time></trkpt><trkpt lat="45.27055881946814" lon="9.12390500976312"><ele>90.0</ele><time>2026-04-19T09:12:27.001Z</time></trkpt><trkpt lat="45.27067013054668" lon="9.123863417141088"><ele>90.0</ele><time>2026-04-19T09:12:29.001Z</time></trkpt><trkpt lat="45.27077870762853" lon="9.123819506977902"><ele>90.0</ele><time>2026-04-19T09:12:31.001Z</time></trkpt><trkpt lat="45.27089243064716" lon="9.123777442226427"><ele>90.0</ele><time>2026-04-19T09:12:33.001Z</time></trkpt><trkpt lat="45.271003247178704" lon="9.123735800460361"><ele>90.0</ele><time>2026-04-19T09:12:35.001Z</time></trkpt><trkpt lat="45.27111400258767" lon="9.123691138104185"><ele>90.0</ele><time>2026-04-19T09:12:37.001Z</time></trkpt><trkpt lat="45.27122429632114" lon="9.12364962195397"><ele>90.0</ele><time>2026-04-19T09:12:39.001Z</time></trkpt><trkpt lat="45.271336481418565" lon="9.123607814680893"><ele>89.75</ele><time>2026-04-19T09:12:41.001Z</time></trkpt><trkpt lat="45.271447659775504" lon="9.123570829950449"><ele>89.5</ele><time>2026-04-19T09:12:43.001Z</time></trkpt><trkpt lat="45.27155817674896" lon="9.123524157573295"><ele>89.25</ele><time>2026-04-19T09:12:45.001Z</time></trkpt><trkpt lat="45.27167234712725" lon="9.123483036767372"><ele>89.0</ele><time>2026-04-19T09:12:47.001Z</time></trkpt><trkpt lat="45.271782419621694" lon="9.123442667705943"><ele>89.0</ele><time>2026-04-19T09:12:49.001Z</time></trkpt><trkpt lat="45.27189297321595" lon="9.12339642787946"><ele>89.0</ele><time>2026-04-19T09:12:51.001Z</time></trkpt><trkpt lat="45.2720054196512" lon="9.123358132707597"><ele>89.0</ele><time>2026-04-19T09:12:53Z</time></trkpt><trkpt lat="45.272116354545346" lon="9.123316019180413"><ele>89.0</ele><time>2026-04-19T09:12:55Z</time></trkpt><trkpt lat="45.2722273760367" lon="9.123272211798696"><ele>89.0</ele><time>2026-04-19T09:12:57Z</time></trkpt><trkpt lat="45.272335448369304" lon="9.12322873919559"><ele>89.0</ele><time>2026-04-19T09:12:59Z</time></trkpt><trkpt lat="45.27244579842016" lon="9.123182668876467"><ele>89.0</ele><time>2026-04-19T09:13:01Z</time></trkpt><trkpt lat="45.27255794099054" lon="9.123138388710915"><ele>89.0</ele><time>2026-04-19T09:13:03Z</time></trkpt><trkpt lat="45.272668610494044" lon="9.123102032092735"><ele>89.0</ele><time>2026-04-19T09:13:05Z</time></trkpt><trkpt lat="45.27277538468421" lon="9.123057950905567"><ele>89.0</ele><time>2026-04-19T09:13:07Z</time></trkpt><trkpt lat="45.272885858121434" lon="9.12302233785278"><ele>89.0</ele><time>2026-04-19T09:13:09Z</time></trkpt><trkpt lat="45.27299414185414" lon="9.122974025356223"><ele>89.0</ele><time>2026-04-19T09:13:11Z</time></trkpt><trkpt lat="45.27309944693852" lon="9.122933738303653"><ele>89.0</ele><time>2026-04-19T09:13:13Z</time></trkpt><trkpt lat="45.27320598851206" lon="9.122893172414862"><ele>89.0</ele><time>2026-04-19T09:13:15Z</time></trkpt><trkpt lat="45.273311647874365" lon="9.12284811109147"><ele>89.0</ele><time>2026-04-19T09:13:17.001Z</time></trkpt><trkpt lat="45.273416925367776" lon="9.12280754793207"><ele>89.0</ele><time>2026-04-19T09:13:19.001Z</time></trkpt><trkpt lat="45.27352456615878" lon="9.122768827965668"><ele>89.0</ele><time>2026-04-19T09:13:21.001Z</time></trkpt><trkpt lat="45.273629800397515" lon="9.122728629689615"><ele>89.0</ele><time>2026-04-19T09:13:23.001Z</time></trkpt><trkpt lat="45.27373586057151" lon="9.122683238987513"><ele>89.0</ele><time>2026-04-19T09:13:25.001Z</time></trkpt><trkpt lat="45.27384021113745" lon="9.122639447346952"><ele>89.0</ele><time>2026-04-19T09:13:27.001Z</time></trkpt><trkpt lat="45.273947849124625" lon="9.122596053053204"><ele>89.0</ele><time>2026-04-19T09:13:29.001Z</time></trkpt><trkpt lat="45.27405834349388" lon="9.122558863350267"><ele>89.0</ele><time>2026-04-19T09:13:31.001Z</time></trkpt><trkpt lat="45.27416701301215" lon="9.12251702338621"><ele>89.0</ele><time>2026-04-19T09:13:33.001Z</time></trkpt><trkpt lat="45.27427858516466" lon="9.12248972344532"><ele>89.25</ele><time>2026-04-19T09:13:35.001Z</time></trkpt><trkpt lat="45.27438783530845" lon="9.122452566697937"><ele>89.5</ele><time>2026-04-19T09:13:37.001Z</time></trkpt><trkpt lat="45.27449893118475" lon="9.122403268079918"><ele>89.75</ele><time>2026-04-19T09:13:39.001Z</time></trkpt><trkpt lat="45.27461321943149" lon="9.12237158491028"><ele>90.0</ele><time>2026-04-19T09:13:41.001Z</time></trkpt><trkpt lat="45.27472475359288" lon="9.122330367831703"><ele>90.0</ele><time>2026-04-19T09:13:43.001Z</time></trkpt><trkpt lat="45.27483897215235" lon="9.122287178901953"><ele>90.0</ele><time>2026-04-19T09:13:45.001Z</time></trkpt><trkpt lat="45.27494990738099" lon="9.122242285310225"><ele>90.0</ele><time>2026-04-19T09:13:47.001Z</time></trkpt><trkpt lat="45.27506521120215" lon="9.122200531334869"><ele>90.0</ele><time>2026-04-19T09:13:49.001Z</time></trkpt><trkpt lat="45.27518010714808" lon="9.12216161316333"><ele>90.0</ele><time>2026-04-19T09:13:51.001Z</time></trkpt><trkpt lat="45.275290578051504" lon="9.122118501484312"><ele>90.0</ele><time>2026-04-19T09:13:53.001Z</time></trkpt><trkpt lat="45.2753994947907" lon="9.12207037942774"><ele>90.0</ele><time>2026-04-19T09:13:55.001Z</time></trkpt><trkpt lat="45.27551118807943" lon="9.122037129511206"><ele>90.0</ele><time>2026-04-19T09:13:57.001Z</time></trkpt><trkpt lat="45.275621379534215" lon="9.121987180080035"><ele>89.5</ele><time>2026-04-19T09:13:59.001Z</time></trkpt><trkpt lat="45.27573432663484" lon="9.121936550955947"><ele>89.0</ele><time>2026-04-19T09:14:01.001Z</time></trkpt><trkpt lat="45.2758504907379" lon="9.121894447924946"><ele>88.5</ele><time>2026-04-19T09:14:03.001Z</time></trkpt><trkpt lat="45.27596331878943" lon="9.12184916985772"><ele>88.0</ele><time>2026-04-19T09:14:05.001Z</time></trkpt><trkpt lat="45.276075994672304" lon="9.121803759634206"><ele>88.0</ele><time>2026-04-19T09:14:07.001Z</time></trkpt><trkpt lat="45.27618740821818" lon="9.121764255918775"><ele>88.0</ele><time>2026-04-19T09:14:09.001Z</time></trkpt><trkpt lat="45.27629720846613" lon="9.12172505778401"><ele>88.0</ele><time>2026-04-19T09:14:11.001Z</time></trkpt><trkpt lat="45.27641213645465" lon="9.121684136476729"><ele>88.0</ele><time>2026-04-19T09:14:13.001Z</time></trkpt><trkpt lat="45.276525004554934" lon="9.12164089274279"><ele>88.25</ele><time>2026-04-19T09:14:15.001Z</time></trkpt><trkpt lat="45.27663482441471" lon="9.121589906704623"><ele>88.5</ele><time>2026-04-19T09:14:17.001Z</time></trkpt><trkpt lat="45.2767464636841" lon="9.121546674336727"><ele>88.75</ele><time>2026-04-19T09:14:19.001Z</time></trkpt><trkpt lat="45.276857822104624" lon="9.121509021638898"><ele>89.0</ele><time>2026-04-19T09:14:21.001Z</time></trkpt><trkpt lat="45.27697148553659" lon="9.12146223472523"><ele>89.0</ele><time>2026-04-19T09:14:23.001Z</time></trkpt><trkpt lat="45.277088648790155" lon="9.121425591377303"><ele>89.0</ele><time>2026-04-19T09:14:25.001Z</time></trkpt><trkpt lat="45.27719931944442" lon="9.121373193218984"><ele>89.0</ele><time>2026-04-19T09:14:27.001Z</time></trkpt><trkpt lat="45.27731290060526" lon="9.121332075218346"><ele>89.0</ele><time>2026-04-19T09:14:29.001Z</time></trkpt><trkpt lat="45.27742963327815" lon="9.121289971192331"><ele>88.75</ele><time>2026-04-19T09:14:31.001Z</time></trkpt><trkpt lat="45.277541021345144" lon="9.121248321726117"><ele>88.5</ele><time>2026-04-19T09:14:33.001Z</time></trkpt><trkpt lat="45.27765323270555" lon="9.121205775221815"><ele>88.25</ele><time>2026-04-19T09:14:35.001Z</time></trkpt><trkpt lat="45.27776553186631" lon="9.121167181808573"><ele>88.0</ele><time>2026-04-19T09:14:37.001Z</time></trkpt><trkpt lat="45.27787675835298" lon="9.12112465282789"><ele>88.0</ele><time>2026-04-19T09:14:39.001Z</time></trkpt><trkpt lat="45.277989219888134" lon="9.121079235180067"><ele>88.0</ele><time>2026-04-19T09:14:41.001Z</time></trkpt><trkpt lat="45.278099479446" lon="9.121039703233363"><ele>88.0</ele><time>2026-04-19T09:14:43.001Z</time></trkpt><trkpt lat="45.278210366660716" lon="9.121003278816971"><ele>88.0</ele><time>2026-04-19T09:14:45.001Z</time></trkpt><trkpt lat="45.27831768500708" lon="9.120958157388568"><ele>88.75</ele><time>2026-04-19T09:14:47.001Z</time></trkpt><trkpt lat="45.2784277912867" lon="9.120916055231838"><ele>89.5</ele><time>2026-04-19T09:14:49.001Z</time></trkpt><trkpt lat="45.27853589563905" lon="9.12087417108567"><ele>90.25</ele><time>2026-04-19T09:14:51.001Z</time></trkpt><trkpt lat="45.27864618919701" lon="9.120838316656148"><ele>91.0</ele><time>2026-04-19T09:14:53.001Z</time></trkpt><trkpt lat="45.27875669194412" lon="9.1207960444468"><ele>91.0</ele><time>2026-04-19T09:14:55.001Z</time></trkpt><trkpt lat="45.27886627886165" lon="9.120755481258305"><ele>91.0</ele><time>2026-04-19T09:14:57.001Z</time></trkpt><trkpt lat="45.27897655246614" lon="9.120708919350053"><ele>91.0</ele><time>2026-04-19T09:14:59Z</time></trkpt><trkpt lat="45.279088871069874" lon="9.120664355015323"><ele>91.0</ele><time>2026-04-19T09:15:01Z</time></trkpt><trkpt lat="45.279198478627656" lon="9.120624241719959"><ele>90.75</ele><time>2026-04-19T09:15:03Z</time></trkpt><trkpt lat="45.279309835219216" lon="9.120588346920007"><ele>90.5</ele><time>2026-04-19T09:15:05Z</time></trkpt><trkpt lat="45.2794202036115" lon="9.120545181939823"><ele>90.25</ele><time>2026-04-19T09:15:07Z</time></trkpt><trkpt lat="45.279529246838365" lon="9.12049923486615"><ele>90.0</ele><time>2026-04-19T09:15:09Z</time></trkpt><trkpt lat="45.279639843749806" lon="9.120461159878047"><ele>90.0</ele><time>2026-04-19T09:15:11Z</time></trkpt><trkpt lat="45.279752135435" lon="9.12041763785901"><ele>90.0</ele><time>2026-04-19T09:15:13Z</time></trkpt><trkpt lat="45.27986769382452" lon="9.120375773737363"><ele>90.0</ele><time>2026-04-19T09:15:15Z</time></trkpt><trkpt lat="45.279980691666715" lon="9.12032784619595"><ele>90.0</ele><time>2026-04-19T09:15:17Z</time></trkpt><trkpt lat="45.28009324876669" lon="9.120284426580517"><ele>89.5</ele><time>2026-04-19T09:15:19Z</time></trkpt><trkpt lat="45.280203070452096" lon="9.12024103388052"><ele>89.0</ele><time>2026-04-19T09:15:21Z</time></trkpt><trkpt lat="45.2803129997661" lon="9.120200153225474"><ele>88.5</ele><time>2026-04-19T09:15:23Z</time></trkpt><trkpt lat="45.28042459960955" lon="9.120158061452862"><ele>88.0</ele><time>2026-04-19T09:15:25Z</time></trkpt><trkpt lat="45.28053596871866" lon="9.120118483769614"><ele>88.25</ele><time>2026-04-19T09:15:27Z</time></trkpt><trkpt lat="45.28064523747838" lon="9.120068799557917"><ele>88.5</ele><time>2026-04-19T09:15:29Z</time></trkpt><trkpt lat="45.280758389598795" lon="9.120032851453157"><ele>88.75</ele><time>2026-04-19T09:15:31Z</time></trkpt><trkpt lat="45.28087169359503" lon="9.119990378719404"><ele>89.0</ele><time>2026-04-19T09:15:33Z</time></trkpt><trkpt lat="45.280985145201875" lon="9.119950009657728"><ele>89.0</ele><time>2026-04-19T09:15:35.001Z</time></trkpt><trkpt lat="45.28109762811253" lon="9.119908928285756"><ele>89.0</ele><time>2026-04-19T09:15:37.001Z</time></trkpt><trkpt lat="45.281206745941134" lon="9.119863677772049"><ele>89.0</ele><time>2026-04-19T09:15:39.001Z</time></trkpt><trkpt lat="45.28131767400702" lon="9.119825806923581"><ele>89.0</ele><time>2026-04-19T09:15:41.001Z</time></trkpt><trkpt lat="45.28142773463996" lon="9.119784851786848"><ele>89.25</ele><time>2026-04-19T09:15:43.001Z</time></trkpt><trkpt lat="45.281539449686214" lon="9.119743391871998"><ele>89.5</ele><time>2026-04-19T09:15:45.001Z</time></trkpt><trkpt lat="45.2816496938426" lon="9.119693429235369"><ele>89.75</ele><time>2026-04-19T09:15:47.001Z</time></trkpt><trkpt lat="45.2817649811881" lon="9.119652760755999"><ele>90.0</ele><time>2026-04-19T09:15:49.001Z</time></trkpt><trkpt lat="45.281881170353024" lon="9.119608452005352"><ele>90.0</ele><time>2026-04-19T09:15:51.001Z</time></trkpt><trkpt lat="45.28199612251842" lon="9.11956865654825"><ele>90.0</ele><time>2026-04-19T09:15:53.001Z</time></trkpt><trkpt lat="45.28210811082157" lon="9.119523048460367"><ele>90.0</ele><time>2026-04-19T09:15:55.001Z</time></trkpt><trkpt lat="45.28221890279995" lon="9.119479056261795"><ele>90.0</ele><time>2026-04-19T09:15:57.001Z</time></trkpt><trkpt lat="45.282329879041335" lon="9.119436053044907"><ele>89.75</ele><time>2026-04-19T09:15:59.001Z</time></trkpt><trkpt lat="45.28244274611643" lon="9.119393753165298"><ele>89.5</ele><time>2026-04-19T09:16:01.001Z</time></trkpt><trkpt lat="45.28255887273123" lon="9.11935523326059"><ele>89.25</ele><time>2026-04-19T09:16:03.001Z</time></trkpt><trkpt lat="45.28267314107283" lon="9.11930582439222"><ele>89.0</ele><time>2026-04-19T09:16:05.001Z</time></trkpt><trkpt lat="45.282789270233934" lon="9.119261302671239"><ele>89.0</ele><time>2026-04-19T09:16:07.001Z</time></trkpt><trkpt lat="45.28290579955516" lon="9.11922233721684"><ele>89.0</ele><time>2026-04-19T09:16:09.001Z</time></trkpt><trkpt lat="45.283019883665055" lon="9.119178480777753"><ele>89.0</ele><time>2026-04-19T09:16:11.001Z</time></trkpt><trkpt lat="45.28313248367307" lon="9.119130941517993"><ele>89.0</ele><time>2026-04-19T09:16:13.001Z</time></trkpt><trkpt lat="45.283245314556666" lon="9.119089574562397"><ele>89.16666666666667</ele><time>2026-04-19T09:16:15.001Z</time></trkpt><trkpt lat="45.28336169506409" lon="9.119044299966623"><ele>89.33333333333334</ele><time>2026-04-19T09:16:17.001Z</time></trkpt><trkpt lat="45.283479051819356" lon="9.118998027287226"><ele>89.5</ele><time>2026-04-19T09:16:19.001Z</time></trkpt><trkpt lat="45.283540379491484" lon="9.118974801235682"><ele>89.66666666666667</ele><time>2026-04-19T09:16:20.001Z</time></trkpt><trkpt lat="45.28360147627195" lon="9.118952946398052"><ele>89.83333333333333</ele><time>2026-04-19T09:16:21.001Z</time></trkpt><trkpt lat="45.28366262057774" lon="9.118928685731268"><ele>90.0</ele><time>2026-04-19T09:16:22.001Z</time></trkpt><trkpt lat="45.283782275846704" lon="9.118884653041409"><ele>90.0</ele><time>2026-04-19T09:16:24.001Z</time></trkpt><trkpt lat="45.283902142598556" lon="9.118848846359207"><ele>90.0</ele><time>2026-04-19T09:16:26.001Z</time></trkpt><trkpt lat="45.284012959610706" lon="9.11881002969616"><ele>90.0</ele><time>2026-04-19T09:16:28.001Z</time></trkpt><trkpt lat="45.2841053658401" lon="9.11877487598679"><ele>90.0</ele><time>2026-04-19T09:16:30.001Z</time></trkpt><trkpt lat="45.28417185649192" lon="9.118751429538845"><ele>90.0</ele><time>2026-04-19T09:16:32.001Z</time></trkpt><trkpt lat="45.28425146810383" lon="9.118723376565962"><ele>89.8</ele><time>2026-04-19T09:16:35.001Z</time></trkpt><trkpt lat="45.2843302720946" lon="9.118695201483176"><ele>89.6</ele><time>2026-04-19T09:16:37.001Z</time></trkpt><trkpt lat="45.284421512486745" lon="9.118663028507397"><ele>89.4</ele><time>2026-04-19T09:16:39.001Z</time></trkpt><trkpt lat="45.28451669796304" lon="9.118616888320531"><ele>89.2</ele><time>2026-04-19T09:16:41.001Z</time></trkpt><trkpt lat="45.28462472669088" lon="9.118582845850337"><ele>89.0</ele><time>2026-04-19T09:16:43.001Z</time></trkpt><trkpt lat="45.28473606499456" lon="9.11854700571718"><ele>89.2</ele><time>2026-04-19T09:16:45.001Z</time></trkpt><trkpt lat="45.28484609836827" lon="9.118505353117149"><ele>89.4</ele><time>2026-04-19T09:16:47.001Z</time></trkpt><trkpt lat="45.28495278486765" lon="9.11846238913205"><ele>89.6</ele><time>2026-04-19T09:16:49.001Z</time></trkpt><trkpt lat="45.285055421549124" lon="9.118424512212279"><ele>89.8</ele><time>2026-04-19T09:16:51.001Z</time></trkpt><trkpt lat="45.28515638669959" lon="9.118386553962944"><ele>90.0</ele><time>2026-04-19T09:16:53.001Z</time></trkpt><trkpt lat="45.28525393306247" lon="9.118348554003372"><ele>90.0</ele><time>2026-04-19T09:16:55.001Z</time></trkpt><trkpt lat="45.28534194112284" lon="9.118317767653853"><ele>90.0</ele><time>2026-04-19T09:16:57.001Z</time></trkpt><trkpt lat="45.28542167103233" lon="9.11827898371365"><ele>90.0</ele><time>2026-04-19T09:16:59.001Z</time></trkpt><trkpt lat="45.285511097689266" lon="9.118233745705709"><ele>90.0</ele><time>2026-04-19T09:17:01.001Z</time></trkpt><trkpt lat="45.28559703189248" lon="9.118190637550065"><ele>90.0</ele><time>2026-04-19T09:17:03.001Z</time></trkpt><trkpt lat="45.28567778967199" lon="9.11816196339749"><ele>90.0</ele><time>2026-04-19T09:17:05Z</time></trkpt><trkpt lat="45.285752495156885" lon="9.118131863750431"><ele>90.0</ele><time>2026-04-19T09:17:07Z</time></trkpt><trkpt lat="45.285819240068925" lon="9.118097677574722"><ele>90.0</ele><time>2026-04-19T09:17:09Z</time></trkpt><trkpt lat="45.28588470385846" lon="9.118086990724"><ele>90.0</ele><time>2026-04-19T09:17:11Z</time></trkpt><trkpt lat="45.285948290388546" lon="9.118062495909255"><ele>90.0</ele><time>2026-04-19T09:17:13Z</time></trkpt><trkpt lat="45.28601720440907" lon="9.11802962624997"><ele>90.0</ele><time>2026-04-19T09:17:15Z</time></trkpt><trkpt lat="45.2860939409535" lon="9.118001974764619"><ele>90.0</ele><time>2026-04-19T09:17:17Z</time></trkpt><trkpt lat="45.28616993061629" lon="9.117968531872075"><ele>90.0</ele><time>2026-04-19T09:17:19Z</time></trkpt><trkpt lat="45.28624311378992" lon="9.117927355375059"><ele>90.0</ele><time>2026-04-19T09:17:21Z</time></trkpt><trkpt lat="45.28631879065931" lon="9.117916103794203"><ele>90.0</ele><time>2026-04-19T09:17:23Z</time></trkpt><trkpt lat="45.28638680485008" lon="9.117884962876378"><ele>90.0</ele><time>2026-04-19T09:17:25Z</time></trkpt><trkpt lat="45.286453663387256" lon="9.117860095588053"><ele>90.0</ele><time>2026-04-19T09:17:27Z</time></trkpt><trkpt lat="45.28652584408538" lon="9.117827492141265"><ele>90.0</ele><time>2026-04-19T09:17:29Z</time></trkpt><trkpt lat="45.28660666447559" lon="9.117809461256504"><ele>90.0</ele><time>2026-04-19T09:17:31Z</time></trkpt><trkpt lat="45.28669132711909" lon="9.117768338688983"><ele>90.4</ele><time>2026-04-19T09:17:33Z</time></trkpt><trkpt lat="45.28678188331043" lon="9.117745082387787"><ele>90.8</ele><time>2026-04-19T09:17:35Z</time></trkpt><trkpt lat="45.286870766780744" lon="9.117705987076045"><ele>91.19999999999999</ele><time>2026-04-19T09:17:37Z</time></trkpt><trkpt lat="45.28696284553032" lon="9.117671338238228"><ele>91.6</ele><time>2026-04-19T09:17:39Z</time></trkpt><trkpt lat="45.28705756062956" lon="9.117639105528609"><ele>92.0</ele><time>2026-04-19T09:17:41Z</time></trkpt><trkpt lat="45.287154145161125" lon="9.117599462632358"><ele>92.0</ele><time>2026-04-19T09:17:43Z</time></trkpt><trkpt lat="45.28725321987987" lon="9.117564244820569"><ele>92.0</ele><time>2026-04-19T09:17:45Z</time></trkpt><trkpt lat="45.28735353789104" lon="9.117531260439101"><ele>92.0</ele><time>2026-04-19T09:17:47Z</time></trkpt><trkpt lat="45.28745454128521" lon="9.117488066916591"><ele>92.0</ele><time>2026-04-19T09:17:49Z</time></trkpt><trkpt lat="45.287558752340416" lon="9.117454611809451"><ele>92.0</ele><time>2026-04-19T09:17:51Z</time></trkpt><trkpt lat="45.28766190181332" lon="9.11741969721523"><ele>92.0</ele><time>2026-04-19T09:17:53Z</time></trkpt><trkpt lat="45.28776322454952" lon="9.117376533411926"><ele>92.0</ele><time>2026-04-19T09:17:55Z</time></trkpt><trkpt lat="45.28786379880901" lon="9.117335557452064"><ele>92.0</ele><time>2026-04-19T09:17:57.001Z</time></trkpt><trkpt lat="45.28796086775571" lon="9.117284426807384"><ele>92.0</ele><time>2026-04-19T09:17:59.001Z</time></trkpt><trkpt lat="45.288064295319536" lon="9.117254580580134"><ele>92.0</ele><time>2026-04-19T09:18:01.001Z</time></trkpt><trkpt lat="45.288168771717864" lon="9.117218450136066"><ele>92.0</ele><time>2026-04-19T09:18:03.001Z</time></trkpt><trkpt lat="45.28827186251824" lon="9.117183657221648"><ele>92.0</ele><time>2026-04-19T09:18:05.001Z</time></trkpt><trkpt lat="45.2883738622203" lon="9.117143654382923"><ele>92.0</ele><time>2026-04-19T09:18:07.001Z</time></trkpt><trkpt lat="45.2884761399577" lon="9.117104434933472"><ele>92.0</ele><time>2026-04-19T09:18:09.001Z</time></trkpt><trkpt lat="45.28857921807382" lon="9.117068343549509"><ele>92.0</ele><time>2026-04-19T09:18:11.001Z</time></trkpt><trkpt lat="45.28868171347432" lon="9.117032847348018"><ele>92.0</ele><time>2026-04-19T09:18:13.001Z</time></trkpt><trkpt lat="45.28878061296048" lon="9.116994152806718"><ele>92.0</ele><time>2026-04-19T09:18:15.001Z</time></trkpt><trkpt lat="45.28887994923112" lon="9.116952286658208"><ele>92.0</ele><time>2026-04-19T09:18:17.001Z</time></trkpt><trkpt lat="45.28898141287533" lon="9.116910069172057"><ele>92.0</ele><time>2026-04-19T09:18:19.001Z</time></trkpt><trkpt lat="45.289085699099466" lon="9.116874578033308"><ele>92.0</ele><time>2026-04-19T09:18:21.001Z</time></trkpt><trkpt lat="45.2891844152926" lon="9.116827566802659"><ele>91.6</ele><time>2026-04-19T09:18:23.001Z</time></trkpt><trkpt lat="45.28928574926463" lon="9.116791521362408"><ele>91.19999999999999</ele><time>2026-04-19T09:18:25.001Z</time></trkpt><trkpt lat="45.28938614155524" lon="9.116752215065329"><ele>90.8</ele><time>2026-04-19T09:18:27.001Z</time></trkpt><trkpt lat="45.28948748352257" lon="9.116717347110555"><ele>90.4</ele><time>2026-04-19T09:18:29.001Z</time></trkpt><trkpt lat="45.28958874423833" lon="9.116679341519989"><ele>90.0</ele><time>2026-04-19T09:18:31.001Z</time></trkpt><trkpt lat="45.28969161301646" lon="9.116642872866803"><ele>90.2</ele><time>2026-04-19T09:18:33.001Z</time></trkpt><trkpt lat="45.28979357138001" lon="9.116601977612705"><ele>90.4</ele><time>2026-04-19T09:18:35.001Z</time></trkpt><trkpt lat="45.289896385406955" lon="9.116563291560535"><ele>90.6</ele><time>2026-04-19T09:18:37.001Z</time></trkpt><trkpt lat="45.28999967779015" lon="9.116529614371977"><ele>90.8</ele><time>2026-04-19T09:18:39.001Z</time></trkpt><trkpt lat="45.2901018444774" lon="9.11649139464861"><ele>91.0</ele><time>2026-04-19T09:18:41.001Z</time></trkpt><trkpt lat="45.290203318372214" lon="9.116452240717319"><ele>91.0</ele><time>2026-04-19T09:18:43.001Z</time></trkpt><trkpt lat="45.29030855982465" lon="9.11640580790199"><ele>91.0</ele><time>2026-04-19T09:18:45.001Z</time></trkpt><trkpt lat="45.2904164246784" lon="9.116366052993715"><ele>91.0</ele><time>2026-04-19T09:18:47.001Z</time></trkpt><trkpt lat="45.29052170087419" lon="9.116327342046697"><ele>91.0</ele><time>2026-04-19T09:18:49.001Z</time></trkpt><trkpt lat="45.290624005809235" lon="9.116286904450195"><ele>91.0</ele><time>2026-04-19T09:18:51.001Z</time></trkpt><trkpt lat="45.29072837530106" lon="9.116249731199625"><ele>91.0</ele><time>2026-04-19T09:18:53.001Z</time></trkpt><trkpt lat="45.29083279847282" lon="9.11621520634637"><ele>91.0</ele><time>2026-04-19T09:18:55.001Z</time></trkpt><trkpt lat="45.29093622717963" lon="9.11617713450973"><ele>91.0</ele><time>2026-04-19T09:18:57.001Z</time></trkpt><trkpt lat="45.29104045850103" lon="9.116136328806983"><ele>91.0</ele><time>2026-04-19T09:18:59.001Z</time></trkpt><trkpt lat="45.291146967600106" lon="9.116092305520587"><ele>91.0</ele><time>2026-04-19T09:19:01.001Z</time></trkpt><trkpt lat="45.291253214240385" lon="9.116055242929281"><ele>91.0</ele><time>2026-04-19T09:19:03.001Z</time></trkpt><trkpt lat="45.291356525201344" lon="9.116015479998072"><ele>91.0</ele><time>2026-04-19T09:19:05.001Z</time></trkpt><trkpt lat="45.29146093855875" lon="9.115974441265829"><ele>91.0</ele><time>2026-04-19T09:19:07.001Z</time></trkpt><trkpt lat="45.29156487865199" lon="9.115933811698689"><ele>91.0</ele><time>2026-04-19T09:19:09.001Z</time></trkpt><trkpt lat="45.29167066918116" lon="9.11589283805028"><ele>91.0</ele><time>2026-04-19T09:19:11Z</time></trkpt><trkpt lat="45.29177379578502" lon="9.115849198678966"><ele>91.0</ele><time>2026-04-19T09:19:13Z</time></trkpt><trkpt lat="45.29188096266835" lon="9.11581576510493"><ele>91.0</ele><time>2026-04-19T09:19:15Z</time></trkpt><trkpt lat="45.291987682951856" lon="9.1157779877668"><ele>91.0</ele><time>2026-04-19T09:19:17Z</time></trkpt><trkpt lat="45.29209440855371" lon="9.11573400230251"><ele>91.0</ele><time>2026-04-19T09:19:19Z</time></trkpt><trkpt lat="45.292199665666246" lon="9.115690031276868"><ele>91.0</ele><time>2026-04-19T09:19:21Z</time></trkpt><trkpt lat="45.29230554261663" lon="9.115647535030158"><ele>90.8</ele><time>2026-04-19T09:19:23Z</time></trkpt><trkpt lat="45.29240938955574" lon="9.1155993746475"><ele>90.6</ele><time>2026-04-19T09:19:25Z</time></trkpt><trkpt lat="45.292515359302705" lon="9.115560381100353"><ele>90.4</ele><time>2026-04-19T09:19:27Z</time></trkpt><trkpt lat="45.29262214737206" lon="9.115521184253478"><ele>90.2</ele><time>2026-04-19T09:19:29Z</time></trkpt><trkpt lat="45.29272945910324" lon="9.115480299992212"><ele>90.0</ele><time>2026-04-19T09:19:31Z</time></trkpt><trkpt lat="45.29284207402075" lon="9.115453873850505"><ele>90.0</ele><time>2026-04-19T09:19:33Z</time></trkpt><trkpt lat="45.29294800673463" lon="9.115408588054125"><ele>90.0</ele><time>2026-04-19T09:19:35Z</time></trkpt><trkpt lat="45.293053611787" lon="9.115362853682953"><ele>90.0</ele><time>2026-04-19T09:19:37Z</time></trkpt><trkpt lat="45.29315848246454" lon="9.115319646708599"><ele>90.0</ele><time>2026-04-19T09:19:39Z</time></trkpt><trkpt lat="45.293263452825336" lon="9.115276142563243"><ele>90.0</ele><time>2026-04-19T09:19:41Z</time></trkpt><trkpt lat="45.29337223356509" lon="9.115252565595693"><ele>90.25</ele><time>2026-04-19T09:19:43Z</time></trkpt><trkpt lat="45.293481197798556" lon="9.11522217258199"><ele>90.5</ele><time>2026-04-19T09:19:45Z</time></trkpt><trkpt lat="45.29359176234222" lon="9.115182218113631"><ele>90.75</ele><time>2026-04-19T09:19:47Z</time></trkpt><trkpt lat="45.293700928819895" lon="9.115142111003076"><ele>91.0</ele><time>2026-04-19T09:19:49Z</time></trkpt><trkpt lat="45.293811068016325" lon="9.115099629567933"><ele>91.0</ele><time>2026-04-19T09:19:51Z</time></trkpt><trkpt lat="45.29391965877777" lon="9.115051490411787"><ele>91.0</ele><time>2026-04-19T09:19:53Z</time></trkpt><trkpt lat="45.29403232760951" lon="9.11501098873915"><ele>91.0</ele><time>2026-04-19T09:19:55Z</time></trkpt><trkpt lat="45.294143730001196" lon="9.114966173581532"><ele>91.0</ele><time>2026-04-19T09:19:57Z</time></trkpt><trkpt lat="45.29425896587988" lon="9.11492803732847"><ele>91.0</ele><time>2026-04-19T09:19:59Z</time></trkpt><trkpt lat="45.29437209273904" lon="9.11488707772861"><ele>91.0</ele><time>2026-04-19T09:20:01Z</time></trkpt><trkpt lat="45.294478498980084" lon="9.11484069239589"><ele>91.0</ele><time>2026-04-19T09:20:03Z</time></trkpt><trkpt lat="45.29458660315895" lon="9.114803585103607"><ele>91.0</ele><time>2026-04-19T09:20:05Z</time></trkpt><trkpt lat="45.2946989536066" lon="9.114761836840806"><ele>91.0</ele><time>2026-04-19T09:20:07Z</time></trkpt><trkpt lat="45.294808894946" lon="9.114716101401088"><ele>91.0</ele><time>2026-04-19T09:20:09Z</time></trkpt><trkpt lat="45.29491554573128" lon="9.114674548157614"><ele>91.0</ele><time>2026-04-19T09:20:11Z</time></trkpt><trkpt lat="45.29502366676056" lon="9.114636241384314"><ele>91.0</ele><time>2026-04-19T09:20:13.001Z</time></trkpt><trkpt lat="45.29513200643419" lon="9.114593927857248"><ele>91.0</ele><time>2026-04-19T09:20:15.001Z</time></trkpt><trkpt lat="45.29523962345624" lon="9.11455424123945"><ele>91.0</ele><time>2026-04-19T09:20:17.001Z</time></trkpt><trkpt lat="45.29535005170979" lon="9.114510953947798"><ele>91.0</ele><time>2026-04-19T09:20:19.001Z</time></trkpt><trkpt lat="45.29545938368162" lon="9.11446840318825"><ele>91.0</ele><time>2026-04-19T09:20:21.001Z</time></trkpt><trkpt lat="45.29556775809606" lon="9.11442491446828"><ele>91.0</ele><time>2026-04-19T09:20:23.001Z</time></trkpt><trkpt lat="45.29567630616482" lon="9.114386017388023"><ele>91.0</ele><time>2026-04-19T09:20:25.001Z</time></trkpt><trkpt lat="45.29578407030757" lon="9.114348274450897"><ele>91.0</ele><time>2026-04-19T09:20:27.001Z</time></trkpt><trkpt lat="45.29589083113498" lon="9.114305918022028"><ele>91.0</ele><time>2026-04-19T09:20:29.001Z</time></trkpt><trkpt lat="45.29599457966656" lon="9.114264857247992"><ele>91.0</ele><time>2026-04-19T09:20:31.001Z</time></trkpt><trkpt lat="45.29610059297042" lon="9.114228279883843"><ele>91.0</ele><time>2026-04-19T09:20:33.001Z</time></trkpt><trkpt lat="45.29620786884715" lon="9.114189006681523"><ele>91.0</ele><time>2026-04-19T09:20:35.001Z</time></trkpt><trkpt lat="45.296313380179676" lon="9.114146749612075"><ele>91.0</ele><time>2026-04-19T09:20:37.001Z</time></trkpt><trkpt lat="45.296421390150776" lon="9.114113810870178"><ele>91.0</ele><time>2026-04-19T09:20:39.001Z</time></trkpt><trkpt lat="45.29653020932854" lon="9.114072504892096"><ele>91.0</ele><time>2026-04-19T09:20:41.001Z</time></trkpt><trkpt lat="45.29663893774471" lon="9.114031537047136"><ele>91.0</ele><time>2026-04-19T09:20:43.001Z</time></trkpt><trkpt lat="45.29674686370439" lon="9.113991082890772"><ele>91.4</ele><time>2026-04-19T09:20:45.001Z</time></trkpt><trkpt lat="45.29685420303456" lon="9.113947660795576"><ele>91.8</ele><time>2026-04-19T09:20:47.001Z</time></trkpt><trkpt lat="45.29696263595749" lon="9.113906748853804"><ele>92.2</ele><time>2026-04-19T09:20:49.001Z</time></trkpt><trkpt lat="45.29706827692625" lon="9.11386309173757"><ele>92.60000000000001</ele><time>2026-04-19T09:20:51.001Z</time></trkpt><trkpt lat="45.297173769283255" lon="9.113826077613002"><ele>93.0</ele><time>2026-04-19T09:20:53.001Z</time></trkpt><trkpt lat="45.29728043763894" lon="9.113791693311288"><ele>93.2</ele><time>2026-04-19T09:20:55.001Z</time></trkpt><trkpt lat="45.29738494237428" lon="9.11374939044304"><ele>93.4</ele><time>2026-04-19T09:20:57.001Z</time></trkpt><trkpt lat="45.29748855526902" lon="9.113713678152598"><ele>93.60000000000001</ele><time>2026-04-19T09:20:59.001Z</time></trkpt><trkpt lat="45.297589792761755" lon="9.11367396473634"><ele>93.80000000000001</ele><time>2026-04-19T09:21:01.001Z</time></trkpt><trkpt lat="45.29769259675973" lon="9.113638538512303"><ele>94.0</ele><time>2026-04-19T09:21:03.001Z</time></trkpt><trkpt lat="45.29779523470246" lon="9.113602893146792"><ele>94.0</ele><time>2026-04-19T09:21:05.001Z</time></trkpt><trkpt lat="45.29789951958861" lon="9.113563558000418"><ele>94.0</ele><time>2026-04-19T09:21:07.001Z</time></trkpt><trkpt lat="45.2980057754359" lon="9.113524313146401"><ele>94.0</ele><time>2026-04-19T09:21:09.001Z</time></trkpt><trkpt lat="45.298118061651124" lon="9.113474457709074"><ele>94.0</ele><time>2026-04-19T09:21:11.001Z</time></trkpt><trkpt lat="45.298234228383315" lon="9.113426636603881"><ele>93.75</ele><time>2026-04-19T09:21:13.001Z</time></trkpt><trkpt lat="45.29834902143743" lon="9.113385257329858"><ele>93.5</ele><time>2026-04-19T09:21:15Z</time></trkpt><trkpt lat="45.298458812014516" lon="9.113343103457897"><ele>93.25</ele><time>2026-04-19T09:21:17Z</time></trkpt><trkpt lat="45.29856435931405" lon="9.113307107606428"><ele>93.0</ele><time>2026-04-19T09:21:19Z</time></trkpt><trkpt lat="45.29866994931794" lon="9.113269125376267"><ele>92.60000000000001</ele><time>2026-04-19T09:21:21Z</time></trkpt><trkpt lat="45.29877487344164" lon="9.113232559537535"><ele>92.2</ele><time>2026-04-19T09:21:23Z</time></trkpt><trkpt lat="45.29887745851914" lon="9.113193435202097"><ele>91.8</ele><time>2026-04-19T09:21:25Z</time></trkpt><trkpt lat="45.29898112540451" lon="9.113155503025864"><ele>91.4</ele><time>2026-04-19T09:21:27Z</time></trkpt><trkpt lat="45.29908390053603" lon="9.113117552892728"><ele>91.0</ele><time>2026-04-19T09:21:29Z</time></trkpt><trkpt lat="45.29918492193479" lon="9.11307472008664"><ele>91.0</ele><time>2026-04-19T09:21:31Z</time></trkpt><trkpt lat="45.299288409954436" lon="9.113036054813378"><ele>91.0</ele><time>2026-04-19T09:21:33Z</time></trkpt><trkpt lat="45.2993938137613" lon="9.112995730112381"><ele>91.0</ele><time>2026-04-19T09:21:35Z</time></trkpt><trkpt lat="45.29950055990569" lon="9.112958163408742"><ele>91.0</ele><time>2026-04-19T09:21:37Z</time></trkpt><trkpt lat="45.299606742628754" lon="9.112915925660195"><ele>91.0</ele><time>2026-04-19T09:21:39Z</time></trkpt><trkpt lat="45.29971582363531" lon="9.112878003590314"><ele>91.19999999999999</ele><time>2026-04-19T09:21:41Z</time></trkpt><trkpt lat="45.29982319253974" lon="9.11283314023722"><ele>91.39999999999999</ele><time>2026-04-19T09:21:43Z</time></trkpt><trkpt lat="45.29992994997136" lon="9.11279403580034"><ele>91.6</ele><time>2026-04-19T09:21:45Z</time></trkpt><trkpt lat="45.300036444321336" lon="9.11275824204823"><ele>91.8</ele><time>2026-04-19T09:21:47Z</time></trkpt><trkpt lat="45.30014546463566" lon="9.112718893364471"><ele>92.0</ele><time>2026-04-19T09:21:49Z</time></trkpt><trkpt lat="45.30025493079645" lon="9.112679541262171"><ele>92.0</ele><time>2026-04-19T09:21:51Z</time></trkpt><trkpt lat="45.30036324533251" lon="9.112637331601888"><ele>92.0</ele><time>2026-04-19T09:21:53Z</time></trkpt><trkpt lat="45.30046939192315" lon="9.112594253859449"><ele>92.0</ele><time>2026-04-19T09:21:55Z</time></trkpt><trkpt lat="45.300575013823845" lon="9.112558532506588"><ele>92.0</ele><time>2026-04-19T09:21:57Z</time></trkpt><trkpt lat="45.30068018863987" lon="9.112513154157021"><ele>92.0</ele><time>2026-04-19T09:21:59Z</time></trkpt><trkpt lat="45.30078601310237" lon="9.11247671874883"><ele>92.0</ele><time>2026-04-19T09:22:01Z</time></trkpt><trkpt lat="45.30088775020213" lon="9.112436609526176"><ele>92.0</ele><time>2026-04-19T09:22:03Z</time></trkpt><trkpt lat="45.300980063558775" lon="9.112399148051638"><ele>92.0</ele><time>2026-04-19T09:22:05Z</time></trkpt><trkpt lat="45.301066283372926" lon="9.112373106154426"><ele>92.0</ele><time>2026-04-19T09:22:07Z</time></trkpt><trkpt lat="45.30114445123241" lon="9.112351650660559"><ele>92.0</ele><time>2026-04-19T09:22:09Z</time></trkpt><trkpt lat="45.30122140153972" lon="9.112370605884722"><ele>92.0</ele><time>2026-04-19T09:22:11Z</time></trkpt><trkpt lat="45.3012581760408" lon="9.112482094792073"><ele>92.0</ele><time>2026-04-19T09:22:13Z</time></trkpt><trkpt lat="45.30127967276617" lon="9.112610047512113"><ele>92.0</ele><time>2026-04-19T09:22:15Z</time></trkpt><trkpt lat="45.30131558062353" lon="9.112728396013607"><ele>92.0</ele><time>2026-04-19T09:22:17Z</time></trkpt><trkpt lat="45.30135456217102" lon="9.112849531340082"><ele>92.0</ele><time>2026-04-19T09:22:19.001Z</time></trkpt><trkpt lat="45.30139960257953" lon="9.112965629673589"><ele>92.0</ele><time>2026-04-19T09:22:21.001Z</time></trkpt><trkpt lat="45.30145298508783" lon="9.11307957160266"><ele>92.0</ele><time>2026-04-19T09:22:23.001Z</time></trkpt><trkpt lat="45.30150543024106" lon="9.113199642021835"><ele>92.0</ele><time>2026-04-19T09:22:25.001Z</time></trkpt><trkpt lat="45.30156033694206" lon="9.1133141375587"><ele>92.0</ele><time>2026-04-19T09:22:27.001Z</time></trkpt><trkpt lat="45.30161494404013" lon="9.113426902632078"><ele>92.0</ele><time>2026-04-19T09:22:29.001Z</time></trkpt><trkpt lat="45.30166918093579" lon="9.113539724948886"><ele>92.0</ele><time>2026-04-19T09:22:31.001Z</time></trkpt><trkpt lat="45.301722563857396" lon="9.113654929280834"><ele>92.19999999999999</ele><time>2026-04-19T09:22:33.001Z</time></trkpt><trkpt lat="45.30177508103158" lon="9.113776311653371"><ele>92.4</ele><time>2026-04-19T09:22:35.001Z</time></trkpt><trkpt lat="45.301814237511294" lon="9.113911634648142"><ele>92.6</ele><time>2026-04-19T09:22:37.001Z</time></trkpt><trkpt lat="45.30183113682338" lon="9.114053986624764"><ele>92.80000000000001</ele><time>2026-04-19T09:22:39.001Z</time></trkpt><trkpt lat="45.30183935046966" lon="9.114206089945604"><ele>93.0</ele><time>2026-04-19T09:22:41.001Z</time></trkpt><trkpt lat="45.3018556669991" lon="9.114345213287757"><ele>93.0</ele><time>2026-04-19T09:22:43.001Z</time></trkpt><trkpt lat="45.30186920724347" lon="9.114480985754584"><ele>93.0</ele><time>2026-04-19T09:22:45.001Z</time></trkpt><trkpt lat="45.301885312042074" lon="9.114609417220217"><ele>93.0</ele><time>2026-04-19T09:22:47.001Z</time></trkpt><trkpt lat="45.301896983111" lon="9.11475080873789"><ele>93.0</ele><time>2026-04-19T09:22:49.001Z</time></trkpt><trkpt lat="45.30190653696177" lon="9.11487823150418"><ele>93.0</ele><time>2026-04-19T09:22:51.001Z</time></trkpt><trkpt lat="45.30192521521756" lon="9.115001138266233"><ele>93.2</ele><time>2026-04-19T09:22:53.001Z</time></trkpt><trkpt lat="45.301940312692615" lon="9.115152454122931"><ele>93.4</ele><time>2026-04-19T09:22:55.001Z</time></trkpt><trkpt lat="45.30195246290493" lon="9.115294850416577"><ele>93.60000000000001</ele><time>2026-04-19T09:22:57.001Z</time></trkpt><trkpt lat="45.30197473525559" lon="9.115431709895075"><ele>93.80000000000001</ele><time>2026-04-19T09:22:59.001Z</time></trkpt><trkpt lat="45.30198171997508" lon="9.115567970920248"><ele>94.0</ele><time>2026-04-19T09:23:01.001Z</time></trkpt><trkpt lat="45.30198242088708" lon="9.115708729863174"><ele>94.2</ele><time>2026-04-19T09:23:03.001Z</time></trkpt><trkpt lat="45.3019818409053" lon="9.115852158198445"><ele>94.4</ele><time>2026-04-19T09:23:05.001Z</time></trkpt><trkpt lat="45.3020032208079" lon="9.115979949232724"><ele>94.6</ele><time>2026-04-19T09:23:07.001Z</time></trkpt><trkpt lat="45.30203000623075" lon="9.116103808585109"><ele>94.8</ele><time>2026-04-19T09:23:09.001Z</time></trkpt><trkpt lat="45.30205515430656" lon="9.11623211131332"><ele>95.0</ele><time>2026-04-19T09:23:11.001Z</time></trkpt><trkpt lat="45.30210421628238" lon="9.116349094790205"><ele>95.0</ele><time>2026-04-19T09:23:13.001Z</time></trkpt><trkpt lat="45.30216276332288" lon="9.116442781089743"><ele>95.0</ele><time>2026-04-19T09:23:15.001Z</time></trkpt><trkpt lat="45.30222126659275" lon="9.116538639457218"><ele>95.0</ele><time>2026-04-19T09:23:17.001Z</time></trkpt><trkpt lat="45.302296509791255" lon="9.116620115155992"><ele>95.0</ele><time>2026-04-19T09:23:19.001Z</time></trkpt><trkpt lat="45.3023868404982" lon="9.116683567395402"><ele>95.0</ele><time>2026-04-19T09:23:21Z</time></trkpt><trkpt lat="45.30247611081701" lon="9.116729938754757"><ele>94.6</ele><time>2026-04-19T09:23:23Z</time></trkpt><trkpt lat="45.30257092339453" lon="9.116792895253663"><ele>94.2</ele><time>2026-04-19T09:23:25Z</time></trkpt><trkpt lat="45.30266273763327" lon="9.116865251867699"><ele>93.80000000000001</ele><time>2026-04-19T09:23:27Z</time></trkpt><trkpt lat="45.302748392389915" lon="9.116942738135133"><ele>93.4</ele><time>2026-04-19T09:23:29Z</time></trkpt><trkpt lat="45.30281884966099" lon="9.11703082318628"><ele>93.0</ele><time>2026-04-19T09:23:31Z</time></trkpt><trkpt lat="45.3028685082217" lon="9.117092782122006"><ele>93.0</ele><time>2026-04-19T09:23:33Z</time></trkpt><trkpt lat="45.302916534162705" lon="9.117172062149104"><ele>93.0</ele><time>2026-04-19T09:23:35Z</time></trkpt><trkpt lat="45.30296685438833" lon="9.117276996589085"><ele>93.0</ele><time>2026-04-19T09:23:37Z</time></trkpt><trkpt lat="45.30300779883691" lon="9.117401538647282"><ele>93.0</ele><time>2026-04-19T09:23:39Z</time></trkpt><trkpt lat="45.30304065100424" lon="9.117528718884031"><ele>93.0</ele><time>2026-04-19T09:23:41Z</time></trkpt><trkpt lat="45.30306908211909" lon="9.117673769531699"><ele>92.80000000000001</ele><time>2026-04-19T09:23:43Z</time></trkpt><trkpt lat="45.30310038774903" lon="9.117808540753877"><ele>92.6</ele><time>2026-04-19T09:23:45Z</time></trkpt><trkpt lat="45.30311213719808" lon="9.117935695876634"><ele>92.4</ele><time>2026-04-19T09:23:47Z</time></trkpt><trkpt lat="45.30314119021384" lon="9.118065364721428"><ele>92.19999999999999</ele><time>2026-04-19T09:23:49Z</time></trkpt><trkpt lat="45.303155482352224" lon="9.118198462216409"><ele>92.0</ele><time>2026-04-19T09:23:51Z</time></trkpt><trkpt lat="45.30318106249751" lon="9.118332889290478"><ele>92.0</ele><time>2026-04-19T09:23:53Z</time></trkpt><trkpt lat="45.30318918661893" lon="9.118472236577526"><ele>92.0</ele><time>2026-04-19T09:23:55Z</time></trkpt><trkpt lat="45.303199963523845" lon="9.118612323451247"><ele>92.0</ele><time>2026-04-19T09:23:57Z</time></trkpt><trkpt lat="45.30321677122521" lon="9.118755987870879"><ele>92.0</ele><time>2026-04-19T09:23:59Z</time></trkpt><trkpt lat="45.303237383707945" lon="9.11890433844736"><ele>92.0</ele><time>2026-04-19T09:24:01Z</time></trkpt><trkpt lat="45.30325220444678" lon="9.119052755996803"><ele>92.33333333333334</ele><time>2026-04-19T09:24:03Z</time></trkpt><trkpt lat="45.30326391016437" lon="9.11920325822182"><ele>92.66666666666667</ele><time>2026-04-19T09:24:05Z</time></trkpt><trkpt lat="45.30326524646295" lon="9.119323188621012"><ele>93.0</ele><time>2026-04-19T09:24:07Z</time></trkpt><trkpt lat="45.303280487630154" lon="9.119415973027092"><ele>93.33333333333333</ele><time>2026-04-19T09:24:09Z</time></trkpt><trkpt lat="45.3032952619635" lon="9.119520845609241"><ele>93.66666666666666</ele><time>2026-04-19T09:24:11Z</time></trkpt><trkpt lat="45.30330832855911" lon="9.119628228804038"><ele>94.0</ele><time>2026-04-19T09:24:13Z</time></trkpt><trkpt lat="45.303325143970596" lon="9.119740153844816"><ele>94.0</ele><time>2026-04-19T09:24:15Z</time></trkpt><trkpt lat="45.303344955097614" lon="9.119852571768229"><ele>94.0</ele><time>2026-04-19T09:24:17Z</time></trkpt><trkpt lat="45.30335796441094" lon="9.119968707229425"><ele>94.0</ele><time>2026-04-19T09:24:19Z</time></trkpt><trkpt lat="45.30337297761498" lon="9.12008911959681"><ele>94.0</ele><time>2026-04-19T09:24:21Z</time></trkpt><trkpt lat="45.30339700828214" lon="9.120213210308188"><ele>94.0</ele><time>2026-04-19T09:24:23Z</time></trkpt><trkpt lat="45.303420851667696" lon="9.120337065567629"><ele>94.0</ele><time>2026-04-19T09:24:25Z</time></trkpt><trkpt lat="45.30345042388004" lon="9.12046066029365"><ele>93.83333333333333</ele><time>2026-04-19T09:24:27Z</time></trkpt><trkpt lat="45.30347737075378" lon="9.120580573757387"><ele>93.66666666666666</ele><time>2026-04-19T09:24:29.001Z</time></trkpt><trkpt lat="45.30350704553172" lon="9.12068678482532"><ele>93.5</ele><time>2026-04-19T09:24:31.001Z</time></trkpt><trkpt lat="45.30352966001351" lon="9.12077134084185"><ele>93.33333333333333</ele><time>2026-04-19T09:24:33.001Z</time></trkpt><trkpt lat="45.30355897865977" lon="9.120881566661229"><ele>93.16666666666667</ele><time>2026-04-19T09:24:36.001Z</time></trkpt><trkpt lat="45.30358109136514" lon="9.120970310467333"><ele>93.0</ele><time>2026-04-19T09:24:40.001Z</time></trkpt><trkpt lat="45.30360956308537" lon="9.121067027571268"><ele>93.0</ele><time>2026-04-19T09:24:43.001Z</time></trkpt><trkpt lat="45.303642533599245" lon="9.121148536631706"><ele>93.0</ele><time>2026-04-19T09:24:45.001Z</time></trkpt><trkpt lat="45.30367275497866" lon="9.121242098293058"><ele>93.0</ele><time>2026-04-19T09:24:47.001Z</time></trkpt><trkpt lat="45.30369118987501" lon="9.121346890822945"><ele>93.0</ele><time>2026-04-19T09:24:49.001Z</time></trkpt><trkpt lat="45.30370423493789" lon="9.12145760971713"><ele>93.0</ele><time>2026-04-19T09:24:51.001Z</time></trkpt><trkpt lat="45.303725606654574" lon="9.121570823753304"><ele>93.0</ele><time>2026-04-19T09:24:53.001Z</time></trkpt><trkpt lat="45.303740575470684" lon="9.121673953522013"><ele>92.83333333333333</ele><time>2026-04-19T09:24:55.001Z</time></trkpt><trkpt lat="45.30375858018265" lon="9.121779407304507"><ele>92.66666666666667</ele><time>2026-04-19T09:24:57.001Z</time></trkpt><trkpt lat="45.303781202407116" lon="9.121888614012162"><ele>92.5</ele><time>2026-04-19T09:24:59.001Z</time></trkpt><trkpt lat="45.30379896665601" lon="9.122003391705757"><ele>92.33333333333334</ele><time>2026-04-19T09:25:01.001Z</time></trkpt><trkpt lat="45.30381462208418" lon="9.122111763948382"><ele>92.16666666666667</ele><time>2026-04-19T09:25:03.001Z</time></trkpt><trkpt lat="45.30381504914111" lon="9.122218783668457"><ele>92.0</ele><time>2026-04-19T09:25:05.001Z</time></trkpt><trkpt lat="45.303824730910186" lon="9.122342432752324"><ele>91.8</ele><time>2026-04-19T09:25:07.001Z</time></trkpt><trkpt lat="45.30384894622489" lon="9.122465386914312"><ele>91.6</ele><time>2026-04-19T09:25:09.001Z</time></trkpt><trkpt lat="45.30386120444633" lon="9.122582523626898"><ele>91.39999999999999</ele><time>2026-04-19T09:25:11.001Z</time></trkpt><trkpt lat="45.30386524577422" lon="9.122710631077595"><ele>91.19999999999999</ele><time>2026-04-19T09:25:13.001Z</time></trkpt><trkpt lat="45.303874303020855" lon="9.122842702072193"><ele>91.0</ele><time>2026-04-19T09:25:15.001Z</time></trkpt><trkpt lat="45.30387037600011" lon="9.12297905224102"><ele>91.0</ele><time>2026-04-19T09:25:17.001Z</time></trkpt><trkpt lat="45.30387817817767" lon="9.123113272161277"><ele>91.0</ele><time>2026-04-19T09:25:19.001Z</time></trkpt><trkpt lat="45.30388935432401" lon="9.123245654522819"><ele>91.0</ele><time>2026-04-19T09:25:21.001Z</time></trkpt><trkpt lat="45.30389409975443" lon="9.12337999838308"><ele>91.0</ele><time>2026-04-19T09:25:23.001Z</time></trkpt><trkpt lat="45.30390581846589" lon="9.123513177504707"><ele>91.0</ele><time>2026-04-19T09:25:25.001Z</time></trkpt><trkpt lat="45.30391908334705" lon="9.123647812781114"><ele>92.0</ele><time>2026-04-19T09:25:27Z</time></trkpt><trkpt lat="45.30392692396029" lon="9.123785468287158"><ele>93.0</ele><time>2026-04-19T09:25:29Z</time></trkpt><trkpt lat="45.3039435113636" lon="9.123923603246146"><ele>94.0</ele><time>2026-04-19T09:25:31Z</time></trkpt><trkpt lat="45.303949632769715" lon="9.124067185051882"><ele>95.0</ele><time>2026-04-19T09:25:33Z</time></trkpt><trkpt lat="45.3039678925831" lon="9.124205881155323"><ele>96.0</ele><time>2026-04-19T09:25:35Z</time></trkpt><trkpt lat="45.30399150707007" lon="9.124345125736228"><ele>96.0</ele><time>2026-04-19T09:25:37Z</time></trkpt><trkpt lat="45.30403186878874" lon="9.124470457826984"><ele>96.0</ele><time>2026-04-19T09:25:39Z</time></trkpt><trkpt lat="45.30408238865711" lon="9.124590135570038"><ele>96.0</ele><time>2026-04-19T09:25:41Z</time></trkpt><trkpt lat="45.30412825396088" lon="9.12471598299238"><ele>96.0</ele><time>2026-04-19T09:25:43Z</time></trkpt><trkpt lat="45.304176804179704" lon="9.12483800558186"><ele>96.0</ele><time>2026-04-19T09:25:45Z</time></trkpt><trkpt lat="45.304205983648984" lon="9.12496668388563"><ele>96.0</ele><time>2026-04-19T09:25:47Z</time></trkpt><trkpt lat="45.3042580635875" lon="9.125083111961734"><ele>96.0</ele><time>2026-04-19T09:25:49Z</time></trkpt><trkpt lat="45.30433037245412" lon="9.125177911514495"><ele>96.0</ele><time>2026-04-19T09:25:51Z</time></trkpt><trkpt lat="45.304429699258456" lon="9.125186314319585"><ele>96.0</ele><time>2026-04-19T09:25:53Z</time></trkpt><trkpt lat="45.30451745227154" lon="9.125129860986268"><ele>96.0</ele><time>2026-04-19T09:25:55Z</time></trkpt><trkpt lat="45.304600235738796" lon="9.125101166052335"><ele>96.0</ele><time>2026-04-19T09:25:57Z</time></trkpt><trkpt lat="45.304694341311745" lon="9.125075468585026"><ele>96.0</ele><time>2026-04-19T09:25:59Z</time></trkpt><trkpt lat="45.3047844690099" lon="9.125041941758509"><ele>96.0</ele><time>2026-04-19T09:26:01Z</time></trkpt><trkpt lat="45.30487797619075" lon="9.125018020354709"><ele>96.0</ele><time>2026-04-19T09:26:03Z</time></trkpt><trkpt lat="45.304975140811365" lon="9.124992015939723"><ele>96.0</ele><time>2026-04-19T09:26:05Z</time></trkpt><trkpt lat="45.30507528945944" lon="9.124961648532572"><ele>95.6</ele><time>2026-04-19T09:26:07Z</time></trkpt><trkpt lat="45.305170247127954" lon="9.124898235642563"><ele>95.19999999999999</ele><time>2026-04-19T09:26:09Z</time></trkpt><trkpt lat="45.305273317850336" lon="9.124843828286739"><ele>94.80000000000001</ele><time>2026-04-19T09:26:11Z</time></trkpt><trkpt lat="45.30537173880821" lon="9.124784066664587"><ele>94.4</ele><time>2026-04-19T09:26:13Z</time></trkpt><trkpt lat="45.3054655424157" lon="9.124723683264898"><ele>94.0</ele><time>2026-04-19T09:26:15Z</time></trkpt><trkpt lat="45.30555766900529" lon="9.124662576300583"><ele>93.80000000000001</ele><time>2026-04-19T09:26:17Z</time></trkpt><trkpt lat="45.30564609730139" lon="9.124590944462238"><ele>93.60000000000001</ele><time>2026-04-19T09:26:19Z</time></trkpt><trkpt lat="45.305725467690046" lon="9.124502987755928"><ele>93.4</ele><time>2026-04-19T09:26:21Z</time></trkpt><trkpt lat="45.305801899271565" lon="9.124409151791948"><ele>93.2</ele><time>2026-04-19T09:26:23Z</time></trkpt><trkpt lat="45.30587157454002" lon="9.124301952219572"><ele>93.0</ele><time>2026-04-19T09:26:25Z</time></trkpt><trkpt lat="45.305944093512935" lon="9.124194350178348"><ele>93.0</ele><time>2026-04-19T09:26:27Z</time></trkpt><trkpt lat="45.3060063734379" lon="9.124071970497521"><ele>93.0</ele><time>2026-04-19T09:26:29Z</time></trkpt><trkpt lat="45.30606649954715" lon="9.123948128411374"><ele>93.0</ele><time>2026-04-19T09:26:31Z</time></trkpt><trkpt lat="45.30612201489571" lon="9.12382231579775"><ele>93.0</ele><time>2026-04-19T09:26:33.001Z</time></trkpt><trkpt lat="45.30617441000719" lon="9.123693423185177"><ele>93.0</ele><time>2026-04-19T09:26:35.001Z</time></trkpt><trkpt lat="45.30622787957556" lon="9.12356568966938"><ele>93.0</ele><time>2026-04-19T09:26:37.001Z</time></trkpt><trkpt lat="45.306280961260626" lon="9.123439349268839"><ele>93.0</ele><time>2026-04-19T09:26:39.001Z</time></trkpt><trkpt lat="45.30632691235234" lon="9.123315798673639"><ele>93.0</ele><time>2026-04-19T09:26:41.001Z</time></trkpt><trkpt lat="45.30638639903939" lon="9.123180164363859"><ele>93.0</ele><time>2026-04-19T09:26:43.001Z</time></trkpt><trkpt lat="45.306454356981085" lon="9.123046518873274"><ele>93.0</ele><time>2026-04-19T09:26:45.001Z</time></trkpt><trkpt lat="45.30652635882634" lon="9.122938335052597"><ele>93.0</ele><time>2026-04-19T09:26:47.001Z</time></trkpt><trkpt lat="45.30662277555337" lon="9.122878421515733"><ele>93.0</ele><time>2026-04-19T09:26:49.001Z</time></trkpt><trkpt lat="45.30672132280856" lon="9.122844805158238"><ele>93.0</ele><time>2026-04-19T09:26:51.001Z</time></trkpt><trkpt lat="45.30681624557221" lon="9.122804783623911"><ele>93.0</ele><time>2026-04-19T09:26:53.001Z</time></trkpt><trkpt lat="45.30690843772633" lon="9.122750479145397"><ele>93.0</ele><time>2026-04-19T09:26:55.001Z</time></trkpt><trkpt lat="45.30699491380743" lon="9.122680942590565"><ele>93.0</ele><time>2026-04-19T09:26:57.001Z</time></trkpt><trkpt lat="45.307073839522054" lon="9.122593257520602"><ele>93.0</ele><time>2026-04-19T09:26:59.001Z</time></trkpt><trkpt lat="45.30714157935472" lon="9.122489344275788"><ele>93.0</ele><time>2026-04-19T09:27:01.001Z</time></trkpt><trkpt lat="45.30719515681289" lon="9.122368499946601"><ele>93.0</ele><time>2026-04-19T09:27:03.001Z</time></trkpt><trkpt lat="45.30723446692085" lon="9.122247760266056"><ele>93.0</ele><time>2026-04-19T09:27:05.001Z</time></trkpt><trkpt lat="45.307259733088806" lon="9.122126607824955"><ele>93.2</ele><time>2026-04-19T09:27:07.001Z</time></trkpt><trkpt lat="45.307293806955826" lon="9.122003590613337"><ele>93.4</ele><time>2026-04-19T09:27:09.001Z</time></trkpt><trkpt lat="45.30733710951061" lon="9.121882202976801"><ele>93.60000000000001</ele><time>2026-04-19T09:27:11.001Z</time></trkpt><trkpt lat="45.30739727657406" lon="9.121766610363382"><ele>93.80000000000001</ele><time>2026-04-19T09:27:13.001Z</time></trkpt><trkpt lat="45.30747157458395" lon="9.121674993675047"><ele>94.0</ele><time>2026-04-19T09:27:15.001Z</time></trkpt><trkpt lat="45.307561482561596" lon="9.121602471015066"><ele>93.80000000000001</ele><time>2026-04-19T09:27:17.001Z</time></trkpt><trkpt lat="45.30765350227325" lon="9.121536455466051"><ele>93.60000000000001</ele><time>2026-04-19T09:27:19.001Z</time></trkpt><trkpt lat="45.30774380742705" lon="9.121464513910654"><ele>93.4</ele><time>2026-04-19T09:27:21.001Z</time></trkpt><trkpt lat="45.307831002295444" lon="9.121384173253661"><ele>93.2</ele><time>2026-04-19T09:27:23.001Z</time></trkpt><trkpt lat="45.30791766360568" lon="9.121305621115859"><ele>93.0</ele><time>2026-04-19T09:27:25.001Z</time></trkpt><trkpt lat="45.308004324724294" lon="9.121228386671703"><ele>93.0</ele><time>2026-04-19T09:27:27.001Z</time></trkpt><trkpt lat="45.30809033415334" lon="9.121150569795866"><ele>93.0</ele><time>2026-04-19T09:27:29.001Z</time></trkpt><trkpt lat="45.308172278456624" lon="9.121063527811508"><ele>93.0</ele><time>2026-04-19T09:27:31.001Z</time></trkpt><trkpt lat="45.30825765873093" lon="9.120979180320655"><ele>93.0</ele><time>2026-04-19T09:27:33Z</time></trkpt><trkpt lat="45.30833936969352" lon="9.120879660188853"><ele>93.0</ele><time>2026-04-19T09:27:35Z</time></trkpt><trkpt lat="45.30841369902672" lon="9.120765503487027"><ele>92.80000000000001</ele><time>2026-04-19T09:27:37Z</time></trkpt><trkpt lat="45.30848463538156" lon="9.120654372758956"><ele>92.6</ele><time>2026-04-19T09:27:39Z</time></trkpt><trkpt lat="45.30856187528903" lon="9.12055050873202"><ele>92.4</ele><time>2026-04-19T09:27:41Z</time></trkpt><trkpt lat="45.30864753836107" lon="9.120461289810603"><ele>92.19999999999999</ele><time>2026-04-19T09:27:43Z</time></trkpt><trkpt lat="45.30873836943331" lon="9.12038565387527"><ele>92.0</ele><time>2026-04-19T09:27:45Z</time></trkpt><trkpt lat="45.30883391922986" lon="9.120324692636855"><ele>92.39999999999999</ele><time>2026-04-19T09:27:47Z</time></trkpt><trkpt lat="45.308930754547504" lon="9.120281418013393"><ele>92.8</ele><time>2026-04-19T09:27:49Z</time></trkpt><trkpt lat="45.30902965992815" lon="9.120242812665026"><ele>93.2</ele><time>2026-04-19T09:27:51Z</time></trkpt><trkpt lat="45.309128899978475" lon="9.12020364202389"><ele>93.6</ele><time>2026-04-19T09:27:53Z</time></trkpt><trkpt lat="45.30923000493473" lon="9.120165229042888"><ele>94.0</ele><time>2026-04-19T09:27:55Z</time></trkpt><trkpt lat="45.30933181928124" lon="9.120126093709487"><ele>94.0</ele><time>2026-04-19T09:27:57Z</time></trkpt><trkpt lat="45.30942300130382" lon="9.12004998337035"><ele>94.0</ele><time>2026-04-19T09:27:59Z</time></trkpt><trkpt lat="45.30948968869421" lon="9.119936557082363"><ele>94.0</ele><time>2026-04-19T09:28:01Z</time></trkpt><trkpt lat="45.309527358825505" lon="9.119801644652302"><ele>94.0</ele><time>2026-04-19T09:28:03Z</time></trkpt><trkpt lat="45.30954669439054" lon="9.119655074543893"><ele>94.0</ele><time>2026-04-19T09:28:05Z</time></trkpt><trkpt lat="45.30955672515497" lon="9.119506565537629"><ele>94.0</ele><time>2026-04-19T09:28:07Z</time></trkpt><trkpt lat="45.30956712441665" lon="9.119357697180227"><ele>94.0</ele><time>2026-04-19T09:28:09Z</time></trkpt><trkpt lat="45.30959018655495" lon="9.11920852822434"><ele>94.0</ele><time>2026-04-19T09:28:11Z</time></trkpt><trkpt lat="45.30963582722179" lon="9.119068163950498"><ele>94.0</ele><time>2026-04-19T09:28:13Z</time></trkpt><trkpt lat="45.30968762203378" lon="9.11893794571474"><ele>94.0</ele><time>2026-04-19T09:28:15Z</time></trkpt><trkpt lat="45.30974693149775" lon="9.118802169578787"><ele>93.75</ele><time>2026-04-19T09:28:17Z</time></trkpt><trkpt lat="45.30982425056796" lon="9.118675382356297"><ele>93.5</ele><time>2026-04-19T09:28:19Z</time></trkpt><trkpt lat="45.30991368573013" lon="9.118565428689632"><ele>93.25</ele><time>2026-04-19T09:28:21Z</time></trkpt><trkpt lat="45.31000439041924" lon="9.11846930073364"><ele>93.0</ele><time>2026-04-19T09:28:23Z</time></trkpt><trkpt lat="45.310094982627476" lon="9.118372376223233"><ele>93.0</ele><time>2026-04-19T09:28:25Z</time></trkpt><trkpt lat="45.31018493776156" lon="9.11828145673044"><ele>93.0</ele><time>2026-04-19T09:28:27Z</time></trkpt><trkpt lat="45.310273281323134" lon="9.118200684812122"><ele>93.0</ele><time>2026-04-19T09:28:29Z</time></trkpt><trkpt lat="45.31035837446308" lon="9.118129156407754"><ele>93.0</ele><time>2026-04-19T09:28:31Z</time></trkpt><trkpt lat="45.31044318869009" lon="9.118052269341788"><ele>93.0</ele><time>2026-04-19T09:28:33Z</time></trkpt><trkpt lat="45.310531411842646" lon="9.117982094004931"><ele>93.4</ele><time>2026-04-19T09:28:35Z</time></trkpt><trkpt lat="45.31063116217486" lon="9.117913154921297"><ele>93.80000000000001</ele><time>2026-04-19T09:28:37Z</time></trkpt><trkpt lat="45.310730705616" lon="9.117836406244367"><ele>94.2</ele><time>2026-04-19T09:28:39Z</time></trkpt><trkpt lat="45.31083218350464" lon="9.117763673013439"><ele>94.6</ele><time>2026-04-19T09:28:41Z</time></trkpt><trkpt lat="45.3109296108823" lon="9.11769103471943"><ele>95.0</ele><time>2026-04-19T09:28:43Z</time></trkpt><trkpt lat="45.31101638163443" lon="9.117610115241135"><ele>95.0</ele><time>2026-04-19T09:28:45Z</time></trkpt><trkpt lat="45.311103126948545" lon="9.11755559102954"><ele>95.0</ele><time>2026-04-19T09:28:47Z</time></trkpt><trkpt lat="45.3111871655215" lon="9.117482920388191"><ele>95.0</ele><time>2026-04-19T09:28:49Z</time></trkpt><trkpt lat="45.31127659785367" lon="9.117438878593962"><ele>95.0</ele><time>2026-04-19T09:28:51.001Z</time></trkpt><trkpt lat="45.31134922782327" lon="9.117377655912156"><ele>95.0</ele><time>2026-04-19T09:28:53.001Z</time></trkpt><trkpt lat="45.31142973821684" lon="9.117325067931084"><ele>95.0</ele><time>2026-04-19T09:28:55.001Z</time></trkpt><trkpt lat="45.31150434334975" lon="9.1172831015206"><ele>95.0</ele><time>2026-04-19T09:28:57.001Z</time></trkpt><trkpt lat="45.31158154996563" lon="9.11724479250333"><ele>95.0</ele><time>2026-04-19T09:28:59.001Z</time></trkpt><trkpt lat="45.311662301488255" lon="9.117215914119821"><ele>95.0</ele><time>2026-04-19T09:29:01.001Z</time></trkpt><trkpt lat="45.31174184036302" lon="9.117171936573572"><ele>95.0</ele><time>2026-04-19T09:29:03.001Z</time></trkpt><trkpt lat="45.31182510432985" lon="9.117137493218584"><ele>95.0</ele><time>2026-04-19T09:29:05.001Z</time></trkpt><trkpt lat="45.311907971926516" lon="9.117100012184858"><ele>95.0</ele><time>2026-04-19T09:29:07.001Z</time></trkpt><trkpt lat="45.31199290856314" lon="9.117067091946293"><ele>95.0</ele><time>2026-04-19T09:29:09.001Z</time></trkpt><trkpt lat="45.31207991419504" lon="9.117020006368481"><ele>95.0</ele><time>2026-04-19T09:29:11.001Z</time></trkpt><trkpt lat="45.31216736428794" lon="9.116974983851879"><ele>95.0</ele><time>2026-04-19T09:29:13.001Z</time></trkpt><trkpt lat="45.31225109898899" lon="9.116923224551078"><ele>95.0</ele><time>2026-04-19T09:29:15.001Z</time></trkpt><trkpt lat="45.3123378098761" lon="9.116875937754871"><ele>94.6</ele><time>2026-04-19T09:29:17.001Z</time></trkpt><trkpt lat="45.312423724769204" lon="9.116829048946562"><ele>94.2</ele><time>2026-04-19T09:29:19.001Z</time></trkpt><trkpt lat="45.312508681921585" lon="9.116764811216038"><ele>93.80000000000001</ele><time>2026-04-19T09:29:21.001Z</time></trkpt><trkpt lat="45.312598400059386" lon="9.116711565860417"><ele>93.4</ele><time>2026-04-19T09:29:23.001Z</time></trkpt><trkpt lat="45.312686422292884" lon="9.116642721070182"><ele>93.0</ele><time>2026-04-19T09:29:25.001Z</time></trkpt><trkpt lat="45.31278274736953" lon="9.116590186582583"><ele>93.2</ele><time>2026-04-19T09:29:27.001Z</time></trkpt><trkpt lat="45.31287835993143" lon="9.116538508528189"><ele>93.4</ele><time>2026-04-19T09:29:29.001Z</time></trkpt><trkpt lat="45.31297443634642" lon="9.116484065361496"><ele>93.60000000000001</ele><time>2026-04-19T09:29:31.001Z</time></trkpt><trkpt lat="45.313068212600946" lon="9.116427110070097"><ele>93.80000000000001</ele><time>2026-04-19T09:29:33.001Z</time></trkpt><trkpt lat="45.31316152989611" lon="9.11637644561469"><ele>94.0</ele><time>2026-04-19T09:29:35.001Z</time></trkpt><trkpt lat="45.31325253807199" lon="9.116323866386919"><ele>93.6</ele><time>2026-04-19T09:29:37.001Z</time></trkpt><trkpt lat="45.31334408514944" lon="9.116271812332686"><ele>93.2</ele><time>2026-04-19T09:29:39Z</time></trkpt><trkpt lat="45.313438172876985" lon="9.116218104423842"><ele>92.8</ele><time>2026-04-19T09:29:41Z</time></trkpt><trkpt lat="45.31353253299628" lon="9.116167152365668"><ele>92.39999999999999</ele><time>2026-04-19T09:29:43Z</time></trkpt><trkpt lat="45.31362438776664" lon="9.116114613696666"><ele>92.0</ele><time>2026-04-19T09:29:45Z</time></trkpt><trkpt lat="45.313718180120404" lon="9.116059034933718"><ele>92.0</ele><time>2026-04-19T09:29:47Z</time></trkpt><trkpt lat="45.313812372213405" lon="9.116005399469039"><ele>92.0</ele><time>2026-04-19T09:29:49Z</time></trkpt><trkpt lat="45.31390657591509" lon="9.115958959418188"><ele>92.0</ele><time>2026-04-19T09:29:51Z</time></trkpt><trkpt lat="45.31399816817092" lon="9.115908798307919"><ele>92.0</ele><time>2026-04-19T09:29:53Z</time></trkpt><trkpt lat="45.31408636781547" lon="9.115850089178673"><ele>92.0</ele><time>2026-04-19T09:29:55Z</time></trkpt><trkpt lat="45.314172476414114" lon="9.115786092072785"><ele>92.6</ele><time>2026-04-19T09:29:57Z</time></trkpt><trkpt lat="45.31425533238334" lon="9.115709824830676"><ele>93.19999999999999</ele><time>2026-04-19T09:29:59Z</time></trkpt><trkpt lat="45.314338243553685" lon="9.115631281761202"><ele>93.8</ele><time>2026-04-19T09:30:01Z</time></trkpt><trkpt lat="45.31441781259619" lon="9.1155506356151"><ele>94.4</ele><time>2026-04-19T09:30:03Z</time></trkpt><trkpt lat="45.314479958589104" lon="9.115442626921377"><ele>95.0</ele><time>2026-04-19T09:30:05Z</time></trkpt><trkpt lat="45.314527484993604" lon="9.115310240566128"><ele>95.0</ele><time>2026-04-19T09:30:07Z</time></trkpt><trkpt lat="45.314570081417976" lon="9.115174094596862"><ele>95.0</ele><time>2026-04-19T09:30:09Z</time></trkpt><trkpt lat="45.314611138885354" lon="9.115032131841753"><ele>95.0</ele><time>2026-04-19T09:30:11Z</time></trkpt><trkpt lat="45.31464812351599" lon="9.114891243761816"><ele>95.0</ele><time>2026-04-19T09:30:13Z</time></trkpt><trkpt lat="45.31468442824537" lon="9.114750318651458"><ele>95.0</ele><time>2026-04-19T09:30:15Z</time></trkpt><trkpt lat="45.3147166097498" lon="9.114609276560659"><ele>95.0</ele><time>2026-04-19T09:30:17Z</time></trkpt><trkpt lat="45.314752467082556" lon="9.114467178891264"><ele>95.0</ele><time>2026-04-19T09:30:19Z</time></trkpt><trkpt lat="45.31478463416289" lon="9.114321750256382"><ele>95.0</ele><time>2026-04-19T09:30:21Z</time></trkpt><trkpt lat="45.31481604523312" lon="9.114175933719652"><ele>95.0</ele><time>2026-04-19T09:30:23Z</time></trkpt><trkpt lat="45.31484797639573" lon="9.114033223869269"><ele>95.0</ele><time>2026-04-19T09:30:25Z</time></trkpt><trkpt lat="45.31487771742763" lon="9.113887941361297"><ele>94.8</ele><time>2026-04-19T09:30:27Z</time></trkpt><trkpt lat="45.31491608334693" lon="9.113744824118008"><ele>94.6</ele><time>2026-04-19T09:30:29Z</time></trkpt><trkpt lat="45.31495132150823" lon="9.113599139357808"><ele>94.4</ele><time>2026-04-19T09:30:31Z</time></trkpt><trkpt lat="45.31500351193463" lon="9.113458702115404"><ele>94.2</ele><time>2026-04-19T09:30:33Z</time></trkpt><trkpt lat="45.31510451644038" lon="9.113372892516841"><ele>94.0</ele><time>2026-04-19T09:30:35Z</time></trkpt><trkpt lat="45.315218743059994" lon="9.113316392502169"><ele>94.0</ele><time>2026-04-19T09:30:37Z</time></trkpt><trkpt lat="45.315329990151696" lon="9.11325853222495"><ele>94.0</ele><time>2026-04-19T09:30:39Z</time></trkpt><trkpt lat="45.315438621440805" lon="9.113195404867895"><ele>94.0</ele><time>2026-04-19T09:30:41Z</time></trkpt><trkpt lat="45.31554790456632" lon="9.11314113502439"><ele>94.0</ele><time>2026-04-19T09:30:43Z</time></trkpt><trkpt lat="45.31565383267106" lon="9.113081409986053"><ele>94.0</ele><time>2026-04-19T09:30:45Z</time></trkpt><trkpt lat="45.315760735951294" lon="9.113028792989315"><ele>94.0</ele><time>2026-04-19T09:30:47Z</time></trkpt><trkpt lat="45.31586561070239" lon="9.112977033837275"><ele>94.0</ele><time>2026-04-19T09:30:49Z</time></trkpt><trkpt lat="45.31597307847553" lon="9.112928304393373"><ele>94.0</ele><time>2026-04-19T09:30:51Z</time></trkpt><trkpt lat="45.31608033243922" lon="9.112879323068666"><ele>94.0</ele><time>2026-04-19T09:30:53Z</time></trkpt><trkpt lat="45.31618523734768" lon="9.11281981026824"><ele>94.0</ele><time>2026-04-19T09:30:55Z</time></trkpt><trkpt lat="45.316280721237426" lon="9.112736476421542"><ele>94.0</ele><time>2026-04-19T09:30:57Z</time></trkpt><trkpt lat="45.316364250052345" lon="9.11263079676011"><ele>94.0</ele><time>2026-04-19T09:30:59Z</time></trkpt><trkpt lat="45.31642864954347" lon="9.112515000778279"><ele>94.0</ele><time>2026-04-19T09:31:01Z</time></trkpt><trkpt lat="45.316515983919224" lon="9.11245867266839"><ele>94.2</ele><time>2026-04-19T09:31:03.001Z</time></trkpt><trkpt lat="45.31659426198735" lon="9.112543640941638"><ele>94.4</ele><time>2026-04-19T09:31:05.001Z</time></trkpt><trkpt lat="45.316638864302305" lon="9.112662033280456"><ele>94.6</ele><time>2026-04-19T09:31:07.001Z</time></trkpt><trkpt lat="45.31668498978072" lon="9.112779468193786"><ele>94.8</ele><time>2026-04-19T09:31:09.001Z</time></trkpt><trkpt lat="45.31673951672492" lon="9.112893182990017"><ele>95.0</ele><time>2026-04-19T09:31:11.001Z</time></trkpt><trkpt lat="45.31679325053344" lon="9.11300866945544"><ele>95.0</ele><time>2026-04-19T09:31:13.001Z</time></trkpt><trkpt lat="45.31685291960507" lon="9.113115500389712"><ele>95.0</ele><time>2026-04-19T09:31:15.001Z</time></trkpt><trkpt lat="45.31691888065969" lon="9.113213789712969"><ele>95.0</ele><time>2026-04-19T09:31:17.001Z</time></trkpt><trkpt lat="45.3169748159094" lon="9.11331425708474"><ele>95.0</ele><time>2026-04-19T09:31:19.001Z</time></trkpt><trkpt lat="45.317009097403435" lon="9.113434274968714"><ele>95.0</ele><time>2026-04-19T09:31:21.001Z</time></trkpt><trkpt lat="45.31700765287254" lon="9.113556036456309"><ele>94.66666666666667</ele><time>2026-04-19T09:31:23.001Z</time></trkpt><trkpt lat="45.31699675003675" lon="9.113671967862219"><ele>94.33333333333334</ele><time>2026-04-19T09:31:25.001Z</time></trkpt><trkpt lat="45.316982334773186" lon="9.113785925104303"><ele>94.0</ele><time>2026-04-19T09:31:27.001Z</time></trkpt><trkpt lat="45.316959900099036" lon="9.11389707305884"><ele>93.66666666666667</ele><time>2026-04-19T09:31:29.001Z</time></trkpt><trkpt lat="45.316934127459035" lon="9.113999459566076"><ele>93.33333333333333</ele><time>2026-04-19T09:31:31.001Z</time></trkpt><trkpt lat="45.31691435267722" lon="9.114110905316284"><ele>93.0</ele><time>2026-04-19T09:31:33.001Z</time></trkpt><trkpt lat="45.31689928446861" lon="9.114216963756562"><ele>93.0</ele><time>2026-04-19T09:31:35.001Z</time></trkpt><trkpt lat="45.31688091079488" lon="9.114319946378032"><ele>93.0</ele><time>2026-04-19T09:31:37.001Z</time></trkpt><trkpt lat="45.31687624452223" lon="9.114426549421346"><ele>93.0</ele><time>2026-04-19T09:31:39.001Z</time></trkpt><trkpt lat="45.3168602818506" lon="9.114534326647059"><ele>93.0</ele><time>2026-04-19T09:31:41.001Z</time></trkpt><trkpt lat="45.316854246699876" lon="9.114642714539208"><ele>93.0</ele><time>2026-04-19T09:31:43Z</time></trkpt><trkpt lat="45.31683772445671" lon="9.114752671204908"><ele>93.0</ele><time>2026-04-19T09:31:45Z</time></trkpt><trkpt lat="45.31683517490165" lon="9.11485371981053"><ele>93.33333333333333</ele><time>2026-04-19T09:31:47Z</time></trkpt><trkpt lat="45.31682372491606" lon="9.114948963299051"><ele>93.66666666666667</ele><time>2026-04-19T09:31:49Z</time></trkpt><trkpt lat="45.3168298903808" lon="9.115073791301903"><ele>94.0</ele><time>2026-04-19T09:31:52Z</time></trkpt><trkpt lat="45.316831379281915" lon="9.11521181396711"><ele>94.33333333333334</ele><time>2026-04-19T09:31:55Z</time></trkpt><trkpt lat="45.316831883053545" lon="9.115314650099913"><ele>94.66666666666667</ele><time>2026-04-19T09:31:57Z</time></trkpt><trkpt lat="45.316836835410754" lon="9.115427613574758"><ele>95.0</ele><time>2026-04-19T09:31:59Z</time></trkpt><trkpt lat="45.31684624499073" lon="9.115536537721145"><ele>95.0</ele><time>2026-04-19T09:32:01Z</time></trkpt><trkpt lat="45.316851139963305" lon="9.115646742206835"><ele>95.0</ele><time>2026-04-19T09:32:03Z</time></trkpt><trkpt lat="45.316858308319375" lon="9.115755939386782"><ele>95.0</ele><time>2026-04-19T09:32:05Z</time></trkpt><trkpt lat="45.31686689625395" lon="9.115866121133791"><ele>95.0</ele><time>2026-04-19T09:32:07Z</time></trkpt><trkpt lat="45.3168766447581" lon="9.115976415669035"><ele>95.0</ele><time>2026-04-19T09:32:09Z</time></trkpt><trkpt lat="45.31688223445535" lon="9.116083719122761"><ele>95.0</ele><time>2026-04-19T09:32:11Z</time></trkpt><trkpt lat="45.316890006408315" lon="9.116193653472813"><ele>95.14285714285714</ele><time>2026-04-19T09:32:13Z</time></trkpt><trkpt lat="45.31689628266737" lon="9.116303399963476"><ele>95.28571428571429</ele><time>2026-04-19T09:32:15Z</time></trkpt><trkpt lat="45.31690778134656" lon="9.116404698295176"><ele>95.42857142857142</ele><time>2026-04-19T09:32:17Z</time></trkpt><trkpt lat="45.31691320918511" lon="9.116511379231918"><ele>95.57142857142857</ele><time>2026-04-19T09:32:19Z</time></trkpt><trkpt lat="45.31691765628995" lon="9.116614065985534"><ele>95.71428571428571</ele><time>2026-04-19T09:32:21Z</time></trkpt><trkpt lat="45.31692166317233" lon="9.11672036562309"><ele>95.85714285714285</ele><time>2026-04-19T09:32:23Z</time></trkpt><trkpt lat="45.316928295648815" lon="9.116822481260119"><ele>96.0</ele><time>2026-04-19T09:32:25Z</time></trkpt><trkpt lat="45.31693419873257" lon="9.116972022685982"><ele>95.66666666666667</ele><time>2026-04-19T09:32:28Z</time></trkpt><trkpt lat="45.31694458618023" lon="9.117076877185697"><ele>95.33333333333333</ele><time>2026-04-19T09:32:30Z</time></trkpt><trkpt lat="45.31695150477617" lon="9.117183163320657"><ele>95.0</ele><time>2026-04-19T09:32:32Z</time></trkpt><trkpt lat="45.31695522132839" lon="9.117292472638766"><ele>94.66666666666666</ele><time>2026-04-19T09:32:34Z</time></trkpt><trkpt lat="45.31695991464241" lon="9.117406383448074"><ele>94.33333333333333</ele><time>2026-04-19T09:32:36Z</time></trkpt><trkpt lat="45.31697015569836" lon="9.117513614641188"><ele>94.0</ele><time>2026-04-19T09:32:38Z</time></trkpt><trkpt lat="45.31697399661094" lon="9.117623356286147"><ele>93.66666666666666</ele><time>2026-04-19T09:32:40Z</time></trkpt><trkpt lat="45.316979658567995" lon="9.117732916832736"><ele>93.33333333333333</ele><time>2026-04-19T09:32:42Z</time></trkpt><trkpt lat="45.316988115693924" lon="9.117842979090462"><ele>93.0</ele><time>2026-04-19T09:32:44Z</time></trkpt><trkpt lat="45.31699200577228" lon="9.117950672305119"><ele>92.66666666666667</ele><time>2026-04-19T09:32:46Z</time></trkpt><trkpt lat="45.316997355463656" lon="9.118061215450448"><ele>92.33333333333334</ele><time>2026-04-19T09:32:48Z</time></trkpt><trkpt lat="45.31700394196346" lon="9.118172853161381"><ele>92.0</ele><time>2026-04-19T09:32:50Z</time></trkpt><trkpt lat="45.31701060278722" lon="9.118285163694484"><ele>92.0</ele><time>2026-04-19T09:32:52Z</time></trkpt><trkpt lat="45.31701388581593" lon="9.118397836315394"><ele>92.0</ele><time>2026-04-19T09:32:54Z</time></trkpt><trkpt lat="45.31702180323711" lon="9.11851284700662"><ele>92.0</ele><time>2026-04-19T09:32:56Z</time></trkpt><trkpt lat="45.31702551931612" lon="9.118622852555132"><ele>92.0</ele><time>2026-04-19T09:32:58Z</time></trkpt><trkpt lat="45.317027838412606" lon="9.11872657807394"><ele>92.0</ele><time>2026-04-19T09:33:00Z</time></trkpt><trkpt lat="45.31702033124517" lon="9.118840506765734"><ele>92.0</ele><time>2026-04-19T09:33:02Z</time></trkpt><trkpt lat="45.31701752419582" lon="9.118964847493345"><ele>92.16666666666667</ele><time>2026-04-19T09:33:04Z</time></trkpt><trkpt lat="45.31701473676204" lon="9.119080750335545"><ele>92.33333333333334</ele><time>2026-04-19T09:33:06Z</time></trkpt><trkpt lat="45.31701131256179" lon="9.11919243103231"><ele>92.5</ele><time>2026-04-19T09:33:08Z</time></trkpt><trkpt lat="45.31700172491574" lon="9.119300567501321"><ele>92.66666666666667</ele><time>2026-04-19T09:33:10Z</time></trkpt><trkpt lat="45.31699253164827" lon="9.119406368136673"><ele>92.83333333333333</ele><time>2026-04-19T09:33:12Z</time></trkpt><trkpt lat="45.31695130339572" lon="9.119501215813763"><ele>93.0</ele><time>2026-04-19T09:33:14Z</time></trkpt><trkpt lat="45.31687123886251" lon="9.119554449167381"><ele>93.0</ele><time>2026-04-19T09:33:16Z</time></trkpt><trkpt lat="45.31678536868644" lon="9.119548928402754"><ele>93.0</ele><time>2026-04-19T09:33:18Z</time></trkpt><trkpt lat="45.31670190616348" lon="9.119556108456115"><ele>93.0</ele><time>2026-04-19T09:33:20.001Z</time></trkpt><trkpt lat="45.31661419436194" lon="9.119559473650153"><ele>93.0</ele><time>2026-04-19T09:33:22.001Z</time></trkpt><trkpt lat="45.316529279056816" lon="9.119560540283183"><ele>93.0</ele><time>2026-04-19T09:33:24.001Z</time></trkpt><trkpt lat="45.31644508318188" lon="9.119558298257976"><ele>93.0</ele><time>2026-04-19T09:33:26.001Z</time></trkpt><trkpt lat="45.3163551586551" lon="9.119563438144395"><ele>93.16666666666667</ele><time>2026-04-19T09:33:28.001Z</time></trkpt><trkpt lat="45.316266004499205" lon="9.11956535739468"><ele>93.33333333333333</ele><time>2026-04-19T09:33:30.001Z</time></trkpt><trkpt lat="45.316177490905055" lon="9.119573057023914"><ele>93.5</ele><time>2026-04-19T09:33:32.001Z</time></trkpt><trkpt lat="45.31609064467752" lon="9.119571930803083"><ele>93.66666666666666</ele><time>2026-04-19T09:33:34.001Z</time></trkpt><trkpt lat="45.31600601733009" lon="9.119570574845234"><ele>93.83333333333333</ele><time>2026-04-19T09:33:36.001Z</time></trkpt><trkpt lat="45.315922268891626" lon="9.119569202248785"><ele>94.0</ele><time>2026-04-19T09:33:38.001Z</time></trkpt><trkpt lat="45.31584711501556" lon="9.119565926037623"><ele>94.0</ele><time>2026-04-19T09:33:40.001Z</time></trkpt><trkpt lat="45.31577488694393" lon="9.119562232964093"><ele>94.0</ele><time>2026-04-19T09:33:42.001Z</time></trkpt><trkpt lat="45.31570094590072" lon="9.119562819491817"><ele>94.0</ele><time>2026-04-19T09:33:44.001Z</time></trkpt><trkpt lat="45.31563378168779" lon="9.11961377484753"><ele>94.0</ele><time>2026-04-19T09:33:46.001Z</time></trkpt><trkpt lat="45.31562213357057" lon="9.119731042006514"><ele>94.0</ele><time>2026-04-19T09:33:48Z</time></trkpt><trkpt lat="45.315647670069644" lon="9.119846923866364"><ele>94.0</ele><time>2026-04-19T09:33:50Z</time></trkpt><trkpt lat="45.315660473068654" lon="9.1199636262178"><ele>94.16666666666666</ele><time>2026-04-19T09:33:52Z</time></trkpt><trkpt lat="45.315678910406945" lon="9.120092343298072"><ele>94.33333333333333</ele><time>2026-04-19T09:33:54Z</time></trkpt><trkpt lat="45.31569189657499" lon="9.120213824699185"><ele>94.5</ele><time>2026-04-19T09:33:56Z</time></trkpt><trkpt lat="45.31570342616461" lon="9.1203294316925"><ele>94.66666666666667</ele><time>2026-04-19T09:33:58Z</time></trkpt><trkpt lat="45.31571464996554" lon="9.120439114174461"><ele>94.83333333333334</ele><time>2026-04-19T09:34:00Z</time></trkpt><trkpt lat="45.315725427563265" lon="9.120550714313602"><ele>95.0</ele><time>2026-04-19T09:34:02Z</time></trkpt><trkpt lat="45.315739906257" lon="9.120664142540594"><ele>94.66666666666667</ele><time>2026-04-19T09:34:04Z</time></trkpt><trkpt lat="45.315755133163684" lon="9.120772908683962"><ele>94.33333333333334</ele><time>2026-04-19T09:34:06Z</time></trkpt><trkpt lat="45.315765629985954" lon="9.120886978944485"><ele>94.0</ele><time>2026-04-19T09:34:08Z</time></trkpt><trkpt lat="45.31577691840413" lon="9.120999091668319"><ele>93.66666666666667</ele><time>2026-04-19T09:34:10Z</time></trkpt><trkpt lat="45.31578991451374" lon="9.121113108576944"><ele>93.33333333333333</ele><time>2026-04-19T09:34:12Z</time></trkpt><trkpt lat="45.31580585805712" lon="9.121228338505471"><ele>93.0</ele><time>2026-04-19T09:34:14Z</time></trkpt><trkpt lat="45.31581528781464" lon="9.121343783700222"><ele>93.0</ele><time>2026-04-19T09:34:16Z</time></trkpt><trkpt lat="45.31582905333468" lon="9.121456283390609"><ele>93.0</ele><time>2026-04-19T09:34:18Z</time></trkpt><trkpt lat="45.31584084926285" lon="9.12157204436042"><ele>93.0</ele><time>2026-04-19T09:34:20Z</time></trkpt><trkpt lat="45.31585044447108" lon="9.12168507679699"><ele>93.0</ele><time>2026-04-19T09:34:22Z</time></trkpt><trkpt lat="45.31586372806467" lon="9.121797180873896"><ele>93.0</ele><time>2026-04-19T09:34:24Z</time></trkpt><trkpt lat="45.315875115641305" lon="9.121911486024603"><ele>93.0</ele><time>2026-04-19T09:34:26Z</time></trkpt><trkpt lat="45.315887159942164" lon="9.122027126687076"><ele>93.0</ele><time>2026-04-19T09:34:28Z</time></trkpt><trkpt lat="45.31589966061149" lon="9.12214200907124"><ele>93.0</ele><time>2026-04-19T09:34:30Z</time></trkpt><trkpt lat="45.31590656348493" lon="9.122258081962345"><ele>93.0</ele><time>2026-04-19T09:34:32Z</time></trkpt><trkpt lat="45.3159173931858" lon="9.122373621855418"><ele>93.0</ele><time>2026-04-19T09:34:34Z</time></trkpt><trkpt lat="45.315928496445956" lon="9.122493567829512"><ele>93.0</ele><time>2026-04-19T09:34:36Z</time></trkpt><trkpt lat="45.31593897805298" lon="9.122610900387564"><ele>93.0</ele><time>2026-04-19T09:34:38Z</time></trkpt><trkpt lat="45.31595486018236" lon="9.12271968381239"><ele>93.0</ele><time>2026-04-19T09:34:40Z</time></trkpt><trkpt lat="45.31596275344535" lon="9.122828859693856"><ele>93.0</ele><time>2026-04-19T09:34:42Z</time></trkpt><trkpt lat="45.31597369497331" lon="9.122937351432864"><ele>93.0</ele><time>2026-04-19T09:34:44Z</time></trkpt><trkpt lat="45.3159861068897" lon="9.123044301502624"><ele>93.0</ele><time>2026-04-19T09:34:46Z</time></trkpt><trkpt lat="45.315995190090646" lon="9.12315237395975"><ele>93.0</ele><time>2026-04-19T09:34:48Z</time></trkpt><trkpt lat="45.31600341486358" lon="9.12325822312691"><ele>93.0</ele><time>2026-04-19T09:34:50Z</time></trkpt><trkpt lat="45.316013205468316" lon="9.123364151276405"><ele>93.00000000000001</ele><time>2026-04-19T09:34:52Z</time></trkpt><trkpt lat="45.31602460219512" lon="9.123472498711198"><ele>93.0</ele><time>2026-04-19T09:34:54Z</time></trkpt><trkpt lat="45.31603249702185" lon="9.123578520386676"><ele>93.0</ele><time>2026-04-19T09:34:56Z</time></trkpt><trkpt lat="45.31604274983193" lon="9.123681564061426"><ele>93.0</ele><time>2026-04-19T09:34:58Z</time></trkpt><trkpt lat="45.316049325479185" lon="9.123786078809669"><ele>93.0</ele><time>2026-04-19T09:35:00Z</time></trkpt><trkpt lat="45.316059384188065" lon="9.123891581688618"><ele>93.00000000000001</ele><time>2026-04-19T09:35:02Z</time></trkpt><trkpt lat="45.316068402618065" lon="9.12399771467713"><ele>93.0</ele><time>2026-04-19T09:35:04Z</time></trkpt><trkpt lat="45.316076157830324" lon="9.124106659830266"><ele>93.16666666666667</ele><time>2026-04-19T09:35:06Z</time></trkpt><trkpt lat="45.3160867674161" lon="9.124210535756559"><ele>93.33333333333333</ele><time>2026-04-19T09:35:08Z</time></trkpt><trkpt lat="45.316095697894845" lon="9.124316028567389"><ele>93.5</ele><time>2026-04-19T09:35:10Z</time></trkpt><trkpt lat="45.3161036112339" lon="9.124424856380815"><ele>93.66666666666666</ele><time>2026-04-19T09:35:12Z</time></trkpt><trkpt lat="45.31610955055355" lon="9.124533698315092"><ele>93.83333333333333</ele><time>2026-04-19T09:35:14Z</time></trkpt><trkpt lat="45.31611793598976" lon="9.124643527120236"><ele>94.0</ele><time>2026-04-19T09:35:16Z</time></trkpt><trkpt lat="45.316133663417496" lon="9.124750957807588"><ele>94.0</ele><time>2026-04-19T09:35:18Z</time></trkpt><trkpt lat="45.31614190723198" lon="9.12486107269556"><ele>94.0</ele><time>2026-04-19T09:35:20Z</time></trkpt><trkpt lat="45.316149526699334" lon="9.124973946698603"><ele>94.0</ele><time>2026-04-19T09:35:22Z</time></trkpt><trkpt lat="45.31616129518553" lon="9.125079222661583"><ele>94.0</ele><time>2026-04-19T09:35:24Z</time></trkpt><trkpt lat="45.316167342556625" lon="9.125183035846499"><ele>94.0</ele><time>2026-04-19T09:35:26Z</time></trkpt><trkpt lat="45.316176110411156" lon="9.125291550348564"><ele>94.0</ele><time>2026-04-19T09:35:28Z</time></trkpt><trkpt lat="45.31619023145632" lon="9.125399080234706"><ele>94.0</ele><time>2026-04-19T09:35:30.001Z</time></trkpt><trkpt lat="45.31619588306169" lon="9.125508068165901"><ele>94.0</ele><time>2026-04-19T09:35:32.001Z</time></trkpt><trkpt lat="45.316223787090465" lon="9.125605020720336"><ele>94.0</ele><time>2026-04-19T09:35:34.001Z</time></trkpt><trkpt lat="45.31631286535413" lon="9.125637014701615"><ele>94.0</ele><time>2026-04-19T09:35:36.001Z</time></trkpt><trkpt lat="45.3163723874027" lon="9.125607193608797"><ele>94.0</ele><time>2026-04-19T09:35:38.001Z</time></trkpt><trkpt lat="45.31644304459947" lon="9.125665317969371"><ele>94.0</ele><time>2026-04-19T09:35:40.001Z</time></trkpt><trkpt lat="45.31647336890136" lon="9.125780725953316"><ele>94.0</ele><time>2026-04-19T09:35:42.001Z</time></trkpt><trkpt lat="45.31648026622313" lon="9.125904417782357"><ele>94.0</ele><time>2026-04-19T09:35:44.001Z</time></trkpt><trkpt lat="45.316489938414286" lon="9.126012082234464"><ele>94.0</ele><time>2026-04-19T09:35:46.001Z</time></trkpt><trkpt lat="45.31649884383568" lon="9.12611691009372"><ele>94.0</ele><time>2026-04-19T09:35:48.001Z</time></trkpt><trkpt lat="45.3165049978565" lon="9.126224671469261"><ele>94.0</ele><time>2026-04-19T09:35:50.001Z</time></trkpt><trkpt lat="45.31651737502352" lon="9.126331581112392"><ele>94.0</ele><time>2026-04-19T09:35:52.001Z</time></trkpt><trkpt lat="45.3165271965882" lon="9.126445166858062"><ele>94.0</ele><time>2026-04-19T09:35:54Z</time></trkpt><trkpt lat="45.316535890790334" lon="9.12655340147063"><ele>94.0</ele><time>2026-04-19T09:35:56Z</time></trkpt><trkpt lat="45.316542356978836" lon="9.126664712933865"><ele>94.0</ele><time>2026-04-19T09:35:58Z</time></trkpt><trkpt lat="45.31655429429458" lon="9.126776243883945"><ele>94.0</ele><time>2026-04-19T09:36:00Z</time></trkpt><trkpt lat="45.31656183508894" lon="9.126886539127396"><ele>94.0</ele><time>2026-04-19T09:36:02Z</time></trkpt><trkpt lat="45.316569378240885" lon="9.126999802277837"><ele>94.0</ele><time>2026-04-19T09:36:04Z</time></trkpt><trkpt lat="45.316579719537195" lon="9.127110723491937"><ele>93.83333333333333</ele><time>2026-04-19T09:36:06Z</time></trkpt><trkpt lat="45.31659249283695" lon="9.127220351435684"><ele>93.66666666666666</ele><time>2026-04-19T09:36:08Z</time></trkpt><trkpt lat="45.31661350772905" lon="9.127323956382718"><ele>93.5</ele><time>2026-04-19T09:36:10Z</time></trkpt><trkpt lat="45.31663611014444" lon="9.127425830295689"><ele>93.33333333333333</ele><time>2026-04-19T09:36:12Z</time></trkpt><trkpt lat="45.316653905841584" lon="9.127539303160175"><ele>93.16666666666667</ele><time>2026-04-19T09:36:14Z</time></trkpt><trkpt lat="45.31667417290937" lon="9.127653657781854"><ele>93.0</ele><time>2026-04-19T09:36:16Z</time></trkpt><trkpt lat="45.31668901391143" lon="9.127774140758177"><ele>93.0</ele><time>2026-04-19T09:36:18Z</time></trkpt><trkpt lat="45.31670601634388" lon="9.127888868960973"><ele>93.0</ele><time>2026-04-19T09:36:20Z</time></trkpt><trkpt lat="45.31671787949991" lon="9.128002915263567"><ele>93.0</ele><time>2026-04-19T09:36:22Z</time></trkpt><trkpt lat="45.31673977099435" lon="9.128114555577769"><ele>93.0</ele><time>2026-04-19T09:36:24Z</time></trkpt><trkpt lat="45.31676036056074" lon="9.128236545117133"><ele>93.0</ele><time>2026-04-19T09:36:26Z</time></trkpt><trkpt lat="45.316776298019015" lon="9.128353649968377"><ele>93.0</ele><time>2026-04-19T09:36:28Z</time></trkpt><trkpt lat="45.31679302392015" lon="9.128472371286726"><ele>93.0</ele><time>2026-04-19T09:36:30Z</time></trkpt><trkpt lat="45.31680999310961" lon="9.128592832204012"><ele>93.0</ele><time>2026-04-19T09:36:32Z</time></trkpt><trkpt lat="45.316826151803895" lon="9.128707063840643"><ele>93.0</ele><time>2026-04-19T09:36:34Z</time></trkpt><trkpt lat="45.316840800374656" lon="9.128824232695417"><ele>93.0</ele><time>2026-04-19T09:36:36Z</time></trkpt><trkpt lat="45.3168577564874" lon="9.128942904187614"><ele>93.0</ele><time>2026-04-19T09:36:38Z</time></trkpt><trkpt lat="45.316876242028194" lon="9.129062174671473"><ele>93.0</ele><time>2026-04-19T09:36:40Z</time></trkpt><trkpt lat="45.31689128906644" lon="9.1291846252621"><ele>93.0</ele><time>2026-04-19T09:36:42Z</time></trkpt><trkpt lat="45.31691760902359" lon="9.12930335394905"><ele>93.0</ele><time>2026-04-19T09:36:44Z</time></trkpt><trkpt lat="45.31694341722541" lon="9.129423642342143"><ele>93.0</ele><time>2026-04-19T09:36:46Z</time></trkpt><trkpt lat="45.31697316603576" lon="9.129540961648527"><ele>93.0</ele><time>2026-04-19T09:36:48Z</time></trkpt><trkpt lat="45.31699454386308" lon="9.129662702746414"><ele>93.0</ele><time>2026-04-19T09:36:50Z</time></trkpt><trkpt lat="45.317020928887565" lon="9.129778611618443"><ele>93.0</ele><time>2026-04-19T09:36:52Z</time></trkpt><trkpt lat="45.317045748984995" lon="9.129899133558304"><ele>93.16666666666667</ele><time>2026-04-19T09:36:54Z</time></trkpt><trkpt lat="45.31707229910251" lon="9.130015788987638"><ele>93.33333333333333</ele><time>2026-04-19T09:36:56Z</time></trkpt><trkpt lat="45.31709285644042" lon="9.1301296477482"><ele>93.5</ele><time>2026-04-19T09:36:58Z</time></trkpt><trkpt lat="45.31712123984563" lon="9.130243912005776"><ele>93.66666666666666</ele><time>2026-04-19T09:37:00Z</time></trkpt><trkpt lat="45.31714657911213" lon="9.130362686757804"><ele>93.83333333333333</ele><time>2026-04-19T09:37:02Z</time></trkpt><trkpt lat="45.31717245712497" lon="9.130482887133759"><ele>94.0</ele><time>2026-04-19T09:37:04Z</time></trkpt><trkpt lat="45.31719971872859" lon="9.130592795020787"><ele>94.0</ele><time>2026-04-19T09:37:06Z</time></trkpt><trkpt lat="45.3172206255227" lon="9.13070382984303"><ele>94.0</ele><time>2026-04-19T09:37:08Z</time></trkpt><trkpt lat="45.31724488852178" lon="9.130812618997115"><ele>94.0</ele><time>2026-04-19T09:37:10Z</time></trkpt><trkpt lat="45.31727290228519" lon="9.130921424324464"><ele>94.0</ele><time>2026-04-19T09:37:12Z</time></trkpt><trkpt lat="45.31729298328239" lon="9.13102546847854"><ele>94.0</ele><time>2026-04-19T09:37:14Z</time></trkpt><trkpt lat="45.317312170962715" lon="9.131121519876126"><ele>94.0</ele><time>2026-04-19T09:37:16Z</time></trkpt><trkpt lat="45.317330872566465" lon="9.131208849514419"><ele>94.0</ele><time>2026-04-19T09:37:18Z</time></trkpt><trkpt lat="45.31735284596849" lon="9.131330506573978"><ele>94.0</ele><time>2026-04-19T09:37:21Z</time></trkpt><trkpt lat="45.317373227961845" lon="9.13143004710837"><ele>94.0</ele><time>2026-04-19T09:37:24Z</time></trkpt><trkpt lat="45.317394862956704" lon="9.131517568765537"><ele>94.0</ele><time>2026-04-19T09:37:39.001Z</time></trkpt><trkpt lat="45.31739076390586" lon="9.131625014464658"><ele>94.0</ele><time>2026-04-19T09:39:13Z</time></trkpt><trkpt lat="45.31741938446889" lon="9.131729856722139"><ele>94.0</ele><time>2026-04-19T09:39:17Z</time></trkpt><trkpt lat="45.317443745357416" lon="9.131834086564748"><ele>94.0</ele><time>2026-04-19T09:39:20Z</time></trkpt><trkpt lat="45.31747389975766" lon="9.131953515430423"><ele>94.0</ele><time>2026-04-19T09:39:23Z</time></trkpt><trkpt lat="45.31750344061284" lon="9.132081103901388"><ele>94.0</ele><time>2026-04-19T09:39:26Z</time></trkpt><trkpt lat="45.31752418683617" lon="9.132175439578031"><ele>94.0</ele><time>2026-04-19T09:39:28Z</time></trkpt><trkpt lat="45.317552442946464" lon="9.132276692287384"><ele>94.0</ele><time>2026-04-19T09:39:30Z</time></trkpt><trkpt lat="45.317586312186734" lon="9.13238243399955"><ele>94.0</ele><time>2026-04-19T09:39:32Z</time></trkpt><trkpt lat="45.31760765013267" lon="9.132492054563315"><ele>94.16666666666666</ele><time>2026-04-19T09:39:34Z</time></trkpt><trkpt lat="45.317640422918494" lon="9.132600740126035"><ele>94.33333333333333</ele><time>2026-04-19T09:39:36Z</time></trkpt><trkpt lat="45.317692792910314" lon="9.132701534209513"><ele>94.5</ele><time>2026-04-19T09:39:38Z</time></trkpt><trkpt lat="45.31775646733117" lon="9.132788251500756"><ele>94.66666666666667</ele><time>2026-04-19T09:39:40Z</time></trkpt><trkpt lat="45.317791204202216" lon="9.132911911455277"><ele>94.83333333333334</ele><time>2026-04-19T09:39:42Z</time></trkpt><trkpt lat="45.317825107273265" lon="9.133037942428818"><ele>95.0</ele><time>2026-04-19T09:39:44.001Z</time></trkpt><trkpt lat="45.31787170178759" lon="9.133161905719989"><ele>94.8</ele><time>2026-04-19T09:39:46.001Z</time></trkpt><trkpt lat="45.31789657894066" lon="9.133294850027577"><ele>94.6</ele><time>2026-04-19T09:39:48.001Z</time></trkpt><trkpt lat="45.31793699273156" lon="9.133427510335586"><ele>94.4</ele><time>2026-04-19T09:39:50.001Z</time></trkpt><trkpt lat="45.317971183137345" lon="9.133563243426211"><ele>94.2</ele><time>2026-04-19T09:39:52.001Z</time></trkpt><trkpt lat="45.31799953578657" lon="9.13369528172578"><ele>94.0</ele><time>2026-04-19T09:39:54.001Z</time></trkpt><trkpt lat="45.317998048788326" lon="9.133832066602993"><ele>94.0</ele><time>2026-04-19T09:39:56.001Z</time></trkpt><trkpt lat="45.31797601305673" lon="9.133957084122565"><ele>94.0</ele><time>2026-04-19T09:39:58.001Z</time></trkpt><trkpt lat="45.31801956019102" lon="9.13406998812062"><ele>94.0</ele><time>2026-04-19T09:40:00.001Z</time></trkpt><trkpt lat="45.318097337505385" lon="9.1341418932782"><ele>94.0</ele><time>2026-04-19T09:40:02.001Z</time></trkpt><trkpt lat="45.318147072533826" lon="9.134260262315987"><ele>94.0</ele><time>2026-04-19T09:40:04.001Z</time></trkpt><trkpt lat="45.31819060335301" lon="9.134387456038231"><ele>94.0</ele><time>2026-04-19T09:40:06Z</time></trkpt><trkpt lat="45.318224487115444" lon="9.134519518144558"><ele>94.0</ele><time>2026-04-19T09:40:08Z</time></trkpt><trkpt lat="45.31825808602292" lon="9.134643077723249"><ele>94.0</ele><time>2026-04-19T09:40:10Z</time></trkpt><trkpt lat="45.31828373956373" lon="9.134768593752181"><ele>94.0</ele><time>2026-04-19T09:40:12Z</time></trkpt><trkpt lat="45.31830758338601" lon="9.13489788653207"><ele>94.0</ele><time>2026-04-19T09:40:14Z</time></trkpt><trkpt lat="45.31832035340077" lon="9.1350350531395"><ele>94.0</ele><time>2026-04-19T09:40:16Z</time></trkpt><trkpt lat="45.31835224889623" lon="9.135158138544085"><ele>94.0</ele><time>2026-04-19T09:40:18Z</time></trkpt><trkpt lat="45.318374430348975" lon="9.135295031033268"><ele>94.0</ele><time>2026-04-19T09:40:20Z</time></trkpt><trkpt lat="45.31838204367749" lon="9.135434402246938"><ele>94.0</ele><time>2026-04-19T09:40:22Z</time></trkpt><trkpt lat="45.31839330954493" lon="9.135577628052875"><ele>94.0</ele><time>2026-04-19T09:40:24Z</time></trkpt><trkpt lat="45.3183935086417" lon="9.135724738273208"><ele>93.80000000000001</ele><time>2026-04-19T09:40:26Z</time></trkpt><trkpt lat="45.318372512651685" lon="9.135868461317784"><ele>93.60000000000001</ele><time>2026-04-19T09:40:28Z</time></trkpt><trkpt lat="45.31836172735467" lon="9.136011811390198"><ele>93.4</ele><time>2026-04-19T09:40:30Z</time></trkpt><trkpt lat="45.31835404799208" lon="9.136154510504223"><ele>93.2</ele><time>2026-04-19T09:40:32Z</time></trkpt><trkpt lat="45.31834247450304" lon="9.136293578762166"><ele>93.0</ele><time>2026-04-19T09:40:34Z</time></trkpt><trkpt lat="45.31831765470356" lon="9.136431940201607"><ele>93.0</ele><time>2026-04-19T09:40:36Z</time></trkpt><trkpt lat="45.31828689871764" lon="9.136567896546389"><ele>93.0</ele><time>2026-04-19T09:40:38Z</time></trkpt><trkpt lat="45.31824626540504" lon="9.13669314284237"><ele>93.0</ele><time>2026-04-19T09:40:40Z</time></trkpt><trkpt lat="45.31819345416238" lon="9.136810939286363"><ele>93.0</ele><time>2026-04-19T09:40:42Z</time></trkpt><trkpt lat="45.318135594756676" lon="9.136925907633291"><ele>93.0</ele><time>2026-04-19T09:40:44Z</time></trkpt><trkpt lat="45.318083935322555" lon="9.13704221911291"><ele>93.2</ele><time>2026-04-19T09:40:46Z</time></trkpt><trkpt lat="45.31803785494711" lon="9.137152439540694"><ele>93.4</ele><time>2026-04-19T09:40:48Z</time></trkpt><trkpt lat="45.31798487162362" lon="9.137275164606597"><ele>93.60000000000001</ele><time>2026-04-19T09:40:50Z</time></trkpt><trkpt lat="45.3179333297473" lon="9.13740258806837"><ele>93.80000000000001</ele><time>2026-04-19T09:40:52Z</time></trkpt><trkpt lat="45.3178993761958" lon="9.137543991659243"><ele>94.0</ele><time>2026-04-19T09:40:54Z</time></trkpt><trkpt lat="45.317885598412154" lon="9.137688122911232"><ele>94.0</ele><time>2026-04-19T09:40:56Z</time></trkpt><trkpt lat="45.3178695394297" lon="9.137830226682906"><ele>94.0</ele><time>2026-04-19T09:40:58Z</time></trkpt><trkpt lat="45.317861240075956" lon="9.137971662725048"><ele>94.0</ele><time>2026-04-19T09:41:00Z</time></trkpt><trkpt lat="45.31784833687463" lon="9.138112836568304"><ele>94.0</ele><time>2026-04-19T09:41:02Z</time></trkpt><trkpt lat="45.31785230395719" lon="9.138257917737903"><ele>94.0</ele><time>2026-04-19T09:41:04Z</time></trkpt><trkpt lat="45.317842818897816" lon="9.13839801757329"><ele>94.0</ele><time>2026-04-19T09:41:06Z</time></trkpt><trkpt lat="45.31783697317401" lon="9.13853774283326"><ele>94.0</ele><time>2026-04-19T09:41:08Z</time></trkpt><trkpt lat="45.317827976959244" lon="9.138679670882313"><ele>94.0</ele><time>2026-04-19T09:41:10Z</time></trkpt><trkpt lat="45.317828302580075" lon="9.138817238174786"><ele>94.0</ele><time>2026-04-19T09:41:12Z</time></trkpt><trkpt lat="45.31784233241864" lon="9.138946643797043"><ele>94.0</ele><time>2026-04-19T09:41:14Z</time></trkpt><trkpt lat="45.317864130254975" lon="9.13906493898157"><ele>94.0</ele><time>2026-04-19T09:41:16Z</time></trkpt><trkpt lat="45.317887595040006" lon="9.139185865762274"><ele>94.0</ele><time>2026-04-19T09:41:18Z</time></trkpt><trkpt lat="45.31787944157478" lon="9.139316924800918"><ele>94.0</ele><time>2026-04-19T09:41:20Z</time></trkpt><trkpt lat="45.31789881262925" lon="9.139442459905231"><ele>94.0</ele><time>2026-04-19T09:41:22Z</time></trkpt><trkpt lat="45.31792145493239" lon="9.139574555104916"><ele>94.0</ele><time>2026-04-19T09:41:24Z</time></trkpt><trkpt lat="45.31794529116968" lon="9.13970013883391"><ele>94.0</ele><time>2026-04-19T09:41:26Z</time></trkpt><trkpt lat="45.31796233572553" lon="9.139828659356368"><ele>94.0</ele><time>2026-04-19T09:41:28Z</time></trkpt><trkpt lat="45.31798209713522" lon="9.139959102935554"><ele>94.0</ele><time>2026-04-19T09:41:30Z</time></trkpt><trkpt lat="45.31799823338451" lon="9.140090318310953"><ele>94.0</ele><time>2026-04-19T09:41:32Z</time></trkpt><trkpt lat="45.318021148129375" lon="9.14022722037875"><ele>94.0</ele><time>2026-04-19T09:41:34Z</time></trkpt><trkpt lat="45.318038316703216" lon="9.140367643258154"><ele>94.0</ele><time>2026-04-19T09:41:36Z</time></trkpt><trkpt lat="45.318026706217424" lon="9.1405134852118"><ele>94.0</ele><time>2026-04-19T09:41:38Z</time></trkpt><trkpt lat="45.317995947450314" lon="9.14065192096289"><ele>94.0</ele><time>2026-04-19T09:41:40Z</time></trkpt><trkpt lat="45.31796050765433" lon="9.140789868803855"><ele>94.0</ele><time>2026-04-19T09:41:42Z</time></trkpt><trkpt lat="45.31792212708287" lon="9.140930088237964"><ele>94.0</ele><time>2026-04-19T09:41:44Z</time></trkpt><trkpt lat="45.31789161672173" lon="9.141072077185806"><ele>94.0</ele><time>2026-04-19T09:41:46Z</time></trkpt><trkpt lat="45.31784623275162" lon="9.141186710840385"><ele>94.0</ele><time>2026-04-19T09:41:48Z</time></trkpt><trkpt lat="45.31784301413523" lon="9.141298324200601"><ele>94.0</ele><time>2026-04-19T09:41:50Z</time></trkpt><trkpt lat="45.31792061422635" lon="9.141363951453942"><ele>94.0</ele><time>2026-04-19T09:41:52.001Z</time></trkpt><trkpt lat="45.31801437714437" lon="9.141371250216432"><ele>94.0</ele><time>2026-04-19T09:41:54.001Z</time></trkpt><trkpt lat="45.318104472065926" lon="9.14139056609335"><ele>94.0</ele><time>2026-04-19T09:41:56.001Z</time></trkpt><trkpt lat="45.318196768536374" lon="9.141400215993185"><ele>94.0</ele><time>2026-04-19T09:41:58.001Z</time></trkpt><trkpt lat="45.3182892076494" lon="9.141410908898175"><ele>94.0</ele><time>2026-04-19T09:42:00.001Z</time></trkpt><trkpt lat="45.31838414070021" lon="9.141423137744841"><ele>94.0</ele><time>2026-04-19T09:42:02.001Z</time></trkpt><trkpt lat="45.318481493794" lon="9.141420439992702"><ele>94.0</ele><time>2026-04-19T09:42:04.001Z</time></trkpt><trkpt lat="45.31857764624362" lon="9.141394393657498"><ele>94.0</ele><time>2026-04-19T09:42:06.001Z</time></trkpt><trkpt lat="45.31867235511421" lon="9.141349472738261"><ele>94.0</ele><time>2026-04-19T09:42:08.001Z</time></trkpt><trkpt lat="45.318764985918925" lon="9.14130036043832"><ele>94.0</ele><time>2026-04-19T09:42:10.001Z</time></trkpt><trkpt lat="45.31885506864948" lon="9.141252115532717"><ele>94.0</ele><time>2026-04-19T09:42:12Z</time></trkpt><trkpt lat="45.31894381910116" lon="9.141208245269148"><ele>94.0</ele><time>2026-04-19T09:42:14Z</time></trkpt><trkpt lat="45.31903145817176" lon="9.141164309119914"><ele>94.0</ele><time>2026-04-19T09:42:16Z</time></trkpt><trkpt lat="45.319117367353996" lon="9.141120266190823"><ele>94.0</ele><time>2026-04-19T09:42:18Z</time></trkpt><trkpt lat="45.3192018823355" lon="9.141068227860577"><ele>94.0</ele><time>2026-04-19T09:42:20Z</time></trkpt><trkpt lat="45.31928915522794" lon="9.141025974107235"><ele>94.0</ele><time>2026-04-19T09:42:22Z</time></trkpt><trkpt lat="45.3193795121442" lon="9.140979298529285"><ele>94.0</ele><time>2026-04-19T09:42:24Z</time></trkpt><trkpt lat="45.31947610235172" lon="9.140981805030503"><ele>94.0</ele><time>2026-04-19T09:42:26Z</time></trkpt><trkpt lat="45.31958885584925" lon="9.140976506529485"><ele>94.0</ele><time>2026-04-19T09:42:28Z</time></trkpt><trkpt lat="45.319682740898024" lon="9.140913392016726"><ele>94.0</ele><time>2026-04-19T09:42:30Z</time></trkpt><trkpt lat="45.319767290837234" lon="9.140810452382087"><ele>94.0</ele><time>2026-04-19T09:42:32Z</time></trkpt><trkpt lat="45.31986491155168" lon="9.140732144978925"><ele>94.0</ele><time>2026-04-19T09:42:34Z</time></trkpt><trkpt lat="45.31997302580672" lon="9.140674029743794"><ele>94.0</ele><time>2026-04-19T09:42:36Z</time></trkpt><trkpt lat="45.32007906740132" lon="9.140610100966223"><ele>94.2</ele><time>2026-04-19T09:42:38Z</time></trkpt><trkpt lat="45.3201826154724" lon="9.140548066630894"><ele>94.4</ele><time>2026-04-19T09:42:40Z</time></trkpt><trkpt lat="45.32028200023672" lon="9.140481126678383"><ele>94.6</ele><time>2026-04-19T09:42:42Z</time></trkpt><trkpt lat="45.32038546841161" lon="9.140419617529691"><ele>94.8</ele><time>2026-04-19T09:42:44Z</time></trkpt><trkpt lat="45.32048589339999" lon="9.14035674243899"><ele>95.0</ele><time>2026-04-19T09:42:46Z</time></trkpt><trkpt lat="45.320583448251384" lon="9.140283704814946"><ele>95.0</ele><time>2026-04-19T09:42:48Z</time></trkpt><trkpt lat="45.32068447440851" lon="9.140220080613311"><ele>95.0</ele><time>2026-04-19T09:42:50Z</time></trkpt><trkpt lat="45.32078631901435" lon="9.140158444105888"><ele>95.0</ele><time>2026-04-19T09:42:52Z</time></trkpt><trkpt lat="45.320888714844344" lon="9.140096253612533"><ele>95.0</ele><time>2026-04-19T09:42:54Z</time></trkpt><trkpt lat="45.320986340188" lon="9.140033582358702"><ele>95.0</ele><time>2026-04-19T09:42:56Z</time></trkpt><trkpt lat="45.32109148795131" lon="9.139985826161414"><ele>95.0</ele><time>2026-04-19T09:42:58Z</time></trkpt><trkpt lat="45.32119320402294" lon="9.139938101290298"><ele>95.0</ele><time>2026-04-19T09:43:00Z</time></trkpt><trkpt lat="45.32128698734443" lon="9.139875383269592"><ele>95.0</ele><time>2026-04-19T09:43:02Z</time></trkpt><trkpt lat="45.32138392221933" lon="9.13980773525271"><ele>95.0</ele><time>2026-04-19T09:43:04Z</time></trkpt><trkpt lat="45.321477949154186" lon="9.139730727336437"><ele>95.0</ele><time>2026-04-19T09:43:06Z</time></trkpt><trkpt lat="45.32158132261198" lon="9.139669224211987"><ele>95.2</ele><time>2026-04-19T09:43:08Z</time></trkpt><trkpt lat="45.32168320236931" lon="9.139610903514958"><ele>95.4</ele><time>2026-04-19T09:43:10Z</time></trkpt><trkpt lat="45.32178350815682" lon="9.139547445397321"><ele>95.6</ele><time>2026-04-19T09:43:12Z</time></trkpt><trkpt lat="45.321884083077755" lon="9.139486260397701"><ele>95.8</ele><time>2026-04-19T09:43:14Z</time></trkpt><trkpt lat="45.321982622018155" lon="9.139425064690329"><ele>96.0</ele><time>2026-04-19T09:43:16Z</time></trkpt><trkpt lat="45.3220782001234" lon="9.139369458618463"><ele>96.0</ele><time>2026-04-19T09:43:18Z</time></trkpt><trkpt lat="45.32216866308355" lon="9.139310682496182"><ele>96.0</ele><time>2026-04-19T09:43:20Z</time></trkpt><trkpt lat="45.32226004110135" lon="9.139269464122878"><ele>96.0</ele><time>2026-04-19T09:43:22Z</time></trkpt><trkpt lat="45.32233835617877" lon="9.139220590408176"><ele>96.0</ele><time>2026-04-19T09:43:24Z</time></trkpt><trkpt lat="45.32241162191407" lon="9.139290100954197"><ele>96.0</ele><time>2026-04-19T09:43:26Z</time></trkpt><trkpt lat="45.322455234408935" lon="9.139427957095954"><ele>96.19999999999999</ele><time>2026-04-19T09:43:28Z</time></trkpt><trkpt lat="45.32250912133186" lon="9.139545339072365"><ele>96.39999999999999</ele><time>2026-04-19T09:43:30Z</time></trkpt><trkpt lat="45.3225547559942" lon="9.13967341177245"><ele>96.6</ele><time>2026-04-19T09:43:32Z</time></trkpt><trkpt lat="45.32259920637251" lon="9.139801204089723"><ele>96.8</ele><time>2026-04-19T09:43:34Z</time></trkpt><trkpt lat="45.322639179236326" lon="9.139934233048471"><ele>97.0</ele><time>2026-04-19T09:43:36Z</time></trkpt><trkpt lat="45.32268219690514" lon="9.140064731734794"><ele>96.6</ele><time>2026-04-19T09:43:38Z</time></trkpt><trkpt lat="45.32271976822442" lon="9.140202426328624"><ele>96.19999999999999</ele><time>2026-04-19T09:43:40Z</time></trkpt><trkpt lat="45.32275762121899" lon="9.140339542397529"><ele>95.8</ele><time>2026-04-19T09:43:42Z</time></trkpt><trkpt lat="45.32280147151927" lon="9.14047017396338"><ele>95.4</ele><time>2026-04-19T09:43:44Z</time></trkpt><trkpt lat="45.322838821460984" lon="9.140605438960996"><ele>95.0</ele><time>2026-04-19T09:43:46Z</time></trkpt><trkpt lat="45.322884808639586" lon="9.140734753190308"><ele>95.0</ele><time>2026-04-19T09:43:48Z</time></trkpt><trkpt lat="45.32292204509713" lon="9.140867016733065"><ele>95.0</ele><time>2026-04-19T09:43:50Z</time></trkpt><trkpt lat="45.32295903940726" lon="9.140978102196232"><ele>95.0</ele><time>2026-04-19T09:43:52Z</time></trkpt><trkpt lat="45.323000271436904" lon="9.141106000749181"><ele>95.0</ele><time>2026-04-19T09:43:54Z</time></trkpt><trkpt lat="45.32303300088176" lon="9.141233228117748"><ele>95.0</ele><time>2026-04-19T09:43:56Z</time></trkpt><trkpt lat="45.32307015229701" lon="9.141360693295855"><ele>95.2</ele><time>2026-04-19T09:43:58Z</time></trkpt><trkpt lat="45.32310316304093" lon="9.141492146046243"><ele>95.4</ele><time>2026-04-19T09:44:00Z</time></trkpt><trkpt lat="45.323140783802984" lon="9.141629583295236"><ele>95.6</ele><time>2026-04-19T09:44:02Z</time></trkpt><trkpt lat="45.323163510932076" lon="9.141714609768997"><ele>95.8</ele><time>2026-04-19T09:44:03Z</time></trkpt><trkpt lat="45.323204326909604" lon="9.141827754786018"><ele>96.0</ele><time>2026-04-19T09:44:05Z</time></trkpt><trkpt lat="45.32323375193849" lon="9.141968733048738"><ele>96.19999999999999</ele><time>2026-04-19T09:44:07.001Z</time></trkpt><trkpt lat="45.323273606003916" lon="9.142102461100885"><ele>96.39999999999999</ele><time>2026-04-19T09:44:09.001Z</time></trkpt><trkpt lat="45.323315324883445" lon="9.142231941397938"><ele>96.6</ele><time>2026-04-19T09:44:11.001Z</time></trkpt><trkpt lat="45.3233565421782" lon="9.14236759051438"><ele>96.8</ele><time>2026-04-19T09:44:13.001Z</time></trkpt><trkpt lat="45.32339406130424" lon="9.142498248282303"><ele>97.0</ele><time>2026-04-19T09:44:15.001Z</time></trkpt><trkpt lat="45.3234349017848" lon="9.142628188260044"><ele>96.6</ele><time>2026-04-19T09:44:17.001Z</time></trkpt><trkpt lat="45.3234704704662" lon="9.142762024693434"><ele>96.19999999999999</ele><time>2026-04-19T09:44:19Z</time></trkpt><trkpt lat="45.32350538411282" lon="9.142894947156444"><ele>95.8</ele><time>2026-04-19T09:44:21Z</time></trkpt><trkpt lat="45.32354381778573" lon="9.143031395382197"><ele>95.4</ele><time>2026-04-19T09:44:23Z</time></trkpt><trkpt lat="45.323582678223765" lon="9.143162697009277"><ele>95.0</ele><time>2026-04-19T09:44:25Z</time></trkpt><trkpt lat="45.32362276034616" lon="9.14329280291049"><ele>94.8</ele><time>2026-04-19T09:44:27Z</time></trkpt><trkpt lat="45.323648844989094" lon="9.143427348562389"><ele>94.6</ele><time>2026-04-19T09:44:29Z</time></trkpt><trkpt lat="45.32364404177299" lon="9.1435715683595"><ele>94.4</ele><time>2026-04-19T09:44:31Z</time></trkpt><trkpt lat="45.32368582570122" lon="9.143704818082346"><ele>94.2</ele><time>2026-04-19T09:44:33Z</time></trkpt><trkpt lat="45.323713595230814" lon="9.143838251056575"><ele>94.0</ele><time>2026-04-19T09:44:35Z</time></trkpt><trkpt lat="45.323720550245184" lon="9.143984447478834"><ele>94.2</ele><time>2026-04-19T09:44:37Z</time></trkpt><trkpt lat="45.323723618683914" lon="9.14413241433621"><ele>94.4</ele><time>2026-04-19T09:44:39Z</time></trkpt><trkpt lat="45.32373412105082" lon="9.144276033902154"><ele>94.6</ele><time>2026-04-19T09:44:41Z</time></trkpt><trkpt lat="45.32374819129897" lon="9.14441222243403"><ele>94.8</ele><time>2026-04-19T09:44:43Z</time></trkpt><trkpt lat="45.32376025801259" lon="9.144549290362065"><ele>95.0</ele><time>2026-04-19T09:44:45Z</time></trkpt><trkpt lat="45.323767006286715" lon="9.144687593777373"><ele>95.0</ele><time>2026-04-19T09:44:47Z</time></trkpt><trkpt lat="45.32375598486719" lon="9.144827856787133"><ele>95.0</ele><time>2026-04-19T09:44:49Z</time></trkpt><trkpt lat="45.32372117081835" lon="9.144973972837507"><ele>95.0</ele><time>2026-04-19T09:44:51Z</time></trkpt><trkpt lat="45.32368882504982" lon="9.145122217636466"><ele>95.0</ele><time>2026-04-19T09:44:53Z</time></trkpt><trkpt lat="45.323658270171066" lon="9.145268589554826"><ele>95.0</ele><time>2026-04-19T09:44:55Z</time></trkpt><trkpt lat="45.32362344361255" lon="9.145413578331416"><ele>95.0</ele><time>2026-04-19T09:44:57Z</time></trkpt><trkpt lat="45.3236063258984" lon="9.145564924746099"><ele>95.0</ele><time>2026-04-19T09:44:59Z</time></trkpt><trkpt lat="45.32357383248425" lon="9.145708425396297"><ele>95.0</ele><time>2026-04-19T09:45:01Z</time></trkpt><trkpt lat="45.323549524307325" lon="9.145848836128913"><ele>95.0</ele><time>2026-04-19T09:45:03Z</time></trkpt><trkpt lat="45.323526367580655" lon="9.145985571716915"><ele>95.0</ele><time>2026-04-19T09:45:05Z</time></trkpt><trkpt lat="45.32351063216799" lon="9.1461254434348"><ele>95.0</ele><time>2026-04-19T09:45:07Z</time></trkpt><trkpt lat="45.32350131355144" lon="9.146265115501267"><ele>95.0</ele><time>2026-04-19T09:45:09Z</time></trkpt><trkpt lat="45.323492871342964" lon="9.146404848479857"><ele>95.0</ele><time>2026-04-19T09:45:11Z</time></trkpt><trkpt lat="45.32347940539749" lon="9.146548100672375"><ele>95.0</ele><time>2026-04-19T09:45:13Z</time></trkpt><trkpt lat="45.3234702186263" lon="9.14669130713535"><ele>95.0</ele><time>2026-04-19T09:45:15Z</time></trkpt><trkpt lat="45.32345864502026" lon="9.146831812534678"><ele>95.0</ele><time>2026-04-19T09:45:17Z</time></trkpt><trkpt lat="45.323435407116484" lon="9.146969177892494"><ele>95.0</ele><time>2026-04-19T09:45:19Z</time></trkpt><trkpt lat="45.32337908679858" lon="9.147082902284676"><ele>95.0</ele><time>2026-04-19T09:45:21Z</time></trkpt><trkpt lat="45.3232989310893" lon="9.147159818719285"><ele>95.0</ele><time>2026-04-19T09:45:23Z</time></trkpt><trkpt lat="45.32323081998467" lon="9.147249182316667"><ele>95.0</ele><time>2026-04-19T09:45:25Z</time></trkpt><trkpt lat="45.32320322117366" lon="9.14737851246673"><ele>94.8</ele><time>2026-04-19T09:45:27Z</time></trkpt><trkpt lat="45.32322060763669" lon="9.147513137299116"><ele>94.6</ele><time>2026-04-19T09:45:29Z</time></trkpt><trkpt lat="45.32325767737406" lon="9.14765397620964"><ele>94.4</ele><time>2026-04-19T09:45:31Z</time></trkpt><trkpt lat="45.32329608091315" lon="9.147799252850563"><ele>94.2</ele><time>2026-04-19T09:45:33Z</time></trkpt><trkpt lat="45.32334104456589" lon="9.14794636974574"><ele>94.0</ele><time>2026-04-19T09:45:35Z</time></trkpt><trkpt lat="45.32338568096282" lon="9.14809646699734"><ele>93.6</ele><time>2026-04-19T09:45:37Z</time></trkpt><trkpt lat="45.32343269433775" lon="9.148247195061911"><ele>93.2</ele><time>2026-04-19T09:45:39Z</time></trkpt><trkpt lat="45.323475324294826" lon="9.148396450577408"><ele>92.8</ele><time>2026-04-19T09:45:41Z</time></trkpt><trkpt lat="45.323516873117526" lon="9.148543326262756"><ele>92.39999999999999</ele><time>2026-04-19T09:45:43Z</time></trkpt><trkpt lat="45.32356219453088" lon="9.148681000730662"><ele>92.0</ele><time>2026-04-19T09:45:45Z</time></trkpt><trkpt lat="45.32358468827503" lon="9.148830081348354"><ele>92.0</ele><time>2026-04-19T09:45:47Z</time></trkpt><trkpt lat="45.32357192881779" lon="9.148978472699545"><ele>92.0</ele><time>2026-04-19T09:45:49Z</time></trkpt><trkpt lat="45.32350714869593" lon="9.149111075074329"><ele>92.0</ele><time>2026-04-19T09:45:51Z</time></trkpt><trkpt lat="45.323444603373865" lon="9.149242305010448"><ele>92.0</ele><time>2026-04-19T09:45:53Z</time></trkpt><trkpt lat="45.32337730979252" lon="9.149367678648108"><ele>92.0</ele><time>2026-04-19T09:45:55Z</time></trkpt><trkpt lat="45.323298097243935" lon="9.149476937851206"><ele>92.0</ele><time>2026-04-19T09:45:57Z</time></trkpt><trkpt lat="45.32320636669629" lon="9.149566391647703"><ele>92.0</ele><time>2026-04-19T09:45:59Z</time></trkpt><trkpt lat="45.323114482790345" lon="9.149647446346878"><ele>92.0</ele><time>2026-04-19T09:46:01Z</time></trkpt><trkpt lat="45.32302786182262" lon="9.149733346448087"><ele>92.0</ele><time>2026-04-19T09:46:03Z</time></trkpt><trkpt lat="45.322971571593705" lon="9.149852294488134"><ele>92.0</ele><time>2026-04-19T09:46:05.001Z</time></trkpt><trkpt lat="45.32300712842836" lon="9.149993105776389"><ele>91.8</ele><time>2026-04-19T09:46:07.001Z</time></trkpt><trkpt lat="45.323078634205096" lon="9.150100944935014"><ele>91.6</ele><time>2026-04-19T09:46:09.001Z</time></trkpt><trkpt lat="45.32314157984211" lon="9.150221838288264"><ele>91.39999999999999</ele><time>2026-04-19T09:46:11.001Z</time></trkpt><trkpt lat="45.32320744912997" lon="9.150343626416426"><ele>91.19999999999999</ele><time>2026-04-19T09:46:13.001Z</time></trkpt><trkpt lat="45.32326937593537" lon="9.150466007947093"><ele>91.0</ele><time>2026-04-19T09:46:15.001Z</time></trkpt><trkpt lat="45.32332027036537" lon="9.150597337096958"><ele>91.19999999999999</ele><time>2026-04-19T09:46:17.001Z</time></trkpt><trkpt lat="45.323349869676704" lon="9.150746674216713"><ele>91.39999999999999</ele><time>2026-04-19T09:46:19.001Z</time></trkpt><trkpt lat="45.32335669163944" lon="9.150899566323435"><ele>91.6</ele><time>2026-04-19T09:46:21.001Z</time></trkpt><trkpt lat="45.323347851562055" lon="9.151053263233408"><ele>91.8</ele><time>2026-04-19T09:46:23.001Z</time></trkpt><trkpt lat="45.32335472453753" lon="9.15120760060978"><ele>92.0</ele><time>2026-04-19T09:46:25Z</time></trkpt><trkpt lat="45.32336890570696" lon="9.15135772038089"><ele>92.0</ele><time>2026-04-19T09:46:27Z</time></trkpt><trkpt lat="45.32339568410699" lon="9.1515043211454"><ele>92.0</ele><time>2026-04-19T09:46:29Z</time></trkpt><trkpt lat="45.323406776118674" lon="9.151651581857996"><ele>92.0</ele><time>2026-04-19T09:46:31Z</time></trkpt><trkpt lat="45.32341798223439" lon="9.151798098079407"><ele>92.0</ele><time>2026-04-19T09:46:33Z</time></trkpt><trkpt lat="45.323422082372645" lon="9.151945522407631"><ele>92.0</ele><time>2026-04-19T09:46:35Z</time></trkpt><trkpt lat="45.32343731783561" lon="9.152078955618869"><ele>92.19999999999999</ele><time>2026-04-19T09:46:37Z</time></trkpt><trkpt lat="45.323459447469226" lon="9.152204224596426"><ele>92.4</ele><time>2026-04-19T09:46:39Z</time></trkpt><trkpt lat="45.32350724097822" lon="9.152311466907367"><ele>92.6</ele><time>2026-04-19T09:46:41Z</time></trkpt><trkpt lat="45.32356324586608" lon="9.152413092797481"><ele>92.80000000000001</ele><time>2026-04-19T09:46:43Z</time></trkpt><trkpt lat="45.32361104604257" lon="9.152525673619328"><ele>93.0</ele><time>2026-04-19T09:46:45Z</time></trkpt><trkpt lat="45.32364766821136" lon="9.152642395153274"><ele>92.60000000000001</ele><time>2026-04-19T09:46:47Z</time></trkpt><trkpt lat="45.32367901068205" lon="9.152764606757843"><ele>92.2</ele><time>2026-04-19T09:46:49Z</time></trkpt><trkpt lat="45.3237005307692" lon="9.152890281662156"><ele>91.8</ele><time>2026-04-19T09:46:51Z</time></trkpt><trkpt lat="45.3237133020249" lon="9.153015716927714"><ele>91.4</ele><time>2026-04-19T09:46:53Z</time></trkpt><trkpt lat="45.323741640370564" lon="9.153140315425398"><ele>91.0</ele><time>2026-04-19T09:46:55Z</time></trkpt><trkpt lat="45.323765655187636" lon="9.1532701772123"><ele>90.8</ele><time>2026-04-19T09:46:57Z</time></trkpt><trkpt lat="45.32379812403639" lon="9.153389718981707"><ele>90.6</ele><time>2026-04-19T09:46:59Z</time></trkpt><trkpt lat="45.32384800720357" lon="9.15349053558472"><ele>90.4</ele><time>2026-04-19T09:47:01Z</time></trkpt><trkpt lat="45.323889062732704" lon="9.153606628737455"><ele>90.2</ele><time>2026-04-19T09:47:03Z</time></trkpt><trkpt lat="45.32394214335006" lon="9.153715637695944"><ele>90.0</ele><time>2026-04-19T09:47:05Z</time></trkpt><trkpt lat="45.32398881296424" lon="9.15383171461247"><ele>90.0</ele><time>2026-04-19T09:47:07Z</time></trkpt><trkpt lat="45.32404428813191" lon="9.15394158616276"><ele>90.0</ele><time>2026-04-19T09:47:09Z</time></trkpt><trkpt lat="45.32409772681304" lon="9.154054350514519"><ele>90.0</ele><time>2026-04-19T09:47:11Z</time></trkpt><trkpt lat="45.32414913855175" lon="9.154168690427916"><ele>90.0</ele><time>2026-04-19T09:47:13Z</time></trkpt><trkpt lat="45.32420234609148" lon="9.154285770163266"><ele>90.0</ele><time>2026-04-19T09:47:15Z</time></trkpt><trkpt lat="45.32425848831373" lon="9.15440262788517"><ele>89.8</ele><time>2026-04-19T09:47:17Z</time></trkpt><trkpt lat="45.3243136302138" lon="9.154521765148866"><ele>89.6</ele><time>2026-04-19T09:47:19Z</time></trkpt><trkpt lat="45.3243738094168" lon="9.154632069208544"><ele>89.4</ele><time>2026-04-19T09:47:21Z</time></trkpt><trkpt lat="45.324424907869435" lon="9.154748313003257"><ele>89.2</ele><time>2026-04-19T09:47:23Z</time></trkpt><trkpt lat="45.324479843126845" lon="9.154857495563757"><ele>89.0</ele><time>2026-04-19T09:47:25Z</time></trkpt><trkpt lat="45.3245326658858" lon="9.154973646185177"><ele>88.80000000000001</ele><time>2026-04-19T09:47:27Z</time></trkpt><trkpt lat="45.32458426127481" lon="9.155089596480105"><ele>88.60000000000001</ele><time>2026-04-19T09:47:29Z</time></trkpt><trkpt lat="45.32463623720395" lon="9.155201507904037"><ele>88.4</ele><time>2026-04-19T09:47:31Z</time></trkpt><trkpt lat="45.32469032788461" lon="9.155311304773292"><ele>88.2</ele><time>2026-04-19T09:47:33Z</time></trkpt><trkpt lat="45.32474282840106" lon="9.15542403349118"><ele>88.0</ele><time>2026-04-19T09:47:35Z</time></trkpt><trkpt lat="45.324793284770614" lon="9.155534330611756"><ele>88.5</ele><time>2026-04-19T09:47:37Z</time></trkpt><trkpt lat="45.324843356138004" lon="9.155640483212938"><ele>89.0</ele><time>2026-04-19T09:47:39Z</time></trkpt><trkpt lat="45.324890969458714" lon="9.155744702261098"><ele>89.5</ele><time>2026-04-19T09:47:41Z</time></trkpt><trkpt lat="45.32494138515225" lon="9.155850433387364"><ele>90.0</ele><time>2026-04-19T09:47:43Z</time></trkpt><trkpt lat="45.3249918523684" lon="9.155956873264802"><ele>90.5</ele><time>2026-04-19T09:47:45Z</time></trkpt><trkpt lat="45.32504015156543" lon="9.156066405504294"><ele>91.0</ele><time>2026-04-19T09:47:47Z</time></trkpt><trkpt lat="45.325087064028104" lon="9.156176586840933"><ele>91.0</ele><time>2026-04-19T09:47:49Z</time></trkpt><trkpt lat="45.32513679682389" lon="9.156287578673139"><ele>91.0</ele><time>2026-04-19T09:47:51Z</time></trkpt><trkpt lat="45.32518390686193" lon="9.15639906814136"><ele>91.0</ele><time>2026-04-19T09:47:53Z</time></trkpt><trkpt lat="45.325230265413666" lon="9.15651039448263"><ele>91.0</ele><time>2026-04-19T09:47:55Z</time></trkpt><trkpt lat="45.32527918543674" lon="9.156620309026108"><ele>91.0</ele><time>2026-04-19T09:47:57Z</time></trkpt><trkpt lat="45.32533032236534" lon="9.156727582200462"><ele>91.0</ele><time>2026-04-19T09:47:59Z</time></trkpt><trkpt lat="45.325379257212006" lon="9.156835890467482"><ele>91.0</ele><time>2026-04-19T09:48:01Z</time></trkpt><trkpt lat="45.32542796707372" lon="9.156942352589168"><ele>91.0</ele><time>2026-04-19T09:48:03Z</time></trkpt><trkpt lat="45.32547611212619" lon="9.157057620671344"><ele>91.0</ele><time>2026-04-19T09:48:05Z</time></trkpt><trkpt lat="45.32552400349482" lon="9.157166558113477"><ele>91.0</ele><time>2026-04-19T09:48:07Z</time></trkpt><trkpt lat="45.32557242695515" lon="9.157277481943655"><ele>91.0</ele><time>2026-04-19T09:48:09Z</time></trkpt><trkpt lat="45.3256175903764" lon="9.157386865184563"><ele>91.0</ele><time>2026-04-19T09:48:11Z</time></trkpt><trkpt lat="45.32563537416589" lon="9.157515382472829"><ele>91.0</ele><time>2026-04-19T09:48:13Z</time></trkpt><trkpt lat="45.325596142705464" lon="9.157636793660389"><ele>91.0</ele><time>2026-04-19T09:48:15Z</time></trkpt><trkpt lat="45.32552047266466" lon="9.157725038525992"><ele>91.0</ele><time>2026-04-19T09:48:17Z</time></trkpt><trkpt lat="45.32544437721213" lon="9.15780278915546"><ele>91.0</ele><time>2026-04-19T09:48:19Z</time></trkpt><trkpt lat="45.325372796888566" lon="9.15788691549948"><ele>91.0</ele><time>2026-04-19T09:48:21Z</time></trkpt><trkpt lat="45.325302804386254" lon="9.15796696852779"><ele>91.0</ele><time>2026-04-19T09:48:23Z</time></trkpt><trkpt lat="45.3252476249758" lon="9.158064521366006"><ele>91.0</ele><time>2026-04-19T09:48:25.001Z</time></trkpt><trkpt lat="45.325261497300545" lon="9.158195738333271"><ele>91.0</ele><time>2026-04-19T09:48:27.001Z</time></trkpt><trkpt lat="45.32531491615782" lon="9.158308796169662"><ele>91.0</ele><time>2026-04-19T09:48:29.001Z</time></trkpt><trkpt lat="45.32536048179818" lon="9.15842159371032"><ele>91.0</ele><time>2026-04-19T09:48:31Z</time></trkpt><trkpt lat="45.325412134280114" lon="9.158531435909438"><ele>91.0</ele><time>2026-04-19T09:48:33Z</time></trkpt><trkpt lat="45.325458175975136" lon="9.158645570480042"><ele>91.0</ele><time>2026-04-19T09:48:35Z</time></trkpt><trkpt lat="45.32550543933598" lon="9.158757226098253"><ele>91.0</ele><time>2026-04-19T09:48:37Z</time></trkpt><trkpt lat="45.32555279021867" lon="9.158866033425317"><ele>91.0</ele><time>2026-04-19T09:48:39Z</time></trkpt><trkpt lat="45.32558520854272" lon="9.158984069094899"><ele>91.0</ele><time>2026-04-19T09:48:41Z</time></trkpt><trkpt lat="45.32556785142931" lon="9.159113752536818"><ele>91.0</ele><time>2026-04-19T09:48:43Z</time></trkpt><trkpt lat="45.32549394196086" lon="9.1592045477829"><ele>91.0</ele><time>2026-04-19T09:48:45Z</time></trkpt><trkpt lat="45.32541494931135" lon="9.159279620959598"><ele>91.0</ele><time>2026-04-19T09:48:47Z</time></trkpt><trkpt lat="45.3253396043093" lon="9.159360616464422"><ele>90.8</ele><time>2026-04-19T09:48:49Z</time></trkpt><trkpt lat="45.32526399702461" lon="9.159437681815563"><ele>90.6</ele><time>2026-04-19T09:48:51Z</time></trkpt><trkpt lat="45.32518653086625" lon="9.159513706094211"><ele>90.4</ele><time>2026-04-19T09:48:53Z</time></trkpt><trkpt lat="45.32511184009336" lon="9.159595188830568"><ele>90.2</ele><time>2026-04-19T09:48:55Z</time></trkpt><trkpt lat="45.325038635132636" lon="9.159672633154884"><ele>90.0</ele><time>2026-04-19T09:48:57Z</time></trkpt><trkpt lat="45.32496359805763" lon="9.159755920308479"><ele>90.0</ele><time>2026-04-19T09:48:59Z</time></trkpt><trkpt lat="45.32488782875688" lon="9.159838192314865"><ele>90.0</ele><time>2026-04-19T09:49:01Z</time></trkpt><trkpt lat="45.324813713805796" lon="9.159916276049087"><ele>90.0</ele><time>2026-04-19T09:49:03Z</time></trkpt><trkpt lat="45.32474136180249" lon="9.159989353407642"><ele>90.0</ele><time>2026-04-19T09:49:05Z</time></trkpt><trkpt lat="45.3246729880256" lon="9.160073487342512"><ele>90.0</ele><time>2026-04-19T09:49:07Z</time></trkpt><trkpt lat="45.32459878909503" lon="9.160153212382395"><ele>90.0</ele><time>2026-04-19T09:49:09Z</time></trkpt><trkpt lat="45.32452580141763" lon="9.16023641234846"><ele>90.0</ele><time>2026-04-19T09:49:11Z</time></trkpt><trkpt lat="45.32447868044235" lon="9.160345275126806"><ele>90.0</ele><time>2026-04-19T09:49:13Z</time></trkpt><trkpt lat="45.32449967594694" lon="9.16048902908914"><ele>90.0</ele><time>2026-04-19T09:49:15Z</time></trkpt><trkpt lat="45.32453961939285" lon="9.160616446726744"><ele>90.0</ele><time>2026-04-19T09:49:17Z</time></trkpt><trkpt lat="45.324579923351926" lon="9.16073805338484"><ele>90.0</ele><time>2026-04-19T09:49:19Z</time></trkpt><trkpt lat="45.324623229697885" lon="9.16085607268741"><ele>90.0</ele><time>2026-04-19T09:49:21Z</time></trkpt><trkpt lat="45.32466708502074" lon="9.160974167956487"><ele>90.0</ele><time>2026-04-19T09:49:23Z</time></trkpt><trkpt lat="45.3247115944073" lon="9.161096581825008"><ele>90.0</ele><time>2026-04-19T09:49:25Z</time></trkpt><trkpt lat="45.324738864427395" lon="9.16122943896911"><ele>90.0</ele><time>2026-04-19T09:49:27Z</time></trkpt><trkpt lat="45.32474158144754" lon="9.16137049648854"><ele>90.16666666666667</ele><time>2026-04-19T09:49:29Z</time></trkpt><trkpt lat="45.324747193646004" lon="9.161500269089577"><ele>90.33333333333333</ele><time>2026-04-19T09:49:31Z</time></trkpt><trkpt lat="45.324747972471734" lon="9.161617357151759"><ele>90.5</ele><time>2026-04-19T09:49:33Z</time></trkpt><trkpt lat="45.32476424764356" lon="9.161735222369362"><ele>90.66666666666666</ele><time>2026-04-19T09:49:35Z</time></trkpt><trkpt lat="45.324753950205874" lon="9.161847504079384"><ele>90.83333333333333</ele><time>2026-04-19T09:49:37Z</time></trkpt><trkpt lat="45.324748364740245" lon="9.161970612166389"><ele>91.0</ele><time>2026-04-19T09:49:39Z</time></trkpt><trkpt lat="45.3247610090415" lon="9.162094059861271"><ele>91.0</ele><time>2026-04-19T09:49:41Z</time></trkpt><trkpt lat="45.32477518087623" lon="9.162213833990526"><ele>91.0</ele><time>2026-04-19T09:49:43Z</time></trkpt><trkpt lat="45.32479578148393" lon="9.162327432603705"><ele>91.0</ele><time>2026-04-19T09:49:45Z</time></trkpt><trkpt lat="45.32480903739045" lon="9.162443758954268"><ele>91.0</ele><time>2026-04-19T09:49:47Z</time></trkpt><trkpt lat="45.32480428936234" lon="9.16257095917013"><ele>91.0</ele><time>2026-04-19T09:49:49Z</time></trkpt><trkpt lat="45.32479856500184" lon="9.162695558774391"><ele>91.0</ele><time>2026-04-19T09:49:51Z</time></trkpt><trkpt lat="45.32479804928948" lon="9.162821050633712"><ele>91.0</ele><time>2026-04-19T09:49:53Z</time></trkpt><trkpt lat="45.32479879729455" lon="9.162943229197687"><ele>91.0</ele><time>2026-04-19T09:49:55Z</time></trkpt><trkpt lat="45.324801596514995" lon="9.16306330906875"><ele>91.0</ele><time>2026-04-19T09:49:57Z</time></trkpt><trkpt lat="45.32480087518331" lon="9.163182517559335"><ele>91.0</ele><time>2026-04-19T09:49:59Z</time></trkpt><trkpt lat="45.32481197106002" lon="9.163303017717693"><ele>91.0</ele><time>2026-04-19T09:50:01Z</time></trkpt><trkpt lat="45.32482268724537" lon="9.163422499331698"><ele>91.0</ele><time>2026-04-19T09:50:03Z</time></trkpt><trkpt lat="45.32484174201233" lon="9.163543512945262"><ele>90.66666666666666</ele><time>2026-04-19T09:50:05Z</time></trkpt><trkpt lat="45.32485927031267" lon="9.16366419605999"><ele>90.33333333333333</ele><time>2026-04-19T09:50:07Z</time></trkpt><trkpt lat="45.324884652444524" lon="9.163779071528632"><ele>90.0</ele><time>2026-04-19T09:50:09Z</time></trkpt><trkpt lat="45.324885380797994" lon="9.163902858873488"><ele>89.66666666666667</ele><time>2026-04-19T09:50:11Z</time></trkpt><trkpt lat="45.32490357780622" lon="9.164032314527804"><ele>89.33333333333334</ele><time>2026-04-19T09:50:13Z</time></trkpt><trkpt lat="45.32491574505535" lon="9.16416863057662"><ele>89.0</ele><time>2026-04-19T09:50:15Z</time></trkpt><trkpt lat="45.32493351808313" lon="9.164300115077348"><ele>89.0</ele><time>2026-04-19T09:50:17Z</time></trkpt><trkpt lat="45.32495415061934" lon="9.164430271005894"><ele>89.0</ele><time>2026-04-19T09:50:19Z</time></trkpt><trkpt lat="45.32496832331115" lon="9.16456492016133"><ele>89.0</ele><time>2026-04-19T09:50:21Z</time></trkpt><trkpt lat="45.324985347549394" lon="9.164702130584683"><ele>89.0</ele><time>2026-04-19T09:50:23Z</time></trkpt><trkpt lat="45.32500466586112" lon="9.164835198925621"><ele>89.0</ele><time>2026-04-19T09:50:25Z</time></trkpt><trkpt lat="45.32503012384442" lon="9.164981798290803"><ele>89.2</ele><time>2026-04-19T09:50:27Z</time></trkpt><trkpt lat="45.32503570623102" lon="9.165112268173623"><ele>89.4</ele><time>2026-04-19T09:50:29Z</time></trkpt><trkpt lat="45.32505620040249" lon="9.1652480627964"><ele>89.6</ele><time>2026-04-19T09:50:31Z</time></trkpt><trkpt lat="45.325081027581845" lon="9.165375343097713"><ele>89.8</ele><time>2026-04-19T09:50:33Z</time></trkpt><trkpt lat="45.32509338264263" lon="9.165504629882648"><ele>90.0</ele><time>2026-04-19T09:50:35Z</time></trkpt><trkpt lat="45.32510706464546" lon="9.165636031491267"><ele>90.2</ele><time>2026-04-19T09:50:37Z</time></trkpt><trkpt lat="45.3251275405635" lon="9.165757522152017"><ele>90.4</ele><time>2026-04-19T09:50:39Z</time></trkpt><trkpt lat="45.32514284924115" lon="9.165881031204895"><ele>90.6</ele><time>2026-04-19T09:50:41Z</time></trkpt><trkpt lat="45.32515986397889" lon="9.166008748107288"><ele>90.8</ele><time>2026-04-19T09:50:43Z</time></trkpt><trkpt lat="45.32517994806697" lon="9.166145622552984"><ele>91.0</ele><time>2026-04-19T09:50:45Z</time></trkpt><trkpt lat="45.32518946031631" lon="9.166277051467219"><ele>91.0</ele><time>2026-04-19T09:50:47Z</time></trkpt><trkpt lat="45.32519872971818" lon="9.166399405744876"><ele>91.0</ele><time>2026-04-19T09:50:49Z</time></trkpt><trkpt lat="45.325142447813505" lon="9.166514508650017"><ele>91.0</ele><time>2026-04-19T09:50:51Z</time></trkpt><trkpt lat="45.325074634078504" lon="9.166611808455558"><ele>91.0</ele><time>2026-04-19T09:50:53Z</time></trkpt><trkpt lat="45.3249965478714" lon="9.166684540148573"><ele>91.0</ele><time>2026-04-19T09:50:55Z</time></trkpt><trkpt lat="45.324917983150954" lon="9.16676193741799"><ele>90.8</ele><time>2026-04-19T09:50:57Z</time></trkpt><trkpt lat="45.32483714715312" lon="9.166843703663458"><ele>90.6</ele><time>2026-04-19T09:50:59Z</time></trkpt><trkpt lat="45.32475756669376" lon="9.166925534636693"><ele>90.4</ele><time>2026-04-19T09:51:01Z</time></trkpt><trkpt lat="45.32467238799612" lon="9.167009058182698"><ele>90.2</ele><time>2026-04-19T09:51:03Z</time></trkpt><trkpt lat="45.32459333502073" lon="9.167093840186123"><ele>90.0</ele><time>2026-04-19T09:51:05Z</time></trkpt><trkpt lat="45.32451479621054" lon="9.167174585507597"><ele>90.0</ele><time>2026-04-19T09:51:07Z</time></trkpt><trkpt lat="45.32443956685555" lon="9.16726035408878"><ele>90.0</ele><time>2026-04-19T09:51:09Z</time></trkpt><trkpt lat="45.32436287746454" lon="9.167342532726177"><ele>90.0</ele><time>2026-04-19T09:51:11Z</time></trkpt><trkpt lat="45.32429137244241" lon="9.167415585271183"><ele>90.0</ele><time>2026-04-19T09:51:13Z</time></trkpt><trkpt lat="45.32421016595944" lon="9.167506852696249"><ele>90.0</ele><time>2026-04-19T09:51:15Z</time></trkpt><trkpt lat="45.324129828693216" lon="9.167580197019815"><ele>90.0</ele><time>2026-04-19T09:51:17Z</time></trkpt><trkpt lat="45.3240573700897" lon="9.16766823081724"><ele>90.0</ele><time>2026-04-19T09:51:19Z</time></trkpt><trkpt lat="45.32398118451363" lon="9.167749359463684"><ele>90.0</ele><time>2026-04-19T09:51:21Z</time></trkpt><trkpt lat="45.32389882500329" lon="9.167819737041242"><ele>90.0</ele><time>2026-04-19T09:51:23Z</time></trkpt><trkpt lat="45.32382329998657" lon="9.167902978034865"><ele>90.0</ele><time>2026-04-19T09:51:25Z</time></trkpt><trkpt lat="45.323745988835185" lon="9.167983553351906"><ele>90.0</ele><time>2026-04-19T09:51:27Z</time></trkpt><trkpt lat="45.32367615693849" lon="9.1680784762911"><ele>90.0</ele><time>2026-04-19T09:51:29Z</time></trkpt><trkpt lat="45.323642564777856" lon="9.168206767017267"><ele>90.0</ele><time>2026-04-19T09:51:31Z</time></trkpt><trkpt lat="45.323640093232584" lon="9.168347535946573"><ele>90.0</ele><time>2026-04-19T09:51:33Z</time></trkpt><trkpt lat="45.323639651604765" lon="9.168495628037746"><ele>90.0</ele><time>2026-04-19T09:51:35Z</time></trkpt><trkpt lat="45.32364369193601" lon="9.168641622894137"><ele>90.0</ele><time>2026-04-19T09:51:37Z</time></trkpt><trkpt lat="45.32364103510233" lon="9.16878612410642"><ele>90.0</ele><time>2026-04-19T09:51:39Z</time></trkpt><trkpt lat="45.32363795951701" lon="9.168930205673218"><ele>90.0</ele><time>2026-04-19T09:51:41Z</time></trkpt><trkpt lat="45.323637581943814" lon="9.16906215849174"><ele>90.0</ele><time>2026-04-19T09:51:43Z</time></trkpt><trkpt lat="45.32364045072987" lon="9.169190805766585"><ele>90.0</ele><time>2026-04-19T09:51:45Z</time></trkpt><trkpt lat="45.32364360922022" lon="9.169326718369497"><ele>90.0</ele><time>2026-04-19T09:51:47Z</time></trkpt><trkpt lat="45.32365157245" lon="9.169465533641215"><ele>90.0</ele><time>2026-04-19T09:51:49Z</time></trkpt><trkpt lat="45.32366427852843" lon="9.169603284120134"><ele>90.0</ele><time>2026-04-19T09:51:51Z</time></trkpt><trkpt lat="45.3236788435274" lon="9.169741249777626"><ele>90.0</ele><time>2026-04-19T09:51:53Z</time></trkpt><trkpt lat="45.32369285153098" lon="9.169876167295232"><ele>90.0</ele><time>2026-04-19T09:51:55Z</time></trkpt><trkpt lat="45.32370582581893" lon="9.170010663054862"><ele>90.0</ele><time>2026-04-19T09:51:57Z</time></trkpt><trkpt lat="45.32371298697839" lon="9.17014364310582"><ele>90.0</ele><time>2026-04-19T09:51:59Z</time></trkpt><trkpt lat="45.32372233862111" lon="9.17028162249671"><ele>90.0</ele><time>2026-04-19T09:52:01Z</time></trkpt><trkpt lat="45.32373644431225" lon="9.170417298298657"><ele>90.0</ele><time>2026-04-19T09:52:03Z</time></trkpt><trkpt lat="45.32374858040713" lon="9.170553075553418"><ele>90.0</ele><time>2026-04-19T09:52:05Z</time></trkpt><trkpt lat="45.3237635452269" lon="9.170687212864541"><ele>90.2</ele><time>2026-04-19T09:52:07Z</time></trkpt><trkpt lat="45.323783263297706" lon="9.170814799482937"><ele>90.4</ele><time>2026-04-19T09:52:09Z</time></trkpt><trkpt lat="45.323798423560554" lon="9.17094421579153"><ele>90.6</ele><time>2026-04-19T09:52:11Z</time></trkpt><trkpt lat="45.323817513777286" lon="9.171070997264412"><ele>90.8</ele><time>2026-04-19T09:52:13Z</time></trkpt><trkpt lat="45.323834013788" lon="9.17119403086067"><ele>91.0</ele><time>2026-04-19T09:52:15Z</time></trkpt><trkpt lat="45.3238490718627" lon="9.171319767809372"><ele>91.0</ele><time>2026-04-19T09:52:17Z</time></trkpt><trkpt lat="45.323864503997356" lon="9.171447613572813"><ele>91.0</ele><time>2026-04-19T09:52:19Z</time></trkpt><trkpt lat="45.32387617325858" lon="9.171578733558638"><ele>91.0</ele><time>2026-04-19T09:52:21Z</time></trkpt><trkpt lat="45.32387939201614" lon="9.171709900644602"><ele>91.0</ele><time>2026-04-19T09:52:23Z</time></trkpt><trkpt lat="45.32389106701244" lon="9.17184070534546"><ele>91.0</ele><time>2026-04-19T09:52:25Z</time></trkpt><trkpt lat="45.32390577434507" lon="9.171971746620782"><ele>91.0</ele><time>2026-04-19T09:52:27Z</time></trkpt><trkpt lat="45.32392179336606" lon="9.172105420742538"><ele>91.0</ele><time>2026-04-19T09:52:29Z</time></trkpt><trkpt lat="45.323949156607284" lon="9.172233802403598"><ele>91.0</ele><time>2026-04-19T09:52:31Z</time></trkpt><trkpt lat="45.32397915838342" lon="9.172359557971872"><ele>91.0</ele><time>2026-04-19T09:52:33Z</time></trkpt><trkpt lat="45.324016076164504" lon="9.172474219005883"><ele>91.0</ele><time>2026-04-19T09:52:35Z</time></trkpt><trkpt lat="45.32405587124974" lon="9.172592194791818"><ele>91.33333333333333</ele><time>2026-04-19T09:52:37Z</time></trkpt><trkpt lat="45.32409260279066" lon="9.172708494413476"><ele>91.66666666666666</ele><time>2026-04-19T09:52:39Z</time></trkpt><trkpt lat="45.32412686615778" lon="9.172821145943065"><ele>92.0</ele><time>2026-04-19T09:52:41Z</time></trkpt><trkpt lat="45.3241619831572" lon="9.172938649755721"><ele>92.33333333333333</ele><time>2026-04-19T09:52:43Z</time></trkpt><trkpt lat="45.324190874286984" lon="9.173053920131514"><ele>92.66666666666667</ele><time>2026-04-19T09:52:45Z</time></trkpt><trkpt lat="45.3242249495938" lon="9.17317038341185"><ele>93.0</ele><time>2026-04-19T09:52:47Z</time></trkpt><trkpt lat="45.32425565322427" lon="9.173289984989921"><ele>93.16666666666667</ele><time>2026-04-19T09:52:49Z</time></trkpt><trkpt lat="45.32428711317256" lon="9.173406520284585"><ele>93.33333333333333</ele><time>2026-04-19T09:52:51Z</time></trkpt><trkpt lat="45.3243209362944" lon="9.173522577064132"><ele>93.5</ele><time>2026-04-19T09:52:53Z</time></trkpt><trkpt lat="45.3243510648884" lon="9.173643937405398"><ele>93.66666666666666</ele><time>2026-04-19T09:52:55Z</time></trkpt><trkpt lat="45.32438627107576" lon="9.173760846287243"><ele>93.83333333333333</ele><time>2026-04-19T09:52:57Z</time></trkpt><trkpt lat="45.324417250459035" lon="9.17387491443324"><ele>94.0</ele><time>2026-04-19T09:52:59Z</time></trkpt><trkpt lat="45.324453977815594" lon="9.173987597262458"><ele>93.83333333333333</ele><time>2026-04-19T09:53:01Z</time></trkpt><trkpt lat="45.32448683102383" lon="9.1740962705253"><ele>93.66666666666666</ele><time>2026-04-19T09:53:03Z</time></trkpt><trkpt lat="45.32451778285819" lon="9.17420731534567"><ele>93.5</ele><time>2026-04-19T09:53:05Z</time></trkpt><trkpt lat="45.324552598868756" lon="9.174313926276849"><ele>93.33333333333333</ele><time>2026-04-19T09:53:07Z</time></trkpt><trkpt lat="45.32458284683694" lon="9.174430297648136"><ele>93.16666666666667</ele><time>2026-04-19T09:53:09Z</time></trkpt><trkpt lat="45.32461902043475" lon="9.174561843871263"><ele>93.0</ele><time>2026-04-19T09:53:11Z</time></trkpt><trkpt lat="45.3246518192349" lon="9.174703331775726"><ele>93.0</ele><time>2026-04-19T09:53:13Z</time></trkpt><trkpt lat="45.32467646518676" lon="9.174843436364359"><ele>93.0</ele><time>2026-04-19T09:53:15Z</time></trkpt><trkpt lat="45.32469385624859" lon="9.17498387146681"><ele>93.0</ele><time>2026-04-19T09:53:17Z</time></trkpt><trkpt lat="45.324712864972874" lon="9.175129476740883"><ele>93.0</ele><time>2026-04-19T09:53:19Z</time></trkpt><trkpt lat="45.324725475325515" lon="9.175279798063878"><ele>93.0</ele><time>2026-04-19T09:53:21Z</time></trkpt><trkpt lat="45.32474205085542" lon="9.175427149876512"><ele>93.0</ele><time>2026-04-19T09:53:23Z</time></trkpt><trkpt lat="45.324752031466836" lon="9.175575306663704"><ele>93.0</ele><time>2026-04-19T09:53:25Z</time></trkpt><trkpt lat="45.32476795631394" lon="9.175721696977915"><ele>93.0</ele><time>2026-04-19T09:53:27Z</time></trkpt><trkpt lat="45.32478649563129" lon="9.17586670353765"><ele>93.0</ele><time>2026-04-19T09:53:29Z</time></trkpt><trkpt lat="45.32478891451713" lon="9.176015061620491"><ele>93.0</ele><time>2026-04-19T09:53:31Z</time></trkpt><trkpt lat="45.32478133252587" lon="9.176160076673956"><ele>93.0</ele><time>2026-04-19T09:53:33Z</time></trkpt><trkpt lat="45.324767896704614" lon="9.176304037631265"><ele>93.0</ele><time>2026-04-19T09:53:35Z</time></trkpt><trkpt lat="45.32475262501311" lon="9.176452585886178"><ele>93.0</ele><time>2026-04-19T09:53:37Z</time></trkpt><trkpt lat="45.32474090178139" lon="9.176593558857096"><ele>93.0</ele><time>2026-04-19T09:53:39Z</time></trkpt><trkpt lat="45.324727672834484" lon="9.176730244059211"><ele>93.0</ele><time>2026-04-19T09:53:41Z</time></trkpt><trkpt lat="45.324719256567704" lon="9.17686910931615"><ele>92.4</ele><time>2026-04-19T09:53:43Z</time></trkpt><trkpt lat="45.32471391462954" lon="9.17700289209178"><ele>91.80000000000001</ele><time>2026-04-19T09:53:45Z</time></trkpt><trkpt lat="45.32470231422015" lon="9.177135385077403"><ele>91.2</ele><time>2026-04-19T09:53:47Z</time></trkpt><trkpt lat="45.32469265990122" lon="9.17726768633893"><ele>90.6</ele><time>2026-04-19T09:53:49Z</time></trkpt><trkpt lat="45.324681517582" lon="9.177401212783938"><ele>90.0</ele><time>2026-04-19T09:53:51Z</time></trkpt><trkpt lat="45.32466349038163" lon="9.177531995892494"><ele>89.83333333333333</ele><time>2026-04-19T09:53:53Z</time></trkpt><trkpt lat="45.324653820838435" lon="9.177654569122518"><ele>89.66666666666667</ele><time>2026-04-19T09:53:55Z</time></trkpt><trkpt lat="45.324637873785335" lon="9.177768628841587"><ele>89.5</ele><time>2026-04-19T09:53:57Z</time></trkpt><trkpt lat="45.324622993835" lon="9.177872662445052"><ele>89.33333333333334</ele><time>2026-04-19T09:53:59Z</time></trkpt><trkpt lat="45.3246000228154" lon="9.177972806772559"><ele>89.16666666666667</ele><time>2026-04-19T09:54:01Z</time></trkpt><trkpt lat="45.32457185631675" lon="9.178088252653408"><ele>89.0</ele><time>2026-04-19T09:54:03Z</time></trkpt><trkpt lat="45.32454113835008" lon="9.178202559353831"><ele>88.80000000000001</ele><time>2026-04-19T09:54:05Z</time></trkpt><trkpt lat="45.324508688942046" lon="9.17831954550158"><ele>88.60000000000001</ele><time>2026-04-19T09:54:07Z</time></trkpt><trkpt lat="45.324487813418486" lon="9.17844109201466"><ele>88.4</ele><time>2026-04-19T09:54:09Z</time></trkpt><trkpt lat="45.32445106482215" lon="9.178562720414616"><ele>88.2</ele><time>2026-04-19T09:54:11Z</time></trkpt><trkpt lat="45.32442876744432" lon="9.178691718971514"><ele>88.0</ele><time>2026-04-19T09:54:13Z</time></trkpt><trkpt lat="45.32439683976212" lon="9.178811898963534"><ele>88.0</ele><time>2026-04-19T09:54:15Z</time></trkpt><trkpt lat="45.32436601784852" lon="9.178933131828694"><ele>88.0</ele><time>2026-04-19T09:54:17Z</time></trkpt><trkpt lat="45.32433144905288" lon="9.17904653240716"><ele>88.0</ele><time>2026-04-19T09:54:19Z</time></trkpt><trkpt lat="45.324292176459984" lon="9.179153581631219"><ele>88.0</ele><time>2026-04-19T09:54:21Z</time></trkpt><trkpt lat="45.32424666665109" lon="9.179253524951374"><ele>88.0</ele><time>2026-04-19T09:54:23Z</time></trkpt><trkpt lat="45.32419132388366" lon="9.179355359672826"><ele>88.0</ele><time>2026-04-19T09:54:25Z</time></trkpt><trkpt lat="45.32413470492249" lon="9.179453138464467"><ele>88.2</ele><time>2026-04-19T09:54:27Z</time></trkpt><trkpt lat="45.324078337762536" lon="9.179549722846273"><ele>88.4</ele><time>2026-04-19T09:54:29Z</time></trkpt><trkpt lat="45.324026993482626" lon="9.17966181044417"><ele>88.60000000000001</ele><time>2026-04-19T09:54:31Z</time></trkpt><trkpt lat="45.32397215603702" lon="9.179764856905175"><ele>88.80000000000001</ele><time>2026-04-19T09:54:33Z</time></trkpt><trkpt lat="45.32391010178087" lon="9.179866176750677"><ele>89.0</ele><time>2026-04-19T09:54:35Z</time></trkpt><trkpt lat="45.32385338315569" lon="9.17997373205308"><ele>88.6</ele><time>2026-04-19T09:54:37Z</time></trkpt><trkpt lat="45.323793032524875" lon="9.18007873132145"><ele>88.2</ele><time>2026-04-19T09:54:39Z</time></trkpt><trkpt lat="45.323733763911925" lon="9.180182857743775"><ele>87.8</ele><time>2026-04-19T09:54:41Z</time></trkpt><trkpt lat="45.32367465282855" lon="9.180284817946836"><ele>87.39999999999999</ele><time>2026-04-19T09:54:43Z</time></trkpt><trkpt lat="45.32361913859434" lon="9.180393940224501"><ele>87.0</ele><time>2026-04-19T09:54:45Z</time></trkpt><trkpt lat="45.3235704698933" lon="9.180505512697215"><ele>87.0</ele><time>2026-04-19T09:54:47Z</time></trkpt><trkpt lat="45.32353565881834" lon="9.180627537096145"><ele>87.0</ele><time>2026-04-19T09:54:49Z</time></trkpt><trkpt lat="45.323506524290316" lon="9.180751677137573"><ele>87.0</ele><time>2026-04-19T09:54:51Z</time></trkpt><trkpt lat="45.32348716373681" lon="9.18087575189945"><ele>87.0</ele><time>2026-04-19T09:54:53Z</time></trkpt><trkpt lat="45.323493488665534" lon="9.181000880251457"><ele>87.0</ele><time>2026-04-19T09:54:55Z</time></trkpt><trkpt lat="45.32351228499976" lon="9.181124266370563"><ele>87.19999999999999</ele><time>2026-04-19T09:54:57Z</time></trkpt><trkpt lat="45.323547154681314" lon="9.181242008724237"><ele>87.4</ele><time>2026-04-19T09:54:59Z</time></trkpt><trkpt lat="45.32359742306771" lon="9.181343991801683"><ele>87.6</ele><time>2026-04-19T09:55:01Z</time></trkpt><trkpt lat="45.323653527311386" lon="9.181438899883787"><ele>87.80000000000001</ele><time>2026-04-19T09:55:03Z</time></trkpt><trkpt lat="45.3236574469696" lon="9.1815769975848"><ele>88.0</ele><time>2026-04-19T09:55:05Z</time></trkpt><trkpt lat="45.323591836139315" lon="9.181680480328938"><ele>88.2</ele><time>2026-04-19T09:55:07Z</time></trkpt><trkpt lat="45.32357729802535" lon="9.181799617075564"><ele>88.4</ele><time>2026-04-19T09:55:09Z</time></trkpt><trkpt lat="45.32363787760209" lon="9.181908221042043"><ele>88.60000000000001</ele><time>2026-04-19T09:55:11Z</time></trkpt><trkpt lat="45.32368480917351" lon="9.182016414481712"><ele>88.80000000000001</ele><time>2026-04-19T09:55:13Z</time></trkpt><trkpt lat="45.32374106161165" lon="9.18212029918049"><ele>89.0</ele><time>2026-04-19T09:55:15Z</time></trkpt><trkpt lat="45.32379141042737" lon="9.182234752399262"><ele>89.0</ele><time>2026-04-19T09:55:17Z</time></trkpt><trkpt lat="45.32384502382776" lon="9.182335865052114"><ele>89.0</ele><time>2026-04-19T09:55:19Z</time></trkpt><trkpt lat="45.323902703831465" lon="9.182439171101745"><ele>89.0</ele><time>2026-04-19T09:55:21Z</time></trkpt><trkpt lat="45.32395072739431" lon="9.182534385929998"><ele>89.0</ele><time>2026-04-19T09:55:23Z</time></trkpt><trkpt lat="45.32400006394521" lon="9.182624786191344"><ele>89.0</ele><time>2026-04-19T09:55:25Z</time></trkpt><trkpt lat="45.324053416681835" lon="9.182710715680777"><ele>89.0</ele><time>2026-04-19T09:55:27Z</time></trkpt><trkpt lat="45.32410231822457" lon="9.182800293421984"><ele>89.0</ele><time>2026-04-19T09:55:29Z</time></trkpt><trkpt lat="45.32415070056532" lon="9.182893653972076"><ele>89.0</ele><time>2026-04-19T09:55:31Z</time></trkpt><trkpt lat="45.32420750745883" lon="9.182975814967806"><ele>89.0</ele><time>2026-04-19T09:55:33Z</time></trkpt><trkpt lat="45.32426046093747" lon="9.183062692617122"><ele>89.0</ele><time>2026-04-19T09:55:35Z</time></trkpt><trkpt lat="45.32431973437118" lon="9.18314674228301"><ele>89.0</ele><time>2026-04-19T09:55:37Z</time></trkpt><trkpt lat="45.32437590396724" lon="9.1832382260955"><ele>89.0</ele><time>2026-04-19T09:55:39Z</time></trkpt><trkpt lat="45.32442927160049" lon="9.183332112820738"><ele>89.0</ele><time>2026-04-19T09:55:41Z</time></trkpt><trkpt lat="45.32448735914442" lon="9.18341682887904"><ele>89.0</ele><time>2026-04-19T09:55:43Z</time></trkpt><trkpt lat="45.324540896368624" lon="9.183507718052338"><ele>89.0</ele><time>2026-04-19T09:55:45Z</time></trkpt><trkpt lat="45.324596196367" lon="9.183594186790378"><ele>89.0</ele><time>2026-04-19T09:55:47Z</time></trkpt><trkpt lat="45.32464317670697" lon="9.183661001185264"><ele>89.0</ele><time>2026-04-19T09:55:49Z</time></trkpt><trkpt lat="45.324699805803775" lon="9.183745116141882"><ele>89.0</ele><time>2026-04-19T09:55:51Z</time></trkpt><trkpt lat="45.32474850975239" lon="9.18380453644052"><ele>89.0</ele><time>2026-04-19T09:55:53Z</time></trkpt><trkpt lat="45.32481762293827" lon="9.183897417103479"><ele>89.0</ele><time>2026-04-19T09:55:56Z</time></trkpt><trkpt lat="45.3248716327178" lon="9.18396648714549"><ele>89.0</ele><time>2026-04-19T09:55:58Z</time></trkpt><trkpt lat="45.324955739965425" lon="9.184069347747137"><ele>89.0</ele><time>2026-04-19T09:56:01Z</time></trkpt><trkpt lat="45.32501049277314" lon="9.184154204442972"><ele>89.0</ele><time>2026-04-19T09:56:03Z</time></trkpt><trkpt lat="45.32507092633897" lon="9.184231143362306"><ele>89.0</ele><time>2026-04-19T09:56:05Z</time></trkpt><trkpt lat="45.325130794440454" lon="9.184313385035601"><ele>88.83333333333334</ele><time>2026-04-19T09:56:07Z</time></trkpt><trkpt lat="45.32518140448648" lon="9.184407335494058"><ele>88.66666666666667</ele><time>2026-04-19T09:56:09Z</time></trkpt><trkpt lat="45.32522820168194" lon="9.184503286431402"><ele>88.5</ele><time>2026-04-19T09:56:11Z</time></trkpt><trkpt lat="45.32526766498371" lon="9.184607363835784"><ele>88.33333333333333</ele><time>2026-04-19T09:56:13Z</time></trkpt><trkpt lat="45.325314305298434" lon="9.184706498567646"><ele>88.16666666666666</ele><time>2026-04-19T09:56:15Z</time></trkpt><trkpt lat="45.32535131644247" lon="9.18481032134879"><ele>88.0</ele><time>2026-04-19T09:56:17Z</time></trkpt><trkpt lat="45.32539306277099" lon="9.184916399055036"><ele>88.33333333333333</ele><time>2026-04-19T09:56:19Z</time></trkpt><trkpt lat="45.325430474874864" lon="9.18501714609721"><ele>88.66666666666666</ele><time>2026-04-19T09:56:21Z</time></trkpt><trkpt lat="45.325466987312716" lon="9.185119228302458"><ele>89.0</ele><time>2026-04-19T09:56:23Z</time></trkpt><trkpt lat="45.32550151948497" lon="9.185215694254763"><ele>89.33333333333333</ele><time>2026-04-19T09:56:25Z</time></trkpt><trkpt lat="45.32553885269858" lon="9.185307658326044"><ele>89.66666666666667</ele><time>2026-04-19T09:56:27Z</time></trkpt><trkpt lat="45.32557173973119" lon="9.18540001138858"><ele>90.0</ele><time>2026-04-19T09:56:29Z</time></trkpt><trkpt lat="45.32560586258473" lon="9.185493229009134"><ele>90.0</ele><time>2026-04-19T09:56:31Z</time></trkpt><trkpt lat="45.3256397418651" lon="9.185591697773615"><ele>90.0</ele><time>2026-04-19T09:56:33Z</time></trkpt><trkpt lat="45.32567870445842" lon="9.185689894162607"><ele>90.0</ele><time>2026-04-19T09:56:35Z</time></trkpt><trkpt lat="45.32571113949969" lon="9.18579077823434"><ele>90.0</ele><time>2026-04-19T09:56:37Z</time></trkpt><trkpt lat="45.32574604864761" lon="9.185886919480208"><ele>90.0</ele><time>2026-04-19T09:56:39Z</time></trkpt><trkpt lat="45.32578199093127" lon="9.185982760896906"><ele>90.0</ele><time>2026-04-19T09:56:41Z</time></trkpt><trkpt lat="45.32581834064818" lon="9.186081066706567"><ele>90.0</ele><time>2026-04-19T09:56:43Z</time></trkpt><trkpt lat="45.325853300030694" lon="9.186183150791674"><ele>90.0</ele><time>2026-04-19T09:56:45Z</time></trkpt><trkpt lat="45.325893499785636" lon="9.186279585299086"><ele>90.0</ele><time>2026-04-19T09:56:47Z</time></trkpt><trkpt lat="45.32592934329524" lon="9.18638072199688"><ele>90.0</ele><time>2026-04-19T09:56:49Z</time></trkpt><trkpt lat="45.32597114747569" lon="9.186470012122893"><ele>90.0</ele><time>2026-04-19T09:56:51Z</time></trkpt><trkpt lat="45.326004048870715" lon="9.186578923797745"><ele>90.0</ele><time>2026-04-19T09:56:53Z</time></trkpt><trkpt lat="45.326041992972506" lon="9.186681908490597"><ele>90.0</ele><time>2026-04-19T09:56:55Z</time></trkpt><trkpt lat="45.32607791644238" lon="9.186789195620811"><ele>90.0</ele><time>2026-04-19T09:56:57Z</time></trkpt><trkpt lat="45.3261156531771" lon="9.186888083088315"><ele>90.0</ele><time>2026-04-19T09:56:59Z</time></trkpt><trkpt lat="45.32615416456605" lon="9.186984898852794"><ele>90.0</ele><time>2026-04-19T09:57:01Z</time></trkpt><trkpt lat="45.3261916455229" lon="9.18708643546138"><ele>90.0</ele><time>2026-04-19T09:57:03Z</time></trkpt><trkpt lat="45.3262280052655" lon="9.187188390403337"><ele>90.0</ele><time>2026-04-19T09:57:05Z</time></trkpt><trkpt lat="45.3262624629923" lon="9.187290988466405"><ele>90.0</ele><time>2026-04-19T09:57:07Z</time></trkpt><trkpt lat="45.32630275276956" lon="9.187389311348435"><ele>90.0</ele><time>2026-04-19T09:57:09Z</time></trkpt><trkpt lat="45.32633916080035" lon="9.18748843470203"><ele>90.0</ele><time>2026-04-19T09:57:11Z</time></trkpt><trkpt lat="45.326375652313935" lon="9.187586538269725"><ele>90.0</ele><time>2026-04-19T09:57:13Z</time></trkpt><trkpt lat="45.32641215823547" lon="9.18768956988214"><ele>90.0</ele><time>2026-04-19T09:57:15Z</time></trkpt><trkpt lat="45.326449535128255" lon="9.187790328956089"><ele>90.0</ele><time>2026-04-19T09:57:17Z</time></trkpt><trkpt lat="45.326491833833096" lon="9.187887387780632"><ele>90.0</ele><time>2026-04-19T09:57:19Z</time></trkpt><trkpt lat="45.32652594647994" lon="9.187992562821396"><ele>90.0</ele><time>2026-04-19T09:57:21Z</time></trkpt><trkpt lat="45.32656689631597" lon="9.188096222915624"><ele>90.0</ele><time>2026-04-19T09:57:23Z</time></trkpt><trkpt lat="45.32660575106324" lon="9.188198268217237"><ele>90.0</ele><time>2026-04-19T09:57:25Z</time></trkpt><trkpt lat="45.326642059634" lon="9.188304690134764"><ele>90.0</ele><time>2026-04-19T09:57:27Z</time></trkpt><trkpt lat="45.32668571987936" lon="9.188403741322125"><ele>90.0</ele><time>2026-04-19T09:57:29Z</time></trkpt><trkpt lat="45.326724630661005" lon="9.188503863273336"><ele>90.0</ele><time>2026-04-19T09:57:31Z</time></trkpt><trkpt lat="45.326760810530864" lon="9.188604691995911"><ele>90.0</ele><time>2026-04-19T09:57:33Z</time></trkpt><trkpt lat="45.32679688402593" lon="9.188701532220806"><ele>90.0</ele><time>2026-04-19T09:57:35Z</time></trkpt><trkpt lat="45.326832044316845" lon="9.1887995839955"><ele>90.0</ele><time>2026-04-19T09:57:37Z</time></trkpt><trkpt lat="45.32686640189727" lon="9.188892096601416"><ele>90.0</ele><time>2026-04-19T09:57:39Z</time></trkpt><trkpt lat="45.32687281920403" lon="9.18898707409017"><ele>90.0</ele><time>2026-04-19T09:57:41Z</time></trkpt><trkpt lat="45.32686709134532" lon="9.189091647779904"><ele>90.0</ele><time>2026-04-19T09:57:43Z</time></trkpt><trkpt lat="45.326891650879" lon="9.189198807407994"><ele>90.0</ele><time>2026-04-19T09:57:45Z</time></trkpt><trkpt lat="45.32693079029851" lon="9.189303088445838"><ele>90.0</ele><time>2026-04-19T09:57:47Z</time></trkpt><trkpt lat="45.32696471863076" lon="9.189410201639983"><ele>90.0</ele><time>2026-04-19T09:57:49Z</time></trkpt><trkpt lat="45.326998592439665" lon="9.1895121908179"><ele>90.0</ele><time>2026-04-19T09:57:51Z</time></trkpt><trkpt lat="45.32703587651639" lon="9.189611737229544"><ele>90.0</ele><time>2026-04-19T09:57:53Z</time></trkpt><trkpt lat="45.32707741913249" lon="9.18970589098479"><ele>90.0</ele><time>2026-04-19T09:57:55Z</time></trkpt><trkpt lat="45.32711566436059" lon="9.189807361803341"><ele>90.0</ele><time>2026-04-19T09:57:57Z</time></trkpt><trkpt lat="45.32715566387935" lon="9.189905902719072"><ele>90.0</ele><time>2026-04-19T09:57:59Z</time></trkpt><trkpt lat="45.32719584473665" lon="9.190000053649527"><ele>90.0</ele><time>2026-04-19T09:58:01Z</time></trkpt><trkpt lat="45.32723142670978" lon="9.190099654203964"><ele>90.0</ele><time>2026-04-19T09:58:03Z</time></trkpt><trkpt lat="45.327284072812645" lon="9.19016705022722"><ele>90.0</ele><time>2026-04-19T09:58:05Z</time></trkpt><trkpt lat="45.32737699362794" lon="9.190139785039344"><ele>90.0</ele><time>2026-04-19T09:58:07Z</time></trkpt><trkpt lat="45.32746124030704" lon="9.190140213087316"><ele>89.83333333333333</ele><time>2026-04-19T09:58:09Z</time></trkpt><trkpt lat="45.32753809425607" lon="9.190166459068465"><ele>89.66666666666667</ele><time>2026-04-19T09:58:11Z</time></trkpt><trkpt lat="45.32761025070443" lon="9.19021199663639"><ele>89.5</ele><time>2026-04-19T09:58:13Z</time></trkpt><trkpt lat="45.327676028046426" lon="9.190256694675602"><ele>89.33333333333334</ele><time>2026-04-19T09:58:15Z</time></trkpt><trkpt lat="45.32775209343636" lon="9.190313854562294"><ele>89.16666666666667</ele><time>2026-04-19T09:58:17Z</time></trkpt><trkpt lat="45.32782892990725" lon="9.190369155634468"><ele>89.0</ele><time>2026-04-19T09:58:19Z</time></trkpt><trkpt lat="45.32790694338623" lon="9.190425505790687"><ele>89.0</ele><time>2026-04-19T09:58:21Z</time></trkpt><trkpt lat="45.32798521238813" lon="9.190480039854107"><ele>89.0</ele><time>2026-04-19T09:58:23Z</time></trkpt><trkpt lat="45.328062801710445" lon="9.190538542422475"><ele>89.0</ele><time>2026-04-19T09:58:25Z</time></trkpt><trkpt lat="45.32814118828938" lon="9.19059504204264"><ele>89.0</ele><time>2026-04-19T09:58:27Z</time></trkpt><trkpt lat="45.32821888162751" lon="9.190652239287354"><ele>89.0</ele><time>2026-04-19T09:58:29Z</time></trkpt><trkpt lat="45.328299767190416" lon="9.19071030684313"><ele>89.0</ele><time>2026-04-19T09:58:31Z</time></trkpt><trkpt lat="45.3283821275771" lon="9.190767101598379"><ele>89.6</ele><time>2026-04-19T09:58:33Z</time></trkpt><trkpt lat="45.3284652990369" lon="9.190825034086593"><ele>90.2</ele><time>2026-04-19T09:58:35Z</time></trkpt><trkpt lat="45.32854569322491" lon="9.19088237533967"><ele>90.8</ele><time>2026-04-19T09:58:37Z</time></trkpt><trkpt lat="45.32862984555654" lon="9.190939758679091"><ele>91.39999999999999</ele><time>2026-04-19T09:58:39Z</time></trkpt><trkpt lat="45.328711942039796" lon="9.190994633667504"><ele>92.0</ele><time>2026-04-19T09:58:41Z</time></trkpt><trkpt lat="45.32879235963739" lon="9.191048937512642"><ele>92.0</ele><time>2026-04-19T09:58:43Z</time></trkpt><trkpt lat="45.32887302257642" lon="9.191103650587078"><ele>92.0</ele><time>2026-04-19T09:58:45Z</time></trkpt><trkpt lat="45.32895098087883" lon="9.19117527579477"><ele>92.0</ele><time>2026-04-19T09:58:47Z</time></trkpt><trkpt lat="45.329025922857696" lon="9.191244990067371"><ele>92.0</ele><time>2026-04-19T09:58:49Z</time></trkpt><trkpt lat="45.32909462103769" lon="9.191328397500772"><ele>92.0</ele><time>2026-04-19T09:58:51Z</time></trkpt><trkpt lat="45.32915340264912" lon="9.191419212498772"><ele>92.0</ele><time>2026-04-19T09:58:53Z</time></trkpt><trkpt lat="45.329200433504084" lon="9.191518141512017"><ele>91.6</ele><time>2026-04-19T09:58:55Z</time></trkpt><trkpt lat="45.32924012033449" lon="9.191624278779102"><ele>91.19999999999999</ele><time>2026-04-19T09:58:57Z</time></trkpt><trkpt lat="45.32927004732476" lon="9.191743538563909"><ele>90.8</ele><time>2026-04-19T09:58:59Z</time></trkpt><trkpt lat="45.32930983807301" lon="9.1918745553956"><ele>90.4</ele><time>2026-04-19T09:59:01Z</time></trkpt><trkpt lat="45.32935321287084" lon="9.19200797844647"><ele>90.0</ele><time>2026-04-19T09:59:03Z</time></trkpt><trkpt lat="45.32942008878491" lon="9.192109798111836"><ele>90.0</ele><time>2026-04-19T09:59:05Z</time></trkpt><trkpt lat="45.32949942251476" lon="9.192185466368148"><ele>90.0</ele><time>2026-04-19T09:59:07Z</time></trkpt><trkpt lat="45.32958353384508" lon="9.192233067823745"><ele>90.0</ele><time>2026-04-19T09:59:09Z</time></trkpt><trkpt lat="45.3296697341597" lon="9.192267001579662"><ele>90.0</ele><time>2026-04-19T09:59:11Z</time></trkpt><trkpt lat="45.32976591642963" lon="9.19226042208023"><ele>90.0</ele><time>2026-04-19T09:59:13Z</time></trkpt><trkpt lat="45.329862373537416" lon="9.192248622230256"><ele>90.2</ele><time>2026-04-19T09:59:15Z</time></trkpt><trkpt lat="45.32995551358174" lon="9.192265856723333"><ele>90.4</ele><time>2026-04-19T09:59:17Z</time></trkpt><trkpt lat="45.33005563395523" lon="9.19228551537318"><ele>90.6</ele><time>2026-04-19T09:59:19Z</time></trkpt><trkpt lat="45.33015682522034" lon="9.192321070234282"><ele>90.8</ele><time>2026-04-19T09:59:21Z</time></trkpt><trkpt lat="45.330255205830305" lon="9.19237499710661"><ele>91.0</ele><time>2026-04-19T09:59:23Z</time></trkpt><trkpt lat="45.330347559650384" lon="9.192446844743511"><ele>91.0</ele><time>2026-04-19T09:59:25Z</time></trkpt><trkpt lat="45.33043366980073" lon="9.19252529035025"><ele>91.0</ele><time>2026-04-19T09:59:27Z</time></trkpt><trkpt lat="45.33051598135069" lon="9.192603797990927"><ele>91.0</ele><time>2026-04-19T09:59:29Z</time></trkpt><trkpt lat="45.33059275879978" lon="9.192691921088388"><ele>91.0</ele><time>2026-04-19T09:59:31Z</time></trkpt><trkpt lat="45.3306659707033" lon="9.192773610947189"><ele>91.0</ele><time>2026-04-19T09:59:33Z</time></trkpt><trkpt lat="45.33074120211419" lon="9.192852217014376"><ele>91.0</ele><time>2026-04-19T09:59:35Z</time></trkpt><trkpt lat="45.33081773280659" lon="9.192936050015257"><ele>91.0</ele><time>2026-04-19T09:59:37Z</time></trkpt><trkpt lat="45.330896450760335" lon="9.19301870152365"><ele>91.0</ele><time>2026-04-19T09:59:39Z</time></trkpt><trkpt lat="45.33097499429086" lon="9.193106974046918"><ele>91.0</ele><time>2026-04-19T09:59:41Z</time></trkpt><trkpt lat="45.33105513752721" lon="9.193193019192995"><ele>91.0</ele><time>2026-04-19T09:59:43Z</time></trkpt><trkpt lat="45.331135899711775" lon="9.193281766390859"><ele>91.19999999999999</ele><time>2026-04-19T09:59:45Z</time></trkpt><trkpt lat="45.33121891280401" lon="9.193369563167252"><ele>91.39999999999999</ele><time>2026-04-19T09:59:47Z</time></trkpt><trkpt lat="45.33130138639839" lon="9.1934617230475"><ele>91.6</ele><time>2026-04-19T09:59:49Z</time></trkpt><trkpt lat="45.33138459898908" lon="9.193548969143212"><ele>91.8</ele><time>2026-04-19T09:59:51Z</time></trkpt><trkpt lat="45.33146715453999" lon="9.193637230095685"><ele>92.0</ele><time>2026-04-19T09:59:53Z</time></trkpt><trkpt lat="45.33154856288021" lon="9.193726046368717"><ele>92.0</ele><time>2026-04-19T09:59:55Z</time></trkpt><trkpt lat="45.331632987312695" lon="9.193816595091572"><ele>92.0</ele><time>2026-04-19T09:59:57Z</time></trkpt><trkpt lat="45.3317151869096" lon="9.193908422200657"><ele>92.0</ele><time>2026-04-19T09:59:59Z</time></trkpt><trkpt lat="45.33179867301334" lon="9.193998731232723"><ele>92.0</ele><time>2026-04-19T10:00:01Z</time></trkpt><trkpt lat="45.33188168927552" lon="9.194090324868322"><ele>92.0</ele><time>2026-04-19T10:00:03Z</time></trkpt><trkpt lat="45.33196428520584" lon="9.194178224440662"><ele>92.0</ele><time>2026-04-19T10:00:05Z</time></trkpt><trkpt lat="45.33204349621319" lon="9.194267773879416"><ele>92.0</ele><time>2026-04-19T10:00:07Z</time></trkpt><trkpt lat="45.33212255958955" lon="9.194349058640455"><ele>92.0</ele><time>2026-04-19T10:00:09Z</time></trkpt><trkpt lat="45.332195417763096" lon="9.194433101318644"><ele>92.0</ele><time>2026-04-19T10:00:11Z</time></trkpt><trkpt lat="45.33226808938406" lon="9.194511929762959"><ele>92.0</ele><time>2026-04-19T10:00:13Z</time></trkpt><trkpt lat="45.33234149307234" lon="9.194595544709262"><ele>92.0</ele><time>2026-04-19T10:00:15Z</time></trkpt><trkpt lat="45.33241575311425" lon="9.194681253819017"><ele>92.0</ele><time>2026-04-19T10:00:17Z</time></trkpt><trkpt lat="45.33249411595402" lon="9.194765081407649"><ele>92.0</ele><time>2026-04-19T10:00:19Z</time></trkpt><trkpt lat="45.33257250828278" lon="9.194852868171305"><ele>92.0</ele><time>2026-04-19T10:00:21Z</time></trkpt><trkpt lat="45.33265413917875" lon="9.19493883197621"><ele>92.0</ele><time>2026-04-19T10:00:23Z</time></trkpt><trkpt lat="45.33273428157135" lon="9.19503018621318"><ele>92.19999999999999</ele><time>2026-04-19T10:00:25Z</time></trkpt><trkpt lat="45.33281427174145" lon="9.195121067259228"><ele>92.4</ele><time>2026-04-19T10:00:27Z</time></trkpt><trkpt lat="45.332897137121364" lon="9.19521010740284"><ele>92.6</ele><time>2026-04-19T10:00:29Z</time></trkpt><trkpt lat="45.33297973657906" lon="9.195301091726206"><ele>92.80000000000001</ele><time>2026-04-19T10:00:31Z</time></trkpt><trkpt lat="45.333062956752265" lon="9.195390836780115"><ele>93.0</ele><time>2026-04-19T10:00:33Z</time></trkpt><trkpt lat="45.33314430018138" lon="9.195483003565084"><ele>93.0</ele><time>2026-04-19T10:00:35Z</time></trkpt><trkpt lat="45.33322856212805" lon="9.195575052549989"><ele>93.0</ele><time>2026-04-19T10:00:37Z</time></trkpt><trkpt lat="45.33331091061779" lon="9.19567112795874"><ele>93.0</ele><time>2026-04-19T10:00:39Z</time></trkpt><trkpt lat="45.33339256207283" lon="9.195763254347852"><ele>93.0</ele><time>2026-04-19T10:00:41Z</time></trkpt><trkpt lat="45.333475162712446" lon="9.195855225637093"><ele>93.0</ele><time>2026-04-19T10:00:43Z</time></trkpt><trkpt lat="45.333544172640885" lon="9.195960286266473"><ele>92.60000000000001</ele><time>2026-04-19T10:00:45Z</time></trkpt><trkpt lat="45.33357291439368" lon="9.196106449120313"><ele>92.2</ele><time>2026-04-19T10:00:47Z</time></trkpt><trkpt lat="45.33361192252483" lon="9.196242560161238"><ele>91.8</ele><time>2026-04-19T10:00:49Z</time></trkpt><trkpt lat="45.33368647143464" lon="9.196352871726232"><ele>91.4</ele><time>2026-04-19T10:00:51Z</time></trkpt><trkpt lat="45.33378796681938" lon="9.196389979896741"><ele>91.0</ele><time>2026-04-19T10:00:53Z</time></trkpt><trkpt lat="45.333890069182424" lon="9.19641621824713"><ele>92.0</ele><time>2026-04-19T10:00:55Z</time></trkpt><trkpt lat="45.33399174947623" lon="9.196452406047054"><ele>93.0</ele><time>2026-04-19T10:00:57Z</time></trkpt><trkpt lat="45.33407629011454" lon="9.196519187394793"><ele>94.0</ele><time>2026-04-19T10:00:59Z</time></trkpt><trkpt lat="45.33417303400948" lon="9.196593101283163"><ele>95.0</ele><time>2026-04-19T10:01:01Z</time></trkpt><trkpt lat="45.33425227665147" lon="9.196684160261352"><ele>96.0</ele><time>2026-04-19T10:01:03Z</time></trkpt><trkpt lat="45.334333325645616" lon="9.196772944269728"><ele>96.0</ele><time>2026-04-19T10:01:04.999Z</time></trkpt><trkpt lat="45.334413775771715" lon="9.196859783113341"><ele>96.0</ele><time>2026-04-19T10:01:06.999Z</time></trkpt><trkpt lat="45.334492814774705" lon="9.196947343688283"><ele>96.0</ele><time>2026-04-19T10:01:08.999Z</time></trkpt><trkpt lat="45.33457378252105" lon="9.197031017240928"><ele>96.0</ele><time>2026-04-19T10:01:10.999Z</time></trkpt><trkpt lat="45.33465157847393" lon="9.197123948194642"><ele>96.0</ele><time>2026-04-19T10:01:12.999Z</time></trkpt><trkpt lat="45.33473434809586" lon="9.197208632585276"><ele>96.19999999999999</ele><time>2026-04-19T10:01:14.999Z</time></trkpt><trkpt lat="45.334815656274" lon="9.197298081428897"><ele>96.39999999999999</ele><time>2026-04-19T10:01:17Z</time></trkpt><trkpt lat="45.33489529137751" lon="9.197388582906168"><ele>96.6</ele><time>2026-04-19T10:01:19Z</time></trkpt><trkpt lat="45.33497703869547" lon="9.197474500762372"><ele>96.8</ele><time>2026-04-19T10:01:21Z</time></trkpt><trkpt lat="45.33505768596198" lon="9.197561667349275"><ele>97.0</ele><time>2026-04-19T10:01:23Z</time></trkpt><trkpt lat="45.335136202441845" lon="9.197647875533841"><ele>96.39999999999999</ele><time>2026-04-19T10:01:25Z</time></trkpt><trkpt lat="45.33521676316198" lon="9.197732325875"><ele>95.8</ele><time>2026-04-19T10:01:27Z</time></trkpt><trkpt lat="45.335296867334286" lon="9.197820079579724"><ele>95.2</ele><time>2026-04-19T10:01:29Z</time></trkpt><trkpt lat="45.335379261218996" lon="9.197905086585031"><ele>94.6</ele><time>2026-04-19T10:01:31Z</time></trkpt><trkpt lat="45.33546227800966" lon="9.197991196814213"><ele>94.0</ele><time>2026-04-19T10:01:33Z</time></trkpt><trkpt lat="45.335542859131124" lon="9.198077595350059"><ele>94.0</ele><time>2026-04-19T10:01:35Z</time></trkpt><trkpt lat="45.33562688835125" lon="9.198162296046656"><ele>94.0</ele><time>2026-04-19T10:01:37Z</time></trkpt><trkpt lat="45.33570907621248" lon="9.198248516591459"><ele>94.0</ele><time>2026-04-19T10:01:39Z</time></trkpt><trkpt lat="45.33579141025673" lon="9.198334039395998"><ele>94.0</ele><time>2026-04-19T10:01:41Z</time></trkpt><trkpt lat="45.335875174149045" lon="9.198415334669068"><ele>94.0</ele><time>2026-04-19T10:01:43Z</time></trkpt><trkpt lat="45.33596125460474" lon="9.198492529127657"><ele>94.0</ele><time>2026-04-19T10:01:45Z</time></trkpt><trkpt lat="45.33605207884765" lon="9.198563107489152"><ele>94.0</ele><time>2026-04-19T10:01:47Z</time></trkpt><trkpt lat="45.33614405259554" lon="9.198629319398755"><ele>94.0</ele><time>2026-04-19T10:01:49Z</time></trkpt><trkpt lat="45.33623393046702" lon="9.198695321475922"><ele>94.0</ele><time>2026-04-19T10:01:51Z</time></trkpt><trkpt lat="45.3363221917017" lon="9.198767769278682"><ele>94.0</ele><time>2026-04-19T10:01:53Z</time></trkpt><trkpt lat="45.33641469883623" lon="9.19883491193675"><ele>94.0</ele><time>2026-04-19T10:01:55Z</time></trkpt><trkpt lat="45.33650307555654" lon="9.19891202128104"><ele>94.0</ele><time>2026-04-19T10:01:57Z</time></trkpt><trkpt lat="45.3365910959084" lon="9.198985948207548"><ele>94.0</ele><time>2026-04-19T10:01:59Z</time></trkpt><trkpt lat="45.336677087622014" lon="9.199066711721123"><ele>94.0</ele><time>2026-04-19T10:02:01Z</time></trkpt><trkpt lat="45.33675403283327" lon="9.199150049535374"><ele>94.0</ele><time>2026-04-19T10:02:03Z</time></trkpt><trkpt lat="45.336795709219686" lon="9.199267714863685"><ele>94.0</ele><time>2026-04-19T10:02:05Z</time></trkpt><trkpt lat="45.33682555234193" lon="9.199386370009456"><ele>94.0</ele><time>2026-04-19T10:02:07Z</time></trkpt><trkpt lat="45.33688282048184" lon="9.199483886989748"><ele>94.0</ele><time>2026-04-19T10:02:09Z</time></trkpt><trkpt lat="45.33695307250704" lon="9.199564186335111"><ele>94.0</ele><time>2026-04-19T10:02:11Z</time></trkpt><trkpt lat="45.3370219660515" lon="9.199644512644662"><ele>94.0</ele><time>2026-04-19T10:02:13Z</time></trkpt><trkpt lat="45.337087335274035" lon="9.199727185293565"><ele>94.0</ele><time>2026-04-19T10:02:15Z</time></trkpt><trkpt lat="45.33715033909148" lon="9.199808584257374"><ele>94.0</ele><time>2026-04-19T10:02:17Z</time></trkpt><trkpt lat="45.337215290767105" lon="9.19987571507835"><ele>94.0</ele><time>2026-04-19T10:02:19Z</time></trkpt><trkpt lat="45.3372759752539" lon="9.199946282457807"><ele>94.0</ele><time>2026-04-19T10:02:21Z</time></trkpt><trkpt lat="45.33734352523685" lon="9.200010766903915"><ele>94.0</ele><time>2026-04-19T10:02:23Z</time></trkpt><trkpt lat="45.337410525689776" lon="9.200082214133237"><ele>94.0</ele><time>2026-04-19T10:02:25Z</time></trkpt><trkpt lat="45.33747634124133" lon="9.20015436015829"><ele>94.0</ele><time>2026-04-19T10:02:27Z</time></trkpt><trkpt lat="45.33754181796092" lon="9.2002263438242"><ele>93.83333333333333</ele><time>2026-04-19T10:02:29Z</time></trkpt><trkpt lat="45.337613749862726" lon="9.200293183968133"><ele>93.66666666666666</ele><time>2026-04-19T10:02:31Z</time></trkpt><trkpt lat="45.33769533391858" lon="9.200326404943771"><ele>93.5</ele><time>2026-04-19T10:02:33Z</time></trkpt><trkpt lat="45.33776631058955" lon="9.200387072548924"><ele>93.33333333333333</ele><time>2026-04-19T10:02:35Z</time></trkpt><trkpt lat="45.3378338829146" lon="9.200452679797321"><ele>93.16666666666667</ele><time>2026-04-19T10:02:37Z</time></trkpt><trkpt lat="45.33789687980411" lon="9.20052684741229"><ele>93.0</ele><time>2026-04-19T10:02:39Z</time></trkpt><trkpt lat="45.33796995177093" lon="9.200549622496146"><ele>93.0</ele><time>2026-04-19T10:02:41Z</time></trkpt><trkpt lat="45.338039333172524" lon="9.200595481299617"><ele>93.0</ele><time>2026-04-19T10:02:43Z</time></trkpt><trkpt lat="45.33810254848181" lon="9.200679525451227"><ele>93.0</ele><time>2026-04-19T10:02:45Z</time></trkpt><trkpt lat="45.33817250811935" lon="9.20075880450667"><ele>93.0</ele><time>2026-04-19T10:02:47Z</time></trkpt><trkpt lat="45.338244902497536" lon="9.200833497749732"><ele>93.0</ele><time>2026-04-19T10:02:49Z</time></trkpt><trkpt lat="45.33831908852451" lon="9.20090988732691"><ele>93.0</ele><time>2026-04-19T10:02:51Z</time></trkpt><trkpt lat="45.33839549787374" lon="9.200983657740824"><ele>93.0</ele><time>2026-04-19T10:02:53Z</time></trkpt><trkpt lat="45.33847181114202" lon="9.201051736191342"><ele>93.0</ele><time>2026-04-19T10:02:55Z</time></trkpt><trkpt lat="45.33855151499259" lon="9.201113758798456"><ele>93.0</ele><time>2026-04-19T10:02:57Z</time></trkpt><trkpt lat="45.33862993834726" lon="9.20117144148356"><ele>93.0</ele><time>2026-04-19T10:02:59Z</time></trkpt><trkpt lat="45.33871377425268" lon="9.201205113608749"><ele>93.0</ele><time>2026-04-19T10:03:01Z</time></trkpt><trkpt lat="45.33880068956376" lon="9.201156294081164"><ele>93.2</ele><time>2026-04-19T10:03:03Z</time></trkpt><trkpt lat="45.338888743229866" lon="9.201125771238026"><ele>93.4</ele><time>2026-04-19T10:03:05Z</time></trkpt><trkpt lat="45.33898280377483" lon="9.20112397470759"><ele>93.60000000000001</ele><time>2026-04-19T10:03:07Z</time></trkpt><trkpt lat="45.339077695180485" lon="9.20114820818287"><ele>93.80000000000001</ele><time>2026-04-19T10:03:09Z</time></trkpt><trkpt lat="45.33917140982284" lon="9.20116265502443"><ele>94.0</ele><time>2026-04-19T10:03:10.999Z</time></trkpt><trkpt lat="45.33926918066955" lon="9.201180093036548"><ele>94.0</ele><time>2026-04-19T10:03:12.999Z</time></trkpt><trkpt lat="45.339370049757555" lon="9.201200223263122"><ele>94.0</ele><time>2026-04-19T10:03:14.999Z</time></trkpt><trkpt lat="45.3394703069895" lon="9.201214126747445"><ele>94.0</ele><time>2026-04-19T10:03:16.999Z</time></trkpt><trkpt lat="45.3395697422068" lon="9.201228713154052"><ele>94.0</ele><time>2026-04-19T10:03:18.999Z</time></trkpt><trkpt lat="45.33967089079408" lon="9.201240246874718"><ele>94.0</ele><time>2026-04-19T10:03:20.999Z</time></trkpt><trkpt lat="45.33977108845251" lon="9.201246428637106"><ele>94.33333333333333</ele><time>2026-04-19T10:03:22.999Z</time></trkpt><trkpt lat="45.339869310791634" lon="9.20125308629644"><ele>94.66666666666666</ele><time>2026-04-19T10:03:24.999Z</time></trkpt><trkpt lat="45.33996361145862" lon="9.201265926713587"><ele>95.0</ele><time>2026-04-19T10:03:26.999Z</time></trkpt><trkpt lat="45.34005055201698" lon="9.201295134068474"><ele>95.33333333333333</ele><time>2026-04-19T10:03:29Z</time></trkpt><trkpt lat="45.34012824345214" lon="9.201338678172297"><ele>95.66666666666667</ele><time>2026-04-19T10:03:31Z</time></trkpt><trkpt lat="45.340196687997555" lon="9.201391648574841"><ele>96.0</ele><time>2026-04-19T10:03:33Z</time></trkpt><trkpt lat="45.34027039578303" lon="9.201438522257801"><ele>95.83333333333333</ele><time>2026-04-19T10:03:35Z</time></trkpt><trkpt lat="45.340328534537186" lon="9.201520755733002"><ele>95.66666666666667</ele><time>2026-04-19T10:03:37Z</time></trkpt><trkpt lat="45.340360415202795" lon="9.20162352594923"><ele>95.5</ele><time>2026-04-19T10:03:39Z</time></trkpt><trkpt lat="45.34043870695991" lon="9.201658357263973"><ele>95.33333333333334</ele><time>2026-04-19T10:03:41Z</time></trkpt><trkpt lat="45.34053075608748" lon="9.2016419362264"><ele>95.16666666666667</ele><time>2026-04-19T10:03:43Z</time></trkpt><trkpt lat="45.3406213136148" lon="9.201648621411472"><ele>95.0</ele><time>2026-04-19T10:03:45Z</time></trkpt><trkpt lat="45.34070873914127" lon="9.201646581898334"><ele>95.0</ele><time>2026-04-19T10:03:47Z</time></trkpt><trkpt lat="45.34079063857335" lon="9.201642204800127"><ele>95.0</ele><time>2026-04-19T10:03:49Z</time></trkpt><trkpt lat="45.340871037864304" lon="9.201637712023423"><ele>95.0</ele><time>2026-04-19T10:03:51Z</time></trkpt><trkpt lat="45.34094585280284" lon="9.201635135297677"><ele>95.0</ele><time>2026-04-19T10:03:53Z</time></trkpt><trkpt lat="45.341016794263325" lon="9.201642604379188"><ele>95.0</ele><time>2026-04-19T10:03:55Z</time></trkpt><trkpt lat="45.341091357808516" lon="9.201636269233491"><ele>95.0</ele><time>2026-04-19T10:03:57Z</time></trkpt><trkpt lat="45.34116918431925" lon="9.2016376442157"><ele>95.0</ele><time>2026-04-19T10:03:59Z</time></trkpt><trkpt lat="45.34124852701634" lon="9.201637997765175"><ele>95.0</ele><time>2026-04-19T10:04:01Z</time></trkpt><trkpt lat="45.341327450992445" lon="9.201638717390447"><ele>95.0</ele><time>2026-04-19T10:04:03Z</time></trkpt><trkpt lat="45.34141036835488" lon="9.201639815945759"><ele>95.0</ele><time>2026-04-19T10:04:05Z</time></trkpt><trkpt lat="45.34149291001379" lon="9.20163054616625"><ele>95.0</ele><time>2026-04-19T10:04:07Z</time></trkpt><trkpt lat="45.341577135527764" lon="9.201629395181529"><ele>95.0</ele><time>2026-04-19T10:04:09Z</time></trkpt><trkpt lat="45.34166099074627" lon="9.201633792860955"><ele>95.33333333333334</ele><time>2026-04-19T10:04:11Z</time></trkpt><trkpt lat="45.34174426342452" lon="9.20163586722508"><ele>95.66666666666667</ele><time>2026-04-19T10:04:13Z</time></trkpt><trkpt lat="45.3418270875754" lon="9.20162451173789"><ele>96.0</ele><time>2026-04-19T10:04:15Z</time></trkpt><trkpt lat="45.341905928888046" lon="9.201623159783749"><ele>96.33333333333334</ele><time>2026-04-19T10:04:17Z</time></trkpt><trkpt lat="45.341983145651916" lon="9.201618298640216"><ele>96.66666666666667</ele><time>2026-04-19T10:04:19Z</time></trkpt><trkpt lat="45.342064893570566" lon="9.201622599218675"><ele>97.0</ele><time>2026-04-19T10:04:21Z</time></trkpt><trkpt lat="45.34215025962239" lon="9.201630905134627"><ele>97.19999999999999</ele><time>2026-04-19T10:04:23Z</time></trkpt><trkpt lat="45.34223732754782" lon="9.201636447356016"><ele>97.4</ele><time>2026-04-19T10:04:25Z</time></trkpt><trkpt lat="45.342327445093765" lon="9.201636778773302"><ele>97.6</ele><time>2026-04-19T10:04:27Z</time></trkpt><trkpt lat="45.34241885078615" lon="9.201625704498985"><ele>97.80000000000001</ele><time>2026-04-19T10:04:29Z</time></trkpt><trkpt lat="45.34251042598687" lon="9.201628836424078"><ele>98.0</ele><time>2026-04-19T10:04:31Z</time></trkpt><trkpt lat="45.34260373940983" lon="9.201631322950174"><ele>98.0</ele><time>2026-04-19T10:04:33Z</time></trkpt><trkpt lat="45.34269948252109" lon="9.201629774007094"><ele>98.0</ele><time>2026-04-19T10:04:35Z</time></trkpt><trkpt lat="45.34279282471698" lon="9.201620708137968"><ele>98.0</ele><time>2026-04-19T10:04:37Z</time></trkpt><trkpt lat="45.34288627967321" lon="9.20162407628271"><ele>98.0</ele><time>2026-04-19T10:04:39Z</time></trkpt><trkpt lat="45.342980854196234" lon="9.2016221881461"><ele>98.0</ele><time>2026-04-19T10:04:41Z</time></trkpt><trkpt lat="45.34307273522241" lon="9.20162688941033"><ele>98.0</ele><time>2026-04-19T10:04:43Z</time></trkpt><trkpt lat="45.34315980897488" lon="9.201622178041209"><ele>98.0</ele><time>2026-04-19T10:04:45Z</time></trkpt><trkpt lat="45.343240108554355" lon="9.201618457921702"><ele>98.0</ele><time>2026-04-19T10:04:47Z</time></trkpt><trkpt lat="45.343317598379045" lon="9.201620848773313"><ele>98.0</ele><time>2026-04-19T10:04:49Z</time></trkpt><trkpt lat="45.343382887625125" lon="9.201579367544483"><ele>98.0</ele><time>2026-04-19T10:04:51Z</time></trkpt><trkpt lat="45.34342571460487" lon="9.201509293228971"><ele>98.0</ele><time>2026-04-19T10:04:53Z</time></trkpt><trkpt lat="45.343475844718185" lon="9.201450382395679"><ele>98.0</ele><time>2026-04-19T10:04:57Z</time></trkpt><trkpt lat="45.34350384502544" lon="9.201367760518096"><ele>97.99999999999999</ele><time>2026-04-19T10:05:02Z</time></trkpt><trkpt lat="45.34357102728538" lon="9.201426305906002"><ele>98.0</ele><time>2026-04-19T10:05:09Z</time></trkpt><trkpt lat="45.343589414210726" lon="9.201516143575125"><ele>98.0</ele><time>2026-04-19T10:05:11Z</time></trkpt><trkpt lat="45.34364778109641" lon="9.201601513984741"><ele>98.0</ele><time>2026-04-19T10:05:13Z</time></trkpt><trkpt lat="45.3437088461724" lon="9.201685345492548"><ele>97.99999999999999</ele><time>2026-04-19T10:05:15Z</time></trkpt><trkpt lat="45.34376335101106" lon="9.201758411780148"><ele>98.0</ele><time>2026-04-19T10:05:16.999Z</time></trkpt><trkpt lat="45.343836287086226" lon="9.201744168729984"><ele>97.60000000000001</ele><time>2026-04-19T10:05:18.999Z</time></trkpt><trkpt lat="45.34392278674714" lon="9.201689039504815"><ele>97.2</ele><time>2026-04-19T10:05:20.999Z</time></trkpt><trkpt lat="45.34401295674793" lon="9.201650187103125"><ele>96.8</ele><time>2026-04-19T10:05:22.999Z</time></trkpt><trkpt lat="45.344108170172596" lon="9.20164494188322"><ele>96.4</ele><time>2026-04-19T10:05:24.999Z</time></trkpt><trkpt lat="45.34420415604327" lon="9.201653615281959"><ele>96.0</ele><time>2026-04-19T10:05:26.999Z</time></trkpt><trkpt lat="45.344299326647544" lon="9.201650336710857"><ele>96.0</ele><time>2026-04-19T10:05:28.999Z</time></trkpt><trkpt lat="45.34439514272598" lon="9.20165423983038"><ele>96.0</ele><time>2026-04-19T10:05:30.999Z</time></trkpt><trkpt lat="45.34449440182959" lon="9.201652781901819"><ele>96.0</ele><time>2026-04-19T10:05:32.999Z</time></trkpt><trkpt lat="45.344593311696144" lon="9.201640090702016"><ele>96.0</ele><time>2026-04-19T10:05:34.999Z</time></trkpt><trkpt lat="45.34469246393466" lon="9.201644315542298"><ele>96.0</ele><time>2026-04-19T10:05:36.999Z</time></trkpt><trkpt lat="45.3447931782599" lon="9.20164334810857"><ele>95.8</ele><time>2026-04-19T10:05:39Z</time></trkpt><trkpt lat="45.344895510551666" lon="9.201641029297921"><ele>95.6</ele><time>2026-04-19T10:05:41Z</time></trkpt><trkpt lat="45.344996697442696" lon="9.201638610210546"><ele>95.4</ele><time>2026-04-19T10:05:43Z</time></trkpt><trkpt lat="45.3450993623973" lon="9.20163958841136"><ele>95.2</ele><time>2026-04-19T10:05:45Z</time></trkpt><trkpt lat="45.34519994321104" lon="9.201636198448185"><ele>95.0</ele><time>2026-04-19T10:05:47Z</time></trkpt><trkpt lat="45.34530082078252" lon="9.20163103657998"><ele>95.0</ele><time>2026-04-19T10:05:49Z</time></trkpt><trkpt lat="45.345402005593954" lon="9.201630745220276"><ele>95.0</ele><time>2026-04-19T10:05:51Z</time></trkpt><trkpt lat="45.345503540012295" lon="9.201630824012007"><ele>95.0</ele><time>2026-04-19T10:05:53Z</time></trkpt><trkpt lat="45.34560423355681" lon="9.201628674369779"><ele>95.0</ele><time>2026-04-19T10:05:55Z</time></trkpt><trkpt lat="45.3457048669508" lon="9.201632429033024"><ele>95.0</ele><time>2026-04-19T10:05:57Z</time></trkpt><trkpt lat="45.34580976368197" lon="9.20162678735287"><ele>96.0</ele><time>2026-04-19T10:05:59Z</time></trkpt><trkpt lat="45.34591442120831" lon="9.201620337480408"><ele>97.0</ele><time>2026-04-19T10:06:01Z</time></trkpt><trkpt lat="45.34601965630959" lon="9.201618801726402"><ele>98.0</ele><time>2026-04-19T10:06:03Z</time></trkpt><trkpt lat="45.34612777197734" lon="9.201615856486795"><ele>99.0</ele><time>2026-04-19T10:06:05Z</time></trkpt><trkpt lat="45.34623417631965" lon="9.201614718687194"><ele>100.0</ele><time>2026-04-19T10:06:07Z</time></trkpt><trkpt lat="45.34633569697804" lon="9.20160671463879"><ele>99.8</ele><time>2026-04-19T10:06:09Z</time></trkpt><trkpt lat="45.34643763087962" lon="9.201608078849997"><ele>99.6</ele><time>2026-04-19T10:06:11Z</time></trkpt><trkpt lat="45.346542770739944" lon="9.201604679635684"><ele>99.4</ele><time>2026-04-19T10:06:13Z</time></trkpt><trkpt lat="45.346649899514" lon="9.20160708045051"><ele>99.2</ele><time>2026-04-19T10:06:15Z</time></trkpt><trkpt lat="45.346755859569356" lon="9.201598214333142"><ele>99.0</ele><time>2026-04-19T10:06:17Z</time></trkpt><trkpt lat="45.34686296188354" lon="9.201609309521343"><ele>99.0</ele><time>2026-04-19T10:06:19Z</time></trkpt><trkpt lat="45.34697066296246" lon="9.201611544480043"><ele>99.0</ele><time>2026-04-19T10:06:21Z</time></trkpt><trkpt lat="45.34707792951239" lon="9.20160700095567"><ele>99.0</ele><time>2026-04-19T10:06:23Z</time></trkpt><trkpt lat="45.34718453606247" lon="9.20160367946658"><ele>99.0</ele><time>2026-04-19T10:06:25Z</time></trkpt><trkpt lat="45.34729294880946" lon="9.201596925608376"><ele>99.0</ele><time>2026-04-19T10:06:27Z</time></trkpt><trkpt lat="45.34740118035082" lon="9.201595902395235"><ele>98.6</ele><time>2026-04-19T10:06:29Z</time></trkpt><trkpt lat="45.34751030684667" lon="9.201601914656276"><ele>98.2</ele><time>2026-04-19T10:06:31Z</time></trkpt><trkpt lat="45.347617125080056" lon="9.201598929776384"><ele>97.8</ele><time>2026-04-19T10:06:33Z</time></trkpt><trkpt lat="45.347724936150314" lon="9.201596205445558"><ele>97.39999999999999</ele><time>2026-04-19T10:06:35Z</time></trkpt><trkpt lat="45.3478340329474" lon="9.201594735379368"><ele>97.0</ele><time>2026-04-19T10:06:37Z</time></trkpt><trkpt lat="45.347942862970136" lon="9.201591847438458"><ele>96.75</ele><time>2026-04-19T10:06:39Z</time></trkpt><trkpt lat="45.34805615037215" lon="9.201592444270942"><ele>96.5</ele><time>2026-04-19T10:06:41Z</time></trkpt><trkpt lat="45.34817099018943" lon="9.201587814939362"><ele>96.25</ele><time>2026-04-19T10:06:43Z</time></trkpt><trkpt lat="45.34828399184453" lon="9.201589445507537"><ele>96.0</ele><time>2026-04-19T10:06:45Z</time></trkpt><trkpt lat="45.348393722793766" lon="9.201586720448258"><ele>96.0</ele><time>2026-04-19T10:06:47Z</time></trkpt><trkpt lat="45.34850301415759" lon="9.201589189385562"><ele>96.0</ele><time>2026-04-19T10:06:49Z</time></trkpt><trkpt lat="45.34861153057698" lon="9.201586713516987"><ele>96.0</ele><time>2026-04-19T10:06:51Z</time></trkpt><trkpt lat="45.348719838398345" lon="9.20158668825671"><ele>96.0</ele><time>2026-04-19T10:06:53Z</time></trkpt><trkpt lat="45.34882625774796" lon="9.201586139433363"><ele>96.0</ele><time>2026-04-19T10:06:55Z</time></trkpt><trkpt lat="45.34893219939565" lon="9.201586195685781"><ele>96.19999999999999</ele><time>2026-04-19T10:06:57Z</time></trkpt><trkpt lat="45.34903590208238" lon="9.201579971092396"><ele>96.39999999999999</ele><time>2026-04-19T10:06:59Z</time></trkpt><trkpt lat="45.34913837432169" lon="9.201581828641023"><ele>96.6</ele><time>2026-04-19T10:07:01Z</time></trkpt><trkpt lat="45.34923955412766" lon="9.201582039669974"><ele>96.8</ele><time>2026-04-19T10:07:03Z</time></trkpt><trkpt lat="45.34933842549802" lon="9.201581839197303"><ele>97.0</ele><time>2026-04-19T10:07:05Z</time></trkpt><trkpt lat="45.34943714328107" lon="9.201585327705654"><ele>97.0</ele><time>2026-04-19T10:07:07Z</time></trkpt><trkpt lat="45.34953755930128" lon="9.201582592496468"><ele>97.0</ele><time>2026-04-19T10:07:09Z</time></trkpt><trkpt lat="45.34963982236419" lon="9.201575266782092"><ele>97.0</ele><time>2026-04-19T10:07:11Z</time></trkpt><trkpt lat="45.349743322408294" lon="9.2015753765268"><ele>97.0</ele><time>2026-04-19T10:07:13Z</time></trkpt><trkpt lat="45.34984328252383" lon="9.201585663410098"><ele>97.0</ele><time>2026-04-19T10:07:15Z</time></trkpt><trkpt lat="45.349941629684146" lon="9.201578885114829"><ele>96.8</ele><time>2026-04-19T10:07:17Z</time></trkpt><trkpt lat="45.35004066162045" lon="9.201576642495036"><ele>96.6</ele><time>2026-04-19T10:07:19Z</time></trkpt><trkpt lat="45.35013992333434" lon="9.201581825941718"><ele>96.39999999999999</ele><time>2026-04-19T10:07:21Z</time></trkpt><trkpt lat="45.35023880908523" lon="9.201586164587566"><ele>96.19999999999999</ele><time>2026-04-19T10:07:22.999Z</time></trkpt><trkpt lat="45.35033752041369" lon="9.201585603291212"><ele>96.0</ele><time>2026-04-19T10:07:24.999Z</time></trkpt><trkpt lat="45.350431859136826" lon="9.201572777777006"><ele>96.0</ele><time>2026-04-19T10:07:26.999Z</time></trkpt><trkpt lat="45.35052382130422" lon="9.201568206429684"><ele>96.0</ele><time>2026-04-19T10:07:28.999Z</time></trkpt><trkpt lat="45.3506166220106" lon="9.201576090441545"><ele>96.0</ele><time>2026-04-19T10:07:30.999Z</time></trkpt><trkpt lat="45.350705119594046" lon="9.20156956914517"><ele>96.0</ele><time>2026-04-19T10:07:32.999Z</time></trkpt><trkpt lat="45.350788102867305" lon="9.201566823847564"><ele>96.0</ele><time>2026-04-19T10:07:34.999Z</time></trkpt><trkpt lat="45.350864701968405" lon="9.201565810163755"><ele>96.0</ele><time>2026-04-19T10:07:36.999Z</time></trkpt><trkpt lat="45.35092505537636" lon="9.201613136361985"><ele>96.28571428571428</ele><time>2026-04-19T10:07:38.999Z</time></trkpt><trkpt lat="45.35094552256127" lon="9.201705123239229"><ele>96.57142857142857</ele><time>2026-04-19T10:07:40.999Z</time></trkpt><trkpt lat="45.350972960144475" lon="9.201788017276135"><ele>96.85714285714286</ele><time>2026-04-19T10:07:42.999Z</time></trkpt><trkpt lat="45.35102990264161" lon="9.20183938269379"><ele>97.14285714285714</ele><time>2026-04-19T10:07:44.999Z</time></trkpt><trkpt lat="45.35109044610564" lon="9.201811703100223"><ele>97.42857142857143</ele><time>2026-04-19T10:07:46.999Z</time></trkpt><trkpt lat="45.351128846513575" lon="9.20171429964585"><ele>97.71428571428571</ele><time>2026-04-19T10:07:49Z</time></trkpt><trkpt lat="45.35118301206294" lon="9.201636226821606"><ele>98.0</ele><time>2026-04-19T10:07:51Z</time></trkpt><trkpt lat="45.351249680872996" lon="9.201575427600195"><ele>97.99999999999999</ele><time>2026-04-19T10:07:53Z</time></trkpt><trkpt lat="45.351332067063055" lon="9.201588840546185"><ele>98.0</ele><time>2026-04-19T10:07:55Z</time></trkpt><trkpt lat="45.351408461785205" lon="9.201585280950917"><ele>98.0</ele><time>2026-04-19T10:07:57Z</time></trkpt><trkpt lat="45.35149106978205" lon="9.20158489877533"><ele>98.0</ele><time>2026-04-19T10:07:59Z</time></trkpt><trkpt lat="45.351578584304924" lon="9.201586314874882"><ele>97.99999999999999</ele><time>2026-04-19T10:08:01Z</time></trkpt><trkpt lat="45.351666880580446" lon="9.201584987240562"><ele>98.0</ele><time>2026-04-19T10:08:03Z</time></trkpt><trkpt lat="45.351757478446245" lon="9.201583786463212"><ele>97.4</ele><time>2026-04-19T10:08:05Z</time></trkpt><trkpt lat="45.35184950743749" lon="9.201579731580003"><ele>96.80000000000001</ele><time>2026-04-19T10:08:07Z</time></trkpt><trkpt lat="45.35194784503665" lon="9.201580671331453"><ele>96.2</ele><time>2026-04-19T10:08:09Z</time></trkpt><trkpt lat="45.35204283163369" lon="9.201578335520363"><ele>95.6</ele><time>2026-04-19T10:08:11Z</time></trkpt><trkpt lat="45.35213322603497" lon="9.201576259684762"><ele>95.0</ele><time>2026-04-19T10:08:13Z</time></trkpt><trkpt lat="45.352222345799525" lon="9.201571354627308"><ele>95.0</ele><time>2026-04-19T10:08:15Z</time></trkpt><trkpt lat="45.35231984544762" lon="9.201572288838353"><ele>95.0</ele><time>2026-04-19T10:08:17Z</time></trkpt><trkpt lat="45.35241823140026" lon="9.201565693078757"><ele>95.0</ele><time>2026-04-19T10:08:19Z</time></trkpt><trkpt lat="45.35251863877183" lon="9.201561466975495"><ele>95.0</ele><time>2026-04-19T10:08:21Z</time></trkpt><trkpt lat="45.352619426080324" lon="9.2015573632575"><ele>95.0</ele><time>2026-04-19T10:08:23Z</time></trkpt><trkpt lat="45.35272210808114" lon="9.201540938505781"><ele>95.0</ele><time>2026-04-19T10:08:25Z</time></trkpt><trkpt lat="45.352826980488516" lon="9.201531650529496"><ele>95.0</ele><time>2026-04-19T10:08:27Z</time></trkpt><trkpt lat="45.35292837789197" lon="9.201539562571893"><ele>95.0</ele><time>2026-04-19T10:08:29Z</time></trkpt><trkpt lat="45.35303402398507" lon="9.20154937724058"><ele>95.0</ele><time>2026-04-19T10:08:31Z</time></trkpt><trkpt lat="45.35314064464065" lon="9.201548776314704"><ele>95.0</ele><time>2026-04-19T10:08:33Z</time></trkpt><trkpt lat="45.35324624830362" lon="9.201548019243086"><ele>95.0</ele><time>2026-04-19T10:08:35Z</time></trkpt><trkpt lat="45.353353134580146" lon="9.201549829882097"><ele>95.0</ele><time>2026-04-19T10:08:37Z</time></trkpt><trkpt lat="45.35346188863074" lon="9.201548747456163"><ele>95.0</ele><time>2026-04-19T10:08:39Z</time></trkpt><trkpt lat="45.35357232374978" lon="9.201550659334023"><ele>95.0</ele><time>2026-04-19T10:08:41Z</time></trkpt><trkpt lat="45.35367813985702" lon="9.201544213637185"><ele>95.0</ele><time>2026-04-19T10:08:43Z</time></trkpt><trkpt lat="45.353785090205875" lon="9.201524355406002"><ele>95.0</ele><time>2026-04-19T10:08:45Z</time></trkpt><trkpt lat="45.353890590483964" lon="9.201525637304831"><ele>95.0</ele><time>2026-04-19T10:08:47Z</time></trkpt><trkpt lat="45.35399605180685" lon="9.201526661844543"><ele>95.0</ele><time>2026-04-19T10:08:49Z</time></trkpt><trkpt lat="45.35410027624111" lon="9.201546669373135"><ele>95.0</ele><time>2026-04-19T10:08:51Z</time></trkpt><trkpt lat="45.3542053544978" lon="9.201545749859669"><ele>95.0</ele><time>2026-04-19T10:08:53Z</time></trkpt><trkpt lat="45.354310995223926" lon="9.201551349905996"><ele>95.0</ele><time>2026-04-19T10:08:55Z</time></trkpt><trkpt lat="45.35441569777288" lon="9.201554609933527"><ele>95.0</ele><time>2026-04-19T10:08:57Z</time></trkpt><trkpt lat="45.354519131842764" lon="9.201557337844859"><ele>95.0</ele><time>2026-04-19T10:08:59Z</time></trkpt><trkpt lat="45.354622327168975" lon="9.201560905748991"><ele>95.0</ele><time>2026-04-19T10:09:01Z</time></trkpt><trkpt lat="45.35472252753871" lon="9.201559487912318"><ele>95.0</ele><time>2026-04-19T10:09:03Z</time></trkpt><trkpt lat="45.354817840011805" lon="9.201559456008441"><ele>95.0</ele><time>2026-04-19T10:09:05Z</time></trkpt><trkpt lat="45.35489662312619" lon="9.201563414809018"><ele>95.0</ele><time>2026-04-19T10:09:07Z</time></trkpt><trkpt lat="45.354975778956536" lon="9.20156259341132"><ele>95.0</ele><time>2026-04-19T10:09:10Z</time></trkpt><trkpt lat="45.35505541112008" lon="9.201561747895363"><ele>95.0</ele><time>2026-04-19T10:09:13Z</time></trkpt><trkpt lat="45.355135280399814" lon="9.201564746775022"><ele>95.0</ele><time>2026-04-19T10:09:15Z</time></trkpt><trkpt lat="45.35522322398819" lon="9.2015679954431"><ele>95.0</ele><time>2026-04-19T10:09:17Z</time></trkpt><trkpt lat="45.35531351751408" lon="9.201589259595611"><ele>95.0</ele><time>2026-04-19T10:09:19Z</time></trkpt><trkpt lat="45.3554110593216" lon="9.20158848061977"><ele>95.0</ele><time>2026-04-19T10:09:21Z</time></trkpt><trkpt lat="45.355512837803744" lon="9.201592820445526"><ele>95.0</ele><time>2026-04-19T10:09:23Z</time></trkpt><trkpt lat="45.35561812263847" lon="9.201593436199872"><ele>95.0</ele><time>2026-04-19T10:09:25Z</time></trkpt><trkpt lat="45.355724442524654" lon="9.201591431937004"><ele>95.0</ele><time>2026-04-19T10:09:27Z</time></trkpt><trkpt lat="45.3558341301662" lon="9.201595327985121"><ele>95.2</ele><time>2026-04-19T10:09:28.999Z</time></trkpt><trkpt lat="45.35593944856911" lon="9.201588529437114"><ele>95.4</ele><time>2026-04-19T10:09:30.999Z</time></trkpt><trkpt lat="45.35604527438549" lon="9.201586894383368"><ele>95.6</ele><time>2026-04-19T10:09:32.999Z</time></trkpt><trkpt lat="45.35614866980948" lon="9.20158334413179"><ele>95.8</ele><time>2026-04-19T10:09:34.999Z</time></trkpt><trkpt lat="45.356255354015985" lon="9.201582819892355"><ele>96.0</ele><time>2026-04-19T10:09:36.999Z</time></trkpt><trkpt lat="45.35636056670409" lon="9.201592913645458"><ele>96.19999999999999</ele><time>2026-04-19T10:09:38.999Z</time></trkpt><trkpt lat="45.35646517189984" lon="9.201586319621187"><ele>96.39999999999999</ele><time>2026-04-19T10:09:40.999Z</time></trkpt><trkpt lat="45.35657362592823" lon="9.20156704289289"><ele>96.6</ele><time>2026-04-19T10:09:42.999Z</time></trkpt><trkpt lat="45.35667938999243" lon="9.201577931704621"><ele>96.8</ele><time>2026-04-19T10:09:44.999Z</time></trkpt><trkpt lat="45.356786470954646" lon="9.201570032404526"><ele>97.0</ele><time>2026-04-19T10:09:47Z</time></trkpt><trkpt lat="45.356895340851544" lon="9.201566182909387"><ele>97.0</ele><time>2026-04-19T10:09:49Z</time></trkpt><trkpt lat="45.35700710923497" lon="9.201545120827765"><ele>97.0</ele><time>2026-04-19T10:09:51Z</time></trkpt><trkpt lat="45.35712275981863" lon="9.201531543476978"><ele>97.0</ele><time>2026-04-19T10:09:53Z</time></trkpt><trkpt lat="45.35723426000443" lon="9.201507611879931"><ele>97.0</ele><time>2026-04-19T10:09:55Z</time></trkpt><trkpt lat="45.35734495601722" lon="9.201497090797089"><ele>96.39999999999999</ele><time>2026-04-19T10:09:57Z</time></trkpt><trkpt lat="45.357457144869564" lon="9.201499368919578"><ele>95.8</ele><time>2026-04-19T10:09:59Z</time></trkpt><trkpt lat="45.357571361040925" lon="9.201498446667753"><ele>95.2</ele><time>2026-04-19T10:10:01Z</time></trkpt><trkpt lat="45.357681159825596" lon="9.20150366913377"><ele>94.6</ele><time>2026-04-19T10:10:03Z</time></trkpt><trkpt lat="45.35779129036931" lon="9.201531351119238"><ele>94.0</ele><time>2026-04-19T10:10:05Z</time></trkpt><trkpt lat="45.357900890668304" lon="9.201581110734777"><ele>94.0</ele><time>2026-04-19T10:10:07Z</time></trkpt><trkpt lat="45.35800559506355" lon="9.201645037992627"><ele>94.0</ele><time>2026-04-19T10:10:09Z</time></trkpt><trkpt lat="45.35810463437955" lon="9.201720496316954"><ele>94.0</ele><time>2026-04-19T10:10:11Z</time></trkpt><trkpt lat="45.358200369235064" lon="9.201807842180962"><ele>94.0</ele><time>2026-04-19T10:10:13Z</time></trkpt><trkpt lat="45.35829723547739" lon="9.201897694697877"><ele>92.80000000000001</ele><time>2026-04-19T10:10:15Z</time></trkpt><trkpt lat="45.35835415389033" lon="9.201938403873605"><ele>91.60000000000001</ele><time>2026-04-19T10:10:16Z</time></trkpt><trkpt lat="45.35844892440897" lon="9.202025384157286"><ele>90.4</ele><time>2026-04-19T10:10:18Z</time></trkpt><trkpt lat="45.358537536390315" lon="9.202095826588144"><ele>89.2</ele><time>2026-04-19T10:10:20Z</time></trkpt><trkpt lat="45.358601307048104" lon="9.202202135503615"><ele>88.0</ele><time>2026-04-19T10:10:22Z</time></trkpt><trkpt lat="45.35867210058637" lon="9.202302473507501"><ele>88.0</ele><time>2026-04-19T10:10:24Z</time></trkpt><trkpt lat="45.35876021403096" lon="9.202404125755184"><ele>88.0</ele><time>2026-04-19T10:10:26Z</time></trkpt><trkpt lat="45.35885097906142" lon="9.202510134236654"><ele>88.0</ele><time>2026-04-19T10:10:28Z</time></trkpt><trkpt lat="45.35894783384252" lon="9.202604458340492"><ele>88.0</ele><time>2026-04-19T10:10:30Z</time></trkpt><trkpt lat="45.35903356687333" lon="9.202685626034002"><ele>88.2</ele><time>2026-04-19T10:10:32Z</time></trkpt><trkpt lat="45.35911516204814" lon="9.202768515045115"><ele>88.4</ele><time>2026-04-19T10:10:34Z</time></trkpt><trkpt lat="45.35919620777084" lon="9.202841081208545"><ele>88.60000000000001</ele><time>2026-04-19T10:10:36Z</time></trkpt><trkpt lat="45.35927654277514" lon="9.202920116118225"><ele>88.80000000000001</ele><time>2026-04-19T10:10:38Z</time></trkpt><trkpt lat="45.35936486344502" lon="9.202985170151287"><ele>89.0</ele><time>2026-04-19T10:10:40Z</time></trkpt><trkpt lat="45.35945318103399" lon="9.203047835124666"><ele>89.0</ele><time>2026-04-19T10:10:42Z</time></trkpt><trkpt lat="45.359534704416546" lon="9.2031330372088"><ele>89.0</ele><time>2026-04-19T10:10:44Z</time></trkpt><trkpt lat="45.35961803910544" lon="9.203232280374735"><ele>89.0</ele><time>2026-04-19T10:10:46Z</time></trkpt><trkpt lat="45.359705994694345" lon="9.203306908178284"><ele>89.0</ele><time>2026-04-19T10:10:48Z</time></trkpt><trkpt lat="45.35978674797757" lon="9.203392889656696"><ele>89.0</ele><time>2026-04-19T10:10:50Z</time></trkpt><trkpt lat="45.35986717902336" lon="9.203494904644188"><ele>89.25</ele><time>2026-04-19T10:10:52Z</time></trkpt><trkpt lat="45.35996764960453" lon="9.203570049315607"><ele>89.5</ele><time>2026-04-19T10:10:54Z</time></trkpt><trkpt lat="45.360051105063164" lon="9.203694656784704"><ele>89.75</ele><time>2026-04-19T10:10:56Z</time></trkpt><trkpt lat="45.36014087130954" lon="9.203812378475035"><ele>90.0</ele><time>2026-04-19T10:10:58Z</time></trkpt><trkpt lat="45.36023503262051" lon="9.20392616258862"><ele>90.0</ele><time>2026-04-19T10:11:00Z</time></trkpt><trkpt lat="45.36032860131788" lon="9.204045267826016"><ele>90.0</ele><time>2026-04-19T10:11:02Z</time></trkpt><trkpt lat="45.36042100901743" lon="9.204161823455202"><ele>90.0</ele><time>2026-04-19T10:11:04Z</time></trkpt><trkpt lat="45.360511029929135" lon="9.204281920448539"><ele>90.0</ele><time>2026-04-19T10:11:06Z</time></trkpt><trkpt lat="45.36058819288354" lon="9.20441688467169"><ele>90.25</ele><time>2026-04-19T10:11:08Z</time></trkpt><trkpt lat="45.36066376844243" lon="9.204551095715306"><ele>90.5</ele><time>2026-04-19T10:11:10Z</time></trkpt><trkpt lat="45.3607317913165" lon="9.204691916750209"><ele>90.75</ele><time>2026-04-19T10:11:12Z</time></trkpt><trkpt lat="45.360789868806826" lon="9.204840107734933"><ele>91.0</ele><time>2026-04-19T10:11:14Z</time></trkpt><trkpt lat="45.36084415048753" lon="9.204988618967429"><ele>91.25</ele><time>2026-04-19T10:11:16Z</time></trkpt><trkpt lat="45.36089734777487" lon="9.205137896377932"><ele>91.5</ele><time>2026-04-19T10:11:18Z</time></trkpt><trkpt lat="45.360947937111646" lon="9.205284586382255"><ele>91.75</ele><time>2026-04-19T10:11:20Z</time></trkpt><trkpt lat="45.36100483687469" lon="9.205428639344198"><ele>92.0</ele><time>2026-04-19T10:11:22Z</time></trkpt><trkpt lat="45.36106495275765" lon="9.205573446972863"><ele>92.5</ele><time>2026-04-19T10:11:24Z</time></trkpt><trkpt lat="45.36113971991245" lon="9.205707771093845"><ele>93.0</ele><time>2026-04-19T10:11:26Z</time></trkpt><trkpt lat="45.3612171194484" lon="9.205830741621357"><ele>93.5</ele><time>2026-04-19T10:11:28Z</time></trkpt><trkpt lat="45.36130014655462" lon="9.205942786340414"><ele>94.0</ele><time>2026-04-19T10:11:30Z</time></trkpt><trkpt lat="45.361393116659585" lon="9.206051566614217"><ele>94.2</ele><time>2026-04-19T10:11:32Z</time></trkpt><trkpt lat="45.36148191497665" lon="9.2061405108542"><ele>94.4</ele><time>2026-04-19T10:11:34Z</time></trkpt><trkpt lat="45.36157231587907" lon="9.20624245736063"><ele>94.6</ele><time>2026-04-19T10:11:36Z</time></trkpt><trkpt lat="45.36166030156364" lon="9.206335067637283"><ele>94.8</ele><time>2026-04-19T10:11:38Z</time></trkpt><trkpt lat="45.36174534862371" lon="9.20642216822139"><ele>95.0</ele><time>2026-04-19T10:11:40Z</time></trkpt><trkpt lat="45.3618184270309" lon="9.206508084491627"><ele>95.14285714285714</ele><time>2026-04-19T10:11:42Z</time></trkpt><trkpt lat="45.36186182172295" lon="9.206586018092016"><ele>95.28571428571429</ele><time>2026-04-19T10:11:44Z</time></trkpt><trkpt lat="45.36183755039103" lon="9.206669225171034"><ele>95.42857142857142</ele><time>2026-04-19T10:11:47Z</time></trkpt><trkpt lat="45.36177739348377" lon="9.206712619495745"><ele>95.57142857142857</ele><time>2026-04-19T10:11:51Z</time></trkpt><trkpt lat="45.361715534768436" lon="9.206731678034847"><ele>95.71428571428571</ele><time>2026-04-19T10:11:54Z</time></trkpt><trkpt lat="45.36164709155203" lon="9.206782419375017"><ele>95.85714285714285</ele><time>2026-04-19T10:11:59Z</time></trkpt><trkpt lat="45.36158585976684" lon="9.206833183825706"><ele>96.0</ele><time>2026-04-19T10:12:04Z</time></trkpt><trkpt lat="45.36152256760234" lon="9.206842889266284"><ele>96.0</ele><time>2026-04-19T10:12:07Z</time></trkpt><trkpt lat="45.361437974663815" lon="9.206909545190387"><ele>96.0</ele><time>2026-04-19T10:12:10Z</time></trkpt><trkpt lat="45.36137366483464" lon="9.206957474010462"><ele>96.0</ele><time>2026-04-19T10:12:12Z</time></trkpt><trkpt lat="45.361318169328" lon="9.207017667440844"><ele>96.0</ele><time>2026-04-19T10:12:14Z</time></trkpt><trkpt lat="45.361246922336655" lon="9.207074345327166"><ele>96.0</ele><time>2026-04-19T10:12:16Z</time></trkpt><trkpt lat="45.3611771103082" lon="9.20712585719135"><ele>96.0</ele><time>2026-04-19T10:12:18Z</time></trkpt><trkpt lat="45.36110810396915" lon="9.207187102289963"><ele>96.0</ele><time>2026-04-19T10:12:20Z</time></trkpt><trkpt lat="45.361044755426654" lon="9.207243696958395"><ele>96.0</ele><time>2026-04-19T10:12:22Z</time></trkpt><trkpt lat="45.36097975437634" lon="9.207313281005844"><ele>96.0</ele><time>2026-04-19T10:12:24Z</time></trkpt><trkpt lat="45.36091294778018" lon="9.207374275772473"><ele>96.0</ele><time>2026-04-19T10:12:26Z</time></trkpt><trkpt lat="45.36084485308606" lon="9.207438982879067"><ele>96.0</ele><time>2026-04-19T10:12:28Z</time></trkpt><trkpt lat="45.360780048084905" lon="9.207510134675701"><ele>96.0</ele><time>2026-04-19T10:12:30Z</time></trkpt><trkpt lat="45.36071068666843" lon="9.207575252013735"><ele>96.0</ele><time>2026-04-19T10:12:32Z</time></trkpt><trkpt lat="45.36064021665185" lon="9.2076323042306"><ele>96.0</ele><time>2026-04-19T10:12:34Z</time></trkpt><trkpt lat="45.36057099218345" lon="9.207705199387112"><ele>96.0</ele><time>2026-04-19T10:12:36Z</time></trkpt><trkpt lat="45.360501139654424" lon="9.207789009813615"><ele>96.0</ele><time>2026-04-19T10:12:38Z</time></trkpt><trkpt lat="45.360438953052544" lon="9.20788701228049"><ele>96.0</ele><time>2026-04-19T10:12:40Z</time></trkpt><trkpt lat="45.36039374157528" lon="9.208009391669755"><ele>96.0</ele><time>2026-04-19T10:12:42Z</time></trkpt><trkpt lat="45.36038392485364" lon="9.20815200058799"><ele>96.0</ele><time>2026-04-19T10:12:44Z</time></trkpt><trkpt lat="45.36040926040088" lon="9.208298124870867"><ele>96.0</ele><time>2026-04-19T10:12:46Z</time></trkpt><trkpt lat="45.36044677957945" lon="9.208432613157278"><ele>96.0</ele><time>2026-04-19T10:12:48Z</time></trkpt><trkpt lat="45.360488271346874" lon="9.208558034423502"><ele>96.0</ele><time>2026-04-19T10:12:50Z</time></trkpt><trkpt lat="45.36052738075466" lon="9.208686175713547"><ele>96.0</ele><time>2026-04-19T10:12:52Z</time></trkpt><trkpt lat="45.360561215759994" lon="9.208812540157382"><ele>96.0</ele><time>2026-04-19T10:12:54Z</time></trkpt><trkpt lat="45.36060245392137" lon="9.208940234110123"><ele>96.0</ele><time>2026-04-19T10:12:56Z</time></trkpt><trkpt lat="45.36065068958164" lon="9.20906840923945"><ele>96.0</ele><time>2026-04-19T10:12:58Z</time></trkpt><trkpt lat="45.360684313581444" lon="9.209185976278668"><ele>96.0</ele><time>2026-04-19T10:13:00Z</time></trkpt><trkpt lat="45.36072656971586" lon="9.20929942615301"><ele>96.0</ele><time>2026-04-19T10:13:02Z</time></trkpt><trkpt lat="45.360769659163786" lon="9.209417401705283"><ele>96.0</ele><time>2026-04-19T10:13:04Z</time></trkpt><trkpt lat="45.360810771281095" lon="9.209539610865644"><ele>96.0</ele><time>2026-04-19T10:13:06Z</time></trkpt><trkpt lat="45.36085309439447" lon="9.20967007926464"><ele>96.0</ele><time>2026-04-19T10:13:08Z</time></trkpt><trkpt lat="45.360897814646364" lon="9.20979821594785"><ele>96.0</ele><time>2026-04-19T10:13:10Z</time></trkpt><trkpt lat="45.36094425510681" lon="9.20992785373511"><ele>96.0</ele><time>2026-04-19T10:13:12Z</time></trkpt><trkpt lat="45.360989290315445" lon="9.210056671501333"><ele>96.19999999999999</ele><time>2026-04-19T10:13:14Z</time></trkpt><trkpt lat="45.36103251354563" lon="9.210179482730647"><ele>96.39999999999999</ele><time>2026-04-19T10:13:16Z</time></trkpt><trkpt lat="45.36106917299535" lon="9.210310397668188"><ele>96.6</ele><time>2026-04-19T10:13:18Z</time></trkpt><trkpt lat="45.36110877328513" lon="9.210439315135755"><ele>96.8</ele><time>2026-04-19T10:13:20Z</time></trkpt><trkpt lat="45.36115340757929" lon="9.210567320612746"><ele>97.0</ele><time>2026-04-19T10:13:22Z</time></trkpt><trkpt lat="45.361196401860695" lon="9.210697117794993"><ele>97.16666666666667</ele><time>2026-04-19T10:13:24Z</time></trkpt><trkpt lat="45.36124264675112" lon="9.210821583808322"><ele>97.33333333333334</ele><time>2026-04-19T10:13:26Z</time></trkpt><trkpt lat="45.36127888754599" lon="9.210953366926727"><ele>97.5</ele><time>2026-04-19T10:13:28Z</time></trkpt><trkpt lat="45.36129960688799" lon="9.211072640115216"><ele>97.66666666666666</ele><time>2026-04-19T10:13:30Z</time></trkpt><trkpt lat="45.361274677670245" lon="9.211167451019795"><ele>97.83333333333333</ele><time>2026-04-19T10:13:56Z</time></trkpt><trkpt lat="45.361328668514034" lon="9.211214639068668"><ele>98.0</ele><time>2026-04-19T10:14:00Z</time></trkpt><trkpt lat="45.361399442382805" lon="9.211199847941518"><ele>98.4</ele><time>2026-04-19T10:14:02Z</time></trkpt><trkpt lat="45.36147982012267" lon="9.211167574085296"><ele>98.80000000000001</ele><time>2026-04-19T10:14:04Z</time></trkpt><trkpt lat="45.3615790094261" lon="9.211130314555719"><ele>99.2</ele><time>2026-04-19T10:14:06Z</time></trkpt><trkpt lat="45.361669003761655" lon="9.211094295604331"><ele>99.6</ele><time>2026-04-19T10:14:08Z</time></trkpt><trkpt lat="45.36176561510689" lon="9.211054134578621"><ele>100.0</ele><time>2026-04-19T10:14:10Z</time></trkpt><trkpt lat="45.361878828068185" lon="9.211004340956656"><ele>100.0</ele><time>2026-04-19T10:14:12Z</time></trkpt><trkpt lat="45.361947184647384" lon="9.210973883187213"><ele>100.0</ele><time>2026-04-19T10:14:13Z</time></trkpt><trkpt lat="45.36204589931875" lon="9.210930882751049"><ele>100.0</ele><time>2026-04-19T10:14:15Z</time></trkpt><trkpt lat="45.362145715796416" lon="9.210892222594651"><ele>100.0</ele><time>2026-04-19T10:14:17Z</time></trkpt><trkpt lat="45.362245750810445" lon="9.210853119134727"><ele>100.0</ele><time>2026-04-19T10:14:19Z</time></trkpt><trkpt lat="45.36234546510728" lon="9.210819099719535"><ele>99.2</ele><time>2026-04-19T10:14:21Z</time></trkpt><trkpt lat="45.36244532562149" lon="9.210797278002259"><ele>98.4</ele><time>2026-04-19T10:14:23Z</time></trkpt><trkpt lat="45.362546582948504" lon="9.210782897671894"><ele>97.6</ele><time>2026-04-19T10:14:25Z</time></trkpt><trkpt lat="45.36264555588377" lon="9.210797262775596"><ele>96.8</ele><time>2026-04-19T10:14:27Z</time></trkpt><trkpt lat="45.362733350157704" lon="9.210857331315394"><ele>96.0</ele><time>2026-04-19T10:14:29Z</time></trkpt><trkpt lat="45.36279930326745" lon="9.210953891964477"><ele>96.0</ele><time>2026-04-19T10:14:31Z</time></trkpt><trkpt lat="45.36285510951664" lon="9.211068544595403"><ele>96.0</ele><time>2026-04-19T10:14:33Z</time></trkpt><trkpt lat="45.362870369948126" lon="9.21120641236626"><ele>96.0</ele><time>2026-04-19T10:14:35Z</time></trkpt><trkpt lat="45.36288296173348" lon="9.211337478862141"><ele>96.0</ele><time>2026-04-19T10:14:37Z</time></trkpt><trkpt lat="45.36290035949531" lon="9.211468092718357"><ele>96.0</ele><time>2026-04-19T10:14:39Z</time></trkpt><trkpt lat="45.36292341395281" lon="9.211595905488075"><ele>96.4</ele><time>2026-04-19T10:14:41Z</time></trkpt><trkpt lat="45.362938673453726" lon="9.21173030340311"><ele>96.8</ele><time>2026-04-19T10:14:43Z</time></trkpt><trkpt lat="45.362956977281414" lon="9.211860458063176"><ele>97.2</ele><time>2026-04-19T10:14:45Z</time></trkpt><trkpt lat="45.36297463276124" lon="9.21199170624584"><ele>97.60000000000001</ele><time>2026-04-19T10:14:47Z</time></trkpt><trkpt lat="45.362995672622965" lon="9.212120245701636"><ele>98.0</ele><time>2026-04-19T10:14:49Z</time></trkpt><trkpt lat="45.363013309944186" lon="9.212246587349966"><ele>97.4</ele><time>2026-04-19T10:14:51Z</time></trkpt><trkpt lat="45.363041135376065" lon="9.21237182208643"><ele>96.80000000000001</ele><time>2026-04-19T10:14:53Z</time></trkpt><trkpt lat="45.36304888987489" lon="9.212503139307303"><ele>96.2</ele><time>2026-04-19T10:14:55Z</time></trkpt><trkpt lat="45.36306492410939" lon="9.212633482644287"><ele>95.6</ele><time>2026-04-19T10:14:57Z</time></trkpt><trkpt lat="45.363085384243604" lon="9.212756368709401"><ele>95.0</ele><time>2026-04-19T10:14:59Z</time></trkpt><trkpt lat="45.36310567195335" lon="9.212879047165718"><ele>95.0</ele><time>2026-04-19T10:15:01Z</time></trkpt><trkpt lat="45.363123206079315" lon="9.213003793009456"><ele>95.0</ele><time>2026-04-19T10:15:03Z</time></trkpt><trkpt lat="45.36314222478415" lon="9.213131776903264"><ele>95.0</ele><time>2026-04-19T10:15:05Z</time></trkpt><trkpt lat="45.363162716219335" lon="9.213258126791679"><ele>95.0</ele><time>2026-04-19T10:15:07Z</time></trkpt><trkpt lat="45.363180815738474" lon="9.213384112104928"><ele>95.0</ele><time>2026-04-19T10:15:09Z</time></trkpt><trkpt lat="45.36319510631112" lon="9.213510492332475"><ele>94.83333333333334</ele><time>2026-04-19T10:15:11Z</time></trkpt><trkpt lat="45.3632123238404" lon="9.213634388782586"><ele>94.66666666666667</ele><time>2026-04-19T10:15:13Z</time></trkpt><trkpt lat="45.36322783601001" lon="9.213760695885512"><ele>94.5</ele><time>2026-04-19T10:15:15Z</time></trkpt><trkpt lat="45.3632472046288" lon="9.213886128010978"><ele>94.33333333333333</ele><time>2026-04-19T10:15:17Z</time></trkpt><trkpt lat="45.36326330199749" lon="9.214010565832828"><ele>94.16666666666666</ele><time>2026-04-19T10:15:19Z</time></trkpt><trkpt lat="45.363277367249104" lon="9.214136127603128"><ele>94.0</ele><time>2026-04-19T10:15:21Z</time></trkpt><trkpt lat="45.36329355023839" lon="9.214256203176609"><ele>93.83333333333333</ele><time>2026-04-19T10:15:23Z</time></trkpt><trkpt lat="45.363310568933976" lon="9.214367220574816"><ele>93.66666666666666</ele><time>2026-04-19T10:15:25Z</time></trkpt><trkpt lat="45.363321038118485" lon="9.214479112624753"><ele>93.5</ele><time>2026-04-19T10:15:27Z</time></trkpt><trkpt lat="45.363339304139195" lon="9.214588132862632"><ele>93.33333333333333</ele><time>2026-04-19T10:15:29Z</time></trkpt><trkpt lat="45.36336251199857" lon="9.214697070356635"><ele>93.16666666666667</ele><time>2026-04-19T10:15:31Z</time></trkpt><trkpt lat="45.36337586354619" lon="9.214818660220242"><ele>93.0</ele><time>2026-04-19T10:15:33.001Z</time></trkpt><trkpt lat="45.36339138500569" lon="9.214946339045687"><ele>93.4</ele><time>2026-04-19T10:15:35.001Z</time></trkpt><trkpt lat="45.36340782596959" lon="9.215072880060962"><ele>93.80000000000001</ele><time>2026-04-19T10:15:37.001Z</time></trkpt><trkpt lat="45.36342526112513" lon="9.215197611067849"><ele>94.2</ele><time>2026-04-19T10:15:39.001Z</time></trkpt><trkpt lat="45.36344477490881" lon="9.215322106423645"><ele>94.6</ele><time>2026-04-19T10:15:41.001Z</time></trkpt><trkpt lat="45.36346476859953" lon="9.21544700550209"><ele>95.0</ele><time>2026-04-19T10:15:43.001Z</time></trkpt><trkpt lat="45.36347897858828" lon="9.215574456959665"><ele>95.0</ele><time>2026-04-19T10:15:45.001Z</time></trkpt><trkpt lat="45.3634962219788" lon="9.215701784196222"><ele>95.0</ele><time>2026-04-19T10:15:47Z</time></trkpt><trkpt lat="45.36351420474796" lon="9.215828017729278"><ele>95.0</ele><time>2026-04-19T10:15:49Z</time></trkpt><trkpt lat="45.3635337372586" lon="9.215952477365562"><ele>95.0</ele><time>2026-04-19T10:15:51Z</time></trkpt><trkpt lat="45.36355678403883" lon="9.216074469307198"><ele>95.0</ele><time>2026-04-19T10:15:53Z</time></trkpt><trkpt lat="45.36357672637181" lon="9.2161991473459"><ele>95.0</ele><time>2026-04-19T10:15:55Z</time></trkpt><trkpt lat="45.36359817999823" lon="9.21632189255884"><ele>95.0</ele><time>2026-04-19T10:15:57Z</time></trkpt><trkpt lat="45.36363342590649" lon="9.216442076961412"><ele>95.0</ele><time>2026-04-19T10:15:59Z</time></trkpt><trkpt lat="45.363667741457114" lon="9.216560141535618"><ele>95.0</ele><time>2026-04-19T10:16:01Z</time></trkpt><trkpt lat="45.36371434507581" lon="9.216670174967195"><ele>95.0</ele><time>2026-04-19T10:16:03Z</time></trkpt><trkpt lat="45.36375130089913" lon="9.216785439739569"><ele>95.0</ele><time>2026-04-19T10:16:05Z</time></trkpt><trkpt lat="45.36380095945213" lon="9.216893031688137"><ele>95.2</ele><time>2026-04-19T10:16:07Z</time></trkpt><trkpt lat="45.36385114398482" lon="9.216999956741457"><ele>95.4</ele><time>2026-04-19T10:16:09Z</time></trkpt><trkpt lat="45.36390460952805" lon="9.217104515004241"><ele>95.6</ele><time>2026-04-19T10:16:11Z</time></trkpt><trkpt lat="45.363962619263376" lon="9.217205552402591"><ele>95.8</ele><time>2026-04-19T10:16:13Z</time></trkpt><trkpt lat="45.364014768052655" lon="9.217305450682993"><ele>96.0</ele><time>2026-04-19T10:16:15Z</time></trkpt><trkpt lat="45.36407287297011" lon="9.217408380140181"><ele>95.5</ele><time>2026-04-19T10:16:17Z</time></trkpt><trkpt lat="45.36412475711216" lon="9.217512892736726"><ele>95.0</ele><time>2026-04-19T10:16:19Z</time></trkpt><trkpt lat="45.36417910120497" lon="9.217613752055595"><ele>94.5</ele><time>2026-04-19T10:16:21Z</time></trkpt><trkpt lat="45.364231884953675" lon="9.217715710870875"><ele>94.0</ele><time>2026-04-19T10:16:23Z</time></trkpt><trkpt lat="45.36428652436119" lon="9.217814967688348"><ele>93.5</ele><time>2026-04-19T10:16:25Z</time></trkpt><trkpt lat="45.364338361942416" lon="9.217919524963238"><ele>93.0</ele><time>2026-04-19T10:16:27Z</time></trkpt><trkpt lat="45.364394932061494" lon="9.21802110003851"><ele>93.0</ele><time>2026-04-19T10:16:29Z</time></trkpt><trkpt lat="45.36445209138062" lon="9.218123566968837"><ele>93.0</ele><time>2026-04-19T10:16:31Z</time></trkpt><trkpt lat="45.36449953025498" lon="9.218234358122695"><ele>93.0</ele><time>2026-04-19T10:16:33Z</time></trkpt><trkpt lat="45.36449803289868" lon="9.218367835111248"><ele>93.0</ele><time>2026-04-19T10:16:35Z</time></trkpt><trkpt lat="45.36447819510502" lon="9.218502313171934"><ele>93.0</ele><time>2026-04-19T10:16:37Z</time></trkpt><trkpt lat="45.36448634586828" lon="9.218640874914051"><ele>93.0</ele><time>2026-04-19T10:16:39Z</time></trkpt><trkpt lat="45.36454584247968" lon="9.218756991209677"><ele>93.0</ele><time>2026-04-19T10:16:41Z</time></trkpt><trkpt lat="45.36463295820629" lon="9.21881706260645"><ele>93.0</ele><time>2026-04-19T10:16:43Z</time></trkpt><trkpt lat="45.364727526658754" lon="9.21881248471313"><ele>93.0</ele><time>2026-04-19T10:16:45Z</time></trkpt><trkpt lat="45.364808426089546" lon="9.21873916997943"><ele>93.0</ele><time>2026-04-19T10:16:47Z</time></trkpt><trkpt lat="45.364864240136875" lon="9.218629644121615"><ele>93.0</ele><time>2026-04-19T10:16:49Z</time></trkpt><trkpt lat="45.36491712220511" lon="9.218515057387615"><ele>93.0</ele><time>2026-04-19T10:16:51Z</time></trkpt><trkpt lat="45.36499683466563" lon="9.21843645208024"><ele>93.0</ele><time>2026-04-19T10:16:53Z</time></trkpt><trkpt lat="45.365088478463605" lon="9.218387203995213"><ele>93.0</ele><time>2026-04-19T10:16:55Z</time></trkpt><trkpt lat="45.36517889794269" lon="9.218334398983853"><ele>93.0</ele><time>2026-04-19T10:16:57Z</time></trkpt><trkpt lat="45.36527334242856" lon="9.21828189586148"><ele>93.0</ele><time>2026-04-19T10:16:59Z</time></trkpt><trkpt lat="45.36536656981783" lon="9.218227975579595"><ele>93.0</ele><time>2026-04-19T10:17:01Z</time></trkpt><trkpt lat="45.36546138835333" lon="9.218175585321413"><ele>93.0</ele><time>2026-04-19T10:17:03Z</time></trkpt><trkpt lat="45.36555555119838" lon="9.218120242075841"><ele>93.0</ele><time>2026-04-19T10:17:05Z</time></trkpt><trkpt lat="45.36564828344842" lon="9.218064089159492"><ele>93.0</ele><time>2026-04-19T10:17:07Z</time></trkpt><trkpt lat="45.3657422160363" lon="9.218010524415423"><ele>93.4</ele><time>2026-04-19T10:17:09Z</time></trkpt><trkpt lat="45.36583618583231" lon="9.217959128648552"><ele>93.80000000000001</ele><time>2026-04-19T10:17:11Z</time></trkpt><trkpt lat="45.36592911172396" lon="9.21790061080266"><ele>94.2</ele><time>2026-04-19T10:17:13Z</time></trkpt><trkpt lat="45.366024738802416" lon="9.21784652290521"><ele>94.6</ele><time>2026-04-19T10:17:15Z</time></trkpt><trkpt lat="45.36611858666138" lon="9.217790778911535"><ele>95.0</ele><time>2026-04-19T10:17:17Z</time></trkpt><trkpt lat="45.36621215366795" lon="9.217735755341767"><ele>95.0</ele><time>2026-04-19T10:17:19Z</time></trkpt><trkpt lat="45.366304131616374" lon="9.217680534247288"><ele>95.0</ele><time>2026-04-19T10:17:21Z</time></trkpt><trkpt lat="45.366393627189154" lon="9.217616646864911"><ele>95.0</ele><time>2026-04-19T10:17:23Z</time></trkpt><trkpt lat="45.366483523230066" lon="9.217559959557573"><ele>95.0</ele><time>2026-04-19T10:17:25Z</time></trkpt><trkpt lat="45.36657742394131" lon="9.217508967929138"><ele>95.0</ele><time>2026-04-19T10:17:27Z</time></trkpt><trkpt lat="45.36665763015114" lon="9.217424601763478"><ele>95.0</ele><time>2026-04-19T10:17:29Z</time></trkpt><trkpt lat="45.36673889716732" lon="9.217342348783077"><ele>95.0</ele><time>2026-04-19T10:17:31Z</time></trkpt><trkpt lat="45.36681968350968" lon="9.217258881287949"><ele>95.0</ele><time>2026-04-19T10:17:33Z</time></trkpt><trkpt lat="45.36690068931711" lon="9.217179243776595"><ele>95.0</ele><time>2026-04-19T10:17:35Z</time></trkpt><trkpt lat="45.36698095358607" lon="9.217097376825578"><ele>95.0</ele><time>2026-04-19T10:17:37.001Z</time></trkpt><trkpt lat="45.36706344839634" lon="9.217011520303561"><ele>94.8</ele><time>2026-04-19T10:17:39.001Z</time></trkpt><trkpt lat="45.367143693879974" lon="9.21692446262798"><ele>94.6</ele><time>2026-04-19T10:17:41.001Z</time></trkpt><trkpt lat="45.367222344435106" lon="9.216837326174064"><ele>94.4</ele><time>2026-04-19T10:17:43.001Z</time></trkpt><trkpt lat="45.36730168761049" lon="9.216753431424872"><ele>94.2</ele><time>2026-04-19T10:17:45.001Z</time></trkpt><trkpt lat="45.36737784704773" lon="9.216664306025882"><ele>94.0</ele><time>2026-04-19T10:17:47.001Z</time></trkpt><trkpt lat="45.36745957093438" lon="9.21658074790732"><ele>94.0</ele><time>2026-04-19T10:17:49.001Z</time></trkpt><trkpt lat="45.36753922222475" lon="9.216493264596743"><ele>94.0</ele><time>2026-04-19T10:17:51.001Z</time></trkpt><trkpt lat="45.367624935484635" lon="9.216420090664968"><ele>94.0</ele><time>2026-04-19T10:17:53Z</time></trkpt><trkpt lat="45.3677061325011" lon="9.216339789401829"><ele>94.0</ele><time>2026-04-19T10:17:55Z</time></trkpt><trkpt lat="45.36778979603384" lon="9.216259705766875"><ele>94.0</ele><time>2026-04-19T10:17:57Z</time></trkpt><trkpt lat="45.367870770719" lon="9.216177301274714"><ele>94.0</ele><time>2026-04-19T10:17:59Z</time></trkpt><trkpt lat="45.367958264393714" lon="9.21610680442831"><ele>94.0</ele><time>2026-04-19T10:18:01Z</time></trkpt><trkpt lat="45.368036932919885" lon="9.216012331243482"><ele>94.0</ele><time>2026-04-19T10:18:03Z</time></trkpt><trkpt lat="45.36812530353949" lon="9.215937548263295"><ele>94.0</ele><time>2026-04-19T10:18:05Z</time></trkpt><trkpt lat="45.3682073384457" lon="9.21585155405731"><ele>94.0</ele><time>2026-04-19T10:18:07Z</time></trkpt><trkpt lat="45.36828094508972" lon="9.215755904314092"><ele>94.6</ele><time>2026-04-19T10:18:09Z</time></trkpt><trkpt lat="45.36835559063113" lon="9.215661907593919"><ele>95.2</ele><time>2026-04-19T10:18:11Z</time></trkpt><trkpt lat="45.3684150792947" lon="9.215545216492224"><ele>95.8</ele><time>2026-04-19T10:18:13Z</time></trkpt><trkpt lat="45.36847712899814" lon="9.215431036445258"><ele>96.39999999999999</ele><time>2026-04-19T10:18:15Z</time></trkpt><trkpt lat="45.36854017088438" lon="9.215318454091824"><ele>97.0</ele><time>2026-04-19T10:18:17Z</time></trkpt><trkpt lat="45.368600627212665" lon="9.215199880306406"><ele>97.0</ele><time>2026-04-19T10:18:19Z</time></trkpt><trkpt lat="45.36867111719568" lon="9.215097821407817"><ele>97.0</ele><time>2026-04-19T10:18:21Z</time></trkpt><trkpt lat="45.36875171864843" lon="9.215009734558786"><ele>97.0</ele><time>2026-04-19T10:18:23Z</time></trkpt><trkpt lat="45.368830878703434" lon="9.214923105231806"><ele>97.0</ele><time>2026-04-19T10:18:25Z</time></trkpt><trkpt lat="45.36891513196738" lon="9.21484411956631"><ele>97.0</ele><time>2026-04-19T10:18:27Z</time></trkpt><trkpt lat="45.36899772128364" lon="9.214776033606821"><ele>96.66666666666667</ele><time>2026-04-19T10:18:29Z</time></trkpt><trkpt lat="45.369081684826256" lon="9.214721127698242"><ele>96.33333333333334</ele><time>2026-04-19T10:18:31Z</time></trkpt><trkpt lat="45.369164299307066" lon="9.214683473604776"><ele>96.0</ele><time>2026-04-19T10:18:33Z</time></trkpt><trkpt lat="45.369242441708856" lon="9.214644313883662"><ele>95.66666666666667</ele><time>2026-04-19T10:18:35Z</time></trkpt><trkpt lat="45.36931586957293" lon="9.214670220451273"><ele>95.33333333333334</ele><time>2026-04-19T10:18:37Z</time></trkpt><trkpt lat="45.36937001938643" lon="9.214748645713438"><ele>95.0</ele><time>2026-04-19T10:18:39Z</time></trkpt><trkpt lat="45.36944220906312" lon="9.214797608261486"><ele>95.0</ele><time>2026-04-19T10:18:42Z</time></trkpt><trkpt lat="45.369495057303574" lon="9.214847265417035"><ele>95.0</ele><time>2026-04-19T10:18:46Z</time></trkpt><trkpt lat="45.36955721603022" lon="9.214812469051664"><ele>95.0</ele><time>2026-04-19T10:18:49Z</time></trkpt><trkpt lat="45.36959891095035" lon="9.214740851032046"><ele>95.0</ele><time>2026-04-19T10:18:52Z</time></trkpt><trkpt lat="45.36965843261154" lon="9.214647107803078"><ele>95.0</ele><time>2026-04-19T10:18:54Z</time></trkpt><trkpt lat="45.36971800959137" lon="9.214535550168353"><ele>95.0</ele><time>2026-04-19T10:18:56Z</time></trkpt><trkpt lat="45.36978469558489" lon="9.2144272062056"><ele>95.8</ele><time>2026-04-19T10:18:58Z</time></trkpt><trkpt lat="45.36987257958028" lon="9.214335526104756"><ele>96.6</ele><time>2026-04-19T10:19:00Z</time></trkpt><trkpt lat="45.369971980387035" lon="9.214267429568922"><ele>97.4</ele><time>2026-04-19T10:19:02Z</time></trkpt><trkpt lat="45.37005916230516" lon="9.21417562800776"><ele>98.2</ele><time>2026-04-19T10:19:04Z</time></trkpt><trkpt lat="45.37015137431153" lon="9.21410205013809"><ele>99.0</ele><time>2026-04-19T10:19:06Z</time></trkpt><trkpt lat="45.370242722406225" lon="9.214031173450008"><ele>99.0</ele><time>2026-04-19T10:19:08Z</time></trkpt><trkpt lat="45.37032540394386" lon="9.213997388367279"><ele>99.0</ele><time>2026-04-19T10:19:10Z</time></trkpt><trkpt lat="45.3704042658917" lon="9.213958262974474"><ele>99.0</ele><time>2026-04-19T10:19:12Z</time></trkpt><trkpt lat="45.37048229618073" lon="9.213913634277098"><ele>99.0</ele><time>2026-04-19T10:19:14Z</time></trkpt><trkpt lat="45.3705553861905" lon="9.21384776508476"><ele>99.0</ele><time>2026-04-19T10:19:16Z</time></trkpt><trkpt lat="45.37064080461198" lon="9.213800784472072"><ele>99.0</ele><time>2026-04-19T10:19:18Z</time></trkpt><trkpt lat="45.37073290146102" lon="9.213788480990324"><ele>99.4</ele><time>2026-04-19T10:19:20Z</time></trkpt><trkpt lat="45.37081275060627" lon="9.213741588102181"><ele>99.80000000000001</ele><time>2026-04-19T10:19:22Z</time></trkpt><trkpt lat="45.37088666036929" lon="9.213691268301156"><ele>100.19999999999999</ele><time>2026-04-19T10:19:24Z</time></trkpt><trkpt lat="45.370984140311684" lon="9.213680958587439"><ele>100.6</ele><time>2026-04-19T10:19:26Z</time></trkpt><trkpt lat="45.37108056362611" lon="9.213657210859829"><ele>101.0</ele><time>2026-04-19T10:19:28Z</time></trkpt><trkpt lat="45.3711681696557" lon="9.213635036304623"><ele>101.0</ele><time>2026-04-19T10:19:30Z</time></trkpt><trkpt lat="45.37125414144718" lon="9.213619770039347"><ele>101.0</ele><time>2026-04-19T10:19:32Z</time></trkpt><trkpt lat="45.37134714452458" lon="9.213601293971852"><ele>101.0</ele><time>2026-04-19T10:19:34Z</time></trkpt><trkpt lat="45.37144079702369" lon="9.213583030205442"><ele>101.0</ele><time>2026-04-19T10:19:36Z</time></trkpt><trkpt lat="45.371534253811724" lon="9.213553469722973"><ele>101.0</ele><time>2026-04-19T10:19:38Z</time></trkpt><trkpt lat="45.37161939276901" lon="9.213535151272632"><ele>100.99999999999999</ele><time>2026-04-19T10:19:40Z</time></trkpt><trkpt lat="45.371702198343336" lon="9.21354686628738"><ele>101.0</ele><time>2026-04-19T10:19:42Z</time></trkpt><trkpt lat="45.37176986386611" lon="9.213628679802126"><ele>101.0</ele><time>2026-04-19T10:19:44Z</time></trkpt><trkpt lat="45.371844677180796" lon="9.213683952743427"><ele>101.0</ele><time>2026-04-19T10:19:46Z</time></trkpt><trkpt lat="45.37192533569091" lon="9.213738741063008"><ele>100.99999999999999</ele><time>2026-04-19T10:19:48Z</time></trkpt><trkpt lat="45.37199757026765" lon="9.213803697416726"><ele>101.0</ele><time>2026-04-19T10:19:50.001Z</time></trkpt><trkpt lat="45.37203361784465" lon="9.213906455872314"><ele>100.8</ele><time>2026-04-19T10:19:52.001Z</time></trkpt><trkpt lat="45.3720393171905" lon="9.214035992615994"><ele>100.6</ele><time>2026-04-19T10:19:54.001Z</time></trkpt><trkpt lat="45.37206461308812" lon="9.214164059643153"><ele>100.4</ele><time>2026-04-19T10:19:56.001Z</time></trkpt><trkpt lat="45.37207241681054" lon="9.214297929124738"><ele>100.2</ele><time>2026-04-19T10:19:58.001Z</time></trkpt><trkpt lat="45.372087850826176" lon="9.214432523411007"><ele>100.0</ele><time>2026-04-19T10:20:00Z</time></trkpt><trkpt lat="45.372101177811466" lon="9.21456800195342"><ele>100.0</ele><time>2026-04-19T10:20:02Z</time></trkpt><trkpt lat="45.37211098309565" lon="9.21470076226384"><ele>100.0</ele><time>2026-04-19T10:20:04Z</time></trkpt><trkpt lat="45.372122255398466" lon="9.214831283322196"><ele>100.0</ele><time>2026-04-19T10:20:06Z</time></trkpt><trkpt lat="45.37214006108742" lon="9.214958601969297"><ele>100.0</ele><time>2026-04-19T10:20:08Z</time></trkpt><trkpt lat="45.37215201038564" lon="9.215090523820342"><ele>100.0</ele><time>2026-04-19T10:20:10Z</time></trkpt><trkpt lat="45.37216895144034" lon="9.215223938036406"><ele>99.8</ele><time>2026-04-19T10:20:12Z</time></trkpt><trkpt lat="45.37218190196704" lon="9.215358341190031"><ele>99.6</ele><time>2026-04-19T10:20:14Z</time></trkpt><trkpt lat="45.3721930108484" lon="9.215489093238073"><ele>99.4</ele><time>2026-04-19T10:20:16Z</time></trkpt><trkpt lat="45.3722066771986" lon="9.215619763188903"><ele>99.2</ele><time>2026-04-19T10:20:18Z</time></trkpt><trkpt lat="45.37222103353125" lon="9.21575211113499"><ele>99.0</ele><time>2026-04-19T10:20:20Z</time></trkpt><trkpt lat="45.37223288412615" lon="9.215883042081387"><ele>98.66666666666667</ele><time>2026-04-19T10:20:22Z</time></trkpt><trkpt lat="45.37224366576923" lon="9.216011870180916"><ele>98.33333333333334</ele><time>2026-04-19T10:20:24.001Z</time></trkpt><trkpt lat="45.37225469022639" lon="9.216134134226232"><ele>98.0</ele><time>2026-04-19T10:20:26.001Z</time></trkpt><trkpt lat="45.37226807050412" lon="9.216244313129726"><ele>97.66666666666667</ele><time>2026-04-19T10:20:28.001Z</time></trkpt><trkpt lat="45.37228401636629" lon="9.216349356046173"><ele>97.33333333333334</ele><time>2026-04-19T10:20:30.001Z</time></trkpt><trkpt lat="45.372293224797446" lon="9.216447689680411"><ele>97.0</ele><time>2026-04-19T10:20:32.001Z</time></trkpt><trkpt lat="45.37232965711832" lon="9.216558802732777"><ele>97.00000000000001</ele><time>2026-04-19T10:20:35.001Z</time></trkpt><trkpt lat="45.37239562630492" lon="9.216577476704757"><ele>97.0</ele><time>2026-04-19T10:20:38.001Z</time></trkpt><trkpt lat="45.37245661020096" lon="9.216649753312879"><ele>97.0</ele><time>2026-04-19T10:20:41.001Z</time></trkpt><trkpt lat="45.372524024774265" lon="9.216693435409653"><ele>97.0</ele><time>2026-04-19T10:20:43.001Z</time></trkpt><trkpt lat="45.37259841246898" lon="9.216736196495612"><ele>97.00000000000001</ele><time>2026-04-19T10:20:45.001Z</time></trkpt><trkpt lat="45.372672538408544" lon="9.2167559914074"><ele>97.0</ele><time>2026-04-19T10:20:47.001Z</time></trkpt><trkpt lat="45.37275585368926" lon="9.216785201035108"><ele>97.00000000000001</ele><time>2026-04-19T10:20:49.001Z</time></trkpt><trkpt lat="45.37283685816796" lon="9.216816322968523"><ele>97.0</ele><time>2026-04-19T10:20:51.001Z</time></trkpt><trkpt lat="45.37291541846216" lon="9.21685260803673"><ele>97.0</ele><time>2026-04-19T10:20:53.001Z</time></trkpt><trkpt lat="45.372993396204" lon="9.216886899898377"><ele>97.0</ele><time>2026-04-19T10:20:55.001Z</time></trkpt><trkpt lat="45.373061834552324" lon="9.216889841482507"><ele>97.00000000000001</ele><time>2026-04-19T10:20:57.001Z</time></trkpt><trkpt lat="45.373152724564996" lon="9.216864509654174"><ele>97.0</ele><time>2026-04-19T10:21:00.001Z</time></trkpt><trkpt lat="45.37322532143802" lon="9.216869696977717"><ele>97.0</ele><time>2026-04-19T10:21:03.001Z</time></trkpt><trkpt lat="45.37327774573259" lon="9.216940901830526"><ele>97.0</ele><time>2026-04-19T10:21:06.001Z</time></trkpt><trkpt lat="45.37328070868017" lon="9.217044277897902"><ele>97.0</ele><time>2026-04-19T10:21:08.001Z</time></trkpt><trkpt lat="45.373292445516455" lon="9.217144452964062"><ele>97.0</ele><time>2026-04-19T10:21:10.001Z</time></trkpt><trkpt lat="45.373348899278334" lon="9.217200400294528"><ele>97.0</ele><time>2026-04-19T10:21:12.001Z</time></trkpt><trkpt lat="45.373423978618774" lon="9.217287336197332"><ele>97.0</ele><time>2026-04-19T10:21:15.001Z</time></trkpt><trkpt lat="45.37346143598406" lon="9.217362710791756"><ele>97.0</ele><time>2026-04-19T10:21:17.001Z</time></trkpt><trkpt lat="45.373520105772535" lon="9.217462730830794"><ele>97.16666666666667</ele><time>2026-04-19T10:21:20.001Z</time></trkpt><trkpt lat="45.373598535256704" lon="9.217453307767094"><ele>97.33333333333334</ele><time>2026-04-19T10:21:22.001Z</time></trkpt><trkpt lat="45.373668012893525" lon="9.217431867057346"><ele>97.5</ele><time>2026-04-19T10:21:24.001Z</time></trkpt><trkpt lat="45.3737451548296" lon="9.21742194477645"><ele>97.66666666666666</ele><time>2026-04-19T10:21:26.001Z</time></trkpt><trkpt lat="45.373821370302636" lon="9.217427498139804"><ele>97.83333333333333</ele><time>2026-04-19T10:21:28.001Z</time></trkpt><trkpt lat="45.37390088802685" lon="9.21746099544074"><ele>98.0</ele><time>2026-04-19T10:21:30.001Z</time></trkpt><trkpt lat="45.37397759856262" lon="9.217479270524153"><ele>98.33333333333333</ele><time>2026-04-19T10:21:32.001Z</time></trkpt><trkpt lat="45.374048753109676" lon="9.21748607423673"><ele>98.66666666666666</ele><time>2026-04-19T10:21:34.001Z</time></trkpt><trkpt lat="45.37411590544834" lon="9.21751335725594"><ele>99.0</ele><time>2026-04-19T10:21:36.001Z</time></trkpt><trkpt lat="45.37418037064504" lon="9.217571888892909"><ele>99.33333333333334</ele><time>2026-04-19T10:21:38.001Z</time></trkpt><trkpt lat="45.37422299349104" lon="9.217678348858072"><ele>99.66666666666667</ele><time>2026-04-19T10:21:40.001Z</time></trkpt><trkpt lat="45.374251351493" lon="9.21777696040306"><ele>100.0</ele><time>2026-04-19T10:21:42.001Z</time></trkpt><trkpt lat="45.374270948210835" lon="9.217885601460855"><ele>100.00000000000001</ele><time>2026-04-19T10:21:44.001Z</time></trkpt><trkpt lat="45.37433522381733" lon="9.217947839738715"><ele>100.0</ele><time>2026-04-19T10:21:46.001Z</time></trkpt><trkpt lat="45.374318239252524" lon="9.21805846794774"><ele>100.0</ele><time>2026-04-19T10:21:48.001Z</time></trkpt><trkpt lat="45.37427391804581" lon="9.218168336595332"><ele>100.0</ele><time>2026-04-19T10:21:50.001Z</time></trkpt><trkpt lat="45.374214206516484" lon="9.218269983976088"><ele>100.00000000000001</ele><time>2026-04-19T10:21:52.001Z</time></trkpt><trkpt lat="45.374148897772585" lon="9.218346401472301"><ele>100.0</ele><time>2026-04-19T10:21:54.001Z</time></trkpt><trkpt lat="45.37409154289872" lon="9.218424446834376"><ele>99.50000000000001</ele><time>2026-04-19T10:21:56.001Z</time></trkpt><trkpt lat="45.37404993473374" lon="9.218527843436291"><ele>99.0</ele><time>2026-04-19T10:21:58.001Z</time></trkpt><trkpt lat="45.37402909511263" lon="9.218644750417802"><ele>98.5</ele><time>2026-04-19T10:22:00.001Z</time></trkpt><trkpt lat="45.37403249721877" lon="9.218766272627462"><ele>98.0</ele><time>2026-04-19T10:22:02.001Z</time></trkpt><trkpt lat="45.37405093512542" lon="9.218877003474107"><ele>97.50000000000001</ele><time>2026-04-19T10:22:04.001Z</time></trkpt><trkpt lat="45.374107259168966" lon="9.218971525428467"><ele>97.0</ele><time>2026-04-19T10:22:06.001Z</time></trkpt><trkpt lat="45.374187991932104" lon="9.219004190236417"><ele>97.00000000000001</ele><time>2026-04-19T10:22:08.001Z</time></trkpt><trkpt lat="45.37426926644536" lon="9.218988164715059"><ele>97.0</ele><time>2026-04-19T10:22:10.001Z</time></trkpt><trkpt lat="45.37434917728847" lon="9.218975662799668"><ele>97.0</ele><time>2026-04-19T10:22:12.001Z</time></trkpt><trkpt lat="45.374425639801146" lon="9.218972172964541"><ele>97.0</ele><time>2026-04-19T10:22:14.001Z</time></trkpt><trkpt lat="45.37450845617195" lon="9.218956345095705"><ele>97.00000000000001</ele><time>2026-04-19T10:22:16.001Z</time></trkpt><trkpt lat="45.37458754032879" lon="9.21895398713921"><ele>97.0</ele><time>2026-04-19T10:22:18.001Z</time></trkpt><trkpt lat="45.374668776400966" lon="9.218934254810348"><ele>97.50000000000001</ele><time>2026-04-19T10:22:20.001Z</time></trkpt><trkpt lat="45.374749592640654" lon="9.218918674533532"><ele>98.0</ele><time>2026-04-19T10:22:22.001Z</time></trkpt><trkpt lat="45.374826522910794" lon="9.218902917926693"><ele>98.5</ele><time>2026-04-19T10:22:24.001Z</time></trkpt><trkpt lat="45.37490894621145" lon="9.218889754038413"><ele>99.0</ele><time>2026-04-19T10:22:26.001Z</time></trkpt><trkpt lat="45.37498880663851" lon="9.218880360442176"><ele>99.50000000000001</ele><time>2026-04-19T10:22:28.001Z</time></trkpt><trkpt lat="45.375069519674064" lon="9.218865399745695"><ele>100.0</ele><time>2026-04-19T10:22:30.001Z</time></trkpt><trkpt lat="45.37515407878446" lon="9.218846410051938"><ele>100.00000000000001</ele><time>2026-04-19T10:22:32.001Z</time></trkpt><trkpt lat="45.3752418202892" lon="9.218824257850821"><ele>100.0</ele><time>2026-04-19T10:22:34.001Z</time></trkpt><trkpt lat="45.375327184245336" lon="9.218816935764469"><ele>100.0</ele><time>2026-04-19T10:22:36.001Z</time></trkpt><trkpt lat="45.37540429147578" lon="9.218802471121196"><ele>100.0</ele><time>2026-04-19T10:22:38.001Z</time></trkpt><trkpt lat="45.375474417947494" lon="9.218797791166166"><ele>100.00000000000001</ele><time>2026-04-19T10:22:40.001Z</time></trkpt><trkpt lat="45.375511490271485" lon="9.21888938145285"><ele>100.0</ele><time>2026-04-19T10:22:42.001Z</time></trkpt><trkpt lat="45.375540297256414" lon="9.219010678997648"><ele>99.50000000000001</ele><time>2026-04-19T10:22:44.001Z</time></trkpt><trkpt lat="45.375608789739694" lon="9.219097638511307"><ele>99.0</ele><time>2026-04-19T10:22:46.001Z</time></trkpt><trkpt lat="45.37566750627125" lon="9.219184076604948"><ele>98.5</ele><time>2026-04-19T10:22:48.001Z</time></trkpt><trkpt lat="45.37574710180848" lon="9.219242037667954"><ele>98.0</ele><time>2026-04-19T10:22:50.001Z</time></trkpt><trkpt lat="45.3758308672352" lon="9.219291367478327"><ele>97.50000000000001</ele><time>2026-04-19T10:22:52.001Z</time></trkpt><trkpt lat="45.3759157727616" lon="9.21932475470124"><ele>97.0</ele><time>2026-04-19T10:22:54.001Z</time></trkpt><trkpt lat="45.3760057490171" lon="9.219341932674466"><ele>97.00000000000001</ele><time>2026-04-19T10:22:56.001Z</time></trkpt><trkpt lat="45.37607725313894" lon="9.219340390930343"><ele>97.0</ele><time>2026-04-19T10:22:58.001Z</time></trkpt><trkpt lat="45.37615363337582" lon="9.219330575877729"><ele>97.0</ele><time>2026-04-19T10:23:00.001Z</time></trkpt><trkpt lat="45.37623741680336" lon="9.219303891468279"><ele>97.0</ele><time>2026-04-19T10:23:02.001Z</time></trkpt><trkpt lat="45.37632188109449" lon="9.21927608740915"><ele>97.00000000000001</ele><time>2026-04-19T10:23:04.001Z</time></trkpt><trkpt lat="45.3764087212827" lon="9.219243920501583"><ele>97.0</ele><time>2026-04-19T10:23:06.001Z</time></trkpt><trkpt lat="45.37650453099834" lon="9.219246314230631"><ele>97.00000000000001</ele><time>2026-04-19T10:23:08.001Z</time></trkpt><trkpt lat="45.376584915759715" lon="9.219268472297026"><ele>97.0</ele><time>2026-04-19T10:23:10.001Z</time></trkpt><trkpt lat="45.376659397287355" lon="9.21930373333296"><ele>97.0</ele><time>2026-04-19T10:23:12.001Z</time></trkpt><trkpt lat="45.37672475984506" lon="9.219356416661105"><ele>97.0</ele><time>2026-04-19T10:23:14.001Z</time></trkpt><trkpt lat="45.37679450163952" lon="9.219395696062966"><ele>97.00000000000001</ele><time>2026-04-19T10:23:16.001Z</time></trkpt><trkpt lat="45.37686176219703" lon="9.21946571960021"><ele>97.0</ele><time>2026-04-19T10:23:18.001Z</time></trkpt><trkpt lat="45.376942889191035" lon="9.219511643949595"><ele>97.00000000000001</ele><time>2026-04-19T10:23:20.001Z</time></trkpt><trkpt lat="45.37701963235783" lon="9.2195523814565"><ele>97.0</ele><time>2026-04-19T10:23:22.001Z</time></trkpt><trkpt lat="45.37710091121749" lon="9.21957863572226"><ele>97.0</ele><time>2026-04-19T10:23:24.001Z</time></trkpt><trkpt lat="45.3771721280887" lon="9.219578042456986"><ele>97.0</ele><time>2026-04-19T10:23:26.001Z</time></trkpt><trkpt lat="45.37727140293192" lon="9.219607356154054"><ele>97.00000000000001</ele><time>2026-04-19T10:23:28.001Z</time></trkpt><trkpt lat="45.37735409780399" lon="9.219604446411381"><ele>97.0</ele><time>2026-04-19T10:23:30.001Z</time></trkpt><trkpt lat="45.377437845487286" lon="9.21963172910363"><ele>97.39999999999999</ele><time>2026-04-19T10:23:32.001Z</time></trkpt><trkpt lat="45.37753219979104" lon="9.21965216147559"><ele>97.8</ele><time>2026-04-19T10:23:34.001Z</time></trkpt><trkpt lat="45.37761605109831" lon="9.219627239045108"><ele>98.2</ele><time>2026-04-19T10:23:36.001Z</time></trkpt><trkpt lat="45.37770699390967" lon="9.219612110223787"><ele>98.6</ele><time>2026-04-19T10:23:38.001Z</time></trkpt><trkpt lat="45.37778812668875" lon="9.219576647104004"><ele>99.0</ele><time>2026-04-19T10:23:40.001Z</time></trkpt><trkpt lat="45.37787598177248" lon="9.219528814503542"><ele>99.0</ele><time>2026-04-19T10:23:42.001Z</time></trkpt><trkpt lat="45.377953151923016" lon="9.219478826029533"><ele>99.0</ele><time>2026-04-19T10:23:44.001Z</time></trkpt><trkpt lat="45.37802736927524" lon="9.219421899724077"><ele>99.0</ele><time>2026-04-19T10:23:46.001Z</time></trkpt><trkpt lat="45.37810013505782" lon="9.219348584102496"><ele>99.0</ele><time>2026-04-19T10:23:48.001Z</time></trkpt><trkpt lat="45.37817360634223" lon="9.219274819553204"><ele>99.0</ele><time>2026-04-19T10:23:50.001Z</time></trkpt><trkpt lat="45.37824232857138" lon="9.21919949810932"><ele>99.0</ele><time>2026-04-19T10:23:52.001Z</time></trkpt><trkpt lat="45.37831284209434" lon="9.219124530306168"><ele>99.0</ele><time>2026-04-19T10:23:54.001Z</time></trkpt><trkpt lat="45.378381288850015" lon="9.219051279822063"><ele>99.0</ele><time>2026-04-19T10:23:56.001Z</time></trkpt><trkpt lat="45.37844926929119" lon="9.218969002392113"><ele>99.0</ele><time>2026-04-19T10:23:58.001Z</time></trkpt><trkpt lat="45.37851471913728" lon="9.218893983880871"><ele>99.0</ele><time>2026-04-19T10:24:00.001Z</time></trkpt><trkpt lat="45.37859704417115" lon="9.218836239447349"><ele>99.0</ele><time>2026-04-19T10:24:02.001Z</time></trkpt><trkpt lat="45.37867773495284" lon="9.21878947471392"><ele>99.0</ele><time>2026-04-19T10:24:04.001Z</time></trkpt><trkpt lat="45.37876083331826" lon="9.2187505155374"><ele>99.0</ele><time>2026-04-19T10:24:06.001Z</time></trkpt><trkpt lat="45.37884804347103" lon="9.21873092169821"><ele>99.0</ele><time>2026-04-19T10:24:08.001Z</time></trkpt><trkpt lat="45.37893383265163" lon="9.218730560709812"><ele>99.0</ele><time>2026-04-19T10:24:10.001Z</time></trkpt><trkpt lat="45.37901238937073" lon="9.218753252314873"><ele>99.0</ele><time>2026-04-19T10:24:12.001Z</time></trkpt><trkpt lat="45.37907741732865" lon="9.21879319589527"><ele>99.0</ele><time>2026-04-19T10:24:14.001Z</time></trkpt><trkpt lat="45.37913615116459" lon="9.218837398672587"><ele>99.0</ele><time>2026-04-19T10:24:17.001Z</time></trkpt><trkpt lat="45.3791855111362" lon="9.21892794893423"><ele>99.0</ele><time>2026-04-19T10:24:21.001Z</time></trkpt><trkpt lat="45.37925587670465" lon="9.218987645009484"><ele>99.0</ele><time>2026-04-19T10:24:29.001Z</time></trkpt><trkpt lat="45.37930039789978" lon="9.219063057757698"><ele>99.0</ele><time>2026-04-19T10:24:31.001Z</time></trkpt><trkpt lat="45.37932395687063" lon="9.219166007781798"><ele>99.0</ele><time>2026-04-19T10:24:33.001Z</time></trkpt><trkpt lat="45.379392263802124" lon="9.219157630532038"><ele>99.0</ele><time>2026-04-19T10:24:35.001Z</time></trkpt><trkpt lat="45.379450243957805" lon="9.219118431810418"><ele>99.0</ele><time>2026-04-19T10:24:38.001Z</time></trkpt><trkpt lat="45.3795165608195" lon="9.21910598899726"><ele>99.0</ele><time>2026-04-19T10:25:20.001Z</time></trkpt><trkpt lat="45.379606061872124" lon="9.219110517459622"><ele>99.16666666666667</ele><time>2026-04-19T10:25:23.001Z</time></trkpt><trkpt lat="45.37969150568974" lon="9.219091183078595"><ele>99.33333333333334</ele><time>2026-04-19T10:25:25.001Z</time></trkpt><trkpt lat="45.37977656249465" lon="9.219068736014105"><ele>99.5</ele><time>2026-04-19T10:25:27.001Z</time></trkpt><trkpt lat="45.37985447658847" lon="9.219056582803532"><ele>99.66666666666667</ele><time>2026-04-19T10:25:29.001Z</time></trkpt><trkpt lat="45.37993339262242" lon="9.219028839476048"><ele>99.83333333333334</ele><time>2026-04-19T10:25:31.001Z</time></trkpt><trkpt lat="45.38001628674944" lon="9.219010137839014"><ele>100.0</ele><time>2026-04-19T10:25:33.001Z</time></trkpt><trkpt lat="45.380103093236116" lon="9.21900000621207"><ele>100.00000000000001</ele><time>2026-04-19T10:25:35.001Z</time></trkpt><trkpt lat="45.38018712139796" lon="9.218973536656044"><ele>100.0</ele><time>2026-04-19T10:25:37.001Z</time></trkpt><trkpt lat="45.3802726582551" lon="9.218955525453357"><ele>100.0</ele><time>2026-04-19T10:25:39.001Z</time></trkpt><trkpt lat="45.38036126350935" lon="9.218943182522226"><ele>100.0</ele><time>2026-04-19T10:25:41.001Z</time></trkpt><trkpt lat="45.380449352178445" lon="9.218920426535666"><ele>100.00000000000001</ele><time>2026-04-19T10:25:43.001Z</time></trkpt><trkpt lat="45.38053901972175" lon="9.218898707802685"><ele>100.0</ele><time>2026-04-19T10:25:45.001Z</time></trkpt><trkpt lat="45.380627797859404" lon="9.218883144384229"><ele>100.66666666666667</ele><time>2026-04-19T10:25:47.001Z</time></trkpt><trkpt lat="45.38071346773929" lon="9.218857819463011"><ele>101.33333333333334</ele><time>2026-04-19T10:25:49.001Z</time></trkpt><trkpt lat="45.38080069175871" lon="9.218840318211937"><ele>102.0</ele><time>2026-04-19T10:25:51.001Z</time></trkpt><trkpt lat="45.38088652587573" lon="9.218817747108005"><ele>102.66666666666666</ele><time>2026-04-19T10:25:53.001Z</time></trkpt><trkpt lat="45.38097247413162" lon="9.218793827620445"><ele>103.33333333333333</ele><time>2026-04-19T10:25:55.001Z</time></trkpt><trkpt lat="45.38105947251029" lon="9.218780068706272"><ele>104.0</ele><time>2026-04-19T10:25:57.001Z</time></trkpt><trkpt lat="45.3811493696746" lon="9.218759328845863"><ele>103.99999999999999</ele><time>2026-04-19T10:25:59.001Z</time></trkpt><trkpt lat="45.38123932776862" lon="9.21873535475679"><ele>104.0</ele><time>2026-04-19T10:26:01.001Z</time></trkpt><trkpt lat="45.38132822263563" lon="9.21871735921277"><ele>104.0</ele><time>2026-04-19T10:26:03.001Z</time></trkpt><trkpt lat="45.38141612773147" lon="9.21869720692721"><ele>104.0</ele><time>2026-04-19T10:26:05.001Z</time></trkpt><trkpt lat="45.381504770648505" lon="9.218665694843276"><ele>103.99999999999999</ele><time>2026-04-19T10:26:07.001Z</time></trkpt><trkpt lat="45.381591440239994" lon="9.218647095862456"><ele>104.0</ele><time>2026-04-19T10:26:09.001Z</time></trkpt><trkpt lat="45.38167890315507" lon="9.218631038955381"><ele>103.83333333333333</ele><time>2026-04-19T10:26:11.001Z</time></trkpt><trkpt lat="45.38177130928859" lon="9.21861296763252"><ele>103.66666666666666</ele><time>2026-04-19T10:26:13.001Z</time></trkpt><trkpt lat="45.381858247955826" lon="9.218593622020103"><ele>103.5</ele><time>2026-04-19T10:26:15.001Z</time></trkpt><trkpt lat="45.38192481975816" lon="9.218515947500075"><ele>103.33333333333334</ele><time>2026-04-19T10:26:17.001Z</time></trkpt><trkpt lat="45.38193246390204" lon="9.218393871793452"><ele>103.16666666666667</ele><time>2026-04-19T10:26:19.001Z</time></trkpt><trkpt lat="45.38192268861442" lon="9.21828249013278"><ele>103.0</ele><time>2026-04-19T10:26:21.001Z</time></trkpt><trkpt lat="45.38190171441547" lon="9.218180151359242"><ele>103.0</ele><time>2026-04-19T10:26:23.001Z</time></trkpt><trkpt lat="45.38187951070342" lon="9.218082673350965"><ele>101.0</ele><time>2026-04-19T10:26:25.001Z</time></trkpt><trkpt lat="45.381856283279504" lon="9.21799327871004"><ele>101.0</ele><time>2026-04-19T10:26:27.001Z</time></trkpt><trkpt lat="45.38185563753838" lon="9.217888486187789"><ele>101.0</ele><time>2026-04-19T10:26:30Z</time></trkpt></trkseg></trk></gpx>